<?xml version='1.0' encoding='UTF-8'?><gpx version="1.1" creator="JPX - https://github.com/jenetics/jpx" xmlns="http://www.topografix.com/GPX/1/1"><trk><trkseg><trkpt lat="39.067367347676324" lon="8.458226243515407"><ele>4.0</ele><time>2026-04-01T07:39:01.15Z</time></trkpt><trkpt lat="39.06745383819519" lon="8.45839417059149"><ele>4.0</ele><time>2026-04-01T07:39:31.159Z</time></trkpt><trkpt lat="39.067367347676324" lon="8.458226243515407"><ele>4.0</ele><time>2026-04-01T07:40:03.589Z</time></trkpt><trkpt lat="39.06745682359304" lon="8.45839770794311"><ele>4.0</ele><time>2026-04-01T07:40:33.602Z</time></trkpt><trkpt lat="39.067367347676324" lon="8.458226243515407"><ele>4.0</ele><time>2026-04-01T07:43:14.28Z</time></trkpt><trkpt lat="39.0673305839976" lon="8.458101857154789"><ele>4.0</ele><time>2026-04-01T07:51:27.995Z</time></trkpt><trkpt lat="39.06735121820905" lon="8.45818461950231"><ele>4.0</ele><time>2026-04-01T07:51:51Z</time></trkpt><trkpt lat="39.067340441148325" lon="8.458270676478053"><ele>4.0</ele><time>2026-04-01T07:51:57Z</time></trkpt><trkpt lat="39.06732763114613" lon="8.458357764218107"><ele>4.0</ele><time>2026-04-01T07:52:02Z</time></trkpt><trkpt lat="39.067315030932384" lon="8.45844789290021"><ele>3.9999999999999996</ele><time>2026-04-01T07:52:08.001Z</time></trkpt><trkpt lat="39.06731649533412" lon="8.458529368396906"><ele>4.0</ele><time>2026-04-01T07:52:16.001Z</time></trkpt><trkpt lat="39.06728725667937" lon="8.458611334060123"><ele>4.0</ele><time>2026-04-01T07:52:22.001Z</time></trkpt><trkpt lat="39.06735075294282" lon="8.45862405607165"><ele>3.9999999999999996</ele><time>2026-04-01T07:57:38.002Z</time></trkpt><trkpt lat="39.06732797403368" lon="8.458530604239087"><ele>4.0</ele><time>2026-04-01T07:57:41.002Z</time></trkpt><trkpt lat="39.06726088040587" lon="8.45852262318455"><ele>4.0</ele><time>2026-04-01T07:57:44.002Z</time></trkpt><trkpt lat="39.06719484833686" lon="8.458490738717952"><ele>3.9999999999999996</ele><time>2026-04-01T07:57:47.001Z</time></trkpt><trkpt lat="39.067123514060285" lon="8.458455147599478"><ele>4.0</ele><time>2026-04-01T07:57:51.001Z</time></trkpt><trkpt lat="39.06705013136074" lon="8.458445823714403"><ele>4.0</ele><time>2026-04-01T07:58:47.001Z</time></trkpt><trkpt lat="39.06697312618856" lon="8.458417046412682"><ele>4.0</ele><time>2026-04-01T07:58:49.001Z</time></trkpt><trkpt lat="39.06688735426661" lon="8.458375007995818"><ele>3.9999999999999996</ele><time>2026-04-01T07:58:51.001Z</time></trkpt><trkpt lat="39.066786497736125" lon="8.45833216387965"><ele>4.0</ele><time>2026-04-01T07:58:53.001Z</time></trkpt><trkpt lat="39.066661080794454" lon="8.458299734876633"><ele>4.0</ele><time>2026-04-01T07:58:55.001Z</time></trkpt><trkpt lat="39.066589278136746" lon="8.4582858038935"><ele>3.9999999999999996</ele><time>2026-04-01T07:58:56.001Z</time></trkpt><trkpt lat="39.0665202749089" lon="8.458273062253259"><ele>4.0</ele><time>2026-04-01T07:58:57.001Z</time></trkpt><trkpt lat="39.06645092451317" lon="8.458259519733499"><ele>4.0</ele><time>2026-04-01T07:58:58.001Z</time></trkpt><trkpt lat="39.06637833872125" lon="8.458248000567519"><ele>3.9999999999999996</ele><time>2026-04-01T07:58:59.001Z</time></trkpt><trkpt lat="39.06630243305478" lon="8.458240522065982"><ele>4.0</ele><time>2026-04-01T07:59:00.001Z</time></trkpt><trkpt lat="39.066222597877605" lon="8.458235720180424"><ele>4.0</ele><time>2026-04-01T07:59:01.001Z</time></trkpt><trkpt lat="39.06614245484687" lon="8.458229610074449"><ele>4.0</ele><time>2026-04-01T07:59:02.001Z</time></trkpt><trkpt lat="39.066066052701174" lon="8.458229620456951"><ele>3.9999999999999996</ele><time>2026-04-01T07:59:03.001Z</time></trkpt><trkpt lat="39.065996928173" lon="8.458244638859906"><ele>4.0</ele><time>2026-04-01T07:59:04.001Z</time></trkpt><trkpt lat="39.06593279828145" lon="8.458257502732064"><ele>4.0</ele><time>2026-04-01T07:59:05.001Z</time></trkpt><trkpt lat="39.06586584671924" lon="8.458264535588954"><ele>3.9999999999999996</ele><time>2026-04-01T07:59:06.001Z</time></trkpt><trkpt lat="39.065798173827915" lon="8.458263908282012"><ele>4.0</ele><time>2026-04-01T07:59:07.001Z</time></trkpt><trkpt lat="39.065721111458885" lon="8.458263023385678"><ele>4.0</ele><time>2026-04-01T07:59:08.001Z</time></trkpt><trkpt lat="39.065640598108615" lon="8.45823035836973"><ele>3.8571428571428568</ele><time>2026-04-01T07:59:09.001Z</time></trkpt><trkpt lat="39.065566536181684" lon="8.458183075090767"><ele>3.714285714285714</ele><time>2026-04-01T07:59:10.001Z</time></trkpt><trkpt lat="39.06550132782169" lon="8.458140679200266"><ele>3.571428571428571</ele><time>2026-04-01T07:59:11.001Z</time></trkpt><trkpt lat="39.065434657374546" lon="8.458118750101741"><ele>3.4285714285714284</ele><time>2026-04-01T07:59:12.001Z</time></trkpt><trkpt lat="39.06536061339867" lon="8.458110950988116"><ele>3.2857142857142856</ele><time>2026-04-01T07:59:13.001Z</time></trkpt><trkpt lat="39.065290381473105" lon="8.458095749783546"><ele>3.1428571428571423</ele><time>2026-04-01T07:59:14.001Z</time></trkpt><trkpt lat="39.06522757303779" lon="8.458077725742562"><ele>3.0</ele><time>2026-04-01T07:59:15.001Z</time></trkpt><trkpt lat="39.06511581794829" lon="8.458045933082927"><ele>3.0</ele><time>2026-04-01T07:59:17.001Z</time></trkpt><trkpt lat="39.06501248358057" lon="8.458024117529483"><ele>3.0</ele><time>2026-04-01T07:59:19.001Z</time></trkpt><trkpt lat="39.06491187359169" lon="8.45798647705655"><ele>3.0</ele><time>2026-04-01T07:59:21.001Z</time></trkpt><trkpt lat="39.064800393436585" lon="8.457962589555505"><ele>3.0</ele><time>2026-04-01T07:59:23.001Z</time></trkpt><trkpt lat="39.06466988805922" lon="8.457937983762672"><ele>3.1666666666666665</ele><time>2026-04-01T07:59:25.001Z</time></trkpt><trkpt lat="39.064598116886515" lon="8.457912291116827"><ele>3.333333333333333</ele><time>2026-04-01T07:59:26.001Z</time></trkpt><trkpt lat="39.06452500670586" lon="8.45789466162906"><ele>3.5</ele><time>2026-04-01T07:59:27.001Z</time></trkpt><trkpt lat="39.06444343326417" lon="8.457880315211083"><ele>3.6666666666666665</ele><time>2026-04-01T07:59:28.001Z</time></trkpt><trkpt lat="39.064359052901416" lon="8.457865012733995"><ele>3.833333333333333</ele><time>2026-04-01T07:59:29.001Z</time></trkpt><trkpt lat="39.064272155733335" lon="8.457851334789954"><ele>4.0</ele><time>2026-04-01T07:59:30.001Z</time></trkpt><trkpt lat="39.064184575728795" lon="8.45785215589989"><ele>4.166666666666666</ele><time>2026-04-01T07:59:31.001Z</time></trkpt><trkpt lat="39.06410557570357" lon="8.45785939159157"><ele>4.333333333333333</ele><time>2026-04-01T07:59:32.001Z</time></trkpt><trkpt lat="39.06403243535955" lon="8.457876381912406"><ele>4.5</ele><time>2026-04-01T07:59:33.001Z</time></trkpt><trkpt lat="39.063959451016544" lon="8.457895322717944"><ele>4.666666666666667</ele><time>2026-04-01T07:59:34.001Z</time></trkpt><trkpt lat="39.0638847225015" lon="8.457912017867198"><ele>4.833333333333334</ele><time>2026-04-01T07:59:35.001Z</time></trkpt><trkpt lat="39.06380522180764" lon="8.45793825648605"><ele>5.0</ele><time>2026-04-01T07:59:36.001Z</time></trkpt><trkpt lat="39.063722800813906" lon="8.45796519546493"><ele>4.833333333333334</ele><time>2026-04-01T07:59:37.001Z</time></trkpt><trkpt lat="39.063638628878415" lon="8.458003830253142"><ele>4.666666666666667</ele><time>2026-04-01T07:59:38.001Z</time></trkpt><trkpt lat="39.06355302112982" lon="8.45804831022372"><ele>4.5</ele><time>2026-04-01T07:59:39.001Z</time></trkpt><trkpt lat="39.063474073757995" lon="8.458090845137338"><ele>4.333333333333333</ele><time>2026-04-01T07:59:40.001Z</time></trkpt><trkpt lat="39.0633962666107" lon="8.458142155392714"><ele>4.166666666666666</ele><time>2026-04-01T07:59:41.001Z</time></trkpt><trkpt lat="39.063315749906856" lon="8.45820146273978"><ele>4.0</ele><time>2026-04-01T07:59:42Z</time></trkpt><trkpt lat="39.063237596029076" lon="8.45826983451006"><ele>4.0</ele><time>2026-04-01T07:59:43Z</time></trkpt><trkpt lat="39.06316101356539" lon="8.45834100062508"><ele>4.0</ele><time>2026-04-01T07:59:44Z</time></trkpt><trkpt lat="39.06309075619264" lon="8.458432572061305"><ele>4.0</ele><time>2026-04-01T07:59:45Z</time></trkpt><trkpt lat="39.06302375480206" lon="8.458529339367775"><ele>4.0</ele><time>2026-04-01T07:59:46Z</time></trkpt><trkpt lat="39.06295605952325" lon="8.458631047264724"><ele>4.0</ele><time>2026-04-01T07:59:47Z</time></trkpt><trkpt lat="39.06289238857404" lon="8.458739247594753"><ele>3.8000000000000003</ele><time>2026-04-01T07:59:48Z</time></trkpt><trkpt lat="39.062820826703934" lon="8.458845243929499"><ele>3.6000000000000005</ele><time>2026-04-01T07:59:49Z</time></trkpt><trkpt lat="39.062749750559234" lon="8.458951186551658"><ele>3.4</ele><time>2026-04-01T07:59:50Z</time></trkpt><trkpt lat="39.06267567839507" lon="8.45905749517957"><ele>3.2</ele><time>2026-04-01T07:59:51Z</time></trkpt><trkpt lat="39.06259741213331" lon="8.459165826721144"><ele>3.0</ele><time>2026-04-01T07:59:52Z</time></trkpt><trkpt lat="39.062521309442545" lon="8.459270941102146"><ele>3.0</ele><time>2026-04-01T07:59:53Z</time></trkpt><trkpt lat="39.062448591191654" lon="8.459378842681412"><ele>3.0</ele><time>2026-04-01T07:59:54Z</time></trkpt><trkpt lat="39.062378444203205" lon="8.459487834308158"><ele>3.0</ele><time>2026-04-01T07:59:55Z</time></trkpt><trkpt lat="39.06230009036091" lon="8.459588038855799"><ele>3.0</ele><time>2026-04-01T07:59:56Z</time></trkpt><trkpt lat="39.062235508362406" lon="8.459693669100382"><ele>3.0</ele><time>2026-04-01T07:59:57Z</time></trkpt><trkpt lat="39.06217004734171" lon="8.459798154439095"><ele>3.2</ele><time>2026-04-01T07:59:58Z</time></trkpt><trkpt lat="39.06209641604179" lon="8.459901211877716"><ele>3.4</ele><time>2026-04-01T07:59:59Z</time></trkpt><trkpt lat="39.06203330502267" lon="8.460004267835613"><ele>3.6000000000000005</ele><time>2026-04-01T08:00:00Z</time></trkpt><trkpt lat="39.06196012919303" lon="8.46009990905767"><ele>3.8000000000000003</ele><time>2026-04-01T08:00:01Z</time></trkpt><trkpt lat="39.061894993402824" lon="8.460197289148388"><ele>4.0</ele><time>2026-04-01T08:00:02Z</time></trkpt><trkpt lat="39.061819935859546" lon="8.460299145862278"><ele>4.0</ele><time>2026-04-01T08:00:03Z</time></trkpt><trkpt lat="39.06174077800748" lon="8.460401819038585"><ele>4.0</ele><time>2026-04-01T08:00:04Z</time></trkpt><trkpt lat="39.0616579883114" lon="8.460505319008357"><ele>4.0</ele><time>2026-04-01T08:00:05Z</time></trkpt><trkpt lat="39.06156812554486" lon="8.460596403707356"><ele>4.0</ele><time>2026-04-01T08:00:06Z</time></trkpt><trkpt lat="39.061468778135044" lon="8.46065494959824"><ele>4.2</ele><time>2026-04-01T08:00:07Z</time></trkpt><trkpt lat="39.06137119548023" lon="8.460729218788439"><ele>4.4</ele><time>2026-04-01T08:00:08Z</time></trkpt><trkpt lat="39.06127863389967" lon="8.46080229104268"><ele>4.6</ele><time>2026-04-01T08:00:09Z</time></trkpt><trkpt lat="39.061181801605514" lon="8.460875734325501"><ele>4.8</ele><time>2026-04-01T08:00:10Z</time></trkpt><trkpt lat="39.061086605044274" lon="8.46095426080557"><ele>5.0</ele><time>2026-04-01T08:00:11Z</time></trkpt><trkpt lat="39.06100514635117" lon="8.461064280460452"><ele>5.0</ele><time>2026-04-01T08:00:12Z</time></trkpt><trkpt lat="39.06092431479826" lon="8.461171841748826"><ele>5.0</ele><time>2026-04-01T08:00:13Z</time></trkpt><trkpt lat="39.060846561793916" lon="8.461291753330048"><ele>5.0</ele><time>2026-04-01T08:00:14Z</time></trkpt><trkpt lat="39.06077381048005" lon="8.461410294020094"><ele>5.0</ele><time>2026-04-01T08:00:15Z</time></trkpt><trkpt lat="39.06061168857318" lon="8.46164066307836"><ele>4.666666666666667</ele><time>2026-04-01T08:00:17Z</time></trkpt><trkpt lat="39.06043906435419" lon="8.461858152200177"><ele>4.333333333333333</ele><time>2026-04-01T08:00:19Z</time></trkpt><trkpt lat="39.06034620443051" lon="8.461922852823164"><ele>4.0</ele><time>2026-04-01T08:00:20Z</time></trkpt><trkpt lat="39.060225659797936" lon="8.461975121060465"><ele>4.0</ele><time>2026-04-01T08:00:21Z</time></trkpt><trkpt lat="39.060112878226334" lon="8.462033546898478"><ele>4.0</ele><time>2026-04-01T08:00:22Z</time></trkpt><trkpt lat="39.05999448284616" lon="8.46208776361893"><ele>4.0</ele><time>2026-04-01T08:00:23Z</time></trkpt><trkpt lat="39.05987888569799" lon="8.462146167696202"><ele>4.0</ele><time>2026-04-01T08:00:24Z</time></trkpt><trkpt lat="39.05976585520403" lon="8.462220302242379"><ele>4.25</ele><time>2026-04-01T08:00:25Z</time></trkpt><trkpt lat="39.05965701353569" lon="8.462310676928665"><ele>4.5</ele><time>2026-04-01T08:00:26Z</time></trkpt><trkpt lat="39.05955600770262" lon="8.462414645332407"><ele>4.75</ele><time>2026-04-01T08:00:27Z</time></trkpt><trkpt lat="39.05945587882306" lon="8.462531132568094"><ele>5.0</ele><time>2026-04-01T08:00:28Z</time></trkpt><trkpt lat="39.05936393458013" lon="8.462650057420628"><ele>5.0</ele><time>2026-04-01T08:00:29Z</time></trkpt><trkpt lat="39.059270106468176" lon="8.462761195419487"><ele>5.0</ele><time>2026-04-01T08:00:30Z</time></trkpt><trkpt lat="39.059169700515156" lon="8.46286685059171"><ele>5.0</ele><time>2026-04-01T08:00:31Z</time></trkpt><trkpt lat="39.05907025064013" lon="8.462955736946874"><ele>5.0</ele><time>2026-04-01T08:00:32Z</time></trkpt><trkpt lat="39.058970487150454" lon="8.463026530820489"><ele>4.4</ele><time>2026-04-01T08:00:33Z</time></trkpt><trkpt lat="39.05887388415147" lon="8.463082736619615"><ele>3.8</ele><time>2026-04-01T08:00:34Z</time></trkpt><trkpt lat="39.05878365758054" lon="8.463135237132668"><ele>3.2</ele><time>2026-04-01T08:00:35Z</time></trkpt><trkpt lat="39.0587058696378" lon="8.463178136075726"><ele>2.6</ele><time>2026-04-01T08:00:36Z</time></trkpt><trkpt lat="39.058639691518664" lon="8.463214895099712"><ele>2.0</ele><time>2026-04-01T08:00:37Z</time></trkpt><trkpt lat="39.05854681360298" lon="8.463271676085139"><ele>1.9999999999999998</ele><time>2026-04-01T08:00:39Z</time></trkpt><trkpt lat="39.05846779393606" lon="8.463314176897715"><ele>2.0</ele><time>2026-04-01T08:00:41Z</time></trkpt><trkpt lat="39.058406557674324" lon="8.463338687112483"><ele>2.0</ele><time>2026-04-01T08:00:43Z</time></trkpt><trkpt lat="39.05834152966465" lon="8.463366537925268"><ele>2.0</ele><time>2026-04-01T08:00:46Z</time></trkpt><trkpt lat="39.05827687975184" lon="8.463393040213692"><ele>1.9999999999999998</ele><time>2026-04-01T08:00:48Z</time></trkpt><trkpt lat="39.058200875907026" lon="8.463458009211205"><ele>2.0</ele><time>2026-04-01T08:00:51Z</time></trkpt><trkpt lat="39.05813432055589" lon="8.463346235293008"><ele>2.1666666666666665</ele><time>2026-04-01T08:00:52Z</time></trkpt><trkpt lat="39.058061513553234" lon="8.463258131603093"><ele>2.333333333333333</ele><time>2026-04-01T08:00:54Z</time></trkpt><trkpt lat="39.05800820413675" lon="8.463214740138648"><ele>2.5</ele><time>2026-04-01T08:00:56Z</time></trkpt><trkpt lat="39.057936800971916" lon="8.46318501376498"><ele>2.6666666666666665</ele><time>2026-04-01T08:00:58Z</time></trkpt><trkpt lat="39.057874414797155" lon="8.463153928594416"><ele>2.8333333333333335</ele><time>2026-04-01T08:01:00Z</time></trkpt><trkpt lat="39.05782826570875" lon="8.463095949534644"><ele>3.0</ele><time>2026-04-01T08:01:02Z</time></trkpt><trkpt lat="39.05785883255294" lon="8.46298041318886"><ele>3.2</ele><time>2026-04-01T08:01:04.001Z</time></trkpt><trkpt lat="39.05794460981847" lon="8.462902302401694"><ele>3.4</ele><time>2026-04-01T08:01:06.001Z</time></trkpt><trkpt lat="39.0580169603648" lon="8.462801966322719"><ele>3.6000000000000005</ele><time>2026-04-01T08:01:08.001Z</time></trkpt><trkpt lat="39.058111217973355" lon="8.462689978447473"><ele>3.8000000000000003</ele><time>2026-04-01T08:01:10.001Z</time></trkpt><trkpt lat="39.05816396014588" lon="8.462635125314337"><ele>4.0</ele><time>2026-04-01T08:01:11.001Z</time></trkpt><trkpt lat="39.058213439606995" lon="8.462583907859269"><ele>3.8571428571428568</ele><time>2026-04-01T08:01:12.001Z</time></trkpt><trkpt lat="39.05830349385825" lon="8.462485132964153"><ele>3.714285714285714</ele><time>2026-04-01T08:01:14.001Z</time></trkpt><trkpt lat="39.05835691539227" lon="8.462428180334848"><ele>3.571428571428571</ele><time>2026-04-01T08:01:15.001Z</time></trkpt><trkpt lat="39.058410156277716" lon="8.462373822608333"><ele>3.4285714285714284</ele><time>2026-04-01T08:01:16.001Z</time></trkpt><trkpt lat="39.058458576377426" lon="8.462320005807552"><ele>3.2857142857142856</ele><time>2026-04-01T08:01:17.001Z</time></trkpt><trkpt lat="39.05850566830229" lon="8.462264916817093"><ele>3.1428571428571423</ele><time>2026-04-01T08:01:18.001Z</time></trkpt><trkpt lat="39.05855256755367" lon="8.462206787709375"><ele>3.0</ele><time>2026-04-01T08:01:19.001Z</time></trkpt><trkpt lat="39.05860840032524" lon="8.462150967957749"><ele>3.2857142857142856</ele><time>2026-04-01T08:01:20.001Z</time></trkpt><trkpt lat="39.058659683773605" lon="8.462085580019192"><ele>3.571428571428571</ele><time>2026-04-01T08:01:21.001Z</time></trkpt><trkpt lat="39.058715176759115" lon="8.462030249922591"><ele>3.8571428571428568</ele><time>2026-04-01T08:01:22.001Z</time></trkpt><trkpt lat="39.05877157880251" lon="8.461974913625314"><ele>4.142857142857142</ele><time>2026-04-01T08:01:23.001Z</time></trkpt><trkpt lat="39.05882558272121" lon="8.461914306949659"><ele>4.428571428571429</ele><time>2026-04-01T08:01:24.001Z</time></trkpt><trkpt lat="39.058877578474174" lon="8.461849511016895"><ele>4.714285714285714</ele><time>2026-04-01T08:01:25.001Z</time></trkpt><trkpt lat="39.05893390189573" lon="8.461785655372609"><ele>5.0</ele><time>2026-04-01T08:01:26.001Z</time></trkpt><trkpt lat="39.05898677261319" lon="8.461714517775698"><ele>5.0</ele><time>2026-04-01T08:01:27.001Z</time></trkpt><trkpt lat="39.059040062919095" lon="8.46163952926393"><ele>5.0</ele><time>2026-04-01T08:01:28.001Z</time></trkpt><trkpt lat="39.05910015942824" lon="8.461568603374873"><ele>5.0</ele><time>2026-04-01T08:01:29.001Z</time></trkpt><trkpt lat="39.05915771434975" lon="8.461493369577314"><ele>5.0</ele><time>2026-04-01T08:01:30.001Z</time></trkpt><trkpt lat="39.05920521508474" lon="8.461417840090247"><ele>5.0</ele><time>2026-04-01T08:01:31.001Z</time></trkpt><trkpt lat="39.05925090511088" lon="8.461343799685196"><ele>5.0</ele><time>2026-04-01T08:01:32.001Z</time></trkpt><trkpt lat="39.059294957198986" lon="8.461270183097554"><ele>4.833333333333334</ele><time>2026-04-01T08:01:33.001Z</time></trkpt><trkpt lat="39.059342117295635" lon="8.461198353801715"><ele>4.666666666666667</ele><time>2026-04-01T08:01:34.001Z</time></trkpt><trkpt lat="39.05938856691204" lon="8.461126569491569"><ele>4.5</ele><time>2026-04-01T08:01:35.001Z</time></trkpt><trkpt lat="39.059439304861954" lon="8.461056180729388"><ele>4.333333333333333</ele><time>2026-04-01T08:01:36.001Z</time></trkpt><trkpt lat="39.05948275837928" lon="8.460971809852968"><ele>4.166666666666666</ele><time>2026-04-01T08:01:37.001Z</time></trkpt><trkpt lat="39.059521292831434" lon="8.460899875869918"><ele>4.0</ele><time>2026-04-01T08:01:38.001Z</time></trkpt><trkpt lat="39.05959287254679" lon="8.460772932408055"><ele>3.9999999999999996</ele><time>2026-04-01T08:01:40.001Z</time></trkpt><trkpt lat="39.05963060455561" lon="8.460707136656474"><ele>4.0</ele><time>2026-04-01T08:01:41.001Z</time></trkpt><trkpt lat="39.05967145572353" lon="8.460643382460562"><ele>4.0</ele><time>2026-04-01T08:01:42.001Z</time></trkpt><trkpt lat="39.059715811669236" lon="8.460579646869611"><ele>4.0</ele><time>2026-04-01T08:01:43.001Z</time></trkpt><trkpt lat="39.05978660050968" lon="8.460459825665595"><ele>3.9999999999999996</ele><time>2026-04-01T08:01:45.001Z</time></trkpt><trkpt lat="39.05984332480471" lon="8.460358662931148"><ele>4.0</ele><time>2026-04-01T08:01:47.001Z</time></trkpt><trkpt lat="39.05990008489633" lon="8.460274871825632"><ele>4.2</ele><time>2026-04-01T08:01:48.999Z</time></trkpt><trkpt lat="39.05990973529313" lon="8.46018317098929"><ele>4.4</ele><time>2026-04-01T08:01:50.999Z</time></trkpt><trkpt lat="39.05990890389937" lon="8.460100522359797"><ele>4.6</ele><time>2026-04-01T08:01:52.999Z</time></trkpt><trkpt lat="39.059998716493126" lon="8.460115464718456"><ele>4.8</ele><time>2026-04-01T08:01:54.999Z</time></trkpt><trkpt lat="39.05994477684464" lon="8.459926935422333"><ele>5.0</ele><time>2026-04-01T08:01:58.999Z</time></trkpt><trkpt lat="39.05988727192956" lon="8.459837477694542"><ele>5.0</ele><time>2026-04-01T08:02:09.999Z</time></trkpt><trkpt lat="39.05981712561064" lon="8.45977858975056"><ele>5.0</ele><time>2026-04-01T08:02:30Z</time></trkpt><trkpt lat="39.059854331259416" lon="8.459867541230158"><ele>5.0</ele><time>2026-04-01T08:02:35Z</time></trkpt><trkpt lat="39.0598552815291" lon="8.459950424840471"><ele>5.0</ele><time>2026-04-01T08:02:37Z</time></trkpt><trkpt lat="39.05982141645362" lon="8.4600434687856"><ele>5.0</ele><time>2026-04-01T08:02:40Z</time></trkpt><trkpt lat="39.05983611513369" lon="8.460123128939745"><ele>5.0</ele><time>2026-04-01T08:02:47Z</time></trkpt><trkpt lat="39.05993301934581" lon="8.460113368810573"><ele>5.0</ele><time>2026-04-01T08:03:22Z</time></trkpt><trkpt lat="39.05993666130906" lon="8.460270888785706"><ele>5.0</ele><time>2026-04-01T08:09:38.001Z</time></trkpt><trkpt lat="39.05980376904307" lon="8.460378609330883"><ele>5.0</ele><time>2026-04-01T08:09:39.001Z</time></trkpt><trkpt lat="39.05975101265686" lon="8.4604593749919"><ele>5.0</ele><time>2026-04-01T08:09:41.001Z</time></trkpt><trkpt lat="39.059686675959526" lon="8.460563019854655"><ele>4.833333333333334</ele><time>2026-04-01T08:09:43.001Z</time></trkpt><trkpt lat="39.05964550889943" lon="8.460633887017982"><ele>4.666666666666667</ele><time>2026-04-01T08:09:44.001Z</time></trkpt><trkpt lat="39.059598593110884" lon="8.460703030976635"><ele>4.5</ele><time>2026-04-01T08:09:45.001Z</time></trkpt><trkpt lat="39.05955222907908" lon="8.460784966797648"><ele>4.333333333333333</ele><time>2026-04-01T08:09:46.001Z</time></trkpt><trkpt lat="39.059495551006016" lon="8.460878271497334"><ele>4.166666666666666</ele><time>2026-04-01T08:09:47.001Z</time></trkpt><trkpt lat="39.059433046407065" lon="8.460984187682142"><ele>4.0</ele><time>2026-04-01T08:09:48.001Z</time></trkpt><trkpt lat="39.059371004538605" lon="8.461096236048132"><ele>3.9999999999999996</ele><time>2026-04-01T08:09:49.001Z</time></trkpt><trkpt lat="39.05931517281311" lon="8.461188218613625"><ele>4.0</ele><time>2026-04-01T08:09:50.001Z</time></trkpt><trkpt lat="39.05926488097466" lon="8.461266821682466"><ele>4.0</ele><time>2026-04-01T08:09:51.001Z</time></trkpt><trkpt lat="39.05922289104587" lon="8.461336497486679"><ele>4.0</ele><time>2026-04-01T08:09:52.001Z</time></trkpt><trkpt lat="39.05916940596533" lon="8.461408650312313"><ele>3.9999999999999996</ele><time>2026-04-01T08:09:53.001Z</time></trkpt><trkpt lat="39.0591062574594" lon="8.461478861891106"><ele>4.0</ele><time>2026-04-01T08:09:54.001Z</time></trkpt><trkpt lat="39.05904106097229" lon="8.461565168460401"><ele>4.25</ele><time>2026-04-01T08:09:55.001Z</time></trkpt><trkpt lat="39.058952148540314" lon="8.461676332467896"><ele>4.5</ele><time>2026-04-01T08:09:56.001Z</time></trkpt><trkpt lat="39.058842898745525" lon="8.461816258889096"><ele>4.75</ele><time>2026-04-01T08:09:57.001Z</time></trkpt><trkpt lat="39.058723579829675" lon="8.461970334222157"><ele>5.0</ele><time>2026-04-01T08:09:58.001Z</time></trkpt><trkpt lat="39.058597662682814" lon="8.462096748867225"><ele>4.75</ele><time>2026-04-01T08:09:59.001Z</time></trkpt><trkpt lat="39.058489763993826" lon="8.462231253289278"><ele>4.5</ele><time>2026-04-01T08:10:00.001Z</time></trkpt><trkpt lat="39.05839552693392" lon="8.462348020500412"><ele>4.25</ele><time>2026-04-01T08:10:01.001Z</time></trkpt><trkpt lat="39.05831024668919" lon="8.462438835985115"><ele>4.0</ele><time>2026-04-01T08:10:02.001Z</time></trkpt><trkpt lat="39.058229266010024" lon="8.462523270978906"><ele>4.0</ele><time>2026-04-01T08:10:03.001Z</time></trkpt><trkpt lat="39.05815235973585" lon="8.462608702366683"><ele>4.0</ele><time>2026-04-01T08:10:04.001Z</time></trkpt><trkpt lat="39.05807762447769" lon="8.46269552142801"><ele>4.0</ele><time>2026-04-01T08:10:05.001Z</time></trkpt><trkpt lat="39.05799691453291" lon="8.46278883288099"><ele>4.0</ele><time>2026-04-01T08:10:06.001Z</time></trkpt><trkpt lat="39.05790762200689" lon="8.462882296850838"><ele>4.0</ele><time>2026-04-01T08:10:07.001Z</time></trkpt><trkpt lat="39.05781320197564" lon="8.462972934580478"><ele>3.75</ele><time>2026-04-01T08:10:08.001Z</time></trkpt><trkpt lat="39.05771945505509" lon="8.463073473499124"><ele>3.5</ele><time>2026-04-01T08:10:09.001Z</time></trkpt><trkpt lat="39.05762291606666" lon="8.463181975972251"><ele>3.25</ele><time>2026-04-01T08:10:10.001Z</time></trkpt><trkpt lat="39.05752824384794" lon="8.46328410352435"><ele>3.0</ele><time>2026-04-01T08:10:11.001Z</time></trkpt><trkpt lat="39.05742738625356" lon="8.463402231248624"><ele>3.0</ele><time>2026-04-01T08:10:12.001Z</time></trkpt><trkpt lat="39.05733340445" lon="8.463489381135533"><ele>3.0</ele><time>2026-04-01T08:10:13.001Z</time></trkpt><trkpt lat="39.057242646438695" lon="8.463621010308442"><ele>3.0</ele><time>2026-04-01T08:10:14.001Z</time></trkpt><trkpt lat="39.05715667683977" lon="8.463768476920318"><ele>3.0</ele><time>2026-04-01T08:10:15.001Z</time></trkpt><trkpt lat="39.057078457049" lon="8.463931951659525"><ele>3.0</ele><time>2026-04-01T08:10:16.001Z</time></trkpt><trkpt lat="39.05700314538074" lon="8.464095737655317"><ele>3.0</ele><time>2026-04-01T08:10:17.001Z</time></trkpt><trkpt lat="39.05696514595474" lon="8.464282948423465"><ele>3.0</ele><time>2026-04-01T08:10:18.001Z</time></trkpt><trkpt lat="39.0569319867689" lon="8.464475303638977"><ele>3.0</ele><time>2026-04-01T08:10:19.001Z</time></trkpt><trkpt lat="39.05690674684244" lon="8.46467247222317"><ele>3.0</ele><time>2026-04-01T08:10:20.001Z</time></trkpt><trkpt lat="39.05689568599114" lon="8.464872599295113"><ele>3.0</ele><time>2026-04-01T08:10:21.001Z</time></trkpt><trkpt lat="39.056889887886925" lon="8.465074829183104"><ele>3.0</ele><time>2026-04-01T08:10:22.001Z</time></trkpt><trkpt lat="39.056904833594295" lon="8.465276600148703"><ele>3.0</ele><time>2026-04-01T08:10:23.001Z</time></trkpt><trkpt lat="39.056936353194644" lon="8.465474957810569"><ele>3.0</ele><time>2026-04-01T08:10:24.001Z</time></trkpt><trkpt lat="39.05698432890856" lon="8.465662189968732"><ele>3.0</ele><time>2026-04-01T08:10:25.001Z</time></trkpt><trkpt lat="39.05703914315655" lon="8.46584835149486"><ele>3.0</ele><time>2026-04-01T08:10:26.001Z</time></trkpt><trkpt lat="39.05708723500697" lon="8.466022780027371"><ele>3.0</ele><time>2026-04-01T08:10:27.001Z</time></trkpt><trkpt lat="39.0571295810166" lon="8.466192695355938"><ele>3.0</ele><time>2026-04-01T08:10:28.001Z</time></trkpt><trkpt lat="39.05717235858845" lon="8.466359573188596"><ele>2.25</ele><time>2026-04-01T08:10:29.001Z</time></trkpt><trkpt lat="39.05721098885171" lon="8.466522579251466"><ele>1.5</ele><time>2026-04-01T08:10:30Z</time></trkpt><trkpt lat="39.057246917057945" lon="8.46668369909085"><ele>0.75</ele><time>2026-04-01T08:10:31Z</time></trkpt><trkpt lat="39.05728946116765" lon="8.46684233987514"><ele>0.0</ele><time>2026-04-01T08:10:32Z</time></trkpt><trkpt lat="39.05732988846117" lon="8.467005346924317"><ele>0.5</ele><time>2026-04-01T08:10:33Z</time></trkpt><trkpt lat="39.05737153623099" lon="8.467169456864701"><ele>1.0</ele><time>2026-04-01T08:10:34Z</time></trkpt><trkpt lat="39.05741233658667" lon="8.467334035197489"><ele>1.5</ele><time>2026-04-01T08:10:35Z</time></trkpt><trkpt lat="39.05745616022423" lon="8.467491669952851"><ele>2.0</ele><time>2026-04-01T08:10:36Z</time></trkpt><trkpt lat="39.05749857277153" lon="8.467654483900265"><ele>2.25</ele><time>2026-04-01T08:10:37Z</time></trkpt><trkpt lat="39.05754153990097" lon="8.467820234912113"><ele>2.5</ele><time>2026-04-01T08:10:38Z</time></trkpt><trkpt lat="39.0575842208554" lon="8.467994280320381"><ele>2.75</ele><time>2026-04-01T08:10:39Z</time></trkpt><trkpt lat="39.05762943384229" lon="8.4681684286944"><ele>3.0</ele><time>2026-04-01T08:10:40Z</time></trkpt><trkpt lat="39.05767422729928" lon="8.468347459044699"><ele>3.0</ele><time>2026-04-01T08:10:41Z</time></trkpt><trkpt lat="39.05771887478172" lon="8.468528231784529"><ele>3.0</ele><time>2026-04-01T08:10:42Z</time></trkpt><trkpt lat="39.05776540940873" lon="8.468712882393499"><ele>3.0</ele><time>2026-04-01T08:10:43Z</time></trkpt><trkpt lat="39.05782051168903" lon="8.468900224748198"><ele>2.3333333333333335</ele><time>2026-04-01T08:10:44Z</time></trkpt><trkpt lat="39.05788261781723" lon="8.469086948589865"><ele>1.6666666666666665</ele><time>2026-04-01T08:10:45Z</time></trkpt><trkpt lat="39.057942778151734" lon="8.469276464271877"><ele>1.0</ele><time>2026-04-01T08:10:46Z</time></trkpt><trkpt lat="39.05801064217561" lon="8.4694681904667"><ele>1.0</ele><time>2026-04-01T08:10:47Z</time></trkpt><trkpt lat="39.05806294140396" lon="8.469664811120806"><ele>1.0</ele><time>2026-04-01T08:10:48Z</time></trkpt><trkpt lat="39.058108631474184" lon="8.469860130311899"><ele>1.0</ele><time>2026-04-01T08:10:49Z</time></trkpt><trkpt lat="39.05814236672725" lon="8.470042460490554"><ele>1.0</ele><time>2026-04-01T08:10:50Z</time></trkpt><trkpt lat="39.05821536909156" lon="8.470222195275554"><ele>1.0</ele><time>2026-04-01T08:10:51Z</time></trkpt><trkpt lat="39.05829130270546" lon="8.470398185339292"><ele>1.0</ele><time>2026-04-01T08:10:52Z</time></trkpt><trkpt lat="39.0583457177594" lon="8.470572151549641"><ele>1.25</ele><time>2026-04-01T08:10:53Z</time></trkpt><trkpt lat="39.058394687395186" lon="8.470736255400098"><ele>1.5</ele><time>2026-04-01T08:10:54Z</time></trkpt><trkpt lat="39.05844489318933" lon="8.470893721193994"><ele>1.75</ele><time>2026-04-01T08:10:55Z</time></trkpt><trkpt lat="39.058487978559064" lon="8.471044119699286"><ele>2.0</ele><time>2026-04-01T08:10:56Z</time></trkpt><trkpt lat="39.058529036798674" lon="8.471194286127021"><ele>1.75</ele><time>2026-04-01T08:10:57Z</time></trkpt><trkpt lat="39.05856347945469" lon="8.471350058765822"><ele>1.5</ele><time>2026-04-01T08:10:58Z</time></trkpt><trkpt lat="39.0585950341607" lon="8.471510175653206"><ele>1.25</ele><time>2026-04-01T08:10:59Z</time></trkpt><trkpt lat="39.0586119838828" lon="8.471673067723382"><ele>1.0</ele><time>2026-04-01T08:11:00Z</time></trkpt><trkpt lat="39.05862537945518" lon="8.471844684377476"><ele>1.0</ele><time>2026-04-01T08:11:01Z</time></trkpt><trkpt lat="39.05863399722283" lon="8.472024881072114"><ele>1.0</ele><time>2026-04-01T08:11:02Z</time></trkpt><trkpt lat="39.0586357082425" lon="8.472206431221919"><ele>1.0</ele><time>2026-04-01T08:11:03Z</time></trkpt><trkpt lat="39.05863370828143" lon="8.472394011431701"><ele>1.0</ele><time>2026-04-01T08:11:04Z</time></trkpt><trkpt lat="39.058633981780204" lon="8.472593361581424"><ele>1.3333333333333333</ele><time>2026-04-01T08:11:05Z</time></trkpt><trkpt lat="39.05863327126763" lon="8.472796812691794"><ele>1.6666666666666665</ele><time>2026-04-01T08:11:06Z</time></trkpt><trkpt lat="39.05863631495311" lon="8.473005343071737"><ele>2.0</ele><time>2026-04-01T08:11:07Z</time></trkpt><trkpt lat="39.05865050046356" lon="8.473218227999812"><ele>2.0</ele><time>2026-04-01T08:11:08Z</time></trkpt><trkpt lat="39.05866666544017" lon="8.473438237131687"><ele>2.0</ele><time>2026-04-01T08:11:09Z</time></trkpt><trkpt lat="39.05868895395937" lon="8.473657290707422"><ele>2.0</ele><time>2026-04-01T08:11:10Z</time></trkpt><trkpt lat="39.05871988591435" lon="8.473873402433181"><ele>2.0</ele><time>2026-04-01T08:11:11Z</time></trkpt><trkpt lat="39.05875519795134" lon="8.474092063885395"><ele>2.0</ele><time>2026-04-01T08:11:12Z</time></trkpt><trkpt lat="39.05879573845487" lon="8.47430704671784"><ele>2.0</ele><time>2026-04-01T08:11:13Z</time></trkpt><trkpt lat="39.05885075223024" lon="8.47452870945236"><ele>1.6666666666666665</ele><time>2026-04-01T08:11:14Z</time></trkpt><trkpt lat="39.05891270962382" lon="8.474741323288402"><ele>1.3333333333333333</ele><time>2026-04-01T08:11:15Z</time></trkpt><trkpt lat="39.05898001763033" lon="8.474955776395923"><ele>1.0</ele><time>2026-04-01T08:11:16Z</time></trkpt><trkpt lat="39.059050235763486" lon="8.475163284304267"><ele>1.0</ele><time>2026-04-01T08:11:17Z</time></trkpt><trkpt lat="39.05912612981454" lon="8.475372892022335"><ele>1.0</ele><time>2026-04-01T08:11:18Z</time></trkpt><trkpt lat="39.059206719504274" lon="8.475576534662878"><ele>1.0</ele><time>2026-04-01T08:11:19Z</time></trkpt><trkpt lat="39.059291390968845" lon="8.475777211294995"><ele>0.6666666666666666</ele><time>2026-04-01T08:11:20Z</time></trkpt><trkpt lat="39.059384150253436" lon="8.475975350732083"><ele>0.3333333333333333</ele><time>2026-04-01T08:11:21Z</time></trkpt><trkpt lat="39.05947664637243" lon="8.476172894328288"><ele>0.0</ele><time>2026-04-01T08:11:22Z</time></trkpt><trkpt lat="39.059572154489466" lon="8.476366082630683"><ele>0.0</ele><time>2026-04-01T08:11:23Z</time></trkpt><trkpt lat="39.05967127755575" lon="8.476553923720468"><ele>0.0</ele><time>2026-04-01T08:11:24Z</time></trkpt><trkpt lat="39.059765420975424" lon="8.476747601261293"><ele>0.0</ele><time>2026-04-01T08:11:25Z</time></trkpt><trkpt lat="39.05985508086204" lon="8.47694672241352"><ele>0.0</ele><time>2026-04-01T08:11:26Z</time></trkpt><trkpt lat="39.05994576191949" lon="8.477143459290867"><ele>0.0</ele><time>2026-04-01T08:11:27Z</time></trkpt><trkpt lat="39.060038598708466" lon="8.477341170759672"><ele>0.0</ele><time>2026-04-01T08:11:28Z</time></trkpt><trkpt lat="39.06013169785587" lon="8.477534664633415"><ele>0.3333333333333333</ele><time>2026-04-01T08:11:29Z</time></trkpt><trkpt lat="39.06022775075898" lon="8.477722831656763"><ele>0.6666666666666666</ele><time>2026-04-01T08:11:30Z</time></trkpt><trkpt lat="39.06033422096085" lon="8.477907445304485"><ele>1.0</ele><time>2026-04-01T08:11:31Z</time></trkpt><trkpt lat="39.060451836893854" lon="8.478080675156578"><ele>1.0</ele><time>2026-04-01T08:11:32Z</time></trkpt><trkpt lat="39.06057773229362" lon="8.478238091318245"><ele>1.0</ele><time>2026-04-01T08:11:33Z</time></trkpt><trkpt lat="39.06071188554411" lon="8.478382302971907"><ele>1.0</ele><time>2026-04-01T08:11:34Z</time></trkpt><trkpt lat="39.060853049315504" lon="8.478514674206938"><ele>1.0</ele><time>2026-04-01T08:11:35Z</time></trkpt><trkpt lat="39.06100071723481" lon="8.478629411046867"><ele>1.0</ele><time>2026-04-01T08:11:36.001Z</time></trkpt><trkpt lat="39.06115408523525" lon="8.478729509707117"><ele>1.0</ele><time>2026-04-01T08:11:37.001Z</time></trkpt><trkpt lat="39.06130892229855" lon="8.478815905487071"><ele>1.0</ele><time>2026-04-01T08:11:38.001Z</time></trkpt><trkpt lat="39.06146868651864" lon="8.478887031968949"><ele>1.0</ele><time>2026-04-01T08:11:39.001Z</time></trkpt><trkpt lat="39.061631512370774" lon="8.478940083388371"><ele>1.0</ele><time>2026-04-01T08:11:40.001Z</time></trkpt><trkpt lat="39.061798706716075" lon="8.47897554962941"><ele>1.0</ele><time>2026-04-01T08:11:41.001Z</time></trkpt><trkpt lat="39.06196373426753" lon="8.47900128096007"><ele>1.0</ele><time>2026-04-01T08:11:42.001Z</time></trkpt><trkpt lat="39.06213174132079" lon="8.479019438376966"><ele>1.0</ele><time>2026-04-01T08:11:43.001Z</time></trkpt><trkpt lat="39.06229990275602" lon="8.479025990864601"><ele>1.0</ele><time>2026-04-01T08:11:44.001Z</time></trkpt><trkpt lat="39.06246789079471" lon="8.479014863154264"><ele>1.0</ele><time>2026-04-01T08:11:45.001Z</time></trkpt><trkpt lat="39.062633380061676" lon="8.478994294855791"><ele>1.0</ele><time>2026-04-01T08:11:46.001Z</time></trkpt><trkpt lat="39.06279908264088" lon="8.478958627843724"><ele>1.0</ele><time>2026-04-01T08:11:47.001Z</time></trkpt><trkpt lat="39.062964149919495" lon="8.478919927939568"><ele>1.0</ele><time>2026-04-01T08:11:48.001Z</time></trkpt><trkpt lat="39.06312901345146" lon="8.47888529686681"><ele>1.0</ele><time>2026-04-01T08:11:49.001Z</time></trkpt><trkpt lat="39.06329447311593" lon="8.47885412137632"><ele>1.3333333333333333</ele><time>2026-04-01T08:11:50.001Z</time></trkpt><trkpt lat="39.063461261238714" lon="8.47882795349293"><ele>1.6666666666666665</ele><time>2026-04-01T08:11:51.001Z</time></trkpt><trkpt lat="39.063626533143236" lon="8.47879550824697"><ele>2.0</ele><time>2026-04-01T08:11:52.001Z</time></trkpt><trkpt lat="39.063791080586334" lon="8.478761336355596"><ele>2.0</ele><time>2026-04-01T08:11:53.001Z</time></trkpt><trkpt lat="39.06395686052703" lon="8.478734920877809"><ele>2.0</ele><time>2026-04-01T08:11:54.001Z</time></trkpt><trkpt lat="39.064121719731745" lon="8.47870797241599"><ele>2.0</ele><time>2026-04-01T08:11:55.001Z</time></trkpt><trkpt lat="39.0642823362915" lon="8.478677144161312"><ele>1.6666666666666665</ele><time>2026-04-01T08:11:56.001Z</time></trkpt><trkpt lat="39.064442102606876" lon="8.478652178996697"><ele>1.3333333333333333</ele><time>2026-04-01T08:11:57.001Z</time></trkpt><trkpt lat="39.06460039363741" lon="8.478626829883833"><ele>1.0</ele><time>2026-04-01T08:11:58.001Z</time></trkpt><trkpt lat="39.06475622633178" lon="8.47859371498311"><ele>1.0</ele><time>2026-04-01T08:11:59.001Z</time></trkpt><trkpt lat="39.06490686378632" lon="8.478563073018693"><ele>1.0</ele><time>2026-04-01T08:12:00.001Z</time></trkpt><trkpt lat="39.065053089110414" lon="8.478530841919197"><ele>1.0</ele><time>2026-04-01T08:12:01.001Z</time></trkpt><trkpt lat="39.06519970784702" lon="8.478505461708352"><ele>1.0</ele><time>2026-04-01T08:12:02.001Z</time></trkpt><trkpt lat="39.065348474082114" lon="8.478481719615298"><ele>1.0</ele><time>2026-04-01T08:12:03.001Z</time></trkpt><trkpt lat="39.06549596271338" lon="8.47846000070645"><ele>1.0</ele><time>2026-04-01T08:12:04.001Z</time></trkpt><trkpt lat="39.065646771752974" lon="8.47843482156915"><ele>1.0</ele><time>2026-04-01T08:12:05.001Z</time></trkpt><trkpt lat="39.065797904418474" lon="8.47840394303102"><ele>1.0</ele><time>2026-04-01T08:12:06.001Z</time></trkpt><trkpt lat="39.065950796621834" lon="8.478373938023129"><ele>1.0</ele><time>2026-04-01T08:12:07.001Z</time></trkpt><trkpt lat="39.066102729593005" lon="8.47834689685262"><ele>1.0</ele><time>2026-04-01T08:12:08.001Z</time></trkpt><trkpt lat="39.06625512309831" lon="8.478321594394288"><ele>1.0</ele><time>2026-04-01T08:12:09.001Z</time></trkpt><trkpt lat="39.06640830940505" lon="8.478295581670114"><ele>1.0</ele><time>2026-04-01T08:12:10.001Z</time></trkpt><trkpt lat="39.066562046043245" lon="8.478266073488427"><ele>1.0</ele><time>2026-04-01T08:12:11.001Z</time></trkpt><trkpt lat="39.06671579439875" lon="8.478241106189895"><ele>0.6666666666666666</ele><time>2026-04-01T08:12:12.001Z</time></trkpt><trkpt lat="39.06686854263292" lon="8.478215656018598"><ele>0.3333333333333333</ele><time>2026-04-01T08:12:13.001Z</time></trkpt><trkpt lat="39.067017204240734" lon="8.478189262514185"><ele>0.0</ele><time>2026-04-01T08:12:14.001Z</time></trkpt><trkpt lat="39.067166207408505" lon="8.478159320715234"><ele>0.0</ele><time>2026-04-01T08:12:15.001Z</time></trkpt><trkpt lat="39.067313627377246" lon="8.478131913039817"><ele>0.0</ele><time>2026-04-01T08:12:16.001Z</time></trkpt><trkpt lat="39.06745882177012" lon="8.478101443294328"><ele>0.0</ele><time>2026-04-01T08:12:17.001Z</time></trkpt><trkpt lat="39.06760578286666" lon="8.478072047332352"><ele>0.0</ele><time>2026-04-01T08:12:18Z</time></trkpt><trkpt lat="39.06775323023183" lon="8.478046149982537"><ele>0.0</ele><time>2026-04-01T08:12:19Z</time></trkpt><trkpt lat="39.067903355514254" lon="8.478020859478463"><ele>0.0</ele><time>2026-04-01T08:12:20Z</time></trkpt><trkpt lat="39.0680540578173" lon="8.477994231987015"><ele>0.0</ele><time>2026-04-01T08:12:21Z</time></trkpt><trkpt lat="39.06820542492467" lon="8.47796730759875"><ele>0.0</ele><time>2026-04-01T08:12:22Z</time></trkpt><trkpt lat="39.06835475686349" lon="8.477941890387136"><ele>0.0</ele><time>2026-04-01T08:12:23Z</time></trkpt><trkpt lat="39.068498646765455" lon="8.477915128048762"><ele>0.0</ele><time>2026-04-01T08:12:24Z</time></trkpt><trkpt lat="39.06863858883529" lon="8.477892243018537"><ele>0.0</ele><time>2026-04-01T08:12:25Z</time></trkpt><trkpt lat="39.068778133439324" lon="8.47787030738815"><ele>0.0</ele><time>2026-04-01T08:12:26Z</time></trkpt><trkpt lat="39.068920359164274" lon="8.477850385654774"><ele>0.0</ele><time>2026-04-01T08:12:27Z</time></trkpt><trkpt lat="39.06906712047149" lon="8.477831433857737"><ele>0.0</ele><time>2026-04-01T08:12:28Z</time></trkpt><trkpt lat="39.06921559637754" lon="8.47782500529821"><ele>0.0</ele><time>2026-04-01T08:12:29Z</time></trkpt><trkpt lat="39.06936361643023" lon="8.477831945062622"><ele>0.0</ele><time>2026-04-01T08:12:30Z</time></trkpt><trkpt lat="39.06951233852958" lon="8.477851695673731"><ele>0.0</ele><time>2026-04-01T08:12:31Z</time></trkpt><trkpt lat="39.06966017807909" lon="8.477884155231216"><ele>0.0</ele><time>2026-04-01T08:12:32Z</time></trkpt><trkpt lat="39.06980814574791" lon="8.47792557923504"><ele>0.0</ele><time>2026-04-01T08:12:33Z</time></trkpt><trkpt lat="39.069957706428134" lon="8.477984271539183"><ele>0.0</ele><time>2026-04-01T08:12:34Z</time></trkpt><trkpt lat="39.0701039268344" lon="8.478060213267188"><ele>0.0</ele><time>2026-04-01T08:12:35Z</time></trkpt><trkpt lat="39.07024890647656" lon="8.478137447176431"><ele>0.0</ele><time>2026-04-01T08:12:36Z</time></trkpt><trkpt lat="39.07039226645933" lon="8.478230011756125"><ele>0.0</ele><time>2026-04-01T08:12:37Z</time></trkpt><trkpt lat="39.07053136183539" lon="8.478334369048405"><ele>0.0</ele><time>2026-04-01T08:12:38Z</time></trkpt><trkpt lat="39.070664185136344" lon="8.478455490407955"><ele>0.0</ele><time>2026-04-01T08:12:39Z</time></trkpt><trkpt lat="39.07079423688981" lon="8.47858586979492"><ele>0.0</ele><time>2026-04-01T08:12:40Z</time></trkpt><trkpt lat="39.07092488776432" lon="8.478716936378497"><ele>0.0</ele><time>2026-04-01T08:12:41Z</time></trkpt><trkpt lat="39.071055374066376" lon="8.478844537951407"><ele>0.0</ele><time>2026-04-01T08:12:42Z</time></trkpt><trkpt lat="39.07118615122618" lon="8.478968227430492"><ele>0.0</ele><time>2026-04-01T08:12:43Z</time></trkpt><trkpt lat="39.071311786749725" lon="8.479087718341146"><ele>0.0</ele><time>2026-04-01T08:12:44Z</time></trkpt><trkpt lat="39.0714380196124" lon="8.4792039785984"><ele>0.0</ele><time>2026-04-01T08:12:45Z</time></trkpt><trkpt lat="39.07156447169399" lon="8.479319997994116"><ele>0.0</ele><time>2026-04-01T08:12:46Z</time></trkpt><trkpt lat="39.07169163124938" lon="8.479439349845833"><ele>0.0</ele><time>2026-04-01T08:12:47Z</time></trkpt><trkpt lat="39.07182244506899" lon="8.479559885905445"><ele>0.0</ele><time>2026-04-01T08:12:48Z</time></trkpt><trkpt lat="39.07195419701678" lon="8.479681929894337"><ele>0.0</ele><time>2026-04-01T08:12:49Z</time></trkpt><trkpt lat="39.07209076384656" lon="8.479802230309941"><ele>0.0</ele><time>2026-04-01T08:12:50Z</time></trkpt><trkpt lat="39.07221850201312" lon="8.479931945643191"><ele>0.0</ele><time>2026-04-01T08:12:51Z</time></trkpt><trkpt lat="39.072351046431095" lon="8.480062444618154"><ele>0.0</ele><time>2026-04-01T08:12:52Z</time></trkpt><trkpt lat="39.072486462193524" lon="8.480188668591792"><ele>0.0</ele><time>2026-04-01T08:12:53Z</time></trkpt><trkpt lat="39.07262895760776" lon="8.480309736940981"><ele>0.0</ele><time>2026-04-01T08:12:54Z</time></trkpt><trkpt lat="39.07276749314257" lon="8.480430090616535"><ele>0.0</ele><time>2026-04-01T08:12:55Z</time></trkpt><trkpt lat="39.0729077369101" lon="8.480543867355046"><ele>0.0</ele><time>2026-04-01T08:12:56Z</time></trkpt><trkpt lat="39.07305298380016" lon="8.480654218908105"><ele>0.3333333333333333</ele><time>2026-04-01T08:12:57Z</time></trkpt><trkpt lat="39.07320149663733" lon="8.48075928647929"><ele>0.6666666666666666</ele><time>2026-04-01T08:12:58Z</time></trkpt><trkpt lat="39.07335287787188" lon="8.480874632187586"><ele>1.0</ele><time>2026-04-01T08:12:59Z</time></trkpt><trkpt lat="39.073507320495196" lon="8.480994407708558"><ele>1.0</ele><time>2026-04-01T08:13:00Z</time></trkpt><trkpt lat="39.07366907495019" lon="8.481115710586653"><ele>1.0</ele><time>2026-04-01T08:13:01Z</time></trkpt><trkpt lat="39.07382892941023" lon="8.481243164069006"><ele>1.0</ele><time>2026-04-01T08:13:02Z</time></trkpt><trkpt lat="39.0739906331545" lon="8.481374721185878"><ele>0.6666666666666666</ele><time>2026-04-01T08:13:03Z</time></trkpt><trkpt lat="39.074157165384364" lon="8.481497815702106"><ele>0.3333333333333333</ele><time>2026-04-01T08:13:04Z</time></trkpt><trkpt lat="39.074323033271526" lon="8.481614933937744"><ele>0.0</ele><time>2026-04-01T08:13:05Z</time></trkpt><trkpt lat="39.074490195659024" lon="8.481741445021282"><ele>0.0</ele><time>2026-04-01T08:13:06Z</time></trkpt><trkpt lat="39.074653747151714" lon="8.481872170377576"><ele>0.0</ele><time>2026-04-01T08:13:07Z</time></trkpt><trkpt lat="39.074821602032166" lon="8.481997134149113"><ele>0.0</ele><time>2026-04-01T08:13:08Z</time></trkpt><trkpt lat="39.074989179317555" lon="8.482125590103948"><ele>0.0</ele><time>2026-04-01T08:13:09Z</time></trkpt><trkpt lat="39.07515817733317" lon="8.482253835062606"><ele>0.0</ele><time>2026-04-01T08:13:10Z</time></trkpt><trkpt lat="39.07532809395088" lon="8.48238633626139"><ele>0.0</ele><time>2026-04-01T08:13:11Z</time></trkpt><trkpt lat="39.075498863954266" lon="8.482518009875312"><ele>0.0</ele><time>2026-04-01T08:13:12Z</time></trkpt><trkpt lat="39.075670997952216" lon="8.482647288128117"><ele>0.0</ele><time>2026-04-01T08:13:13Z</time></trkpt><trkpt lat="39.075842555215765" lon="8.482778057837917"><ele>0.0</ele><time>2026-04-01T08:13:14Z</time></trkpt><trkpt lat="39.076015894696354" lon="8.482915320990129"><ele>0.3333333333333333</ele><time>2026-04-01T08:13:15Z</time></trkpt><trkpt lat="39.07618782484031" lon="8.48304872554329"><ele>0.6666666666666666</ele><time>2026-04-01T08:13:16Z</time></trkpt><trkpt lat="39.07636064088978" lon="8.483182264026937"><ele>1.0</ele><time>2026-04-01T08:13:17Z</time></trkpt><trkpt lat="39.076537523334885" lon="8.483314576252903"><ele>1.0</ele><time>2026-04-01T08:13:18Z</time></trkpt><trkpt lat="39.07671508856789" lon="8.483447976388522"><ele>1.0</ele><time>2026-04-01T08:13:19Z</time></trkpt><trkpt lat="39.07689447898077" lon="8.483580254625823"><ele>1.0</ele><time>2026-04-01T08:13:20Z</time></trkpt><trkpt lat="39.07706434302986" lon="8.483721522355346"><ele>1.0</ele><time>2026-04-01T08:13:21Z</time></trkpt><trkpt lat="39.07723351994851" lon="8.483855278550083"><ele>1.0</ele><time>2026-04-01T08:13:22Z</time></trkpt><trkpt lat="39.07740919065878" lon="8.483982340919809"><ele>1.0</ele><time>2026-04-01T08:13:23Z</time></trkpt><trkpt lat="39.07758893634734" lon="8.484108700410973"><ele>1.0</ele><time>2026-04-01T08:13:24Z</time></trkpt><trkpt lat="39.07776239412037" lon="8.484242605737572"><ele>1.0</ele><time>2026-04-01T08:13:25Z</time></trkpt><trkpt lat="39.077925353468444" lon="8.484376851864118"><ele>1.0</ele><time>2026-04-01T08:13:26Z</time></trkpt><trkpt lat="39.07809291128534" lon="8.48449982192324"><ele>1.0</ele><time>2026-04-01T08:13:27Z</time></trkpt><trkpt lat="39.0782662544607" lon="8.484623883411828"><ele>1.0</ele><time>2026-04-01T08:13:28Z</time></trkpt><trkpt lat="39.0784333850754" lon="8.484754011364307"><ele>1.0</ele><time>2026-04-01T08:13:29Z</time></trkpt><trkpt lat="39.07860444528712" lon="8.484887511112948"><ele>1.0</ele><time>2026-04-01T08:13:30Z</time></trkpt><trkpt lat="39.07877685892439" lon="8.485015613798637"><ele>1.0</ele><time>2026-04-01T08:13:31Z</time></trkpt><trkpt lat="39.07894219040908" lon="8.485150796272928"><ele>1.0</ele><time>2026-04-01T08:13:32Z</time></trkpt><trkpt lat="39.07911023422557" lon="8.48527966224727"><ele>1.0</ele><time>2026-04-01T08:13:33Z</time></trkpt><trkpt lat="39.079281325656936" lon="8.485408115297671"><ele>1.0</ele><time>2026-04-01T08:13:34Z</time></trkpt><trkpt lat="39.0794540434527" lon="8.485538606509756"><ele>1.0</ele><time>2026-04-01T08:13:35Z</time></trkpt><trkpt lat="39.07962450689623" lon="8.485669190071487"><ele>1.3333333333333333</ele><time>2026-04-01T08:13:36Z</time></trkpt><trkpt lat="39.07980143506907" lon="8.485793886418797"><ele>1.6666666666666665</ele><time>2026-04-01T08:13:37Z</time></trkpt><trkpt lat="39.079970472226094" lon="8.485926850169822"><ele>2.0</ele><time>2026-04-01T08:13:38Z</time></trkpt><trkpt lat="39.08013672243281" lon="8.486059723826425"><ele>2.0</ele><time>2026-04-01T08:13:39Z</time></trkpt><trkpt lat="39.08030745894366" lon="8.486188439605208"><ele>2.0</ele><time>2026-04-01T08:13:40Z</time></trkpt><trkpt lat="39.08047783021446" lon="8.486319836929704"><ele>2.0</ele><time>2026-04-01T08:13:41Z</time></trkpt><trkpt lat="39.0806469303606" lon="8.486453544054871"><ele>2.333333333333333</ele><time>2026-04-01T08:13:42Z</time></trkpt><trkpt lat="39.08081668114329" lon="8.486589974037605"><ele>2.6666666666666665</ele><time>2026-04-01T08:13:43Z</time></trkpt><trkpt lat="39.08098857787999" lon="8.486720191964059"><ele>3.0</ele><time>2026-04-01T08:13:44Z</time></trkpt><trkpt lat="39.081164889988614" lon="8.486847547086116"><ele>3.0</ele><time>2026-04-01T08:13:45Z</time></trkpt><trkpt lat="39.081339715965015" lon="8.486978573715655"><ele>3.0</ele><time>2026-04-01T08:13:46Z</time></trkpt><trkpt lat="39.08151027059066" lon="8.48710977657446"><ele>3.0</ele><time>2026-04-01T08:13:47Z</time></trkpt><trkpt lat="39.081675213188916" lon="8.487239136666478"><ele>3.0</ele><time>2026-04-01T08:13:48Z</time></trkpt><trkpt lat="39.08184456094925" lon="8.487368759372117"><ele>3.0</ele><time>2026-04-01T08:13:49Z</time></trkpt><trkpt lat="39.082011329287525" lon="8.487496367109651"><ele>3.0</ele><time>2026-04-01T08:13:50Z</time></trkpt><trkpt lat="39.08217859418263" lon="8.487627420551133"><ele>3.0</ele><time>2026-04-01T08:13:51Z</time></trkpt><trkpt lat="39.08234511982611" lon="8.487752773584106"><ele>3.0</ele><time>2026-04-01T08:13:52Z</time></trkpt><trkpt lat="39.082511700612606" lon="8.487868525587508"><ele>3.0</ele><time>2026-04-01T08:13:53Z</time></trkpt><trkpt lat="39.082678488607066" lon="8.487991221825608"><ele>2.3333333333333335</ele><time>2026-04-01T08:13:54Z</time></trkpt><trkpt lat="39.08283334579837" lon="8.48811430303305"><ele>1.6666666666666665</ele><time>2026-04-01T08:13:55Z</time></trkpt><trkpt lat="39.082963142995325" lon="8.488210981078753"><ele>1.0</ele><time>2026-04-01T08:13:56Z</time></trkpt><trkpt lat="39.08311757198813" lon="8.488334141776019"><ele>1.3333333333333333</ele><time>2026-04-01T08:13:57Z</time></trkpt><trkpt lat="39.08327121051061" lon="8.488451457877606"><ele>1.6666666666666665</ele><time>2026-04-01T08:13:58Z</time></trkpt><trkpt lat="39.08342313209609" lon="8.488564982081936"><ele>2.0</ele><time>2026-04-01T08:13:59Z</time></trkpt><trkpt lat="39.0835767417812" lon="8.488680523282934"><ele>1.0</ele><time>2026-04-01T08:14:00Z</time></trkpt><trkpt lat="39.08372302711799" lon="8.488799987706537"><ele>0.0</ele><time>2026-04-01T08:14:01Z</time></trkpt><trkpt lat="39.08387292103443" lon="8.488912261402483"><ele>-1.0</ele><time>2026-04-01T08:14:02Z</time></trkpt><trkpt lat="39.08402387060966" lon="8.489017068992728"><ele>0.33333333333333337</ele><time>2026-04-01T08:14:03Z</time></trkpt><trkpt lat="39.084183905122345" lon="8.489112627905067"><ele>1.6666666666666667</ele><time>2026-04-01T08:14:04Z</time></trkpt><trkpt lat="39.08434616191291" lon="8.489194900722172"><ele>3.0</ele><time>2026-04-01T08:14:05Z</time></trkpt><trkpt lat="39.084511902513306" lon="8.489260558670075"><ele>3.0</ele><time>2026-04-01T08:14:06Z</time></trkpt><trkpt lat="39.084673853031596" lon="8.489326267483557"><ele>3.0</ele><time>2026-04-01T08:14:07Z</time></trkpt><trkpt lat="39.084837358335974" lon="8.489390651193915"><ele>3.0</ele><time>2026-04-01T08:14:08Z</time></trkpt><trkpt lat="39.085003320871024" lon="8.489449680278314"><ele>2.3333333333333335</ele><time>2026-04-01T08:14:09Z</time></trkpt><trkpt lat="39.08517152046855" lon="8.489494184199161"><ele>1.6666666666666665</ele><time>2026-04-01T08:14:10Z</time></trkpt><trkpt lat="39.0853446270898" lon="8.489522985516636"><ele>1.0</ele><time>2026-04-01T08:14:11Z</time></trkpt><trkpt lat="39.08551799622046" lon="8.48954629303892"><ele>1.0</ele><time>2026-04-01T08:14:12Z</time></trkpt><trkpt lat="39.08569262659977" lon="8.489568662449747"><ele>1.0</ele><time>2026-04-01T08:14:13Z</time></trkpt><trkpt lat="39.08586322631364" lon="8.489606458158313"><ele>1.0</ele><time>2026-04-01T08:14:14Z</time></trkpt><trkpt lat="39.0860315631984" lon="8.489649936680273"><ele>0.3333333333333333</ele><time>2026-04-01T08:14:15Z</time></trkpt><trkpt lat="39.08620056900535" lon="8.489687954744097"><ele>-0.3333333333333333</ele><time>2026-04-01T08:14:16Z</time></trkpt><trkpt lat="39.08637204954098" lon="8.489713706583418"><ele>-1.0</ele><time>2026-04-01T08:14:17Z</time></trkpt><trkpt lat="39.086547010717034" lon="8.489743199216964"><ele>-1.0</ele><time>2026-04-01T08:14:18Z</time></trkpt><trkpt lat="39.08671991168641" lon="8.489771309579254"><ele>-1.0</ele><time>2026-04-01T08:14:19Z</time></trkpt><trkpt lat="39.08688923305982" lon="8.489808536286473"><ele>-1.0</ele><time>2026-04-01T08:14:20Z</time></trkpt><trkpt lat="39.08706556735162" lon="8.489835508819262"><ele>-1.0</ele><time>2026-04-01T08:14:21Z</time></trkpt><trkpt lat="39.087239400363956" lon="8.489867615920703"><ele>-1.0</ele><time>2026-04-01T08:14:22Z</time></trkpt><trkpt lat="39.0874126917243" lon="8.489902805718268"><ele>-1.0</ele><time>2026-04-01T08:14:23Z</time></trkpt><trkpt lat="39.08758678142579" lon="8.489938990601756"><ele>-1.0</ele><time>2026-04-01T08:14:24Z</time></trkpt><trkpt lat="39.08774987686549" lon="8.489968802749521"><ele>-1.0</ele><time>2026-04-01T08:14:25Z</time></trkpt><trkpt lat="39.087920655089206" lon="8.490003249302616"><ele>-1.0</ele><time>2026-04-01T08:14:26Z</time></trkpt><trkpt lat="39.08808763591623" lon="8.490040710754803"><ele>-1.0</ele><time>2026-04-01T08:14:27Z</time></trkpt><trkpt lat="39.08825239933571" lon="8.490091960494299"><ele>-1.0</ele><time>2026-04-01T08:14:28Z</time></trkpt><trkpt lat="39.088417147803945" lon="8.490158741717387"><ele>-1.0</ele><time>2026-04-01T08:14:29Z</time></trkpt><trkpt lat="39.08857547165845" lon="8.49024603295392"><ele>-0.3333333333333333</ele><time>2026-04-01T08:14:30Z</time></trkpt><trkpt lat="39.08875325870506" lon="8.490326530389012"><ele>0.3333333333333333</ele><time>2026-04-01T08:14:31Z</time></trkpt><trkpt lat="39.08889615801121" lon="8.490450042879825"><ele>1.0</ele><time>2026-04-01T08:14:32Z</time></trkpt><trkpt lat="39.08904228655632" lon="8.49058357643334"><ele>1.0</ele><time>2026-04-01T08:14:33Z</time></trkpt><trkpt lat="39.08916561062741" lon="8.490754612691314"><ele>1.0</ele><time>2026-04-01T08:14:34Z</time></trkpt><trkpt lat="39.08928990183247" lon="8.490917131903467"><ele>1.0</ele><time>2026-04-01T08:14:35Z</time></trkpt><trkpt lat="39.08942066838621" lon="8.49108066630144"><ele>1.0</ele><time>2026-04-01T08:14:36Z</time></trkpt><trkpt lat="39.089538960391714" lon="8.491267765173589"><ele>1.0</ele><time>2026-04-01T08:14:37Z</time></trkpt><trkpt lat="39.089650630230835" lon="8.491452737072827"><ele>1.0</ele><time>2026-04-01T08:14:38Z</time></trkpt><trkpt lat="39.089767269409606" lon="8.491634482180071"><ele>1.0</ele><time>2026-04-01T08:14:39Z</time></trkpt><trkpt lat="39.08988699904161" lon="8.491811048070204"><ele>1.0</ele><time>2026-04-01T08:14:40Z</time></trkpt><trkpt lat="39.090009589695434" lon="8.491987917032361"><ele>1.0</ele><time>2026-04-01T08:14:41Z</time></trkpt><trkpt lat="39.090131842299414" lon="8.49216465397834"><ele>1.0</ele><time>2026-04-01T08:14:42Z</time></trkpt><trkpt lat="39.090251651297166" lon="8.492343515470015"><ele>1.0</ele><time>2026-04-01T08:14:43Z</time></trkpt><trkpt lat="39.090370210876806" lon="8.492524469305735"><ele>1.0</ele><time>2026-04-01T08:14:44Z</time></trkpt><trkpt lat="39.09049161587329" lon="8.492706765592494"><ele>1.0</ele><time>2026-04-01T08:14:45Z</time></trkpt><trkpt lat="39.09061103921203" lon="8.49288782800382"><ele>1.0</ele><time>2026-04-01T08:14:46Z</time></trkpt><trkpt lat="39.09073134086245" lon="8.493070083238564"><ele>1.0</ele><time>2026-04-01T08:14:47Z</time></trkpt><trkpt lat="39.09085063129599" lon="8.493247045076016"><ele>1.0</ele><time>2026-04-01T08:14:48Z</time></trkpt><trkpt lat="39.09097171854318" lon="8.493425516269136"><ele>1.0</ele><time>2026-04-01T08:14:49Z</time></trkpt><trkpt lat="39.091091133171055" lon="8.493604743019596"><ele>1.0</ele><time>2026-04-01T08:14:50Z</time></trkpt><trkpt lat="39.09121055675561" lon="8.49378334133196"><ele>1.0</ele><time>2026-04-01T08:14:51Z</time></trkpt><trkpt lat="39.09132935060259" lon="8.493961092299456"><ele>1.0</ele><time>2026-04-01T08:14:52Z</time></trkpt><trkpt lat="39.09144744728356" lon="8.49413929251549"><ele>1.0</ele><time>2026-04-01T08:14:53Z</time></trkpt><trkpt lat="39.091568782526544" lon="8.494318433522484"><ele>1.0</ele><time>2026-04-01T08:14:54Z</time></trkpt><trkpt lat="39.09169384398446" lon="8.49450571411431"><ele>1.0</ele><time>2026-04-01T08:14:55Z</time></trkpt><trkpt lat="39.09180976366247" lon="8.494675118834376"><ele>1.0</ele><time>2026-04-01T08:14:56Z</time></trkpt><trkpt lat="39.09192821851288" lon="8.494849761174837"><ele>1.0</ele><time>2026-04-01T08:14:57Z</time></trkpt><trkpt lat="39.09204777928797" lon="8.495028480172701"><ele>1.0</ele><time>2026-04-01T08:14:58Z</time></trkpt><trkpt lat="39.09216559889832" lon="8.495209124175686"><ele>1.0</ele><time>2026-04-01T08:14:59Z</time></trkpt><trkpt lat="39.0922846290575" lon="8.495389900450254"><ele>1.3333333333333333</ele><time>2026-04-01T08:15:00Z</time></trkpt><trkpt lat="39.09240276030855" lon="8.495569539192793"><ele>1.6666666666666665</ele><time>2026-04-01T08:15:01Z</time></trkpt><trkpt lat="39.092524013664665" lon="8.495748258489234"><ele>2.0</ele><time>2026-04-01T08:15:02Z</time></trkpt><trkpt lat="39.092645136272886" lon="8.495930728630178"><ele>2.0</ele><time>2026-04-01T08:15:03Z</time></trkpt><trkpt lat="39.09276628778254" lon="8.496109746339654"><ele>2.0</ele><time>2026-04-01T08:15:04Z</time></trkpt><trkpt lat="39.09288849467234" lon="8.496291501510754"><ele>2.0</ele><time>2026-04-01T08:15:05Z</time></trkpt><trkpt lat="39.09301030053931" lon="8.496473165591878"><ele>2.333333333333333</ele><time>2026-04-01T08:15:06Z</time></trkpt><trkpt lat="39.093134562034535" lon="8.496647478103199"><ele>2.6666666666666665</ele><time>2026-04-01T08:15:07Z</time></trkpt><trkpt lat="39.09325861050251" lon="8.496833602790288"><ele>3.0</ele><time>2026-04-01T08:15:08Z</time></trkpt><trkpt lat="39.09338880368117" lon="8.497008985478372"><ele>3.333333333333333</ele><time>2026-04-01T08:15:09Z</time></trkpt><trkpt lat="39.09351836483303" lon="8.497191526233781"><ele>3.6666666666666665</ele><time>2026-04-01T08:15:10Z</time></trkpt><trkpt lat="39.09365150453766" lon="8.497360759937317"><ele>4.0</ele><time>2026-04-01T08:15:11Z</time></trkpt><trkpt lat="39.09377941776242" lon="8.497540038664463"><ele>4.0</ele><time>2026-04-01T08:15:12Z</time></trkpt><trkpt lat="39.093917637776705" lon="8.497712036189464"><ele>4.0</ele><time>2026-04-01T08:15:13Z</time></trkpt><trkpt lat="39.09405805788188" lon="8.497882635550864"><ele>4.0</ele><time>2026-04-01T08:15:14Z</time></trkpt><trkpt lat="39.09419595196213" lon="8.498059364744977"><ele>4.0</ele><time>2026-04-01T08:15:15Z</time></trkpt><trkpt lat="39.09433635364323" lon="8.498226801618246"><ele>4.0</ele><time>2026-04-01T08:15:16Z</time></trkpt><trkpt lat="39.09447971979642" lon="8.498393827356356"><ele>4.0</ele><time>2026-04-01T08:15:17Z</time></trkpt><trkpt lat="39.09461849092718" lon="8.498568960823034"><ele>4.0</ele><time>2026-04-01T08:15:18Z</time></trkpt><trkpt lat="39.0947584563014" lon="8.498743372573408"><ele>4.0</ele><time>2026-04-01T08:15:19Z</time></trkpt><trkpt lat="39.09488167792985" lon="8.49889104816131"><ele>4.0</ele><time>2026-04-01T08:15:20Z</time></trkpt><trkpt lat="39.09502555652878" lon="8.499090816374485"><ele>4.0</ele><time>2026-04-01T08:15:21Z</time></trkpt><trkpt lat="39.09516227282763" lon="8.499270112711182"><ele>4.0</ele><time>2026-04-01T08:15:22Z</time></trkpt><trkpt lat="39.09528394095852" lon="8.499463507961346"><ele>4.0</ele><time>2026-04-01T08:15:23Z</time></trkpt><trkpt lat="39.09542109504646" lon="8.49965384555063"><ele>4.0</ele><time>2026-04-01T08:15:24Z</time></trkpt><trkpt lat="39.095550557624925" lon="8.499838532209962"><ele>4.0</ele><time>2026-04-01T08:15:25Z</time></trkpt><trkpt lat="39.09566072746338" lon="8.500027477222394"><ele>4.0</ele><time>2026-04-01T08:15:26Z</time></trkpt><trkpt lat="39.09577247468394" lon="8.5001977087669"><ele>4.0</ele><time>2026-04-01T08:15:27Z</time></trkpt><trkpt lat="39.09587806259163" lon="8.500363889965042"><ele>4.0</ele><time>2026-04-01T08:15:28Z</time></trkpt><trkpt lat="39.09597493017181" lon="8.500523159564239"><ele>4.0</ele><time>2026-04-01T08:15:29Z</time></trkpt><trkpt lat="39.09606396026175" lon="8.50066538815831"><ele>4.4</ele><time>2026-04-01T08:15:30Z</time></trkpt><trkpt lat="39.096134162323565" lon="8.500793310235261"><ele>4.800000000000001</ele><time>2026-04-01T08:15:31Z</time></trkpt><trkpt lat="39.09618068166669" lon="8.50090333427386"><ele>5.199999999999999</ele><time>2026-04-01T08:15:32Z</time></trkpt><trkpt lat="39.096204004297455" lon="8.500986253146474"><ele>5.6</ele><time>2026-04-01T08:15:33Z</time></trkpt><trkpt lat="39.09621310287086" lon="8.50110568985712"><ele>6.0</ele><time>2026-04-01T08:15:35Z</time></trkpt><trkpt lat="39.09620966874102" lon="8.501257614937451"><ele>6.0</ele><time>2026-04-01T08:15:37Z</time></trkpt><trkpt lat="39.096189105215416" lon="8.501344174448116"><ele>6.0</ele><time>2026-04-01T08:15:38Z</time></trkpt><trkpt lat="39.09615440086988" lon="8.501434313956253"><ele>6.0</ele><time>2026-04-01T08:15:39Z</time></trkpt><trkpt lat="39.0960994738754" lon="8.501522589779995"><ele>6.0</ele><time>2026-04-01T08:15:40Z</time></trkpt><trkpt lat="39.096037741410335" lon="8.501611617224176"><ele>6.0</ele><time>2026-04-01T08:15:41Z</time></trkpt><trkpt lat="39.09596946468013" lon="8.50170764323012"><ele>6.0</ele><time>2026-04-01T08:15:42Z</time></trkpt><trkpt lat="39.09589942770365" lon="8.50181530853118"><ele>6.0</ele><time>2026-04-01T08:15:43Z</time></trkpt><trkpt lat="39.09583214030503" lon="8.501922300958986"><ele>6.0</ele><time>2026-04-01T08:15:44Z</time></trkpt><trkpt lat="39.09576576231193" lon="8.502039610160825"><ele>6.0</ele><time>2026-04-01T08:15:45Z</time></trkpt><trkpt lat="39.09566949871072" lon="8.502159798277479"><ele>6.0</ele><time>2026-04-01T08:15:46Z</time></trkpt><trkpt lat="39.095574590561256" lon="8.502305888128326"><ele>6.0</ele><time>2026-04-01T08:15:47Z</time></trkpt><trkpt lat="39.095477755488474" lon="8.502479839121436"><ele>6.0</ele><time>2026-04-01T08:15:48Z</time></trkpt><trkpt lat="39.095363970339825" lon="8.502646813341562"><ele>6.0</ele><time>2026-04-01T08:15:49Z</time></trkpt><trkpt lat="39.09525647766922" lon="8.502798177078244"><ele>6.666666666666666</ele><time>2026-04-01T08:15:50Z</time></trkpt><trkpt lat="39.09514785718935" lon="8.50295664210808"><ele>7.333333333333333</ele><time>2026-04-01T08:15:51Z</time></trkpt><trkpt lat="39.09504064189483" lon="8.503120958368802"><ele>8.0</ele><time>2026-04-01T08:15:52Z</time></trkpt><trkpt lat="39.094932299496875" lon="8.503293247902592"><ele>7.0</ele><time>2026-04-01T08:15:53Z</time></trkpt><trkpt lat="39.094820232089724" lon="8.503462129803765"><ele>6.0</ele><time>2026-04-01T08:15:54Z</time></trkpt><trkpt lat="39.09470288383364" lon="8.503627157338983"><ele>5.0</ele><time>2026-04-01T08:15:55Z</time></trkpt><trkpt lat="39.0945849779224" lon="8.503803405237479"><ele>5.0</ele><time>2026-04-01T08:15:56Z</time></trkpt><trkpt lat="39.094475845875806" lon="8.50399312913823"><ele>5.0</ele><time>2026-04-01T08:15:57Z</time></trkpt><trkpt lat="39.094348920936696" lon="8.504181654823952"><ele>5.0</ele><time>2026-04-01T08:15:58Z</time></trkpt><trkpt lat="39.094232377318946" lon="8.504362420021643"><ele>5.0</ele><time>2026-04-01T08:15:59Z</time></trkpt><trkpt lat="39.09411171268863" lon="8.50455326097858"><ele>5.0</ele><time>2026-04-01T08:16:00Z</time></trkpt><trkpt lat="39.0939909401085" lon="8.50474581513348"><ele>5.0</ele><time>2026-04-01T08:16:01Z</time></trkpt><trkpt lat="39.093869480904324" lon="8.504937872220964"><ele>5.0</ele><time>2026-04-01T08:16:02Z</time></trkpt><trkpt lat="39.093746526779675" lon="8.505127719883623"><ele>5.0</ele><time>2026-04-01T08:16:03Z</time></trkpt><trkpt lat="39.09361845692033" lon="8.505313468203699"><ele>5.0</ele><time>2026-04-01T08:16:04Z</time></trkpt><trkpt lat="39.093492517865975" lon="8.505506435413048"><ele>5.0</ele><time>2026-04-01T08:16:05Z</time></trkpt><trkpt lat="39.0933715503875" lon="8.505705403046875"><ele>5.0</ele><time>2026-04-01T08:16:06Z</time></trkpt><trkpt lat="39.09324634789274" lon="8.50590122262795"><ele>5.0</ele><time>2026-04-01T08:16:07Z</time></trkpt><trkpt lat="39.09312116353776" lon="8.506094550991797"><ele>4.666666666666667</ele><time>2026-04-01T08:16:08Z</time></trkpt><trkpt lat="39.09299385369034" lon="8.506287839955148"><ele>4.333333333333333</ele><time>2026-04-01T08:16:09Z</time></trkpt><trkpt lat="39.0928664287434" lon="8.506479305409526"><ele>4.0</ele><time>2026-04-01T08:16:10Z</time></trkpt><trkpt lat="39.09273856489619" lon="8.506671990018948"><ele>4.0</ele><time>2026-04-01T08:16:11Z</time></trkpt><trkpt lat="39.09261054033933" lon="8.506866305643504"><ele>4.0</ele><time>2026-04-01T08:16:12Z</time></trkpt><trkpt lat="39.09248690279484" lon="8.50705866347574"><ele>4.0</ele><time>2026-04-01T08:16:13Z</time></trkpt><trkpt lat="39.09236311036427" lon="8.507256076787732"><ele>4.0</ele><time>2026-04-01T08:16:14Z</time></trkpt><trkpt lat="39.092239779293585" lon="8.507454180210559"><ele>4.0</ele><time>2026-04-01T08:16:15Z</time></trkpt><trkpt lat="39.092112014582895" lon="8.50765365649527"><ele>4.0</ele><time>2026-04-01T08:16:16Z</time></trkpt><trkpt lat="39.09198456260033" lon="8.507849533003837"><ele>3.6666666666666665</ele><time>2026-04-01T08:16:17Z</time></trkpt><trkpt lat="39.09185487313748" lon="8.508044708774479"><ele>3.333333333333333</ele><time>2026-04-01T08:16:18Z</time></trkpt><trkpt lat="39.09172918229899" lon="8.508236065023528"><ele>3.0</ele><time>2026-04-01T08:16:19Z</time></trkpt><trkpt lat="39.091599603760905" lon="8.508435226486604"><ele>2.6666666666666665</ele><time>2026-04-01T08:16:20Z</time></trkpt><trkpt lat="39.09147142571636" lon="8.508636876927374"><ele>2.333333333333333</ele><time>2026-04-01T08:16:21Z</time></trkpt><trkpt lat="39.09134259879657" lon="8.50883546699208"><ele>2.0</ele><time>2026-04-01T08:16:22Z</time></trkpt><trkpt lat="39.09121495634525" lon="8.509034493171155"><ele>2.0</ele><time>2026-04-01T08:16:23Z</time></trkpt><trkpt lat="39.091086917029656" lon="8.509233810213916"><ele>2.0</ele><time>2026-04-01T08:16:24Z</time></trkpt><trkpt lat="39.09095992343683" lon="8.509429648246618"><ele>2.0</ele><time>2026-04-01T08:16:25Z</time></trkpt><trkpt lat="39.09083500086379" lon="8.50961667000562"><ele>2.0</ele><time>2026-04-01T08:16:26Z</time></trkpt><trkpt lat="39.090715460983745" lon="8.509802111296068"><ele>2.0</ele><time>2026-04-01T08:16:27Z</time></trkpt><trkpt lat="39.09059482926118" lon="8.509985304199152"><ele>2.0</ele><time>2026-04-01T08:16:28Z</time></trkpt><trkpt lat="39.09047445999033" lon="8.510169275889425"><ele>2.0</ele><time>2026-04-01T08:16:29Z</time></trkpt><trkpt lat="39.09035811200242" lon="8.510350530723837"><ele>2.0</ele><time>2026-04-01T08:16:30Z</time></trkpt><trkpt lat="39.09023801603454" lon="8.510533210966786"><ele>2.0</ele><time>2026-04-01T08:16:31Z</time></trkpt><trkpt lat="39.09012294448478" lon="8.51071207301951"><ele>2.333333333333333</ele><time>2026-04-01T08:16:32Z</time></trkpt><trkpt lat="39.09001190661563" lon="8.510881550803742"><ele>2.6666666666666665</ele><time>2026-04-01T08:16:33Z</time></trkpt><trkpt lat="39.08990670121226" lon="8.511047694687678"><ele>3.0</ele><time>2026-04-01T08:16:34Z</time></trkpt><trkpt lat="39.089801045109674" lon="8.511210530888725"><ele>2.0</ele><time>2026-04-01T08:16:35Z</time></trkpt><trkpt lat="39.08969701551974" lon="8.511376726668958"><ele>1.0</ele><time>2026-04-01T08:16:36Z</time></trkpt><trkpt lat="39.0896027101404" lon="8.511548220339993"><ele>0.0</ele><time>2026-04-01T08:16:37Z</time></trkpt><trkpt lat="39.08953130601235" lon="8.511727341664814"><ele>0.0</ele><time>2026-04-01T08:16:38Z</time></trkpt><trkpt lat="39.08949936442487" lon="8.511916648745565"><ele>0.0</ele><time>2026-04-01T08:16:39Z</time></trkpt><trkpt lat="39.08949450409665" lon="8.512104415820872"><ele>0.0</ele><time>2026-04-01T08:16:40Z</time></trkpt><trkpt lat="39.089500260654575" lon="8.512278854593534"><ele>0.0</ele><time>2026-04-01T08:16:41Z</time></trkpt><trkpt lat="39.08950930908229" lon="8.512447488026998"><ele>0.5</ele><time>2026-04-01T08:16:42Z</time></trkpt><trkpt lat="39.08951729901678" lon="8.512617211350797"><ele>1.0</ele><time>2026-04-01T08:16:43Z</time></trkpt><trkpt lat="39.08952238147952" lon="8.512791112216696"><ele>1.5</ele><time>2026-04-01T08:16:44Z</time></trkpt><trkpt lat="39.08953193452517" lon="8.512967017505884"><ele>2.0</ele><time>2026-04-01T08:16:45Z</time></trkpt><trkpt lat="39.089543854295776" lon="8.513144445554378"><ele>2.0</ele><time>2026-04-01T08:16:46Z</time></trkpt><trkpt lat="39.0895625103752" lon="8.513325237302244"><ele>2.0</ele><time>2026-04-01T08:16:47Z</time></trkpt><trkpt lat="39.08956886222108" lon="8.51351401340011"><ele>2.0</ele><time>2026-04-01T08:16:48Z</time></trkpt><trkpt lat="39.08958351808427" lon="8.51370020145849"><ele>2.0</ele><time>2026-04-01T08:16:49Z</time></trkpt><trkpt lat="39.08959071055905" lon="8.513885070249067"><ele>2.0</ele><time>2026-04-01T08:16:50Z</time></trkpt><trkpt lat="39.08960010916892" lon="8.514070032907387"><ele>2.0</ele><time>2026-04-01T08:16:51Z</time></trkpt><trkpt lat="39.08961307722422" lon="8.5142535047466"><ele>2.0</ele><time>2026-04-01T08:16:52Z</time></trkpt><trkpt lat="39.08962593156042" lon="8.514436505180209"><ele>2.0</ele><time>2026-04-01T08:16:53Z</time></trkpt><trkpt lat="39.08963626591875" lon="8.514619223775803"><ele>1.75</ele><time>2026-04-01T08:16:54Z</time></trkpt><trkpt lat="39.08965156873957" lon="8.514796547010656"><ele>1.5</ele><time>2026-04-01T08:16:55Z</time></trkpt><trkpt lat="39.08965956761164" lon="8.51498013437397"><ele>1.25</ele><time>2026-04-01T08:16:56Z</time></trkpt><trkpt lat="39.08966635021291" lon="8.515157987842004"><ele>1.0</ele><time>2026-04-01T08:16:57Z</time></trkpt><trkpt lat="39.08968043201419" lon="8.515328045939526"><ele>1.25</ele><time>2026-04-01T08:16:58Z</time></trkpt><trkpt lat="39.0896944916955" lon="8.51550030138282"><ele>1.5</ele><time>2026-04-01T08:16:59Z</time></trkpt><trkpt lat="39.08970607857158" lon="8.515666116858233"><ele>1.75</ele><time>2026-04-01T08:17:00Z</time></trkpt><trkpt lat="39.089718043277884" lon="8.51583116401715"><ele>2.0</ele><time>2026-04-01T08:17:01Z</time></trkpt><trkpt lat="39.089727398633016" lon="8.51599641889693"><ele>2.0</ele><time>2026-04-01T08:17:02Z</time></trkpt><trkpt lat="39.089735650707524" lon="8.516165029045482"><ele>2.0</ele><time>2026-04-01T08:17:03Z</time></trkpt><trkpt lat="39.08974590662859" lon="8.51633549973064"><ele>2.0</ele><time>2026-04-01T08:17:04Z</time></trkpt><trkpt lat="39.08975968115424" lon="8.516515414444157"><ele>2.0</ele><time>2026-04-01T08:17:05Z</time></trkpt><trkpt lat="39.089773973950486" lon="8.5166999255593"><ele>2.0</ele><time>2026-04-01T08:17:06Z</time></trkpt><trkpt lat="39.08977512681819" lon="8.51689186977441"><ele>2.0</ele><time>2026-04-01T08:17:07Z</time></trkpt><trkpt lat="39.08978014610429" lon="8.517085189995626"><ele>2.0</ele><time>2026-04-01T08:17:08Z</time></trkpt><trkpt lat="39.089779492497996" lon="8.517288297104535"><ele>2.333333333333333</ele><time>2026-04-01T08:17:09Z</time></trkpt><trkpt lat="39.08979058343267" lon="8.517478932567837"><ele>2.6666666666666665</ele><time>2026-04-01T08:17:10Z</time></trkpt><trkpt lat="39.08981874544874" lon="8.517674962010226"><ele>3.0</ele><time>2026-04-01T08:17:11Z</time></trkpt><trkpt lat="39.08983278779072" lon="8.517877147575007"><ele>2.6666666666666665</ele><time>2026-04-01T08:17:12Z</time></trkpt><trkpt lat="39.08984939591002" lon="8.518082126345353"><ele>2.333333333333333</ele><time>2026-04-01T08:17:13Z</time></trkpt><trkpt lat="39.08986276501386" lon="8.518289051055367"><ele>2.0</ele><time>2026-04-01T08:17:14Z</time></trkpt><trkpt lat="39.089873830000464" lon="8.518498673834062"><ele>2.0</ele><time>2026-04-01T08:17:15Z</time></trkpt><trkpt lat="39.08988601303001" lon="8.518709835171112"><ele>2.0</ele><time>2026-04-01T08:17:16Z</time></trkpt><trkpt lat="39.08989971881081" lon="8.518924034698859"><ele>2.0</ele><time>2026-04-01T08:17:17Z</time></trkpt><trkpt lat="39.08991575059728" lon="8.519140911866197"><ele>2.6666666666666665</ele><time>2026-04-01T08:17:18Z</time></trkpt><trkpt lat="39.089930096469885" lon="8.519361633581532"><ele>3.333333333333333</ele><time>2026-04-01T08:17:19Z</time></trkpt><trkpt lat="39.089941701390075" lon="8.519586353318592"><ele>4.0</ele><time>2026-04-01T08:17:20Z</time></trkpt><trkpt lat="39.08995566897116" lon="8.519812373077578"><ele>4.333333333333333</ele><time>2026-04-01T08:17:21Z</time></trkpt><trkpt lat="39.089972682717715" lon="8.520043185584623"><ele>4.666666666666667</ele><time>2026-04-01T08:17:22Z</time></trkpt><trkpt lat="39.08998466347784" lon="8.520285557514065"><ele>5.0</ele><time>2026-04-01T08:17:23Z</time></trkpt><trkpt lat="39.09000171090424" lon="8.520542277068728"><ele>5.0</ele><time>2026-04-01T08:17:24Z</time></trkpt><trkpt lat="39.090010698444324" lon="8.520805097071547"><ele>5.0</ele><time>2026-04-01T08:17:25Z</time></trkpt><trkpt lat="39.09003376179818" lon="8.521081700564624"><ele>5.0</ele><time>2026-04-01T08:17:26Z</time></trkpt><trkpt lat="39.09003824833546" lon="8.5213266913038"><ele>5.0</ele><time>2026-04-01T08:17:27Z</time></trkpt><trkpt lat="39.090053733088766" lon="8.521606313342364"><ele>5.0</ele><time>2026-04-01T08:17:28Z</time></trkpt><trkpt lat="39.09007043080909" lon="8.521879080695411"><ele>5.0</ele><time>2026-04-01T08:17:29Z</time></trkpt><trkpt lat="39.09008485003532" lon="8.522149940852254"><ele>4.666666666666667</ele><time>2026-04-01T08:17:30Z</time></trkpt><trkpt lat="39.09010037029308" lon="8.522417855564719"><ele>4.333333333333333</ele><time>2026-04-01T08:17:31Z</time></trkpt><trkpt lat="39.09011771707153" lon="8.522676358439348"><ele>4.0</ele><time>2026-04-01T08:17:32Z</time></trkpt><trkpt lat="39.09013650199695" lon="8.522935014510251"><ele>4.0</ele><time>2026-04-01T08:17:33Z</time></trkpt><trkpt lat="39.09015411314762" lon="8.523192471837415"><ele>4.0</ele><time>2026-04-01T08:17:34Z</time></trkpt><trkpt lat="39.090166248045385" lon="8.523450601638958"><ele>4.0</ele><time>2026-04-01T08:17:35Z</time></trkpt><trkpt lat="39.09018347863128" lon="8.523698927293635"><ele>4.333333333333333</ele><time>2026-04-01T08:17:36Z</time></trkpt><trkpt lat="39.09019497129959" lon="8.523931336903601"><ele>4.666666666666667</ele><time>2026-04-01T08:17:37Z</time></trkpt><trkpt lat="39.09020838792053" lon="8.524154271912169"><ele>5.0</ele><time>2026-04-01T08:17:38Z</time></trkpt><trkpt lat="39.090224773669306" lon="8.524373815553382"><ele>5.333333333333334</ele><time>2026-04-01T08:17:39Z</time></trkpt><trkpt lat="39.0902383949558" lon="8.524597046593959"><ele>5.666666666666667</ele><time>2026-04-01T08:17:40Z</time></trkpt><trkpt lat="39.09025390468531" lon="8.524812520610306"><ele>6.0</ele><time>2026-04-01T08:17:41Z</time></trkpt><trkpt lat="39.09026298584708" lon="8.52502961454856"><ele>6.0</ele><time>2026-04-01T08:17:42Z</time></trkpt><trkpt lat="39.09027389162911" lon="8.525238326853763"><ele>6.0</ele><time>2026-04-01T08:17:43Z</time></trkpt><trkpt lat="39.09028618074326" lon="8.525440550996068"><ele>6.0</ele><time>2026-04-01T08:17:44Z</time></trkpt><trkpt lat="39.09029678871745" lon="8.525637800961341"><ele>6.0</ele><time>2026-04-01T08:17:45Z</time></trkpt><trkpt lat="39.09030540612422" lon="8.52581647362022"><ele>6.0</ele><time>2026-04-01T08:17:46Z</time></trkpt><trkpt lat="39.09031300364595" lon="8.525981213739078"><ele>6.0</ele><time>2026-04-01T08:17:47Z</time></trkpt><trkpt lat="39.09032744994138" lon="8.526141445572588"><ele>6.0</ele><time>2026-04-01T08:17:48Z</time></trkpt><trkpt lat="39.09034135276394" lon="8.526310691065671"><ele>6.0</ele><time>2026-04-01T08:17:49Z</time></trkpt><trkpt lat="39.09035315239134" lon="8.526492741461638"><ele>6.0</ele><time>2026-04-01T08:17:50Z</time></trkpt><trkpt lat="39.09036572193984" lon="8.526693771755053"><ele>6.0</ele><time>2026-04-01T08:17:51Z</time></trkpt><trkpt lat="39.09037232878322" lon="8.526890538043775"><ele>6.0</ele><time>2026-04-01T08:17:52Z</time></trkpt><trkpt lat="39.09038773081744" lon="8.527089112019485"><ele>6.0</ele><time>2026-04-01T08:17:53Z</time></trkpt><trkpt lat="39.09041347538893" lon="8.527299836134217"><ele>6.0</ele><time>2026-04-01T08:17:54Z</time></trkpt><trkpt lat="39.090431829972644" lon="8.527521041776883"><ele>6.0</ele><time>2026-04-01T08:17:55Z</time></trkpt><trkpt lat="39.09045339454727" lon="8.527756257150308"><ele>6.0</ele><time>2026-04-01T08:17:56Z</time></trkpt><trkpt lat="39.0904750245491" lon="8.527996571278173"><ele>6.0</ele><time>2026-04-01T08:17:57Z</time></trkpt><trkpt lat="39.09050045588256" lon="8.528244589354133"><ele>6.0</ele><time>2026-04-01T08:17:58Z</time></trkpt><trkpt lat="39.09051451105437" lon="8.528502813733871"><ele>6.0</ele><time>2026-04-01T08:17:59Z</time></trkpt><trkpt lat="39.090539447931825" lon="8.528759236295214"><ele>6.0</ele><time>2026-04-01T08:18:00Z</time></trkpt><trkpt lat="39.09056681730767" lon="8.529014243136663"><ele>6.0</ele><time>2026-04-01T08:18:01Z</time></trkpt><trkpt lat="39.090591835396914" lon="8.529266391436433"><ele>6.0</ele><time>2026-04-01T08:18:02Z</time></trkpt><trkpt lat="39.09061419023347" lon="8.529516758326073"><ele>6.0</ele><time>2026-04-01T08:18:03Z</time></trkpt><trkpt lat="39.09063435278035" lon="8.529768390968067"><ele>6.0</ele><time>2026-04-01T08:18:04Z</time></trkpt><trkpt lat="39.09065334256779" lon="8.530022168182652"><ele>6.0</ele><time>2026-04-01T08:18:05Z</time></trkpt><trkpt lat="39.090673614272234" lon="8.5302824426818"><ele>6.0</ele><time>2026-04-01T08:18:06Z</time></trkpt><trkpt lat="39.090697270357886" lon="8.530542328203182"><ele>6.0</ele><time>2026-04-01T08:18:07Z</time></trkpt><trkpt lat="39.090721734154805" lon="8.530799134116975"><ele>6.0</ele><time>2026-04-01T08:18:08Z</time></trkpt><trkpt lat="39.09074616385959" lon="8.531059547013122"><ele>6.0</ele><time>2026-04-01T08:18:09Z</time></trkpt><trkpt lat="39.0907717371659" lon="8.531318219126309"><ele>6.666666666666666</ele><time>2026-04-01T08:18:10Z</time></trkpt><trkpt lat="39.090796531063305" lon="8.531581118092836"><ele>7.333333333333333</ele><time>2026-04-01T08:18:11Z</time></trkpt><trkpt lat="39.09082434610085" lon="8.531841286685255"><ele>8.0</ele><time>2026-04-01T08:18:12Z</time></trkpt><trkpt lat="39.09084822648572" lon="8.53210504893791"><ele>8.333333333333332</ele><time>2026-04-01T08:18:13Z</time></trkpt><trkpt lat="39.090871507291844" lon="8.532364416935096"><ele>8.666666666666666</ele><time>2026-04-01T08:18:14Z</time></trkpt><trkpt lat="39.09089096838338" lon="8.532625470894233"><ele>9.0</ele><time>2026-04-01T08:18:15Z</time></trkpt><trkpt lat="39.090914291830046" lon="8.532885340104134"><ele>9.0</ele><time>2026-04-01T08:18:16Z</time></trkpt><trkpt lat="39.090937662489644" lon="8.533146886608167"><ele>9.0</ele><time>2026-04-01T08:18:17Z</time></trkpt><trkpt lat="39.090961312824646" lon="8.533407645924607"><ele>9.0</ele><time>2026-04-01T08:18:18Z</time></trkpt><trkpt lat="39.09098569058461" lon="8.533665576510225"><ele>9.666666666666666</ele><time>2026-04-01T08:18:19Z</time></trkpt><trkpt lat="39.09101081581077" lon="8.533923298456637"><ele>10.333333333333332</ele><time>2026-04-01T08:18:20Z</time></trkpt><trkpt lat="39.09103496875629" lon="8.534185211983846"><ele>11.0</ele><time>2026-04-01T08:18:21Z</time></trkpt><trkpt lat="39.09105848601593" lon="8.534446682666598"><ele>11.0</ele><time>2026-04-01T08:18:22Z</time></trkpt><trkpt lat="39.09108060312852" lon="8.53470784479533"><ele>11.0</ele><time>2026-04-01T08:18:23Z</time></trkpt><trkpt lat="39.09110495578077" lon="8.534965869326987"><ele>11.0</ele><time>2026-04-01T08:18:24Z</time></trkpt><trkpt lat="39.09112876212666" lon="8.53522888325143"><ele>10.666666666666666</ele><time>2026-04-01T08:18:25Z</time></trkpt><trkpt lat="39.09115171448996" lon="8.535491596543565"><ele>10.333333333333334</ele><time>2026-04-01T08:18:26Z</time></trkpt><trkpt lat="39.091175881321625" lon="8.535753474426892"><ele>10.0</ele><time>2026-04-01T08:18:27Z</time></trkpt><trkpt lat="39.091200951908526" lon="8.536008894649123"><ele>9.333333333333334</ele><time>2026-04-01T08:18:28Z</time></trkpt><trkpt lat="39.091218869244805" lon="8.5362657396305"><ele>8.666666666666666</ele><time>2026-04-01T08:18:29Z</time></trkpt><trkpt lat="39.09124472225318" lon="8.536516229229676"><ele>8.0</ele><time>2026-04-01T08:18:30Z</time></trkpt><trkpt lat="39.0912707219376" lon="8.536778927353533"><ele>8.0</ele><time>2026-04-01T08:18:31Z</time></trkpt><trkpt lat="39.09129208888737" lon="8.53703412133274"><ele>8.0</ele><time>2026-04-01T08:18:32Z</time></trkpt><trkpt lat="39.09131167908144" lon="8.53729242577379"><ele>8.0</ele><time>2026-04-01T08:18:33Z</time></trkpt><trkpt lat="39.091330374268544" lon="8.537538349391959"><ele>8.666666666666666</ele><time>2026-04-01T08:18:34Z</time></trkpt><trkpt lat="39.09135366274596" lon="8.53777004688917"><ele>9.333333333333334</ele><time>2026-04-01T08:18:35Z</time></trkpt><trkpt lat="39.091372402002705" lon="8.537988280027575"><ele>10.0</ele><time>2026-04-01T08:18:36Z</time></trkpt><trkpt lat="39.09139500331105" lon="8.538182644129224"><ele>10.0</ele><time>2026-04-01T08:18:37Z</time></trkpt><trkpt lat="39.09141421900502" lon="8.538368027074863"><ele>10.0</ele><time>2026-04-01T08:18:38Z</time></trkpt><trkpt lat="39.091430125046" lon="8.538525503407984"><ele>10.0</ele><time>2026-04-01T08:18:39Z</time></trkpt><trkpt lat="39.091442250703814" lon="8.538666767356878"><ele>10.0</ele><time>2026-04-01T08:18:40Z</time></trkpt><trkpt lat="39.091459706701606" lon="8.538792131392304"><ele>10.0</ele><time>2026-04-01T08:18:41Z</time></trkpt><trkpt lat="39.09148427270836" lon="8.538900914412562"><ele>10.0</ele><time>2026-04-01T08:18:42Z</time></trkpt><trkpt lat="39.09153063868571" lon="8.538982547039588"><ele>10.0</ele><time>2026-04-01T08:18:43Z</time></trkpt><trkpt lat="39.09159082438728" lon="8.53902189078675"><ele>10.0</ele><time>2026-04-01T08:18:44Z</time></trkpt><trkpt lat="39.09166423978488" lon="8.538964410898393"><ele>10.0</ele><time>2026-04-01T08:18:45Z</time></trkpt><trkpt lat="39.09174701015069" lon="8.538940714273718"><ele>10.0</ele><time>2026-04-01T08:18:46Z</time></trkpt><trkpt lat="39.091832566657985" lon="8.538912527030032"><ele>10.0</ele><time>2026-04-01T08:18:47Z</time></trkpt><trkpt lat="39.091934896366396" lon="8.538897956405698"><ele>10.0</ele><time>2026-04-01T08:18:48Z</time></trkpt><trkpt lat="39.09204793943973" lon="8.538880847452466"><ele>10.0</ele><time>2026-04-01T08:18:49Z</time></trkpt><trkpt lat="39.09216776340652" lon="8.538894904634123"><ele>10.0</ele><time>2026-04-01T08:18:50Z</time></trkpt><trkpt lat="39.092282232135716" lon="8.538939835199406"><ele>10.0</ele><time>2026-04-01T08:18:51Z</time></trkpt><trkpt lat="39.092386991659396" lon="8.539020432975182"><ele>10.0</ele><time>2026-04-01T08:18:52Z</time></trkpt><trkpt lat="39.09245488015501" lon="8.539116574309329"><ele>10.0</ele><time>2026-04-01T08:18:53Z</time></trkpt><trkpt lat="39.09248802972377" lon="8.539223747536408"><ele>10.0</ele><time>2026-04-01T08:18:54Z</time></trkpt><trkpt lat="39.09249577216507" lon="8.539362888344092"><ele>10.0</ele><time>2026-04-01T08:18:55Z</time></trkpt><trkpt lat="39.09249090182872" lon="8.539498274668865"><ele>10.0</ele><time>2026-04-01T08:18:56Z</time></trkpt><trkpt lat="39.092472096053754" lon="8.539639689826581"><ele>10.0</ele><time>2026-04-01T08:18:57Z</time></trkpt><trkpt lat="39.09243444688439" lon="8.539770605879774"><ele>10.0</ele><time>2026-04-01T08:18:58Z</time></trkpt><trkpt lat="39.09236798719274" lon="8.539877419636824"><ele>10.0</ele><time>2026-04-01T08:18:59Z</time></trkpt><trkpt lat="39.09232341617712" lon="8.539974063405465"><ele>10.0</ele><time>2026-04-01T08:19:00Z</time></trkpt><trkpt lat="39.09218887138977" lon="8.540001389389651"><ele>10.5</ele><time>2026-04-01T08:19:01Z</time></trkpt><trkpt lat="39.092104072326805" lon="8.540076788161942"><ele>11.0</ele><time>2026-04-01T08:19:02Z</time></trkpt><trkpt lat="39.09201703624367" lon="8.540169403344544"><ele>11.5</ele><time>2026-04-01T08:19:03Z</time></trkpt><trkpt lat="39.09192251804303" lon="8.540270733261774"><ele>12.0</ele><time>2026-04-01T08:19:04Z</time></trkpt><trkpt lat="39.09181898249637" lon="8.540374772763062"><ele>12.0</ele><time>2026-04-01T08:19:05Z</time></trkpt><trkpt lat="39.09170508276057" lon="8.540477445483706"><ele>12.0</ele><time>2026-04-01T08:19:06Z</time></trkpt><trkpt lat="39.09158110287147" lon="8.540581516796303"><ele>12.0</ele><time>2026-04-01T08:19:07Z</time></trkpt><trkpt lat="39.09144950282927" lon="8.540710110122625"><ele>12.0</ele><time>2026-04-01T08:19:08Z</time></trkpt><trkpt lat="39.09130395891385" lon="8.54081823773499"><ele>12.0</ele><time>2026-04-01T08:19:09Z</time></trkpt><trkpt lat="39.09116869031416" lon="8.540942872583337"><ele>12.0</ele><time>2026-04-01T08:19:10Z</time></trkpt><trkpt lat="39.09103639114893" lon="8.541068841493681"><ele>12.0</ele><time>2026-04-01T08:19:11Z</time></trkpt><trkpt lat="39.090887181490764" lon="8.541193039830128"><ele>12.0</ele><time>2026-04-01T08:19:12Z</time></trkpt><trkpt lat="39.09073581900575" lon="8.54131730186892"><ele>12.0</ele><time>2026-04-01T08:19:13Z</time></trkpt><trkpt lat="39.090588058461634" lon="8.541449726173047"><ele>11.666666666666666</ele><time>2026-04-01T08:19:14Z</time></trkpt><trkpt lat="39.09043960844986" lon="8.541581156731333"><ele>11.333333333333332</ele><time>2026-04-01T08:19:15Z</time></trkpt><trkpt lat="39.09028494587455" lon="8.541710952742115"><ele>11.0</ele><time>2026-04-01T08:19:16Z</time></trkpt><trkpt lat="39.09013113407306" lon="8.541843570269219"><ele>11.0</ele><time>2026-04-01T08:19:17Z</time></trkpt><trkpt lat="39.08997662063063" lon="8.541977238159562"><ele>11.0</ele><time>2026-04-01T08:19:18Z</time></trkpt><trkpt lat="39.08981651571639" lon="8.542117135607917"><ele>11.0</ele><time>2026-04-01T08:19:19Z</time></trkpt><trkpt lat="39.08965526756564" lon="8.542259576441406"><ele>11.333333333333332</ele><time>2026-04-01T08:19:20Z</time></trkpt><trkpt lat="39.08949338289892" lon="8.542403165236136"><ele>11.666666666666666</ele><time>2026-04-01T08:19:21Z</time></trkpt><trkpt lat="39.08932865756376" lon="8.542550024394886"><ele>12.0</ele><time>2026-04-01T08:19:22Z</time></trkpt><trkpt lat="39.0891599211998" lon="8.542695916700483"><ele>11.333333333333334</ele><time>2026-04-01T08:19:23Z</time></trkpt><trkpt lat="39.088985906236914" lon="8.542839332289294"><ele>10.666666666666668</ele><time>2026-04-01T08:19:24Z</time></trkpt><trkpt lat="39.08881109159853" lon="8.542985896040792"><ele>10.0</ele><time>2026-04-01T08:19:25Z</time></trkpt><trkpt lat="39.08863943949523" lon="8.543135681525134"><ele>10.0</ele><time>2026-04-01T08:19:26Z</time></trkpt><trkpt lat="39.088465374487136" lon="8.543289225984777"><ele>10.0</ele><time>2026-04-01T08:19:27Z</time></trkpt><trkpt lat="39.088289896327" lon="8.543442419030145"><ele>10.0</ele><time>2026-04-01T08:19:28Z</time></trkpt><trkpt lat="39.088115165710846" lon="8.543598473659559"><ele>9.666666666666668</ele><time>2026-04-01T08:19:29Z</time></trkpt><trkpt lat="39.08794464353921" lon="8.543754883364329"><ele>9.333333333333334</ele><time>2026-04-01T08:19:30Z</time></trkpt><trkpt lat="39.08777152535399" lon="8.543905375556097"><ele>9.0</ele><time>2026-04-01T08:19:31Z</time></trkpt><trkpt lat="39.08759274565531" lon="8.544051541249171"><ele>8.666666666666666</ele><time>2026-04-01T08:19:32Z</time></trkpt><trkpt lat="39.087424089611815" lon="8.544202538739652"><ele>8.333333333333332</ele><time>2026-04-01T08:19:33Z</time></trkpt><trkpt lat="39.08725119314178" lon="8.544346511350968"><ele>8.0</ele><time>2026-04-01T08:19:34Z</time></trkpt><trkpt lat="39.08707822399962" lon="8.544492626940293"><ele>8.333333333333332</ele><time>2026-04-01T08:19:35Z</time></trkpt><trkpt lat="39.0869081502479" lon="8.544641121012447"><ele>8.666666666666666</ele><time>2026-04-01T08:19:36Z</time></trkpt><trkpt lat="39.08674095706679" lon="8.544791557524498"><ele>9.0</ele><time>2026-04-01T08:19:37Z</time></trkpt><trkpt lat="39.0865883609255" lon="8.544942005166824"><ele>9.333333333333334</ele><time>2026-04-01T08:19:38Z</time></trkpt><trkpt lat="39.086440006520625" lon="8.545068604414878"><ele>9.666666666666668</ele><time>2026-04-01T08:19:39Z</time></trkpt><trkpt lat="39.08629077375605" lon="8.54519235672735"><ele>10.0</ele><time>2026-04-01T08:19:40Z</time></trkpt><trkpt lat="39.08614691751484" lon="8.545315968998187"><ele>10.333333333333334</ele><time>2026-04-01T08:19:41Z</time></trkpt><trkpt lat="39.08600315634917" lon="8.545436487465478"><ele>10.666666666666666</ele><time>2026-04-01T08:19:42Z</time></trkpt><trkpt lat="39.085860258229694" lon="8.545560545403541"><ele>11.0</ele><time>2026-04-01T08:19:43Z</time></trkpt><trkpt lat="39.085716133751255" lon="8.545682976727615"><ele>10.333333333333332</ele><time>2026-04-01T08:19:44Z</time></trkpt><trkpt lat="39.085583180549534" lon="8.545817099322411"><ele>9.666666666666666</ele><time>2026-04-01T08:19:45Z</time></trkpt><trkpt lat="39.0854379391276" lon="8.545941391704872"><ele>9.0</ele><time>2026-04-01T08:19:46Z</time></trkpt><trkpt lat="39.08529180737232" lon="8.546064514348291"><ele>9.0</ele><time>2026-04-01T08:19:47Z</time></trkpt><trkpt lat="39.08514867706162" lon="8.546188885350798"><ele>9.0</ele><time>2026-04-01T08:19:48Z</time></trkpt><trkpt lat="39.08500945877923" lon="8.546312700389707"><ele>9.0</ele><time>2026-04-01T08:19:49Z</time></trkpt><trkpt lat="39.08484375211457" lon="8.546423544674717"><ele>9.333333333333334</ele><time>2026-04-01T08:19:50Z</time></trkpt><trkpt lat="39.08470683481523" lon="8.546564808705439"><ele>9.666666666666668</ele><time>2026-04-01T08:19:51Z</time></trkpt><trkpt lat="39.08455995300557" lon="8.546706073222815"><ele>10.0</ele><time>2026-04-01T08:19:52Z</time></trkpt><trkpt lat="39.08441005229042" lon="8.546833155884883"><ele>10.0</ele><time>2026-04-01T08:19:53Z</time></trkpt><trkpt lat="39.08425424614792" lon="8.54695708951621"><ele>10.0</ele><time>2026-04-01T08:19:54Z</time></trkpt><trkpt lat="39.084098434879024" lon="8.547090816191709"><ele>10.0</ele><time>2026-04-01T08:19:55Z</time></trkpt><trkpt lat="39.08394457681232" lon="8.547228528285347"><ele>9.666666666666668</ele><time>2026-04-01T08:19:56Z</time></trkpt><trkpt lat="39.08378961671561" lon="8.5473662666087"><ele>9.333333333333334</ele><time>2026-04-01T08:19:57Z</time></trkpt><trkpt lat="39.08363093323064" lon="8.547500521328207"><ele>9.0</ele><time>2026-04-01T08:19:58Z</time></trkpt><trkpt lat="39.083469152287954" lon="8.547644357548618"><ele>9.0</ele><time>2026-04-01T08:19:59Z</time></trkpt><trkpt lat="39.08331190943629" lon="8.547778148402728"><ele>9.0</ele><time>2026-04-01T08:20:00Z</time></trkpt><trkpt lat="39.08315057181782" lon="8.547911510316913"><ele>9.0</ele><time>2026-04-01T08:20:01Z</time></trkpt><trkpt lat="39.08298885973314" lon="8.548051913036508"><ele>8.666666666666666</ele><time>2026-04-01T08:20:02Z</time></trkpt><trkpt lat="39.08282743727701" lon="8.548195600542241"><ele>8.333333333333332</ele><time>2026-04-01T08:20:03Z</time></trkpt><trkpt lat="39.08266669317726" lon="8.548325949188776"><ele>8.0</ele><time>2026-04-01T08:20:04Z</time></trkpt><trkpt lat="39.082505223485086" lon="8.548457041562292"><ele>7.666666666666666</ele><time>2026-04-01T08:20:05Z</time></trkpt><trkpt lat="39.08235343278589" lon="8.548601092481784"><ele>7.333333333333334</ele><time>2026-04-01T08:20:06Z</time></trkpt><trkpt lat="39.0822017419784" lon="8.548740821193293"><ele>7.0</ele><time>2026-04-01T08:20:07Z</time></trkpt><trkpt lat="39.082044408230516" lon="8.548878510893362"><ele>7.0</ele><time>2026-04-01T08:20:08Z</time></trkpt><trkpt lat="39.081891850223215" lon="8.549015743047711"><ele>7.0</ele><time>2026-04-01T08:20:09Z</time></trkpt><trkpt lat="39.08173720832077" lon="8.549151116114494"><ele>7.0</ele><time>2026-04-01T08:20:10Z</time></trkpt><trkpt lat="39.08157927759792" lon="8.549282042746167"><ele>7.0</ele><time>2026-04-01T08:20:11Z</time></trkpt><trkpt lat="39.081423748969144" lon="8.549412844525797"><ele>7.0</ele><time>2026-04-01T08:20:12Z</time></trkpt><trkpt lat="39.081268813789286" lon="8.549549204084462"><ele>7.0</ele><time>2026-04-01T08:20:13Z</time></trkpt><trkpt lat="39.08111153746217" lon="8.549682741046851"><ele>7.0</ele><time>2026-04-01T08:20:14Z</time></trkpt><trkpt lat="39.080954158272895" lon="8.549817613001192"><ele>7.0</ele><time>2026-04-01T08:20:15Z</time></trkpt><trkpt lat="39.08079636913622" lon="8.549950352021433"><ele>7.0</ele><time>2026-04-01T08:20:16Z</time></trkpt><trkpt lat="39.08064026915588" lon="8.550086260601704"><ele>7.0</ele><time>2026-04-01T08:20:17Z</time></trkpt><trkpt lat="39.080486632115516" lon="8.550223902044005"><ele>7.0</ele><time>2026-04-01T08:20:18Z</time></trkpt><trkpt lat="39.0803270983769" lon="8.550358688374194"><ele>7.0</ele><time>2026-04-01T08:20:19Z</time></trkpt><trkpt lat="39.08016356504261" lon="8.55049118275225"><ele>7.0</ele><time>2026-04-01T08:20:20Z</time></trkpt><trkpt lat="39.07999893797345" lon="8.55061759585693"><ele>7.0</ele><time>2026-04-01T08:20:21Z</time></trkpt><trkpt lat="39.07983425510267" lon="8.55074141745337"><ele>7.0</ele><time>2026-04-01T08:20:22Z</time></trkpt><trkpt lat="39.07966591232905" lon="8.550861737373033"><ele>7.0</ele><time>2026-04-01T08:20:23Z</time></trkpt><trkpt lat="39.0794943859522" lon="8.550974362853712"><ele>7.0</ele><time>2026-04-01T08:20:24Z</time></trkpt><trkpt lat="39.079318730610915" lon="8.55108072430608"><ele>7.0</ele><time>2026-04-01T08:20:25Z</time></trkpt><trkpt lat="39.079136556067816" lon="8.551181784184442"><ele>7.0</ele><time>2026-04-01T08:20:26Z</time></trkpt><trkpt lat="39.07895361140558" lon="8.551275564272272"><ele>7.0</ele><time>2026-04-01T08:20:27Z</time></trkpt><trkpt lat="39.07876749609266" lon="8.551361774179904"><ele>7.0</ele><time>2026-04-01T08:20:28Z</time></trkpt><trkpt lat="39.07858167598217" lon="8.551440331942159"><ele>7.0</ele><time>2026-04-01T08:20:29Z</time></trkpt><trkpt lat="39.07839547425859" lon="8.55152655995223"><ele>7.0</ele><time>2026-04-01T08:20:30Z</time></trkpt><trkpt lat="39.078208447252266" lon="8.551605414167076"><ele>7.0</ele><time>2026-04-01T08:20:31Z</time></trkpt><trkpt lat="39.078020615517055" lon="8.551686197484257"><ele>6.333333333333334</ele><time>2026-04-01T08:20:32Z</time></trkpt><trkpt lat="39.07783473807326" lon="8.551764691215892"><ele>5.666666666666667</ele><time>2026-04-01T08:20:33Z</time></trkpt><trkpt lat="39.07764601288415" lon="8.55184633567912"><ele>5.0</ele><time>2026-04-01T08:20:34Z</time></trkpt><trkpt lat="39.0774596780246" lon="8.551929393764874"><ele>5.333333333333334</ele><time>2026-04-01T08:20:35Z</time></trkpt><trkpt lat="39.07727039073096" lon="8.55201302428101"><ele>5.666666666666667</ele><time>2026-04-01T08:20:36Z</time></trkpt><trkpt lat="39.07708240789584" lon="8.552096787026514"><ele>6.0</ele><time>2026-04-01T08:20:37Z</time></trkpt><trkpt lat="39.076894074873074" lon="8.552175689161297"><ele>6.0</ele><time>2026-04-01T08:20:38Z</time></trkpt><trkpt lat="39.0767053333776" lon="8.552254259397312"><ele>6.0</ele><time>2026-04-01T08:20:39Z</time></trkpt><trkpt lat="39.07651497194668" lon="8.552333628581797"><ele>6.0</ele><time>2026-04-01T08:20:40Z</time></trkpt><trkpt lat="39.07632356899725" lon="8.552413263391491"><ele>6.333333333333334</ele><time>2026-04-01T08:20:41Z</time></trkpt><trkpt lat="39.07613008167127" lon="8.552492838515306"><ele>6.666666666666667</ele><time>2026-04-01T08:20:42Z</time></trkpt><trkpt lat="39.0759364332307" lon="8.552574497226049"><ele>7.0</ele><time>2026-04-01T08:20:43Z</time></trkpt><trkpt lat="39.07574487953521" lon="8.552655705830798"><ele>7.333333333333334</ele><time>2026-04-01T08:20:44Z</time></trkpt><trkpt lat="39.07555250557817" lon="8.55274031472234"><ele>7.666666666666666</ele><time>2026-04-01T08:20:45Z</time></trkpt><trkpt lat="39.07536012245892" lon="8.55282067637319"><ele>8.0</ele><time>2026-04-01T08:20:46Z</time></trkpt><trkpt lat="39.07516549959707" lon="8.552902444187566"><ele>8.0</ele><time>2026-04-01T08:20:47Z</time></trkpt><trkpt lat="39.074969731534274" lon="8.552986856614025"><ele>8.0</ele><time>2026-04-01T08:20:48Z</time></trkpt><trkpt lat="39.074775175000006" lon="8.553070406921343"><ele>8.0</ele><time>2026-04-01T08:20:49Z</time></trkpt><trkpt lat="39.074581290100326" lon="8.553152232345587"><ele>8.0</ele><time>2026-04-01T08:20:50Z</time></trkpt><trkpt lat="39.074386760160934" lon="8.553236102346217"><ele>8.0</ele><time>2026-04-01T08:20:51Z</time></trkpt><trkpt lat="39.07419556547352" lon="8.553321226520993"><ele>8.0</ele><time>2026-04-01T08:20:52Z</time></trkpt><trkpt lat="39.074004338797515" lon="8.553404564714922"><ele>8.0</ele><time>2026-04-01T08:20:53Z</time></trkpt><trkpt lat="39.0738122630263" lon="8.553485209053745"><ele>8.0</ele><time>2026-04-01T08:20:54Z</time></trkpt><trkpt lat="39.07362066548283" lon="8.553562924214711"><ele>8.0</ele><time>2026-04-01T08:20:55Z</time></trkpt><trkpt lat="39.07342767308866" lon="8.553647943581895"><ele>8.666666666666666</ele><time>2026-04-01T08:20:56Z</time></trkpt><trkpt lat="39.073236177525274" lon="8.553732322694485"><ele>9.333333333333334</ele><time>2026-04-01T08:20:57Z</time></trkpt><trkpt lat="39.073047023043195" lon="8.553818252049272"><ele>10.0</ele><time>2026-04-01T08:20:58Z</time></trkpt><trkpt lat="39.07285649671763" lon="8.553901040049015"><ele>10.0</ele><time>2026-04-01T08:20:59Z</time></trkpt><trkpt lat="39.07266956341011" lon="8.55398309839537"><ele>10.0</ele><time>2026-04-01T08:21:00Z</time></trkpt><trkpt lat="39.07247886070656" lon="8.554058091109255"><ele>10.0</ele><time>2026-04-01T08:21:01Z</time></trkpt><trkpt lat="39.07228538260567" lon="8.554136167714208"><ele>9.666666666666668</ele><time>2026-04-01T08:21:02Z</time></trkpt><trkpt lat="39.072096401934814" lon="8.554219241142473"><ele>9.333333333333334</ele><time>2026-04-01T08:21:03Z</time></trkpt><trkpt lat="39.071908214172936" lon="8.554302624167585"><ele>9.0</ele><time>2026-04-01T08:21:04Z</time></trkpt><trkpt lat="39.07172090213246" lon="8.554384147583109"><ele>9.0</ele><time>2026-04-01T08:21:05Z</time></trkpt><trkpt lat="39.071533912406395" lon="8.554465843032611"><ele>9.0</ele><time>2026-04-01T08:21:06Z</time></trkpt><trkpt lat="39.07134378617089" lon="8.554546024838283"><ele>9.0</ele><time>2026-04-01T08:21:07Z</time></trkpt><trkpt lat="39.07115334835816" lon="8.55462503741282"><ele>9.0</ele><time>2026-04-01T08:21:08Z</time></trkpt><trkpt lat="39.070963445735394" lon="8.5547054201633"><ele>9.0</ele><time>2026-04-01T08:21:09Z</time></trkpt><trkpt lat="39.070771528570084" lon="8.554783713115963"><ele>9.0</ele><time>2026-04-01T08:21:10Z</time></trkpt><trkpt lat="39.07058243247022" lon="8.554864081832266"><ele>8.666666666666666</ele><time>2026-04-01T08:21:11Z</time></trkpt><trkpt lat="39.07039274067198" lon="8.55494489980273"><ele>8.333333333333332</ele><time>2026-04-01T08:21:12Z</time></trkpt><trkpt lat="39.070202987073216" lon="8.555025735901213"><ele>8.0</ele><time>2026-04-01T08:21:13Z</time></trkpt><trkpt lat="39.070012478067355" lon="8.55510752667608"><ele>7.666666666666666</ele><time>2026-04-01T08:21:14Z</time></trkpt><trkpt lat="39.06982607970799" lon="8.555193514377217"><ele>7.333333333333334</ele><time>2026-04-01T08:21:15Z</time></trkpt><trkpt lat="39.06964233837828" lon="8.55527863047037"><ele>7.0</ele><time>2026-04-01T08:21:16Z</time></trkpt><trkpt lat="39.06946301107703" lon="8.55535680741212"><ele>7.666666666666667</ele><time>2026-04-01T08:21:17Z</time></trkpt><trkpt lat="39.069288168354234" lon="8.555428535119104"><ele>8.333333333333334</ele><time>2026-04-01T08:21:18Z</time></trkpt><trkpt lat="39.06910986191728" lon="8.555495767742908"><ele>9.0</ele><time>2026-04-01T08:21:19Z</time></trkpt><trkpt lat="39.06894563980785" lon="8.55556720565992"><ele>9.0</ele><time>2026-04-01T08:21:20Z</time></trkpt><trkpt lat="39.06878696676361" lon="8.555636147920382"><ele>9.0</ele><time>2026-04-01T08:21:21Z</time></trkpt><trkpt lat="39.06863193347464" lon="8.55570579904611"><ele>9.0</ele><time>2026-04-01T08:21:22Z</time></trkpt><trkpt lat="39.06847428405366" lon="8.555772265819671"><ele>9.0</ele><time>2026-04-01T08:21:23Z</time></trkpt><trkpt lat="39.06831097157057" lon="8.55583855584946"><ele>9.0</ele><time>2026-04-01T08:21:24Z</time></trkpt><trkpt lat="39.068149055671824" lon="8.555910434050265"><ele>9.0</ele><time>2026-04-01T08:21:25Z</time></trkpt><trkpt lat="39.06798389315983" lon="8.555979654068492"><ele>9.0</ele><time>2026-04-01T08:21:26Z</time></trkpt><trkpt lat="39.06781334955435" lon="8.556045344779186"><ele>9.0</ele><time>2026-04-01T08:21:27Z</time></trkpt><trkpt lat="39.06764247479791" lon="8.5561138785542"><ele>9.0</ele><time>2026-04-01T08:21:28Z</time></trkpt><trkpt lat="39.06746956508489" lon="8.556184167646842"><ele>9.333333333333334</ele><time>2026-04-01T08:21:29Z</time></trkpt><trkpt lat="39.06729795554674" lon="8.556252731281061"><ele>9.666666666666668</ele><time>2026-04-01T08:21:30Z</time></trkpt><trkpt lat="39.06712778095817" lon="8.556325306757886"><ele>10.0</ele><time>2026-04-01T08:21:31Z</time></trkpt><trkpt lat="39.066955859678565" lon="8.55640552661905"><ele>10.0</ele><time>2026-04-01T08:21:32Z</time></trkpt><trkpt lat="39.06679100133348" lon="8.556481197097385"><ele>10.0</ele><time>2026-04-01T08:21:33Z</time></trkpt><trkpt lat="39.0666208792161" lon="8.556556099881046"><ele>10.0</ele><time>2026-04-01T08:21:34Z</time></trkpt><trkpt lat="39.066449736658946" lon="8.55662987868617"><ele>10.333333333333334</ele><time>2026-04-01T08:21:35Z</time></trkpt><trkpt lat="39.06627673840504" lon="8.55670445919931"><ele>10.666666666666666</ele><time>2026-04-01T08:21:36Z</time></trkpt><trkpt lat="39.06610471372708" lon="8.556777601022826"><ele>11.0</ele><time>2026-04-01T08:21:37Z</time></trkpt><trkpt lat="39.06593142525261" lon="8.556851551310112"><ele>10.0</ele><time>2026-04-01T08:21:38Z</time></trkpt><trkpt lat="39.065755047899934" lon="8.556926159728919"><ele>9.0</ele><time>2026-04-01T08:21:39Z</time></trkpt><trkpt lat="39.065574684438644" lon="8.557003284265768"><ele>8.0</ele><time>2026-04-01T08:21:40Z</time></trkpt><trkpt lat="39.065397140888734" lon="8.557079477309697"><ele>8.0</ele><time>2026-04-01T08:21:41Z</time></trkpt><trkpt lat="39.06521736060652" lon="8.55715297136583"><ele>8.0</ele><time>2026-04-01T08:21:42Z</time></trkpt><trkpt lat="39.0650377487042" lon="8.557231915391561"><ele>8.0</ele><time>2026-04-01T08:21:43Z</time></trkpt><trkpt lat="39.064854143090905" lon="8.557312337157567"><ele>8.0</ele><time>2026-04-01T08:21:44Z</time></trkpt><trkpt lat="39.06467553910958" lon="8.55739663964404"><ele>8.0</ele><time>2026-04-01T08:21:45Z</time></trkpt><trkpt lat="39.0644956026614" lon="8.55748323040209"><ele>8.0</ele><time>2026-04-01T08:21:46Z</time></trkpt><trkpt lat="39.0643161542283" lon="8.557574454285087"><ele>8.0</ele><time>2026-04-01T08:21:47Z</time></trkpt><trkpt lat="39.064138635712794" lon="8.55767037543252"><ele>8.0</ele><time>2026-04-01T08:21:48Z</time></trkpt><trkpt lat="39.06396313556506" lon="8.557771619091607"><ele>8.0</ele><time>2026-04-01T08:21:49Z</time></trkpt><trkpt lat="39.06378829171157" lon="8.5578749042354"><ele>7.666666666666666</ele><time>2026-04-01T08:21:50Z</time></trkpt><trkpt lat="39.063614825349994" lon="8.557979245275058"><ele>7.333333333333334</ele><time>2026-04-01T08:21:51Z</time></trkpt><trkpt lat="39.06344342844269" lon="8.55809085894905"><ele>7.0</ele><time>2026-04-01T08:21:52Z</time></trkpt><trkpt lat="39.06327336664652" lon="8.55820460195543"><ele>7.0</ele><time>2026-04-01T08:21:53Z</time></trkpt><trkpt lat="39.063105115214135" lon="8.558321997703299"><ele>7.0</ele><time>2026-04-01T08:21:54Z</time></trkpt><trkpt lat="39.0629361940872" lon="8.558440847375792"><ele>7.0</ele><time>2026-04-01T08:21:55Z</time></trkpt><trkpt lat="39.062766009466436" lon="8.558557802246499"><ele>7.0</ele><time>2026-04-01T08:21:56Z</time></trkpt><trkpt lat="39.06259530905247" lon="8.558674569442077"><ele>7.0</ele><time>2026-04-01T08:21:57Z</time></trkpt><trkpt lat="39.06242689571688" lon="8.558789803901368"><ele>7.0</ele><time>2026-04-01T08:21:58Z</time></trkpt><trkpt lat="39.06225806141566" lon="8.558907556265273"><ele>7.666666666666667</ele><time>2026-04-01T08:21:59Z</time></trkpt><trkpt lat="39.062089298610225" lon="8.559025860426528"><ele>8.333333333333334</ele><time>2026-04-01T08:22:00Z</time></trkpt><trkpt lat="39.06192166457688" lon="8.559146593126137"><ele>9.0</ele><time>2026-04-01T08:22:01Z</time></trkpt><trkpt lat="39.06175422818888" lon="8.55927478241813"><ele>9.0</ele><time>2026-04-01T08:22:02Z</time></trkpt><trkpt lat="39.06159041311056" lon="8.559403058907415"><ele>9.0</ele><time>2026-04-01T08:22:03Z</time></trkpt><trkpt lat="39.06142674550031" lon="8.559535592435788"><ele>9.0</ele><time>2026-04-01T08:22:04Z</time></trkpt><trkpt lat="39.06126738593033" lon="8.559672227982679"><ele>8.666666666666666</ele><time>2026-04-01T08:22:05Z</time></trkpt><trkpt lat="39.061109039628526" lon="8.559821172192406"><ele>8.333333333333332</ele><time>2026-04-01T08:22:06Z</time></trkpt><trkpt lat="39.06095419994566" lon="8.55997456097089"><ele>8.0</ele><time>2026-04-01T08:22:07Z</time></trkpt><trkpt lat="39.06080479178109" lon="8.560138392703124"><ele>8.0</ele><time>2026-04-01T08:22:08Z</time></trkpt><trkpt lat="39.06065761671074" lon="8.560305577775594"><ele>8.0</ele><time>2026-04-01T08:22:09Z</time></trkpt><trkpt lat="39.06051435207748" lon="8.560478303241519"><ele>8.0</ele><time>2026-04-01T08:22:10Z</time></trkpt><trkpt lat="39.06037407941802" lon="8.560657278177375"><ele>8.0</ele><time>2026-04-01T08:22:11Z</time></trkpt><trkpt lat="39.060234569623674" lon="8.56084059769963"><ele>8.0</ele><time>2026-04-01T08:22:12Z</time></trkpt><trkpt lat="39.06010371413727" lon="8.561033225731535"><ele>8.0</ele><time>2026-04-01T08:22:13Z</time></trkpt><trkpt lat="39.05997692558886" lon="8.561233988581861"><ele>7.333333333333333</ele><time>2026-04-01T08:22:14Z</time></trkpt><trkpt lat="39.059853171551154" lon="8.561438437964048"><ele>6.666666666666666</ele><time>2026-04-01T08:22:15Z</time></trkpt><trkpt lat="39.059734992495414" lon="8.561647264702515"><ele>6.0</ele><time>2026-04-01T08:22:16Z</time></trkpt><trkpt lat="39.05962269272736" lon="8.561861970872053"><ele>5.666666666666667</ele><time>2026-04-01T08:22:17Z</time></trkpt><trkpt lat="39.059510607688054" lon="8.562079951311063"><ele>5.333333333333334</ele><time>2026-04-01T08:22:18Z</time></trkpt><trkpt lat="39.059403465307525" lon="8.562299136559293"><ele>5.0</ele><time>2026-04-01T08:22:19Z</time></trkpt><trkpt lat="39.05930249588023" lon="8.56252487630724"><ele>5.0</ele><time>2026-04-01T08:22:20Z</time></trkpt><trkpt lat="39.05920662852401" lon="8.56275630171413"><ele>5.0</ele><time>2026-04-01T08:22:21Z</time></trkpt><trkpt lat="39.05911823318951" lon="8.562992077328808"><ele>5.0</ele><time>2026-04-01T08:22:22Z</time></trkpt><trkpt lat="39.05903423028726" lon="8.563229880101614"><ele>5.0</ele><time>2026-04-01T08:22:23Z</time></trkpt><trkpt lat="39.05895242254923" lon="8.56346899039048"><ele>5.0</ele><time>2026-04-01T08:22:24Z</time></trkpt><trkpt lat="39.05887339876956" lon="8.56370675515816"><ele>5.0</ele><time>2026-04-01T08:22:25Z</time></trkpt><trkpt lat="39.05879869009632" lon="8.563950197970355"><ele>5.0</ele><time>2026-04-01T08:22:26Z</time></trkpt><trkpt lat="39.058734897735846" lon="8.56419699655286"><ele>5.0</ele><time>2026-04-01T08:22:27Z</time></trkpt><trkpt lat="39.058679286520004" lon="8.564443493129426"><ele>5.0</ele><time>2026-04-01T08:22:28Z</time></trkpt><trkpt lat="39.05862660035014" lon="8.56469518702489"><ele>5.666666666666667</ele><time>2026-04-01T08:22:29Z</time></trkpt><trkpt lat="39.05857863431632" lon="8.564945712952232"><ele>6.333333333333334</ele><time>2026-04-01T08:22:30Z</time></trkpt><trkpt lat="39.0585337217398" lon="8.565201339375633"><ele>7.0</ele><time>2026-04-01T08:22:31Z</time></trkpt><trkpt lat="39.058494941334374" lon="8.565455277099677"><ele>7.0</ele><time>2026-04-01T08:22:32Z</time></trkpt><trkpt lat="39.05846039328059" lon="8.565710644777376"><ele>7.0</ele><time>2026-04-01T08:22:33Z</time></trkpt><trkpt lat="39.05843211781062" lon="8.56596704886582"><ele>7.0</ele><time>2026-04-01T08:22:34Z</time></trkpt><trkpt lat="39.05840618883196" lon="8.566225419565075"><ele>7.333333333333334</ele><time>2026-04-01T08:22:35Z</time></trkpt><trkpt lat="39.058381642487134" lon="8.566483501395336"><ele>7.666666666666666</ele><time>2026-04-01T08:22:36Z</time></trkpt><trkpt lat="39.058355026521475" lon="8.566742376628396"><ele>8.0</ele><time>2026-04-01T08:22:37Z</time></trkpt><trkpt lat="39.05832690950401" lon="8.567000360134726"><ele>8.666666666666666</ele><time>2026-04-01T08:22:38Z</time></trkpt><trkpt lat="39.05830052596483" lon="8.567257537344691"><ele>9.333333333333334</ele><time>2026-04-01T08:22:39Z</time></trkpt><trkpt lat="39.058272955431384" lon="8.567513541822255"><ele>10.0</ele><time>2026-04-01T08:22:40Z</time></trkpt><trkpt lat="39.05824751847737" lon="8.567772731033397"><ele>10.333333333333334</ele><time>2026-04-01T08:22:41Z</time></trkpt><trkpt lat="39.05821993724858" lon="8.56803308866631"><ele>10.666666666666666</ele><time>2026-04-01T08:22:42Z</time></trkpt><trkpt lat="39.05819438713423" lon="8.568292987907379"><ele>11.0</ele><time>2026-04-01T08:22:43Z</time></trkpt><trkpt lat="39.058166504082315" lon="8.568552588120811"><ele>11.333333333333332</ele><time>2026-04-01T08:22:44Z</time></trkpt><trkpt lat="39.05813694179295" lon="8.568807454646052"><ele>11.666666666666666</ele><time>2026-04-01T08:22:45Z</time></trkpt><trkpt lat="39.05811053455673" lon="8.56906494945697"><ele>12.0</ele><time>2026-04-01T08:22:46Z</time></trkpt><trkpt lat="39.05808507832359" lon="8.569316398558852"><ele>12.333333333333332</ele><time>2026-04-01T08:22:47Z</time></trkpt><trkpt lat="39.0580584966312" lon="8.5695638019414"><ele>12.666666666666666</ele><time>2026-04-01T08:22:48Z</time></trkpt><trkpt lat="39.0580322017707" lon="8.569809727382493"><ele>13.0</ele><time>2026-04-01T08:22:49Z</time></trkpt><trkpt lat="39.0580070804054" lon="8.57005384499258"><ele>13.0</ele><time>2026-04-01T08:22:50Z</time></trkpt><trkpt lat="39.057981698112926" lon="8.57029699350021"><ele>13.0</ele><time>2026-04-01T08:22:51Z</time></trkpt><trkpt lat="39.05795743364545" lon="8.570538089706108"><ele>13.0</ele><time>2026-04-01T08:22:52Z</time></trkpt><trkpt lat="39.057933863351835" lon="8.57078765539443"><ele>13.666666666666666</ele><time>2026-04-01T08:22:53Z</time></trkpt><trkpt lat="39.05791050991928" lon="8.571040398455567"><ele>14.333333333333332</ele><time>2026-04-01T08:22:54Z</time></trkpt><trkpt lat="39.05788966851563" lon="8.57128548018664"><ele>15.0</ele><time>2026-04-01T08:22:55Z</time></trkpt><trkpt lat="39.05787198949613" lon="8.57152886630576"><ele>15.666666666666668</ele><time>2026-04-01T08:22:56Z</time></trkpt><trkpt lat="39.0578623100573" lon="8.57176826855761"><ele>16.333333333333336</ele><time>2026-04-01T08:22:57Z</time></trkpt><trkpt lat="39.05785612775837" lon="8.572007326123147"><ele>17.0</ele><time>2026-04-01T08:22:58Z</time></trkpt><trkpt lat="39.057856446449485" lon="8.57224385929598"><ele>17.666666666666668</ele><time>2026-04-01T08:22:59Z</time></trkpt><trkpt lat="39.05786054328239" lon="8.572474731745862"><ele>18.333333333333332</ele><time>2026-04-01T08:23:00Z</time></trkpt><trkpt lat="39.05787520330462" lon="8.5727048951783"><ele>19.0</ele><time>2026-04-01T08:23:01Z</time></trkpt><trkpt lat="39.05789033339543" lon="8.572933077255051"><ele>20.0</ele><time>2026-04-01T08:23:02Z</time></trkpt><trkpt lat="39.05790651399645" lon="8.573155254976074"><ele>21.0</ele><time>2026-04-01T08:23:03Z</time></trkpt><trkpt lat="39.0579185734448" lon="8.573375641881325"><ele>22.0</ele><time>2026-04-01T08:23:04Z</time></trkpt><trkpt lat="39.0579381471347" lon="8.573595150156056"><ele>22.666666666666664</ele><time>2026-04-01T08:23:05Z</time></trkpt><trkpt lat="39.05796239004448" lon="8.573816202523057"><ele>23.333333333333332</ele><time>2026-04-01T08:23:06Z</time></trkpt><trkpt lat="39.05799387791693" lon="8.574038334404081"><ele>24.0</ele><time>2026-04-01T08:23:07Z</time></trkpt><trkpt lat="39.05803815762589" lon="8.574257609241767"><ele>24.0</ele><time>2026-04-01T08:23:08Z</time></trkpt><trkpt lat="39.05808703676973" lon="8.574477030462637"><ele>24.0</ele><time>2026-04-01T08:23:09Z</time></trkpt><trkpt lat="39.05813312209689" lon="8.57469493039315"><ele>24.0</ele><time>2026-04-01T08:23:10Z</time></trkpt><trkpt lat="39.058184236145976" lon="8.574908115607142"><ele>24.0</ele><time>2026-04-01T08:23:11Z</time></trkpt><trkpt lat="39.05823319383975" lon="8.57512186114585"><ele>24.0</ele><time>2026-04-01T08:23:12Z</time></trkpt><trkpt lat="39.05827965774418" lon="8.575320800138083"><ele>24.0</ele><time>2026-04-01T08:23:13Z</time></trkpt><trkpt lat="39.05832627721834" lon="8.57551404702949"><ele>24.0</ele><time>2026-04-01T08:23:14Z</time></trkpt><trkpt lat="39.05838063790389" lon="8.575694316444421"><ele>24.0</ele><time>2026-04-01T08:23:15Z</time></trkpt><trkpt lat="39.05843003378263" lon="8.575877475813773"><ele>24.0</ele><time>2026-04-01T08:23:16Z</time></trkpt><trkpt lat="39.058469312689006" lon="8.576060741393237"><ele>24.0</ele><time>2026-04-01T08:23:17Z</time></trkpt><trkpt lat="39.05851484229863" lon="8.57625112452774"><ele>24.0</ele><time>2026-04-01T08:23:18Z</time></trkpt><trkpt lat="39.05856829869177" lon="8.576449586510996"><ele>24.0</ele><time>2026-04-01T08:23:19Z</time></trkpt><trkpt lat="39.058605365665656" lon="8.57664771970266"><ele>24.0</ele><time>2026-04-01T08:23:20Z</time></trkpt><trkpt lat="39.058650266860596" lon="8.576837145366"><ele>24.0</ele><time>2026-04-01T08:23:21Z</time></trkpt><trkpt lat="39.05869239913915" lon="8.577017365920707"><ele>24.0</ele><time>2026-04-01T08:23:22Z</time></trkpt><trkpt lat="39.05873123723709" lon="8.577190124844636"><ele>24.0</ele><time>2026-04-01T08:23:23Z</time></trkpt><trkpt lat="39.05876427265271" lon="8.577347079987678"><ele>24.0</ele><time>2026-04-01T08:23:24Z</time></trkpt><trkpt lat="39.058775861273084" lon="8.577488228321213"><ele>23.75</ele><time>2026-04-01T08:23:25Z</time></trkpt><trkpt lat="39.05873157326352" lon="8.577622446810357"><ele>23.5</ele><time>2026-04-01T08:23:26Z</time></trkpt><trkpt lat="39.05864917397911" lon="8.577745936942337"><ele>23.25</ele><time>2026-04-01T08:23:27Z</time></trkpt><trkpt lat="39.05856128165613" lon="8.577864146471184"><ele>23.0</ele><time>2026-04-01T08:23:28Z</time></trkpt><trkpt lat="39.058486415325355" lon="8.57798365398473"><ele>22.5</ele><time>2026-04-01T08:23:29Z</time></trkpt><trkpt lat="39.05841352324863" lon="8.578110421927956"><ele>22.0</ele><time>2026-04-01T08:23:30Z</time></trkpt><trkpt lat="39.05833273164958" lon="8.57824980935578"><ele>21.5</ele><time>2026-04-01T08:23:31Z</time></trkpt><trkpt lat="39.05825080016275" lon="8.578400347500333"><ele>21.0</ele><time>2026-04-01T08:23:32Z</time></trkpt><trkpt lat="39.05815994247137" lon="8.578557084986217"><ele>18.333333333333332</ele><time>2026-04-01T08:23:33Z</time></trkpt><trkpt lat="39.058055685083524" lon="8.578707093426397"><ele>15.666666666666666</ele><time>2026-04-01T08:23:34Z</time></trkpt><trkpt lat="39.05794802407565" lon="8.578862525912566"><ele>13.0</ele><time>2026-04-01T08:23:35Z</time></trkpt><trkpt lat="39.05782047886988" lon="8.579007889125927"><ele>13.0</ele><time>2026-04-01T08:23:36Z</time></trkpt><trkpt lat="39.05770286283096" lon="8.579177707397871"><ele>13.0</ele><time>2026-04-01T08:23:37Z</time></trkpt><trkpt lat="39.05759017723382" lon="8.57937896310213"><ele>13.0</ele><time>2026-04-01T08:23:38Z</time></trkpt><trkpt lat="39.05748393066235" lon="8.579582357365336"><ele>11.666666666666666</ele><time>2026-04-01T08:23:39Z</time></trkpt><trkpt lat="39.057379761293646" lon="8.5797792327005"><ele>10.333333333333332</ele><time>2026-04-01T08:23:40Z</time></trkpt><trkpt lat="39.05727869327397" lon="8.57996874781075"><ele>9.0</ele><time>2026-04-01T08:23:41Z</time></trkpt><trkpt lat="39.057192458292675" lon="8.580159772363322"><ele>9.0</ele><time>2026-04-01T08:23:42Z</time></trkpt><trkpt lat="39.057088503747195" lon="8.580324312621453"><ele>9.0</ele><time>2026-04-01T08:23:43Z</time></trkpt><trkpt lat="39.05697205612592" lon="8.580466330608193"><ele>9.0</ele><time>2026-04-01T08:23:44Z</time></trkpt><trkpt lat="39.0568352755019" lon="8.580589867471183"><ele>9.0</ele><time>2026-04-01T08:23:45Z</time></trkpt><trkpt lat="39.056686567533525" lon="8.580699732221055"><ele>9.0</ele><time>2026-04-01T08:23:46Z</time></trkpt><trkpt lat="39.0565378686695" lon="8.58081743160935"><ele>9.0</ele><time>2026-04-01T08:23:47Z</time></trkpt><trkpt lat="39.056385502501776" lon="8.580940559291248"><ele>9.0</ele><time>2026-04-01T08:23:48Z</time></trkpt><trkpt lat="39.0562292786681" lon="8.581066249134638"><ele>9.0</ele><time>2026-04-01T08:23:49Z</time></trkpt><trkpt lat="39.05607782586006" lon="8.581201752627152"><ele>9.0</ele><time>2026-04-01T08:23:50Z</time></trkpt><trkpt lat="39.055911845846055" lon="8.581333470842429"><ele>8.666666666666666</ele><time>2026-04-01T08:23:51Z</time></trkpt><trkpt lat="39.05574127076042" lon="8.58147557865395"><ele>8.333333333333332</ele><time>2026-04-01T08:23:52Z</time></trkpt><trkpt lat="39.05556878207696" lon="8.581612958100557"><ele>8.0</ele><time>2026-04-01T08:23:53Z</time></trkpt><trkpt lat="39.05540305328696" lon="8.581747727553848"><ele>8.0</ele><time>2026-04-01T08:23:54Z</time></trkpt><trkpt lat="39.05523749503436" lon="8.581886889988601"><ele>8.0</ele><time>2026-04-01T08:23:55Z</time></trkpt><trkpt lat="39.05506732876736" lon="8.582024726591994"><ele>8.0</ele><time>2026-04-01T08:23:56Z</time></trkpt><trkpt lat="39.05489555804584" lon="8.582160924138"><ele>8.333333333333332</ele><time>2026-04-01T08:23:57Z</time></trkpt><trkpt lat="39.05472521515371" lon="8.582296361403001"><ele>8.666666666666666</ele><time>2026-04-01T08:23:58Z</time></trkpt><trkpt lat="39.054550597097155" lon="8.582434180906485"><ele>9.0</ele><time>2026-04-01T08:23:59Z</time></trkpt><trkpt lat="39.054380908571304" lon="8.582577541683007"><ele>9.0</ele><time>2026-04-01T08:24:00Z</time></trkpt><trkpt lat="39.05421117698374" lon="8.582728552088636"><ele>9.0</ele><time>2026-04-01T08:24:01Z</time></trkpt><trkpt lat="39.054043123675314" lon="8.582886968058327"><ele>9.0</ele><time>2026-04-01T08:24:02Z</time></trkpt><trkpt lat="39.05387530989625" lon="8.58304984025104"><ele>8.666666666666666</ele><time>2026-04-01T08:24:03Z</time></trkpt><trkpt lat="39.053707247321995" lon="8.583213414171555"><ele>8.333333333333332</ele><time>2026-04-01T08:24:04Z</time></trkpt><trkpt lat="39.053537503172976" lon="8.583377442732576"><ele>8.0</ele><time>2026-04-01T08:24:05Z</time></trkpt><trkpt lat="39.05336803621926" lon="8.583541244085948"><ele>7.666666666666666</ele><time>2026-04-01T08:24:06Z</time></trkpt><trkpt lat="39.05319642769543" lon="8.583700647488328"><ele>7.333333333333334</ele><time>2026-04-01T08:24:07Z</time></trkpt><trkpt lat="39.05302831880575" lon="8.58385979629909"><ele>7.0</ele><time>2026-04-01T08:24:08Z</time></trkpt><trkpt lat="39.05286192934487" lon="8.584020607308002"><ele>7.0</ele><time>2026-04-01T08:24:09Z</time></trkpt><trkpt lat="39.05269924927753" lon="8.584180868424426"><ele>7.0</ele><time>2026-04-01T08:24:10Z</time></trkpt><trkpt lat="39.05253496406605" lon="8.58434074771082"><ele>7.0</ele><time>2026-04-01T08:24:11Z</time></trkpt><trkpt lat="39.05237302669456" lon="8.584496220833236"><ele>7.333333333333334</ele><time>2026-04-01T08:24:12Z</time></trkpt><trkpt lat="39.05221506343718" lon="8.584649362612694"><ele>7.666666666666666</ele><time>2026-04-01T08:24:13Z</time></trkpt><trkpt lat="39.05205482822874" lon="8.584791334011491"><ele>8.0</ele><time>2026-04-01T08:24:14Z</time></trkpt><trkpt lat="39.05187461332986" lon="8.58490980420264"><ele>8.0</ele><time>2026-04-01T08:24:15Z</time></trkpt><trkpt lat="39.05169276769568" lon="8.584999357394901"><ele>8.0</ele><time>2026-04-01T08:24:16Z</time></trkpt><trkpt lat="39.051504314349515" lon="8.585090076967607"><ele>8.0</ele><time>2026-04-01T08:24:17Z</time></trkpt><trkpt lat="39.051319240431724" lon="8.585188071970835"><ele>8.0</ele><time>2026-04-01T08:24:18Z</time></trkpt><trkpt lat="39.051130196952776" lon="8.585283425061856"><ele>8.0</ele><time>2026-04-01T08:24:19Z</time></trkpt><trkpt lat="39.05093920932828" lon="8.585374527888629"><ele>8.0</ele><time>2026-04-01T08:24:20Z</time></trkpt><trkpt lat="39.050749198096355" lon="8.585466091547017"><ele>9.0</ele><time>2026-04-01T08:24:21Z</time></trkpt><trkpt lat="39.050560431997674" lon="8.585560938778634"><ele>10.0</ele><time>2026-04-01T08:24:22Z</time></trkpt><trkpt lat="39.05037604986693" lon="8.585675953343609"><ele>11.0</ele><time>2026-04-01T08:24:23Z</time></trkpt><trkpt lat="39.050199057807454" lon="8.585804809843722"><ele>11.0</ele><time>2026-04-01T08:24:24Z</time></trkpt><trkpt lat="39.05002085782508" lon="8.585938602274682"><ele>11.0</ele><time>2026-04-01T08:24:25Z</time></trkpt><trkpt lat="39.04983989373444" lon="8.58606912542735"><ele>11.0</ele><time>2026-04-01T08:24:26Z</time></trkpt><trkpt lat="39.04966156970365" lon="8.586199451352758"><ele>10.333333333333332</ele><time>2026-04-01T08:24:27Z</time></trkpt><trkpt lat="39.04948314655371" lon="8.586320966405923"><ele>9.666666666666666</ele><time>2026-04-01T08:24:28Z</time></trkpt><trkpt lat="39.049305817184724" lon="8.586450488216611"><ele>9.0</ele><time>2026-04-01T08:24:29Z</time></trkpt><trkpt lat="39.04912740311928" lon="8.586583283210846"><ele>8.666666666666666</ele><time>2026-04-01T08:24:30Z</time></trkpt><trkpt lat="39.04895108018086" lon="8.586718720740631"><ele>8.333333333333332</ele><time>2026-04-01T08:24:31Z</time></trkpt><trkpt lat="39.048774253319735" lon="8.586850559635566"><ele>8.0</ele><time>2026-04-01T08:24:32Z</time></trkpt><trkpt lat="39.04859747859291" lon="8.586982913959353"><ele>8.333333333333332</ele><time>2026-04-01T08:24:33Z</time></trkpt><trkpt lat="39.048420395518974" lon="8.587116032395457"><ele>8.666666666666666</ele><time>2026-04-01T08:24:34Z</time></trkpt><trkpt lat="39.04824344294111" lon="8.58724831760116"><ele>9.0</ele><time>2026-04-01T08:24:35Z</time></trkpt><trkpt lat="39.048066133985756" lon="8.587380106963662"><ele>9.333333333333334</ele><time>2026-04-01T08:24:36Z</time></trkpt><trkpt lat="39.04788625070891" lon="8.587514069126257"><ele>9.666666666666668</ele><time>2026-04-01T08:24:37Z</time></trkpt><trkpt lat="39.04770756566721" lon="8.587649961093527"><ele>10.0</ele><time>2026-04-01T08:24:38Z</time></trkpt><trkpt lat="39.04752634690831" lon="8.587783490502026"><ele>10.0</ele><time>2026-04-01T08:24:39Z</time></trkpt><trkpt lat="39.04734489261498" lon="8.587919496839605"><ele>10.0</ele><time>2026-04-01T08:24:40Z</time></trkpt><trkpt lat="39.047162378066986" lon="8.588057678071605"><ele>10.0</ele><time>2026-04-01T08:24:41Z</time></trkpt><trkpt lat="39.04698621426698" lon="8.588192906351948"><ele>10.0</ele><time>2026-04-01T08:24:42Z</time></trkpt><trkpt lat="39.046804985801266" lon="8.588325972391575"><ele>10.0</ele><time>2026-04-01T08:24:43Z</time></trkpt><trkpt lat="39.04662352653894" lon="8.588462157410127"><ele>10.0</ele><time>2026-04-01T08:24:44Z</time></trkpt><trkpt lat="39.04644637852438" lon="8.588604297824476"><ele>9.666666666666668</ele><time>2026-04-01T08:24:45Z</time></trkpt><trkpt lat="39.04628155134174" lon="8.58876595222481"><ele>9.333333333333334</ele><time>2026-04-01T08:24:46Z</time></trkpt><trkpt lat="39.04612608033111" lon="8.588946317425991"><ele>9.0</ele><time>2026-04-01T08:24:47Z</time></trkpt><trkpt lat="39.045967362542896" lon="8.589125624982596"><ele>9.0</ele><time>2026-04-01T08:24:48Z</time></trkpt><trkpt lat="39.04580894965335" lon="8.589294704148065"><ele>9.0</ele><time>2026-04-01T08:24:49Z</time></trkpt><trkpt lat="39.04565276993993" lon="8.589464250794435"><ele>9.0</ele><time>2026-04-01T08:24:50Z</time></trkpt><trkpt lat="39.045499678346765" lon="8.589635507499368"><ele>9.0</ele><time>2026-04-01T08:24:51Z</time></trkpt><trkpt lat="39.045342583939345" lon="8.589807365973783"><ele>9.0</ele><time>2026-04-01T08:24:52Z</time></trkpt><trkpt lat="39.04518838628184" lon="8.589979576606487"><ele>9.0</ele><time>2026-04-01T08:24:53Z</time></trkpt><trkpt lat="39.045031209636015" lon="8.590153040252455"><ele>8.666666666666666</ele><time>2026-04-01T08:24:54Z</time></trkpt><trkpt lat="39.04487406421099" lon="8.590326080239304"><ele>8.333333333333332</ele><time>2026-04-01T08:24:55Z</time></trkpt><trkpt lat="39.04471485044635" lon="8.590496944862192"><ele>8.0</ele><time>2026-04-01T08:24:56Z</time></trkpt><trkpt lat="39.04455861962893" lon="8.590668691344664"><ele>8.0</ele><time>2026-04-01T08:24:57Z</time></trkpt><trkpt lat="39.0444043242444" lon="8.590840804237187"><ele>8.0</ele><time>2026-04-01T08:24:58Z</time></trkpt><trkpt lat="39.04424623147283" lon="8.591011645827333"><ele>8.0</ele><time>2026-04-01T08:24:59Z</time></trkpt><trkpt lat="39.04408570393332" lon="8.591175702435327"><ele>8.0</ele><time>2026-04-01T08:25:00Z</time></trkpt><trkpt lat="39.04391635151739" lon="8.591331652831702"><ele>8.0</ele><time>2026-04-01T08:25:01Z</time></trkpt><trkpt lat="39.04373929585246" lon="8.591468462454579"><ele>8.0</ele><time>2026-04-01T08:25:02Z</time></trkpt><trkpt lat="39.0435572645517" lon="8.591581273152991"><ele>8.0</ele><time>2026-04-01T08:25:03Z</time></trkpt><trkpt lat="39.043370595440805" lon="8.591664721029336"><ele>8.0</ele><time>2026-04-01T08:25:04Z</time></trkpt><trkpt lat="39.04317668403381" lon="8.591726718140782"><ele>8.0</ele><time>2026-04-01T08:25:05Z</time></trkpt><trkpt lat="39.04297738402125" lon="8.591778489642897"><ele>7.666666666666666</ele><time>2026-04-01T08:25:06Z</time></trkpt><trkpt lat="39.04277899034133" lon="8.591836550302336"><ele>7.333333333333334</ele><time>2026-04-01T08:25:07Z</time></trkpt><trkpt lat="39.042580075298076" lon="8.591906078541516"><ele>7.0</ele><time>2026-04-01T08:25:08Z</time></trkpt><trkpt lat="39.04237750755772" lon="8.591969200483325"><ele>7.0</ele><time>2026-04-01T08:25:09Z</time></trkpt><trkpt lat="39.04217182007406" lon="8.592031343594307"><ele>7.0</ele><time>2026-04-01T08:25:10Z</time></trkpt><trkpt lat="39.04196627849903" lon="8.592100380105387"><ele>7.0</ele><time>2026-04-01T08:25:11Z</time></trkpt><trkpt lat="39.04176312119223" lon="8.592178829493328"><ele>6.666666666666667</ele><time>2026-04-01T08:25:12Z</time></trkpt><trkpt lat="39.04156610243205" lon="8.592275380301864"><ele>6.333333333333334</ele><time>2026-04-01T08:25:13Z</time></trkpt><trkpt lat="39.0413702554237" lon="8.592380177919418"><ele>6.0</ele><time>2026-04-01T08:25:14Z</time></trkpt><trkpt lat="39.041182842481916" lon="8.592501779535604"><ele>6.0</ele><time>2026-04-01T08:25:15Z</time></trkpt><trkpt lat="39.0409977456636" lon="8.592628708379708"><ele>6.0</ele><time>2026-04-01T08:25:16Z</time></trkpt><trkpt lat="39.04081501990656" lon="8.592755611224623"><ele>6.0</ele><time>2026-04-01T08:25:17Z</time></trkpt><trkpt lat="39.04062752582002" lon="8.592875027779634"><ele>6.0</ele><time>2026-04-01T08:25:18Z</time></trkpt><trkpt lat="39.04044403620659" lon="8.59299166554368"><ele>6.0</ele><time>2026-04-01T08:25:19Z</time></trkpt><trkpt lat="39.04026856661305" lon="8.593103987105065"><ele>6.0</ele><time>2026-04-01T08:25:20Z</time></trkpt><trkpt lat="39.040099494171116" lon="8.593211047651122"><ele>6.0</ele><time>2026-04-01T08:25:21Z</time></trkpt><trkpt lat="39.039928719501646" lon="8.593319907929073"><ele>6.0</ele><time>2026-04-01T08:25:22Z</time></trkpt><trkpt lat="39.0397545801807" lon="8.593425059375752"><ele>6.0</ele><time>2026-04-01T08:25:23Z</time></trkpt><trkpt lat="39.03957431621845" lon="8.59351018627939"><ele>6.0</ele><time>2026-04-01T08:25:24Z</time></trkpt><trkpt lat="39.03938680488902" lon="8.593584250244978"><ele>6.0</ele><time>2026-04-01T08:25:25Z</time></trkpt><trkpt lat="39.039193177324684" lon="8.593637727988764"><ele>6.0</ele><time>2026-04-01T08:25:26Z</time></trkpt><trkpt lat="39.03899112446223" lon="8.593664054472397"><ele>6.333333333333334</ele><time>2026-04-01T08:25:27Z</time></trkpt><trkpt lat="39.03878497124395" lon="8.593670063189832"><ele>6.666666666666667</ele><time>2026-04-01T08:25:28Z</time></trkpt><trkpt lat="39.038576633796" lon="8.593673785381718"><ele>7.0</ele><time>2026-04-01T08:25:29Z</time></trkpt><trkpt lat="39.03836803922155" lon="8.593682535550743"><ele>6.333333333333334</ele><time>2026-04-01T08:25:30Z</time></trkpt><trkpt lat="39.038161780830386" lon="8.593693373896528"><ele>5.666666666666667</ele><time>2026-04-01T08:25:31Z</time></trkpt><trkpt lat="39.03795558180649" lon="8.59370153987996"><ele>5.0</ele><time>2026-04-01T08:25:32Z</time></trkpt><trkpt lat="39.037747034330955" lon="8.593710244576931"><ele>5.0</ele><time>2026-04-01T08:25:33Z</time></trkpt><trkpt lat="39.03753688714048" lon="8.593722011471836"><ele>5.0</ele><time>2026-04-01T08:25:34Z</time></trkpt><trkpt lat="39.03733320025758" lon="8.593742032880801"><ele>5.0</ele><time>2026-04-01T08:25:35Z</time></trkpt><trkpt lat="39.03712564475108" lon="8.593762172081801"><ele>5.333333333333334</ele><time>2026-04-01T08:25:36Z</time></trkpt><trkpt lat="39.03691993023609" lon="8.593793206292819"><ele>5.666666666666667</ele><time>2026-04-01T08:25:37Z</time></trkpt><trkpt lat="39.0367183509469" lon="8.59384056398138"><ele>6.0</ele><time>2026-04-01T08:25:38Z</time></trkpt><trkpt lat="39.03651918254222" lon="8.593894906614546"><ele>6.666666666666666</ele><time>2026-04-01T08:25:39Z</time></trkpt><trkpt lat="39.03632899156917" lon="8.593951556462814"><ele>7.333333333333333</ele><time>2026-04-01T08:25:40Z</time></trkpt><trkpt lat="39.03614651688012" lon="8.59400145671545"><ele>8.0</ele><time>2026-04-01T08:25:41Z</time></trkpt><trkpt lat="39.03597235012591" lon="8.594046358401712"><ele>8.0</ele><time>2026-04-01T08:25:42Z</time></trkpt><trkpt lat="39.035804686728326" lon="8.594095649384517"><ele>8.0</ele><time>2026-04-01T08:25:43Z</time></trkpt><trkpt lat="39.035646305986276" lon="8.594144483379667"><ele>8.0</ele><time>2026-04-01T08:25:44Z</time></trkpt><trkpt lat="39.03549336360879" lon="8.59418422864102"><ele>8.0</ele><time>2026-04-01T08:25:45Z</time></trkpt><trkpt lat="39.03534482342623" lon="8.59421777137789"><ele>8.0</ele><time>2026-04-01T08:25:46Z</time></trkpt><trkpt lat="39.035203099008065" lon="8.594253512474937"><ele>8.0</ele><time>2026-04-01T08:25:47Z</time></trkpt><trkpt lat="39.03505295359427" lon="8.594303247206074"><ele>7.333333333333333</ele><time>2026-04-01T08:25:48Z</time></trkpt><trkpt lat="39.0349006531771" lon="8.594347507573199"><ele>6.666666666666666</ele><time>2026-04-01T08:25:49Z</time></trkpt><trkpt lat="39.03474737567706" lon="8.594390386856183"><ele>6.0</ele><time>2026-04-01T08:25:50Z</time></trkpt><trkpt lat="39.03459477244346" lon="8.59443704734987"><ele>6.0</ele><time>2026-04-01T08:25:51Z</time></trkpt><trkpt lat="39.03444820337643" lon="8.594483098405489"><ele>6.0</ele><time>2026-04-01T08:25:52Z</time></trkpt><trkpt lat="39.034301253049996" lon="8.594522337466127"><ele>6.0</ele><time>2026-04-01T08:25:53Z</time></trkpt><trkpt lat="39.03415183797085" lon="8.594558026593774"><ele>6.0</ele><time>2026-04-01T08:25:54Z</time></trkpt><trkpt lat="39.03400485455549" lon="8.594597476728302"><ele>6.0</ele><time>2026-04-01T08:25:55Z</time></trkpt><trkpt lat="39.03385886132879" lon="8.594636233057436"><ele>6.0</ele><time>2026-04-01T08:25:56Z</time></trkpt><trkpt lat="39.033715025378" lon="8.594679789702939"><ele>6.0</ele><time>2026-04-01T08:25:57Z</time></trkpt><trkpt lat="39.03357043465365" lon="8.594715035750875"><ele>6.0</ele><time>2026-04-01T08:25:58Z</time></trkpt><trkpt lat="39.03342410284064" lon="8.59475619932041"><ele>6.0</ele><time>2026-04-01T08:25:59Z</time></trkpt><trkpt lat="39.03327664133814" lon="8.594798096948526"><ele>6.0</ele><time>2026-04-01T08:26:00Z</time></trkpt><trkpt lat="39.03312308810062" lon="8.594835354588806"><ele>6.333333333333334</ele><time>2026-04-01T08:26:01Z</time></trkpt><trkpt lat="39.0329697824002" lon="8.594875600443459"><ele>6.666666666666667</ele><time>2026-04-01T08:26:02Z</time></trkpt><trkpt lat="39.032809172293966" lon="8.59490566416624"><ele>7.0</ele><time>2026-04-01T08:26:03Z</time></trkpt><trkpt lat="39.03265257799302" lon="8.594951916864886"><ele>7.0</ele><time>2026-04-01T08:26:04Z</time></trkpt><trkpt lat="39.03249591253146" lon="8.594992105231585"><ele>7.0</ele><time>2026-04-01T08:26:05Z</time></trkpt><trkpt lat="39.03232723283096" lon="8.595026706941962"><ele>7.0</ele><time>2026-04-01T08:26:06Z</time></trkpt><trkpt lat="39.03216125242545" lon="8.59506699708749"><ele>7.0</ele><time>2026-04-01T08:26:07Z</time></trkpt><trkpt lat="39.03199721303571" lon="8.59510924488134"><ele>7.0</ele><time>2026-04-01T08:26:08Z</time></trkpt><trkpt lat="39.03182193436239" lon="8.595144210268629"><ele>7.0</ele><time>2026-04-01T08:26:09Z</time></trkpt><trkpt lat="39.03165339942075" lon="8.595200586688039"><ele>6.5</ele><time>2026-04-01T08:26:10Z</time></trkpt><trkpt lat="39.03148847629917" lon="8.595253387687658"><ele>6.0</ele><time>2026-04-01T08:26:11Z</time></trkpt><trkpt lat="39.031154939662564" lon="8.595355504382526"><ele>6.0</ele><time>2026-04-01T08:26:13Z</time></trkpt><trkpt lat="39.03098149631612" lon="8.595406996421623"><ele>6.0</ele><time>2026-04-01T08:26:14Z</time></trkpt><trkpt lat="39.030813922042" lon="8.595466160043754"><ele>6.0</ele><time>2026-04-01T08:26:15Z</time></trkpt><trkpt lat="39.030641868297266" lon="8.595509098350433"><ele>6.333333333333334</ele><time>2026-04-01T08:26:16Z</time></trkpt><trkpt lat="39.030472015974254" lon="8.59556149362089"><ele>6.666666666666667</ele><time>2026-04-01T08:26:17Z</time></trkpt><trkpt lat="39.03030212628819" lon="8.595604203605312"><ele>7.0</ele><time>2026-04-01T08:26:18Z</time></trkpt><trkpt lat="39.03012902292654" lon="8.595657753722767"><ele>6.666666666666667</ele><time>2026-04-01T08:26:19Z</time></trkpt><trkpt lat="39.029952329965354" lon="8.595711705441754"><ele>6.333333333333334</ele><time>2026-04-01T08:26:20Z</time></trkpt><trkpt lat="39.02977540864817" lon="8.595763666267812"><ele>6.0</ele><time>2026-04-01T08:26:21Z</time></trkpt><trkpt lat="39.029596239992294" lon="8.595811636437414"><ele>6.0</ele><time>2026-04-01T08:26:22Z</time></trkpt><trkpt lat="39.02941686836527" lon="8.595865206004225"><ele>6.0</ele><time>2026-04-01T08:26:23Z</time></trkpt><trkpt lat="39.02923457645534" lon="8.595918660162779"><ele>6.0</ele><time>2026-04-01T08:26:24Z</time></trkpt><trkpt lat="39.02905242639201" lon="8.595977526657967"><ele>5.666666666666667</ele><time>2026-04-01T08:26:25Z</time></trkpt><trkpt lat="39.028869934866556" lon="8.596030757274647"><ele>5.333333333333334</ele><time>2026-04-01T08:26:26Z</time></trkpt><trkpt lat="39.02868232904954" lon="8.596077995018373"><ele>5.0</ele><time>2026-04-01T08:26:27Z</time></trkpt><trkpt lat="39.02849528614099" lon="8.596128691115565"><ele>5.666666666666667</ele><time>2026-04-01T08:26:28Z</time></trkpt><trkpt lat="39.028308441253564" lon="8.596180077326757"><ele>6.333333333333334</ele><time>2026-04-01T08:26:29Z</time></trkpt><trkpt lat="39.02812115616979" lon="8.596232933499468"><ele>7.0</ele><time>2026-04-01T08:26:30Z</time></trkpt><trkpt lat="39.027936665113536" lon="8.59628721662066"><ele>7.0</ele><time>2026-04-01T08:26:31Z</time></trkpt><trkpt lat="39.027749094611906" lon="8.596332743774282"><ele>7.0</ele><time>2026-04-01T08:26:32Z</time></trkpt><trkpt lat="39.02756233053519" lon="8.596383752322959"><ele>7.0</ele><time>2026-04-01T08:26:33Z</time></trkpt><trkpt lat="39.027379520735394" lon="8.596434556308342"><ele>6.666666666666667</ele><time>2026-04-01T08:26:34Z</time></trkpt><trkpt lat="39.02720106431439" lon="8.596487332789927"><ele>6.333333333333334</ele><time>2026-04-01T08:26:35Z</time></trkpt><trkpt lat="39.027022646085314" lon="8.596536137211173"><ele>6.0</ele><time>2026-04-01T08:26:36Z</time></trkpt><trkpt lat="39.02685303187911" lon="8.59658071602227"><ele>6.0</ele><time>2026-04-01T08:26:37Z</time></trkpt><trkpt lat="39.026690880858546" lon="8.596625462870408"><ele>6.0</ele><time>2026-04-01T08:26:38Z</time></trkpt><trkpt lat="39.02653750298261" lon="8.596668953059535"><ele>6.0</ele><time>2026-04-01T08:26:39Z</time></trkpt><trkpt lat="39.026392433469205" lon="8.596711882352915"><ele>6.0</ele><time>2026-04-01T08:26:40Z</time></trkpt><trkpt lat="39.02625557873215" lon="8.596750916190448"><ele>6.0</ele><time>2026-04-01T08:26:41Z</time></trkpt><trkpt lat="39.02611979782286" lon="8.596780192940518"><ele>6.0</ele><time>2026-04-01T08:26:42Z</time></trkpt><trkpt lat="39.02601455458156" lon="8.596768917079135"><ele>6.0</ele><time>2026-04-01T08:26:43Z</time></trkpt><trkpt lat="39.02592043082573" lon="8.596724550057319"><ele>6.0</ele><time>2026-04-01T08:26:44Z</time></trkpt><trkpt lat="39.025833819154016" lon="8.596715752823744"><ele>6.0</ele><time>2026-04-01T08:26:45Z</time></trkpt><trkpt lat="39.02574922640246" lon="8.596772230167456"><ele>6.0</ele><time>2026-04-01T08:26:46Z</time></trkpt><trkpt lat="39.02570167433307" lon="8.596887856158455"><ele>6.0</ele><time>2026-04-01T08:26:47Z</time></trkpt><trkpt lat="39.02558744042777" lon="8.596934929382842"><ele>6.0</ele><time>2026-04-01T08:26:48Z</time></trkpt><trkpt lat="39.02548365137694" lon="8.59696383364042"><ele>6.0</ele><time>2026-04-01T08:26:49Z</time></trkpt><trkpt lat="39.0253690738378" lon="8.596989734965268"><ele>6.0</ele><time>2026-04-01T08:26:50Z</time></trkpt><trkpt lat="39.025246651818584" lon="8.597028469641916"><ele>6.0</ele><time>2026-04-01T08:26:51Z</time></trkpt><trkpt lat="39.02511668547455" lon="8.597068005810327"><ele>6.0</ele><time>2026-04-01T08:26:52Z</time></trkpt><trkpt lat="39.02498207821383" lon="8.597106494230156"><ele>6.333333333333334</ele><time>2026-04-01T08:26:53Z</time></trkpt><trkpt lat="39.02483812496274" lon="8.59714479602339"><ele>6.666666666666667</ele><time>2026-04-01T08:26:54Z</time></trkpt><trkpt lat="39.02468835508945" lon="8.597173052432131"><ele>7.0</ele><time>2026-04-01T08:26:55Z</time></trkpt><trkpt lat="39.024528137980234" lon="8.597213018472075"><ele>7.0</ele><time>2026-04-01T08:26:56Z</time></trkpt><trkpt lat="39.02437590116086" lon="8.597250791640981"><ele>7.0</ele><time>2026-04-01T08:26:57Z</time></trkpt><trkpt lat="39.024220472505256" lon="8.59730007511392"><ele>7.0</ele><time>2026-04-01T08:26:58Z</time></trkpt><trkpt lat="39.024062364036226" lon="8.59734949293243"><ele>6.666666666666667</ele><time>2026-04-01T08:26:58.999Z</time></trkpt><trkpt lat="39.02390059236327" lon="8.597405885464186"><ele>6.333333333333334</ele><time>2026-04-01T08:26:59.999Z</time></trkpt><trkpt lat="39.02373673941292" lon="8.597463720765203"><ele>6.0</ele><time>2026-04-01T08:27:00.999Z</time></trkpt><trkpt lat="39.02357343516056" lon="8.597519573950594"><ele>6.0</ele><time>2026-04-01T08:27:01.999Z</time></trkpt><trkpt lat="39.02340110646315" lon="8.597577794474399"><ele>6.0</ele><time>2026-04-01T08:27:02.999Z</time></trkpt><trkpt lat="39.023226497615916" lon="8.597622030511351"><ele>6.0</ele><time>2026-04-01T08:27:03.999Z</time></trkpt><trkpt lat="39.0230490264435" lon="8.597673180678887"><ele>5.666666666666667</ele><time>2026-04-01T08:27:04.999Z</time></trkpt><trkpt lat="39.02287624030134" lon="8.597710975611509"><ele>5.333333333333334</ele><time>2026-04-01T08:27:05.999Z</time></trkpt><trkpt lat="39.0227042854483" lon="8.597763510610207"><ele>5.0</ele><time>2026-04-01T08:27:06.999Z</time></trkpt><trkpt lat="39.022531167719755" lon="8.59781872032658"><ele>5.0</ele><time>2026-04-01T08:27:07.999Z</time></trkpt><trkpt lat="39.02235048875392" lon="8.597866523681489"><ele>5.0</ele><time>2026-04-01T08:27:08.999Z</time></trkpt><trkpt lat="39.022162966586656" lon="8.597911143946815"><ele>5.0</ele><time>2026-04-01T08:27:09.999Z</time></trkpt><trkpt lat="39.02197855859542" lon="8.597959256916406"><ele>5.0</ele><time>2026-04-01T08:27:10.999Z</time></trkpt><trkpt lat="39.021793134523215" lon="8.598014332440657"><ele>5.0</ele><time>2026-04-01T08:27:11.999Z</time></trkpt><trkpt lat="39.021606510949425" lon="8.598066578004708"><ele>5.0</ele><time>2026-04-01T08:27:12.999Z</time></trkpt><trkpt lat="39.021418733201024" lon="8.59812015810901"><ele>5.0</ele><time>2026-04-01T08:27:13.999Z</time></trkpt><trkpt lat="39.02122687461036" lon="8.598178121582558"><ele>5.0</ele><time>2026-04-01T08:27:14.999Z</time></trkpt><trkpt lat="39.02103663272522" lon="8.598229832295637"><ele>5.0</ele><time>2026-04-01T08:27:15.999Z</time></trkpt><trkpt lat="39.020849609247605" lon="8.59828103347607"><ele>5.0</ele><time>2026-04-01T08:27:17Z</time></trkpt><trkpt lat="39.020665130431134" lon="8.598330870653534"><ele>5.0</ele><time>2026-04-01T08:27:18Z</time></trkpt><trkpt lat="39.020482375636995" lon="8.598381660348167"><ele>5.0</ele><time>2026-04-01T08:27:19Z</time></trkpt><trkpt lat="39.02030026405649" lon="8.598430298739297"><ele>5.0</ele><time>2026-04-01T08:27:20Z</time></trkpt><trkpt lat="39.02011340969723" lon="8.598483359343255"><ele>5.0</ele><time>2026-04-01T08:27:21Z</time></trkpt><trkpt lat="39.01992460745983" lon="8.598539594676723"><ele>5.0</ele><time>2026-04-01T08:27:22Z</time></trkpt><trkpt lat="39.019736844759535" lon="8.598592901125487"><ele>5.0</ele><time>2026-04-01T08:27:23Z</time></trkpt><trkpt lat="39.01954418113433" lon="8.598644289793077"><ele>5.0</ele><time>2026-04-01T08:27:24Z</time></trkpt><trkpt lat="39.019353410840296" lon="8.59869844644854"><ele>5.0</ele><time>2026-04-01T08:27:25Z</time></trkpt><trkpt lat="39.0191594305414" lon="8.598755019539485"><ele>4.666666666666667</ele><time>2026-04-01T08:27:26Z</time></trkpt><trkpt lat="39.018965734761174" lon="8.598809717185855"><ele>4.333333333333333</ele><time>2026-04-01T08:27:27Z</time></trkpt><trkpt lat="39.01877410239298" lon="8.598861575112515"><ele>4.0</ele><time>2026-04-01T08:27:28Z</time></trkpt><trkpt lat="39.01858424724076" lon="8.598916467105337"><ele>4.0</ele><time>2026-04-01T08:27:29Z</time></trkpt><trkpt lat="39.018395022929326" lon="8.598965262995499"><ele>4.0</ele><time>2026-04-01T08:27:30Z</time></trkpt><trkpt lat="39.01821331774085" lon="8.599009225520788"><ele>4.0</ele><time>2026-04-01T08:27:31Z</time></trkpt><trkpt lat="39.018040968729686" lon="8.59905516741066"><ele>4.0</ele><time>2026-04-01T08:27:32Z</time></trkpt><trkpt lat="39.017876619941745" lon="8.59910621461551"><ele>4.0</ele><time>2026-04-01T08:27:33Z</time></trkpt><trkpt lat="39.01772177190857" lon="8.599156136279209"><ele>4.0</ele><time>2026-04-01T08:27:34Z</time></trkpt><trkpt lat="39.01756720030418" lon="8.599199211261329"><ele>3.6666666666666665</ele><time>2026-04-01T08:27:35Z</time></trkpt><trkpt lat="39.017407526473946" lon="8.599241673751159"><ele>3.333333333333333</ele><time>2026-04-01T08:27:36Z</time></trkpt><trkpt lat="39.017247937201034" lon="8.599282833274756"><ele>3.0</ele><time>2026-04-01T08:27:37Z</time></trkpt><trkpt lat="39.01708980924888" lon="8.59932737439235"><ele>3.0</ele><time>2026-04-01T08:27:38Z</time></trkpt><trkpt lat="39.016936679877155" lon="8.599376953809044"><ele>3.0</ele><time>2026-04-01T08:27:39Z</time></trkpt><trkpt lat="39.016790984064045" lon="8.599431247802391"><ele>3.0</ele><time>2026-04-01T08:27:40Z</time></trkpt><trkpt lat="39.01664047773547" lon="8.599468789362653"><ele>3.333333333333333</ele><time>2026-04-01T08:27:41Z</time></trkpt><trkpt lat="39.016494932203706" lon="8.599503609554453"><ele>3.6666666666666665</ele><time>2026-04-01T08:27:42Z</time></trkpt><trkpt lat="39.016345579809" lon="8.599545019351323"><ele>4.0</ele><time>2026-04-01T08:27:43Z</time></trkpt><trkpt lat="39.01619255407582" lon="8.599585371128267"><ele>4.0</ele><time>2026-04-01T08:27:44Z</time></trkpt><trkpt lat="39.01603481171966" lon="8.599627371798535"><ele>4.0</ele><time>2026-04-01T08:27:45Z</time></trkpt><trkpt lat="39.01588120367611" lon="8.599673058013964"><ele>4.0</ele><time>2026-04-01T08:27:46Z</time></trkpt><trkpt lat="39.01572448963405" lon="8.599720961221252"><ele>3.6666666666666665</ele><time>2026-04-01T08:27:47Z</time></trkpt><trkpt lat="39.01556517208915" lon="8.599764724069777"><ele>3.333333333333333</ele><time>2026-04-01T08:27:48Z</time></trkpt><trkpt lat="39.01540228920654" lon="8.599811552541274"><ele>3.0</ele><time>2026-04-01T08:27:49Z</time></trkpt><trkpt lat="39.01523721024648" lon="8.599856882004582"><ele>3.0</ele><time>2026-04-01T08:27:50Z</time></trkpt><trkpt lat="39.01508217783544" lon="8.599906020016359"><ele>3.0</ele><time>2026-04-01T08:27:51Z</time></trkpt><trkpt lat="39.01493673602498" lon="8.599951150530751"><ele>3.0</ele><time>2026-04-01T08:27:52Z</time></trkpt><trkpt lat="39.01479367263194" lon="8.599992428236279"><ele>3.25</ele><time>2026-04-01T08:27:53Z</time></trkpt><trkpt lat="39.014657637477676" lon="8.600030595139781"><ele>3.5</ele><time>2026-04-01T08:27:54Z</time></trkpt><trkpt lat="39.01452925335996" lon="8.600069028557208"><ele>3.75</ele><time>2026-04-01T08:27:55Z</time></trkpt><trkpt lat="39.014406182863745" lon="8.600100785527388"><ele>4.0</ele><time>2026-04-01T08:27:56Z</time></trkpt><trkpt lat="39.014292868885654" lon="8.600133944330889"><ele>4.0</ele><time>2026-04-01T08:27:57Z</time></trkpt><trkpt lat="39.01418429577351" lon="8.600169803905962"><ele>4.0</ele><time>2026-04-01T08:27:58Z</time></trkpt><trkpt lat="39.01406768278284" lon="8.60020142726788"><ele>4.0</ele><time>2026-04-01T08:27:59Z</time></trkpt><trkpt lat="39.013966545592986" lon="8.600230530271713"><ele>4.0</ele><time>2026-04-01T08:28:00Z</time></trkpt><trkpt lat="39.013872489513325" lon="8.600259417461547"><ele>4.0</ele><time>2026-04-01T08:28:01Z</time></trkpt><trkpt lat="39.01378186254723" lon="8.600265528599287"><ele>4.0</ele><time>2026-04-01T08:28:02Z</time></trkpt><trkpt lat="39.013712268028115" lon="8.600285273785598"><ele>4.0</ele><time>2026-04-01T08:28:03Z</time></trkpt><trkpt lat="39.01364686729597" lon="8.600508864020476"><ele>4.0</ele><time>2026-04-01T08:28:05Z</time></trkpt><trkpt lat="39.01366336575106" lon="8.600613425325157"><ele>4.0</ele><time>2026-04-01T08:28:06Z</time></trkpt><trkpt lat="39.01369573183171" lon="8.600709071864776"><ele>4.0</ele><time>2026-04-01T08:28:07Z</time></trkpt><trkpt lat="39.01370815952359" lon="8.600827786211838"><ele>4.0</ele><time>2026-04-01T08:28:08Z</time></trkpt><trkpt lat="39.01371748032471" lon="8.60095392259871"><ele>4.0</ele><time>2026-04-01T08:28:09Z</time></trkpt><trkpt lat="39.01375667726496" lon="8.601082231909093"><ele>4.0</ele><time>2026-04-01T08:28:10Z</time></trkpt><trkpt lat="39.0137810215411" lon="8.601239443694844"><ele>4.0</ele><time>2026-04-01T08:28:11Z</time></trkpt><trkpt lat="39.01380448332976" lon="8.601408376181864"><ele>4.0</ele><time>2026-04-01T08:28:12Z</time></trkpt><trkpt lat="39.01383103444715" lon="8.60157914866619"><ele>4.0</ele><time>2026-04-01T08:28:13Z</time></trkpt><trkpt lat="39.01385796445312" lon="8.601769874089317"><ele>4.0</ele><time>2026-04-01T08:28:14Z</time></trkpt><trkpt lat="39.01388578896619" lon="8.601973046931445"><ele>4.0</ele><time>2026-04-01T08:28:15Z</time></trkpt><trkpt lat="39.01392692366076" lon="8.602162485590663"><ele>3.6666666666666665</ele><time>2026-04-01T08:28:16Z</time></trkpt><trkpt lat="39.0139665912382" lon="8.602351693982726"><ele>3.333333333333333</ele><time>2026-04-01T08:28:17Z</time></trkpt><trkpt lat="39.01400275154669" lon="8.602557189631195"><ele>3.0</ele><time>2026-04-01T08:28:18Z</time></trkpt><trkpt lat="39.014040197360984" lon="8.602770969328414"><ele>3.333333333333333</ele><time>2026-04-01T08:28:19Z</time></trkpt><trkpt lat="39.01407941388806" lon="8.60298413916985"><ele>3.6666666666666665</ele><time>2026-04-01T08:28:20Z</time></trkpt><trkpt lat="39.014118408906036" lon="8.603199958016903"><ele>4.0</ele><time>2026-04-01T08:28:21Z</time></trkpt><trkpt lat="39.014155876349896" lon="8.60341926105444"><ele>4.666666666666666</ele><time>2026-04-01T08:28:22Z</time></trkpt><trkpt lat="39.01419404210657" lon="8.603642704577128"><ele>5.333333333333333</ele><time>2026-04-01T08:28:23Z</time></trkpt><trkpt lat="39.014232798634595" lon="8.603864249657953"><ele>6.0</ele><time>2026-04-01T08:28:24Z</time></trkpt><trkpt lat="39.01426894185874" lon="8.604084014841366"><ele>6.0</ele><time>2026-04-01T08:28:25Z</time></trkpt><trkpt lat="39.01430800099108" lon="8.604301474372543"><ele>6.0</ele><time>2026-04-01T08:28:26Z</time></trkpt><trkpt lat="39.01434068083942" lon="8.604522663806483"><ele>6.0</ele><time>2026-04-01T08:28:27Z</time></trkpt><trkpt lat="39.01437852457342" lon="8.60473735485797"><ele>6.0</ele><time>2026-04-01T08:28:28Z</time></trkpt><trkpt lat="39.0144211350893" lon="8.604951466327401"><ele>6.0</ele><time>2026-04-01T08:28:29Z</time></trkpt><trkpt lat="39.01445675839023" lon="8.605150890545495"><ele>6.0</ele><time>2026-04-01T08:28:30Z</time></trkpt><trkpt lat="39.01449139873961" lon="8.605334921610737"><ele>6.0</ele><time>2026-04-01T08:28:31Z</time></trkpt><trkpt lat="39.01452463376733" lon="8.605514791464904"><ele>6.0</ele><time>2026-04-01T08:28:32Z</time></trkpt><trkpt lat="39.01455523781733" lon="8.605702066048327"><ele>6.0</ele><time>2026-04-01T08:28:33Z</time></trkpt><trkpt lat="39.01458465389971" lon="8.605886649184745"><ele>6.0</ele><time>2026-04-01T08:28:34Z</time></trkpt><trkpt lat="39.014612803995384" lon="8.606070710684243"><ele>6.25</ele><time>2026-04-01T08:28:35Z</time></trkpt><trkpt lat="39.01463826261885" lon="8.606236104596746"><ele>6.5</ele><time>2026-04-01T08:28:36Z</time></trkpt><trkpt lat="39.014670161569875" lon="8.606405590755413"><ele>6.75</ele><time>2026-04-01T08:28:37Z</time></trkpt><trkpt lat="39.01469859157227" lon="8.60657729246291"><ele>7.0</ele><time>2026-04-01T08:28:38Z</time></trkpt><trkpt lat="39.01472970471093" lon="8.606748149234738"><ele>7.0</ele><time>2026-04-01T08:28:39Z</time></trkpt><trkpt lat="39.01475969892456" lon="8.606912053876343"><ele>7.0</ele><time>2026-04-01T08:28:40Z</time></trkpt><trkpt lat="39.014791395289215" lon="8.607087149242993"><ele>7.0</ele><time>2026-04-01T08:28:41Z</time></trkpt><trkpt lat="39.014821762310085" lon="8.607265382155887"><ele>7.0</ele><time>2026-04-01T08:28:42Z</time></trkpt><trkpt lat="39.01484996348446" lon="8.607443242747664"><ele>7.0</ele><time>2026-04-01T08:28:43Z</time></trkpt><trkpt lat="39.01488011037" lon="8.60762457201278"><ele>7.0</ele><time>2026-04-01T08:28:44Z</time></trkpt><trkpt lat="39.01491241525513" lon="8.607810595293149"><ele>7.0</ele><time>2026-04-01T08:28:45Z</time></trkpt><trkpt lat="39.01494347556148" lon="8.608000649940836"><ele>7.0</ele><time>2026-04-01T08:28:46Z</time></trkpt><trkpt lat="39.014973861535964" lon="8.608194354384064"><ele>7.666666666666667</ele><time>2026-04-01T08:28:47Z</time></trkpt><trkpt lat="39.0150078948952" lon="8.608394173705152"><ele>8.333333333333334</ele><time>2026-04-01T08:28:48Z</time></trkpt><trkpt lat="39.015039190718895" lon="8.60859585561505"><ele>9.0</ele><time>2026-04-01T08:28:49Z</time></trkpt><trkpt lat="39.01507848251166" lon="8.608799647053718"><ele>9.666666666666666</ele><time>2026-04-01T08:28:50Z</time></trkpt><trkpt lat="39.0151157534981" lon="8.609008577403888"><ele>10.333333333333332</ele><time>2026-04-01T08:28:51Z</time></trkpt><trkpt lat="39.01515258160177" lon="8.60922270124711"><ele>11.0</ele><time>2026-04-01T08:28:52Z</time></trkpt><trkpt lat="39.01519173457651" lon="8.609437297443481"><ele>11.0</ele><time>2026-04-01T08:28:53Z</time></trkpt><trkpt lat="39.01523028482124" lon="8.609657175480354"><ele>11.0</ele><time>2026-04-01T08:28:54Z</time></trkpt><trkpt lat="39.015265236174244" lon="8.609875225137005"><ele>11.0</ele><time>2026-04-01T08:28:55Z</time></trkpt><trkpt lat="39.01530021376312" lon="8.610090683202323"><ele>11.0</ele><time>2026-04-01T08:28:56Z</time></trkpt><trkpt lat="39.01533810595474" lon="8.610314725923011"><ele>11.0</ele><time>2026-04-01T08:28:57Z</time></trkpt><trkpt lat="39.015379011330744" lon="8.610536900136974"><ele>11.0</ele><time>2026-04-01T08:28:58Z</time></trkpt><trkpt lat="39.01542349729004" lon="8.610763375318085"><ele>11.333333333333332</ele><time>2026-04-01T08:28:59Z</time></trkpt><trkpt lat="39.01546576141595" lon="8.610990533835402"><ele>11.666666666666666</ele><time>2026-04-01T08:29:00Z</time></trkpt><trkpt lat="39.01550365210273" lon="8.611219461635566"><ele>12.0</ele><time>2026-04-01T08:29:01Z</time></trkpt><trkpt lat="39.01553359308619" lon="8.611449673750474"><ele>12.0</ele><time>2026-04-01T08:29:02Z</time></trkpt><trkpt lat="39.01557585301611" lon="8.61167800515635"><ele>12.0</ele><time>2026-04-01T08:29:03Z</time></trkpt><trkpt lat="39.01562347588056" lon="8.611911150834016"><ele>12.0</ele><time>2026-04-01T08:29:04Z</time></trkpt><trkpt lat="39.0156618148191" lon="8.612138816978435"><ele>12.333333333333332</ele><time>2026-04-01T08:29:05Z</time></trkpt><trkpt lat="39.01569570508487" lon="8.612360079829037"><ele>12.666666666666666</ele><time>2026-04-01T08:29:06Z</time></trkpt><trkpt lat="39.015733936290076" lon="8.612583719084192"><ele>13.0</ele><time>2026-04-01T08:29:07Z</time></trkpt><trkpt lat="39.01577874918488" lon="8.612806639290277"><ele>13.666666666666666</ele><time>2026-04-01T08:29:08Z</time></trkpt><trkpt lat="39.015818661238015" lon="8.61302940034824"><ele>14.333333333333332</ele><time>2026-04-01T08:29:09Z</time></trkpt><trkpt lat="39.015851438815446" lon="8.61325539420407"><ele>15.0</ele><time>2026-04-01T08:29:10Z</time></trkpt><trkpt lat="39.01588711035608" lon="8.613480492049137"><ele>15.666666666666668</ele><time>2026-04-01T08:29:11Z</time></trkpt><trkpt lat="39.01592900576956" lon="8.613704169402613"><ele>16.333333333333336</ele><time>2026-04-01T08:29:12Z</time></trkpt><trkpt lat="39.01596850814991" lon="8.613930437365289"><ele>17.0</ele><time>2026-04-01T08:29:13Z</time></trkpt><trkpt lat="39.016006010642734" lon="8.614153756064068"><ele>17.0</ele><time>2026-04-01T08:29:14Z</time></trkpt><trkpt lat="39.01604228528983" lon="8.614377955280057"><ele>17.0</ele><time>2026-04-01T08:29:15Z</time></trkpt><trkpt lat="39.01607908726807" lon="8.614601913164144"><ele>17.0</ele><time>2026-04-01T08:29:16Z</time></trkpt><trkpt lat="39.01611736723525" lon="8.61482254606138"><ele>17.333333333333336</ele><time>2026-04-01T08:29:17Z</time></trkpt><trkpt lat="39.016154802569595" lon="8.61504545047736"><ele>17.666666666666668</ele><time>2026-04-01T08:29:18Z</time></trkpt><trkpt lat="39.01619176704982" lon="8.615267821467741"><ele>18.0</ele><time>2026-04-01T08:29:19Z</time></trkpt><trkpt lat="39.01622992010221" lon="8.615491595250916"><ele>18.333333333333332</ele><time>2026-04-01T08:29:20Z</time></trkpt><trkpt lat="39.01626850220257" lon="8.615716492400312"><ele>18.666666666666664</ele><time>2026-04-01T08:29:21Z</time></trkpt><trkpt lat="39.01630821718297" lon="8.615939154965934"><ele>19.0</ele><time>2026-04-01T08:29:22Z</time></trkpt><trkpt lat="39.016351818106614" lon="8.616163105357384"><ele>19.666666666666664</ele><time>2026-04-01T08:29:23Z</time></trkpt><trkpt lat="39.01639460429229" lon="8.616387956011948"><ele>20.333333333333332</ele><time>2026-04-01T08:29:24Z</time></trkpt><trkpt lat="39.0164333388886" lon="8.61661183270961"><ele>21.0</ele><time>2026-04-01T08:29:25Z</time></trkpt><trkpt lat="39.01646794199987" lon="8.616835807258227"><ele>22.0</ele><time>2026-04-01T08:29:26Z</time></trkpt><trkpt lat="39.0165057099565" lon="8.617059136938375"><ele>23.0</ele><time>2026-04-01T08:29:27Z</time></trkpt><trkpt lat="39.016551858886594" lon="8.617282174711743"><ele>24.0</ele><time>2026-04-01T08:29:28Z</time></trkpt><trkpt lat="39.016618347215264" lon="8.617494466452829"><ele>24.0</ele><time>2026-04-01T08:29:29Z</time></trkpt><trkpt lat="39.01671546584409" lon="8.617694560655593"><ele>24.0</ele><time>2026-04-01T08:29:30Z</time></trkpt><trkpt lat="39.016829688272864" lon="8.617883063160564"><ele>24.0</ele><time>2026-04-01T08:29:31Z</time></trkpt><trkpt lat="39.01694650022212" lon="8.618060359690858"><ele>25.0</ele><time>2026-04-01T08:29:32Z</time></trkpt><trkpt lat="39.017040470862625" lon="8.618239043913986"><ele>26.0</ele><time>2026-04-01T08:29:33Z</time></trkpt><trkpt lat="39.0171311288548" lon="8.618425592451398"><ele>27.0</ele><time>2026-04-01T08:29:34Z</time></trkpt><trkpt lat="39.01722323572514" lon="8.618617637379428"><ele>27.666666666666664</ele><time>2026-04-01T08:29:35Z</time></trkpt><trkpt lat="39.01731369397588" lon="8.618815767505883"><ele>28.333333333333332</ele><time>2026-04-01T08:29:36Z</time></trkpt><trkpt lat="39.01738689958411" lon="8.619023610341396"><ele>29.0</ele><time>2026-04-01T08:29:37Z</time></trkpt><trkpt lat="39.01743583849556" lon="8.619239766465848"><ele>29.0</ele><time>2026-04-01T08:29:38Z</time></trkpt><trkpt lat="39.01747229597295" lon="8.619458553940062"><ele>29.0</ele><time>2026-04-01T08:29:39Z</time></trkpt><trkpt lat="39.01750965762626" lon="8.619687358898881"><ele>29.0</ele><time>2026-04-01T08:29:40Z</time></trkpt><trkpt lat="39.017555999239605" lon="8.61991403224794"><ele>30.333333333333332</ele><time>2026-04-01T08:29:41Z</time></trkpt><trkpt lat="39.01760502231872" lon="8.620141652812862"><ele>31.666666666666664</ele><time>2026-04-01T08:29:42Z</time></trkpt><trkpt lat="39.01764689488698" lon="8.620364193932447"><ele>33.0</ele><time>2026-04-01T08:29:43Z</time></trkpt><trkpt lat="39.0176961311938" lon="8.620588029854575"><ele>33.666666666666664</ele><time>2026-04-01T08:29:44Z</time></trkpt><trkpt lat="39.01773947267519" lon="8.620813407662377"><ele>34.33333333333333</ele><time>2026-04-01T08:29:45Z</time></trkpt><trkpt lat="39.01778523349294" lon="8.621039852027499"><ele>35.0</ele><time>2026-04-01T08:29:46Z</time></trkpt><trkpt lat="39.017830270806755" lon="8.621267721591964"><ele>35.33333333333333</ele><time>2026-04-01T08:29:47Z</time></trkpt><trkpt lat="39.01787703455505" lon="8.621497253135358"><ele>35.666666666666664</ele><time>2026-04-01T08:29:48Z</time></trkpt><trkpt lat="39.017928105500744" lon="8.62172490677438"><ele>36.0</ele><time>2026-04-01T08:29:49Z</time></trkpt><trkpt lat="39.017974666143054" lon="8.621954907267236"><ele>36.0</ele><time>2026-04-01T08:29:50Z</time></trkpt><trkpt lat="39.01802214268632" lon="8.622189490411502"><ele>36.0</ele><time>2026-04-01T08:29:51Z</time></trkpt><trkpt lat="39.018068605529535" lon="8.622424358860266"><ele>36.0</ele><time>2026-04-01T08:29:52Z</time></trkpt><trkpt lat="39.01811587911239" lon="8.622663176500403"><ele>36.333333333333336</ele><time>2026-04-01T08:29:53Z</time></trkpt><trkpt lat="39.018166572350296" lon="8.622901325587625"><ele>36.66666666666667</ele><time>2026-04-01T08:29:54Z</time></trkpt><trkpt lat="39.01821751605167" lon="8.623142401921557"><ele>37.0</ele><time>2026-04-01T08:29:55Z</time></trkpt><trkpt lat="39.01826669630758" lon="8.623383483197907"><ele>37.0</ele><time>2026-04-01T08:29:56Z</time></trkpt><trkpt lat="39.018315127954956" lon="8.623621344368797"><ele>37.0</ele><time>2026-04-01T08:29:57Z</time></trkpt><trkpt lat="39.018364680424014" lon="8.623861797380858"><ele>37.0</ele><time>2026-04-01T08:29:58Z</time></trkpt><trkpt lat="39.01841285000127" lon="8.6241050239292"><ele>38.333333333333336</ele><time>2026-04-01T08:29:59Z</time></trkpt><trkpt lat="39.01845947995623" lon="8.62434925667248"><ele>39.666666666666664</ele><time>2026-04-01T08:30:00Z</time></trkpt><trkpt lat="39.018504489218394" lon="8.624595516366043"><ele>41.0</ele><time>2026-04-01T08:30:01Z</time></trkpt><trkpt lat="39.01855392173461" lon="8.624843145789884"><ele>41.33333333333333</ele><time>2026-04-01T08:30:02Z</time></trkpt><trkpt lat="39.01860519624493" lon="8.62508870106541"><ele>41.666666666666664</ele><time>2026-04-01T08:30:03Z</time></trkpt><trkpt lat="39.01865713903638" lon="8.625330177434323"><ele>42.0</ele><time>2026-04-01T08:30:04Z</time></trkpt><trkpt lat="39.01870518373245" lon="8.625570090297623"><ele>42.333333333333336</ele><time>2026-04-01T08:30:05Z</time></trkpt><trkpt lat="39.018755079562034" lon="8.62580695058696"><ele>42.66666666666667</ele><time>2026-04-01T08:30:06Z</time></trkpt><trkpt lat="39.01880901031345" lon="8.626039298295138"><ele>43.0</ele><time>2026-04-01T08:30:07Z</time></trkpt><trkpt lat="39.01888085727872" lon="8.626267028840667"><ele>43.333333333333336</ele><time>2026-04-01T08:30:08Z</time></trkpt><trkpt lat="39.01896838740842" lon="8.626486005310563"><ele>43.666666666666664</ele><time>2026-04-01T08:30:09Z</time></trkpt><trkpt lat="39.01906636808477" lon="8.626699129923397"><ele>44.0</ele><time>2026-04-01T08:30:10Z</time></trkpt><trkpt lat="39.01915956567371" lon="8.626912680573938"><ele>45.0</ele><time>2026-04-01T08:30:11Z</time></trkpt><trkpt lat="39.019246924516715" lon="8.627123530680086"><ele>46.0</ele><time>2026-04-01T08:30:12Z</time></trkpt><trkpt lat="39.01933386395923" lon="8.627334557529565"><ele>47.0</ele><time>2026-04-01T08:30:13Z</time></trkpt><trkpt lat="39.01941965660174" lon="8.627547273643865"><ele>47.0</ele><time>2026-04-01T08:30:14Z</time></trkpt><trkpt lat="39.01949904194682" lon="8.627764788419741"><ele>47.0</ele><time>2026-04-01T08:30:15Z</time></trkpt><trkpt lat="39.01956416780902" lon="8.627992931044085"><ele>47.0</ele><time>2026-04-01T08:30:16Z</time></trkpt><trkpt lat="39.01962443533318" lon="8.62822107421713"><ele>47.666666666666664</ele><time>2026-04-01T08:30:17Z</time></trkpt><trkpt lat="39.019677692431095" lon="8.62846025020061"><ele>48.33333333333333</ele><time>2026-04-01T08:30:18Z</time></trkpt><trkpt lat="39.019736886579466" lon="8.628694933812751"><ele>49.0</ele><time>2026-04-01T08:30:19Z</time></trkpt><trkpt lat="39.0197962849795" lon="8.628928743274928"><ele>49.33333333333333</ele><time>2026-04-01T08:30:20Z</time></trkpt><trkpt lat="39.0198539673299" lon="8.629165394577464"><ele>49.66666666666667</ele><time>2026-04-01T08:30:21Z</time></trkpt><trkpt lat="39.019911074767684" lon="8.629391272743113"><ele>50.0</ele><time>2026-04-01T08:30:22Z</time></trkpt><trkpt lat="39.019960238443225" lon="8.629599285708537"><ele>51.0</ele><time>2026-04-01T08:30:23Z</time></trkpt><trkpt lat="39.01999478684382" lon="8.629796685204136"><ele>52.0</ele><time>2026-04-01T08:30:24Z</time></trkpt><trkpt lat="39.020011053584966" lon="8.630000354727645"><ele>53.0</ele><time>2026-04-01T08:30:25Z</time></trkpt><trkpt lat="39.01999280766296" lon="8.630203803728971"><ele>54.0</ele><time>2026-04-01T08:30:26Z</time></trkpt><trkpt lat="39.01992878024165" lon="8.63040289818761"><ele>55.0</ele><time>2026-04-01T08:30:27Z</time></trkpt><trkpt lat="39.01986664106086" lon="8.630604016354908"><ele>56.0</ele><time>2026-04-01T08:30:28Z</time></trkpt><trkpt lat="39.019813854328156" lon="8.630822630722584"><ele>56.0</ele><time>2026-04-01T08:30:29Z</time></trkpt><trkpt lat="39.01974066506452" lon="8.631023894943512"><ele>56.0</ele><time>2026-04-01T08:30:30Z</time></trkpt><trkpt lat="39.01966644493045" lon="8.631229749241003"><ele>56.0</ele><time>2026-04-01T08:30:31Z</time></trkpt><trkpt lat="39.01959655692447" lon="8.631446125440686"><ele>57.0</ele><time>2026-04-01T08:30:32Z</time></trkpt><trkpt lat="39.019531812842" lon="8.631663011741995"><ele>58.0</ele><time>2026-04-01T08:30:33Z</time></trkpt><trkpt lat="39.019464775447425" lon="8.631876188425931"><ele>59.0</ele><time>2026-04-01T08:30:34Z</time></trkpt><trkpt lat="39.01939552125325" lon="8.632092567674224"><ele>59.66666666666667</ele><time>2026-04-01T08:30:35.001Z</time></trkpt><trkpt lat="39.01932810313" lon="8.632311851520138"><ele>60.33333333333333</ele><time>2026-04-01T08:30:36.001Z</time></trkpt><trkpt lat="39.01926121610544" lon="8.632530228262887"><ele>61.0</ele><time>2026-04-01T08:30:37.001Z</time></trkpt><trkpt lat="39.01919202325663" lon="8.632751345426263"><ele>62.33333333333333</ele><time>2026-04-01T08:30:38.001Z</time></trkpt><trkpt lat="39.01911705540773" lon="8.632975183326682"><ele>63.66666666666667</ele><time>2026-04-01T08:30:39.001Z</time></trkpt><trkpt lat="39.01904361378583" lon="8.633204481151772"><ele>65.0</ele><time>2026-04-01T08:30:40.001Z</time></trkpt><trkpt lat="39.01898508262103" lon="8.63343106673475"><ele>65.0</ele><time>2026-04-01T08:30:41.001Z</time></trkpt><trkpt lat="39.018934060025686" lon="8.633663007819896"><ele>65.0</ele><time>2026-04-01T08:30:42.001Z</time></trkpt><trkpt lat="39.018928813431685" lon="8.63390115355599"><ele>65.0</ele><time>2026-04-01T08:30:43.001Z</time></trkpt><trkpt lat="39.01894934483188" lon="8.634140121529239"><ele>65.0</ele><time>2026-04-01T08:30:44.001Z</time></trkpt><trkpt lat="39.018982555738276" lon="8.63437351481863"><ele>65.0</ele><time>2026-04-01T08:30:45.001Z</time></trkpt><trkpt lat="39.01902130307821" lon="8.634600759073068"><ele>65.0</ele><time>2026-04-01T08:30:46.001Z</time></trkpt><trkpt lat="39.019061781705375" lon="8.63482805889044"><ele>65.66666666666667</ele><time>2026-04-01T08:30:47.001Z</time></trkpt><trkpt lat="39.019100928391055" lon="8.635056806215994"><ele>66.33333333333333</ele><time>2026-04-01T08:30:48.001Z</time></trkpt><trkpt lat="39.01913599343443" lon="8.635287618638143"><ele>67.0</ele><time>2026-04-01T08:30:49.001Z</time></trkpt><trkpt lat="39.0191715922181" lon="8.635519717534846"><ele>68.33333333333333</ele><time>2026-04-01T08:30:50.001Z</time></trkpt><trkpt lat="39.01920491410257" lon="8.635763575502924"><ele>69.66666666666667</ele><time>2026-04-01T08:30:51.001Z</time></trkpt><trkpt lat="39.01924071377152" lon="8.636020139623318"><ele>71.0</ele><time>2026-04-01T08:30:52.001Z</time></trkpt><trkpt lat="39.019276094342985" lon="8.636274981624325"><ele>72.0</ele><time>2026-04-01T08:30:53.001Z</time></trkpt><trkpt lat="39.019313783664536" lon="8.636513911963641"><ele>73.0</ele><time>2026-04-01T08:30:54.001Z</time></trkpt><trkpt lat="39.01934954927875" lon="8.636735777800924"><ele>74.0</ele><time>2026-04-01T08:30:55.001Z</time></trkpt><trkpt lat="39.019379555964214" lon="8.636941191990719"><ele>75.25</ele><time>2026-04-01T08:30:56.001Z</time></trkpt><trkpt lat="39.01940394117499" lon="8.63713806541034"><ele>76.5</ele><time>2026-04-01T08:30:57.001Z</time></trkpt><trkpt lat="39.0194333639906" lon="8.637315753785476"><ele>77.75</ele><time>2026-04-01T08:30:58.001Z</time></trkpt><trkpt lat="39.01946026800554" lon="8.637464231215413"><ele>79.0</ele><time>2026-04-01T08:30:59.001Z</time></trkpt><trkpt lat="39.019446333155614" lon="8.637602137563963"><ele>79.0</ele><time>2026-04-01T08:31:00.001Z</time></trkpt><trkpt lat="39.01940104851999" lon="8.637726426058803"><ele>79.0</ele><time>2026-04-01T08:31:01.001Z</time></trkpt><trkpt lat="39.01932185948618" lon="8.6378338980185"><ele>79.0</ele><time>2026-04-01T08:31:02.001Z</time></trkpt><trkpt lat="39.01921965942539" lon="8.637909438496225"><ele>79.0</ele><time>2026-04-01T08:31:03.001Z</time></trkpt><trkpt lat="39.01910923696093" lon="8.637953571985564"><ele>80.0</ele><time>2026-04-01T08:31:04.001Z</time></trkpt><trkpt lat="39.01899504217582" lon="8.637973184380643"><ele>81.0</ele><time>2026-04-01T08:31:05.001Z</time></trkpt><trkpt lat="39.01888226873875" lon="8.637998887566244"><ele>82.0</ele><time>2026-04-01T08:31:06.001Z</time></trkpt><trkpt lat="39.01876821782718" lon="8.638032768914817"><ele>83.0</ele><time>2026-04-01T08:31:07.001Z</time></trkpt><trkpt lat="39.018652351403844" lon="8.638066960706656"><ele>83.0</ele><time>2026-04-01T08:31:08.001Z</time></trkpt><trkpt lat="39.01853429861512" lon="8.638098571965385"><ele>83.0</ele><time>2026-04-01T08:31:09.001Z</time></trkpt><trkpt lat="39.01841758156775" lon="8.63813684434857"><ele>83.0</ele><time>2026-04-01T08:31:10.001Z</time></trkpt><trkpt lat="39.01829488752787" lon="8.638175182720522"><ele>83.0</ele><time>2026-04-01T08:31:11.001Z</time></trkpt><trkpt lat="39.01816436572325" lon="8.638201498375675"><ele>82.75</ele><time>2026-04-01T08:31:12.001Z</time></trkpt><trkpt lat="39.01803033620347" lon="8.63822879653853"><ele>82.5</ele><time>2026-04-01T08:31:13.001Z</time></trkpt><trkpt lat="39.017894674405234" lon="8.638266577361023"><ele>82.25</ele><time>2026-04-01T08:31:14.001Z</time></trkpt><trkpt lat="39.01775708230813" lon="8.638331688257539"><ele>82.0</ele><time>2026-04-01T08:31:15.001Z</time></trkpt><trkpt lat="39.01763463825078" lon="8.638407688333633"><ele>82.0</ele><time>2026-04-01T08:31:16.001Z</time></trkpt><trkpt lat="39.01751517109321" lon="8.638509587791832"><ele>82.0</ele><time>2026-04-01T08:31:17.001Z</time></trkpt><trkpt lat="39.01738183512188" lon="8.638592335298068"><ele>82.0</ele><time>2026-04-01T08:31:18.001Z</time></trkpt><trkpt lat="39.0172493135446" lon="8.638698361800811"><ele>82.0</ele><time>2026-04-01T08:31:19.001Z</time></trkpt><trkpt lat="39.017123361891564" lon="8.638813813164342"><ele>82.66666666666666</ele><time>2026-04-01T08:31:20.001Z</time></trkpt><trkpt lat="39.01698021410106" lon="8.638912045860188"><ele>83.33333333333333</ele><time>2026-04-01T08:31:21.001Z</time></trkpt><trkpt lat="39.01683298374159" lon="8.638991669554699"><ele>84.0</ele><time>2026-04-01T08:31:22.001Z</time></trkpt><trkpt lat="39.01667691981359" lon="8.639050271771543"><ele>84.0</ele><time>2026-04-01T08:31:23.001Z</time></trkpt><trkpt lat="39.01651758465914" lon="8.63905304133389"><ele>84.0</ele><time>2026-04-01T08:31:24Z</time></trkpt><trkpt lat="39.01634926317018" lon="8.639067544287391"><ele>84.0</ele><time>2026-04-01T08:31:25Z</time></trkpt><trkpt lat="39.016180263730334" lon="8.639081322143156"><ele>84.0</ele><time>2026-04-01T08:31:26Z</time></trkpt><trkpt lat="39.01601996279862" lon="8.639095978256499"><ele>84.0</ele><time>2026-04-01T08:31:27Z</time></trkpt><trkpt lat="39.015864161247436" lon="8.639127507769041"><ele>84.0</ele><time>2026-04-01T08:31:28Z</time></trkpt><trkpt lat="39.015714435660776" lon="8.639140277767229"><ele>84.5</ele><time>2026-04-01T08:31:29Z</time></trkpt><trkpt lat="39.01556990565962" lon="8.639153734232977"><ele>85.0</ele><time>2026-04-01T08:31:30Z</time></trkpt><trkpt lat="39.01542716021938" lon="8.639171653959158"><ele>85.5</ele><time>2026-04-01T08:31:31Z</time></trkpt><trkpt lat="39.015283463533564" lon="8.6391871757098"><ele>86.0</ele><time>2026-04-01T08:31:32Z</time></trkpt><trkpt lat="39.015130498562975" lon="8.639181694207984"><ele>85.75</ele><time>2026-04-01T08:31:33Z</time></trkpt><trkpt lat="39.01498633679991" lon="8.639202545960945"><ele>85.5</ele><time>2026-04-01T08:31:34Z</time></trkpt><trkpt lat="39.01484428332461" lon="8.639217145565404"><ele>85.25</ele><time>2026-04-01T08:31:35Z</time></trkpt><trkpt lat="39.01470379901348" lon="8.63923293093854"><ele>85.0</ele><time>2026-04-01T08:31:36Z</time></trkpt><trkpt lat="39.01456063320532" lon="8.639247458983066"><ele>85.0</ele><time>2026-04-01T08:31:37Z</time></trkpt><trkpt lat="39.01442748244061" lon="8.63925445621917"><ele>85.0</ele><time>2026-04-01T08:31:38Z</time></trkpt><trkpt lat="39.01429712924225" lon="8.639252021587042"><ele>85.0</ele><time>2026-04-01T08:31:39Z</time></trkpt><trkpt lat="39.01416974997496" lon="8.63924891632297"><ele>85.0</ele><time>2026-04-01T08:31:40Z</time></trkpt><trkpt lat="39.01404254622978" lon="8.639252608883108"><ele>84.0</ele><time>2026-04-01T08:31:41Z</time></trkpt><trkpt lat="39.01392157747093" lon="8.639257493708412"><ele>83.0</ele><time>2026-04-01T08:31:42Z</time></trkpt><trkpt lat="39.01379913467571" lon="8.639238938916103"><ele>82.0</ele><time>2026-04-01T08:31:43Z</time></trkpt><trkpt lat="39.013681542646424" lon="8.639239837526784"><ele>81.0</ele><time>2026-04-01T08:31:44Z</time></trkpt><trkpt lat="39.01356611204375" lon="8.639260863785932"><ele>81.0</ele><time>2026-04-01T08:31:45Z</time></trkpt><trkpt lat="39.01344622820991" lon="8.639257300915196"><ele>81.0</ele><time>2026-04-01T08:31:46Z</time></trkpt><trkpt lat="39.013325629243205" lon="8.639252111510116"><ele>81.0</ele><time>2026-04-01T08:31:47Z</time></trkpt><trkpt lat="39.01320169876886" lon="8.63925926934576"><ele>81.0</ele><time>2026-04-01T08:31:48Z</time></trkpt><trkpt lat="39.013073989961946" lon="8.639252785760984"><ele>81.75</ele><time>2026-04-01T08:31:49Z</time></trkpt><trkpt lat="39.01295755806668" lon="8.639228934280007"><ele>82.5</ele><time>2026-04-01T08:31:50Z</time></trkpt><trkpt lat="39.01284015712049" lon="8.639203549914162"><ele>83.25</ele><time>2026-04-01T08:31:51Z</time></trkpt><trkpt lat="39.01270926236241" lon="8.6391671660024"><ele>84.0</ele><time>2026-04-01T08:31:52Z</time></trkpt><trkpt lat="39.01257711771147" lon="8.639132785253688"><ele>84.75</ele><time>2026-04-01T08:31:53Z</time></trkpt><trkpt lat="39.012439340968804" lon="8.639110293353001"><ele>85.5</ele><time>2026-04-01T08:31:54Z</time></trkpt><trkpt lat="39.012301028623234" lon="8.639070916773749"><ele>86.25</ele><time>2026-04-01T08:31:55Z</time></trkpt><trkpt lat="39.012173607611" lon="8.63903767925084"><ele>87.0</ele><time>2026-04-01T08:31:56Z</time></trkpt><trkpt lat="39.012038193418256" lon="8.63898528266235"><ele>87.0</ele><time>2026-04-01T08:31:57Z</time></trkpt><trkpt lat="39.01189540479267" lon="8.638940028611586"><ele>87.0</ele><time>2026-04-01T08:31:58Z</time></trkpt><trkpt lat="39.01175186382486" lon="8.638894646951679"><ele>87.0</ele><time>2026-04-01T08:31:59Z</time></trkpt><trkpt lat="39.011605841657456" lon="8.638862349085613"><ele>87.0</ele><time>2026-04-01T08:32:00Z</time></trkpt><trkpt lat="39.011460511599495" lon="8.6388243115536"><ele>87.25</ele><time>2026-04-01T08:32:01Z</time></trkpt><trkpt lat="39.01133799030418" lon="8.63878720743919"><ele>87.5</ele><time>2026-04-01T08:32:02Z</time></trkpt><trkpt lat="39.01121346096565" lon="8.638756960131772"><ele>87.75</ele><time>2026-04-01T08:32:03Z</time></trkpt><trkpt lat="39.011090585628516" lon="8.638711811161087"><ele>88.0</ele><time>2026-04-01T08:32:04Z</time></trkpt><trkpt lat="39.01097146046911" lon="8.638676192593573"><ele>88.0</ele><time>2026-04-01T08:32:05Z</time></trkpt><trkpt lat="39.010833234393345" lon="8.638638514200698"><ele>88.0</ele><time>2026-04-01T08:32:06Z</time></trkpt><trkpt lat="39.010701945023776" lon="8.638601438352467"><ele>88.0</ele><time>2026-04-01T08:32:07Z</time></trkpt><trkpt lat="39.01057916131924" lon="8.6385633835418"><ele>88.0</ele><time>2026-04-01T08:32:08Z</time></trkpt><trkpt lat="39.010453506580106" lon="8.63852190231037"><ele>86.0</ele><time>2026-04-01T08:32:09Z</time></trkpt><trkpt lat="39.01032594464217" lon="8.638481267545222"><ele>84.0</ele><time>2026-04-01T08:32:10Z</time></trkpt><trkpt lat="39.01019072649616" lon="8.638444760545864"><ele>82.0</ele><time>2026-04-01T08:32:11Z</time></trkpt><trkpt lat="39.010053591965715" lon="8.638411128635045"><ele>80.0</ele><time>2026-04-01T08:32:12Z</time></trkpt><trkpt lat="39.0099128664704" lon="8.638378196140447"><ele>80.0</ele><time>2026-04-01T08:32:13Z</time></trkpt><trkpt lat="39.009773512002" lon="8.63833670743068"><ele>80.0</ele><time>2026-04-01T08:32:14Z</time></trkpt><trkpt lat="39.00964206807505" lon="8.638293858243664"><ele>80.0</ele><time>2026-04-01T08:32:15Z</time></trkpt><trkpt lat="39.009518273042495" lon="8.638252283697478"><ele>80.0</ele><time>2026-04-01T08:32:16Z</time></trkpt><trkpt lat="39.009383449101435" lon="8.638216269017637"><ele>80.0</ele><time>2026-04-01T08:32:17Z</time></trkpt><trkpt lat="39.0092445385124" lon="8.63817718730714"><ele>80.0</ele><time>2026-04-01T08:32:18Z</time></trkpt><trkpt lat="39.00910715210233" lon="8.638148548028928"><ele>80.0</ele><time>2026-04-01T08:32:19Z</time></trkpt><trkpt lat="39.008965747072615" lon="8.638123948371183"><ele>80.0</ele><time>2026-04-01T08:32:20Z</time></trkpt><trkpt lat="39.008818716281255" lon="8.638112954690667"><ele>80.0</ele><time>2026-04-01T08:32:21Z</time></trkpt><trkpt lat="39.008673135516986" lon="8.638108538853967"><ele>80.0</ele><time>2026-04-01T08:32:22Z</time></trkpt><trkpt lat="39.00853286774659" lon="8.638107136176174"><ele>80.0</ele><time>2026-04-01T08:32:23Z</time></trkpt><trkpt lat="39.00839552157892" lon="8.6381079773203"><ele>80.0</ele><time>2026-04-01T08:32:24Z</time></trkpt><trkpt lat="39.008254703580356" lon="8.638106544458314"><ele>80.0</ele><time>2026-04-01T08:32:25Z</time></trkpt><trkpt lat="39.008108876603266" lon="8.638105708454875"><ele>80.0</ele><time>2026-04-01T08:32:26Z</time></trkpt><trkpt lat="39.00796484152959" lon="8.638089494675777"><ele>80.0</ele><time>2026-04-01T08:32:27.001Z</time></trkpt><trkpt lat="39.007829046288826" lon="8.638063263201056"><ele>80.0</ele><time>2026-04-01T08:32:28.001Z</time></trkpt><trkpt lat="39.00769227014136" lon="8.638014617852333"><ele>80.0</ele><time>2026-04-01T08:32:29.001Z</time></trkpt><trkpt lat="39.00756116696721" lon="8.63796386482332"><ele>80.0</ele><time>2026-04-01T08:32:30.001Z</time></trkpt><trkpt lat="39.00742588442942" lon="8.63793610725298"><ele>80.0</ele><time>2026-04-01T08:32:31.001Z</time></trkpt><trkpt lat="39.00729144390961" lon="8.637925655888372"><ele>80.0</ele><time>2026-04-01T08:32:32.001Z</time></trkpt><trkpt lat="39.00716272315441" lon="8.637927614680436"><ele>79.0</ele><time>2026-04-01T08:32:33.001Z</time></trkpt><trkpt lat="39.00703861289582" lon="8.637941419779818"><ele>78.0</ele><time>2026-04-01T08:32:34.001Z</time></trkpt><trkpt lat="39.006918026639326" lon="8.637969520011897"><ele>77.0</ele><time>2026-04-01T08:32:35.001Z</time></trkpt><trkpt lat="39.00680019823529" lon="8.638021693601615"><ele>76.0</ele><time>2026-04-01T08:32:36.001Z</time></trkpt><trkpt lat="39.00668759337615" lon="8.63809868456483"><ele>73.5</ele><time>2026-04-01T08:32:37.001Z</time></trkpt><trkpt lat="39.00658358952813" lon="8.63819491381447"><ele>71.0</ele><time>2026-04-01T08:32:38.001Z</time></trkpt><trkpt lat="39.00648019390806" lon="8.6382962938581"><ele>68.5</ele><time>2026-04-01T08:32:39.001Z</time></trkpt><trkpt lat="39.006383143998015" lon="8.63840289465281"><ele>66.0</ele><time>2026-04-01T08:32:40.001Z</time></trkpt><trkpt lat="39.00630077651973" lon="8.638518370116032"><ele>68.0</ele><time>2026-04-01T08:32:41.001Z</time></trkpt><trkpt lat="39.0062295810819" lon="8.638638133374789"><ele>70.0</ele><time>2026-04-01T08:32:42.001Z</time></trkpt><trkpt lat="39.006170893009" lon="8.63876728764862"><ele>72.0</ele><time>2026-04-01T08:32:43.001Z</time></trkpt><trkpt lat="39.00611340271597" lon="8.63888116370311"><ele>74.0</ele><time>2026-04-01T08:32:44.001Z</time></trkpt><trkpt lat="39.006054977512456" lon="8.638985882305771"><ele>76.0</ele><time>2026-04-01T08:32:45.001Z</time></trkpt><trkpt lat="39.005994019666275" lon="8.639088566813117"><ele>76.0</ele><time>2026-04-01T08:32:46.001Z</time></trkpt><trkpt lat="39.005935161300584" lon="8.639186522510128"><ele>76.0</ele><time>2026-04-01T08:32:47.001Z</time></trkpt><trkpt lat="39.00587493588538" lon="8.639275367033408"><ele>76.0</ele><time>2026-04-01T08:32:48.001Z</time></trkpt><trkpt lat="39.005819739154084" lon="8.639361960184456"><ele>76.0</ele><time>2026-04-01T08:32:49.001Z</time></trkpt><trkpt lat="39.00575580907326" lon="8.639439757454493"><ele>76.0</ele><time>2026-04-01T08:32:50.001Z</time></trkpt><trkpt lat="39.00568822317834" lon="8.63950594160388"><ele>76.0</ele><time>2026-04-01T08:32:51.001Z</time></trkpt><trkpt lat="39.0056196210245" lon="8.639562681159031"><ele>75.8</ele><time>2026-04-01T08:32:52.001Z</time></trkpt><trkpt lat="39.00555047417415" lon="8.639620408631059"><ele>75.6</ele><time>2026-04-01T08:32:53.001Z</time></trkpt><trkpt lat="39.005475124236" lon="8.639684262480236"><ele>75.4</ele><time>2026-04-01T08:32:54.001Z</time></trkpt><trkpt lat="39.005399229487196" lon="8.639755943292244"><ele>75.2</ele><time>2026-04-01T08:32:55.001Z</time></trkpt><trkpt lat="39.005331362301085" lon="8.639842949851653"><ele>75.0</ele><time>2026-04-01T08:32:56.001Z</time></trkpt><trkpt lat="39.00527098460686" lon="8.639930318554333"><ele>75.0</ele><time>2026-04-01T08:32:57.001Z</time></trkpt><trkpt lat="39.00521983049893" lon="8.640011200209281"><ele>75.0</ele><time>2026-04-01T08:32:58.001Z</time></trkpt><trkpt lat="39.005177028915" lon="8.640087298879614"><ele>75.0</ele><time>2026-04-01T08:32:59.001Z</time></trkpt><trkpt lat="39.00513839479985" lon="8.640165470352551"><ele>75.0</ele><time>2026-04-01T08:33:00.001Z</time></trkpt><trkpt lat="39.005100823619216" lon="8.64023339205495"><ele>75.0</ele><time>2026-04-01T08:33:01.001Z</time></trkpt><trkpt lat="39.00503854699659" lon="8.640362011734158"><ele>75.0</ele><time>2026-04-01T08:33:03.001Z</time></trkpt><trkpt lat="39.00497516086338" lon="8.640468383216838"><ele>74.4</ele><time>2026-04-01T08:33:05.001Z</time></trkpt><trkpt lat="39.00490497951521" lon="8.64061284577326"><ele>73.8</ele><time>2026-04-01T08:33:07.001Z</time></trkpt><trkpt lat="39.00486091071314" lon="8.640699051630513"><ele>73.2</ele><time>2026-04-01T08:33:08.001Z</time></trkpt><trkpt lat="39.004811701085956" lon="8.640788403316982"><ele>72.6</ele><time>2026-04-01T08:33:09.001Z</time></trkpt><trkpt lat="39.00475672041912" lon="8.640886029785658"><ele>72.0</ele><time>2026-04-01T08:33:10.001Z</time></trkpt><trkpt lat="39.0046957065654" lon="8.640974682969233"><ele>72.0</ele><time>2026-04-01T08:33:11.001Z</time></trkpt><trkpt lat="39.00464487253837" lon="8.64107051211412"><ele>72.0</ele><time>2026-04-01T08:33:12.001Z</time></trkpt><trkpt lat="39.0045949670396" lon="8.641167185071762"><ele>72.0</ele><time>2026-04-01T08:33:13.001Z</time></trkpt><trkpt lat="39.00455684084405" lon="8.64127519620345"><ele>72.0</ele><time>2026-04-01T08:33:14.001Z</time></trkpt><trkpt lat="39.0045072737556" lon="8.641364632383123"><ele>72.0</ele><time>2026-04-01T08:33:15.001Z</time></trkpt><trkpt lat="39.00446159764402" lon="8.641456040880204"><ele>72.0</ele><time>2026-04-01T08:33:16.001Z</time></trkpt><trkpt lat="39.00440567610686" lon="8.641533853800698"><ele>72.4</ele><time>2026-04-01T08:33:17Z</time></trkpt><trkpt lat="39.004370769752036" lon="8.641640582494677"><ele>72.80000000000001</ele><time>2026-04-01T08:33:18Z</time></trkpt><trkpt lat="39.00430766657053" lon="8.641732266145254"><ele>73.2</ele><time>2026-04-01T08:33:19Z</time></trkpt><trkpt lat="39.0042571105271" lon="8.641826546886072"><ele>73.60000000000001</ele><time>2026-04-01T08:33:20Z</time></trkpt><trkpt lat="39.00421252811925" lon="8.641931908342467"><ele>74.0</ele><time>2026-04-01T08:33:21Z</time></trkpt><trkpt lat="39.004152629293564" lon="8.642026841928107"><ele>73.2</ele><time>2026-04-01T08:33:22Z</time></trkpt><trkpt lat="39.00409983020395" lon="8.642129826728395"><ele>72.4</ele><time>2026-04-01T08:33:23Z</time></trkpt><trkpt lat="39.00404439415095" lon="8.642237954974108"><ele>71.6</ele><time>2026-04-01T08:33:24Z</time></trkpt><trkpt lat="39.00398646666155" lon="8.642350385596158"><ele>70.8</ele><time>2026-04-01T08:33:25Z</time></trkpt><trkpt lat="39.003925552066164" lon="8.642464347587508"><ele>70.0</ele><time>2026-04-01T08:33:26Z</time></trkpt><trkpt lat="39.00386458842872" lon="8.642578401307142"><ele>70.0</ele><time>2026-04-01T08:33:27Z</time></trkpt><trkpt lat="39.00381861917969" lon="8.642700042908311"><ele>70.0</ele><time>2026-04-01T08:33:28Z</time></trkpt><trkpt lat="39.00375992011128" lon="8.642804310402587"><ele>70.0</ele><time>2026-04-01T08:33:29Z</time></trkpt><trkpt lat="39.00370713411235" lon="8.642906848988558"><ele>70.0</ele><time>2026-04-01T08:33:30Z</time></trkpt><trkpt lat="39.00365363794319" lon="8.643008308205099"><ele>70.0</ele><time>2026-04-01T08:33:31Z</time></trkpt><trkpt lat="39.003596517347475" lon="8.643100682849637"><ele>69.8</ele><time>2026-04-01T08:33:32Z</time></trkpt><trkpt lat="39.003543752820114" lon="8.643198380795923"><ele>69.6</ele><time>2026-04-01T08:33:33Z</time></trkpt><trkpt lat="39.003491724462286" lon="8.643300755104123"><ele>69.4</ele><time>2026-04-01T08:33:34Z</time></trkpt><trkpt lat="39.003439894266705" lon="8.643405987374532"><ele>69.2</ele><time>2026-04-01T08:33:35Z</time></trkpt><trkpt lat="39.00338562735556" lon="8.64351155534897"><ele>69.0</ele><time>2026-04-01T08:33:36Z</time></trkpt><trkpt lat="39.00332435446721" lon="8.643620806182115"><ele>69.60000000000001</ele><time>2026-04-01T08:33:37Z</time></trkpt><trkpt lat="39.00326529520318" lon="8.643738909125917"><ele>70.2</ele><time>2026-04-01T08:33:38Z</time></trkpt><trkpt lat="39.00319556894045" lon="8.643851767379232"><ele>70.80000000000001</ele><time>2026-04-01T08:33:39Z</time></trkpt><trkpt lat="39.00313345862307" lon="8.643971825675493"><ele>71.4</ele><time>2026-04-01T08:33:40Z</time></trkpt><trkpt lat="39.00307193933261" lon="8.644092804829455"><ele>72.0</ele><time>2026-04-01T08:33:41Z</time></trkpt><trkpt lat="39.00300984147596" lon="8.64421145323426"><ele>72.0</ele><time>2026-04-01T08:33:42Z</time></trkpt><trkpt lat="39.00294654653816" lon="8.644332782595775"><ele>72.0</ele><time>2026-04-01T08:33:43Z</time></trkpt><trkpt lat="39.00288408857625" lon="8.644445170187087"><ele>72.0</ele><time>2026-04-01T08:33:44Z</time></trkpt><trkpt lat="39.00282805334944" lon="8.644557001171428"><ele>72.0</ele><time>2026-04-01T08:33:45Z</time></trkpt><trkpt lat="39.002767717834914" lon="8.644664882685372"><ele>72.0</ele><time>2026-04-01T08:33:46Z</time></trkpt><trkpt lat="39.002713089495444" lon="8.644780163007582"><ele>71.8</ele><time>2026-04-01T08:33:47Z</time></trkpt><trkpt lat="39.00265536685164" lon="8.644892272430866"><ele>71.6</ele><time>2026-04-01T08:33:48Z</time></trkpt><trkpt lat="39.002596062838265" lon="8.645006735689368"><ele>71.39999999999999</ele><time>2026-04-01T08:33:49Z</time></trkpt><trkpt lat="39.00252930027236" lon="8.645120470757822"><ele>71.2</ele><time>2026-04-01T08:33:50Z</time></trkpt><trkpt lat="39.00246868869768" lon="8.64523712585683"><ele>71.0</ele><time>2026-04-01T08:33:51Z</time></trkpt><trkpt lat="39.00239994846034" lon="8.645354798621135"><ele>71.0</ele><time>2026-04-01T08:33:52Z</time></trkpt><trkpt lat="39.00232828603947" lon="8.645474966025072"><ele>71.0</ele><time>2026-04-01T08:33:53Z</time></trkpt><trkpt lat="39.00226086867056" lon="8.645604190176435"><ele>71.0</ele><time>2026-04-01T08:33:54Z</time></trkpt><trkpt lat="39.00219012653776" lon="8.645735668189548"><ele>71.0</ele><time>2026-04-01T08:33:55Z</time></trkpt><trkpt lat="39.00212234105409" lon="8.645863603713872"><ele>71.0</ele><time>2026-04-01T08:33:56Z</time></trkpt><trkpt lat="39.002055989380004" lon="8.645992253449633"><ele>71.0</ele><time>2026-04-01T08:33:57Z</time></trkpt><trkpt lat="39.001988049497335" lon="8.646120764437674"><ele>71.0</ele><time>2026-04-01T08:33:58Z</time></trkpt><trkpt lat="39.00192372237976" lon="8.6462541758227"><ele>71.0</ele><time>2026-04-01T08:33:59Z</time></trkpt><trkpt lat="39.00185048219251" lon="8.646385777896125"><ele>70.75</ele><time>2026-04-01T08:34:00Z</time></trkpt><trkpt lat="39.00177933204602" lon="8.646523025452026"><ele>70.5</ele><time>2026-04-01T08:34:01Z</time></trkpt><trkpt lat="39.00170273368063" lon="8.64666515919889"><ele>70.25</ele><time>2026-04-01T08:34:02Z</time></trkpt><trkpt lat="39.001620318969984" lon="8.64681007277591"><ele>70.0</ele><time>2026-04-01T08:34:03Z</time></trkpt><trkpt lat="39.001535693198434" lon="8.646959691047055"><ele>69.0</ele><time>2026-04-01T08:34:04Z</time></trkpt><trkpt lat="39.00145300721524" lon="8.647116080606388"><ele>68.0</ele><time>2026-04-01T08:34:05Z</time></trkpt><trkpt lat="39.001375720166756" lon="8.647270250713484"><ele>67.0</ele><time>2026-04-01T08:34:06Z</time></trkpt><trkpt lat="39.0012980370666" lon="8.647416198780505"><ele>66.0</ele><time>2026-04-01T08:34:07Z</time></trkpt><trkpt lat="39.001219356370235" lon="8.6475600805445"><ele>66.0</ele><time>2026-04-01T08:34:08Z</time></trkpt><trkpt lat="39.00113999474898" lon="8.647706947558119"><ele>66.0</ele><time>2026-04-01T08:34:09Z</time></trkpt><trkpt lat="39.00106369338609" lon="8.647852780720664"><ele>66.0</ele><time>2026-04-01T08:34:10Z</time></trkpt><trkpt lat="39.00098975108048" lon="8.647991997397545"><ele>66.0</ele><time>2026-04-01T08:34:11Z</time></trkpt><trkpt lat="39.00092361633294" lon="8.648124913590232"><ele>66.2</ele><time>2026-04-01T08:34:12Z</time></trkpt><trkpt lat="39.00085811072637" lon="8.648250478285405"><ele>66.39999999999999</ele><time>2026-04-01T08:34:13Z</time></trkpt><trkpt lat="39.00079497545548" lon="8.64837058344244"><ele>66.6</ele><time>2026-04-01T08:34:14Z</time></trkpt><trkpt lat="39.00073259664831" lon="8.648486134431804"><ele>66.8</ele><time>2026-04-01T08:34:15Z</time></trkpt><trkpt lat="39.00067260664288" lon="8.648595160531675"><ele>67.0</ele><time>2026-04-01T08:34:16Z</time></trkpt><trkpt lat="39.000612327133325" lon="8.648703553817162"><ele>66.4</ele><time>2026-04-01T08:34:17Z</time></trkpt><trkpt lat="39.00055416994608" lon="8.64880448622604"><ele>65.80000000000001</ele><time>2026-04-01T08:34:18Z</time></trkpt><trkpt lat="39.00049041427384" lon="8.64890902070428"><ele>65.2</ele><time>2026-04-01T08:34:19Z</time></trkpt><trkpt lat="39.00042323171658" lon="8.649018762232954"><ele>64.60000000000001</ele><time>2026-04-01T08:34:20Z</time></trkpt><trkpt lat="39.000346569135644" lon="8.649129714859527"><ele>64.0</ele><time>2026-04-01T08:34:21Z</time></trkpt><trkpt lat="39.000264709502275" lon="8.649242131935893"><ele>64.0</ele><time>2026-04-01T08:34:22Z</time></trkpt><trkpt lat="39.000181951745496" lon="8.649353465461466"><ele>64.0</ele><time>2026-04-01T08:34:23Z</time></trkpt><trkpt lat="39.00009085943941" lon="8.64946822017505"><ele>64.0</ele><time>2026-04-01T08:34:24Z</time></trkpt><trkpt lat="38.99999810819571" lon="8.649580496600276"><ele>64.0</ele><time>2026-04-01T08:34:25Z</time></trkpt><trkpt lat="38.99989740267416" lon="8.64968515073541"><ele>65.25</ele><time>2026-04-01T08:34:26Z</time></trkpt><trkpt lat="38.99978799126517" lon="8.64978202631745"><ele>66.5</ele><time>2026-04-01T08:34:27Z</time></trkpt><trkpt lat="38.99966735316899" lon="8.649882669426624"><ele>67.75</ele><time>2026-04-01T08:34:28Z</time></trkpt><trkpt lat="38.99954675435808" lon="8.64997792296902"><ele>69.0</ele><time>2026-04-01T08:34:29Z</time></trkpt><trkpt lat="38.99942062299849" lon="8.650068750488966"><ele>69.0</ele><time>2026-04-01T08:34:30Z</time></trkpt><trkpt lat="38.999289806529966" lon="8.650159520137908"><ele>69.0</ele><time>2026-04-01T08:34:31Z</time></trkpt><trkpt lat="38.99915425595246" lon="8.650239567016712"><ele>69.0</ele><time>2026-04-01T08:34:32Z</time></trkpt><trkpt lat="38.99902011826659" lon="8.650313615542508"><ele>69.0</ele><time>2026-04-01T08:34:33Z</time></trkpt><trkpt lat="38.9988895007262" lon="8.650370247028098"><ele>69.5</ele><time>2026-04-01T08:34:34Z</time></trkpt><trkpt lat="38.998758983824544" lon="8.650429691282502"><ele>70.0</ele><time>2026-04-01T08:34:35Z</time></trkpt><trkpt lat="38.998628492045185" lon="8.650488025830317"><ele>70.5</ele><time>2026-04-01T08:34:36Z</time></trkpt><trkpt lat="38.998495636510185" lon="8.650545091435612"><ele>71.0</ele><time>2026-04-01T08:34:37Z</time></trkpt><trkpt lat="38.99835805526746" lon="8.650603762566895"><ele>70.75</ele><time>2026-04-01T08:34:38Z</time></trkpt><trkpt lat="38.998217650374926" lon="8.65065909047686"><ele>70.5</ele><time>2026-04-01T08:34:39Z</time></trkpt><trkpt lat="38.9980745872619" lon="8.650716845457033"><ele>70.25</ele><time>2026-04-01T08:34:40Z</time></trkpt><trkpt lat="38.99792969553702" lon="8.650777659849531"><ele>70.0</ele><time>2026-04-01T08:34:41Z</time></trkpt><trkpt lat="38.99778327253763" lon="8.650844424949922"><ele>70.0</ele><time>2026-04-01T08:34:42Z</time></trkpt><trkpt lat="38.997633433521216" lon="8.650909660481592"><ele>70.0</ele><time>2026-04-01T08:34:43Z</time></trkpt><trkpt lat="38.99748155957653" lon="8.65097348594522"><ele>70.0</ele><time>2026-04-01T08:34:44Z</time></trkpt><trkpt lat="38.99733003518711" lon="8.65104015404654"><ele>71.66666666666666</ele><time>2026-04-01T08:34:45Z</time></trkpt><trkpt lat="38.99718003606937" lon="8.651122480999788"><ele>73.33333333333333</ele><time>2026-04-01T08:34:46Z</time></trkpt><trkpt lat="38.997043050447836" lon="8.651227761862707"><ele>75.0</ele><time>2026-04-01T08:34:47Z</time></trkpt><trkpt lat="38.99692389930561" lon="8.65133616537708"><ele>74.33333333333333</ele><time>2026-04-01T08:34:48Z</time></trkpt><trkpt lat="38.996818461393644" lon="8.651445770824262"><ele>73.66666666666666</ele><time>2026-04-01T08:34:49Z</time></trkpt><trkpt lat="38.996709530656254" lon="8.651565422014547"><ele>73.0</ele><time>2026-04-01T08:34:50Z</time></trkpt><trkpt lat="38.996381631565484" lon="8.651451913839422"><ele>73.0</ele><time>2026-04-01T08:34:51Z</time></trkpt><trkpt lat="38.9962160945964" lon="8.651517553194815"><ele>73.0</ele><time>2026-04-01T08:34:52Z</time></trkpt><trkpt lat="38.99604951865119" lon="8.651586084511907"><ele>73.0</ele><time>2026-04-01T08:34:53Z</time></trkpt><trkpt lat="38.99588261095185" lon="8.65165603407214"><ele>70.33333333333333</ele><time>2026-04-01T08:34:54Z</time></trkpt><trkpt lat="38.99571138980989" lon="8.65172883818638"><ele>67.66666666666667</ele><time>2026-04-01T08:34:55Z</time></trkpt><trkpt lat="38.995543827566486" lon="8.65180315309473"><ele>65.0</ele><time>2026-04-01T08:34:56Z</time></trkpt><trkpt lat="38.99538128384268" lon="8.65187477219775"><ele>65.0</ele><time>2026-04-01T08:34:57Z</time></trkpt><trkpt lat="38.99522366576753" lon="8.651953208446495"><ele>65.0</ele><time>2026-04-01T08:34:58Z</time></trkpt><trkpt lat="38.99506826029722" lon="8.652037996585431"><ele>65.0</ele><time>2026-04-01T08:34:59Z</time></trkpt><trkpt lat="38.994920768883894" lon="8.652139361639703"><ele>64.33333333333334</ele><time>2026-04-01T08:35:00Z</time></trkpt><trkpt lat="38.99478134368894" lon="8.652248115540923"><ele>63.66666666666667</ele><time>2026-04-01T08:35:01Z</time></trkpt><trkpt lat="38.994647167375945" lon="8.652362124153054"><ele>63.0</ele><time>2026-04-01T08:35:02Z</time></trkpt><trkpt lat="38.994513908929584" lon="8.652473708869428"><ele>63.0</ele><time>2026-04-01T08:35:03Z</time></trkpt><trkpt lat="38.99437715196446" lon="8.65259371137227"><ele>63.0</ele><time>2026-04-01T08:35:04Z</time></trkpt><trkpt lat="38.994241441834546" lon="8.652724800471715"><ele>63.0</ele><time>2026-04-01T08:35:05Z</time></trkpt><trkpt lat="38.994111044087134" lon="8.652875167611128"><ele>61.33333333333333</ele><time>2026-04-01T08:35:06Z</time></trkpt><trkpt lat="38.9939868656059" lon="8.653027786357606"><ele>59.666666666666664</ele><time>2026-04-01T08:35:07Z</time></trkpt><trkpt lat="38.99386582587453" lon="8.65319334748223"><ele>58.0</ele><time>2026-04-01T08:35:08Z</time></trkpt><trkpt lat="38.99374888230244" lon="8.65337109974124"><ele>58.0</ele><time>2026-04-01T08:35:09Z</time></trkpt><trkpt lat="38.993638538482465" lon="8.653543549484324"><ele>58.0</ele><time>2026-04-01T08:35:10Z</time></trkpt><trkpt lat="38.9935400826264" lon="8.653712095908148"><ele>58.0</ele><time>2026-04-01T08:35:11Z</time></trkpt><trkpt lat="38.99343991055214" lon="8.653883436130203"><ele>57.33333333333333</ele><time>2026-04-01T08:35:12Z</time></trkpt><trkpt lat="38.99334057488118" lon="8.654049539278827"><ele>56.66666666666667</ele><time>2026-04-01T08:35:13Z</time></trkpt><trkpt lat="38.99325331741046" lon="8.654200455729178"><ele>56.0</ele><time>2026-04-01T08:35:14Z</time></trkpt><trkpt lat="38.99315843771021" lon="8.65434484435592"><ele>56.75</ele><time>2026-04-01T08:35:15Z</time></trkpt><trkpt lat="38.99306573922589" lon="8.654488188040268"><ele>57.5</ele><time>2026-04-01T08:35:16Z</time></trkpt><trkpt lat="38.992973504160005" lon="8.654635248671068"><ele>58.25</ele><time>2026-04-01T08:35:17Z</time></trkpt><trkpt lat="38.992879757007636" lon="8.654783226612444"><ele>59.0</ele><time>2026-04-01T08:35:18Z</time></trkpt><trkpt lat="38.99278165998081" lon="8.654934939664216"><ele>59.0</ele><time>2026-04-01T08:35:19Z</time></trkpt><trkpt lat="38.992683288629706" lon="8.655089554544922"><ele>59.0</ele><time>2026-04-01T08:35:20Z</time></trkpt><trkpt lat="38.99258700881733" lon="8.655249679425378"><ele>59.0</ele><time>2026-04-01T08:35:21Z</time></trkpt><trkpt lat="38.99248954368787" lon="8.655408742920798"><ele>58.0</ele><time>2026-04-01T08:35:22Z</time></trkpt><trkpt lat="38.992388953514975" lon="8.655568594567072"><ele>57.0</ele><time>2026-04-01T08:35:23Z</time></trkpt><trkpt lat="38.992181628147584" lon="8.65588913653657"><ele>57.0</ele><time>2026-04-01T08:35:25Z</time></trkpt><trkpt lat="38.992072494030445" lon="8.65605372516585"><ele>57.0</ele><time>2026-04-01T08:35:26Z</time></trkpt><trkpt lat="38.99196929861257" lon="8.656220996014746"><ele>57.0</ele><time>2026-04-01T08:35:27Z</time></trkpt><trkpt lat="38.9918709631319" lon="8.656392994167085"><ele>57.66666666666667</ele><time>2026-04-01T08:35:28Z</time></trkpt><trkpt lat="38.991779983039436" lon="8.65657867532915"><ele>58.333333333333336</ele><time>2026-04-01T08:35:29Z</time></trkpt><trkpt lat="38.991710378718935" lon="8.656780450943698"><ele>59.0</ele><time>2026-04-01T08:35:30Z</time></trkpt><trkpt lat="38.991659691339834" lon="8.656999806772252"><ele>57.66666666666667</ele><time>2026-04-01T08:35:31Z</time></trkpt><trkpt lat="38.99161490735299" lon="8.657219089760298"><ele>56.33333333333333</ele><time>2026-04-01T08:35:32Z</time></trkpt><trkpt lat="38.991563959738414" lon="8.657436516262342"><ele>55.0</ele><time>2026-04-01T08:35:33Z</time></trkpt><trkpt lat="38.99150977250802" lon="8.657654874278343"><ele>55.33333333333333</ele><time>2026-04-01T08:35:34Z</time></trkpt><trkpt lat="38.99145723451534" lon="8.657874035143562"><ele>55.66666666666667</ele><time>2026-04-01T08:35:35Z</time></trkpt><trkpt lat="38.99140354062815" lon="8.658092178870579"><ele>56.0</ele><time>2026-04-01T08:35:36Z</time></trkpt><trkpt lat="38.99134777391219" lon="8.658307516925351"><ele>56.0</ele><time>2026-04-01T08:35:37Z</time></trkpt><trkpt lat="38.991290152087814" lon="8.658525092708164"><ele>56.0</ele><time>2026-04-01T08:35:38Z</time></trkpt><trkpt lat="38.99123187160004" lon="8.658744882174613"><ele>56.0</ele><time>2026-04-01T08:35:39Z</time></trkpt><trkpt lat="38.99117628686428" lon="8.658968092599629"><ele>57.0</ele><time>2026-04-01T08:35:40Z</time></trkpt><trkpt lat="38.991121719087424" lon="8.659188439378067"><ele>58.0</ele><time>2026-04-01T08:35:41Z</time></trkpt><trkpt lat="38.99107194759257" lon="8.659397745630052"><ele>59.0</ele><time>2026-04-01T08:35:42Z</time></trkpt><trkpt lat="38.99102636476142" lon="8.659590703884975"><ele>60.0</ele><time>2026-04-01T08:35:43Z</time></trkpt><trkpt lat="38.99098339914026" lon="8.65977134146473"><ele>61.0</ele><time>2026-04-01T08:35:44Z</time></trkpt><trkpt lat="38.990953044968016" lon="8.659947204792633"><ele>62.0</ele><time>2026-04-01T08:35:45Z</time></trkpt><trkpt lat="38.99095862638844" lon="8.660134023281953"><ele>63.0</ele><time>2026-04-01T08:35:46Z</time></trkpt><trkpt lat="38.99098836497855" lon="8.660317966284675"><ele>63.5</ele><time>2026-04-01T08:35:47Z</time></trkpt><trkpt lat="38.99101843833497" lon="8.660499735481595"><ele>64.0</ele><time>2026-04-01T08:35:48Z</time></trkpt><trkpt lat="38.99104998142364" lon="8.660683152854551"><ele>64.5</ele><time>2026-04-01T08:35:49Z</time></trkpt><trkpt lat="38.99106232779761" lon="8.660867693840927"><ele>65.0</ele><time>2026-04-01T08:35:50Z</time></trkpt><trkpt lat="38.99106263792714" lon="8.661064059503842"><ele>65.33333333333334</ele><time>2026-04-01T08:35:51Z</time></trkpt><trkpt lat="38.99105334343843" lon="8.661265849553995"><ele>65.66666666666667</ele><time>2026-04-01T08:35:52Z</time></trkpt><trkpt lat="38.99104045769471" lon="8.661468257028618"><ele>66.0</ele><time>2026-04-01T08:35:53Z</time></trkpt><trkpt lat="38.991025389003795" lon="8.661672876030035"><ele>66.0</ele><time>2026-04-01T08:35:54Z</time></trkpt><trkpt lat="38.99100700602457" lon="8.661877067458233"><ele>66.0</ele><time>2026-04-01T08:35:55Z</time></trkpt><trkpt lat="38.990993141310966" lon="8.662080731659884"><ele>66.0</ele><time>2026-04-01T08:35:56Z</time></trkpt><trkpt lat="38.990976133346564" lon="8.662283200657244"><ele>66.66666666666667</ele><time>2026-04-01T08:35:57Z</time></trkpt><trkpt lat="38.990962558208324" lon="8.662482309374262"><ele>67.33333333333334</ele><time>2026-04-01T08:35:58Z</time></trkpt><trkpt lat="38.99095069856039" lon="8.662686737014575"><ele>68.0</ele><time>2026-04-01T08:35:59Z</time></trkpt><trkpt lat="38.99093950557162" lon="8.662891606923875"><ele>68.33333333333334</ele><time>2026-04-01T08:36:00Z</time></trkpt><trkpt lat="38.990933774487985" lon="8.6631003620343"><ele>68.66666666666667</ele><time>2026-04-01T08:36:01Z</time></trkpt><trkpt lat="38.99094078279408" lon="8.663308338829289"><ele>69.0</ele><time>2026-04-01T08:36:02Z</time></trkpt><trkpt lat="38.99094976437966" lon="8.663519136785267"><ele>69.0</ele><time>2026-04-01T08:36:03Z</time></trkpt><trkpt lat="38.990955842263176" lon="8.663725073290923"><ele>69.0</ele><time>2026-04-01T08:36:04Z</time></trkpt><trkpt lat="38.990958178128515" lon="8.66393627816889"><ele>69.0</ele><time>2026-04-01T08:36:05Z</time></trkpt><trkpt lat="38.990964488114386" lon="8.664147109818222"><ele>69.0</ele><time>2026-04-01T08:36:06Z</time></trkpt><trkpt lat="38.990970517410716" lon="8.664358547429172"><ele>69.0</ele><time>2026-04-01T08:36:07Z</time></trkpt><trkpt lat="38.99097826580329" lon="8.664572633636281"><ele>69.0</ele><time>2026-04-01T08:36:08Z</time></trkpt><trkpt lat="38.9909864765788" lon="8.664783632071412"><ele>68.33333333333333</ele><time>2026-04-01T08:36:09Z</time></trkpt><trkpt lat="38.99098973453581" lon="8.664995039230211"><ele>67.66666666666666</ele><time>2026-04-01T08:36:10Z</time></trkpt><trkpt lat="38.99099289410649" lon="8.665195344317041"><ele>67.0</ele><time>2026-04-01T08:36:11Z</time></trkpt><trkpt lat="38.99099920336335" lon="8.66539256549729"><ele>66.33333333333333</ele><time>2026-04-01T08:36:12Z</time></trkpt><trkpt lat="38.99100294840958" lon="8.665593826414986"><ele>65.66666666666667</ele><time>2026-04-01T08:36:13Z</time></trkpt><trkpt lat="38.99100778236294" lon="8.66580219316813"><ele>65.0</ele><time>2026-04-01T08:36:14Z</time></trkpt><trkpt lat="38.99101402222069" lon="8.666012935089077"><ele>64.33333333333334</ele><time>2026-04-01T08:36:15Z</time></trkpt><trkpt lat="38.99101997406844" lon="8.66623451578754"><ele>63.66666666666667</ele><time>2026-04-01T08:36:16Z</time></trkpt><trkpt lat="38.991026174021684" lon="8.666454839469093"><ele>63.0</ele><time>2026-04-01T08:36:17Z</time></trkpt><trkpt lat="38.99102440549712" lon="8.666678003794011"><ele>63.0</ele><time>2026-04-01T08:36:18Z</time></trkpt><trkpt lat="38.991015740686436" lon="8.666903831221795"><ele>63.0</ele><time>2026-04-01T08:36:19Z</time></trkpt><trkpt lat="38.990991932854996" lon="8.667133563492397"><ele>63.0</ele><time>2026-04-01T08:36:20Z</time></trkpt><trkpt lat="38.99095711727957" lon="8.667366316381038"><ele>62.33333333333333</ele><time>2026-04-01T08:36:21Z</time></trkpt><trkpt lat="38.99092227142559" lon="8.667598978822747"><ele>61.666666666666664</ele><time>2026-04-01T08:36:22Z</time></trkpt><trkpt lat="38.99088328840495" lon="8.667824381201951"><ele>61.0</ele><time>2026-04-01T08:36:23Z</time></trkpt><trkpt lat="38.990840756237" lon="8.668049165418708"><ele>59.33333333333333</ele><time>2026-04-01T08:36:24Z</time></trkpt><trkpt lat="38.99080061685552" lon="8.6682756105163"><ele>57.66666666666667</ele><time>2026-04-01T08:36:25Z</time></trkpt><trkpt lat="38.99076144819755" lon="8.66850688440643"><ele>56.0</ele><time>2026-04-01T08:36:26Z</time></trkpt><trkpt lat="38.99072178992925" lon="8.66873324920357"><ele>56.0</ele><time>2026-04-01T08:36:27Z</time></trkpt><trkpt lat="38.99067913319715" lon="8.668961100998256"><ele>56.0</ele><time>2026-04-01T08:36:28Z</time></trkpt><trkpt lat="38.990638029190244" lon="8.66918495122223"><ele>56.0</ele><time>2026-04-01T08:36:29Z</time></trkpt><trkpt lat="38.99060089932777" lon="8.669415068098546"><ele>56.333333333333336</ele><time>2026-04-01T08:36:30Z</time></trkpt><trkpt lat="38.99056511128282" lon="8.66964480036189"><ele>56.66666666666667</ele><time>2026-04-01T08:36:31Z</time></trkpt><trkpt lat="38.99052859030543" lon="8.669873808781674"><ele>57.0</ele><time>2026-04-01T08:36:32Z</time></trkpt><trkpt lat="38.990489796748456" lon="8.67009904046601"><ele>57.33333333333333</ele><time>2026-04-01T08:36:33Z</time></trkpt><trkpt lat="38.99045031223653" lon="8.670327233985859"><ele>57.666666666666664</ele><time>2026-04-01T08:36:34Z</time></trkpt><trkpt lat="38.99041148179598" lon="8.670555049722639"><ele>58.0</ele><time>2026-04-01T08:36:35Z</time></trkpt><trkpt lat="38.99037250279393" lon="8.670783726409262"><ele>58.0</ele><time>2026-04-01T08:36:36Z</time></trkpt><trkpt lat="38.99033491372648" lon="8.671006516225795"><ele>58.0</ele><time>2026-04-01T08:36:37Z</time></trkpt><trkpt lat="38.990296365486095" lon="8.67122385142279"><ele>58.0</ele><time>2026-04-01T08:36:38Z</time></trkpt><trkpt lat="38.9902578377051" lon="8.671441550677528"><ele>58.0</ele><time>2026-04-01T08:36:39Z</time></trkpt><trkpt lat="38.990220120035346" lon="8.671659004921592"><ele>58.0</ele><time>2026-04-01T08:36:40Z</time></trkpt><trkpt lat="38.9901836526181" lon="8.671874650147288"><ele>58.0</ele><time>2026-04-01T08:36:41Z</time></trkpt><trkpt lat="38.99014660292142" lon="8.67208437192417"><ele>58.0</ele><time>2026-04-01T08:36:42Z</time></trkpt><trkpt lat="38.99011179650079" lon="8.672284048186865"><ele>58.0</ele><time>2026-04-01T08:36:43Z</time></trkpt><trkpt lat="38.990077480578314" lon="8.672473939088471"><ele>58.0</ele><time>2026-04-01T08:36:44Z</time></trkpt><trkpt lat="38.99004690329852" lon="8.672673241490669"><ele>58.0</ele><time>2026-04-01T08:36:45Z</time></trkpt><trkpt lat="38.990017443318315" lon="8.672884911632329"><ele>58.0</ele><time>2026-04-01T08:36:46Z</time></trkpt><trkpt lat="38.98998395905626" lon="8.6730970754731"><ele>58.0</ele><time>2026-04-01T08:36:47Z</time></trkpt><trkpt lat="38.989932034477825" lon="8.673307346300657"><ele>56.33333333333333</ele><time>2026-04-01T08:36:48Z</time></trkpt><trkpt lat="38.989895302511776" lon="8.673522123753147"><ele>54.66666666666667</ele><time>2026-04-01T08:36:49Z</time></trkpt><trkpt lat="38.9898578720798" lon="8.673740985222741"><ele>53.0</ele><time>2026-04-01T08:36:50Z</time></trkpt><trkpt lat="38.98983428609796" lon="8.6739732426932"><ele>53.0</ele><time>2026-04-01T08:36:51Z</time></trkpt><trkpt lat="38.989788041377324" lon="8.674198261395436"><ele>53.0</ele><time>2026-04-01T08:36:52Z</time></trkpt><trkpt lat="38.98975018921376" lon="8.674421190417547"><ele>53.0</ele><time>2026-04-01T08:36:53Z</time></trkpt><trkpt lat="38.98971268928705" lon="8.674646045180321"><ele>53.333333333333336</ele><time>2026-04-01T08:36:54Z</time></trkpt><trkpt lat="38.98967288117946" lon="8.674868456329047"><ele>53.66666666666667</ele><time>2026-04-01T08:36:55Z</time></trkpt><trkpt lat="38.98963376013766" lon="8.675092408422731"><ele>54.0</ele><time>2026-04-01T08:36:56Z</time></trkpt><trkpt lat="38.98959477746668" lon="8.675316652069402"><ele>54.66666666666667</ele><time>2026-04-01T08:36:57Z</time></trkpt><trkpt lat="38.98955448692892" lon="8.675539350394178"><ele>55.333333333333336</ele><time>2026-04-01T08:36:58Z</time></trkpt><trkpt lat="38.98951221484945" lon="8.675764431003913"><ele>56.0</ele><time>2026-04-01T08:36:59Z</time></trkpt><trkpt lat="38.98947311669792" lon="8.675992479903933"><ele>57.0</ele><time>2026-04-01T08:37:00Z</time></trkpt><trkpt lat="38.98943553751044" lon="8.67621947217921"><ele>58.0</ele><time>2026-04-01T08:37:01Z</time></trkpt><trkpt lat="38.98939494870307" lon="8.676440517297635"><ele>59.0</ele><time>2026-04-01T08:37:02Z</time></trkpt><trkpt lat="38.98935839508863" lon="8.676656351296717"><ele>59.0</ele><time>2026-04-01T08:37:03Z</time></trkpt><trkpt lat="38.98932384027025" lon="8.676872903498829"><ele>59.0</ele><time>2026-04-01T08:37:04Z</time></trkpt><trkpt lat="38.989284264173875" lon="8.677086652001313"><ele>59.0</ele><time>2026-04-01T08:37:05Z</time></trkpt><trkpt lat="38.989246404924366" lon="8.677302997280737"><ele>59.66666666666667</ele><time>2026-04-01T08:37:06Z</time></trkpt><trkpt lat="38.98920822965066" lon="8.677525160017241"><ele>60.33333333333333</ele><time>2026-04-01T08:37:07Z</time></trkpt><trkpt lat="38.989170622968864" lon="8.677744099443501"><ele>61.0</ele><time>2026-04-01T08:37:08Z</time></trkpt><trkpt lat="38.989130650600096" lon="8.677964315773986"><ele>59.666666666666664</ele><time>2026-04-01T08:37:09Z</time></trkpt><trkpt lat="38.989089911524886" lon="8.678184816402995"><ele>58.33333333333333</ele><time>2026-04-01T08:37:10Z</time></trkpt><trkpt lat="38.98905012144522" lon="8.67840187079445"><ele>57.0</ele><time>2026-04-01T08:37:11Z</time></trkpt><trkpt lat="38.98901497028024" lon="8.678625472220396"><ele>57.0</ele><time>2026-04-01T08:37:12Z</time></trkpt><trkpt lat="38.9889776820541" lon="8.678845081392792"><ele>57.0</ele><time>2026-04-01T08:37:13Z</time></trkpt><trkpt lat="38.988939503083905" lon="8.679067151815806"><ele>57.0</ele><time>2026-04-01T08:37:14Z</time></trkpt><trkpt lat="38.98890205334476" lon="8.679288292906614"><ele>57.0</ele><time>2026-04-01T08:37:15Z</time></trkpt><trkpt lat="38.988864058481795" lon="8.679505360295842"><ele>57.0</ele><time>2026-04-01T08:37:16Z</time></trkpt><trkpt lat="38.98882824060434" lon="8.679723471106886"><ele>57.0</ele><time>2026-04-01T08:37:17Z</time></trkpt><trkpt lat="38.98879153776904" lon="8.67994309507899"><ele>57.0</ele><time>2026-04-01T08:37:18Z</time></trkpt><trkpt lat="38.9887536916456" lon="8.680166475054426"><ele>57.0</ele><time>2026-04-01T08:37:19Z</time></trkpt><trkpt lat="38.988713299119674" lon="8.680389300750502"><ele>57.0</ele><time>2026-04-01T08:37:20Z</time></trkpt><trkpt lat="38.98867434348716" lon="8.680610492695436"><ele>57.0</ele><time>2026-04-01T08:37:21Z</time></trkpt><trkpt lat="38.988636970188" lon="8.680828581242496"><ele>57.0</ele><time>2026-04-01T08:37:22Z</time></trkpt><trkpt lat="38.98859979242837" lon="8.681050430287911"><ele>57.0</ele><time>2026-04-01T08:37:23Z</time></trkpt><trkpt lat="38.98856031372072" lon="8.681270458719803"><ele>57.66666666666667</ele><time>2026-04-01T08:37:24Z</time></trkpt><trkpt lat="38.988526740900824" lon="8.681488906942086"><ele>58.333333333333336</ele><time>2026-04-01T08:37:25Z</time></trkpt><trkpt lat="38.988492265710526" lon="8.681701430825491"><ele>59.0</ele><time>2026-04-01T08:37:26Z</time></trkpt><trkpt lat="38.98845320763051" lon="8.681915728685697"><ele>59.66666666666667</ele><time>2026-04-01T08:37:27Z</time></trkpt><trkpt lat="38.98841478808519" lon="8.682124509267847"><ele>60.33333333333333</ele><time>2026-04-01T08:37:28Z</time></trkpt><trkpt lat="38.98837626242765" lon="8.682339455748616"><ele>61.0</ele><time>2026-04-01T08:37:28.999Z</time></trkpt><trkpt lat="38.98833748878409" lon="8.682553410025202"><ele>62.0</ele><time>2026-04-01T08:37:29.999Z</time></trkpt><trkpt lat="38.98829928893253" lon="8.682764882859082"><ele>63.0</ele><time>2026-04-01T08:37:30.999Z</time></trkpt><trkpt lat="38.98826556952032" lon="8.682977488842628"><ele>64.0</ele><time>2026-04-01T08:37:31.999Z</time></trkpt><trkpt lat="38.98823015025175" lon="8.683190221431643"><ele>64.0</ele><time>2026-04-01T08:37:32.999Z</time></trkpt><trkpt lat="38.98819303883303" lon="8.683401016748956"><ele>64.0</ele><time>2026-04-01T08:37:33.999Z</time></trkpt><trkpt lat="38.98815488204675" lon="8.68360914421367"><ele>64.0</ele><time>2026-04-01T08:37:34.999Z</time></trkpt><trkpt lat="38.9881174394886" lon="8.68381627027272"><ele>65.0</ele><time>2026-04-01T08:37:35.999Z</time></trkpt><trkpt lat="38.98808138014868" lon="8.684023971546711"><ele>66.0</ele><time>2026-04-01T08:37:36.999Z</time></trkpt><trkpt lat="38.988044007804724" lon="8.684234611165245"><ele>67.0</ele><time>2026-04-01T08:37:37.999Z</time></trkpt><trkpt lat="38.98800872333638" lon="8.684448341270148"><ele>67.33333333333333</ele><time>2026-04-01T08:37:38.999Z</time></trkpt><trkpt lat="38.98797394232645" lon="8.684663977694903"><ele>67.66666666666667</ele><time>2026-04-01T08:37:39.999Z</time></trkpt><trkpt lat="38.987935773576815" lon="8.684879597977393"><ele>68.0</ele><time>2026-04-01T08:37:40.999Z</time></trkpt><trkpt lat="38.98789702426599" lon="8.685095502138928"><ele>68.33333333333334</ele><time>2026-04-01T08:37:41.999Z</time></trkpt><trkpt lat="38.987861454743296" lon="8.685310365061202"><ele>68.66666666666667</ele><time>2026-04-01T08:37:42.999Z</time></trkpt><trkpt lat="38.98782561741235" lon="8.68552475200623"><ele>69.0</ele><time>2026-04-01T08:37:43.999Z</time></trkpt><trkpt lat="38.9877885470323" lon="8.685738396977237"><ele>69.0</ele><time>2026-04-01T08:37:44.999Z</time></trkpt><trkpt lat="38.987752900697146" lon="8.685953409992921"><ele>69.0</ele><time>2026-04-01T08:37:46Z</time></trkpt><trkpt lat="38.987715660786506" lon="8.686168322979583"><ele>69.0</ele><time>2026-04-01T08:37:47Z</time></trkpt><trkpt lat="38.98767999947616" lon="8.686381049073956"><ele>68.33333333333333</ele><time>2026-04-01T08:37:48Z</time></trkpt><trkpt lat="38.987641863965635" lon="8.686594009448399"><ele>67.66666666666666</ele><time>2026-04-01T08:37:49Z</time></trkpt><trkpt lat="38.98760598280445" lon="8.686804755436942"><ele>67.0</ele><time>2026-04-01T08:37:50Z</time></trkpt><trkpt lat="38.987570681180074" lon="8.687012511438503"><ele>68.0</ele><time>2026-04-01T08:37:51Z</time></trkpt><trkpt lat="38.987536001583194" lon="8.687219390967783"><ele>69.0</ele><time>2026-04-01T08:37:52Z</time></trkpt><trkpt lat="38.98750322870589" lon="8.687426543511418"><ele>70.0</ele><time>2026-04-01T08:37:53Z</time></trkpt><trkpt lat="38.98746576645639" lon="8.687632078716494"><ele>70.33333333333333</ele><time>2026-04-01T08:37:54Z</time></trkpt><trkpt lat="38.98742906239301" lon="8.687837336623664"><ele>70.66666666666667</ele><time>2026-04-01T08:37:55Z</time></trkpt><trkpt lat="38.98739157514143" lon="8.688045648728428"><ele>71.0</ele><time>2026-04-01T08:37:56Z</time></trkpt><trkpt lat="38.987354756820444" lon="8.688253121785072"><ele>71.0</ele><time>2026-04-01T08:37:57Z</time></trkpt><trkpt lat="38.98732089540706" lon="8.688464762400502"><ele>71.0</ele><time>2026-04-01T08:37:58Z</time></trkpt><trkpt lat="38.98728421509495" lon="8.68867700281945"><ele>71.0</ele><time>2026-04-01T08:37:59Z</time></trkpt><trkpt lat="38.987247468545625" lon="8.68888769433644"><ele>71.66666666666667</ele><time>2026-04-01T08:38:00Z</time></trkpt><trkpt lat="38.98721208997201" lon="8.6891016301632"><ele>72.33333333333333</ele><time>2026-04-01T08:38:01Z</time></trkpt><trkpt lat="38.987177380164184" lon="8.689314622521513"><ele>73.0</ele><time>2026-04-01T08:38:02Z</time></trkpt><trkpt lat="38.987139952555914" lon="8.68952707850973"><ele>73.0</ele><time>2026-04-01T08:38:03Z</time></trkpt><trkpt lat="38.98710211631061" lon="8.689739954934524"><ele>73.0</ele><time>2026-04-01T08:38:04Z</time></trkpt><trkpt lat="38.98706463811774" lon="8.689952364520964"><ele>73.0</ele><time>2026-04-01T08:38:05Z</time></trkpt><trkpt lat="38.98702635771154" lon="8.690164621004064"><ele>72.66666666666666</ele><time>2026-04-01T08:38:06Z</time></trkpt><trkpt lat="38.98699251062669" lon="8.690377024337794"><ele>72.33333333333333</ele><time>2026-04-01T08:38:07Z</time></trkpt><trkpt lat="38.98695513318087" lon="8.69059213921418"><ele>72.0</ele><time>2026-04-01T08:38:08Z</time></trkpt><trkpt lat="38.986915640611954" lon="8.690806027361464"><ele>72.0</ele><time>2026-04-01T08:38:09Z</time></trkpt><trkpt lat="38.98688116222421" lon="8.691021121368188"><ele>72.0</ele><time>2026-04-01T08:38:10Z</time></trkpt><trkpt lat="38.98684701553311" lon="8.691237171483124"><ele>72.0</ele><time>2026-04-01T08:38:11Z</time></trkpt><trkpt lat="38.98681115091253" lon="8.691454163923586"><ele>72.0</ele><time>2026-04-01T08:38:12Z</time></trkpt><trkpt lat="38.98677287091108" lon="8.691665892230242"><ele>72.0</ele><time>2026-04-01T08:38:13Z</time></trkpt><trkpt lat="38.98673631512533" lon="8.6918775670742"><ele>72.0</ele><time>2026-04-01T08:38:14Z</time></trkpt><trkpt lat="38.98669872130675" lon="8.692093089174758"><ele>71.33333333333333</ele><time>2026-04-01T08:38:15Z</time></trkpt><trkpt lat="38.98666270426945" lon="8.692307334731577"><ele>70.66666666666666</ele><time>2026-04-01T08:38:16Z</time></trkpt><trkpt lat="38.9866245269451" lon="8.692521116058511"><ele>70.0</ele><time>2026-04-01T08:38:17Z</time></trkpt><trkpt lat="38.98658725837083" lon="8.692732985162287"><ele>70.66666666666666</ele><time>2026-04-01T08:38:18Z</time></trkpt><trkpt lat="38.98655052913027" lon="8.692947936862856"><ele>71.33333333333333</ele><time>2026-04-01T08:38:19Z</time></trkpt><trkpt lat="38.98651245381869" lon="8.693159186735148"><ele>72.0</ele><time>2026-04-01T08:38:20Z</time></trkpt><trkpt lat="38.98647692134435" lon="8.693369333432589"><ele>72.0</ele><time>2026-04-01T08:38:21Z</time></trkpt><trkpt lat="38.98644337626436" lon="8.693582888097486"><ele>72.0</ele><time>2026-04-01T08:38:22Z</time></trkpt><trkpt lat="38.9864080186788" lon="8.693797697277205"><ele>72.0</ele><time>2026-04-01T08:38:23Z</time></trkpt><trkpt lat="38.986371520925786" lon="8.694011398684914"><ele>73.0</ele><time>2026-04-01T08:38:24Z</time></trkpt><trkpt lat="38.986330806672754" lon="8.694226347760928"><ele>74.0</ele><time>2026-04-01T08:38:25Z</time></trkpt><trkpt lat="38.98629427406465" lon="8.694440613479147"><ele>75.0</ele><time>2026-04-01T08:38:26Z</time></trkpt><trkpt lat="38.98625630036104" lon="8.6946569967652"><ele>76.0</ele><time>2026-04-01T08:38:27Z</time></trkpt><trkpt lat="38.98621712900229" lon="8.694875416394853"><ele>77.0</ele><time>2026-04-01T08:38:28Z</time></trkpt><trkpt lat="38.98617740939606" lon="8.695093874934631"><ele>78.0</ele><time>2026-04-01T08:38:29Z</time></trkpt><trkpt lat="38.986140331514484" lon="8.69530935119397"><ele>79.33333333333333</ele><time>2026-04-01T08:38:30Z</time></trkpt><trkpt lat="38.986103889527946" lon="8.695526137411516"><ele>80.66666666666666</ele><time>2026-04-01T08:38:31Z</time></trkpt><trkpt lat="38.98607115298541" lon="8.6957428003603"><ele>82.0</ele><time>2026-04-01T08:38:32Z</time></trkpt><trkpt lat="38.98603569197656" lon="8.695955447576601"><ele>83.0</ele><time>2026-04-01T08:38:33Z</time></trkpt><trkpt lat="38.98599965222106" lon="8.696170314710624"><ele>84.0</ele><time>2026-04-01T08:38:34Z</time></trkpt><trkpt lat="38.985969858428" lon="8.696383936109603"><ele>85.0</ele><time>2026-04-01T08:38:35Z</time></trkpt><trkpt lat="38.985942399632165" lon="8.696594329341776"><ele>85.0</ele><time>2026-04-01T08:38:36Z</time></trkpt><trkpt lat="38.98590949171621" lon="8.696807566478107"><ele>85.0</ele><time>2026-04-01T08:38:37Z</time></trkpt><trkpt lat="38.9858823350576" lon="8.697020572545258"><ele>85.0</ele><time>2026-04-01T08:38:38Z</time></trkpt><trkpt lat="38.98585485771623" lon="8.6972335757742"><ele>85.0</ele><time>2026-04-01T08:38:39Z</time></trkpt><trkpt lat="38.985827796899116" lon="8.697447931959879"><ele>85.0</ele><time>2026-04-01T08:38:40Z</time></trkpt><trkpt lat="38.98579850523729" lon="8.697664124235146"><ele>85.0</ele><time>2026-04-01T08:38:41Z</time></trkpt><trkpt lat="38.9857697390913" lon="8.697881677774664"><ele>86.33333333333333</ele><time>2026-04-01T08:38:42Z</time></trkpt><trkpt lat="38.98573544005435" lon="8.698101298994708"><ele>87.66666666666667</ele><time>2026-04-01T08:38:43Z</time></trkpt><trkpt lat="38.98569416317367" lon="8.698318700322483"><ele>89.0</ele><time>2026-04-01T08:38:44Z</time></trkpt><trkpt lat="38.985641651631354" lon="8.69853137801325"><ele>90.0</ele><time>2026-04-01T08:38:45Z</time></trkpt><trkpt lat="38.98558088656493" lon="8.69874112699509"><ele>91.0</ele><time>2026-04-01T08:38:46Z</time></trkpt><trkpt lat="38.9855120700259" lon="8.698951247396707"><ele>92.0</ele><time>2026-04-01T08:38:47Z</time></trkpt><trkpt lat="38.98543972780939" lon="8.699163207912138"><ele>92.0</ele><time>2026-04-01T08:38:48Z</time></trkpt><trkpt lat="38.98536061071756" lon="8.699369189274883"><ele>92.0</ele><time>2026-04-01T08:38:49Z</time></trkpt><trkpt lat="38.985274939785036" lon="8.699570873314933"><ele>92.0</ele><time>2026-04-01T08:38:50Z</time></trkpt><trkpt lat="38.98517848545417" lon="8.69976920516305"><ele>92.33333333333334</ele><time>2026-04-01T08:38:51Z</time></trkpt><trkpt lat="38.98508098466548" lon="8.699956035264231"><ele>92.66666666666667</ele><time>2026-04-01T08:38:52Z</time></trkpt><trkpt lat="38.984986411713045" lon="8.70012809938886"><ele>93.0</ele><time>2026-04-01T08:38:53Z</time></trkpt><trkpt lat="38.984901143690486" lon="8.700288102032625"><ele>93.25</ele><time>2026-04-01T08:38:54Z</time></trkpt><trkpt lat="38.98482717071386" lon="8.700443695277531"><ele>93.5</ele><time>2026-04-01T08:38:55Z</time></trkpt><trkpt lat="38.984754883587485" lon="8.70059085904459"><ele>93.75</ele><time>2026-04-01T08:38:56Z</time></trkpt><trkpt lat="38.98467698144219" lon="8.70073477753023"><ele>94.0</ele><time>2026-04-01T08:38:57Z</time></trkpt><trkpt lat="38.98459805779769" lon="8.700886226155706"><ele>94.0</ele><time>2026-04-01T08:38:58Z</time></trkpt><trkpt lat="38.984515029212524" lon="8.701042706504397"><ele>94.0</ele><time>2026-04-01T08:38:59Z</time></trkpt><trkpt lat="38.98442950355895" lon="8.701204950964211"><ele>94.0</ele><time>2026-04-01T08:39:00Z</time></trkpt><trkpt lat="38.984340810352315" lon="8.701370309707201"><ele>93.66666666666666</ele><time>2026-04-01T08:39:01Z</time></trkpt><trkpt lat="38.984252708170196" lon="8.701542650406557"><ele>93.33333333333333</ele><time>2026-04-01T08:39:02Z</time></trkpt><trkpt lat="38.98417192126109" lon="8.701723583667647"><ele>93.0</ele><time>2026-04-01T08:39:03Z</time></trkpt><trkpt lat="38.98409029178165" lon="8.701912709984024"><ele>91.66666666666667</ele><time>2026-04-01T08:39:04Z</time></trkpt><trkpt lat="38.983982223733015" lon="8.70208460704189"><ele>90.33333333333334</ele><time>2026-04-01T08:39:05Z</time></trkpt><trkpt lat="38.983888276973055" lon="8.702262557709078"><ele>89.0</ele><time>2026-04-01T08:39:06Z</time></trkpt><trkpt lat="38.98379309831106" lon="8.702442841823009"><ele>89.0</ele><time>2026-04-01T08:39:07Z</time></trkpt><trkpt lat="38.98369743720091" lon="8.70261825257782"><ele>89.0</ele><time>2026-04-01T08:39:08Z</time></trkpt><trkpt lat="38.98359667660551" lon="8.702771215552982"><ele>89.0</ele><time>2026-04-01T08:39:09Z</time></trkpt><trkpt lat="38.983481336821015" lon="8.702919886367116"><ele>85.5</ele><time>2026-04-01T08:39:10.001Z</time></trkpt><trkpt lat="38.98328575459916" lon="8.703138944586902"><ele>82.0</ele><time>2026-04-01T08:39:11Z</time></trkpt><trkpt lat="38.98311980863847" lon="8.703280405809668"><ele>82.0</ele><time>2026-04-01T08:39:12Z</time></trkpt><trkpt lat="38.982747599763" lon="8.703525223495323"><ele>82.0</ele><time>2026-04-01T08:39:14Z</time></trkpt><trkpt lat="38.98256447804642" lon="8.703638159440953"><ele>80.33333333333333</ele><time>2026-04-01T08:39:15Z</time></trkpt><trkpt lat="38.98238016997672" lon="8.703753088032379"><ele>78.66666666666667</ele><time>2026-04-01T08:39:16Z</time></trkpt><trkpt lat="38.982203915430944" lon="8.703876788328268"><ele>77.0</ele><time>2026-04-01T08:39:17Z</time></trkpt><trkpt lat="38.982016147207474" lon="8.703955526833296"><ele>77.0</ele><time>2026-04-01T08:39:18Z</time></trkpt><trkpt lat="38.98182956607511" lon="8.70404782271717"><ele>77.0</ele><time>2026-04-01T08:39:19Z</time></trkpt><trkpt lat="38.98163281065808" lon="8.704137906672845"><ele>77.0</ele><time>2026-04-01T08:39:20Z</time></trkpt><trkpt lat="38.98143664745847" lon="8.704218169348438"><ele>79.0</ele><time>2026-04-01T08:39:21Z</time></trkpt><trkpt lat="38.981237164959964" lon="8.704291419896464"><ele>81.0</ele><time>2026-04-01T08:39:22Z</time></trkpt><trkpt lat="38.98104004712281" lon="8.704360525916409"><ele>83.0</ele><time>2026-04-01T08:39:23Z</time></trkpt><trkpt lat="38.980842639018746" lon="8.704444630677097"><ele>78.66666666666667</ele><time>2026-04-01T08:39:24Z</time></trkpt><trkpt lat="38.98064747377414" lon="8.70450826515559"><ele>74.33333333333333</ele><time>2026-04-01T08:39:25Z</time></trkpt><trkpt lat="38.98045346786993" lon="8.704572445358098"><ele>70.0</ele><time>2026-04-01T08:39:26Z</time></trkpt><trkpt lat="38.980253876455976" lon="8.704636761697097"><ele>70.0</ele><time>2026-04-01T08:39:27Z</time></trkpt><trkpt lat="38.980051884414806" lon="8.704706629832595"><ele>70.0</ele><time>2026-04-01T08:39:28Z</time></trkpt><trkpt lat="38.97984771467096" lon="8.70478133640531"><ele>70.0</ele><time>2026-04-01T08:39:29.001Z</time></trkpt><trkpt lat="38.979648913929324" lon="8.704858547090383"><ele>70.0</ele><time>2026-04-01T08:39:30Z</time></trkpt><trkpt lat="38.97945645041946" lon="8.704928004794258"><ele>70.0</ele><time>2026-04-01T08:39:31.001Z</time></trkpt><trkpt lat="38.97926583638923" lon="8.70498819789953"><ele>70.0</ele><time>2026-04-01T08:39:32.001Z</time></trkpt><trkpt lat="38.97907911295626" lon="8.705048759198203"><ele>71.0</ele><time>2026-04-01T08:39:33.001Z</time></trkpt><trkpt lat="38.97890008135193" lon="8.705117351843887"><ele>72.0</ele><time>2026-04-01T08:39:34.001Z</time></trkpt><trkpt lat="38.97871385901759" lon="8.705180288047476"><ele>73.0</ele><time>2026-04-01T08:39:35Z</time></trkpt><trkpt lat="38.97853011516298" lon="8.705255254359052"><ele>68.66666666666666</ele><time>2026-04-01T08:39:36Z</time></trkpt><trkpt lat="38.97834014489246" lon="8.705323981829984"><ele>64.33333333333333</ele><time>2026-04-01T08:39:37Z</time></trkpt><trkpt lat="38.97814604229435" lon="8.705393172041399"><ele>60.0</ele><time>2026-04-01T08:39:38Z</time></trkpt><trkpt lat="38.97795354552557" lon="8.705471678646358"><ele>60.0</ele><time>2026-04-01T08:39:39Z</time></trkpt><trkpt lat="38.97777254649518" lon="8.705588729289502"><ele>60.0</ele><time>2026-04-01T08:39:40Z</time></trkpt><trkpt lat="38.97760496682067" lon="8.705739696338728"><ele>60.0</ele><time>2026-04-01T08:39:41Z</time></trkpt><trkpt lat="38.97744750631444" lon="8.70590820100525"><ele>58.0</ele><time>2026-04-01T08:39:42Z</time></trkpt><trkpt lat="38.97729719935643" lon="8.706094203604124"><ele>56.0</ele><time>2026-04-01T08:39:43Z</time></trkpt><trkpt lat="38.97715611710581" lon="8.706300712086792"><ele>54.0</ele><time>2026-04-01T08:39:44Z</time></trkpt><trkpt lat="38.97703670126942" lon="8.70652563571629"><ele>54.0</ele><time>2026-04-01T08:39:45Z</time></trkpt><trkpt lat="38.97693708056216" lon="8.706760964013114"><ele>54.0</ele><time>2026-04-01T08:39:46Z</time></trkpt><trkpt lat="38.976832723974745" lon="8.70699770626152"><ele>54.0</ele><time>2026-04-01T08:39:47Z</time></trkpt><trkpt lat="38.97672567869848" lon="8.70723219287828"><ele>54.0</ele><time>2026-04-01T08:39:48Z</time></trkpt><trkpt lat="38.976618713215565" lon="8.707462239200488"><ele>54.0</ele><time>2026-04-01T08:39:49Z</time></trkpt><trkpt lat="38.97651488019329" lon="8.707684861807463"><ele>54.0</ele><time>2026-04-01T08:39:50Z</time></trkpt><trkpt lat="38.976413524532916" lon="8.707899306255564"><ele>54.0</ele><time>2026-04-01T08:39:51Z</time></trkpt><trkpt lat="38.9763095566553" lon="8.708106357585464"><ele>54.0</ele><time>2026-04-01T08:39:52Z</time></trkpt><trkpt lat="38.97620156959791" lon="8.708316673032991"><ele>54.0</ele><time>2026-04-01T08:39:53Z</time></trkpt><trkpt lat="38.97610102966853" lon="8.70852352367452"><ele>54.0</ele><time>2026-04-01T08:39:54Z</time></trkpt><trkpt lat="38.97601020287972" lon="8.708736956750997"><ele>54.0</ele><time>2026-04-01T08:39:55Z</time></trkpt><trkpt lat="38.97593756724309" lon="8.708954966882088"><ele>54.0</ele><time>2026-04-01T08:39:56Z</time></trkpt><trkpt lat="38.97588260392083" lon="8.7091855012958"><ele>52.66666666666667</ele><time>2026-04-01T08:39:57Z</time></trkpt><trkpt lat="38.9758293659985" lon="8.709418112861616"><ele>51.333333333333336</ele><time>2026-04-01T08:39:58Z</time></trkpt><trkpt lat="38.97577035438434" lon="8.709650352548275"><ele>50.0</ele><time>2026-04-01T08:39:59Z</time></trkpt><trkpt lat="38.97570802118546" lon="8.709881435173795"><ele>50.0</ele><time>2026-04-01T08:40:00Z</time></trkpt><trkpt lat="38.9756491874299" lon="8.71011382428948"><ele>50.0</ele><time>2026-04-01T08:40:01Z</time></trkpt><trkpt lat="38.975590694247096" lon="8.710351018317683"><ele>50.0</ele><time>2026-04-01T08:40:02Z</time></trkpt><trkpt lat="38.97552847888151" lon="8.710585744439864"><ele>50.0</ele><time>2026-04-01T08:40:03Z</time></trkpt><trkpt lat="38.97546739889623" lon="8.710822878945143"><ele>50.0</ele><time>2026-04-01T08:40:04Z</time></trkpt><trkpt lat="38.975405388752314" lon="8.711062753911028"><ele>50.0</ele><time>2026-04-01T08:40:05Z</time></trkpt><trkpt lat="38.97534569006598" lon="8.711303320827446"><ele>50.0</ele><time>2026-04-01T08:40:06Z</time></trkpt><trkpt lat="38.975282750580796" lon="8.711547844914906"><ele>50.0</ele><time>2026-04-01T08:40:07Z</time></trkpt><trkpt lat="38.97521771563915" lon="8.711789579841863"><ele>50.0</ele><time>2026-04-01T08:40:08Z</time></trkpt><trkpt lat="38.975155881839825" lon="8.71202947297068"><ele>49.333333333333336</ele><time>2026-04-01T08:40:09Z</time></trkpt><trkpt lat="38.97509503277272" lon="8.712273975339416"><ele>48.66666666666667</ele><time>2026-04-01T08:40:10Z</time></trkpt><trkpt lat="38.975032911185146" lon="8.712516257708806"><ele>48.0</ele><time>2026-04-01T08:40:11Z</time></trkpt><trkpt lat="38.97496721612771" lon="8.712759085002716"><ele>47.666666666666664</ele><time>2026-04-01T08:40:12Z</time></trkpt><trkpt lat="38.974904437466265" lon="8.712997633530598"><ele>47.33333333333333</ele><time>2026-04-01T08:40:13Z</time></trkpt><trkpt lat="38.97484159462783" lon="8.713239076053256"><ele>47.0</ele><time>2026-04-01T08:40:14Z</time></trkpt><trkpt lat="38.97477904930158" lon="8.713478468062945"><ele>47.0</ele><time>2026-04-01T08:40:15Z</time></trkpt><trkpt lat="38.97471898079404" lon="8.713718505227703"><ele>47.0</ele><time>2026-04-01T08:40:16Z</time></trkpt><trkpt lat="38.97465863025137" lon="8.713955125129683"><ele>47.0</ele><time>2026-04-01T08:40:17Z</time></trkpt><trkpt lat="38.97459586155277" lon="8.714183224108298"><ele>46.666666666666664</ele><time>2026-04-01T08:40:18Z</time></trkpt><trkpt lat="38.97453209777906" lon="8.714415358113"><ele>46.333333333333336</ele><time>2026-04-01T08:40:19Z</time></trkpt><trkpt lat="38.97447178805358" lon="8.714645595903447"><ele>46.0</ele><time>2026-04-01T08:40:20Z</time></trkpt><trkpt lat="38.97441178293899" lon="8.714877077139821"><ele>46.0</ele><time>2026-04-01T08:40:21Z</time></trkpt><trkpt lat="38.97435389783104" lon="8.715106761215399"><ele>46.0</ele><time>2026-04-01T08:40:22Z</time></trkpt><trkpt lat="38.97429275952175" lon="8.715338187529381"><ele>46.0</ele><time>2026-04-01T08:40:23Z</time></trkpt><trkpt lat="38.974233041265094" lon="8.715570216099167"><ele>44.66666666666667</ele><time>2026-04-01T08:40:24Z</time></trkpt><trkpt lat="38.974178281426" lon="8.715800250806097"><ele>43.333333333333336</ele><time>2026-04-01T08:40:25Z</time></trkpt><trkpt lat="38.97411852464045" lon="8.716030176395451"><ele>42.0</ele><time>2026-04-01T08:40:26Z</time></trkpt><trkpt lat="38.97405804596531" lon="8.716255370613856"><ele>42.0</ele><time>2026-04-01T08:40:27Z</time></trkpt><trkpt lat="38.9739951250765" lon="8.716480227941693"><ele>42.0</ele><time>2026-04-01T08:40:28Z</time></trkpt><trkpt lat="38.97393851976592" lon="8.716701218522282"><ele>42.0</ele><time>2026-04-01T08:40:29Z</time></trkpt><trkpt lat="38.97388475415728" lon="8.71692068189989"><ele>42.333333333333336</ele><time>2026-04-01T08:40:30Z</time></trkpt><trkpt lat="38.97382917908784" lon="8.717133174664578"><ele>42.66666666666667</ele><time>2026-04-01T08:40:31Z</time></trkpt><trkpt lat="38.973776210351254" lon="8.717336109005668"><ele>43.0</ele><time>2026-04-01T08:40:32Z</time></trkpt><trkpt lat="38.97372380072869" lon="8.717534203970034"><ele>43.0</ele><time>2026-04-01T08:40:33Z</time></trkpt><trkpt lat="38.97366530013051" lon="8.717719479052091"><ele>43.0</ele><time>2026-04-01T08:40:34Z</time></trkpt><trkpt lat="38.97359635360808" lon="8.717899848281267"><ele>43.0</ele><time>2026-04-01T08:40:35Z</time></trkpt><trkpt lat="38.973512455457254" lon="8.718067288598315"><ele>42.333333333333336</ele><time>2026-04-01T08:40:36Z</time></trkpt><trkpt lat="38.9734148897842" lon="8.71822808226078"><ele>41.666666666666664</ele><time>2026-04-01T08:40:37Z</time></trkpt><trkpt lat="38.97331457204213" lon="8.718395819627833"><ele>41.0</ele><time>2026-04-01T08:40:38Z</time></trkpt><trkpt lat="38.97321083146643" lon="8.718570124648638"><ele>40.0</ele><time>2026-04-01T08:40:39Z</time></trkpt><trkpt lat="38.97311047195542" lon="8.718753239739558"><ele>39.0</ele><time>2026-04-01T08:40:40Z</time></trkpt><trkpt lat="38.97300565781705" lon="8.718934780162368"><ele>38.0</ele><time>2026-04-01T08:40:41Z</time></trkpt><trkpt lat="38.97289999194973" lon="8.719116993689346"><ele>38.0</ele><time>2026-04-01T08:40:42Z</time></trkpt><trkpt lat="38.972795459299235" lon="8.71929535423846"><ele>38.0</ele><time>2026-04-01T08:40:43Z</time></trkpt><trkpt lat="38.97269417516377" lon="8.719480127001308"><ele>38.0</ele><time>2026-04-01T08:40:44Z</time></trkpt><trkpt lat="38.97258874564061" lon="8.719667358120848"><ele>37.33333333333333</ele><time>2026-04-01T08:40:45Z</time></trkpt><trkpt lat="38.972480282777894" lon="8.719853073705359"><ele>36.666666666666664</ele><time>2026-04-01T08:40:46Z</time></trkpt><trkpt lat="38.97237348222005" lon="8.720036289045416"><ele>36.0</ele><time>2026-04-01T08:40:47Z</time></trkpt><trkpt lat="38.97227093299914" lon="8.720225130354612"><ele>37.0</ele><time>2026-04-01T08:40:48Z</time></trkpt><trkpt lat="38.972163537301334" lon="8.720410667507867"><ele>38.0</ele><time>2026-04-01T08:40:49Z</time></trkpt><trkpt lat="38.9720547621559" lon="8.72059683638343"><ele>39.0</ele><time>2026-04-01T08:40:50Z</time></trkpt><trkpt lat="38.97194741472132" lon="8.720785338210863"><ele>39.0</ele><time>2026-04-01T08:40:51Z</time></trkpt><trkpt lat="38.971839057803194" lon="8.720969009729103"><ele>39.0</ele><time>2026-04-01T08:40:52Z</time></trkpt><trkpt lat="38.9717348825417" lon="8.721155557053349"><ele>39.0</ele><time>2026-04-01T08:40:53Z</time></trkpt><trkpt lat="38.971631406971724" lon="8.72134398363765"><ele>39.333333333333336</ele><time>2026-04-01T08:40:54Z</time></trkpt><trkpt lat="38.971525667036566" lon="8.721528565780451"><ele>39.66666666666667</ele><time>2026-04-01T08:40:55Z</time></trkpt><trkpt lat="38.97141636235811" lon="8.721714762251606"><ele>40.0</ele><time>2026-04-01T08:40:56Z</time></trkpt><trkpt lat="38.97131242284546" lon="8.721899834616627"><ele>43.66666666666667</ele><time>2026-04-01T08:40:57Z</time></trkpt><trkpt lat="38.97120401219139" lon="8.722084039271607"><ele>47.333333333333336</ele><time>2026-04-01T08:40:58Z</time></trkpt><trkpt lat="38.971094576405015" lon="8.72227636307561"><ele>51.0</ele><time>2026-04-01T08:40:59Z</time></trkpt><trkpt lat="38.97098701635224" lon="8.722464983683059"><ele>51.0</ele><time>2026-04-01T08:41:00Z</time></trkpt><trkpt lat="38.97088001009304" lon="8.722651242803469"><ele>51.0</ele><time>2026-04-01T08:41:01Z</time></trkpt><trkpt lat="38.97077146538767" lon="8.722839849667814"><ele>51.0</ele><time>2026-04-01T08:41:02Z</time></trkpt><trkpt lat="38.970667320856585" lon="8.723029658330537"><ele>52.33333333333333</ele><time>2026-04-01T08:41:03Z</time></trkpt><trkpt lat="38.97057174875399" lon="8.723227524415051"><ele>53.666666666666664</ele><time>2026-04-01T08:41:04Z</time></trkpt><trkpt lat="38.970483367425274" lon="8.723434444262201"><ele>55.0</ele><time>2026-04-01T08:41:05Z</time></trkpt><trkpt lat="38.97039896504365" lon="8.723645292133888"><ele>55.0</ele><time>2026-04-01T08:41:06Z</time></trkpt><trkpt lat="38.97031630955876" lon="8.723859046727412"><ele>55.0</ele><time>2026-04-01T08:41:07Z</time></trkpt><trkpt lat="38.97023551719311" lon="8.72407291249957"><ele>55.0</ele><time>2026-04-01T08:41:08Z</time></trkpt><trkpt lat="38.970152164328226" lon="8.72428541427779"><ele>55.666666666666664</ele><time>2026-04-01T08:41:09Z</time></trkpt><trkpt lat="38.97006254612898" lon="8.72450083180969"><ele>56.33333333333333</ele><time>2026-04-01T08:41:10Z</time></trkpt><trkpt lat="38.969980827886175" lon="8.724712691514316"><ele>57.0</ele><time>2026-04-01T08:41:11Z</time></trkpt><trkpt lat="38.969896597541336" lon="8.72492913817232"><ele>54.0</ele><time>2026-04-01T08:41:12Z</time></trkpt><trkpt lat="38.969811191978955" lon="8.725142024460299"><ele>51.0</ele><time>2026-04-01T08:41:13Z</time></trkpt><trkpt lat="38.969723910158486" lon="8.725350667526481"><ele>48.0</ele><time>2026-04-01T08:41:14Z</time></trkpt><trkpt lat="38.96963987590618" lon="8.725560996787848"><ele>48.0</ele><time>2026-04-01T08:41:15Z</time></trkpt><trkpt lat="38.96955614542388" lon="8.725771857929129"><ele>48.0</ele><time>2026-04-01T08:41:16.001Z</time></trkpt><trkpt lat="38.96947303550443" lon="8.725988055944061"><ele>48.0</ele><time>2026-04-01T08:41:17.001Z</time></trkpt><trkpt lat="38.96939230848692" lon="8.726201408774452"><ele>47.666666666666664</ele><time>2026-04-01T08:41:18.001Z</time></trkpt><trkpt lat="38.96930927658985" lon="8.72641636461495"><ele>47.33333333333333</ele><time>2026-04-01T08:41:19.001Z</time></trkpt><trkpt lat="38.96922087626297" lon="8.726628728976909"><ele>47.0</ele><time>2026-04-01T08:41:20.001Z</time></trkpt><trkpt lat="38.96912511462505" lon="8.726842650364924"><ele>48.0</ele><time>2026-04-01T08:41:21.001Z</time></trkpt><trkpt lat="38.969014318456495" lon="8.727046718769794"><ele>49.0</ele><time>2026-04-01T08:41:22.001Z</time></trkpt><trkpt lat="38.968885175225495" lon="8.727237791352426"><ele>50.0</ele><time>2026-04-01T08:41:23.001Z</time></trkpt><trkpt lat="38.968749055707946" lon="8.727427581778164"><ele>50.0</ele><time>2026-04-01T08:41:24.001Z</time></trkpt><trkpt lat="38.968598726420936" lon="8.727611147624783"><ele>50.0</ele><time>2026-04-01T08:41:25.001Z</time></trkpt><trkpt lat="38.968450308099094" lon="8.72779746994528"><ele>50.0</ele><time>2026-04-01T08:41:26.001Z</time></trkpt><trkpt lat="38.96830885998206" lon="8.727993630306818"><ele>50.0</ele><time>2026-04-01T08:41:27.001Z</time></trkpt><trkpt lat="38.968162834030785" lon="8.728189885622452"><ele>50.0</ele><time>2026-04-01T08:41:28.001Z</time></trkpt><trkpt lat="38.96801954877579" lon="8.72838291426727"><ele>50.0</ele><time>2026-04-01T08:41:29.001Z</time></trkpt><trkpt lat="38.96787775929682" lon="8.728570887404976"><ele>50.0</ele><time>2026-04-01T08:41:30.001Z</time></trkpt><trkpt lat="38.967735412542794" lon="8.72876037904658"><ele>50.0</ele><time>2026-04-01T08:41:31.001Z</time></trkpt><trkpt lat="38.96759250878384" lon="8.72895032129668"><ele>50.0</ele><time>2026-04-01T08:41:32.001Z</time></trkpt><trkpt lat="38.96744921416259" lon="8.729142350621672"><ele>49.333333333333336</ele><time>2026-04-01T08:41:33.001Z</time></trkpt><trkpt lat="38.96730565168512" lon="8.7293352382506"><ele>48.66666666666667</ele><time>2026-04-01T08:41:34.001Z</time></trkpt><trkpt lat="38.9671623168738" lon="8.72952648000765"><ele>48.0</ele><time>2026-04-01T08:41:35.001Z</time></trkpt><trkpt lat="38.96702080870055" lon="8.72971691397716"><ele>49.66666666666667</ele><time>2026-04-01T08:41:36.001Z</time></trkpt><trkpt lat="38.966877769174026" lon="8.729909749526614"><ele>51.333333333333336</ele><time>2026-04-01T08:41:37.001Z</time></trkpt><trkpt lat="38.966730956169904" lon="8.730098699351897"><ele>53.0</ele><time>2026-04-01T08:41:38.001Z</time></trkpt><trkpt lat="38.96659090177407" lon="8.730284376419501"><ele>55.0</ele><time>2026-04-01T08:41:39.001Z</time></trkpt><trkpt lat="38.96644969971891" lon="8.730477142260085"><ele>57.0</ele><time>2026-04-01T08:41:40.001Z</time></trkpt><trkpt lat="38.96630672976281" lon="8.730674200575153"><ele>59.0</ele><time>2026-04-01T08:41:41Z</time></trkpt><trkpt lat="38.96616259013099" lon="8.730868910359131"><ele>59.333333333333336</ele><time>2026-04-01T08:41:42Z</time></trkpt><trkpt lat="38.966018289451505" lon="8.731073990803894"><ele>59.66666666666667</ele><time>2026-04-01T08:41:43Z</time></trkpt><trkpt lat="38.96587839253737" lon="8.731314909996515"><ele>60.0</ele><time>2026-04-01T08:41:44Z</time></trkpt><trkpt lat="38.96573892062634" lon="8.73158548519272"><ele>60.0</ele><time>2026-04-01T08:41:45Z</time></trkpt><trkpt lat="38.96560148731761" lon="8.731883235710344"><ele>60.0</ele><time>2026-04-01T08:41:46Z</time></trkpt><trkpt lat="38.96546169940616" lon="8.732210006785389"><ele>62.5</ele><time>2026-04-01T08:41:47Z</time></trkpt><trkpt lat="38.965317648969446" lon="8.732552595043295"><ele>65.0</ele><time>2026-04-01T08:41:48Z</time></trkpt><trkpt lat="38.96516202344464" lon="8.732911204022765"><ele>58.0</ele><time>2026-04-01T08:41:49Z</time></trkpt><trkpt lat="38.965005034058166" lon="8.733268725179679"><ele>51.0</ele><time>2026-04-01T08:41:50Z</time></trkpt><trkpt lat="38.96486020430235" lon="8.733598077134117"><ele>50.0</ele><time>2026-04-01T08:41:51Z</time></trkpt><trkpt lat="38.96475397144162" lon="8.733921733915484"><ele>49.0</ele><time>2026-04-01T08:41:52Z</time></trkpt><trkpt lat="38.964639928188554" lon="8.734219680349899"><ele>47.5</ele><time>2026-04-01T08:41:53Z</time></trkpt><trkpt lat="38.96448394178163" lon="8.734520552544017"><ele>46.0</ele><time>2026-04-01T08:41:54Z</time></trkpt><trkpt lat="38.964228056620065" lon="8.73489516638984"><ele>44.5</ele><time>2026-04-01T08:41:55Z</time></trkpt><trkpt lat="38.96404997117859" lon="8.735184734258743"><ele>43.0</ele><time>2026-04-01T08:41:56Z</time></trkpt><trkpt lat="38.96384263709929" lon="8.73548300689111"><ele>42.5</ele><time>2026-04-01T08:41:57Z</time></trkpt><trkpt lat="38.96360969880398" lon="8.735786545953347"><ele>42.0</ele><time>2026-04-01T08:41:58Z</time></trkpt><trkpt lat="38.96336517257309" lon="8.736096433307651"><ele>39.5</ele><time>2026-04-01T08:41:59Z</time></trkpt><trkpt lat="38.96311843811462" lon="8.73639200981568"><ele>37.0</ele><time>2026-04-01T08:42:00Z</time></trkpt><trkpt lat="38.96286903739555" lon="8.736701762638825"><ele>37.5</ele><time>2026-04-01T08:42:01Z</time></trkpt><trkpt lat="38.962617343046475" lon="8.737032815026406"><ele>38.0</ele><time>2026-04-01T08:42:02Z</time></trkpt><trkpt lat="38.96237360689909" lon="8.737344724999149"><ele>37.0</ele><time>2026-04-01T08:42:03Z</time></trkpt><trkpt lat="38.96211331959876" lon="8.737673475405693"><ele>36.0</ele><time>2026-04-01T08:42:04Z</time></trkpt><trkpt lat="38.96186381608066" lon="8.737989053875678"><ele>34.0</ele><time>2026-04-01T08:42:05Z</time></trkpt><trkpt lat="38.96163485415337" lon="8.73827994145764"><ele>32.0</ele><time>2026-04-01T08:42:06Z</time></trkpt><trkpt lat="38.961423746015946" lon="8.738536081439559"><ele>31.5</ele><time>2026-04-01T08:42:07Z</time></trkpt><trkpt lat="38.96124298168034" lon="8.738764698966456"><ele>31.0</ele><time>2026-04-01T08:42:08Z</time></trkpt><trkpt lat="38.96108753574422" lon="8.738962518259505"><ele>31.0</ele><time>2026-04-01T08:42:09Z</time></trkpt><trkpt lat="38.96094963247822" lon="8.739148317619588"><ele>31.0</ele><time>2026-04-01T08:42:10Z</time></trkpt><trkpt lat="38.960822445433294" lon="8.739345175006115"><ele>31.0</ele><time>2026-04-01T08:42:11Z</time></trkpt><trkpt lat="38.96069067447973" lon="8.739566762858997"><ele>29.0</ele><time>2026-04-01T08:42:12Z</time></trkpt><trkpt lat="38.96062626565562" lon="8.73986878986732"><ele>27.0</ele><time>2026-04-01T08:42:13Z</time></trkpt><trkpt lat="38.96056114746261" lon="8.740136797670148"><ele>28.0</ele><time>2026-04-01T08:42:14Z</time></trkpt><trkpt lat="38.960486402385825" lon="8.740341514692867"><ele>29.0</ele><time>2026-04-01T08:42:15Z</time></trkpt><trkpt lat="38.960385125586335" lon="8.740518127901806"><ele>30.0</ele><time>2026-04-01T08:42:16Z</time></trkpt><trkpt lat="38.96025410715024" lon="8.740669341609307"><ele>30.0</ele><time>2026-04-01T08:42:17Z</time></trkpt><trkpt lat="38.96007164667764" lon="8.7407971878028"><ele>30.0</ele><time>2026-04-01T08:42:18Z</time></trkpt><trkpt lat="38.959868704654646" lon="8.740973301390076"><ele>30.333333333333336</ele><time>2026-04-01T08:42:19Z</time></trkpt><trkpt lat="38.959705585391234" lon="8.741107550804058"><ele>30.666666666666668</ele><time>2026-04-01T08:42:20Z</time></trkpt><trkpt lat="38.9595149319542" lon="8.741242403121074"><ele>31.0</ele><time>2026-04-01T08:42:21Z</time></trkpt><trkpt lat="38.95933325448844" lon="8.741332555908793"><ele>29.0</ele><time>2026-04-01T08:42:22Z</time></trkpt><trkpt lat="38.95912430272394" lon="8.741379297852326"><ele>27.0</ele><time>2026-04-01T08:42:23Z</time></trkpt><trkpt lat="38.958881193814996" lon="8.741461673209406"><ele>27.0</ele><time>2026-04-01T08:42:24Z</time></trkpt><trkpt lat="38.95861959089536" lon="8.74156074530317"><ele>27.0</ele><time>2026-04-01T08:42:25Z</time></trkpt><trkpt lat="38.95837768071843" lon="8.741687995291384"><ele>25.666666666666668</ele><time>2026-04-01T08:42:26Z</time></trkpt><trkpt lat="38.95817563383949" lon="8.741785073634503"><ele>24.333333333333336</ele><time>2026-04-01T08:42:27Z</time></trkpt><trkpt lat="38.958010647684304" lon="8.741874584667556"><ele>23.0</ele><time>2026-04-01T08:42:28Z</time></trkpt><trkpt lat="38.95785175019836" lon="8.74194430085583"><ele>23.25</ele><time>2026-04-01T08:42:29Z</time></trkpt><trkpt lat="38.95772646990911" lon="8.741999081097248"><ele>23.5</ele><time>2026-04-01T08:42:30Z</time></trkpt><trkpt lat="38.95761891860761" lon="8.74202689645524"><ele>23.75</ele><time>2026-04-01T08:42:31Z</time></trkpt><trkpt lat="38.95751694517072" lon="8.74202124800899"><ele>24.0</ele><time>2026-04-01T08:42:32Z</time></trkpt><trkpt lat="38.957409432582494" lon="8.741959338369496"><ele>22.333333333333332</ele><time>2026-04-01T08:42:33Z</time></trkpt><trkpt lat="38.957288608356734" lon="8.741831654469731"><ele>20.666666666666664</ele><time>2026-04-01T08:42:34Z</time></trkpt><trkpt lat="38.95717022041512" lon="8.741665027710404"><ele>19.0</ele><time>2026-04-01T08:42:35Z</time></trkpt><trkpt lat="38.95705387183978" lon="8.741466799411773"><ele>19.0</ele><time>2026-04-01T08:42:36Z</time></trkpt><trkpt lat="38.95694120278277" lon="8.741252202583368"><ele>19.0</ele><time>2026-04-01T08:42:37Z</time></trkpt><trkpt lat="38.95684731979456" lon="8.741061476211737"><ele>19.0</ele><time>2026-04-01T08:42:38Z</time></trkpt><trkpt lat="38.95676803442389" lon="8.740909319154536"><ele>19.666666666666664</ele><time>2026-04-01T08:42:39Z</time></trkpt><trkpt lat="38.95671340695873" lon="8.740818615032387"><ele>20.333333333333332</ele><time>2026-04-01T08:42:40Z</time></trkpt><trkpt lat="38.95667164116368" lon="8.740750710462136"><ele>21.0</ele><time>2026-04-01T08:42:42Z</time></trkpt><trkpt lat="38.956757273754114" lon="8.74074316959989"><ele>21.666666666666668</ele><time>2026-04-01T08:45:50.001Z</time></trkpt><trkpt lat="38.956814875007844" lon="8.740701125563447"><ele>22.333333333333336</ele><time>2026-04-01T08:45:51.001Z</time></trkpt><trkpt lat="38.956881497564694" lon="8.7406592838286"><ele>23.0</ele><time>2026-04-01T08:45:52.001Z</time></trkpt><trkpt lat="38.95694383737405" lon="8.740613972485553"><ele>23.0</ele><time>2026-04-01T08:45:53.001Z</time></trkpt><trkpt lat="38.957008877413394" lon="8.740555966658972"><ele>23.0</ele><time>2026-04-01T08:45:54.001Z</time></trkpt><trkpt lat="38.957071318101754" lon="8.740479780313366"><ele>23.0</ele><time>2026-04-01T08:45:55.001Z</time></trkpt><trkpt lat="38.95713051296823" lon="8.740408536464388"><ele>23.0</ele><time>2026-04-01T08:45:56.001Z</time></trkpt><trkpt lat="38.95627849286916" lon="8.740112394150493"><ele>30.0</ele><time>2026-04-01T08:45:57.001Z</time></trkpt><trkpt lat="38.95619399526459" lon="8.7399525694335"><ele>37.0</ele><time>2026-04-01T08:45:58.001Z</time></trkpt><trkpt lat="38.95608526520518" lon="8.739763997528348"><ele>44.0</ele><time>2026-04-01T08:45:59.001Z</time></trkpt><trkpt lat="38.955977436810265" lon="8.739579579666493"><ele>38.666666666666664</ele><time>2026-04-01T08:46:00.001Z</time></trkpt><trkpt lat="38.95585353778028" lon="8.739370117402979"><ele>33.333333333333336</ele><time>2026-04-01T08:46:01.001Z</time></trkpt><trkpt lat="38.95572821934238" lon="8.739153325158199"><ele>28.0</ele><time>2026-04-01T08:46:02.001Z</time></trkpt><trkpt lat="38.955577904823045" lon="8.738909698141557"><ele>28.0</ele><time>2026-04-01T08:46:03.001Z</time></trkpt><trkpt lat="38.955453314886924" lon="8.738704063943294"><ele>28.0</ele><time>2026-04-01T08:46:04.001Z</time></trkpt><trkpt lat="38.95535840097442" lon="8.73853018462003"><ele>28.0</ele><time>2026-04-01T08:46:05.001Z</time></trkpt><trkpt lat="38.95527678531195" lon="8.738316531290568"><ele>30.333333333333336</ele><time>2026-04-01T08:46:06.001Z</time></trkpt><trkpt lat="38.95521781021147" lon="8.738079763963583"><ele>32.666666666666664</ele><time>2026-04-01T08:46:07.001Z</time></trkpt><trkpt lat="38.955152298548875" lon="8.737835002875011"><ele>35.0</ele><time>2026-04-01T08:46:08.001Z</time></trkpt><trkpt lat="38.95507011932405" lon="8.737595795259079"><ele>29.0</ele><time>2026-04-01T08:46:09.001Z</time></trkpt><trkpt lat="38.954997683807385" lon="8.73736466449335"><ele>23.0</ele><time>2026-04-01T08:46:10.001Z</time></trkpt><trkpt lat="38.95492947786271" lon="8.737136134693095"><ele>17.0</ele><time>2026-04-01T08:46:11.001Z</time></trkpt><trkpt lat="38.95486939950543" lon="8.736911064927734"><ele>17.0</ele><time>2026-04-01T08:46:12.001Z</time></trkpt><trkpt lat="38.95477548426972" lon="8.736682210155115"><ele>17.0</ele><time>2026-04-01T08:46:13.001Z</time></trkpt><trkpt lat="38.954652221469516" lon="8.73643477859777"><ele>17.0</ele><time>2026-04-01T08:46:14.001Z</time></trkpt><trkpt lat="38.954529391188" lon="8.736165073141066"><ele>16.0</ele><time>2026-04-01T08:46:15.001Z</time></trkpt><trkpt lat="38.954422786464704" lon="8.735918696723047"><ele>15.0</ele><time>2026-04-01T08:46:16.001Z</time></trkpt><trkpt lat="38.95431245618" lon="8.735673012347466"><ele>14.0</ele><time>2026-04-01T08:46:17.001Z</time></trkpt><trkpt lat="38.954195257130415" lon="8.735420763981294"><ele>13.5</ele><time>2026-04-01T08:46:18.001Z</time></trkpt><trkpt lat="38.95407470364977" lon="8.73516430117524"><ele>13.0</ele><time>2026-04-01T08:46:19.001Z</time></trkpt><trkpt lat="38.95394586129362" lon="8.734887080822816"><ele>13.0</ele><time>2026-04-01T08:46:20.001Z</time></trkpt><trkpt lat="38.953829092987206" lon="8.734618811842473"><ele>13.0</ele><time>2026-04-01T08:46:21.001Z</time></trkpt><trkpt lat="38.953707021442646" lon="8.734352286523862"><ele>12.5</ele><time>2026-04-01T08:46:22.001Z</time></trkpt><trkpt lat="38.95358715150276" lon="8.734090302757254"><ele>12.0</ele><time>2026-04-01T08:46:23.001Z</time></trkpt><trkpt lat="38.953469137379386" lon="8.73382616619713"><ele>13.0</ele><time>2026-04-01T08:46:24.001Z</time></trkpt><trkpt lat="38.95335345049529" lon="8.733559127834601"><ele>14.0</ele><time>2026-04-01T08:46:25Z</time></trkpt><trkpt lat="38.95323425544992" lon="8.733291366326917"><ele>14.0</ele><time>2026-04-01T08:46:26Z</time></trkpt><trkpt lat="38.953112387245284" lon="8.733024960152166"><ele>14.0</ele><time>2026-04-01T08:46:27Z</time></trkpt><trkpt lat="38.952988123413235" lon="8.732757380533556"><ele>13.0</ele><time>2026-04-01T08:46:28Z</time></trkpt><trkpt lat="38.95286028130824" lon="8.732489271804376"><ele>12.0</ele><time>2026-04-01T08:46:29Z</time></trkpt><trkpt lat="38.952721156674315" lon="8.732232363290846"><ele>12.0</ele><time>2026-04-01T08:46:30Z</time></trkpt><trkpt lat="38.95257504541176" lon="8.731966891236636"><ele>12.0</ele><time>2026-04-01T08:46:31Z</time></trkpt><trkpt lat="38.952429183824435" lon="8.73170064118072"><ele>11.0</ele><time>2026-04-01T08:46:32Z</time></trkpt><trkpt lat="38.952283699947344" lon="8.731433867509134"><ele>10.0</ele><time>2026-04-01T08:46:33Z</time></trkpt><trkpt lat="38.952138425136866" lon="8.731163689658151"><ele>10.0</ele><time>2026-04-01T08:46:34Z</time></trkpt><trkpt lat="38.951992891293" lon="8.730893055690151"><ele>10.0</ele><time>2026-04-01T08:46:35Z</time></trkpt><trkpt lat="38.95184774762205" lon="8.730619759680058"><ele>10.5</ele><time>2026-04-01T08:46:36Z</time></trkpt><trkpt lat="38.951704162974664" lon="8.73035539925199"><ele>11.0</ele><time>2026-04-01T08:46:37Z</time></trkpt><trkpt lat="38.951561810911954" lon="8.730101039884797"><ele>11.0</ele><time>2026-04-01T08:46:38Z</time></trkpt><trkpt lat="38.95142489887695" lon="8.729854394471719"><ele>11.0</ele><time>2026-04-01T08:46:39Z</time></trkpt><trkpt lat="38.951302762307634" lon="8.729622697554811"><ele>11.0</ele><time>2026-04-01T08:46:40Z</time></trkpt><trkpt lat="38.95117066661452" lon="8.729411748902637"><ele>11.0</ele><time>2026-04-01T08:46:41Z</time></trkpt><trkpt lat="38.9510088349849" lon="8.729222701215512"><ele>11.0</ele><time>2026-04-01T08:46:42Z</time></trkpt><trkpt lat="38.950811073252154" lon="8.729052805929806"><ele>11.0</ele><time>2026-04-01T08:46:43Z</time></trkpt><trkpt lat="38.950598262088384" lon="8.728885694952464"><ele>11.0</ele><time>2026-04-01T08:46:44Z</time></trkpt><trkpt lat="38.950390444454385" lon="8.728703699149284"><ele>10.5</ele><time>2026-04-01T08:46:45Z</time></trkpt><trkpt lat="38.950181967434176" lon="8.728525951125086"><ele>10.0</ele><time>2026-04-01T08:46:46Z</time></trkpt><trkpt lat="38.94997556707595" lon="8.728345912578407"><ele>10.0</ele><time>2026-04-01T08:46:47Z</time></trkpt><trkpt lat="38.94977850695517" lon="8.72817062245642"><ele>10.0</ele><time>2026-04-01T08:46:48Z</time></trkpt><trkpt lat="38.94959361255745" lon="8.728003328790134"><ele>10.0</ele><time>2026-04-01T08:46:49Z</time></trkpt><trkpt lat="38.94941046289957" lon="8.72785191775976"><ele>10.0</ele><time>2026-04-01T08:46:50Z</time></trkpt><trkpt lat="38.94920702234868" lon="8.727724744156102"><ele>10.0</ele><time>2026-04-01T08:46:51Z</time></trkpt><trkpt lat="38.94899861994418" lon="8.727570380491306"><ele>9.0</ele><time>2026-04-01T08:46:52Z</time></trkpt><trkpt lat="38.9487766277967" lon="8.727424949025705"><ele>8.0</ele><time>2026-04-01T08:46:53Z</time></trkpt><trkpt lat="38.94854047174935" lon="8.72729191790752"><ele>11.0</ele><time>2026-04-01T08:46:54Z</time></trkpt><trkpt lat="38.94831585824018" lon="8.727139436235003"><ele>14.0</ele><time>2026-04-01T08:46:55Z</time></trkpt><trkpt lat="38.94809732255098" lon="8.726977245795968"><ele>10.0</ele><time>2026-04-01T08:46:56Z</time></trkpt><trkpt lat="38.947883117399904" lon="8.72683559166117"><ele>6.0</ele><time>2026-04-01T08:46:57Z</time></trkpt><trkpt lat="38.94766993344053" lon="8.726695602855177"><ele>6.666666666666666</ele><time>2026-04-01T08:46:58Z</time></trkpt><trkpt lat="38.94746123254009" lon="8.726575533366857"><ele>7.333333333333333</ele><time>2026-04-01T08:46:59Z</time></trkpt><trkpt lat="38.94727479710355" lon="8.72644321541595"><ele>8.0</ele><time>2026-04-01T08:47:00Z</time></trkpt><trkpt lat="38.94708975243809" lon="8.72632370074019"><ele>8.0</ele><time>2026-04-01T08:47:01Z</time></trkpt><trkpt lat="38.9468831195178" lon="8.72621997318111"><ele>8.0</ele><time>2026-04-01T08:47:02Z</time></trkpt><trkpt lat="38.94665602420438" lon="8.72612872956234"><ele>7.0</ele><time>2026-04-01T08:47:03Z</time></trkpt><trkpt lat="38.946421586554386" lon="8.726055040193684"><ele>6.0</ele><time>2026-04-01T08:47:04Z</time></trkpt><trkpt lat="38.94618870353052" lon="8.725996932501168"><ele>6.0</ele><time>2026-04-01T08:47:05Z</time></trkpt><trkpt lat="38.94596217648312" lon="8.725914310884727"><ele>6.0</ele><time>2026-04-01T08:47:06Z</time></trkpt><trkpt lat="38.94573933698559" lon="8.725868623782427"><ele>6.333333333333334</ele><time>2026-04-01T08:47:07Z</time></trkpt><trkpt lat="38.94552601633617" lon="8.725786475045567"><ele>6.666666666666667</ele><time>2026-04-01T08:47:08Z</time></trkpt><trkpt lat="38.94531040149876" lon="8.725753045865702"><ele>7.0</ele><time>2026-04-01T08:47:09Z</time></trkpt><trkpt lat="38.94508740305322" lon="8.725725509088914"><ele>8.5</ele><time>2026-04-01T08:47:10.001Z</time></trkpt><trkpt lat="38.94485369668789" lon="8.725721675674604"><ele>10.0</ele><time>2026-04-01T08:47:11.001Z</time></trkpt><trkpt lat="38.944618949467404" lon="8.725717099275455"><ele>10.0</ele><time>2026-04-01T08:47:12.001Z</time></trkpt><trkpt lat="38.944381100341836" lon="8.725698106366574"><ele>10.0</ele><time>2026-04-01T08:47:13.001Z</time></trkpt><trkpt lat="38.94413882718124" lon="8.725677544323197"><ele>10.0</ele><time>2026-04-01T08:47:14.001Z</time></trkpt><trkpt lat="38.94389659688998" lon="8.725660971568047"><ele>10.0</ele><time>2026-04-01T08:47:15.001Z</time></trkpt><trkpt lat="38.94365079595524" lon="8.725647455483637"><ele>10.0</ele><time>2026-04-01T08:47:16.001Z</time></trkpt><trkpt lat="38.943408393616494" lon="8.725632791961022"><ele>10.0</ele><time>2026-04-01T08:47:17.001Z</time></trkpt><trkpt lat="38.94316132607633" lon="8.72561748709167"><ele>7.5</ele><time>2026-04-01T08:47:18.001Z</time></trkpt><trkpt lat="38.94291420665749" lon="8.725598523051165"><ele>5.0</ele><time>2026-04-01T08:47:19.001Z</time></trkpt><trkpt lat="38.942668067094445" lon="8.725576425560169"><ele>4.5</ele><time>2026-04-01T08:47:20.001Z</time></trkpt><trkpt lat="38.94242279008367" lon="8.725545188601032"><ele>4.0</ele><time>2026-04-01T08:47:21.001Z</time></trkpt><trkpt lat="38.942180528979456" lon="8.725512400343922"><ele>4.0</ele><time>2026-04-01T08:47:22.001Z</time></trkpt><trkpt lat="38.94194172106692" lon="8.725486345990378"><ele>4.0</ele><time>2026-04-01T08:47:23.001Z</time></trkpt><trkpt lat="38.94171672737939" lon="8.725434373303077"><ele>5.333333333333333</ele><time>2026-04-01T08:47:24.001Z</time></trkpt><trkpt lat="38.941498704615064" lon="8.725405677191176"><ele>6.666666666666666</ele><time>2026-04-01T08:47:25.001Z</time></trkpt><trkpt lat="38.94127956125268" lon="8.725381014617513"><ele>8.0</ele><time>2026-04-01T08:47:26.001Z</time></trkpt><trkpt lat="38.94106118350694" lon="8.725306875929217"><ele>5.0</ele><time>2026-04-01T08:47:27.001Z</time></trkpt><trkpt lat="38.940845472136225" lon="8.725215439352626"><ele>2.0</ele><time>2026-04-01T08:47:28.001Z</time></trkpt><trkpt lat="38.94062845891487" lon="8.725121290177947"><ele>2.0</ele><time>2026-04-01T08:47:29.001Z</time></trkpt><trkpt lat="38.94041059944983" lon="8.72503640146511"><ele>2.0</ele><time>2026-04-01T08:47:30.001Z</time></trkpt><trkpt lat="38.940201113087504" lon="8.724957424477813"><ele>2.0</ele><time>2026-04-01T08:47:31.001Z</time></trkpt><trkpt lat="38.94000778791606" lon="8.72487000319507"><ele>2.6666666666666665</ele><time>2026-04-01T08:47:32.001Z</time></trkpt><trkpt lat="38.939831313780545" lon="8.724779574000028"><ele>3.333333333333333</ele><time>2026-04-01T08:47:33.001Z</time></trkpt><trkpt lat="38.93966898525076" lon="8.724667714023024"><ele>4.0</ele><time>2026-04-01T08:47:34.001Z</time></trkpt><trkpt lat="38.9395246159358" lon="8.724500558180353"><ele>3.0</ele><time>2026-04-01T08:47:35.001Z</time></trkpt><trkpt lat="38.93937503339012" lon="8.72430793722175"><ele>2.0</ele><time>2026-04-01T08:47:36.001Z</time></trkpt><trkpt lat="38.939214513993235" lon="8.724105492466231"><ele>1.0</ele><time>2026-04-01T08:47:37.001Z</time></trkpt><trkpt lat="38.939051054874135" lon="8.723910356861648"><ele>1.0</ele><time>2026-04-01T08:47:38.001Z</time></trkpt><trkpt lat="38.938905194820045" lon="8.723741914795838"><ele>1.0</ele><time>2026-04-01T08:47:39.001Z</time></trkpt><trkpt lat="38.93876630716901" lon="8.72360842735735"><ele>1.0</ele><time>2026-04-01T08:47:40.001Z</time></trkpt><trkpt lat="38.938624561170506" lon="8.723521597880545"><ele>1.0</ele><time>2026-04-01T08:47:41.001Z</time></trkpt><trkpt lat="38.93847274751509" lon="8.723486869596773"><ele>1.0</ele><time>2026-04-01T08:47:42.001Z</time></trkpt><trkpt lat="38.9383183694409" lon="8.723502558373141"><ele>1.0</ele><time>2026-04-01T08:47:43.001Z</time></trkpt><trkpt lat="38.938175067452086" lon="8.72357034541558"><ele>6.333333333333334</ele><time>2026-04-01T08:47:44.001Z</time></trkpt><trkpt lat="38.938047006884666" lon="8.723680442390755"><ele>11.666666666666668</ele><time>2026-04-01T08:47:45.001Z</time></trkpt><trkpt lat="38.93793946373457" lon="8.723833266901327"><ele>17.0</ele><time>2026-04-01T08:47:46.001Z</time></trkpt><trkpt lat="38.93785657066672" lon="8.724014925581864"><ele>17.0</ele><time>2026-04-01T08:47:47.001Z</time></trkpt><trkpt lat="38.93779210401581" lon="8.72421677518175"><ele>17.0</ele><time>2026-04-01T08:47:48.001Z</time></trkpt><trkpt lat="38.937709146694054" lon="8.72441504396966"><ele>17.0</ele><time>2026-04-01T08:47:49.001Z</time></trkpt><trkpt lat="38.93761351428532" lon="8.724624120239126"><ele>14.333333333333334</ele><time>2026-04-01T08:47:50.001Z</time></trkpt><trkpt lat="38.9375070821961" lon="8.724836498887228"><ele>11.666666666666668</ele><time>2026-04-01T08:47:51.001Z</time></trkpt><trkpt lat="38.937403731955825" lon="8.725031208416018"><ele>9.0</ele><time>2026-04-01T08:47:52.001Z</time></trkpt><trkpt lat="38.93730492756077" lon="8.72522156088324"><ele>11.0</ele><time>2026-04-01T08:47:53.001Z</time></trkpt><trkpt lat="38.93720021998124" lon="8.725398639371843"><ele>13.0</ele><time>2026-04-01T08:47:54.001Z</time></trkpt><trkpt lat="38.93708346611763" lon="8.72557684906396"><ele>15.0</ele><time>2026-04-01T08:47:55.001Z</time></trkpt><trkpt lat="38.93697527465277" lon="8.725727048024776"><ele>15.0</ele><time>2026-04-01T08:47:56.001Z</time></trkpt><trkpt lat="38.93686603992566" lon="8.725873004567617"><ele>15.0</ele><time>2026-04-01T08:47:57.001Z</time></trkpt><trkpt lat="38.93675203486114" lon="8.725998289187485"><ele>15.0</ele><time>2026-04-01T08:47:57.999Z</time></trkpt><trkpt lat="38.936639348743114" lon="8.726101048763686"><ele>15.0</ele><time>2026-04-01T08:47:58.999Z</time></trkpt><trkpt lat="38.936530814116864" lon="8.726186998981003"><ele>14.2</ele><time>2026-04-01T08:47:59.999Z</time></trkpt><trkpt lat="38.936457505403595" lon="8.726302347828241"><ele>13.4</ele><time>2026-04-01T08:48:00.999Z</time></trkpt><trkpt lat="38.936406096740114" lon="8.72642777215118"><ele>12.600000000000001</ele><time>2026-04-01T08:48:01.999Z</time></trkpt><trkpt lat="38.936378128913624" lon="8.72655898678451"><ele>11.8</ele><time>2026-04-01T08:48:03Z</time></trkpt><trkpt lat="38.93634313439264" lon="8.726685683775246"><ele>11.0</ele><time>2026-04-01T08:48:04Z</time></trkpt><trkpt lat="38.936296848807295" lon="8.72682587459359"><ele>14.0</ele><time>2026-04-01T08:48:05Z</time></trkpt><trkpt lat="38.93623223469515" lon="8.726962402596607"><ele>17.0</ele><time>2026-04-01T08:48:06Z</time></trkpt><trkpt lat="38.93614999409879" lon="8.727094166134899"><ele>20.0</ele><time>2026-04-01T08:48:07Z</time></trkpt><trkpt lat="38.93606044024932" lon="8.727220439123206"><ele>23.0</ele><time>2026-04-01T08:48:08Z</time></trkpt><trkpt lat="38.935957848716434" lon="8.727327243530876"><ele>20.0</ele><time>2026-04-01T08:48:09Z</time></trkpt><trkpt lat="38.935845692601816" lon="8.727418862693789"><ele>17.0</ele><time>2026-04-01T08:48:10Z</time></trkpt><trkpt lat="38.93572679319434" lon="8.727486903329664"><ele>14.0</ele><time>2026-04-01T08:48:11Z</time></trkpt><trkpt lat="38.935602286787855" lon="8.727547728426353"><ele>11.0</ele><time>2026-04-01T08:48:12Z</time></trkpt><trkpt lat="38.93547712658737" lon="8.727611480001888"><ele>11.0</ele><time>2026-04-01T08:48:13Z</time></trkpt><trkpt lat="38.93534942796378" lon="8.72769706231908"><ele>11.0</ele><time>2026-04-01T08:48:14Z</time></trkpt><trkpt lat="38.93521204291477" lon="8.727809281306502"><ele>11.0</ele><time>2026-04-01T08:48:15Z</time></trkpt><trkpt lat="38.93506491625491" lon="8.727942846887192"><ele>12.333333333333332</ele><time>2026-04-01T08:48:16Z</time></trkpt><trkpt lat="38.934902177280485" lon="8.728098922156937"><ele>13.666666666666666</ele><time>2026-04-01T08:48:17Z</time></trkpt><trkpt lat="38.93472974032151" lon="8.72827498706272"><ele>15.0</ele><time>2026-04-01T08:48:18Z</time></trkpt><trkpt lat="38.93455896538215" lon="8.728465923792712"><ele>16.5</ele><time>2026-04-01T08:48:19Z</time></trkpt><trkpt lat="38.93438665420271" lon="8.728673153723916"><ele>18.0</ele><time>2026-04-01T08:48:20Z</time></trkpt><trkpt lat="38.9342003042345" lon="8.728878328268367"><ele>18.0</ele><time>2026-04-01T08:48:21Z</time></trkpt><trkpt lat="38.93401541476325" lon="8.729058114170956"><ele>18.0</ele><time>2026-04-01T08:48:22Z</time></trkpt><trkpt lat="38.933856227171034" lon="8.729226433847183"><ele>18.0</ele><time>2026-04-01T08:48:23Z</time></trkpt><trkpt lat="38.93371172376842" lon="8.729374315115306"><ele>24.333333333333336</ele><time>2026-04-01T08:48:24Z</time></trkpt><trkpt lat="38.933586782325975" lon="8.729524629475222"><ele>30.666666666666668</ele><time>2026-04-01T08:48:25Z</time></trkpt><trkpt lat="38.93348284245028" lon="8.729698751388307"><ele>37.0</ele><time>2026-04-01T08:48:26Z</time></trkpt><trkpt lat="38.9334192193783" lon="8.729895091359188"><ele>32.5</ele><time>2026-04-01T08:48:27Z</time></trkpt><trkpt lat="38.933366936800006" lon="8.73005185396354"><ele>28.0</ele><time>2026-04-01T08:48:28Z</time></trkpt><trkpt lat="38.93327829549339" lon="8.730159474519231"><ele>23.5</ele><time>2026-04-01T08:48:29Z</time></trkpt><trkpt lat="38.933147187207524" lon="8.730174211461113"><ele>19.0</ele><time>2026-04-01T08:48:30Z</time></trkpt><trkpt lat="38.93300966029972" lon="8.730155887011847"><ele>19.0</ele><time>2026-04-01T08:48:31Z</time></trkpt><trkpt lat="38.93286314886746" lon="8.730172101884607"><ele>19.0</ele><time>2026-04-01T08:48:32Z</time></trkpt><trkpt lat="38.93271301037425" lon="8.730229542185798"><ele>19.0</ele><time>2026-04-01T08:48:33Z</time></trkpt><trkpt lat="38.93256309263971" lon="8.730326062080787"><ele>21.0</ele><time>2026-04-01T08:48:34Z</time></trkpt><trkpt lat="38.93243203136538" lon="8.730479666951135"><ele>23.0</ele><time>2026-04-01T08:48:35Z</time></trkpt><trkpt lat="38.93231710263765" lon="8.730647109678197"><ele>25.0</ele><time>2026-04-01T08:48:36Z</time></trkpt><trkpt lat="38.93225347047403" lon="8.73082919359144"><ele>25.0</ele><time>2026-04-01T08:48:37Z</time></trkpt><trkpt lat="38.93222868423767" lon="8.730997857989758"><ele>25.0</ele><time>2026-04-01T08:48:38Z</time></trkpt><trkpt lat="38.932251972581064" lon="8.731177793502257"><ele>25.0</ele><time>2026-04-01T08:48:39Z</time></trkpt><trkpt lat="38.93230014942741" lon="8.731357015491852"><ele>25.0</ele><time>2026-04-01T08:48:40Z</time></trkpt><trkpt lat="38.93232552643361" lon="8.731516580037654"><ele>28.0</ele><time>2026-04-01T08:48:41Z</time></trkpt><trkpt lat="38.93230025842256" lon="8.73166412397104"><ele>31.0</ele><time>2026-04-01T08:48:42Z</time></trkpt><trkpt lat="38.93222874463348" lon="8.73179053333525"><ele>34.0</ele><time>2026-04-01T08:48:43Z</time></trkpt><trkpt lat="38.93211202643487" lon="8.731887067358265"><ele>37.0</ele><time>2026-04-01T08:48:44Z</time></trkpt><trkpt lat="38.93198038054504" lon="8.731945931752916"><ele>36.5</ele><time>2026-04-01T08:48:45Z</time></trkpt><trkpt lat="38.93184066774681" lon="8.73197340584009"><ele>36.0</ele><time>2026-04-01T08:48:46Z</time></trkpt><trkpt lat="38.93171429443858" lon="8.732027339038574"><ele>35.5</ele><time>2026-04-01T08:48:47Z</time></trkpt><trkpt lat="38.93161548646978" lon="8.732131122188667"><ele>35.0</ele><time>2026-04-01T08:48:48Z</time></trkpt><trkpt lat="38.93154909657477" lon="8.732274593985915"><ele>35.0</ele><time>2026-04-01T08:48:49Z</time></trkpt><trkpt lat="38.931520385728014" lon="8.732445513685885"><ele>35.0</ele><time>2026-04-01T08:48:50Z</time></trkpt><trkpt lat="38.9315487791034" lon="8.732630518121864"><ele>35.0</ele><time>2026-04-01T08:48:51Z</time></trkpt><trkpt lat="38.931629675863526" lon="8.732801784905114"><ele>35.0</ele><time>2026-04-01T08:48:52Z</time></trkpt><trkpt lat="38.93172818115137" lon="8.73296414923185"><ele>42.25</ele><time>2026-04-01T08:48:53Z</time></trkpt><trkpt lat="38.93179245597023" lon="8.733138516167633"><ele>49.5</ele><time>2026-04-01T08:48:54Z</time></trkpt><trkpt lat="38.931810365239585" lon="8.733298117891868"><ele>56.75</ele><time>2026-04-01T08:48:55Z</time></trkpt><trkpt lat="38.93179588120393" lon="8.733431880804115"><ele>64.0</ele><time>2026-04-01T08:48:56Z</time></trkpt><trkpt lat="38.931528049220276" lon="8.733625783765145"><ele>64.0</ele><time>2026-04-01T08:48:57Z</time></trkpt><trkpt lat="38.931412469645096" lon="8.7337668119517"><ele>64.0</ele><time>2026-04-01T08:48:58Z</time></trkpt><trkpt lat="38.931304657963935" lon="8.733897580388144"><ele>64.0</ele><time>2026-04-01T08:48:59Z</time></trkpt><trkpt lat="38.93118369546136" lon="8.734063043953055"><ele>64.0</ele><time>2026-04-01T08:49:00Z</time></trkpt><trkpt lat="38.9310793886989" lon="8.734226998234448"><ele>64.0</ele><time>2026-04-01T08:49:01Z</time></trkpt><trkpt lat="38.93100559133642" lon="8.73438549511217"><ele>64.0</ele><time>2026-04-01T08:49:02Z</time></trkpt><trkpt lat="38.93097751242401" lon="8.73456535366"><ele>67.0</ele><time>2026-04-01T08:49:03Z</time></trkpt><trkpt lat="38.93099949111582" lon="8.734743932137766"><ele>70.0</ele><time>2026-04-01T08:49:04Z</time></trkpt><trkpt lat="38.93105362049282" lon="8.73490798357697"><ele>73.0</ele><time>2026-04-01T08:49:05Z</time></trkpt><trkpt lat="38.93107758665801" lon="8.735064540360385"><ele>76.0</ele><time>2026-04-01T08:49:06Z</time></trkpt><trkpt lat="38.931044036443836" lon="8.735211331893565"><ele>77.75</ele><time>2026-04-01T08:49:07Z</time></trkpt><trkpt lat="38.930977448706415" lon="8.73534718021443"><ele>79.5</ele><time>2026-04-01T08:49:08Z</time></trkpt><trkpt lat="38.930849190602984" lon="8.735414998247396"><ele>81.25</ele><time>2026-04-01T08:49:09Z</time></trkpt><trkpt lat="38.9307072633242" lon="8.735443393724262"><ele>83.0</ele><time>2026-04-01T08:49:10Z</time></trkpt><trkpt lat="38.93056874977541" lon="8.73548005440312"><ele>78.0</ele><time>2026-04-01T08:49:11Z</time></trkpt><trkpt lat="38.93042739281017" lon="8.735546744920573"><ele>73.0</ele><time>2026-04-01T08:49:12Z</time></trkpt><trkpt lat="38.930324495755706" lon="8.735652918004606"><ele>68.0</ele><time>2026-04-01T08:49:13Z</time></trkpt><trkpt lat="38.930251852357024" lon="8.735804183951858"><ele>63.0</ele><time>2026-04-01T08:49:14Z</time></trkpt><trkpt lat="38.93020709745115" lon="8.735976331669441"><ele>64.33333333333333</ele><time>2026-04-01T08:49:15Z</time></trkpt><trkpt lat="38.930200931165224" lon="8.73617155006943"><ele>65.66666666666666</ele><time>2026-04-01T08:49:16Z</time></trkpt><trkpt lat="38.93022523629221" lon="8.736371396804094"><ele>67.0</ele><time>2026-04-01T08:49:17Z</time></trkpt><trkpt lat="38.930258382528166" lon="8.736582861474648"><ele>67.0</ele><time>2026-04-01T08:49:18Z</time></trkpt><trkpt lat="38.93029923114851" lon="8.736787238343457"><ele>67.0</ele><time>2026-04-01T08:49:19Z</time></trkpt><trkpt lat="38.93035421320756" lon="8.736973774529357"><ele>67.0</ele><time>2026-04-01T08:49:20Z</time></trkpt><trkpt lat="38.93044384427005" lon="8.737126868597107"><ele>60.33333333333333</ele><time>2026-04-01T08:49:21Z</time></trkpt><trkpt lat="38.93057133808322" lon="8.737238080784017"><ele>53.666666666666664</ele><time>2026-04-01T08:49:22Z</time></trkpt><trkpt lat="38.9307241176562" lon="8.73730950707897"><ele>47.0</ele><time>2026-04-01T08:49:23Z</time></trkpt><trkpt lat="38.93087959568891" lon="8.73737199271427"><ele>53.33333333333333</ele><time>2026-04-01T08:49:24Z</time></trkpt><trkpt lat="38.93103322835189" lon="8.737443432784337"><ele>59.666666666666664</ele><time>2026-04-01T08:49:25Z</time></trkpt><trkpt lat="38.93119131006701" lon="8.73752475296267"><ele>66.0</ele><time>2026-04-01T08:49:26Z</time></trkpt><trkpt lat="38.93135733405326" lon="8.737619728940027"><ele>66.0</ele><time>2026-04-01T08:49:27Z</time></trkpt><trkpt lat="38.93153226937172" lon="8.73771335155409"><ele>66.0</ele><time>2026-04-01T08:49:28Z</time></trkpt><trkpt lat="38.93170389420196" lon="8.737801028697064"><ele>66.0</ele><time>2026-04-01T08:49:29Z</time></trkpt><trkpt lat="38.93187869779931" lon="8.737877567716929"><ele>65.0</ele><time>2026-04-01T08:49:30Z</time></trkpt><trkpt lat="38.93202740424018" lon="8.737933640220305"><ele>64.0</ele><time>2026-04-01T08:49:31Z</time></trkpt><trkpt lat="38.9321639924459" lon="8.737961237897178"><ele>63.0</ele><time>2026-04-01T08:49:32Z</time></trkpt><trkpt lat="38.93228296192982" lon="8.737996910798952"><ele>62.0</ele><time>2026-04-01T08:49:33Z</time></trkpt><trkpt lat="38.93236274442055" lon="8.738101335343092"><ele>62.0</ele><time>2026-04-01T08:49:34Z</time></trkpt><trkpt lat="38.9323933275354" lon="8.738256955358457"><ele>62.0</ele><time>2026-04-01T08:49:35Z</time></trkpt><trkpt lat="38.93237978018283" lon="8.738417558948344"><ele>62.0</ele><time>2026-04-01T08:49:36Z</time></trkpt><trkpt lat="38.932319050001716" lon="8.738536768340607"><ele>62.0</ele><time>2026-04-01T08:49:37Z</time></trkpt><trkpt lat="38.93221855395713" lon="8.738612988755412"><ele>66.0</ele><time>2026-04-01T08:49:38Z</time></trkpt><trkpt lat="38.93207665012096" lon="8.73865943278729"><ele>70.0</ele><time>2026-04-01T08:49:39Z</time></trkpt><trkpt lat="38.931915457877096" lon="8.738687217344092"><ele>74.0</ele><time>2026-04-01T08:49:40Z</time></trkpt><trkpt lat="38.931746885807286" lon="8.738708941953538"><ele>69.33333333333334</ele><time>2026-04-01T08:49:41Z</time></trkpt><trkpt lat="38.93155897184984" lon="8.738728697871755"><ele>64.66666666666667</ele><time>2026-04-01T08:49:42Z</time></trkpt><trkpt lat="38.931385164104135" lon="8.738753455595168"><ele>60.0</ele><time>2026-04-01T08:49:43Z</time></trkpt><trkpt lat="38.931222073724825" lon="8.738780269947375"><ele>60.0</ele><time>2026-04-01T08:49:44Z</time></trkpt><trkpt lat="38.93107503422136" lon="8.738806002385289"><ele>60.0</ele><time>2026-04-01T08:49:45Z</time></trkpt><trkpt lat="38.93094028918983" lon="8.738824003509935"><ele>60.0</ele><time>2026-04-01T08:49:46Z</time></trkpt><trkpt lat="38.93081679582689" lon="8.738861031080946"><ele>60.0</ele><time>2026-04-01T08:49:47Z</time></trkpt><trkpt lat="38.930711726987404" lon="8.73895585665981"><ele>55.0</ele><time>2026-04-01T08:49:48Z</time></trkpt><trkpt lat="38.93063860168594" lon="8.73911733634661"><ele>50.0</ele><time>2026-04-01T08:49:49Z</time></trkpt><trkpt lat="38.930606499071196" lon="8.739312554414806"><ele>45.0</ele><time>2026-04-01T08:49:50Z</time></trkpt><trkpt lat="38.930583853993475" lon="8.739511753971206"><ele>44.0</ele><time>2026-04-01T08:49:51Z</time></trkpt><trkpt lat="38.930527162389325" lon="8.739669137834209"><ele>43.0</ele><time>2026-04-01T08:49:52Z</time></trkpt><trkpt lat="38.93043334561908" lon="8.739789937643302"><ele>42.0</ele><time>2026-04-01T08:49:53Z</time></trkpt><trkpt lat="38.93032587895841" lon="8.739852553787294"><ele>41.0</ele><time>2026-04-01T08:49:54Z</time></trkpt><trkpt lat="38.93018511916864" lon="8.7398627391357"><ele>37.0</ele><time>2026-04-01T08:49:55Z</time></trkpt><trkpt lat="38.93003071419119" lon="8.73985512090568"><ele>33.0</ele><time>2026-04-01T08:49:56Z</time></trkpt><trkpt lat="38.92986965549724" lon="8.73985265674371"><ele>29.0</ele><time>2026-04-01T08:49:57Z</time></trkpt><trkpt lat="38.92971293767591" lon="8.73987020371151"><ele>29.0</ele><time>2026-04-01T08:49:58Z</time></trkpt><trkpt lat="38.9295654583142" lon="8.739874860922786"><ele>29.0</ele><time>2026-04-01T08:49:59Z</time></trkpt><trkpt lat="38.92942336644707" lon="8.739832434276478"><ele>29.0</ele><time>2026-04-01T08:50:00Z</time></trkpt><trkpt lat="38.929288816066006" lon="8.739742057342141"><ele>29.0</ele><time>2026-04-01T08:50:01Z</time></trkpt><trkpt lat="38.929170461574316" lon="8.739628966712814"><ele>27.5</ele><time>2026-04-01T08:50:02Z</time></trkpt><trkpt lat="38.92905552948041" lon="8.739517010650413"><ele>26.0</ele><time>2026-04-01T08:50:03Z</time></trkpt><trkpt lat="38.928936965808504" lon="8.739455861244611"><ele>24.5</ele><time>2026-04-01T08:50:04Z</time></trkpt><trkpt lat="38.92880683943814" lon="8.739432305244854"><ele>23.0</ele><time>2026-04-01T08:50:05Z</time></trkpt><trkpt lat="38.92866951408392" lon="8.739489953847812"><ele>23.0</ele><time>2026-04-01T08:50:06Z</time></trkpt><trkpt lat="38.92854061087667" lon="8.739572073933745"><ele>23.0</ele><time>2026-04-01T08:50:07Z</time></trkpt><trkpt lat="38.928412123887135" lon="8.73963778941425"><ele>23.0</ele><time>2026-04-01T08:50:08Z</time></trkpt><trkpt lat="38.928273570641416" lon="8.739700548268102"><ele>23.0</ele><time>2026-04-01T08:50:09Z</time></trkpt><trkpt lat="38.928114340625626" lon="8.739754983335526"><ele>19.333333333333336</ele><time>2026-04-01T08:50:10Z</time></trkpt><trkpt lat="38.92796469286048" lon="8.739825204539114"><ele>15.666666666666668</ele><time>2026-04-01T08:50:11Z</time></trkpt><trkpt lat="38.92781350826497" lon="8.739889849927993"><ele>12.0</ele><time>2026-04-01T08:50:12Z</time></trkpt><trkpt lat="38.927668597736975" lon="8.739957606555665"><ele>10.333333333333334</ele><time>2026-04-01T08:50:13Z</time></trkpt><trkpt lat="38.92753127147999" lon="8.740044021426247"><ele>8.666666666666668</ele><time>2026-04-01T08:50:14Z</time></trkpt><trkpt lat="38.92741125342568" lon="8.740165493773748"><ele>7.0</ele><time>2026-04-01T08:50:15Z</time></trkpt><trkpt lat="38.92730312711587" lon="8.740315367145307"><ele>7.0</ele><time>2026-04-01T08:50:16Z</time></trkpt><trkpt lat="38.92721601314264" lon="8.740485656915077"><ele>7.0</ele><time>2026-04-01T08:50:17Z</time></trkpt><trkpt lat="38.927158272917964" lon="8.740667441436855"><ele>7.0</ele><time>2026-04-01T08:50:18Z</time></trkpt><trkpt lat="38.92712521375981" lon="8.740862133133822"><ele>8.666666666666668</ele><time>2026-04-01T08:50:19Z</time></trkpt><trkpt lat="38.92710033938304" lon="8.741062798635191"><ele>10.333333333333334</ele><time>2026-04-01T08:50:20Z</time></trkpt><trkpt lat="38.92709373195431" lon="8.741264374398066"><ele>12.0</ele><time>2026-04-01T08:50:21Z</time></trkpt><trkpt lat="38.9270960161112" lon="8.741465343567848"><ele>12.0</ele><time>2026-04-01T08:50:22Z</time></trkpt><trkpt lat="38.92710654950131" lon="8.741668360743853"><ele>12.0</ele><time>2026-04-01T08:50:23Z</time></trkpt><trkpt lat="38.92710732967182" lon="8.741874792845529"><ele>12.0</ele><time>2026-04-01T08:50:24Z</time></trkpt><trkpt lat="38.927103694622545" lon="8.742076450570659"><ele>13.25</ele><time>2026-04-01T08:50:25Z</time></trkpt><trkpt lat="38.92713658159001" lon="8.74225443601024"><ele>14.5</ele><time>2026-04-01T08:50:26Z</time></trkpt><trkpt lat="38.92721537574125" lon="8.742396741080997"><ele>15.75</ele><time>2026-04-01T08:50:27Z</time></trkpt><trkpt lat="38.927322558674625" lon="8.742494038821489"><ele>17.0</ele><time>2026-04-01T08:50:28Z</time></trkpt><trkpt lat="38.92745635769188" lon="8.742531506294608"><ele>18.5</ele><time>2026-04-01T08:50:29Z</time></trkpt><trkpt lat="38.92759179197295" lon="8.742495686347747"><ele>20.0</ele><time>2026-04-01T08:50:30Z</time></trkpt><trkpt lat="38.927711782413596" lon="8.742405002517444"><ele>21.5</ele><time>2026-04-01T08:50:31Z</time></trkpt><trkpt lat="38.92783870004544" lon="8.742329717659034"><ele>23.0</ele><time>2026-04-01T08:50:32Z</time></trkpt><trkpt lat="38.92797925774949" lon="8.742297754304175"><ele>23.0</ele><time>2026-04-01T08:50:33Z</time></trkpt><trkpt lat="38.92812187111782" lon="8.742310827940578"><ele>23.0</ele><time>2026-04-01T08:50:34Z</time></trkpt><trkpt lat="38.92824744272651" lon="8.742374061724663"><ele>23.0</ele><time>2026-04-01T08:50:35Z</time></trkpt><trkpt lat="38.9283303738604" lon="8.742467984587115"><ele>23.0</ele><time>2026-04-01T08:50:36Z</time></trkpt><trkpt lat="38.928353628152166" lon="8.742578978212498"><ele>23.0</ele><time>2026-04-01T08:50:37Z</time></trkpt><trkpt lat="38.92832653689404" lon="8.742690700133368"><ele>23.0</ele><time>2026-04-01T08:50:38Z</time></trkpt><trkpt lat="38.928264448959546" lon="8.742804870851003"><ele>23.0</ele><time>2026-04-01T08:50:39Z</time></trkpt><trkpt lat="38.928191715260425" lon="8.74292144067495"><ele>23.0</ele><time>2026-04-01T08:50:40Z</time></trkpt><trkpt lat="38.92815187799046" lon="8.743062586380184"><ele>23.0</ele><time>2026-04-01T08:50:41Z</time></trkpt><trkpt lat="38.92817426968732" lon="8.743241800079332"><ele>25.0</ele><time>2026-04-01T08:50:42Z</time></trkpt><trkpt lat="38.92824493939739" lon="8.743426175226801"><ele>27.0</ele><time>2026-04-01T08:50:43Z</time></trkpt><trkpt lat="38.92830875545503" lon="8.743588775363913"><ele>29.0</ele><time>2026-04-01T08:50:44Z</time></trkpt><trkpt lat="38.92835155542145" lon="8.743753765836166"><ele>31.0</ele><time>2026-04-01T08:50:45Z</time></trkpt><trkpt lat="38.92835908777987" lon="8.743904981144787"><ele>32.75</ele><time>2026-04-01T08:50:46Z</time></trkpt><trkpt lat="38.92832768554529" lon="8.744042853307816"><ele>34.5</ele><time>2026-04-01T08:50:47Z</time></trkpt><trkpt lat="38.92826038285576" lon="8.744172155887165"><ele>36.25</ele><time>2026-04-01T08:50:48Z</time></trkpt><trkpt lat="38.92815723934542" lon="8.744292886665674"><ele>38.0</ele><time>2026-04-01T08:50:49Z</time></trkpt><trkpt lat="38.928026720302604" lon="8.744417716464616"><ele>39.33333333333333</ele><time>2026-04-01T08:50:50Z</time></trkpt><trkpt lat="38.927899033258086" lon="8.744518942179015"><ele>40.666666666666664</ele><time>2026-04-01T08:50:51Z</time></trkpt><trkpt lat="38.92776931818398" lon="8.744623379655"><ele>42.0</ele><time>2026-04-01T08:50:52Z</time></trkpt><trkpt lat="38.92763033722028" lon="8.7447376656012"><ele>44.33333333333333</ele><time>2026-04-01T08:50:53Z</time></trkpt><trkpt lat="38.92749474449662" lon="8.74484579373995"><ele>46.666666666666664</ele><time>2026-04-01T08:50:54Z</time></trkpt><trkpt lat="38.927349591918656" lon="8.74493789165557"><ele>49.0</ele><time>2026-04-01T08:50:55Z</time></trkpt><trkpt lat="38.927204689649" lon="8.745027741591086"><ele>49.0</ele><time>2026-04-01T08:50:56Z</time></trkpt><trkpt lat="38.927090833010375" lon="8.745147448937455"><ele>49.0</ele><time>2026-04-01T08:50:57Z</time></trkpt><trkpt lat="38.92701892387827" lon="8.745306261812592"><ele>49.0</ele><time>2026-04-01T08:50:58Z</time></trkpt><trkpt lat="38.926992590780344" lon="8.745505674460242"><ele>49.0</ele><time>2026-04-01T08:50:59Z</time></trkpt><trkpt lat="38.92697110430223" lon="8.745701570416957"><ele>52.666666666666664</ele><time>2026-04-01T08:51:00Z</time></trkpt><trkpt lat="38.92693729976478" lon="8.74589737098849"><ele>56.33333333333333</ele><time>2026-04-01T08:51:01Z</time></trkpt><trkpt lat="38.92689818380682" lon="8.746093782596564"><ele>60.0</ele><time>2026-04-01T08:51:02Z</time></trkpt><trkpt lat="38.92686634814607" lon="8.746279123205252"><ele>62.25</ele><time>2026-04-01T08:51:03Z</time></trkpt><trkpt lat="38.92683801514235" lon="8.746439281282054"><ele>64.5</ele><time>2026-04-01T08:51:04Z</time></trkpt><trkpt lat="38.926783986245184" lon="8.746572954663868"><ele>66.75</ele><time>2026-04-01T08:51:05Z</time></trkpt><trkpt lat="38.92670143244504" lon="8.746699403491606"><ele>69.0</ele><time>2026-04-01T08:51:06Z</time></trkpt><trkpt lat="38.92657920623538" lon="8.746824023897515"><ele>75.0</ele><time>2026-04-01T08:51:07Z</time></trkpt><trkpt lat="38.926455034769354" lon="8.746899495537328"><ele>81.0</ele><time>2026-04-01T08:51:08Z</time></trkpt><trkpt lat="38.92631128469501" lon="8.746959503563371"><ele>87.0</ele><time>2026-04-01T08:51:09Z</time></trkpt><trkpt lat="38.926169216475685" lon="8.747010162165813"><ele>93.0</ele><time>2026-04-01T08:51:10Z</time></trkpt><trkpt lat="38.92604000610037" lon="8.747042164711514"><ele>93.0</ele><time>2026-04-01T08:51:11Z</time></trkpt><trkpt lat="38.92591677616078" lon="8.747074520427349"><ele>93.0</ele><time>2026-04-01T08:51:12Z</time></trkpt><trkpt lat="38.925809588150905" lon="8.747129221826658"><ele>93.0</ele><time>2026-04-01T08:51:13Z</time></trkpt><trkpt lat="38.925705824367036" lon="8.747202465173444"><ele>93.0</ele><time>2026-04-01T08:51:14Z</time></trkpt><trkpt lat="38.92560721521855" lon="8.747295433462867"><ele>97.5</ele><time>2026-04-01T08:51:15Z</time></trkpt><trkpt lat="38.925508161338364" lon="8.747398103108878"><ele>102.0</ele><time>2026-04-01T08:51:16Z</time></trkpt><trkpt lat="38.92540269954353" lon="8.74751149403752"><ele>106.5</ele><time>2026-04-01T08:51:17Z</time></trkpt><trkpt lat="38.9252986429298" lon="8.74762676812687"><ele>111.0</ele><time>2026-04-01T08:51:18Z</time></trkpt><trkpt lat="38.92518841874422" lon="8.747751384496762"><ele>111.0</ele><time>2026-04-01T08:51:19Z</time></trkpt><trkpt lat="38.92507254866737" lon="8.747893233274356"><ele>111.0</ele><time>2026-04-01T08:51:20Z</time></trkpt><trkpt lat="38.924955109979344" lon="8.748014264670145"><ele>111.0</ele><time>2026-04-01T08:51:21Z</time></trkpt><trkpt lat="38.92483213827003" lon="8.74813512328708"><ele>103.5</ele><time>2026-04-01T08:51:22Z</time></trkpt><trkpt lat="38.92471696191186" lon="8.748261222872143"><ele>96.0</ele><time>2026-04-01T08:51:23Z</time></trkpt><trkpt lat="38.92460781507017" lon="8.748388334745334"><ele>88.5</ele><time>2026-04-01T08:51:24Z</time></trkpt><trkpt lat="38.92451281487787" lon="8.748526524014443"><ele>81.0</ele><time>2026-04-01T08:51:25Z</time></trkpt><trkpt lat="38.92444203868242" lon="8.748689830090902"><ele>81.0</ele><time>2026-04-01T08:51:26Z</time></trkpt><trkpt lat="38.92438663461346" lon="8.748869913095128"><ele>81.0</ele><time>2026-04-01T08:51:27Z</time></trkpt><trkpt lat="38.924325265588" lon="8.7490560710268"><ele>81.0</ele><time>2026-04-01T08:51:28Z</time></trkpt><trkpt lat="38.92425809114114" lon="8.749240697195972"><ele>69.66666666666667</ele><time>2026-04-01T08:51:29Z</time></trkpt><trkpt lat="38.924188427913755" lon="8.749425419766274"><ele>58.33333333333333</ele><time>2026-04-01T08:51:30Z</time></trkpt><trkpt lat="38.924116171747535" lon="8.749617344138088"><ele>47.0</ele><time>2026-04-01T08:51:31Z</time></trkpt><trkpt lat="38.92405258914622" lon="8.749801109931804"><ele>47.0</ele><time>2026-04-01T08:51:32Z</time></trkpt><trkpt lat="38.92398810088956" lon="8.74998351019925"><ele>47.0</ele><time>2026-04-01T08:51:33Z</time></trkpt><trkpt lat="38.92392056291214" lon="8.750165144616599"><ele>47.0</ele><time>2026-04-01T08:51:34Z</time></trkpt><trkpt lat="38.923853295312014" lon="8.750347441013869"><ele>54.0</ele><time>2026-04-01T08:51:35Z</time></trkpt><trkpt lat="38.923776246314205" lon="8.750520418137688"><ele>61.0</ele><time>2026-04-01T08:51:36Z</time></trkpt><trkpt lat="38.92368865678171" lon="8.750688146410027"><ele>68.0</ele><time>2026-04-01T08:51:37Z</time></trkpt><trkpt lat="38.923594287827605" lon="8.750850263489234"><ele>68.0</ele><time>2026-04-01T08:51:38Z</time></trkpt><trkpt lat="38.9234976500577" lon="8.751013242907257"><ele>68.0</ele><time>2026-04-01T08:51:39Z</time></trkpt><trkpt lat="38.92339197693647" lon="8.751168757309559"><ele>68.0</ele><time>2026-04-01T08:51:40Z</time></trkpt><trkpt lat="38.9232957808304" lon="8.751334571786398"><ele>66.33333333333334</ele><time>2026-04-01T08:51:41Z</time></trkpt><trkpt lat="38.92320826477137" lon="8.751494318600841"><ele>64.66666666666667</ele><time>2026-04-01T08:51:42Z</time></trkpt><trkpt lat="38.92312553033294" lon="8.751664025573552"><ele>63.0</ele><time>2026-04-01T08:51:43Z</time></trkpt><trkpt lat="38.923024703543334" lon="8.751825117019969"><ele>72.66666666666667</ele><time>2026-04-01T08:51:44Z</time></trkpt><trkpt lat="38.922891302454765" lon="8.751946807898802"><ele>82.33333333333334</ele><time>2026-04-01T08:51:45Z</time></trkpt><trkpt lat="38.922741563246625" lon="8.752036219049927"><ele>92.0</ele><time>2026-04-01T08:51:46Z</time></trkpt><trkpt lat="38.92259577199712" lon="8.752124029703362"><ele>80.75</ele><time>2026-04-01T08:51:47Z</time></trkpt><trkpt lat="38.92246591566442" lon="8.75224017877394"><ele>69.5</ele><time>2026-04-01T08:51:48Z</time></trkpt><trkpt lat="38.922360856212364" lon="8.752365773293327"><ele>58.25</ele><time>2026-04-01T08:51:49Z</time></trkpt><trkpt lat="38.92228437549345" lon="8.752508621762814"><ele>47.0</ele><time>2026-04-01T08:51:50Z</time></trkpt><trkpt lat="38.92224550794058" lon="8.752657446849822"><ele>49.25</ele><time>2026-04-01T08:51:51Z</time></trkpt><trkpt lat="38.92225917081532" lon="8.752822636013105"><ele>51.5</ele><time>2026-04-01T08:51:52Z</time></trkpt><trkpt lat="38.92230124609776" lon="8.752993435676983"><ele>53.75</ele><time>2026-04-01T08:51:53Z</time></trkpt><trkpt lat="38.92233860993971" lon="8.753167524997407"><ele>56.0</ele><time>2026-04-01T08:51:54Z</time></trkpt><trkpt lat="38.92237705021302" lon="8.75334462734112"><ele>56.0</ele><time>2026-04-01T08:51:55Z</time></trkpt><trkpt lat="38.92241823622707" lon="8.75352709652425"><ele>56.0</ele><time>2026-04-01T08:51:56Z</time></trkpt><trkpt lat="38.922437760927856" lon="8.753711416467025"><ele>56.0</ele><time>2026-04-01T08:51:57Z</time></trkpt><trkpt lat="38.92241098669136" lon="8.75389993673119"><ele>56.0</ele><time>2026-04-01T08:51:58Z</time></trkpt><trkpt lat="38.92234028956969" lon="8.75405746538557"><ele>57.0</ele><time>2026-04-01T08:51:59Z</time></trkpt><trkpt lat="38.92223656750293" lon="8.75418498359541"><ele>58.0</ele><time>2026-04-01T08:52:00Z</time></trkpt><trkpt lat="38.92217317048512" lon="8.75432709640033"><ele>59.0</ele><time>2026-04-01T08:52:01Z</time></trkpt><trkpt lat="38.922054759199106" lon="8.754441433554902"><ele>60.0</ele><time>2026-04-01T08:52:02Z</time></trkpt><trkpt lat="38.92195114465766" lon="8.754580696925702"><ele>55.666666666666664</ele><time>2026-04-01T08:52:03Z</time></trkpt><trkpt lat="38.921859990399646" lon="8.75473439220535"><ele>51.33333333333333</ele><time>2026-04-01T08:52:04Z</time></trkpt><trkpt lat="38.921770443437424" lon="8.754892684578529"><ele>47.0</ele><time>2026-04-01T08:52:05Z</time></trkpt><trkpt lat="38.92168076438304" lon="8.755057449398523"><ele>59.0</ele><time>2026-04-01T08:52:06Z</time></trkpt><trkpt lat="38.92159457834737" lon="8.75522288036269"><ele>71.0</ele><time>2026-04-01T08:52:07Z</time></trkpt><trkpt lat="38.92149799185487" lon="8.755381002829221"><ele>83.0</ele><time>2026-04-01T08:52:08Z</time></trkpt><trkpt lat="38.92139313681386" lon="8.755524482979478"><ele>83.0</ele><time>2026-04-01T08:52:09Z</time></trkpt><trkpt lat="38.92127804845818" lon="8.755659851402658"><ele>83.0</ele><time>2026-04-01T08:52:10.001Z</time></trkpt><trkpt lat="38.92118172757477" lon="8.755805532703608"><ele>83.0</ele><time>2026-04-01T08:52:11.001Z</time></trkpt><trkpt lat="38.921121206975826" lon="8.755962933932599"><ele>83.0</ele><time>2026-04-01T08:52:12.001Z</time></trkpt><trkpt lat="38.921041531998135" lon="8.756130671402138"><ele>87.5</ele><time>2026-04-01T08:52:13.001Z</time></trkpt><trkpt lat="38.921009747676074" lon="8.756312066112557"><ele>92.0</ele><time>2026-04-01T08:52:14.001Z</time></trkpt><trkpt lat="38.92100012697494" lon="8.756508916935248"><ele>96.5</ele><time>2026-04-01T08:52:15.001Z</time></trkpt><trkpt lat="38.92096983789908" lon="8.756693743542003"><ele>101.0</ele><time>2026-04-01T08:52:16.001Z</time></trkpt><trkpt lat="38.92092016113997" lon="8.75687619500376"><ele>101.0</ele><time>2026-04-01T08:52:17.001Z</time></trkpt><trkpt lat="38.920897941663945" lon="8.757056808277143"><ele>101.0</ele><time>2026-04-01T08:52:18.001Z</time></trkpt><trkpt lat="38.92093559004287" lon="8.757237205464877"><ele>101.0</ele><time>2026-04-01T08:52:19.001Z</time></trkpt><trkpt lat="38.92100810794837" lon="8.757409313407136"><ele>101.0</ele><time>2026-04-01T08:52:20.001Z</time></trkpt><trkpt lat="38.92105778695091" lon="8.757559489180192"><ele>105.25</ele><time>2026-04-01T08:52:21.001Z</time></trkpt><trkpt lat="38.921047964282536" lon="8.757708969729725"><ele>109.5</ele><time>2026-04-01T08:52:22.001Z</time></trkpt><trkpt lat="38.92098406024699" lon="8.757844652843891"><ele>113.75</ele><time>2026-04-01T08:52:23.001Z</time></trkpt><trkpt lat="38.92086089441186" lon="8.757921508803223"><ele>118.0</ele><time>2026-04-01T08:52:24.001Z</time></trkpt><trkpt lat="38.920764828904474" lon="8.75800271325103"><ele>112.25</ele><time>2026-04-01T08:52:25.001Z</time></trkpt><trkpt lat="38.92067219643995" lon="8.758120585078307"><ele>106.5</ele><time>2026-04-01T08:52:26Z</time></trkpt><trkpt lat="38.92060477842815" lon="8.75825364594755"><ele>100.75</ele><time>2026-04-01T08:52:27Z</time></trkpt><trkpt lat="38.92057743242437" lon="8.758417964507247"><ele>95.0</ele><time>2026-04-01T08:52:28Z</time></trkpt><trkpt lat="38.92057021825495" lon="8.758587046385074"><ele>95.0</ele><time>2026-04-01T08:52:29Z</time></trkpt><trkpt lat="38.92055344825581" lon="8.758759894815789"><ele>95.0</ele><time>2026-04-01T08:52:30Z</time></trkpt><trkpt lat="38.92051010727291" lon="8.758929326887971"><ele>95.0</ele><time>2026-04-01T08:52:31Z</time></trkpt><trkpt lat="38.92045878761967" lon="8.75909920627532"><ele>95.0</ele><time>2026-04-01T08:52:32Z</time></trkpt><trkpt lat="38.92040738966823" lon="8.75927626544805"><ele>93.5</ele><time>2026-04-01T08:52:33Z</time></trkpt><trkpt lat="38.92036305419504" lon="8.759456833307755"><ele>92.0</ele><time>2026-04-01T08:52:34Z</time></trkpt><trkpt lat="38.920332769158996" lon="8.759639406051958"><ele>90.5</ele><time>2026-04-01T08:52:35Z</time></trkpt><trkpt lat="38.920303453154894" lon="8.759825938487932"><ele>89.0</ele><time>2026-04-01T08:52:36Z</time></trkpt><trkpt lat="38.920282170137" lon="8.760008195229876"><ele>89.0</ele><time>2026-04-01T08:52:37Z</time></trkpt><trkpt lat="38.92025789763511" lon="8.760177533680096"><ele>89.0</ele><time>2026-04-01T08:52:38Z</time></trkpt><trkpt lat="38.92025539780857" lon="8.760334257019462"><ele>89.0</ele><time>2026-04-01T08:52:39Z</time></trkpt><trkpt lat="38.920296902556736" lon="8.760475891148666"><ele>89.0</ele><time>2026-04-01T08:52:40Z</time></trkpt><trkpt lat="38.9203774262322" lon="8.760600362611898"><ele>84.75</ele><time>2026-04-01T08:52:41Z</time></trkpt><trkpt lat="38.92048210267057" lon="8.7606962469639"><ele>80.5</ele><time>2026-04-01T08:52:42Z</time></trkpt><trkpt lat="38.92060950018367" lon="8.760754193179594"><ele>76.25</ele><time>2026-04-01T08:52:43Z</time></trkpt><trkpt lat="38.92075138877801" lon="8.760760715184214"><ele>72.0</ele><time>2026-04-01T08:52:44Z</time></trkpt><trkpt lat="38.92089370747867" lon="8.760726914928027"><ele>74.5</ele><time>2026-04-01T08:52:45Z</time></trkpt><trkpt lat="38.921025663790424" lon="8.760698028991673"><ele>77.0</ele><time>2026-04-01T08:52:46Z</time></trkpt><trkpt lat="38.9211498590926" lon="8.76071911940992"><ele>79.5</ele><time>2026-04-01T08:52:47Z</time></trkpt><trkpt lat="38.92125751343495" lon="8.7607960647881"><ele>82.0</ele><time>2026-04-01T08:52:48Z</time></trkpt><trkpt lat="38.921340642390945" lon="8.760925792878137"><ele>79.0</ele><time>2026-04-01T08:52:49Z</time></trkpt><trkpt lat="38.92140544324538" lon="8.761084746313578"><ele>76.0</ele><time>2026-04-01T08:52:50Z</time></trkpt><trkpt lat="38.9214605769205" lon="8.76125776130079"><ele>73.0</ele><time>2026-04-01T08:52:51Z</time></trkpt><trkpt lat="38.921504990935446" lon="8.761437785598597"><ele>70.0</ele><time>2026-04-01T08:52:52Z</time></trkpt><trkpt lat="38.9215441556044" lon="8.761621147878152"><ele>70.0</ele><time>2026-04-01T08:52:53Z</time></trkpt><trkpt lat="38.92157605661721" lon="8.761797690165972"><ele>70.0</ele><time>2026-04-01T08:52:54Z</time></trkpt><trkpt lat="38.92159861107278" lon="8.761967741982808"><ele>70.0</ele><time>2026-04-01T08:52:55Z</time></trkpt><trkpt lat="38.92161410026077" lon="8.76213192698329"><ele>70.0</ele><time>2026-04-01T08:52:56Z</time></trkpt><trkpt lat="38.92161858930648" lon="8.762289895792696"><ele>70.0</ele><time>2026-04-01T08:52:57Z</time></trkpt><trkpt lat="38.92158793345512" lon="8.762432649824225"><ele>70.0</ele><time>2026-04-01T08:52:58Z</time></trkpt><trkpt lat="38.92150623335509" lon="8.762545905467817"><ele>70.0</ele><time>2026-04-01T08:52:59Z</time></trkpt><trkpt lat="38.92139933114257" lon="8.762619557624486"><ele>70.0</ele><time>2026-04-01T08:53:00Z</time></trkpt><trkpt lat="38.92127321467927" lon="8.762652889393411"><ele>70.0</ele><time>2026-04-01T08:53:01Z</time></trkpt><trkpt lat="38.92113582953133" lon="8.762677592609197"><ele>70.0</ele><time>2026-04-01T08:53:02Z</time></trkpt><trkpt lat="38.920990098120726" lon="8.76271350522558"><ele>70.0</ele><time>2026-04-01T08:53:03Z</time></trkpt><trkpt lat="38.92084283241309" lon="8.762771470040075"><ele>70.0</ele><time>2026-04-01T08:53:04Z</time></trkpt><trkpt lat="38.92069980423596" lon="8.7628271502818"><ele>69.0</ele><time>2026-04-01T08:53:05Z</time></trkpt><trkpt lat="38.92057026301699" lon="8.762879528844465"><ele>68.0</ele><time>2026-04-01T08:53:06Z</time></trkpt><trkpt lat="38.92045035767595" lon="8.762923919339832"><ele>67.0</ele><time>2026-04-01T08:53:07Z</time></trkpt><trkpt lat="38.92034548793933" lon="8.762985186516103"><ele>66.0</ele><time>2026-04-01T08:53:08Z</time></trkpt><trkpt lat="38.92026187679801" lon="8.763085766094402"><ele>66.0</ele><time>2026-04-01T08:53:09Z</time></trkpt><trkpt lat="38.9202070973519" lon="8.76322909074661"><ele>66.0</ele><time>2026-04-01T08:53:10Z</time></trkpt><trkpt lat="38.92015003370679" lon="8.763390887162766"><ele>66.0</ele><time>2026-04-01T08:53:11Z</time></trkpt><trkpt lat="38.92007118785557" lon="8.763530314134083"><ele>66.0</ele><time>2026-04-01T08:53:12Z</time></trkpt><trkpt lat="38.91996620107904" lon="8.76363341762135"><ele>63.75</ele><time>2026-04-01T08:53:13Z</time></trkpt><trkpt lat="38.9198432323838" lon="8.763688445179767"><ele>61.5</ele><time>2026-04-01T08:53:14Z</time></trkpt><trkpt lat="38.91971092441441" lon="8.763683483641074"><ele>59.25</ele><time>2026-04-01T08:53:15Z</time></trkpt><trkpt lat="38.91958396262859" lon="8.763647143058494"><ele>57.0</ele><time>2026-04-01T08:53:16Z</time></trkpt><trkpt lat="38.91946096700848" lon="8.763615260632811"><ele>57.0</ele><time>2026-04-01T08:53:17Z</time></trkpt><trkpt lat="38.919336431793596" lon="8.763600119065982"><ele>57.0</ele><time>2026-04-01T08:53:18Z</time></trkpt><trkpt lat="38.91921470921326" lon="8.763605151438842"><ele>57.0</ele><time>2026-04-01T08:53:19Z</time></trkpt><trkpt lat="38.91910171796907" lon="8.76364446707267"><ele>57.0</ele><time>2026-04-01T08:53:20Z</time></trkpt><trkpt lat="38.919007650299704" lon="8.763708978372842"><ele>55.2</ele><time>2026-04-01T08:53:21Z</time></trkpt><trkpt lat="38.91891370421977" lon="8.763735963698627"><ele>53.400000000000006</ele><time>2026-04-01T08:53:22Z</time></trkpt><trkpt lat="38.91881200764179" lon="8.76369154612739"><ele>51.599999999999994</ele><time>2026-04-01T08:53:23Z</time></trkpt><trkpt lat="38.918721788791956" lon="8.763625996160156"><ele>49.8</ele><time>2026-04-01T08:53:24Z</time></trkpt><trkpt lat="38.91864182171506" lon="8.763556064817486"><ele>48.0</ele><time>2026-04-01T08:53:25Z</time></trkpt><trkpt lat="38.91855744610407" lon="8.763521590086544"><ele>47.0</ele><time>2026-04-01T08:53:26Z</time></trkpt><trkpt lat="38.918467853793445" lon="8.763519304494496"><ele>46.0</ele><time>2026-04-01T08:53:27Z</time></trkpt><trkpt lat="38.91837529671555" lon="8.763527794906256"><ele>45.0</ele><time>2026-04-01T08:53:28Z</time></trkpt><trkpt lat="38.918279177144186" lon="8.763553989267134"><ele>44.0</ele><time>2026-04-01T08:53:29Z</time></trkpt><trkpt lat="38.91818646574938" lon="8.76361781028276"><ele>43.0</ele><time>2026-04-01T08:53:30Z</time></trkpt><trkpt lat="38.918107224279794" lon="8.763738890592125"><ele>43.0</ele><time>2026-04-01T08:53:31Z</time></trkpt><trkpt lat="38.91804740076677" lon="8.763885136275169"><ele>43.0</ele><time>2026-04-01T08:53:32Z</time></trkpt><trkpt lat="38.91797661632568" lon="8.764011195908227"><ele>43.0</ele><time>2026-04-01T08:53:33Z</time></trkpt><trkpt lat="38.917874803581554" lon="8.764095718205807"><ele>43.0</ele><time>2026-04-01T08:53:34Z</time></trkpt><trkpt lat="38.91775150695916" lon="8.764136103535856"><ele>43.0</ele><time>2026-04-01T08:53:35Z</time></trkpt><trkpt lat="38.91763392732194" lon="8.764152645162742"><ele>43.0</ele><time>2026-04-01T08:53:36Z</time></trkpt><trkpt lat="38.91752337085952" lon="8.764121934002015"><ele>43.0</ele><time>2026-04-01T08:53:37Z</time></trkpt><trkpt lat="38.91741592379954" lon="8.764059741992536"><ele>43.0</ele><time>2026-04-01T08:53:38Z</time></trkpt><trkpt lat="38.91729989034584" lon="8.764002424230268"><ele>39.75</ele><time>2026-04-01T08:53:39Z</time></trkpt><trkpt lat="38.91718252522781" lon="8.763977559956338"><ele>36.5</ele><time>2026-04-01T08:53:40Z</time></trkpt><trkpt lat="38.91706746513546" lon="8.764009229734322"><ele>33.25</ele><time>2026-04-01T08:53:41Z</time></trkpt><trkpt lat="38.91695631788985" lon="8.764096335419982"><ele>30.0</ele><time>2026-04-01T08:53:42Z</time></trkpt><trkpt lat="38.91686746106744" lon="8.764221744309085"><ele>28.25</ele><time>2026-04-01T08:53:43Z</time></trkpt><trkpt lat="38.91680168826692" lon="8.764383628198244"><ele>26.5</ele><time>2026-04-01T08:53:44Z</time></trkpt><trkpt lat="38.916753413142644" lon="8.764558735917781"><ele>24.75</ele><time>2026-04-01T08:53:45Z</time></trkpt><trkpt lat="38.916686136535404" lon="8.764735861737718"><ele>23.0</ele><time>2026-04-01T08:53:46Z</time></trkpt><trkpt lat="38.916612787260526" lon="8.764920072675793"><ele>23.0</ele><time>2026-04-01T08:53:47Z</time></trkpt><trkpt lat="38.91653807127883" lon="8.765091395745692"><ele>23.0</ele><time>2026-04-01T08:53:48Z</time></trkpt><trkpt lat="38.916479124142846" lon="8.765260541990113"><ele>23.0</ele><time>2026-04-01T08:53:49Z</time></trkpt><trkpt lat="38.91643364752169" lon="8.765425671769643"><ele>23.0</ele><time>2026-04-01T08:53:50Z</time></trkpt><trkpt lat="38.916431451251405" lon="8.765599384119668"><ele>23.0</ele><time>2026-04-01T08:53:51Z</time></trkpt><trkpt lat="38.9164693652163" lon="8.765769801168135"><ele>23.0</ele><time>2026-04-01T08:53:52Z</time></trkpt><trkpt lat="38.91654385242373" lon="8.765913781203672"><ele>23.0</ele><time>2026-04-01T08:53:53Z</time></trkpt><trkpt lat="38.916653147458376" lon="8.766021150729774"><ele>23.0</ele><time>2026-04-01T08:53:54Z</time></trkpt><trkpt lat="38.91678883687675" lon="8.766104345848307"><ele>20.666666666666668</ele><time>2026-04-01T08:53:55Z</time></trkpt><trkpt lat="38.91692367284562" lon="8.766197897384387"><ele>18.333333333333332</ele><time>2026-04-01T08:53:56Z</time></trkpt><trkpt lat="38.91706107157125" lon="8.76630691835111"><ele>16.0</ele><time>2026-04-01T08:53:57Z</time></trkpt><trkpt lat="38.91719482273809" lon="8.766425219868161"><ele>16.0</ele><time>2026-04-01T08:53:58Z</time></trkpt><trkpt lat="38.91732493475712" lon="8.766562345536261"><ele>16.0</ele><time>2026-04-01T08:53:59Z</time></trkpt><trkpt lat="38.917441093902205" lon="8.76670411679852"><ele>16.0</ele><time>2026-04-01T08:54:00Z</time></trkpt><trkpt lat="38.91754706360436" lon="8.766842766207976"><ele>16.0</ele><time>2026-04-01T08:54:01Z</time></trkpt><trkpt lat="38.91761801581524" lon="8.766998355090465"><ele>16.0</ele><time>2026-04-01T08:54:02Z</time></trkpt><trkpt lat="38.91765412603492" lon="8.767186495926989"><ele>16.0</ele><time>2026-04-01T08:54:03Z</time></trkpt><trkpt lat="38.91767218963119" lon="8.767386001143194"><ele>16.0</ele><time>2026-04-01T08:54:04Z</time></trkpt><trkpt lat="38.917690745964656" lon="8.767584535226096"><ele>15.0</ele><time>2026-04-01T08:54:05Z</time></trkpt><trkpt lat="38.91769743699635" lon="8.76777770964227"><ele>14.0</ele><time>2026-04-01T08:54:06Z</time></trkpt><trkpt lat="38.91767034286171" lon="8.767964512314379"><ele>13.0</ele><time>2026-04-01T08:54:07Z</time></trkpt><trkpt lat="38.917603083703234" lon="8.768133284242774"><ele>12.0</ele><time>2026-04-01T08:54:08Z</time></trkpt><trkpt lat="38.91750015292899" lon="8.76826338770689"><ele>10.75</ele><time>2026-04-01T08:54:09Z</time></trkpt><trkpt lat="38.9173722548915" lon="8.768361947146438"><ele>9.5</ele><time>2026-04-01T08:54:10Z</time></trkpt><trkpt lat="38.917249653680294" lon="8.76842554046278"><ele>8.25</ele><time>2026-04-01T08:54:11Z</time></trkpt><trkpt lat="38.917134397993955" lon="8.768452256220067"><ele>7.0</ele><time>2026-04-01T08:54:12Z</time></trkpt><trkpt lat="38.91701802798571" lon="8.768446588886722"><ele>7.0</ele><time>2026-04-01T08:54:13Z</time></trkpt><trkpt lat="38.916896289099654" lon="8.768438722373794"><ele>7.0</ele><time>2026-04-01T08:54:14Z</time></trkpt><trkpt lat="38.91676662732678" lon="8.768447382344858"><ele>7.0</ele><time>2026-04-01T08:54:15Z</time></trkpt><trkpt lat="38.9166291904741" lon="8.768472016017746"><ele>7.0</ele><time>2026-04-01T08:54:16.001Z</time></trkpt><trkpt lat="38.916493084886795" lon="8.768492190501412"><ele>6.75</ele><time>2026-04-01T08:54:17.001Z</time></trkpt><trkpt lat="38.91635928361784" lon="8.768516134098734"><ele>6.5</ele><time>2026-04-01T08:54:18.001Z</time></trkpt><trkpt lat="38.91624767283967" lon="8.768587826635224"><ele>6.25</ele><time>2026-04-01T08:54:19.001Z</time></trkpt><trkpt lat="38.91614430102248" lon="8.76869947656853"><ele>6.0</ele><time>2026-04-01T08:54:20.001Z</time></trkpt><trkpt lat="38.916082465796904" lon="8.768857797862609"><ele>5.75</ele><time>2026-04-01T08:54:21.001Z</time></trkpt><trkpt lat="38.91603685701514" lon="8.769027223648099"><ele>5.5</ele><time>2026-04-01T08:54:22.001Z</time></trkpt><trkpt lat="38.91598378539745" lon="8.769195701904584"><ele>5.25</ele><time>2026-04-01T08:54:23.001Z</time></trkpt><trkpt lat="38.91591664649635" lon="8.769361719872679"><ele>5.0</ele><time>2026-04-01T08:54:24.001Z</time></trkpt><trkpt lat="38.9158594353872" lon="8.769537540469411"><ele>5.0</ele><time>2026-04-01T08:54:25.001Z</time></trkpt><trkpt lat="38.915826851225845" lon="8.769732778056238"><ele>5.0</ele><time>2026-04-01T08:54:26.001Z</time></trkpt><trkpt lat="38.91582645192541" lon="8.769946551482636"><ele>5.0</ele><time>2026-04-01T08:54:27.001Z</time></trkpt><trkpt lat="38.915829938549756" lon="8.770167182320767"><ele>5.666666666666667</ele><time>2026-04-01T08:54:28.001Z</time></trkpt><trkpt lat="38.91582680427209" lon="8.770384960977058"><ele>6.333333333333334</ele><time>2026-04-01T08:54:29.001Z</time></trkpt><trkpt lat="38.915802479411795" lon="8.7706028201893"><ele>7.0</ele><time>2026-04-01T08:54:30.001Z</time></trkpt><trkpt lat="38.915751108542146" lon="8.770804108914882"><ele>7.0</ele><time>2026-04-01T08:54:31.001Z</time></trkpt><trkpt lat="38.91570308178909" lon="8.770992510821216"><ele>7.0</ele><time>2026-04-01T08:54:32.001Z</time></trkpt><trkpt lat="38.915696434967295" lon="8.77117399393305"><ele>7.0</ele><time>2026-04-01T08:54:33.001Z</time></trkpt><trkpt lat="38.91568715915489" lon="8.77133545721977"><ele>7.0</ele><time>2026-04-01T08:54:34.001Z</time></trkpt><trkpt lat="38.91561598080991" lon="8.771455664961435"><ele>8.0</ele><time>2026-04-01T08:54:35.001Z</time></trkpt><trkpt lat="38.91550677500637" lon="8.771526509594192"><ele>9.0</ele><time>2026-04-01T08:54:36.001Z</time></trkpt><trkpt lat="38.91538091074663" lon="8.771546519268892"><ele>10.0</ele><time>2026-04-01T08:54:37Z</time></trkpt><trkpt lat="38.91525538099066" lon="8.771532483229665"><ele>11.0</ele><time>2026-04-01T08:54:38Z</time></trkpt><trkpt lat="38.91512781041757" lon="8.771547418429108"><ele>10.5</ele><time>2026-04-01T08:54:39Z</time></trkpt><trkpt lat="38.91500359907522" lon="8.771616884325628"><ele>10.0</ele><time>2026-04-01T08:54:40Z</time></trkpt><trkpt lat="38.91488593894934" lon="8.771723191366037"><ele>9.5</ele><time>2026-04-01T08:54:41Z</time></trkpt><trkpt lat="38.91480678157817" lon="8.771847194126744"><ele>9.0</ele><time>2026-04-01T08:54:42Z</time></trkpt><trkpt lat="38.91476742663431" lon="8.771988426625208"><ele>10.75</ele><time>2026-04-01T08:54:43Z</time></trkpt><trkpt lat="38.91476170832156" lon="8.772140543536354"><ele>12.5</ele><time>2026-04-01T08:54:44Z</time></trkpt><trkpt lat="38.9147981290575" lon="8.77228626155317"><ele>14.25</ele><time>2026-04-01T08:54:45Z</time></trkpt><trkpt lat="38.914865754419154" lon="8.772421033893428"><ele>16.0</ele><time>2026-04-01T08:54:46Z</time></trkpt><trkpt lat="38.914930981263986" lon="8.772558241146552"><ele>15.5</ele><time>2026-04-01T08:54:47Z</time></trkpt><trkpt lat="38.91495460824445" lon="8.772715240623219"><ele>15.0</ele><time>2026-04-01T08:54:48Z</time></trkpt><trkpt lat="38.914934189300496" lon="8.772885098621538"><ele>14.5</ele><time>2026-04-01T08:54:49Z</time></trkpt><trkpt lat="38.91488651498221" lon="8.773057309382342"><ele>14.0</ele><time>2026-04-01T08:54:50Z</time></trkpt><trkpt lat="38.914843682498905" lon="8.773227810894321"><ele>14.0</ele><time>2026-04-01T08:54:51Z</time></trkpt><trkpt lat="38.91482890148433" lon="8.77340853142466"><ele>14.0</ele><time>2026-04-01T08:54:52Z</time></trkpt><trkpt lat="38.91485062709753" lon="8.77359207018104"><ele>14.0</ele><time>2026-04-01T08:54:53Z</time></trkpt><trkpt lat="38.91486394925701" lon="8.773773189541814"><ele>14.0</ele><time>2026-04-01T08:54:54Z</time></trkpt><trkpt lat="38.91480567142556" lon="8.773959828306248"><ele>13.0</ele><time>2026-04-01T08:54:55Z</time></trkpt><trkpt lat="38.91469099963367" lon="8.774120963383648"><ele>12.0</ele><time>2026-04-01T08:54:56Z</time></trkpt><trkpt lat="38.914590453556926" lon="8.774280050391951"><ele>11.0</ele><time>2026-04-01T08:54:57Z</time></trkpt><trkpt lat="38.9144942618702" lon="8.77445610050925"><ele>8.333333333333332</ele><time>2026-04-01T08:54:58Z</time></trkpt><trkpt lat="38.91470930284216" lon="8.774509241892574"><ele>5.666666666666666</ele><time>2026-04-01T08:54:59Z</time></trkpt><trkpt lat="38.91477849142095" lon="8.774627632662577"><ele>3.0</ele><time>2026-04-01T08:55:00Z</time></trkpt><trkpt lat="38.91489025567226" lon="8.774697010740686"><ele>3.0</ele><time>2026-04-01T08:55:01Z</time></trkpt><trkpt lat="38.91501214271312" lon="8.774738971066022"><ele>3.0</ele><time>2026-04-01T08:55:02Z</time></trkpt><trkpt lat="38.91514527064933" lon="8.77473389324889"><ele>3.0</ele><time>2026-04-01T08:55:03Z</time></trkpt><trkpt lat="38.915280319378574" lon="8.774682056041296"><ele>3.0</ele><time>2026-04-01T08:55:04Z</time></trkpt><trkpt lat="38.91540790093917" lon="8.774634484726661"><ele>3.25</ele><time>2026-04-01T08:55:05Z</time></trkpt><trkpt lat="38.91552746347925" lon="8.774631456434781"><ele>3.5</ele><time>2026-04-01T08:55:06Z</time></trkpt><trkpt lat="38.915637842157295" lon="8.774674074024478"><ele>3.75</ele><time>2026-04-01T08:55:07Z</time></trkpt><trkpt lat="38.915738783409374" lon="8.774756291103296"><ele>4.0</ele><time>2026-04-01T08:55:08Z</time></trkpt><trkpt lat="38.915824694617285" lon="8.774866014910616"><ele>4.0</ele><time>2026-04-01T08:55:09Z</time></trkpt><trkpt lat="38.91588930265238" lon="8.775004630516149"><ele>4.0</ele><time>2026-04-01T08:55:10Z</time></trkpt><trkpt lat="38.91594761608919" lon="8.77512752841117"><ele>4.0</ele><time>2026-04-01T08:55:11Z</time></trkpt><trkpt lat="38.91600236519415" lon="8.775239438094568"><ele>4.0</ele><time>2026-04-01T08:55:12Z</time></trkpt><trkpt lat="38.91605535192286" lon="8.77535615127298"><ele>4.0</ele><time>2026-04-01T08:55:13Z</time></trkpt><trkpt lat="38.916114283672734" lon="8.775466879085759"><ele>5.0</ele><time>2026-04-01T08:55:14Z</time></trkpt><trkpt lat="38.91619947257532" lon="8.775561997551454"><ele>6.0</ele><time>2026-04-01T08:55:15Z</time></trkpt><trkpt lat="38.91630257736165" lon="8.775629401144107"><ele>7.0</ele><time>2026-04-01T08:55:16Z</time></trkpt><trkpt lat="38.91641290228901" lon="8.775676573237035"><ele>8.0</ele><time>2026-04-01T08:55:17Z</time></trkpt><trkpt lat="38.91653249039397" lon="8.775711164095037"><ele>8.0</ele><time>2026-04-01T08:55:18Z</time></trkpt><trkpt lat="38.91666122552356" lon="8.775717903042098"><ele>8.0</ele><time>2026-04-01T08:55:19Z</time></trkpt><trkpt lat="38.9167971359581" lon="8.775712948469444"><ele>8.0</ele><time>2026-04-01T08:55:20Z</time></trkpt><trkpt lat="38.91694884714542" lon="8.775704578267256"><ele>8.0</ele><time>2026-04-01T08:55:21Z</time></trkpt><trkpt lat="38.91709832992129" lon="8.775730189470808"><ele>9.666666666666666</ele><time>2026-04-01T08:55:22Z</time></trkpt><trkpt lat="38.917251158364756" lon="8.775773426960562"><ele>11.333333333333332</ele><time>2026-04-01T08:55:23Z</time></trkpt><trkpt lat="38.91739207185515" lon="8.775839807528122"><ele>13.0</ele><time>2026-04-01T08:55:24Z</time></trkpt><trkpt lat="38.91752097265787" lon="8.775932664097336"><ele>13.4</ele><time>2026-04-01T08:55:25Z</time></trkpt><trkpt lat="38.91763458738957" lon="8.776049653915534"><ele>13.8</ele><time>2026-04-01T08:55:26Z</time></trkpt><trkpt lat="38.9177143668663" lon="8.776144269988508"><ele>14.2</ele><time>2026-04-01T08:55:27Z</time></trkpt><trkpt lat="38.917762536459605" lon="8.776249008062718"><ele>14.6</ele><time>2026-04-01T08:55:28Z</time></trkpt><trkpt lat="38.91776483091517" lon="8.776373020349693"><ele>15.0</ele><time>2026-04-01T08:55:29Z</time></trkpt><trkpt lat="38.917744045816676" lon="8.776503100512194"><ele>15.0</ele><time>2026-04-01T08:55:30Z</time></trkpt><trkpt lat="38.91768981237886" lon="8.77663797659294"><ele>15.0</ele><time>2026-04-01T08:55:31Z</time></trkpt><trkpt lat="38.91761978918814" lon="8.776752399776917"><ele>15.0</ele><time>2026-04-01T08:55:32Z</time></trkpt><trkpt lat="38.91751553557573" lon="8.776829609915536"><ele>15.0</ele><time>2026-04-01T08:55:33Z</time></trkpt><trkpt lat="38.917378959855924" lon="8.776859982902751"><ele>18.666666666666664</ele><time>2026-04-01T08:55:34Z</time></trkpt><trkpt lat="38.917228049027464" lon="8.776866747768542"><ele>22.333333333333332</ele><time>2026-04-01T08:55:35Z</time></trkpt><trkpt lat="38.917069639585144" lon="8.77687429919718"><ele>26.0</ele><time>2026-04-01T08:55:36Z</time></trkpt><trkpt lat="38.91691352892723" lon="8.776888648924867"><ele>26.0</ele><time>2026-04-01T08:55:37Z</time></trkpt><trkpt lat="38.9167623198666" lon="8.7769113561144"><ele>26.0</ele><time>2026-04-01T08:55:38Z</time></trkpt><trkpt lat="38.91660962942605" lon="8.776930220984802"><ele>26.0</ele><time>2026-04-01T08:55:39Z</time></trkpt><trkpt lat="38.91645460160441" lon="8.77694422153674"><ele>25.666666666666664</ele><time>2026-04-01T08:55:40Z</time></trkpt><trkpt lat="38.916300361214965" lon="8.77695409873083"><ele>25.333333333333336</ele><time>2026-04-01T08:55:41Z</time></trkpt><trkpt lat="38.91614574628884" lon="8.776963703813937"><ele>25.0</ele><time>2026-04-01T08:55:42Z</time></trkpt><trkpt lat="38.91599247770924" lon="8.776949888437478"><ele>23.75</ele><time>2026-04-01T08:55:43Z</time></trkpt><trkpt lat="38.91584226524333" lon="8.776910743816757"><ele>22.5</ele><time>2026-04-01T08:55:44Z</time></trkpt><trkpt lat="38.915693713346506" lon="8.776880230072727"><ele>21.25</ele><time>2026-04-01T08:55:45Z</time></trkpt><trkpt lat="38.91555392173021" lon="8.77688545952187"><ele>20.0</ele><time>2026-04-01T08:55:46Z</time></trkpt><trkpt lat="38.91542355475661" lon="8.776949476078592"><ele>20.0</ele><time>2026-04-01T08:55:47Z</time></trkpt><trkpt lat="38.91530376873874" lon="8.777058434814439"><ele>20.0</ele><time>2026-04-01T08:55:48Z</time></trkpt><trkpt lat="38.915189365813745" lon="8.777182276906048"><ele>20.0</ele><time>2026-04-01T08:55:49Z</time></trkpt><trkpt lat="38.915070701173065" lon="8.777313207012051"><ele>17.333333333333336</ele><time>2026-04-01T08:55:50Z</time></trkpt><trkpt lat="38.914953881502726" lon="8.77745609608494"><ele>14.666666666666668</ele><time>2026-04-01T08:55:51Z</time></trkpt><trkpt lat="38.91485805233226" lon="8.77761831485286"><ele>12.0</ele><time>2026-04-01T08:55:52Z</time></trkpt><trkpt lat="38.91477658598682" lon="8.777780465229908"><ele>11.75</ele><time>2026-04-01T08:55:53Z</time></trkpt><trkpt lat="38.91470582846256" lon="8.777936321393593"><ele>11.5</ele><time>2026-04-01T08:55:54Z</time></trkpt><trkpt lat="38.9146952303117" lon="8.778092405498672"><ele>11.25</ele><time>2026-04-01T08:55:55Z</time></trkpt><trkpt lat="38.91474167624635" lon="8.778243814345958"><ele>11.0</ele><time>2026-04-01T08:55:56Z</time></trkpt><trkpt lat="38.91483408644405" lon="8.77838087072061"><ele>12.0</ele><time>2026-04-01T08:55:57Z</time></trkpt><trkpt lat="38.91490688830297" lon="8.778534013163386"><ele>13.0</ele><time>2026-04-01T08:55:58Z</time></trkpt><trkpt lat="38.9149258579399" lon="8.7787029068905"><ele>14.0</ele><time>2026-04-01T08:55:59Z</time></trkpt><trkpt lat="38.91489053735" lon="8.778863661033299"><ele>15.0</ele><time>2026-04-01T08:56:00Z</time></trkpt><trkpt lat="38.91480888997312" lon="8.77898018709699"><ele>15.0</ele><time>2026-04-01T08:56:01Z</time></trkpt><trkpt lat="38.91470058615983" lon="8.779046867947546"><ele>15.0</ele><time>2026-04-01T08:56:02Z</time></trkpt><trkpt lat="38.91457157374337" lon="8.779063165334524"><ele>15.0</ele><time>2026-04-01T08:56:03Z</time></trkpt><trkpt lat="38.91443660204745" lon="8.779054758807119"><ele>15.0</ele><time>2026-04-01T08:56:04Z</time></trkpt><trkpt lat="38.914296566036974" lon="8.779039465562148"><ele>14.5</ele><time>2026-04-01T08:56:05Z</time></trkpt><trkpt lat="38.91414311249975" lon="8.779011045477413"><ele>14.0</ele><time>2026-04-01T08:56:06Z</time></trkpt><trkpt lat="38.91400734799509" lon="8.77896843837265"><ele>13.5</ele><time>2026-04-01T08:56:07Z</time></trkpt><trkpt lat="38.913871141083966" lon="8.778913337075112"><ele>13.0</ele><time>2026-04-01T08:56:08Z</time></trkpt><trkpt lat="38.913739804215574" lon="8.778865510748362"><ele>13.0</ele><time>2026-04-01T08:56:09Z</time></trkpt><trkpt lat="38.9136171749978" lon="8.778822149642748"><ele>13.0</ele><time>2026-04-01T08:56:10Z</time></trkpt><trkpt lat="38.91350603771859" lon="8.778790185951866"><ele>13.0</ele><time>2026-04-01T08:56:11Z</time></trkpt><trkpt lat="38.91339662817018" lon="8.778790493113062"><ele>13.0</ele><time>2026-04-01T08:56:12Z</time></trkpt><trkpt lat="38.913303135508585" lon="8.778851981810869"><ele>12.200000000000001</ele><time>2026-04-01T08:56:13Z</time></trkpt><trkpt lat="38.91324258884339" lon="8.77896445631758"><ele>11.4</ele><time>2026-04-01T08:56:14Z</time></trkpt><trkpt lat="38.913206683868424" lon="8.779093794105147"><ele>10.600000000000001</ele><time>2026-04-01T08:56:15Z</time></trkpt><trkpt lat="38.91323068934599" lon="8.779227916946162"><ele>9.8</ele><time>2026-04-01T08:56:16Z</time></trkpt><trkpt lat="38.913278416226206" lon="8.779350677861755"><ele>9.0</ele><time>2026-04-01T08:56:17Z</time></trkpt><trkpt lat="38.91333894927652" lon="8.779459773277559"><ele>11.0</ele><time>2026-04-01T08:56:18Z</time></trkpt><trkpt lat="38.913412405969254" lon="8.779550566756994"><ele>13.0</ele><time>2026-04-01T08:56:19Z</time></trkpt><trkpt lat="38.913500546599145" lon="8.779628123157215"><ele>14.999999999999998</ele><time>2026-04-01T08:56:20Z</time></trkpt><trkpt lat="38.913586004008934" lon="8.779713119560375"><ele>17.0</ele><time>2026-04-01T08:56:21Z</time></trkpt><trkpt lat="38.91366780297515" lon="8.779811178429402"><ele>19.0</ele><time>2026-04-01T08:56:22.001Z</time></trkpt><trkpt lat="38.91375238571848" lon="8.779915783131692"><ele>19.0</ele><time>2026-04-01T08:56:23.001Z</time></trkpt><trkpt lat="38.91383480815118" lon="8.78003336287975"><ele>19.0</ele><time>2026-04-01T08:56:24.001Z</time></trkpt><trkpt lat="38.913902829803504" lon="8.780169043050408"><ele>19.0</ele><time>2026-04-01T08:56:25.001Z</time></trkpt><trkpt lat="38.913947850174544" lon="8.780312664572994"><ele>19.0</ele><time>2026-04-01T08:56:26.001Z</time></trkpt><trkpt lat="38.913980296413655" lon="8.780457705954406"><ele>17.4</ele><time>2026-04-01T08:56:27.001Z</time></trkpt><trkpt lat="38.91401952757134" lon="8.780587416773638"><ele>15.799999999999999</ele><time>2026-04-01T08:56:28.001Z</time></trkpt><trkpt lat="38.9140502812534" lon="8.78071523131621"><ele>14.2</ele><time>2026-04-01T08:56:29.001Z</time></trkpt><trkpt lat="38.91404883073329" lon="8.7808476157046"><ele>12.600000000000001</ele><time>2026-04-01T08:56:30.001Z</time></trkpt><trkpt lat="38.914010116417465" lon="8.78098272339093"><ele>11.0</ele><time>2026-04-01T08:56:31.001Z</time></trkpt><trkpt lat="38.91393790540655" lon="8.781098992772444"><ele>7.75</ele><time>2026-04-01T08:56:32.001Z</time></trkpt><trkpt lat="38.91384808490302" lon="8.78120509115848"><ele>4.5</ele><time>2026-04-01T08:56:33.001Z</time></trkpt><trkpt lat="38.91374788813553" lon="8.781307180400226"><ele>1.25</ele><time>2026-04-01T08:56:34.001Z</time></trkpt><trkpt lat="38.913659217745305" lon="8.781413141390972"><ele>-2.0</ele><time>2026-04-01T08:56:35.001Z</time></trkpt><trkpt lat="38.91357819792664" lon="8.781537229488336"><ele>-2.0</ele><time>2026-04-01T08:56:36.001Z</time></trkpt><trkpt lat="38.91349054959852" lon="8.781655408804555"><ele>-2.0</ele><time>2026-04-01T08:56:37Z</time></trkpt><trkpt lat="38.913398712885396" lon="8.781772454716881"><ele>-2.0</ele><time>2026-04-01T08:56:38Z</time></trkpt><trkpt lat="38.9133011171159" lon="8.781882364176994"><ele>-2.0</ele><time>2026-04-01T08:56:39Z</time></trkpt><trkpt lat="38.91319837792514" lon="8.781985016228527"><ele>0.5</ele><time>2026-04-01T08:56:40Z</time></trkpt><trkpt lat="38.913074028623626" lon="8.782051657931273"><ele>3.0</ele><time>2026-04-01T08:56:41Z</time></trkpt><trkpt lat="38.912933354193406" lon="8.782080135770547"><ele>5.5</ele><time>2026-04-01T08:56:42Z</time></trkpt><trkpt lat="38.9127868237697" lon="8.782079825556135"><ele>8.0</ele><time>2026-04-01T08:56:43Z</time></trkpt><trkpt lat="38.91263752679611" lon="8.782067861701101"><ele>10.0</ele><time>2026-04-01T08:56:44Z</time></trkpt><trkpt lat="38.91248918060268" lon="8.782064935958228"><ele>12.0</ele><time>2026-04-01T08:56:45Z</time></trkpt><trkpt lat="38.912346216504595" lon="8.782068972641342"><ele>14.0</ele><time>2026-04-01T08:56:46Z</time></trkpt><trkpt lat="38.9122109274984" lon="8.782086694887834"><ele>16.0</ele><time>2026-04-01T08:56:47Z</time></trkpt><trkpt lat="38.91208822177397" lon="8.782124263147878"><ele>16.0</ele><time>2026-04-01T08:56:48Z</time></trkpt><trkpt lat="38.91196956347281" lon="8.782207541662618"><ele>16.0</ele><time>2026-04-01T08:56:49Z</time></trkpt><trkpt lat="38.911876774363336" lon="8.782337954663733"><ele>16.0</ele><time>2026-04-01T08:56:50Z</time></trkpt><trkpt lat="38.911786074455094" lon="8.782480775040476"><ele>16.0</ele><time>2026-04-01T08:56:51Z</time></trkpt><trkpt lat="38.911709301588616" lon="8.78263164748257"><ele>16.5</ele><time>2026-04-01T08:56:52Z</time></trkpt><trkpt lat="38.91162155480506" lon="8.782773553229406"><ele>17.0</ele><time>2026-04-01T08:56:53Z</time></trkpt><trkpt lat="38.91155380299516" lon="8.782925962071367"><ele>17.5</ele><time>2026-04-01T08:56:54Z</time></trkpt><trkpt lat="38.91150013969202" lon="8.783090451021883"><ele>18.0</ele><time>2026-04-01T08:56:55Z</time></trkpt><trkpt lat="38.91146180902902" lon="8.783250097534577"><ele>18.0</ele><time>2026-04-01T08:56:56Z</time></trkpt><trkpt lat="38.911402563835104" lon="8.783376958848764"><ele>18.0</ele><time>2026-04-01T08:56:57Z</time></trkpt><trkpt lat="38.911314045413405" lon="8.783466574817838"><ele>18.0</ele><time>2026-04-01T08:56:58Z</time></trkpt><trkpt lat="38.91120132265401" lon="8.783514111295968"><ele>18.0</ele><time>2026-04-01T08:56:59Z</time></trkpt><trkpt lat="38.91107810140009" lon="8.783510579860566"><ele>18.0</ele><time>2026-04-01T08:57:00Z</time></trkpt><trkpt lat="38.910958562910956" lon="8.783458207444228"><ele>18.0</ele><time>2026-04-01T08:57:01Z</time></trkpt><trkpt lat="38.91086434228136" lon="8.783349743532687"><ele>18.0</ele><time>2026-04-01T08:57:02Z</time></trkpt><trkpt lat="38.91078774927492" lon="8.78320968026635"><ele>18.0</ele><time>2026-04-01T08:57:03Z</time></trkpt><trkpt lat="38.91072186548772" lon="8.7830599520444"><ele>17.25</ele><time>2026-04-01T08:57:04Z</time></trkpt><trkpt lat="38.91062860018162" lon="8.78292842669821"><ele>16.5</ele><time>2026-04-01T08:57:05Z</time></trkpt><trkpt lat="38.910509045463506" lon="8.78284706254111"><ele>15.75</ele><time>2026-04-01T08:57:06Z</time></trkpt><trkpt lat="38.91037656458696" lon="8.782831031882925"><ele>15.0</ele><time>2026-04-01T08:57:07Z</time></trkpt><trkpt lat="38.91024095242087" lon="8.782864905773078"><ele>15.0</ele><time>2026-04-01T08:57:08Z</time></trkpt><trkpt lat="38.910117734035694" lon="8.782867219232228"><ele>15.0</ele><time>2026-04-01T08:57:09Z</time></trkpt><trkpt lat="38.91002350813437" lon="8.78279312452723"><ele>15.0</ele><time>2026-04-01T08:57:10Z</time></trkpt><trkpt lat="38.90996538049812" lon="8.782675678006564"><ele>15.0</ele><time>2026-04-01T08:57:11Z</time></trkpt><trkpt lat="38.909941830929654" lon="8.782529160469487"><ele>17.5</ele><time>2026-04-01T08:57:12Z</time></trkpt><trkpt lat="38.90992217877058" lon="8.782386177945645"><ele>20.0</ele><time>2026-04-01T08:57:13Z</time></trkpt><trkpt lat="38.90988391031434" lon="8.782243916483722"><ele>22.5</ele><time>2026-04-01T08:57:14Z</time></trkpt><trkpt lat="38.90983750065767" lon="8.782101716180861"><ele>25.0</ele><time>2026-04-01T08:57:15Z</time></trkpt><trkpt lat="38.90978814711913" lon="8.781959428103516"><ele>23.25</ele><time>2026-04-01T08:57:16Z</time></trkpt><trkpt lat="38.90973122343288" lon="8.781837038848677"><ele>21.5</ele><time>2026-04-01T08:57:17Z</time></trkpt><trkpt lat="38.90964857271509" lon="8.781748874561439"><ele>19.75</ele><time>2026-04-01T08:57:18Z</time></trkpt><trkpt lat="38.90954512036092" lon="8.781688296246932"><ele>18.0</ele><time>2026-04-01T08:57:19Z</time></trkpt><trkpt lat="38.909420270650855" lon="8.781664022406398"><ele>18.0</ele><time>2026-04-01T08:57:20Z</time></trkpt><trkpt lat="38.9092899762477" lon="8.781658855987857"><ele>18.0</ele><time>2026-04-01T08:57:21Z</time></trkpt><trkpt lat="38.90915850389266" lon="8.781654275134157"><ele>18.0</ele><time>2026-04-01T08:57:22Z</time></trkpt><trkpt lat="38.90901822447256" lon="8.781639349449687"><ele>18.0</ele><time>2026-04-01T08:57:23Z</time></trkpt><trkpt lat="38.90886155140277" lon="8.781612769377476"><ele>19.75</ele><time>2026-04-01T08:57:24Z</time></trkpt><trkpt lat="38.9087055752435" lon="8.781572434897512"><ele>21.5</ele><time>2026-04-01T08:57:25Z</time></trkpt><trkpt lat="38.90856084863923" lon="8.78153493873229"><ele>23.25</ele><time>2026-04-01T08:57:26Z</time></trkpt><trkpt lat="38.90842890153747" lon="8.78146732639793"><ele>25.0</ele><time>2026-04-01T08:57:27Z</time></trkpt><trkpt lat="38.90832575836212" lon="8.781362249183424"><ele>26.0</ele><time>2026-04-01T08:57:28Z</time></trkpt><trkpt lat="38.908232622123315" lon="8.781257702135553"><ele>27.0</ele><time>2026-04-01T08:57:29Z</time></trkpt><trkpt lat="38.908126523905686" lon="8.781217694584445"><ele>28.0</ele><time>2026-04-01T08:57:30Z</time></trkpt><trkpt lat="38.90800730771778" lon="8.781269814992449"><ele>29.0</ele><time>2026-04-01T08:57:31Z</time></trkpt><trkpt lat="38.907914937455864" lon="8.781387102604622"><ele>29.0</ele><time>2026-04-01T08:57:32Z</time></trkpt><trkpt lat="38.90786161338065" lon="8.781542820969696"><ele>29.0</ele><time>2026-04-01T08:57:33Z</time></trkpt><trkpt lat="38.907803382120036" lon="8.781692157045716"><ele>29.0</ele><time>2026-04-01T08:57:34Z</time></trkpt><trkpt lat="38.90772911083035" lon="8.781831392091743"><ele>29.0</ele><time>2026-04-01T08:57:35Z</time></trkpt><trkpt lat="38.90764707340768" lon="8.781980969358992"><ele>29.25</ele><time>2026-04-01T08:57:36Z</time></trkpt><trkpt lat="38.90757166690264" lon="8.782146967616628"><ele>29.5</ele><time>2026-04-01T08:57:37Z</time></trkpt><trkpt lat="38.90749685374657" lon="8.782317384975483"><ele>29.75</ele><time>2026-04-01T08:57:38Z</time></trkpt><trkpt lat="38.907434172687765" lon="8.782482864779974"><ele>30.0</ele><time>2026-04-01T08:57:39Z</time></trkpt><trkpt lat="38.90736918423819" lon="8.782637436762116"><ele>31.75</ele><time>2026-04-01T08:57:40Z</time></trkpt><trkpt lat="38.907311925642716" lon="8.782785397016516"><ele>33.5</ele><time>2026-04-01T08:57:41Z</time></trkpt><trkpt lat="38.907244252016326" lon="8.782903932890838"><ele>35.25</ele><time>2026-04-01T08:57:42Z</time></trkpt><trkpt lat="38.90716283303855" lon="8.782993702640129"><ele>37.0</ele><time>2026-04-01T08:57:43Z</time></trkpt><trkpt lat="38.90705822551051" lon="8.783043578931885"><ele>37.0</ele><time>2026-04-01T08:57:44Z</time></trkpt><trkpt lat="38.906950845764" lon="8.783039181196184"><ele>37.0</ele><time>2026-04-01T08:57:45Z</time></trkpt><trkpt lat="38.90686575069824" lon="8.782983625097867"><ele>37.0</ele><time>2026-04-01T08:57:46Z</time></trkpt><trkpt lat="38.906782519347075" lon="8.782879683634315"><ele>37.0</ele><time>2026-04-01T08:57:47Z</time></trkpt><trkpt lat="38.90673890493114" lon="8.782745768280323"><ele>37.0</ele><time>2026-04-01T08:57:48Z</time></trkpt><trkpt lat="38.906740112808194" lon="8.782594142891998"><ele>35.25</ele><time>2026-04-01T08:57:49Z</time></trkpt><trkpt lat="38.906772170161176" lon="8.782448196561127"><ele>33.5</ele><time>2026-04-01T08:57:50Z</time></trkpt><trkpt lat="38.906796925927566" lon="8.782296518572519"><ele>31.75</ele><time>2026-04-01T08:57:51Z</time></trkpt><trkpt lat="38.906806673350665" lon="8.78213617278202"><ele>30.0</ele><time>2026-04-01T08:57:52Z</time></trkpt><trkpt lat="38.906824827447856" lon="8.781984023131846"><ele>28.0</ele><time>2026-04-01T08:57:53Z</time></trkpt><trkpt lat="38.90686058156401" lon="8.781825217192038"><ele>26.0</ele><time>2026-04-01T08:57:54Z</time></trkpt><trkpt lat="38.90689660692187" lon="8.781661590740944"><ele>24.0</ele><time>2026-04-01T08:57:55Z</time></trkpt><trkpt lat="38.906919547817466" lon="8.781499353243383"><ele>22.0</ele><time>2026-04-01T08:57:56Z</time></trkpt><trkpt lat="38.906914027753245" lon="8.781342933789794"><ele>22.0</ele><time>2026-04-01T08:57:57Z</time></trkpt><trkpt lat="38.906865965672814" lon="8.781200264737453"><ele>22.0</ele><time>2026-04-01T08:57:58Z</time></trkpt><trkpt lat="38.90677841480087" lon="8.781091104623542"><ele>22.0</ele><time>2026-04-01T08:57:59Z</time></trkpt><trkpt lat="38.90666536519926" lon="8.781034745923424"><ele>22.0</ele><time>2026-04-01T08:58:00Z</time></trkpt><trkpt lat="38.90653146738665" lon="8.781041458311048"><ele>26.0</ele><time>2026-04-01T08:58:01Z</time></trkpt><trkpt lat="38.90640419284679" lon="8.781104231337487"><ele>30.0</ele><time>2026-04-01T08:58:02Z</time></trkpt><trkpt lat="38.906285709865315" lon="8.781214113909375"><ele>34.0</ele><time>2026-04-01T08:58:03Z</time></trkpt><trkpt lat="38.90617702292175" lon="8.78134994980208"><ele>38.0</ele><time>2026-04-01T08:58:04Z</time></trkpt><trkpt lat="38.90605711851838" lon="8.781430048069941"><ele>38.0</ele><time>2026-04-01T08:58:05Z</time></trkpt><trkpt lat="38.90592369674162" lon="8.781431147871212"><ele>38.0</ele><time>2026-04-01T08:58:06Z</time></trkpt><trkpt lat="38.90579529465235" lon="8.781354228605096"><ele>38.0</ele><time>2026-04-01T08:58:07Z</time></trkpt><trkpt lat="38.905676027593344" lon="8.781273457640967"><ele>38.0</ele><time>2026-04-01T08:58:08Z</time></trkpt><trkpt lat="38.90556831380923" lon="8.781234385803959"><ele>40.0</ele><time>2026-04-01T08:58:09Z</time></trkpt><trkpt lat="38.90547926288905" lon="8.78123418555223"><ele>42.0</ele><time>2026-04-01T08:58:10Z</time></trkpt><trkpt lat="38.905416776021426" lon="8.78125838370417"><ele>44.0</ele><time>2026-04-01T08:58:11Z</time></trkpt><trkpt lat="38.90534720389548" lon="8.781298084225053"><ele>46.0</ele><time>2026-04-01T08:58:13Z</time></trkpt><trkpt lat="38.905262361585216" lon="8.781391734184409"><ele>48.0</ele><time>2026-04-01T08:59:12Z</time></trkpt><trkpt lat="38.90516034496133" lon="8.781482726475208"><ele>48.0</ele><time>2026-04-01T08:59:14Z</time></trkpt><trkpt lat="38.90510750938373" lon="8.781549469977014"><ele>48.0</ele><time>2026-04-01T08:59:15Z</time></trkpt><trkpt lat="38.90506417467839" lon="8.78164157798385"><ele>48.0</ele><time>2026-04-01T08:59:16Z</time></trkpt><trkpt lat="38.90502562093051" lon="8.781760793479494"><ele>48.0</ele><time>2026-04-01T08:59:17Z</time></trkpt><trkpt lat="38.90503149996821" lon="8.781909893925576"><ele>48.0</ele><time>2026-04-01T08:59:18Z</time></trkpt><trkpt lat="38.90504402735914" lon="8.782061640417256"><ele>47.5</ele><time>2026-04-01T08:59:19Z</time></trkpt><trkpt lat="38.905063398667245" lon="8.782225694100354"><ele>47.0</ele><time>2026-04-01T08:59:20Z</time></trkpt><trkpt lat="38.90507599387991" lon="8.782410172686202"><ele>46.5</ele><time>2026-04-01T08:59:21Z</time></trkpt><trkpt lat="38.90507373564882" lon="8.782605833743151"><ele>46.0</ele><time>2026-04-01T08:59:22Z</time></trkpt><trkpt lat="38.905073251267176" lon="8.782808689613331"><ele>50.25</ele><time>2026-04-01T08:59:23Z</time></trkpt><trkpt lat="38.90509026035883" lon="8.782998107813581"><ele>54.5</ele><time>2026-04-01T08:59:24Z</time></trkpt><trkpt lat="38.905116602341636" lon="8.783182800787248"><ele>58.75</ele><time>2026-04-01T08:59:25Z</time></trkpt><trkpt lat="38.90514335262196" lon="8.783361081668467"><ele>63.0</ele><time>2026-04-01T08:59:26Z</time></trkpt><trkpt lat="38.90517694173937" lon="8.783528151980951"><ele>64.25</ele><time>2026-04-01T08:59:27Z</time></trkpt><trkpt lat="38.90523426009454" lon="8.783670614355367"><ele>65.5</ele><time>2026-04-01T08:59:28Z</time></trkpt><trkpt lat="38.90531731392195" lon="8.783796893818035"><ele>66.75</ele><time>2026-04-01T08:59:29Z</time></trkpt><trkpt lat="38.905425270458906" lon="8.783906564802024"><ele>68.0</ele><time>2026-04-01T08:59:30Z</time></trkpt><trkpt lat="38.90551265152968" lon="8.784035800053644"><ele>68.0</ele><time>2026-04-01T08:59:31Z</time></trkpt><trkpt lat="38.90557355286509" lon="8.784188550485224"><ele>68.0</ele><time>2026-04-01T08:59:32Z</time></trkpt><trkpt lat="38.90560330928635" lon="8.784358307983377"><ele>68.0</ele><time>2026-04-01T08:59:33Z</time></trkpt><trkpt lat="38.9055950266663" lon="8.78454395642605"><ele>68.0</ele><time>2026-04-01T08:59:34Z</time></trkpt><trkpt lat="38.90556032631913" lon="8.784710796281972"><ele>70.75</ele><time>2026-04-01T08:59:35Z</time></trkpt><trkpt lat="38.905497258883074" lon="8.784842166039246"><ele>73.5</ele><time>2026-04-01T08:59:36Z</time></trkpt><trkpt lat="38.90539928677632" lon="8.784932970157877"><ele>76.25</ele><time>2026-04-01T08:59:37Z</time></trkpt><trkpt lat="38.90526357320968" lon="8.784975813505676"><ele>79.0</ele><time>2026-04-01T08:59:38Z</time></trkpt><trkpt lat="38.90510805320995" lon="8.784994899174043"><ele>76.25</ele><time>2026-04-01T08:59:39Z</time></trkpt><trkpt lat="38.90494554322032" lon="8.7850240969996"><ele>73.5</ele><time>2026-04-01T08:59:40Z</time></trkpt><trkpt lat="38.90481284724319" lon="8.78507457733728"><ele>70.75</ele><time>2026-04-01T08:59:41Z</time></trkpt><trkpt lat="38.904688554078106" lon="8.78512005252804"><ele>68.0</ele><time>2026-04-01T08:59:42Z</time></trkpt><trkpt lat="38.90457240822113" lon="8.785137818814363"><ele>68.0</ele><time>2026-04-01T08:59:43Z</time></trkpt><trkpt lat="38.904457254334496" lon="8.785119068164427"><ele>68.0</ele><time>2026-04-01T08:59:44Z</time></trkpt><trkpt lat="38.904350118397325" lon="8.785064111728582"><ele>68.0</ele><time>2026-04-01T08:59:45Z</time></trkpt><trkpt lat="38.90426430972873" lon="8.784954826330027"><ele>68.0</ele><time>2026-04-01T08:59:46Z</time></trkpt><trkpt lat="38.90421424504502" lon="8.784798008326526"><ele>69.25</ele><time>2026-04-01T08:59:47Z</time></trkpt><trkpt lat="38.90418853415783" lon="8.784624550866743"><ele>70.5</ele><time>2026-04-01T08:59:48Z</time></trkpt><trkpt lat="38.90416221409127" lon="8.78446897438468"><ele>71.75</ele><time>2026-04-01T08:59:49Z</time></trkpt><trkpt lat="38.90411104220032" lon="8.784331373986095"><ele>73.0</ele><time>2026-04-01T08:59:50Z</time></trkpt><trkpt lat="38.90403200793309" lon="8.784216675091733"><ele>70.6</ele><time>2026-04-01T08:59:51Z</time></trkpt><trkpt lat="38.90392922196532" lon="8.784155206300966"><ele>68.19999999999999</ele><time>2026-04-01T08:59:52Z</time></trkpt><trkpt lat="38.90384023557681" lon="8.78414264883977"><ele>65.8</ele><time>2026-04-01T08:59:53Z</time></trkpt><trkpt lat="38.90375402809064" lon="8.784152928003552"><ele>63.4</ele><time>2026-04-01T08:59:55Z</time></trkpt><trkpt lat="38.90369189040102" lon="8.784138581903578"><ele>61.0</ele><time>2026-04-01T08:59:58Z</time></trkpt><trkpt lat="38.90362042894408" lon="8.784228021280994"><ele>63.4</ele><time>2026-04-01T09:00:02Z</time></trkpt><trkpt lat="38.903597659870755" lon="8.784365569168337"><ele>65.8</ele><time>2026-04-01T09:00:04Z</time></trkpt><trkpt lat="38.9036044718559" lon="8.784531572872945"><ele>68.19999999999999</ele><time>2026-04-01T09:00:06Z</time></trkpt><trkpt lat="38.9036186582392" lon="8.784630669661988"><ele>70.6</ele><time>2026-04-01T09:00:07Z</time></trkpt><trkpt lat="38.90364152503005" lon="8.784752167207069"><ele>73.0</ele><time>2026-04-01T09:00:08Z</time></trkpt><trkpt lat="38.90367582115705" lon="8.78489640432692"><ele>73.0</ele><time>2026-04-01T09:00:09Z</time></trkpt><trkpt lat="38.903725005709774" lon="8.785062353246502"><ele>73.0</ele><time>2026-04-01T09:00:10Z</time></trkpt><trkpt lat="38.90375670952397" lon="8.785240449607816"><ele>73.0</ele><time>2026-04-01T09:00:11Z</time></trkpt><trkpt lat="38.90377404752531" lon="8.785445398336618"><ele>73.0</ele><time>2026-04-01T09:00:12Z</time></trkpt><trkpt lat="38.903755860619896" lon="8.785660689602055"><ele>78.66666666666666</ele><time>2026-04-01T09:00:13Z</time></trkpt><trkpt lat="38.90370603016229" lon="8.785881549362703"><ele>84.33333333333333</ele><time>2026-04-01T09:00:14Z</time></trkpt><trkpt lat="38.903648507982346" lon="8.786088171961083"><ele>90.0</ele><time>2026-04-01T09:00:15Z</time></trkpt><trkpt lat="38.90361940478451" lon="8.786292423206422"><ele>95.75</ele><time>2026-04-01T09:00:16Z</time></trkpt><trkpt lat="38.90363094505082" lon="8.786497385051696"><ele>101.5</ele><time>2026-04-01T09:00:17Z</time></trkpt><trkpt lat="38.90360357787974" lon="8.786677797714088"><ele>107.25</ele><time>2026-04-01T09:00:18Z</time></trkpt><trkpt lat="38.90352049357753" lon="8.78681399719775"><ele>113.0</ele><time>2026-04-01T09:00:19Z</time></trkpt><trkpt lat="38.90339784054965" lon="8.786906825046701"><ele>113.5</ele><time>2026-04-01T09:00:20Z</time></trkpt><trkpt lat="38.90326575113497" lon="8.786974446053856"><ele>114.0</ele><time>2026-04-01T09:00:21Z</time></trkpt><trkpt lat="38.90312688328992" lon="8.786997550719091"><ele>114.5</ele><time>2026-04-01T09:00:22Z</time></trkpt><trkpt lat="38.90298818596441" lon="8.786953813660313"><ele>115.0</ele><time>2026-04-01T09:00:23Z</time></trkpt><trkpt lat="38.9028568200112" lon="8.786875385216534"><ele>109.75</ele><time>2026-04-01T09:00:24Z</time></trkpt><trkpt lat="38.9027251609288" lon="8.786796806276492"><ele>104.5</ele><time>2026-04-01T09:00:25Z</time></trkpt><trkpt lat="38.90259948000408" lon="8.786736357907259"><ele>99.25</ele><time>2026-04-01T09:00:26Z</time></trkpt><trkpt lat="38.90248407382626" lon="8.786686469753699"><ele>94.0</ele><time>2026-04-01T09:00:27Z</time></trkpt><trkpt lat="38.90237973679124" lon="8.78665631684169"><ele>94.0</ele><time>2026-04-01T09:00:28Z</time></trkpt><trkpt lat="38.90227154763293" lon="8.786669812711578"><ele>94.0</ele><time>2026-04-01T09:00:29Z</time></trkpt><trkpt lat="38.90216578430761" lon="8.786739626957305"><ele>94.0</ele><time>2026-04-01T09:00:30Z</time></trkpt><trkpt lat="38.90208310975565" lon="8.786865739068418"><ele>94.0</ele><time>2026-04-01T09:00:31Z</time></trkpt><trkpt lat="38.90204587024781" lon="8.787025287258734"><ele>98.0</ele><time>2026-04-01T09:00:32Z</time></trkpt><trkpt lat="38.90205948993726" lon="8.787192083041898"><ele>102.0</ele><time>2026-04-01T09:00:33Z</time></trkpt><trkpt lat="38.902124811084725" lon="8.787335520576786"><ele>106.0</ele><time>2026-04-01T09:00:34Z</time></trkpt><trkpt lat="38.90221733868822" lon="8.787446278363632"><ele>110.0</ele><time>2026-04-01T09:00:35Z</time></trkpt><trkpt lat="38.90229851016329" lon="8.787568721597353"><ele>112.5</ele><time>2026-04-01T09:00:36Z</time></trkpt><trkpt lat="38.90234052871107" lon="8.787709754839153"><ele>115.0</ele><time>2026-04-01T09:00:37Z</time></trkpt><trkpt lat="38.90232039416818" lon="8.78787546787073"><ele>117.5</ele><time>2026-04-01T09:00:38Z</time></trkpt><trkpt lat="38.9022255331128" lon="8.788022860150512"><ele>120.0</ele><time>2026-04-01T09:00:39Z</time></trkpt><trkpt lat="38.902108317825345" lon="8.788125700162588"><ele>120.0</ele><time>2026-04-01T09:00:40Z</time></trkpt><trkpt lat="38.90201648608503" lon="8.78824682000537"><ele>120.0</ele><time>2026-04-01T09:00:41Z</time></trkpt><trkpt lat="38.90195930848619" lon="8.78839457259708"><ele>120.0</ele><time>2026-04-01T09:00:42Z</time></trkpt><trkpt lat="38.90188254463729" lon="8.788521578670963"><ele>120.0</ele><time>2026-04-01T09:00:43Z</time></trkpt><trkpt lat="38.9017636294599" lon="8.78859847674692"><ele>116.75</ele><time>2026-04-01T09:00:44Z</time></trkpt><trkpt lat="38.901626350147275" lon="8.788609509291577"><ele>113.5</ele><time>2026-04-01T09:00:45Z</time></trkpt><trkpt lat="38.90148736575988" lon="8.788602655526532"><ele>110.25</ele><time>2026-04-01T09:00:46Z</time></trkpt><trkpt lat="38.90135328251303" lon="8.788610087706513"><ele>107.0</ele><time>2026-04-01T09:00:47Z</time></trkpt><trkpt lat="38.901229057579066" lon="8.788646604255348"><ele>107.0</ele><time>2026-04-01T09:00:48Z</time></trkpt><trkpt lat="38.90112275587487" lon="8.788707586898253"><ele>106.99999999999999</ele><time>2026-04-01T09:00:49Z</time></trkpt><trkpt lat="38.90102944074398" lon="8.788779502834227"><ele>106.99999999999999</ele><time>2026-04-01T09:00:50Z</time></trkpt><trkpt lat="38.90094068505939" lon="8.788857879861776"><ele>107.0</ele><time>2026-04-01T09:00:51Z</time></trkpt><trkpt lat="38.90084961254182" lon="8.78893865244362"><ele>107.0</ele><time>2026-04-01T09:00:52Z</time></trkpt><trkpt lat="38.90074589325443" lon="8.789015845567523"><ele>104.5</ele><time>2026-04-01T09:00:53Z</time></trkpt><trkpt lat="38.90063550070552" lon="8.789106131130405"><ele>102.0</ele><time>2026-04-01T09:00:54Z</time></trkpt><trkpt lat="38.90051995440904" lon="8.789206652065307"><ele>99.5</ele><time>2026-04-01T09:00:55Z</time></trkpt><trkpt lat="38.90040193641614" lon="8.789309424593643"><ele>97.0</ele><time>2026-04-01T09:00:56Z</time></trkpt><trkpt lat="38.90029587370548" lon="8.7894111060006"><ele>95.6</ele><time>2026-04-01T09:00:57Z</time></trkpt><trkpt lat="38.90020192211966" lon="8.78951315006215"><ele>94.19999999999999</ele><time>2026-04-01T09:00:58Z</time></trkpt><trkpt lat="38.900098981266986" lon="8.789592133841651"><ele>92.8</ele><time>2026-04-01T09:00:59Z</time></trkpt><trkpt lat="38.900019345017505" lon="8.789640708450476"><ele>91.4</ele><time>2026-04-01T09:01:00Z</time></trkpt><trkpt lat="38.899911658376716" lon="8.789637069957296"><ele>90.0</ele><time>2026-04-01T09:01:01Z</time></trkpt><trkpt lat="38.89978708266566" lon="8.789585498911125"><ele>90.0</ele><time>2026-04-01T09:01:02Z</time></trkpt><trkpt lat="38.899668655509004" lon="8.789519114689602"><ele>90.0</ele><time>2026-04-01T09:01:03Z</time></trkpt><trkpt lat="38.89956145941263" lon="8.789432080217246"><ele>90.0</ele><time>2026-04-01T09:01:04Z</time></trkpt><trkpt lat="38.89944354595359" lon="8.789351769078161"><ele>90.0</ele><time>2026-04-01T09:01:05Z</time></trkpt><trkpt lat="38.899316774022246" lon="8.789282020881394"><ele>89.5</ele><time>2026-04-01T09:01:06Z</time></trkpt><trkpt lat="38.89919117875751" lon="8.789258189334905"><ele>89.0</ele><time>2026-04-01T09:01:07Z</time></trkpt><trkpt lat="38.89906119928239" lon="8.789288516417475"><ele>88.5</ele><time>2026-04-01T09:01:08Z</time></trkpt><trkpt lat="38.89895362191527" lon="8.789384057152796"><ele>88.0</ele><time>2026-04-01T09:01:09Z</time></trkpt><trkpt lat="38.898866584852435" lon="8.789530010417463"><ele>88.0</ele><time>2026-04-01T09:01:10Z</time></trkpt><trkpt lat="38.89878531479718" lon="8.789680325544166"><ele>88.0</ele><time>2026-04-01T09:01:11Z</time></trkpt><trkpt lat="38.89870321146172" lon="8.789809551256983"><ele>88.0</ele><time>2026-04-01T09:01:12Z</time></trkpt><trkpt lat="38.89861590092772" lon="8.789935320025174"><ele>88.0</ele><time>2026-04-01T09:01:13Z</time></trkpt><trkpt lat="38.89852336554266" lon="8.790060865028048"><ele>88.5</ele><time>2026-04-01T09:01:14Z</time></trkpt><trkpt lat="38.89842741264577" lon="8.79019232097685"><ele>89.0</ele><time>2026-04-01T09:01:15Z</time></trkpt><trkpt lat="38.89833003010076" lon="8.790328758464373"><ele>89.5</ele><time>2026-04-01T09:01:16Z</time></trkpt><trkpt lat="38.898230233959744" lon="8.790473203948228"><ele>90.0</ele><time>2026-04-01T09:01:17Z</time></trkpt><trkpt lat="38.89812781466263" lon="8.790617248236327"><ele>90.0</ele><time>2026-04-01T09:01:18Z</time></trkpt><trkpt lat="38.898028821759084" lon="8.790761590037489"><ele>90.0</ele><time>2026-04-01T09:01:19Z</time></trkpt><trkpt lat="38.89792840617455" lon="8.790891943270388"><ele>90.0</ele><time>2026-04-01T09:01:20Z</time></trkpt><trkpt lat="38.89782197343831" lon="8.79099954619712"><ele>90.0</ele><time>2026-04-01T09:01:21Z</time></trkpt><trkpt lat="38.8977065472131" lon="8.791091100170703"><ele>90.0</ele><time>2026-04-01T09:01:22Z</time></trkpt><trkpt lat="38.897594008949845" lon="8.791183090420276"><ele>90.0</ele><time>2026-04-01T09:01:23Z</time></trkpt><trkpt lat="38.8974880439966" lon="8.791283584893733"><ele>90.0</ele><time>2026-04-01T09:01:24Z</time></trkpt><trkpt lat="38.89739379270164" lon="8.791406565902523"><ele>90.0</ele><time>2026-04-01T09:01:25Z</time></trkpt><trkpt lat="38.897301272948006" lon="8.79153547748317"><ele>89.25</ele><time>2026-04-01T09:01:26Z</time></trkpt><trkpt lat="38.89721018771849" lon="8.791661877469595"><ele>88.5</ele><time>2026-04-01T09:01:27Z</time></trkpt><trkpt lat="38.897119460219365" lon="8.791790660812882"><ele>87.75</ele><time>2026-04-01T09:01:28Z</time></trkpt><trkpt lat="38.8970446367025" lon="8.79192637067821"><ele>87.0</ele><time>2026-04-01T09:01:29Z</time></trkpt><trkpt lat="38.897003129199746" lon="8.792077032170207"><ele>87.0</ele><time>2026-04-01T09:01:30Z</time></trkpt><trkpt lat="38.89698655782659" lon="8.792235474786883"><ele>87.0</ele><time>2026-04-01T09:01:31Z</time></trkpt><trkpt lat="38.8969926121732" lon="8.792397922152462"><ele>87.0</ele><time>2026-04-01T09:01:32Z</time></trkpt><trkpt lat="38.89700926725447" lon="8.792562134287202"><ele>87.0</ele><time>2026-04-01T09:01:33Z</time></trkpt><trkpt lat="38.8970178996069" lon="8.792729087083496"><ele>88.25</ele><time>2026-04-01T09:01:34Z</time></trkpt><trkpt lat="38.89699861015981" lon="8.792912538059"><ele>89.5</ele><time>2026-04-01T09:01:35Z</time></trkpt><trkpt lat="38.896941098519335" lon="8.793099077045065"><ele>90.75</ele><time>2026-04-01T09:01:36Z</time></trkpt><trkpt lat="38.89688391381065" lon="8.793235673552655"><ele>92.0</ele><time>2026-04-01T09:01:37Z</time></trkpt><trkpt lat="38.89681803527551" lon="8.793359459733336"><ele>92.0</ele><time>2026-04-01T09:01:38Z</time></trkpt><trkpt lat="38.89676520711214" lon="8.793472235083783"><ele>92.0</ele><time>2026-04-01T09:01:39Z</time></trkpt><trkpt lat="38.89671618014869" lon="8.793583718424571"><ele>92.0</ele><time>2026-04-01T09:01:40Z</time></trkpt><trkpt lat="38.896677408368205" lon="8.793686785776968"><ele>92.0</ele><time>2026-04-01T09:01:41Z</time></trkpt><trkpt lat="38.89665012173016" lon="8.79379378873721"><ele>92.0</ele><time>2026-04-01T09:01:42Z</time></trkpt><trkpt lat="38.89663175143482" lon="8.793899346903869"><ele>88.57142857142857</ele><time>2026-04-01T09:01:43Z</time></trkpt><trkpt lat="38.896620398256324" lon="8.793978946541808"><ele>85.14285714285714</ele><time>2026-04-01T09:01:44Z</time></trkpt><trkpt lat="38.8966147998217" lon="8.794075191163563"><ele>81.71428571428571</ele><time>2026-04-01T09:01:46Z</time></trkpt><trkpt lat="38.89662903076579" lon="8.79417444590663"><ele>78.28571428571428</ele><time>2026-04-01T09:01:49Z</time></trkpt><trkpt lat="38.896668415772844" lon="8.794240184901572"><ele>74.85714285714286</ele><time>2026-04-01T09:16:53Z</time></trkpt><trkpt lat="38.89673914467143" lon="8.794286453283407"><ele>71.42857142857142</ele><time>2026-04-01T09:16:56Z</time></trkpt><trkpt lat="38.89681103369801" lon="8.794339799944675"><ele>68.0</ele><time>2026-04-01T09:16:59Z</time></trkpt><trkpt lat="38.89688687298206" lon="8.794386591568077"><ele>67.4</ele><time>2026-04-01T09:17:01Z</time></trkpt><trkpt lat="38.89694281083593" lon="8.794428604330356"><ele>66.8</ele><time>2026-04-01T09:17:02Z</time></trkpt><trkpt lat="38.89702334942371" lon="8.794483714441023"><ele>66.2</ele><time>2026-04-01T09:17:03Z</time></trkpt><trkpt lat="38.89712176223896" lon="8.794547207001942"><ele>65.6</ele><time>2026-04-01T09:17:04Z</time></trkpt><trkpt lat="38.89723643452138" lon="8.794641289477717"><ele>65.0</ele><time>2026-04-01T09:17:05Z</time></trkpt><trkpt lat="38.89734065488373" lon="8.794774883266697"><ele>65.0</ele><time>2026-04-01T09:17:06Z</time></trkpt><trkpt lat="38.897421093487964" lon="8.794923119659968"><ele>65.0</ele><time>2026-04-01T09:17:07Z</time></trkpt><trkpt lat="38.89750435707576" lon="8.795048275856676"><ele>65.0</ele><time>2026-04-01T09:17:08Z</time></trkpt><trkpt lat="38.897591002457474" lon="8.79511412906041"><ele>65.0</ele><time>2026-04-01T09:17:09Z</time></trkpt><trkpt lat="38.89769988710437" lon="8.795126916981225"><ele>63.75</ele><time>2026-04-01T09:17:10Z</time></trkpt><trkpt lat="38.89782859438091" lon="8.795094225139612"><ele>62.5</ele><time>2026-04-01T09:17:11Z</time></trkpt><trkpt lat="38.89796032796937" lon="8.79504543313441"><ele>61.25</ele><time>2026-04-01T09:17:12Z</time></trkpt><trkpt lat="38.89809322219972" lon="8.794996153182195"><ele>60.0</ele><time>2026-04-01T09:17:13Z</time></trkpt><trkpt lat="38.89821528993982" lon="8.794948911076657"><ele>60.0</ele><time>2026-04-01T09:17:14Z</time></trkpt><trkpt lat="38.89832345306701" lon="8.794883977336571"><ele>60.0</ele><time>2026-04-01T09:17:15Z</time></trkpt><trkpt lat="38.898418421229685" lon="8.794785035459443"><ele>60.0</ele><time>2026-04-01T09:17:16Z</time></trkpt><trkpt lat="38.898491869529785" lon="8.794642354771689"><ele>60.0</ele><time>2026-04-01T09:17:17Z</time></trkpt><trkpt lat="38.8985540206343" lon="8.79447388964537"><ele>55.0</ele><time>2026-04-01T09:17:18Z</time></trkpt><trkpt lat="38.89863540783037" lon="8.794309803474937"><ele>50.0</ele><time>2026-04-01T09:17:19Z</time></trkpt><trkpt lat="38.89873873352597" lon="8.79415326117195"><ele>45.0</ele><time>2026-04-01T09:17:20Z</time></trkpt><trkpt lat="38.8988567489224" lon="8.794007671507671"><ele>45.0</ele><time>2026-04-01T09:17:21Z</time></trkpt><trkpt lat="38.898968522096474" lon="8.793876795608169"><ele>45.0</ele><time>2026-04-01T09:17:22Z</time></trkpt><trkpt lat="38.899065005867165" lon="8.793742817553683"><ele>45.0</ele><time>2026-04-01T09:17:23Z</time></trkpt><trkpt lat="38.899125858061815" lon="8.79358471817298"><ele>45.0</ele><time>2026-04-01T09:17:24Z</time></trkpt><trkpt lat="38.89912714786241" lon="8.793413107681976"><ele>46.25</ele><time>2026-04-01T09:17:25Z</time></trkpt><trkpt lat="38.89911535455924" lon="8.793260365517657"><ele>47.5</ele><time>2026-04-01T09:17:26Z</time></trkpt><trkpt lat="38.899133337924134" lon="8.793094798635433"><ele>48.75</ele><time>2026-04-01T09:17:27Z</time></trkpt><trkpt lat="38.899205950283225" lon="8.792962969890139"><ele>50.0</ele><time>2026-04-01T09:17:28Z</time></trkpt><trkpt lat="38.899282943259685" lon="8.79287755948639"><ele>50.0</ele><time>2026-04-01T09:17:29Z</time></trkpt><trkpt lat="38.899498555138976" lon="8.792824421417444"><ele>50.0</ele><time>2026-04-01T09:17:30Z</time></trkpt><trkpt lat="38.899630373842854" lon="8.792842841325436"><ele>50.0</ele><time>2026-04-01T09:17:31Z</time></trkpt><trkpt lat="38.899754876845044" lon="8.792922311583046"><ele>50.0</ele><time>2026-04-01T09:17:32Z</time></trkpt><trkpt lat="38.899853340503284" lon="8.793058159888206"><ele>50.0</ele><time>2026-04-01T09:17:33Z</time></trkpt><trkpt lat="38.89996774005855" lon="8.793209729461953"><ele>50.0</ele><time>2026-04-01T09:17:34Z</time></trkpt><trkpt lat="38.900035632138795" lon="8.793398006206957"><ele>61.66666666666667</ele><time>2026-04-01T09:17:35Z</time></trkpt><trkpt lat="38.900101658429534" lon="8.793585749744675"><ele>73.33333333333333</ele><time>2026-04-01T09:17:36Z</time></trkpt><trkpt lat="38.900149035456636" lon="8.793803338043134"><ele>85.0</ele><time>2026-04-01T09:17:37Z</time></trkpt><trkpt lat="38.90015820966411" lon="8.794028064870323"><ele>85.0</ele><time>2026-04-01T09:17:38Z</time></trkpt><trkpt lat="38.9001501442482" lon="8.794271333040841"><ele>85.0</ele><time>2026-04-01T09:17:39Z</time></trkpt><trkpt lat="38.90009841000622" lon="8.794503451338716"><ele>85.0</ele><time>2026-04-01T09:17:40Z</time></trkpt><trkpt lat="38.90007206608404" lon="8.794743210444006"><ele>68.0</ele><time>2026-04-01T09:17:41Z</time></trkpt><trkpt lat="38.90006583583396" lon="8.794988381893647"><ele>51.0</ele><time>2026-04-01T09:17:42Z</time></trkpt><trkpt lat="38.900065670564985" lon="8.79523809577384"><ele>34.0</ele><time>2026-04-01T09:17:43Z</time></trkpt><trkpt lat="38.90006687265864" lon="8.795494135080743"><ele>36.333333333333336</ele><time>2026-04-01T09:17:44Z</time></trkpt><trkpt lat="38.90009160064937" lon="8.795741555865412"><ele>38.666666666666664</ele><time>2026-04-01T09:17:45Z</time></trkpt><trkpt lat="38.900112504218704" lon="8.795988204950273"><ele>41.0</ele><time>2026-04-01T09:17:46Z</time></trkpt><trkpt lat="38.90012917780027" lon="8.796234895015342"><ele>41.0</ele><time>2026-04-01T09:17:47Z</time></trkpt><trkpt lat="38.90014568104218" lon="8.796478970100859"><ele>41.0</ele><time>2026-04-01T09:17:48Z</time></trkpt><trkpt lat="38.900150870352704" lon="8.796722942160853"><ele>41.0</ele><time>2026-04-01T09:17:49Z</time></trkpt><trkpt lat="38.90014002546024" lon="8.796966573794"><ele>41.33333333333333</ele><time>2026-04-01T09:17:50Z</time></trkpt><trkpt lat="38.90011881008621" lon="8.79720421586605"><ele>41.666666666666664</ele><time>2026-04-01T09:17:51Z</time></trkpt><trkpt lat="38.9001005410944" lon="8.797447192625938"><ele>42.0</ele><time>2026-04-01T09:17:52Z</time></trkpt><trkpt lat="38.90009078057117" lon="8.797681046916832"><ele>40.666666666666664</ele><time>2026-04-01T09:17:53Z</time></trkpt><trkpt lat="38.900084812855695" lon="8.79791060048629"><ele>39.33333333333333</ele><time>2026-04-01T09:17:54Z</time></trkpt><trkpt lat="38.90007002059212" lon="8.798139807312491"><ele>38.0</ele><time>2026-04-01T09:17:55Z</time></trkpt><trkpt lat="38.900059034415335" lon="8.798361446198461"><ele>30.333333333333332</ele><time>2026-04-01T09:17:56Z</time></trkpt><trkpt lat="38.90005081608828" lon="8.798585825230372"><ele>22.666666666666664</ele><time>2026-04-01T09:17:57Z</time></trkpt><trkpt lat="38.90003832696841" lon="8.798809082718376"><ele>15.0</ele><time>2026-04-01T09:17:58Z</time></trkpt><trkpt lat="38.900018066847736" lon="8.799046016902373"><ele>15.0</ele><time>2026-04-01T09:17:59Z</time></trkpt><trkpt lat="38.89999042533738" lon="8.799283913718671"><ele>15.0</ele><time>2026-04-01T09:18:00Z</time></trkpt><trkpt lat="38.89995982687509" lon="8.799511664578644"><ele>15.0</ele><time>2026-04-01T09:18:01Z</time></trkpt><trkpt lat="38.89993857910798" lon="8.7997269262554"><ele>14.666666666666668</ele><time>2026-04-01T09:18:02Z</time></trkpt><trkpt lat="38.89992399943017" lon="8.799935171560305"><ele>14.333333333333334</ele><time>2026-04-01T09:18:03Z</time></trkpt><trkpt lat="38.89989620590035" lon="8.800128703886585"><ele>14.0</ele><time>2026-04-01T09:18:04Z</time></trkpt><trkpt lat="38.899835983307476" lon="8.800308653414517"><ele>14.0</ele><time>2026-04-01T09:18:05Z</time></trkpt><trkpt lat="38.899733671253706" lon="8.800472923796598"><ele>14.0</ele><time>2026-04-01T09:18:06Z</time></trkpt><trkpt lat="38.89960635783925" lon="8.800613636059571"><ele>14.0</ele><time>2026-04-01T09:18:07Z</time></trkpt><trkpt lat="38.8994730253777" lon="8.800746509980103"><ele>14.0</ele><time>2026-04-01T09:18:08Z</time></trkpt><trkpt lat="38.89936090186145" lon="8.800901010361493"><ele>14.0</ele><time>2026-04-01T09:18:09Z</time></trkpt><trkpt lat="38.89929332809077" lon="8.80108241988325"><ele>14.0</ele><time>2026-04-01T09:18:10Z</time></trkpt><trkpt lat="38.89926612513336" lon="8.801271066545103"><ele>12.333333333333334</ele><time>2026-04-01T09:18:11Z</time></trkpt><trkpt lat="38.89929520636156" lon="8.801453534808413"><ele>10.666666666666668</ele><time>2026-04-01T09:18:12Z</time></trkpt><trkpt lat="38.899370383110075" lon="8.801619591029938"><ele>9.0</ele><time>2026-04-01T09:18:13Z</time></trkpt><trkpt lat="38.89948602578181" lon="8.80175655850724"><ele>6.666666666666667</ele><time>2026-04-01T09:18:14Z</time></trkpt><trkpt lat="38.89961401606724" lon="8.801859047593245"><ele>4.333333333333333</ele><time>2026-04-01T09:18:15Z</time></trkpt><trkpt lat="38.899762596919366" lon="8.801898691784322"><ele>2.0</ele><time>2026-04-01T09:18:16Z</time></trkpt><trkpt lat="38.89991771028387" lon="8.801882756704936"><ele>2.0</ele><time>2026-04-01T09:18:17Z</time></trkpt><trkpt lat="38.90006806809913" lon="8.801807552217165"><ele>2.0</ele><time>2026-04-01T09:18:18Z</time></trkpt><trkpt lat="38.90019925931807" lon="8.801696959616946"><ele>2.0</ele><time>2026-04-01T09:18:19Z</time></trkpt><trkpt lat="38.90035176815133" lon="8.801575498480425"><ele>2.0</ele><time>2026-04-01T09:18:20Z</time></trkpt><trkpt lat="38.90049225874554" lon="8.801484180710396"><ele>2.0</ele><time>2026-04-01T09:18:21Z</time></trkpt><trkpt lat="38.90062274445606" lon="8.801429592998634"><ele>2.0</ele><time>2026-04-01T09:18:22Z</time></trkpt><trkpt lat="38.90075192693037" lon="8.801427176177468"><ele>2.0</ele><time>2026-04-01T09:18:23Z</time></trkpt><trkpt lat="38.90087364984621" lon="8.801465096078696"><ele>3.5</ele><time>2026-04-01T09:18:24Z</time></trkpt><trkpt lat="38.90097188521623" lon="8.801532836007743"><ele>5.0</ele><time>2026-04-01T09:18:25Z</time></trkpt><trkpt lat="38.901046727778606" lon="8.801625693776732"><ele>6.5</ele><time>2026-04-01T09:18:26Z</time></trkpt><trkpt lat="38.901111601530665" lon="8.801750711902322"><ele>8.0</ele><time>2026-04-01T09:18:27Z</time></trkpt><trkpt lat="38.901181891132445" lon="8.80189756043393"><ele>8.0</ele><time>2026-04-01T09:18:28Z</time></trkpt><trkpt lat="38.901271654731005" lon="8.80204672113841"><ele>8.0</ele><time>2026-04-01T09:18:29Z</time></trkpt><trkpt lat="38.901369040609914" lon="8.802194875337118"><ele>8.0</ele><time>2026-04-01T09:18:30Z</time></trkpt><trkpt lat="38.90147851903488" lon="8.802350528749567"><ele>8.0</ele><time>2026-04-01T09:18:31Z</time></trkpt><trkpt lat="38.90157351733796" lon="8.80253602686836"><ele>8.0</ele><time>2026-04-01T09:18:32Z</time></trkpt><trkpt lat="38.901689942597855" lon="8.80271359880217"><ele>8.0</ele><time>2026-04-01T09:18:33Z</time></trkpt><trkpt lat="38.9018008467644" lon="8.802891085837544"><ele>7.0</ele><time>2026-04-01T09:18:34Z</time></trkpt><trkpt lat="38.90193917996042" lon="8.803036436732516"><ele>6.0</ele><time>2026-04-01T09:18:35Z</time></trkpt><trkpt lat="38.902034823380504" lon="8.803163464683418"><ele>5.0</ele><time>2026-04-01T09:18:36Z</time></trkpt><trkpt lat="38.90216261320839" lon="8.803256402241555"><ele>5.0</ele><time>2026-04-01T09:18:37Z</time></trkpt><trkpt lat="38.902318286719094" lon="8.803297771610293"><ele>5.0</ele><time>2026-04-01T09:18:38Z</time></trkpt><trkpt lat="38.90248534900695" lon="8.803297931725561"><ele>5.0</ele><time>2026-04-01T09:18:39Z</time></trkpt><trkpt lat="38.90264952749118" lon="8.803304583702872"><ele>5.333333333333334</ele><time>2026-04-01T09:18:40Z</time></trkpt><trkpt lat="38.902815495027156" lon="8.803307644093358"><ele>5.666666666666667</ele><time>2026-04-01T09:18:41Z</time></trkpt><trkpt lat="38.9029859652399" lon="8.803316909992107"><ele>6.0</ele><time>2026-04-01T09:18:42Z</time></trkpt><trkpt lat="38.90316211369065" lon="8.803309783493981"><ele>6.0</ele><time>2026-04-01T09:18:43Z</time></trkpt><trkpt lat="38.90334230106016" lon="8.803266682494124"><ele>6.0</ele><time>2026-04-01T09:18:44Z</time></trkpt><trkpt lat="38.90352209218071" lon="8.803207871871642"><ele>6.0</ele><time>2026-04-01T09:18:45Z</time></trkpt><trkpt lat="38.90370333358934" lon="8.80315752323567"><ele>5.333333333333333</ele><time>2026-04-01T09:18:46Z</time></trkpt><trkpt lat="38.903881245194164" lon="8.80311585307194"><ele>4.666666666666666</ele><time>2026-04-01T09:18:47Z</time></trkpt><trkpt lat="38.90406211577677" lon="8.803072076398314"><ele>4.0</ele><time>2026-04-01T09:18:48Z</time></trkpt><trkpt lat="38.90424149120125" lon="8.803026884270198"><ele>3.6666666666666665</ele><time>2026-04-01T09:18:49Z</time></trkpt><trkpt lat="38.90442458315556" lon="8.802979864801902"><ele>3.333333333333333</ele><time>2026-04-01T09:18:50Z</time></trkpt><trkpt lat="38.904608131033285" lon="8.80293531335916"><ele>3.0</ele><time>2026-04-01T09:18:51Z</time></trkpt><trkpt lat="38.904788927218476" lon="8.802890610669138"><ele>3.0</ele><time>2026-04-01T09:18:52Z</time></trkpt><trkpt lat="38.90496264685477" lon="8.802853368726966"><ele>3.0</ele><time>2026-04-01T09:18:52.999Z</time></trkpt><trkpt lat="38.90512383648397" lon="8.80284516491891"><ele>3.0</ele><time>2026-04-01T09:18:53.999Z</time></trkpt><trkpt lat="38.90527343083764" lon="8.802881906666071"><ele>3.333333333333333</ele><time>2026-04-01T09:18:54.999Z</time></trkpt><trkpt lat="38.90541347025133" lon="8.802965598082544"><ele>3.6666666666666665</ele><time>2026-04-01T09:18:55.999Z</time></trkpt><trkpt lat="38.90552943276592" lon="8.803093950960408"><ele>4.0</ele><time>2026-04-01T09:18:56.999Z</time></trkpt><trkpt lat="38.905610876087174" lon="8.803250926959176"><ele>4.0</ele><time>2026-04-01T09:18:57.999Z</time></trkpt><trkpt lat="38.9056688823709" lon="8.803427409299397"><ele>4.0</ele><time>2026-04-01T09:18:58.999Z</time></trkpt><trkpt lat="38.90570054387622" lon="8.803613747347564"><ele>4.0</ele><time>2026-04-01T09:18:59.999Z</time></trkpt><trkpt lat="38.90566838000611" lon="8.803827150344256"><ele>5.0</ele><time>2026-04-01T09:19:00.999Z</time></trkpt><trkpt lat="38.90563548143435" lon="8.804004870145532"><ele>6.0</ele><time>2026-04-01T09:19:01.999Z</time></trkpt><trkpt lat="38.90556902484939" lon="8.804194081818911"><ele>7.0</ele><time>2026-04-01T09:19:02.999Z</time></trkpt><trkpt lat="38.90549032937105" lon="8.80438741411615"><ele>8.333333333333334</ele><time>2026-04-01T09:19:03.999Z</time></trkpt><trkpt lat="38.90541189409514" lon="8.804593301767886"><ele>9.666666666666666</ele><time>2026-04-01T09:19:04.999Z</time></trkpt><trkpt lat="38.90536407280923" lon="8.804816537327802"><ele>11.0</ele><time>2026-04-01T09:19:05.999Z</time></trkpt><trkpt lat="38.90534707951593" lon="8.805054957010519"><ele>10.333333333333332</ele><time>2026-04-01T09:19:06.999Z</time></trkpt><trkpt lat="38.90535678511457" lon="8.8052991927802"><ele>9.666666666666666</ele><time>2026-04-01T09:19:07.999Z</time></trkpt><trkpt lat="38.905374350643775" lon="8.805543493055444"><ele>9.0</ele><time>2026-04-01T09:19:08.999Z</time></trkpt><trkpt lat="38.90544789791734" lon="8.805785742833676"><ele>7.666666666666667</ele><time>2026-04-01T09:19:09.999Z</time></trkpt><trkpt lat="38.905530365419516" lon="8.806025024954193"><ele>6.333333333333334</ele><time>2026-04-01T09:19:10.999Z</time></trkpt><trkpt lat="38.905605928358476" lon="8.806265920216745"><ele>5.0</ele><time>2026-04-01T09:19:11.999Z</time></trkpt><trkpt lat="38.90567181597979" lon="8.80650554176607"><ele>5.0</ele><time>2026-04-01T09:19:12.999Z</time></trkpt><trkpt lat="38.90573451683394" lon="8.806747056643152"><ele>5.0</ele><time>2026-04-01T09:19:13.999Z</time></trkpt><trkpt lat="38.9057956141504" lon="8.806987305918021"><ele>5.0</ele><time>2026-04-01T09:19:14.999Z</time></trkpt><trkpt lat="38.90586786384753" lon="8.8072154427033"><ele>6.333333333333334</ele><time>2026-04-01T09:19:15.999Z</time></trkpt><trkpt lat="38.90594148302453" lon="8.80745365401712"><ele>7.666666666666667</ele><time>2026-04-01T09:19:16.999Z</time></trkpt><trkpt lat="38.90603617025706" lon="8.807676861344232"><ele>9.0</ele><time>2026-04-01T09:19:17.999Z</time></trkpt><trkpt lat="38.90614657948467" lon="8.807893359159568"><ele>9.0</ele><time>2026-04-01T09:19:18.999Z</time></trkpt><trkpt lat="38.906268801805666" lon="8.808104563960674"><ele>9.0</ele><time>2026-04-01T09:19:19.999Z</time></trkpt><trkpt lat="38.90639454536183" lon="8.808322116788506"><ele>9.0</ele><time>2026-04-01T09:19:20.999Z</time></trkpt><trkpt lat="38.90653258331207" lon="8.808539628151918"><ele>8.666666666666666</ele><time>2026-04-01T09:19:21.999Z</time></trkpt><trkpt lat="38.90666718989361" lon="8.80876280483906"><ele>8.333333333333332</ele><time>2026-04-01T09:19:22.999Z</time></trkpt><trkpt lat="38.906798942543915" lon="8.808990127637568"><ele>8.0</ele><time>2026-04-01T09:19:23.999Z</time></trkpt><trkpt lat="38.90692750073854" lon="8.809211302241602"><ele>8.333333333333332</ele><time>2026-04-01T09:19:24.999Z</time></trkpt><trkpt lat="38.90705376399873" lon="8.809431579980805"><ele>8.666666666666666</ele><time>2026-04-01T09:19:25.999Z</time></trkpt><trkpt lat="38.907188831429" lon="8.80964217349599"><ele>9.0</ele><time>2026-04-01T09:19:26.999Z</time></trkpt><trkpt lat="38.90733664238337" lon="8.809828517007666"><ele>9.0</ele><time>2026-04-01T09:19:27.999Z</time></trkpt><trkpt lat="38.90748775424678" lon="8.810004531302486"><ele>9.0</ele><time>2026-04-01T09:19:28.999Z</time></trkpt><trkpt lat="38.90764107548568" lon="8.810181019068935"><ele>9.0</ele><time>2026-04-01T09:19:29.999Z</time></trkpt><trkpt lat="38.9077786633714" lon="8.810352334416002"><ele>9.666666666666666</ele><time>2026-04-01T09:19:30.999Z</time></trkpt><trkpt lat="38.90791763911603" lon="8.810514972790925"><ele>10.333333333333332</ele><time>2026-04-01T09:19:31.999Z</time></trkpt><trkpt lat="38.90803467702485" lon="8.810668984261552"><ele>11.0</ele><time>2026-04-01T09:19:32.999Z</time></trkpt><trkpt lat="38.908140923474164" lon="8.810819099063977"><ele>11.0</ele><time>2026-04-01T09:19:33.999Z</time></trkpt><trkpt lat="38.90821756777214" lon="8.810980550220037"><ele>11.0</ele><time>2026-04-01T09:19:34.999Z</time></trkpt><trkpt lat="38.908243000234584" lon="8.811157117263102"><ele>11.0</ele><time>2026-04-01T09:19:35.999Z</time></trkpt><trkpt lat="38.90822060160398" lon="8.811340602681385"><ele>11.0</ele><time>2026-04-01T09:19:36.999Z</time></trkpt><trkpt lat="38.90815817165283" lon="8.811510397217411"><ele>14.666666666666666</ele><time>2026-04-01T09:19:37.999Z</time></trkpt><trkpt lat="38.90805762976768" lon="8.811677057747087"><ele>18.333333333333332</ele><time>2026-04-01T09:19:38.999Z</time></trkpt><trkpt lat="38.907928732667855" lon="8.811784745837407"><ele>22.0</ele><time>2026-04-01T09:19:40Z</time></trkpt><trkpt lat="38.90778384390578" lon="8.811873219459661"><ele>23.666666666666664</ele><time>2026-04-01T09:19:41Z</time></trkpt><trkpt lat="38.90762034925262" lon="8.811955975009605"><ele>25.333333333333332</ele><time>2026-04-01T09:19:42Z</time></trkpt><trkpt lat="38.907465954759125" lon="8.81206118528064"><ele>27.0</ele><time>2026-04-01T09:19:43Z</time></trkpt><trkpt lat="38.90730575495331" lon="8.812176055593921"><ele>27.0</ele><time>2026-04-01T09:19:44Z</time></trkpt><trkpt lat="38.90713967811094" lon="8.81229671924024"><ele>27.0</ele><time>2026-04-01T09:19:45Z</time></trkpt><trkpt lat="38.906975910414225" lon="8.812410708226178"><ele>27.0</ele><time>2026-04-01T09:19:46Z</time></trkpt><trkpt lat="38.90682448334642" lon="8.812509289329581"><ele>26.666666666666664</ele><time>2026-04-01T09:19:47Z</time></trkpt><trkpt lat="38.90667188445997" lon="8.812567072027539"><ele>26.333333333333332</ele><time>2026-04-01T09:19:48Z</time></trkpt><trkpt lat="38.90650725325053" lon="8.812560137854616"><ele>26.0</ele><time>2026-04-01T09:19:49Z</time></trkpt><trkpt lat="38.90634718884307" lon="8.812486122845913"><ele>26.0</ele><time>2026-04-01T09:19:50Z</time></trkpt><trkpt lat="38.90618901445679" lon="8.812404793512012"><ele>26.0</ele><time>2026-04-01T09:19:51Z</time></trkpt><trkpt lat="38.906030644020746" lon="8.812333414960193"><ele>26.0</ele><time>2026-04-01T09:19:52Z</time></trkpt><trkpt lat="38.905865097221096" lon="8.812287319169247"><ele>29.333333333333332</ele><time>2026-04-01T09:19:53Z</time></trkpt><trkpt lat="38.90570443248101" lon="8.812278449353725"><ele>32.666666666666664</ele><time>2026-04-01T09:19:54Z</time></trkpt><trkpt lat="38.90556112522587" lon="8.812295375689429"><ele>36.0</ele><time>2026-04-01T09:19:55Z</time></trkpt><trkpt lat="38.90542172352262" lon="8.812356460866754"><ele>36.0</ele><time>2026-04-01T09:19:56Z</time></trkpt><trkpt lat="38.905272156762685" lon="8.812446956509337"><ele>36.0</ele><time>2026-04-01T09:19:57Z</time></trkpt><trkpt lat="38.905129385686706" lon="8.812562799378433"><ele>36.0</ele><time>2026-04-01T09:19:58Z</time></trkpt><trkpt lat="38.90497581713686" lon="8.81268627573655"><ele>34.333333333333336</ele><time>2026-04-01T09:19:59Z</time></trkpt><trkpt lat="38.90481243909491" lon="8.812792321479748"><ele>32.66666666666667</ele><time>2026-04-01T09:20:00Z</time></trkpt><trkpt lat="38.90462823910125" lon="8.812861014544298"><ele>31.0</ele><time>2026-04-01T09:20:01Z</time></trkpt><trkpt lat="38.90442929838185" lon="8.81290882945575"><ele>29.0</ele><time>2026-04-01T09:20:02Z</time></trkpt><trkpt lat="38.90422854412557" lon="8.812936093108089"><ele>27.0</ele><time>2026-04-01T09:20:03Z</time></trkpt><trkpt lat="38.90402052548706" lon="8.813019335243514"><ele>25.0</ele><time>2026-04-01T09:20:04Z</time></trkpt><trkpt lat="38.9038256332739" lon="8.813120603499609"><ele>25.0</ele><time>2026-04-01T09:20:05Z</time></trkpt><trkpt lat="38.903636709297444" lon="8.813233497480724"><ele>25.0</ele><time>2026-04-01T09:20:06Z</time></trkpt><trkpt lat="38.90345065625238" lon="8.813348802507416"><ele>25.0</ele><time>2026-04-01T09:20:07Z</time></trkpt><trkpt lat="38.903268858105825" lon="8.81345573683035"><ele>22.333333333333336</ele><time>2026-04-01T09:20:08Z</time></trkpt><trkpt lat="38.9030868750438" lon="8.813551479325614"><ele>19.666666666666668</ele><time>2026-04-01T09:20:09Z</time></trkpt><trkpt lat="38.90291353566388" lon="8.813638702319766"><ele>17.0</ele><time>2026-04-01T09:20:10Z</time></trkpt><trkpt lat="38.90273414818071" lon="8.81370431889443"><ele>17.0</ele><time>2026-04-01T09:20:11Z</time></trkpt><trkpt lat="38.90253958985228" lon="8.813743728309403"><ele>17.0</ele><time>2026-04-01T09:20:12Z</time></trkpt><trkpt lat="38.902337561886206" lon="8.813765171870328"><ele>17.0</ele><time>2026-04-01T09:20:13Z</time></trkpt><trkpt lat="38.90212889674469" lon="8.813790351088892"><ele>17.0</ele><time>2026-04-01T09:20:14Z</time></trkpt><trkpt lat="38.90192239297635" lon="8.81381856197014"><ele>17.0</ele><time>2026-04-01T09:20:15Z</time></trkpt><trkpt lat="38.901713783922844" lon="8.813844644128993"><ele>17.0</ele><time>2026-04-01T09:20:16Z</time></trkpt><trkpt lat="38.90150166215286" lon="8.813867976970258"><ele>16.666666666666668</ele><time>2026-04-01T09:20:17Z</time></trkpt><trkpt lat="38.90129185293869" lon="8.813892446243145"><ele>16.333333333333332</ele><time>2026-04-01T09:20:18Z</time></trkpt><trkpt lat="38.901080842108435" lon="8.813923797987496"><ele>16.0</ele><time>2026-04-01T09:20:19Z</time></trkpt><trkpt lat="38.90087095516371" lon="8.813971868373638"><ele>14.333333333333332</ele><time>2026-04-01T09:20:20Z</time></trkpt><trkpt lat="38.9006642895691" lon="8.814036718761514"><ele>12.666666666666666</ele><time>2026-04-01T09:20:21Z</time></trkpt><trkpt lat="38.90045875785378" lon="8.814118863105323"><ele>11.0</ele><time>2026-04-01T09:20:22Z</time></trkpt><trkpt lat="38.900261424575135" lon="8.81421754616155"><ele>12.0</ele><time>2026-04-01T09:20:23Z</time></trkpt><trkpt lat="38.90007041205976" lon="8.81432354817143"><ele>13.0</ele><time>2026-04-01T09:20:24Z</time></trkpt><trkpt lat="38.899878617467685" lon="8.814427801177066"><ele>14.0</ele><time>2026-04-01T09:20:25Z</time></trkpt><trkpt lat="38.899708678404174" lon="8.814560742550233"><ele>14.0</ele><time>2026-04-01T09:20:26Z</time></trkpt><trkpt lat="38.89954781249863" lon="8.814707669731746"><ele>14.0</ele><time>2026-04-01T09:20:27Z</time></trkpt><trkpt lat="38.89939079218133" lon="8.814854785876289"><ele>14.0</ele><time>2026-04-01T09:20:28Z</time></trkpt><trkpt lat="38.899235050481515" lon="8.814965922102218"><ele>13.333333333333334</ele><time>2026-04-01T09:20:29Z</time></trkpt><trkpt lat="38.89906516400853" lon="8.815038741388179"><ele>12.666666666666668</ele><time>2026-04-01T09:20:30Z</time></trkpt><trkpt lat="38.89887634202358" lon="8.815074278984566"><ele>12.0</ele><time>2026-04-01T09:20:31Z</time></trkpt><trkpt lat="38.898674656357734" lon="8.815103996185515"><ele>12.0</ele><time>2026-04-01T09:20:32Z</time></trkpt><trkpt lat="38.89847688618481" lon="8.815127844354205"><ele>12.0</ele><time>2026-04-01T09:20:33Z</time></trkpt><trkpt lat="38.8982840273757" lon="8.81516447373257"><ele>12.0</ele><time>2026-04-01T09:20:34Z</time></trkpt><trkpt lat="38.89808795265116" lon="8.81520032622524"><ele>13.0</ele><time>2026-04-01T09:20:35Z</time></trkpt><trkpt lat="38.8978974728439" lon="8.815242749968444"><ele>14.0</ele><time>2026-04-01T09:20:36Z</time></trkpt><trkpt lat="38.89770575796155" lon="8.81527473613809"><ele>15.0</ele><time>2026-04-01T09:20:37Z</time></trkpt><trkpt lat="38.89751215089785" lon="8.815318519469505"><ele>13.0</ele><time>2026-04-01T09:20:38Z</time></trkpt><trkpt lat="38.8973177615579" lon="8.815352905421046"><ele>11.0</ele><time>2026-04-01T09:20:39Z</time></trkpt><trkpt lat="38.89712647419879" lon="8.815389862128331"><ele>9.0</ele><time>2026-04-01T09:20:40Z</time></trkpt><trkpt lat="38.896935686215826" lon="8.815434613877823"><ele>8.666666666666666</ele><time>2026-04-01T09:20:41Z</time></trkpt><trkpt lat="38.896749338431285" lon="8.815490088393227"><ele>8.333333333333332</ele><time>2026-04-01T09:20:42Z</time></trkpt><trkpt lat="38.896583039731105" lon="8.815564796565672"><ele>8.0</ele><time>2026-04-01T09:20:43Z</time></trkpt><trkpt lat="38.896419802513186" lon="8.815671835347587"><ele>8.0</ele><time>2026-04-01T09:20:44Z</time></trkpt><trkpt lat="38.89627131729853" lon="8.815804447383702"><ele>8.0</ele><time>2026-04-01T09:20:45Z</time></trkpt><trkpt lat="38.89613472712377" lon="8.815951502773835"><ele>8.0</ele><time>2026-04-01T09:20:46Z</time></trkpt><trkpt lat="38.89599926018116" lon="8.816109661070389"><ele>12.0</ele><time>2026-04-01T09:20:47Z</time></trkpt><trkpt lat="38.895880756075215" lon="8.816282529124615"><ele>16.0</ele><time>2026-04-01T09:20:48Z</time></trkpt><trkpt lat="38.89575472817516" lon="8.81643725331303"><ele>20.0</ele><time>2026-04-01T09:20:49Z</time></trkpt><trkpt lat="38.895648576310435" lon="8.816610760301447"><ele>20.0</ele><time>2026-04-01T09:20:50Z</time></trkpt><trkpt lat="38.89556072596851" lon="8.816808564346202"><ele>20.0</ele><time>2026-04-01T09:20:51Z</time></trkpt><trkpt lat="38.89549890781038" lon="8.817021353649928"><ele>20.0</ele><time>2026-04-01T09:20:52Z</time></trkpt><trkpt lat="38.89545088313461" lon="8.817247150510498"><ele>23.333333333333336</ele><time>2026-04-01T09:20:53Z</time></trkpt><trkpt lat="38.895406164884164" lon="8.817473209479344"><ele>26.666666666666668</ele><time>2026-04-01T09:20:54Z</time></trkpt><trkpt lat="38.895353599141" lon="8.817695420785208"><ele>30.0</ele><time>2026-04-01T09:20:55Z</time></trkpt><trkpt lat="38.89529344672214" lon="8.817922635542594"><ele>34.333333333333336</ele><time>2026-04-01T09:20:56Z</time></trkpt><trkpt lat="38.8952285190776" lon="8.81814988535885"><ele>38.66666666666667</ele><time>2026-04-01T09:20:57Z</time></trkpt><trkpt lat="38.895164387355926" lon="8.818378294510355"><ele>43.0</ele><time>2026-04-01T09:20:58Z</time></trkpt><trkpt lat="38.89511171417061" lon="8.81859719335507"><ele>36.0</ele><time>2026-04-01T09:20:59Z</time></trkpt><trkpt lat="38.895058185445315" lon="8.818805823158359"><ele>29.0</ele><time>2026-04-01T09:21:00Z</time></trkpt><trkpt lat="38.89501111054792" lon="8.819000583750212"><ele>22.0</ele><time>2026-04-01T09:21:01Z</time></trkpt><trkpt lat="38.89496881991863" lon="8.819207309574297"><ele>24.666666666666664</ele><time>2026-04-01T09:21:02Z</time></trkpt><trkpt lat="38.894936160713314" lon="8.819421121845226"><ele>27.333333333333332</ele><time>2026-04-01T09:21:03Z</time></trkpt><trkpt lat="38.894910891088074" lon="8.819652740842121"><ele>30.0</ele><time>2026-04-01T09:21:04Z</time></trkpt><trkpt lat="38.89488664935284" lon="8.819897005789402"><ele>30.0</ele><time>2026-04-01T09:21:05Z</time></trkpt><trkpt lat="38.89486097267329" lon="8.820139648920767"><ele>30.0</ele><time>2026-04-01T09:21:06Z</time></trkpt><trkpt lat="38.89482865719679" lon="8.820391483036257"><ele>30.0</ele><time>2026-04-01T09:21:07Z</time></trkpt><trkpt lat="38.89479371540381" lon="8.820642126234098"><ele>31.0</ele><time>2026-04-01T09:21:08Z</time></trkpt><trkpt lat="38.89474946726635" lon="8.820897461771791"><ele>32.0</ele><time>2026-04-01T09:21:09Z</time></trkpt><trkpt lat="38.894683888490846" lon="8.82114562204764"><ele>33.0</ele><time>2026-04-01T09:21:10Z</time></trkpt><trkpt lat="38.894599671327136" lon="8.821393838817178"><ele>34.333333333333336</ele><time>2026-04-01T09:21:10.999Z</time></trkpt><trkpt lat="38.894498938872744" lon="8.821635097815607"><ele>35.66666666666667</ele><time>2026-04-01T09:21:11.999Z</time></trkpt><trkpt lat="38.8943889860655" lon="8.821865117509626"><ele>37.0</ele><time>2026-04-01T09:21:12.999Z</time></trkpt><trkpt lat="38.89428345940491" lon="8.822094047804946"><ele>34.0</ele><time>2026-04-01T09:21:13.999Z</time></trkpt><trkpt lat="38.894183393957135" lon="8.822323376102647"><ele>31.0</ele><time>2026-04-01T09:21:14.999Z</time></trkpt><trkpt lat="38.894085997073844" lon="8.822551491650394"><ele>28.0</ele><time>2026-04-01T09:21:15.999Z</time></trkpt><trkpt lat="38.893983359574015" lon="8.822774429333545"><ele>28.0</ele><time>2026-04-01T09:21:16.999Z</time></trkpt><trkpt lat="38.893896425899136" lon="8.822990246418515"><ele>28.0</ele><time>2026-04-01T09:21:17.999Z</time></trkpt><trkpt lat="38.89381044207371" lon="8.823207109107736"><ele>28.0</ele><time>2026-04-01T09:21:18.999Z</time></trkpt><trkpt lat="38.89373976409478" lon="8.823425087778212"><ele>28.333333333333336</ele><time>2026-04-01T09:21:19.999Z</time></trkpt><trkpt lat="38.89369712057264" lon="8.823654790088115"><ele>28.666666666666664</ele><time>2026-04-01T09:21:20.999Z</time></trkpt><trkpt lat="38.89368609273999" lon="8.82389264160643"><ele>29.0</ele><time>2026-04-01T09:21:21.999Z</time></trkpt><trkpt lat="38.89370700076524" lon="8.824138038318559"><ele>30.0</ele><time>2026-04-01T09:21:22.999Z</time></trkpt><trkpt lat="38.89373558731542" lon="8.824374840319233"><ele>31.0</ele><time>2026-04-01T09:21:23.999Z</time></trkpt><trkpt lat="38.8937467474799" lon="8.824618053182922"><ele>32.0</ele><time>2026-04-01T09:21:24.999Z</time></trkpt><trkpt lat="38.893737935879564" lon="8.824855762930648"><ele>32.0</ele><time>2026-04-01T09:21:25.999Z</time></trkpt><trkpt lat="38.89370359335858" lon="8.825090866913381"><ele>32.0</ele><time>2026-04-01T09:21:26.999Z</time></trkpt><trkpt lat="38.89364293289225" lon="8.825314467909633"><ele>32.0</ele><time>2026-04-01T09:21:27.999Z</time></trkpt><trkpt lat="38.89356617444503" lon="8.825534436880861"><ele>32.666666666666664</ele><time>2026-04-01T09:21:28.999Z</time></trkpt><trkpt lat="38.89348469393835" lon="8.825758451714874"><ele>33.333333333333336</ele><time>2026-04-01T09:21:29.999Z</time></trkpt><trkpt lat="38.89340410887138" lon="8.825985084067339"><ele>34.0</ele><time>2026-04-01T09:21:30.999Z</time></trkpt><trkpt lat="38.893330213902935" lon="8.82621501055171"><ele>30.666666666666668</ele><time>2026-04-01T09:21:31.999Z</time></trkpt><trkpt lat="38.89326000678281" lon="8.82645313923349"><ele>27.333333333333336</ele><time>2026-04-01T09:21:32.999Z</time></trkpt><trkpt lat="38.893190954711564" lon="8.826689651621889"><ele>24.0</ele><time>2026-04-01T09:21:34Z</time></trkpt><trkpt lat="38.89311069895683" lon="8.826925718724446"><ele>24.0</ele><time>2026-04-01T09:21:35Z</time></trkpt><trkpt lat="38.89303503033966" lon="8.827165168259796"><ele>24.0</ele><time>2026-04-01T09:21:36Z</time></trkpt><trkpt lat="38.89295904435913" lon="8.827403506196193"><ele>24.0</ele><time>2026-04-01T09:21:37Z</time></trkpt><trkpt lat="38.892883855193105" lon="8.82763932251937"><ele>26.666666666666664</ele><time>2026-04-01T09:21:38Z</time></trkpt><trkpt lat="38.89280876274308" lon="8.827871178758656"><ele>29.333333333333332</ele><time>2026-04-01T09:21:39Z</time></trkpt><trkpt lat="38.89274720493624" lon="8.828111371190401"><ele>32.0</ele><time>2026-04-01T09:21:40Z</time></trkpt><trkpt lat="38.89271564865724" lon="8.82836077582615"><ele>34.666666666666664</ele><time>2026-04-01T09:21:41Z</time></trkpt><trkpt lat="38.89270585739091" lon="8.828622173444312"><ele>37.333333333333336</ele><time>2026-04-01T09:21:42Z</time></trkpt><trkpt lat="38.89269364203402" lon="8.828877002749685"><ele>40.0</ele><time>2026-04-01T09:21:43Z</time></trkpt><trkpt lat="38.89267555226825" lon="8.829130149995526"><ele>42.333333333333336</ele><time>2026-04-01T09:21:44Z</time></trkpt><trkpt lat="38.89265289795749" lon="8.829381331486376"><ele>44.666666666666664</ele><time>2026-04-01T09:21:45Z</time></trkpt><trkpt lat="38.89263152721123" lon="8.829631940102734"><ele>47.0</ele><time>2026-04-01T09:21:46Z</time></trkpt><trkpt lat="38.89261725371741" lon="8.82988656063743"><ele>47.0</ele><time>2026-04-01T09:21:47Z</time></trkpt><trkpt lat="38.892599057007374" lon="8.830140860112593"><ele>47.0</ele><time>2026-04-01T09:21:48Z</time></trkpt><trkpt lat="38.89257834758155" lon="8.830399395307278"><ele>47.0</ele><time>2026-04-01T09:21:49Z</time></trkpt><trkpt lat="38.89255134082003" lon="8.830655844841951"><ele>42.666666666666664</ele><time>2026-04-01T09:21:50Z</time></trkpt><trkpt lat="38.892528075918314" lon="8.83091310427353"><ele>38.333333333333336</ele><time>2026-04-01T09:21:51Z</time></trkpt><trkpt lat="38.892506823093576" lon="8.831169874248278"><ele>34.0</ele><time>2026-04-01T09:21:52Z</time></trkpt><trkpt lat="38.892487959612914" lon="8.831425119802361"><ele>34.0</ele><time>2026-04-01T09:21:53Z</time></trkpt><trkpt lat="38.89247172429034" lon="8.831677715159"><ele>34.0</ele><time>2026-04-01T09:21:54Z</time></trkpt><trkpt lat="38.8924519438086" lon="8.831932266677432"><ele>34.0</ele><time>2026-04-01T09:21:55Z</time></trkpt><trkpt lat="38.89243179216066" lon="8.83217452771302"><ele>35.5</ele><time>2026-04-01T09:21:56Z</time></trkpt><trkpt lat="38.89239904812695" lon="8.83238957050577"><ele>37.0</ele><time>2026-04-01T09:21:57Z</time></trkpt><trkpt lat="38.89233334801087" lon="8.832553611213877"><ele>38.5</ele><time>2026-04-01T09:21:58Z</time></trkpt><trkpt lat="38.89223290597332" lon="8.832661441985985"><ele>40.0</ele><time>2026-04-01T09:21:59Z</time></trkpt><trkpt lat="38.89210236916873" lon="8.832708696106586"><ele>41.25</ele><time>2026-04-01T09:22:00Z</time></trkpt><trkpt lat="38.89196400014731" lon="8.832748977087377"><ele>42.5</ele><time>2026-04-01T09:22:01Z</time></trkpt><trkpt lat="38.891840394169144" lon="8.832829162518054"><ele>43.75</ele><time>2026-04-01T09:22:02Z</time></trkpt><trkpt lat="38.89174525994226" lon="8.832960403935147"><ele>45.0</ele><time>2026-04-01T09:22:03Z</time></trkpt><trkpt lat="38.891681929546785" lon="8.833135293823691"><ele>45.0</ele><time>2026-04-01T09:22:04Z</time></trkpt><trkpt lat="38.89165723341832" lon="8.833337800864141"><ele>45.0</ele><time>2026-04-01T09:22:05Z</time></trkpt><trkpt lat="38.891684391251836" lon="8.833547687194255"><ele>45.0</ele><time>2026-04-01T09:22:06Z</time></trkpt><trkpt lat="38.8917385927249" lon="8.833762094018676"><ele>55.66666666666667</ele><time>2026-04-01T09:22:07Z</time></trkpt><trkpt lat="38.89178480734331" lon="8.833974912642713"><ele>66.33333333333334</ele><time>2026-04-01T09:22:08Z</time></trkpt><trkpt lat="38.891816209066924" lon="8.834183363700117"><ele>77.0</ele><time>2026-04-01T09:22:09Z</time></trkpt><trkpt lat="38.89184688866882" lon="8.834403032111616"><ele>79.66666666666667</ele><time>2026-04-01T09:22:10Z</time></trkpt><trkpt lat="38.891879706328844" lon="8.834625102424775"><ele>82.33333333333333</ele><time>2026-04-01T09:22:11Z</time></trkpt><trkpt lat="38.891919827837384" lon="8.834852993321766"><ele>85.0</ele><time>2026-04-01T09:22:12Z</time></trkpt><trkpt lat="38.89195504588886" lon="8.835072979745112"><ele>84.0</ele><time>2026-04-01T09:22:13Z</time></trkpt><trkpt lat="38.89198680962511" lon="8.835291288179988"><ele>83.0</ele><time>2026-04-01T09:22:14Z</time></trkpt><trkpt lat="38.892021512201175" lon="8.835511742167386"><ele>82.0</ele><time>2026-04-01T09:22:15Z</time></trkpt><trkpt lat="38.89206464941496" lon="8.835729931507991"><ele>82.0</ele><time>2026-04-01T09:22:16Z</time></trkpt><trkpt lat="38.89212753230785" lon="8.835942581916209"><ele>82.0</ele><time>2026-04-01T09:22:17Z</time></trkpt><trkpt lat="38.89221614586129" lon="8.836147006155077"><ele>82.0</ele><time>2026-04-01T09:22:18Z</time></trkpt><trkpt lat="38.89229488691186" lon="8.836363033695168"><ele>80.66666666666666</ele><time>2026-04-01T09:22:19Z</time></trkpt><trkpt lat="38.89237823746942" lon="8.83657756908695"><ele>79.33333333333333</ele><time>2026-04-01T09:22:20Z</time></trkpt><trkpt lat="38.89245908090614" lon="8.836792036497828"><ele>78.0</ele><time>2026-04-01T09:22:21Z</time></trkpt><trkpt lat="38.89254092427221" lon="8.836994638414847"><ele>79.0</ele><time>2026-04-01T09:22:22Z</time></trkpt><trkpt lat="38.89263246116993" lon="8.837190447233876"><ele>80.0</ele><time>2026-04-01T09:22:23Z</time></trkpt><trkpt lat="38.89273259836223" lon="8.837375143240829"><ele>81.0</ele><time>2026-04-01T09:22:24Z</time></trkpt><trkpt lat="38.89283297318564" lon="8.837559783845114"><ele>76.66666666666667</ele><time>2026-04-01T09:22:25Z</time></trkpt><trkpt lat="38.892935135518606" lon="8.837747205197472"><ele>72.33333333333334</ele><time>2026-04-01T09:22:26Z</time></trkpt><trkpt lat="38.89302500972996" lon="8.837932426407674"><ele>68.0</ele><time>2026-04-01T09:22:27Z</time></trkpt><trkpt lat="38.89311131399434" lon="8.83811369232385"><ele>68.0</ele><time>2026-04-01T09:22:28Z</time></trkpt><trkpt lat="38.89316252667429" lon="8.838330243203997"><ele>68.0</ele><time>2026-04-01T09:22:29Z</time></trkpt><trkpt lat="38.893182430439346" lon="8.838561355625837"><ele>68.0</ele><time>2026-04-01T09:22:30Z</time></trkpt><trkpt lat="38.89319983174647" lon="8.838789111184825"><ele>64.33333333333334</ele><time>2026-04-01T09:22:31Z</time></trkpt><trkpt lat="38.893221806862655" lon="8.83902245749922"><ele>60.66666666666667</ele><time>2026-04-01T09:22:32Z</time></trkpt><trkpt lat="38.89324778197196" lon="8.839246975733692"><ele>57.0</ele><time>2026-04-01T09:22:33Z</time></trkpt><trkpt lat="38.89326739087146" lon="8.839444923101203"><ele>56.5</ele><time>2026-04-01T09:22:34Z</time></trkpt><trkpt lat="38.89327359878498" lon="8.839627072113593"><ele>56.0</ele><time>2026-04-01T09:22:35Z</time></trkpt><trkpt lat="38.89324749730799" lon="8.839798459137288"><ele>55.5</ele><time>2026-04-01T09:22:36Z</time></trkpt><trkpt lat="38.89317094831804" lon="8.839948866827214"><ele>55.0</ele><time>2026-04-01T09:22:37Z</time></trkpt><trkpt lat="38.89304693547844" lon="8.840067089878284"><ele>54.33333333333333</ele><time>2026-04-01T09:22:38Z</time></trkpt><trkpt lat="38.89289586162036" lon="8.840168498229229"><ele>53.66666666666667</ele><time>2026-04-01T09:22:39Z</time></trkpt><trkpt lat="38.892739568388016" lon="8.840291854709143"><ele>53.0</ele><time>2026-04-01T09:22:40Z</time></trkpt><trkpt lat="38.892593004828846" lon="8.840430666538353"><ele>51.66666666666667</ele><time>2026-04-01T09:22:41Z</time></trkpt><trkpt lat="38.89245947187758" lon="8.840562192614387"><ele>50.33333333333333</ele><time>2026-04-01T09:22:42Z</time></trkpt><trkpt lat="38.89233391757493" lon="8.840686041863856"><ele>49.0</ele><time>2026-04-01T09:22:43Z</time></trkpt><trkpt lat="38.892224889045366" lon="8.840826023932056"><ele>46.666666666666664</ele><time>2026-04-01T09:22:44Z</time></trkpt><trkpt lat="38.89214018587921" lon="8.841004354484074"><ele>44.33333333333333</ele><time>2026-04-01T09:22:45Z</time></trkpt><trkpt lat="38.89208638127281" lon="8.841214562826067"><ele>42.0</ele><time>2026-04-01T09:22:46Z</time></trkpt><trkpt lat="38.89205656473883" lon="8.841443495259162"><ele>42.0</ele><time>2026-04-01T09:22:47Z</time></trkpt><trkpt lat="38.892028415553966" lon="8.841679443908035"><ele>42.0</ele><time>2026-04-01T09:22:48Z</time></trkpt><trkpt lat="38.89199355149429" lon="8.841923118396505"><ele>42.0</ele><time>2026-04-01T09:22:49Z</time></trkpt><trkpt lat="38.89195121496027" lon="8.842171242235791"><ele>41.0</ele><time>2026-04-01T09:22:50Z</time></trkpt><trkpt lat="38.891904528293324" lon="8.842427348560266"><ele>40.0</ele><time>2026-04-01T09:22:51Z</time></trkpt><trkpt lat="38.8918637830861" lon="8.842685513403081"><ele>39.0</ele><time>2026-04-01T09:22:52Z</time></trkpt><trkpt lat="38.89183636226924" lon="8.842941139937132"><ele>37.666666666666664</ele><time>2026-04-01T09:22:53Z</time></trkpt><trkpt lat="38.891835812404864" lon="8.84319963544218"><ele>36.33333333333333</ele><time>2026-04-01T09:22:54Z</time></trkpt><trkpt lat="38.89186232822822" lon="8.843464209932346"><ele>35.0</ele><time>2026-04-01T09:22:55Z</time></trkpt><trkpt lat="38.891898886226016" lon="8.843730076596062"><ele>34.666666666666664</ele><time>2026-04-01T09:22:56Z</time></trkpt><trkpt lat="38.89193300118515" lon="8.843999009279603"><ele>34.333333333333336</ele><time>2026-04-01T09:22:57Z</time></trkpt><trkpt lat="38.891964283451635" lon="8.844278765175877"><ele>34.0</ele><time>2026-04-01T09:22:58Z</time></trkpt><trkpt lat="38.89199234207644" lon="8.844552431572621"><ele>32.66666666666667</ele><time>2026-04-01T09:22:59Z</time></trkpt><trkpt lat="38.89202574792022" lon="8.844827023213696"><ele>31.333333333333336</ele><time>2026-04-01T09:23:00Z</time></trkpt><trkpt lat="38.892057025054115" lon="8.845104864998943"><ele>30.0</ele><time>2026-04-01T09:23:01Z</time></trkpt><trkpt lat="38.89208981014667" lon="8.845378377089984"><ele>29.333333333333336</ele><time>2026-04-01T09:23:02Z</time></trkpt><trkpt lat="38.89212398997365" lon="8.845655843074988"><ele>28.666666666666668</ele><time>2026-04-01T09:23:03Z</time></trkpt><trkpt lat="38.892154073972186" lon="8.845934493236323"><ele>28.0</ele><time>2026-04-01T09:23:04Z</time></trkpt><trkpt lat="38.892180592319676" lon="8.846214105499097"><ele>27.666666666666668</ele><time>2026-04-01T09:23:05Z</time></trkpt><trkpt lat="38.8922090522693" lon="8.846494423638413"><ele>27.333333333333336</ele><time>2026-04-01T09:23:06Z</time></trkpt><trkpt lat="38.892238549902615" lon="8.846771966972804"><ele>27.0</ele><time>2026-04-01T09:23:07Z</time></trkpt><trkpt lat="38.892268509228295" lon="8.847049407397925"><ele>27.0</ele><time>2026-04-01T09:23:08Z</time></trkpt><trkpt lat="38.89229703489182" lon="8.847328277413185"><ele>27.0</ele><time>2026-04-01T09:23:09Z</time></trkpt><trkpt lat="38.892323858994864" lon="8.847604452666662"><ele>27.0</ele><time>2026-04-01T09:23:10Z</time></trkpt><trkpt lat="38.892349646503824" lon="8.847878635826806"><ele>27.0</ele><time>2026-04-01T09:23:11Z</time></trkpt><trkpt lat="38.89237954941631" lon="8.848153642054807"><ele>27.0</ele><time>2026-04-01T09:23:12Z</time></trkpt><trkpt lat="38.89240916313097" lon="8.848428592279658"><ele>27.0</ele><time>2026-04-01T09:23:13Z</time></trkpt><trkpt lat="38.8924366561521" lon="8.848702335280853"><ele>26.666666666666664</ele><time>2026-04-01T09:23:14Z</time></trkpt><trkpt lat="38.89246362954417" lon="8.848976379557389"><ele>26.333333333333332</ele><time>2026-04-01T09:23:15Z</time></trkpt><trkpt lat="38.89249238048557" lon="8.849251398851534"><ele>26.0</ele><time>2026-04-01T09:23:16Z</time></trkpt><trkpt lat="38.89252140464894" lon="8.849527408186072"><ele>25.666666666666664</ele><time>2026-04-01T09:23:17Z</time></trkpt><trkpt lat="38.892549550429834" lon="8.849805419400024"><ele>25.333333333333336</ele><time>2026-04-01T09:23:18Z</time></trkpt><trkpt lat="38.892580936075795" lon="8.850086830337574"><ele>25.0</ele><time>2026-04-01T09:23:19Z</time></trkpt><trkpt lat="38.89261300718725" lon="8.850371424727921"><ele>25.0</ele><time>2026-04-01T09:23:20Z</time></trkpt><trkpt lat="38.892641895352966" lon="8.85065893639964"><ele>25.0</ele><time>2026-04-01T09:23:21Z</time></trkpt><trkpt lat="38.89267240911019" lon="8.850944519887953"><ele>24.0</ele><time>2026-04-01T09:23:22Z</time></trkpt><trkpt lat="38.89270194192695" lon="8.851231695684909"><ele>23.0</ele><time>2026-04-01T09:23:23Z</time></trkpt><trkpt lat="38.89273241036637" lon="8.851519716211117"><ele>22.5</ele><time>2026-04-01T09:23:24Z</time></trkpt><trkpt lat="38.89276413263249" lon="8.851806713605521"><ele>22.0</ele><time>2026-04-01T09:23:25Z</time></trkpt><trkpt lat="38.89279588614335" lon="8.852095282163287"><ele>22.0</ele><time>2026-04-01T09:23:26Z</time></trkpt><trkpt lat="38.89282609522554" lon="8.852385930994636"><ele>22.0</ele><time>2026-04-01T09:23:27Z</time></trkpt><trkpt lat="38.89285580498873" lon="8.852673175960998"><ele>21.0</ele><time>2026-04-01T09:23:28Z</time></trkpt><trkpt lat="38.892886529153934" lon="8.852960574185962"><ele>20.0</ele><time>2026-04-01T09:23:29Z</time></trkpt><trkpt lat="38.89291708725776" lon="8.853245535095603"><ele>20.0</ele><time>2026-04-01T09:23:30Z</time></trkpt><trkpt lat="38.892945543245126" lon="8.853530231928618"><ele>20.0</ele><time>2026-04-01T09:23:31Z</time></trkpt><trkpt lat="38.89297354866287" lon="8.853810427438713"><ele>20.0</ele><time>2026-04-01T09:23:32Z</time></trkpt><trkpt lat="38.89300223891138" lon="8.854086928493723"><ele>20.333333333333336</ele><time>2026-04-01T09:23:33Z</time></trkpt><trkpt lat="38.893033039972444" lon="8.854361721250406"><ele>20.666666666666668</ele><time>2026-04-01T09:23:34Z</time></trkpt><trkpt lat="38.89306229038269" lon="8.854633944306858"><ele>21.0</ele><time>2026-04-01T09:23:35Z</time></trkpt><trkpt lat="38.893089767445765" lon="8.85490127629074"><ele>20.333333333333332</ele><time>2026-04-01T09:23:36Z</time></trkpt><trkpt lat="38.89311671601331" lon="8.855164744160938"><ele>19.666666666666664</ele><time>2026-04-01T09:23:37Z</time></trkpt><trkpt lat="38.893146293791325" lon="8.855428352237434"><ele>19.0</ele><time>2026-04-01T09:23:38Z</time></trkpt><trkpt lat="38.89317551145792" lon="8.855692880382366"><ele>18.666666666666664</ele><time>2026-04-01T09:23:39Z</time></trkpt><trkpt lat="38.89320427314888" lon="8.855957699682845"><ele>18.333333333333332</ele><time>2026-04-01T09:23:40Z</time></trkpt><trkpt lat="38.89323474124294" lon="8.856220013561156"><ele>18.0</ele><time>2026-04-01T09:23:41Z</time></trkpt><trkpt lat="38.893267445131336" lon="8.856485875718754"><ele>18.0</ele><time>2026-04-01T09:23:42Z</time></trkpt><trkpt lat="38.893296236536386" lon="8.856752548987293"><ele>18.0</ele><time>2026-04-01T09:23:43Z</time></trkpt><trkpt lat="38.8933254377847" lon="8.857020356917705"><ele>18.0</ele><time>2026-04-01T09:23:44Z</time></trkpt><trkpt lat="38.893352927285115" lon="8.857286680965936"><ele>18.0</ele><time>2026-04-01T09:23:45Z</time></trkpt><trkpt lat="38.893380971835334" lon="8.857552600585322"><ele>18.0</ele><time>2026-04-01T09:23:46Z</time></trkpt><trkpt lat="38.89340732215591" lon="8.85781782541144"><ele>18.0</ele><time>2026-04-01T09:23:47Z</time></trkpt><trkpt lat="38.89343538116889" lon="8.858085294143413"><ele>18.0</ele><time>2026-04-01T09:23:48Z</time></trkpt><trkpt lat="38.8934662112213" lon="8.85835004219668"><ele>18.0</ele><time>2026-04-01T09:23:49Z</time></trkpt><trkpt lat="38.8934979429834" lon="8.858614189997803"><ele>18.0</ele><time>2026-04-01T09:23:50Z</time></trkpt><trkpt lat="38.893527855186484" lon="8.85887695397042"><ele>18.0</ele><time>2026-04-01T09:23:51Z</time></trkpt><trkpt lat="38.89355701712081" lon="8.859140819915721"><ele>18.0</ele><time>2026-04-01T09:23:52Z</time></trkpt><trkpt lat="38.89358431908464" lon="8.859408253564562"><ele>18.0</ele><time>2026-04-01T09:23:53Z</time></trkpt><trkpt lat="38.89361357574913" lon="8.859674105685901"><ele>18.0</ele><time>2026-04-01T09:23:54Z</time></trkpt><trkpt lat="38.89364205449234" lon="8.859943142199308"><ele>18.0</ele><time>2026-04-01T09:23:55Z</time></trkpt><trkpt lat="38.893668082867535" lon="8.860215622862215"><ele>18.0</ele><time>2026-04-01T09:23:56Z</time></trkpt><trkpt lat="38.89368455018186" lon="8.860483270457157"><ele>18.333333333333332</ele><time>2026-04-01T09:23:57Z</time></trkpt><trkpt lat="38.893714037129065" lon="8.860752961455553"><ele>18.666666666666664</ele><time>2026-04-01T09:23:58Z</time></trkpt><trkpt lat="38.89374538799512" lon="8.861022036249736"><ele>19.0</ele><time>2026-04-01T09:23:59Z</time></trkpt><trkpt lat="38.893773724687975" lon="8.861288637725805"><ele>18.0</ele><time>2026-04-01T09:24:00Z</time></trkpt><trkpt lat="38.893801808467785" lon="8.861558559776915"><ele>17.0</ele><time>2026-04-01T09:24:01Z</time></trkpt><trkpt lat="38.893829399391926" lon="8.861825639658889"><ele>16.0</ele><time>2026-04-01T09:24:02Z</time></trkpt><trkpt lat="38.893861784275636" lon="8.862092377563602"><ele>15.333333333333332</ele><time>2026-04-01T09:24:03Z</time></trkpt><trkpt lat="38.89389490734776" lon="8.862362185689799"><ele>14.666666666666668</ele><time>2026-04-01T09:24:04Z</time></trkpt><trkpt lat="38.893923372458374" lon="8.862632471876038"><ele>14.0</ele><time>2026-04-01T09:24:05Z</time></trkpt><trkpt lat="38.89395158544394" lon="8.862906117291658"><ele>13.666666666666668</ele><time>2026-04-01T09:24:06Z</time></trkpt><trkpt lat="38.89397825382285" lon="8.863181200644071"><ele>13.333333333333332</ele><time>2026-04-01T09:24:07Z</time></trkpt><trkpt lat="38.89400645456697" lon="8.863456176553248"><ele>13.0</ele><time>2026-04-01T09:24:08Z</time></trkpt><trkpt lat="38.89404286491748" lon="8.863728299102304"><ele>12.666666666666666</ele><time>2026-04-01T09:24:09Z</time></trkpt><trkpt lat="38.89409490389706" lon="8.864004062565778"><ele>12.333333333333332</ele><time>2026-04-01T09:24:10Z</time></trkpt><trkpt lat="38.8941484479672" lon="8.864280790853877"><ele>12.0</ele><time>2026-04-01T09:24:11Z</time></trkpt><trkpt lat="38.894200404705195" lon="8.864554711338952"><ele>11.666666666666666</ele><time>2026-04-01T09:24:12Z</time></trkpt><trkpt lat="38.894249287117674" lon="8.864830681029254"><ele>11.333333333333332</ele><time>2026-04-01T09:24:13Z</time></trkpt><trkpt lat="38.8942979792747" lon="8.865110892594153"><ele>11.0</ele><time>2026-04-01T09:24:14Z</time></trkpt><trkpt lat="38.89434976193944" lon="8.865390215980394"><ele>10.333333333333332</ele><time>2026-04-01T09:24:15Z</time></trkpt><trkpt lat="38.894402342384865" lon="8.86566593658023"><ele>9.666666666666666</ele><time>2026-04-01T09:24:16Z</time></trkpt><trkpt lat="38.89445284187164" lon="8.8659400609371"><ele>9.0</ele><time>2026-04-01T09:24:17Z</time></trkpt><trkpt lat="38.89450152175123" lon="8.866212064379477"><ele>9.0</ele><time>2026-04-01T09:24:18Z</time></trkpt><trkpt lat="38.89455131944114" lon="8.866481086895671"><ele>9.0</ele><time>2026-04-01T09:24:19Z</time></trkpt><trkpt lat="38.894583467656524" lon="8.866752768631434"><ele>9.0</ele><time>2026-04-01T09:24:20Z</time></trkpt><trkpt lat="38.89463163305506" lon="8.867022281856293"><ele>9.333333333333334</ele><time>2026-04-01T09:24:21Z</time></trkpt><trkpt lat="38.8946937372461" lon="8.86728312620813"><ele>9.666666666666668</ele><time>2026-04-01T09:24:22Z</time></trkpt><trkpt lat="38.89471909306146" lon="8.86753518606431"><ele>10.0</ele><time>2026-04-01T09:24:23Z</time></trkpt><trkpt lat="38.894768574122615" lon="8.867779305098361"><ele>10.0</ele><time>2026-04-01T09:24:24Z</time></trkpt><trkpt lat="38.894805708071964" lon="8.867993854040645"><ele>10.0</ele><time>2026-04-01T09:24:25Z</time></trkpt><trkpt lat="38.89485628773275" lon="8.868189592009848"><ele>10.0</ele><time>2026-04-01T09:24:26Z</time></trkpt><trkpt lat="38.89493086882183" lon="8.868376985467554"><ele>10.0</ele><time>2026-04-01T09:24:27Z</time></trkpt><trkpt lat="38.89503088256869" lon="8.868557830147928"><ele>10.0</ele><time>2026-04-01T09:24:28Z</time></trkpt><trkpt lat="38.89515275413171" lon="8.86872231807859"><ele>10.0</ele><time>2026-04-01T09:24:29Z</time></trkpt><trkpt lat="38.89529016960431" lon="8.868877707684948"><ele>10.333333333333334</ele><time>2026-04-01T09:24:30Z</time></trkpt><trkpt lat="38.895430118792994" lon="8.869030694998308"><ele>10.666666666666666</ele><time>2026-04-01T09:24:31Z</time></trkpt><trkpt lat="38.89557080535852" lon="8.869193405236656"><ele>11.0</ele><time>2026-04-01T09:24:32Z</time></trkpt><trkpt lat="38.89570877495039" lon="8.869358715679128"><ele>11.0</ele><time>2026-04-01T09:24:33Z</time></trkpt><trkpt lat="38.89584525732561" lon="8.869532897672254"><ele>11.0</ele><time>2026-04-01T09:24:34Z</time></trkpt><trkpt lat="38.89598156461841" lon="8.869707682900616"><ele>11.0</ele><time>2026-04-01T09:24:35Z</time></trkpt><trkpt lat="38.896118301940284" lon="8.8698773730997"><ele>11.0</ele><time>2026-04-01T09:24:36Z</time></trkpt><trkpt lat="38.89625236099247" lon="8.870048581659766"><ele>11.0</ele><time>2026-04-01T09:24:37Z</time></trkpt><trkpt lat="38.8963883492032" lon="8.870215054232514"><ele>11.0</ele><time>2026-04-01T09:24:38Z</time></trkpt><trkpt lat="38.89652507056823" lon="8.870380958208326"><ele>10.666666666666666</ele><time>2026-04-01T09:24:39Z</time></trkpt><trkpt lat="38.89665346286392" lon="8.870550835501147"><ele>10.333333333333334</ele><time>2026-04-01T09:24:40Z</time></trkpt><trkpt lat="38.89678537948813" lon="8.870714685479614"><ele>10.0</ele><time>2026-04-01T09:24:41Z</time></trkpt><trkpt lat="38.89691250829668" lon="8.870881091370174"><ele>8.333333333333334</ele><time>2026-04-01T09:24:42Z</time></trkpt><trkpt lat="38.89704030713168" lon="8.871046519979599"><ele>6.666666666666667</ele><time>2026-04-01T09:24:43Z</time></trkpt><trkpt lat="38.897168010907116" lon="8.871209128167177"><ele>5.0</ele><time>2026-04-01T09:24:44Z</time></trkpt><trkpt lat="38.8972948572342" lon="8.871375826907787"><ele>5.0</ele><time>2026-04-01T09:24:45Z</time></trkpt><trkpt lat="38.89742200098346" lon="8.87154161319707"><ele>5.0</ele><time>2026-04-01T09:24:46Z</time></trkpt><trkpt lat="38.89754617463802" lon="8.871705435813949"><ele>5.0</ele><time>2026-04-01T09:24:47Z</time></trkpt><trkpt lat="38.8976775088391" lon="8.87186452576502"><ele>3.666666666666667</ele><time>2026-04-01T09:24:48Z</time></trkpt><trkpt lat="38.89780359812122" lon="8.872032917737995"><ele>2.3333333333333335</ele><time>2026-04-01T09:24:49Z</time></trkpt><trkpt lat="38.897929904305606" lon="8.872196802738156"><ele>1.0</ele><time>2026-04-01T09:24:50Z</time></trkpt><trkpt lat="38.898052566766694" lon="8.872363324357963"><ele>1.0</ele><time>2026-04-01T09:24:51Z</time></trkpt><trkpt lat="38.89817615867847" lon="8.872529101790525"><ele>1.0</ele><time>2026-04-01T09:24:52Z</time></trkpt><trkpt lat="38.89829999043351" lon="8.872696252858846"><ele>1.0</ele><time>2026-04-01T09:24:53Z</time></trkpt><trkpt lat="38.89841870478658" lon="8.872869887876588"><ele>1.0</ele><time>2026-04-01T09:24:54Z</time></trkpt><trkpt lat="38.898508653518576" lon="8.873066672269971"><ele>1.0</ele><time>2026-04-01T09:24:55Z</time></trkpt><trkpt lat="38.89861369832354" lon="8.873250396850652"><ele>1.0</ele><time>2026-04-01T09:24:56Z</time></trkpt><trkpt lat="38.89869724006563" lon="8.873449573815973"><ele>1.3333333333333333</ele><time>2026-04-01T09:24:57Z</time></trkpt><trkpt lat="38.898789420134115" lon="8.87364020074729"><ele>1.6666666666666665</ele><time>2026-04-01T09:24:58Z</time></trkpt><trkpt lat="38.898874306734136" lon="8.873833952019558"><ele>2.0</ele><time>2026-04-01T09:24:59Z</time></trkpt><trkpt lat="38.89896100440484" lon="8.874025981965648"><ele>2.0</ele><time>2026-04-01T09:25:00Z</time></trkpt><trkpt lat="38.89904971070255" lon="8.874215785588667"><ele>2.0</ele><time>2026-04-01T09:25:01Z</time></trkpt><trkpt lat="38.89914121498324" lon="8.874402029214911"><ele>2.0</ele><time>2026-04-01T09:25:02Z</time></trkpt><trkpt lat="38.8992315780867" lon="8.874592123156255"><ele>2.333333333333333</ele><time>2026-04-01T09:25:03Z</time></trkpt><trkpt lat="38.899322201205656" lon="8.874783074094998"><ele>2.6666666666666665</ele><time>2026-04-01T09:25:04Z</time></trkpt><trkpt lat="38.89941496770541" lon="8.874977194974235"><ele>3.0</ele><time>2026-04-01T09:25:05Z</time></trkpt><trkpt lat="38.899509761557006" lon="8.875166808960929"><ele>2.3333333333333335</ele><time>2026-04-01T09:25:06Z</time></trkpt><trkpt lat="38.899603453727075" lon="8.875356607995917"><ele>1.6666666666666665</ele><time>2026-04-01T09:25:07Z</time></trkpt><trkpt lat="38.89969796686714" lon="8.875548742728153"><ele>1.0</ele><time>2026-04-01T09:25:08Z</time></trkpt><trkpt lat="38.89978836979373" lon="8.875741766037953"><ele>1.6666666666666665</ele><time>2026-04-01T09:25:09Z</time></trkpt><trkpt lat="38.899879400100076" lon="8.875937950209627"><ele>2.3333333333333335</ele><time>2026-04-01T09:25:10Z</time></trkpt><trkpt lat="38.89996920353358" lon="8.876135194918486"><ele>3.0</ele><time>2026-04-01T09:25:11Z</time></trkpt><trkpt lat="38.90006268607922" lon="8.876329810416616"><ele>3.0</ele><time>2026-04-01T09:25:12Z</time></trkpt><trkpt lat="38.900157621334216" lon="8.876525203868013"><ele>3.0</ele><time>2026-04-01T09:25:13Z</time></trkpt><trkpt lat="38.90025405661097" lon="8.876726465339447"><ele>3.0</ele><time>2026-04-01T09:25:14Z</time></trkpt><trkpt lat="38.90034721322965" lon="8.876923996701725"><ele>3.0</ele><time>2026-04-01T09:25:15Z</time></trkpt><trkpt lat="38.90044084594692" lon="8.877127175977009"><ele>3.0</ele><time>2026-04-01T09:25:16Z</time></trkpt><trkpt lat="38.90051817718637" lon="8.877329816248464"><ele>3.0</ele><time>2026-04-01T09:25:17Z</time></trkpt><trkpt lat="38.90062745991474" lon="8.877531820234813"><ele>3.0</ele><time>2026-04-01T09:25:18Z</time></trkpt><trkpt lat="38.900723411235056" lon="8.87773621382701"><ele>3.0</ele><time>2026-04-01T09:25:19Z</time></trkpt><trkpt lat="38.9008195403329" lon="8.877941751736197"><ele>3.0</ele><time>2026-04-01T09:25:20Z</time></trkpt><trkpt lat="38.90091647962924" lon="8.87814706740915"><ele>3.0</ele><time>2026-04-01T09:25:21Z</time></trkpt><trkpt lat="38.90101444421963" lon="8.878349929804124"><ele>3.0</ele><time>2026-04-01T09:25:22Z</time></trkpt><trkpt lat="38.901111327333" lon="8.87855257299041"><ele>3.0</ele><time>2026-04-01T09:25:23Z</time></trkpt><trkpt lat="38.90120785904072" lon="8.87876339320845"><ele>3.0</ele><time>2026-04-01T09:25:24Z</time></trkpt><trkpt lat="38.90130271272655" lon="8.878966273979024"><ele>3.0</ele><time>2026-04-01T09:25:25Z</time></trkpt><trkpt lat="38.90139638749157" lon="8.87917284173792"><ele>3.0</ele><time>2026-04-01T09:25:26Z</time></trkpt><trkpt lat="38.90149125662234" lon="8.879372889937914"><ele>3.0</ele><time>2026-04-01T09:25:27Z</time></trkpt><trkpt lat="38.90158378043059" lon="8.879577831003123"><ele>3.0</ele><time>2026-04-01T09:25:28Z</time></trkpt><trkpt lat="38.90168054666057" lon="8.879777528647839"><ele>3.0</ele><time>2026-04-01T09:25:29Z</time></trkpt><trkpt lat="38.90177932681622" lon="8.879977242625841"><ele>2.6666666666666665</ele><time>2026-04-01T09:25:30Z</time></trkpt><trkpt lat="38.90187246634186" lon="8.880177151635268"><ele>2.333333333333333</ele><time>2026-04-01T09:25:31Z</time></trkpt><trkpt lat="38.90196514703732" lon="8.880367402044687"><ele>2.0</ele><time>2026-04-01T09:25:32Z</time></trkpt><trkpt lat="38.90205309202111" lon="8.880554116203562"><ele>2.0</ele><time>2026-04-01T09:25:33Z</time></trkpt><trkpt lat="38.90214089504611" lon="8.88073688855209"><ele>2.0</ele><time>2026-04-01T09:25:34Z</time></trkpt><trkpt lat="38.90222490527822" lon="8.880916992724163"><ele>2.0</ele><time>2026-04-01T09:25:35Z</time></trkpt><trkpt lat="38.90230399053332" lon="8.881096288732486"><ele>2.25</ele><time>2026-04-01T09:25:36Z</time></trkpt><trkpt lat="38.90238310165812" lon="8.881269491540696"><ele>2.5</ele><time>2026-04-01T09:25:37Z</time></trkpt><trkpt lat="38.90246144472496" lon="8.881428315890567"><ele>2.75</ele><time>2026-04-01T09:25:38Z</time></trkpt><trkpt lat="38.90253394361755" lon="8.881578285057874"><ele>3.0</ele><time>2026-04-01T09:25:39Z</time></trkpt><trkpt lat="38.90260548107229" lon="8.881721939946884"><ele>3.5</ele><time>2026-04-01T09:25:40Z</time></trkpt><trkpt lat="38.9026766239475" lon="8.88186710947365"><ele>4.0</ele><time>2026-04-01T09:25:41Z</time></trkpt><trkpt lat="38.90274345008675" lon="8.882019036230885"><ele>4.5</ele><time>2026-04-01T09:25:42Z</time></trkpt><trkpt lat="38.9028047509052" lon="8.882167100553954"><ele>5.0</ele><time>2026-04-01T09:25:43Z</time></trkpt><trkpt lat="38.902863530948494" lon="8.882296365367337"><ele>5.0</ele><time>2026-04-01T09:25:44Z</time></trkpt><trkpt lat="38.90289182067636" lon="8.882417548002243"><ele>5.0</ele><time>2026-04-01T09:25:45Z</time></trkpt><trkpt lat="38.90287698110531" lon="8.882539627325604"><ele>5.0</ele><time>2026-04-01T09:25:45.999Z</time></trkpt><trkpt lat="38.902864309932475" lon="8.8826563034378"><ele>5.0</ele><time>2026-04-01T09:25:46.999Z</time></trkpt><trkpt lat="38.902896040811555" lon="8.88274994804092"><ele>5.0</ele><time>2026-04-01T09:25:47.999Z</time></trkpt><trkpt lat="38.90296644571139" lon="8.88280323673892"><ele>5.0</ele><time>2026-04-01T09:25:48.999Z</time></trkpt><trkpt lat="38.90310708302189" lon="8.882810902645105"><ele>5.25</ele><time>2026-04-01T09:25:50.999Z</time></trkpt><trkpt lat="38.903217668021675" lon="8.882957415532557"><ele>5.5</ele><time>2026-04-01T09:25:52.999Z</time></trkpt><trkpt lat="38.90329869712771" lon="8.883046407726393"><ele>5.75</ele><time>2026-04-01T09:25:53.999Z</time></trkpt><trkpt lat="38.90339781678367" lon="8.883133787152268"><ele>6.0</ele><time>2026-04-01T09:25:54.999Z</time></trkpt><trkpt lat="38.9035121248832" lon="8.883226916789434"><ele>6.0</ele><time>2026-04-01T09:25:55.999Z</time></trkpt><trkpt lat="38.90363907460884" lon="8.88333075869125"><ele>6.0</ele><time>2026-04-01T09:25:56.999Z</time></trkpt><trkpt lat="38.90377325595335" lon="8.883445751876327"><ele>6.0</ele><time>2026-04-01T09:25:57.999Z</time></trkpt><trkpt lat="38.90390440021092" lon="8.883555706210064"><ele>6.333333333333334</ele><time>2026-04-01T09:25:58.999Z</time></trkpt><trkpt lat="38.904040605157725" lon="8.883670029554587"><ele>6.666666666666667</ele><time>2026-04-01T09:25:59.999Z</time></trkpt><trkpt lat="38.90417935222942" lon="8.88377957710388"><ele>7.0</ele><time>2026-04-01T09:26:00.999Z</time></trkpt><trkpt lat="38.90431626048916" lon="8.883902827668079"><ele>7.333333333333334</ele><time>2026-04-01T09:26:01.999Z</time></trkpt><trkpt lat="38.90445818748962" lon="8.88402056981557"><ele>7.666666666666666</ele><time>2026-04-01T09:26:02.999Z</time></trkpt><trkpt lat="38.904603086461165" lon="8.884148034636134"><ele>8.0</ele><time>2026-04-01T09:26:03.999Z</time></trkpt><trkpt lat="38.904749938362585" lon="8.884274176446738"><ele>8.333333333333332</ele><time>2026-04-01T09:26:04.999Z</time></trkpt><trkpt lat="38.90489896881679" lon="8.884394620332548"><ele>8.666666666666666</ele><time>2026-04-01T09:26:05.999Z</time></trkpt><trkpt lat="38.905053933283256" lon="8.884508402119923"><ele>9.0</ele><time>2026-04-01T09:26:06.999Z</time></trkpt><trkpt lat="38.90521014484236" lon="8.884612813352419"><ele>9.0</ele><time>2026-04-01T09:26:07.999Z</time></trkpt><trkpt lat="38.905369650202736" lon="8.884714274638963"><ele>9.0</ele><time>2026-04-01T09:26:08.999Z</time></trkpt><trkpt lat="38.90552851054519" lon="8.88480921675706"><ele>9.0</ele><time>2026-04-01T09:26:09.999Z</time></trkpt><trkpt lat="38.90568709816068" lon="8.884910745014423"><ele>9.0</ele><time>2026-04-01T09:26:10.999Z</time></trkpt><trkpt lat="38.90584383090516" lon="8.885013331601714"><ele>9.0</ele><time>2026-04-01T09:26:11.999Z</time></trkpt><trkpt lat="38.906001806435015" lon="8.885117644373713"><ele>9.0</ele><time>2026-04-01T09:26:12.999Z</time></trkpt><trkpt lat="38.90616305366685" lon="8.88521737740213"><ele>9.0</ele><time>2026-04-01T09:26:13.999Z</time></trkpt><trkpt lat="38.90632394341183" lon="8.885313857398685"><ele>9.0</ele><time>2026-04-01T09:26:14.999Z</time></trkpt><trkpt lat="38.90648425904903" lon="8.885412417400056"><ele>9.0</ele><time>2026-04-01T09:26:15.999Z</time></trkpt><trkpt lat="38.90664290992925" lon="8.8855168293111"><ele>9.333333333333334</ele><time>2026-04-01T09:26:16.999Z</time></trkpt><trkpt lat="38.90679882679165" lon="8.885619196709836"><ele>9.666666666666668</ele><time>2026-04-01T09:26:17.999Z</time></trkpt><trkpt lat="38.90694470920181" lon="8.88571061126176"><ele>10.0</ele><time>2026-04-01T09:26:18.999Z</time></trkpt><trkpt lat="38.90708300220261" lon="8.885793477595024"><ele>10.0</ele><time>2026-04-01T09:26:19.999Z</time></trkpt><trkpt lat="38.90722508525391" lon="8.88587263626184"><ele>10.0</ele><time>2026-04-01T09:26:20.999Z</time></trkpt><trkpt lat="38.907355507709234" lon="8.885985401470352"><ele>10.0</ele><time>2026-04-01T09:26:21.999Z</time></trkpt><trkpt lat="38.90749836868155" lon="8.886060262968805"><ele>10.0</ele><time>2026-04-01T09:26:22.999Z</time></trkpt><trkpt lat="38.90762662024709" lon="8.886161932683812"><ele>10.0</ele><time>2026-04-01T09:26:23.999Z</time></trkpt><trkpt lat="38.90775439500985" lon="8.886243643752469"><ele>10.0</ele><time>2026-04-01T09:26:24.999Z</time></trkpt><trkpt lat="38.90788815764943" lon="8.88631487511837"><ele>10.0</ele><time>2026-04-01T09:26:25.999Z</time></trkpt><trkpt lat="38.90802258262981" lon="8.886391062412756"><ele>10.0</ele><time>2026-04-01T09:26:26.999Z</time></trkpt><trkpt lat="38.90811657091941" lon="8.886467710722167"><ele>10.0</ele><time>2026-04-01T09:26:27.999Z</time></trkpt><trkpt lat="38.908254089346926" lon="8.886548168366426"><ele>10.0</ele><time>2026-04-01T09:26:28.999Z</time></trkpt><trkpt lat="38.90835866878627" lon="8.886625436980317"><ele>10.0</ele><time>2026-04-01T09:26:29.999Z</time></trkpt><trkpt lat="38.90844525983036" lon="8.886694936338518"><ele>13.2</ele><time>2026-04-01T09:26:30.999Z</time></trkpt><trkpt lat="38.90851206727633" lon="8.886764307239103"><ele>16.4</ele><time>2026-04-01T09:26:31.999Z</time></trkpt><trkpt lat="38.908573499365744" lon="8.886849307625495"><ele>19.6</ele><time>2026-04-01T09:26:32.999Z</time></trkpt><trkpt lat="38.908627727349014" lon="8.886974925322447"><ele>22.8</ele><time>2026-04-01T09:26:33.999Z</time></trkpt><trkpt lat="38.908670611063734" lon="8.887124360642025"><ele>26.0</ele><time>2026-04-01T09:26:34.999Z</time></trkpt><trkpt lat="38.90872143181079" lon="8.887288801783983"><ele>26.0</ele><time>2026-04-01T09:26:35.999Z</time></trkpt><trkpt lat="38.9087922322177" lon="8.887469256540392"><ele>26.0</ele><time>2026-04-01T09:26:36.999Z</time></trkpt><trkpt lat="38.908861734924216" lon="8.887651595012688"><ele>26.0</ele><time>2026-04-01T09:26:37.999Z</time></trkpt><trkpt lat="38.908945237021" lon="8.887825177164183"><ele>29.0</ele><time>2026-04-01T09:26:38.999Z</time></trkpt><trkpt lat="38.909048744129585" lon="8.888003603210239"><ele>32.0</ele><time>2026-04-01T09:26:39.999Z</time></trkpt><trkpt lat="38.9091710864541" lon="8.888188956764377"><ele>35.0</ele><time>2026-04-01T09:26:40.999Z</time></trkpt><trkpt lat="38.90931786374482" lon="8.88836603205956"><ele>29.0</ele><time>2026-04-01T09:26:41.999Z</time></trkpt><trkpt lat="38.909452696027806" lon="8.888561335117108"><ele>23.0</ele><time>2026-04-01T09:26:42.999Z</time></trkpt><trkpt lat="38.90959920065694" lon="8.888743223050822"><ele>17.0</ele><time>2026-04-01T09:26:43.999Z</time></trkpt><trkpt lat="38.90975246948473" lon="8.888933508905236"><ele>17.0</ele><time>2026-04-01T09:26:44.999Z</time></trkpt><trkpt lat="38.90989599419321" lon="8.889111414617988"><ele>17.0</ele><time>2026-04-01T09:26:45.999Z</time></trkpt><trkpt lat="38.910029057402824" lon="8.889276281957512"><ele>17.0</ele><time>2026-04-01T09:26:46.999Z</time></trkpt><trkpt lat="38.91016447768225" lon="8.889444069805075"><ele>17.0</ele><time>2026-04-01T09:26:47.999Z</time></trkpt><trkpt lat="38.91030057901318" lon="8.889612701408078"><ele>17.0</ele><time>2026-04-01T09:26:48.999Z</time></trkpt><trkpt lat="38.9104373825655" lon="8.889782203119719"><ele>17.0</ele><time>2026-04-01T09:26:49.999Z</time></trkpt><trkpt lat="38.910576652135816" lon="8.889954759669632"><ele>16.333333333333336</ele><time>2026-04-01T09:26:50.999Z</time></trkpt><trkpt lat="38.91071787038151" lon="8.89013060660685"><ele>15.666666666666668</ele><time>2026-04-01T09:26:51.999Z</time></trkpt><trkpt lat="38.910856857351696" lon="8.890303491789144"><ele>15.0</ele><time>2026-04-01T09:26:52.999Z</time></trkpt><trkpt lat="38.910998101464294" lon="8.890483743811018"><ele>15.333333333333332</ele><time>2026-04-01T09:26:53.999Z</time></trkpt><trkpt lat="38.91113980076171" lon="8.890664749859644"><ele>15.666666666666666</ele><time>2026-04-01T09:26:54.999Z</time></trkpt><trkpt lat="38.911281001174515" lon="8.890847522603613"><ele>16.0</ele><time>2026-04-01T09:26:55.999Z</time></trkpt><trkpt lat="38.91142006006796" lon="8.8910379823786"><ele>16.0</ele><time>2026-04-01T09:26:56.999Z</time></trkpt><trkpt lat="38.91156002480909" lon="8.891227855056089"><ele>16.0</ele><time>2026-04-01T09:26:57.999Z</time></trkpt><trkpt lat="38.91169524274537" lon="8.891409182747102"><ele>16.0</ele><time>2026-04-01T09:26:58.999Z</time></trkpt><trkpt lat="38.911834987469035" lon="8.891595200314143"><ele>15.666666666666666</ele><time>2026-04-01T09:26:59.999Z</time></trkpt><trkpt lat="38.91198830262949" lon="8.891751225224324"><ele>15.333333333333332</ele><time>2026-04-01T09:27:00.999Z</time></trkpt><trkpt lat="38.91215245222064" lon="8.891889568825562"><ele>15.0</ele><time>2026-04-01T09:27:01.999Z</time></trkpt><trkpt lat="38.91232466600473" lon="8.892009102220685"><ele>15.0</ele><time>2026-04-01T09:27:02.999Z</time></trkpt><trkpt lat="38.912501530621526" lon="8.892119299345937"><ele>15.0</ele><time>2026-04-01T09:27:03.999Z</time></trkpt><trkpt lat="38.91267954575307" lon="8.892240522523874"><ele>15.0</ele><time>2026-04-01T09:27:04.999Z</time></trkpt><trkpt lat="38.912857442873815" lon="8.892348753036185"><ele>15.0</ele><time>2026-04-01T09:27:05.999Z</time></trkpt><trkpt lat="38.913037479075456" lon="8.8924589034937"><ele>15.0</ele><time>2026-04-01T09:27:06.999Z</time></trkpt><trkpt lat="38.913220839802605" lon="8.892553984498097"><ele>15.0</ele><time>2026-04-01T09:27:07.999Z</time></trkpt><trkpt lat="38.91339602234847" lon="8.892665285558135"><ele>16.0</ele><time>2026-04-01T09:27:08.999Z</time></trkpt><trkpt lat="38.91356823287295" lon="8.892766655509478"><ele>17.0</ele><time>2026-04-01T09:27:09.999Z</time></trkpt><trkpt lat="38.913752618019764" lon="8.892837243542623"><ele>18.0</ele><time>2026-04-01T09:27:10.999Z</time></trkpt><trkpt lat="38.9139438946197" lon="8.892861970345388"><ele>18.0</ele><time>2026-04-01T09:27:11.999Z</time></trkpt><trkpt lat="38.914134999920535" lon="8.892879132140731"><ele>18.0</ele><time>2026-04-01T09:27:12.999Z</time></trkpt><trkpt lat="38.91432777991291" lon="8.892902999584729"><ele>18.0</ele><time>2026-04-01T09:27:13.999Z</time></trkpt><trkpt lat="38.91452369458568" lon="8.892928318405572"><ele>17.666666666666668</ele><time>2026-04-01T09:27:14.999Z</time></trkpt><trkpt lat="38.91472105934344" lon="8.892955579839295"><ele>17.333333333333336</ele><time>2026-04-01T09:27:15.999Z</time></trkpt><trkpt lat="38.91491686874364" lon="8.892979578158227"><ele>17.0</ele><time>2026-04-01T09:27:16.999Z</time></trkpt><trkpt lat="38.91511364485582" lon="8.892984840750582"><ele>17.0</ele><time>2026-04-01T09:27:17.999Z</time></trkpt><trkpt lat="38.9153118920446" lon="8.892964187832384"><ele>17.0</ele><time>2026-04-01T09:27:18.999Z</time></trkpt><trkpt lat="38.91551138119396" lon="8.892925702242938"><ele>17.0</ele><time>2026-04-01T09:27:19.999Z</time></trkpt><trkpt lat="38.915711248915336" lon="8.892886830870545"><ele>17.333333333333336</ele><time>2026-04-01T09:27:20.999Z</time></trkpt><trkpt lat="38.91591000498861" lon="8.89285616324273"><ele>17.666666666666668</ele><time>2026-04-01T09:27:21.999Z</time></trkpt><trkpt lat="38.91610828330642" lon="8.892832739922616"><ele>18.0</ele><time>2026-04-01T09:27:22.999Z</time></trkpt><trkpt lat="38.91630627698868" lon="8.892811368895487"><ele>18.0</ele><time>2026-04-01T09:27:23.999Z</time></trkpt><trkpt lat="38.91650801672393" lon="8.892802386004039"><ele>18.0</ele><time>2026-04-01T09:27:24.999Z</time></trkpt><trkpt lat="38.91670769157352" lon="8.892833222151669"><ele>18.0</ele><time>2026-04-01T09:27:25.999Z</time></trkpt><trkpt lat="38.91690386263" lon="8.892894601707273"><ele>19.0</ele><time>2026-04-01T09:27:26.999Z</time></trkpt><trkpt lat="38.91709939975696" lon="8.892961056304523"><ele>20.0</ele><time>2026-04-01T09:27:27.999Z</time></trkpt><trkpt lat="38.91729646796693" lon="8.89302065487345"><ele>21.0</ele><time>2026-04-01T09:27:28.999Z</time></trkpt><trkpt lat="38.91749006528544" lon="8.893078689434375"><ele>22.333333333333336</ele><time>2026-04-01T09:27:29.999Z</time></trkpt><trkpt lat="38.91768255944848" lon="8.893136191655909"><ele>23.666666666666668</ele><time>2026-04-01T09:27:30.999Z</time></trkpt><trkpt lat="38.91787369664454" lon="8.893196185824511"><ele>25.0</ele><time>2026-04-01T09:27:31.999Z</time></trkpt><trkpt lat="38.918064489924504" lon="8.893242917955748"><ele>25.0</ele><time>2026-04-01T09:27:32.999Z</time></trkpt><trkpt lat="38.91825757652249" lon="8.893258931832223"><ele>25.0</ele><time>2026-04-01T09:27:33.999Z</time></trkpt><trkpt lat="38.918450095800594" lon="8.893245672081333"><ele>25.0</ele><time>2026-04-01T09:27:34.999Z</time></trkpt><trkpt lat="38.91864003025644" lon="8.893227208985758"><ele>23.333333333333336</ele><time>2026-04-01T09:27:35.999Z</time></trkpt><trkpt lat="38.91882854576358" lon="8.89321477804306"><ele>21.666666666666668</ele><time>2026-04-01T09:27:36.999Z</time></trkpt><trkpt lat="38.91901428312832" lon="8.893206297624296"><ele>20.0</ele><time>2026-04-01T09:27:37.999Z</time></trkpt><trkpt lat="38.919200566738084" lon="8.893198749706995"><ele>19.333333333333336</ele><time>2026-04-01T09:27:38.999Z</time></trkpt><trkpt lat="38.919386208723246" lon="8.893195829153083"><ele>18.666666666666668</ele><time>2026-04-01T09:27:39.999Z</time></trkpt><trkpt lat="38.91956577759003" lon="8.893196588926726"><ele>18.0</ele><time>2026-04-01T09:27:40.999Z</time></trkpt><trkpt lat="38.919747713567965" lon="8.893207500721838"><ele>18.0</ele><time>2026-04-01T09:27:41.999Z</time></trkpt><trkpt lat="38.91992722405089" lon="8.893217558000284"><ele>18.0</ele><time>2026-04-01T09:27:42.999Z</time></trkpt><trkpt lat="38.920094773140335" lon="8.893222412993287"><ele>18.0</ele><time>2026-04-01T09:27:43.999Z</time></trkpt><trkpt lat="38.920247363575875" lon="8.8932311831151"><ele>17.75</ele><time>2026-04-01T09:27:44.999Z</time></trkpt><trkpt lat="38.92038560149607" lon="8.893210740232636"><ele>17.5</ele><time>2026-04-01T09:27:45.999Z</time></trkpt><trkpt lat="38.92051352267669" lon="8.893148854008638"><ele>17.25</ele><time>2026-04-01T09:27:46.999Z</time></trkpt><trkpt lat="38.920624003964164" lon="8.89306803173692"><ele>17.0</ele><time>2026-04-01T09:27:47.999Z</time></trkpt><trkpt lat="38.92071882378504" lon="8.892976699503647"><ele>17.0</ele><time>2026-04-01T09:27:48.999Z</time></trkpt><trkpt lat="38.920802315069814" lon="8.892885426267819"><ele>17.0</ele><time>2026-04-01T09:27:49.999Z</time></trkpt><trkpt lat="38.92088640382659" lon="8.892793676053492"><ele>17.0</ele><time>2026-04-01T09:27:50.999Z</time></trkpt><trkpt lat="38.92097694222579" lon="8.892694812462937"><ele>17.0</ele><time>2026-04-01T09:27:51.998Z</time></trkpt><trkpt lat="38.92107101798331" lon="8.892595494235819"><ele>18.4</ele><time>2026-04-01T09:27:52.998Z</time></trkpt><trkpt lat="38.921157290213365" lon="8.892501925807162"><ele>19.799999999999997</ele><time>2026-04-01T09:27:53.998Z</time></trkpt><trkpt lat="38.921247848634515" lon="8.89241398765411"><ele>21.2</ele><time>2026-04-01T09:27:54.998Z</time></trkpt><trkpt lat="38.92131385676339" lon="8.892346733421418"><ele>22.599999999999998</ele><time>2026-04-01T09:27:55.998Z</time></trkpt><trkpt lat="38.921373681899844" lon="8.892295499990235"><ele>24.0</ele><time>2026-04-01T09:27:56.998Z</time></trkpt><trkpt lat="38.921466646533545" lon="8.892272463788085"><ele>24.0</ele><time>2026-04-01T09:27:57.998Z</time></trkpt><trkpt lat="38.92152702705125" lon="8.89223483875976"><ele>24.0</ele><time>2026-04-01T09:27:58.998Z</time></trkpt><trkpt lat="38.92161147912139" lon="8.892140321455049"><ele>24.0</ele><time>2026-04-01T09:28:00.999Z</time></trkpt><trkpt lat="38.92171323105971" lon="8.892205944175219"><ele>24.0</ele><time>2026-04-01T09:28:01.999Z</time></trkpt><trkpt lat="38.92178174468804" lon="8.892218693975659"><ele>24.0</ele><time>2026-04-01T09:28:02.999Z</time></trkpt><trkpt lat="38.92186101938656" lon="8.892261496784828"><ele>24.0</ele><time>2026-04-01T09:28:03.999Z</time></trkpt><trkpt lat="38.92194612910536" lon="8.892317727755682"><ele>24.0</ele><time>2026-04-01T09:28:04.999Z</time></trkpt><trkpt lat="38.922051072712854" lon="8.89238259144121"><ele>24.0</ele><time>2026-04-01T09:28:05.999Z</time></trkpt><trkpt lat="38.92216311901518" lon="8.892459568370404"><ele>24.0</ele><time>2026-04-01T09:28:06.999Z</time></trkpt><trkpt lat="38.922279112986494" lon="8.892556424491808"><ele>24.0</ele><time>2026-04-01T09:28:07.999Z</time></trkpt><trkpt lat="38.922394630994894" lon="8.892669052130838"><ele>23.666666666666668</ele><time>2026-04-01T09:28:08.999Z</time></trkpt><trkpt lat="38.92250963001804" lon="8.892791605804383"><ele>23.333333333333336</ele><time>2026-04-01T09:28:09.999Z</time></trkpt><trkpt lat="38.92261112654978" lon="8.892934561275899"><ele>23.0</ele><time>2026-04-01T09:28:10.999Z</time></trkpt><trkpt lat="38.92273658892901" lon="8.893050500410833"><ele>23.0</ele><time>2026-04-01T09:28:11.999Z</time></trkpt><trkpt lat="38.92287278665498" lon="8.89316603755197"><ele>23.0</ele><time>2026-04-01T09:28:12.999Z</time></trkpt><trkpt lat="38.923032851847765" lon="8.893295363592355"><ele>23.0</ele><time>2026-04-01T09:28:13.999Z</time></trkpt><trkpt lat="38.92321179843374" lon="8.893421933833276"><ele>24.0</ele><time>2026-04-01T09:28:14.999Z</time></trkpt><trkpt lat="38.923414066046725" lon="8.893527847482037"><ele>25.0</ele><time>2026-04-01T09:28:15.999Z</time></trkpt><trkpt lat="38.923615641117216" lon="8.893676514687733"><ele>25.0</ele><time>2026-04-01T09:28:16.999Z</time></trkpt><trkpt lat="38.92384103519363" lon="8.893813315254738"><ele>25.0</ele><time>2026-04-01T09:28:17.999Z</time></trkpt><trkpt lat="38.92407979789748" lon="8.893960398897878"><ele>26.0</ele><time>2026-04-01T09:28:18.999Z</time></trkpt><trkpt lat="38.92433262436901" lon="8.894118025755013"><ele>27.0</ele><time>2026-04-01T09:28:19.999Z</time></trkpt><trkpt lat="38.92461732236329" lon="8.894296583699528"><ele>35.0</ele><time>2026-04-01T09:28:20.999Z</time></trkpt><trkpt lat="38.92484051916709" lon="8.894439402138874"><ele>43.0</ele><time>2026-04-01T09:28:21.999Z</time></trkpt><trkpt lat="38.925028572499734" lon="8.894611291206397"><ele>44.333333333333336</ele><time>2026-04-01T09:28:22.999Z</time></trkpt><trkpt lat="38.925207582400525" lon="8.894790134248282"><ele>45.666666666666664</ele><time>2026-04-01T09:28:23.999Z</time></trkpt><trkpt lat="38.92535795788516" lon="8.894961856491639"><ele>47.0</ele><time>2026-04-01T09:28:24.999Z</time></trkpt><trkpt lat="38.92550015513419" lon="8.895153139077987"><ele>47.0</ele><time>2026-04-01T09:28:25.999Z</time></trkpt><trkpt lat="38.92561602088134" lon="8.895354141295721"><ele>47.0</ele><time>2026-04-01T09:28:26.999Z</time></trkpt><trkpt lat="38.925711905066954" lon="8.895579030880436"><ele>47.0</ele><time>2026-04-01T09:28:27.999Z</time></trkpt><trkpt lat="38.92579656449548" lon="8.895816849450766"><ele>45.0</ele><time>2026-04-01T09:28:28.999Z</time></trkpt><trkpt lat="38.92586587092592" lon="8.896070321441377"><ele>43.0</ele><time>2026-04-01T09:28:29.999Z</time></trkpt><trkpt lat="38.925939914753414" lon="8.8963372034327"><ele>41.0</ele><time>2026-04-01T09:28:30.999Z</time></trkpt><trkpt lat="38.925964342090396" lon="8.896614209505357"><ele>40.666666666666664</ele><time>2026-04-01T09:28:31.999Z</time></trkpt><trkpt lat="38.92597715161855" lon="8.896882349402132"><ele>40.333333333333336</ele><time>2026-04-01T09:28:32.999Z</time></trkpt><trkpt lat="38.925974248684916" lon="8.897150208873928"><ele>40.0</ele><time>2026-04-01T09:28:33.999Z</time></trkpt><trkpt lat="38.92596069209783" lon="8.897426874627778"><ele>42.333333333333336</ele><time>2026-04-01T09:28:35Z</time></trkpt><trkpt lat="38.925947197151984" lon="8.897690357428091"><ele>44.666666666666664</ele><time>2026-04-01T09:28:36Z</time></trkpt><trkpt lat="38.92588258339901" lon="8.897938381356404"><ele>47.0</ele><time>2026-04-01T09:28:37Z</time></trkpt><trkpt lat="38.92580594289206" lon="8.898170565279482"><ele>49.0</ele><time>2026-04-01T09:28:38Z</time></trkpt><trkpt lat="38.92571283901404" lon="8.898396606884662"><ele>51.0</ele><time>2026-04-01T09:28:39Z</time></trkpt><trkpt lat="38.92560277551245" lon="8.898620435913768"><ele>53.0</ele><time>2026-04-01T09:28:40Z</time></trkpt><trkpt lat="38.925480007748654" lon="8.898844385846031"><ele>53.0</ele><time>2026-04-01T09:28:41Z</time></trkpt><trkpt lat="38.925357389087026" lon="8.899059380912744"><ele>53.0</ele><time>2026-04-01T09:28:42Z</time></trkpt><trkpt lat="38.92522813818852" lon="8.899285483991914"><ele>53.0</ele><time>2026-04-01T09:28:43Z</time></trkpt><trkpt lat="38.92510924869296" lon="8.899524339445609"><ele>57.66666666666667</ele><time>2026-04-01T09:28:44Z</time></trkpt><trkpt lat="38.924977931960946" lon="8.899752110367238"><ele>62.33333333333333</ele><time>2026-04-01T09:28:45Z</time></trkpt><trkpt lat="38.9248517676187" lon="8.899978266884434"><ele>67.0</ele><time>2026-04-01T09:28:46Z</time></trkpt><trkpt lat="38.92472819897182" lon="8.90019453324671"><ele>68.66666666666666</ele><time>2026-04-01T09:28:47Z</time></trkpt><trkpt lat="38.92460375764148" lon="8.90041544159469"><ele>70.33333333333333</ele><time>2026-04-01T09:28:48Z</time></trkpt><trkpt lat="38.924487510547216" lon="8.900648717328583"><ele>72.0</ele><time>2026-04-01T09:28:49Z</time></trkpt><trkpt lat="38.92438882633767" lon="8.900900448542924"><ele>71.33333333333333</ele><time>2026-04-01T09:28:50Z</time></trkpt><trkpt lat="38.92430298471109" lon="8.901161698620184"><ele>70.66666666666666</ele><time>2026-04-01T09:28:51Z</time></trkpt><trkpt lat="38.9242236780033" lon="8.90142353089537"><ele>70.0</ele><time>2026-04-01T09:28:52Z</time></trkpt><trkpt lat="38.924086723683004" lon="8.901939615632182"><ele>69.0</ele><time>2026-04-01T09:28:54Z</time></trkpt><trkpt lat="38.92403003911844" lon="8.902201007331225"><ele>68.0</ele><time>2026-04-01T09:28:55Z</time></trkpt><trkpt lat="38.92397783025974" lon="8.902472505970046"><ele>67.0</ele><time>2026-04-01T09:28:56Z</time></trkpt><trkpt lat="38.923935328674425" lon="8.902747227550615"><ele>65.0</ele><time>2026-04-01T09:28:57Z</time></trkpt><trkpt lat="38.92389706610471" lon="8.903039916070624"><ele>63.0</ele><time>2026-04-01T09:28:58Z</time></trkpt><trkpt lat="38.92385473347573" lon="8.903343656041441"><ele>61.33333333333333</ele><time>2026-04-01T09:28:59Z</time></trkpt><trkpt lat="38.92379461844453" lon="8.903621620352634"><ele>59.666666666666664</ele><time>2026-04-01T09:29:00Z</time></trkpt><trkpt lat="38.92375294259993" lon="8.903893193740812"><ele>58.0</ele><time>2026-04-01T09:29:01Z</time></trkpt><trkpt lat="38.923713390961105" lon="8.904150924439717"><ele>56.666666666666664</ele><time>2026-04-01T09:29:02Z</time></trkpt><trkpt lat="38.92368465731618" lon="8.904415040544672"><ele>55.33333333333333</ele><time>2026-04-01T09:29:03Z</time></trkpt><trkpt lat="38.92364194197039" lon="8.904682147679534"><ele>54.0</ele><time>2026-04-01T09:29:04Z</time></trkpt><trkpt lat="38.92360076118801" lon="8.90494465740384"><ele>51.666666666666664</ele><time>2026-04-01T09:29:05Z</time></trkpt><trkpt lat="38.92357314704748" lon="8.9052182153127"><ele>49.33333333333333</ele><time>2026-04-01T09:29:06Z</time></trkpt><trkpt lat="38.92356439467579" lon="8.905508728742412"><ele>47.0</ele><time>2026-04-01T09:29:07Z</time></trkpt><trkpt lat="38.92357482813979" lon="8.905804056976013"><ele>44.666666666666664</ele><time>2026-04-01T09:29:08Z</time></trkpt><trkpt lat="38.92360291572446" lon="8.906082836173153"><ele>42.333333333333336</ele><time>2026-04-01T09:29:09Z</time></trkpt><trkpt lat="38.923640731528934" lon="8.906352400347293"><ele>40.0</ele><time>2026-04-01T09:29:10Z</time></trkpt><trkpt lat="38.92369289442376" lon="8.906618588122033"><ele>39.333333333333336</ele><time>2026-04-01T09:29:11Z</time></trkpt><trkpt lat="38.92375576671297" lon="8.906881663009045"><ele>38.666666666666664</ele><time>2026-04-01T09:29:12Z</time></trkpt><trkpt lat="38.923832557337505" lon="8.907143479634703"><ele>38.0</ele><time>2026-04-01T09:29:13Z</time></trkpt><trkpt lat="38.923926580235786" lon="8.907401167362389"><ele>34.5</ele><time>2026-04-01T09:29:14Z</time></trkpt><trkpt lat="38.92403282330747" lon="8.90765349823246"><ele>31.0</ele><time>2026-04-01T09:29:15Z</time></trkpt><trkpt lat="38.92416012604497" lon="8.907904677901454"><ele>35.5</ele><time>2026-04-01T09:29:16Z</time></trkpt><trkpt lat="38.92429918432926" lon="8.908148997593619"><ele>40.0</ele><time>2026-04-01T09:29:17Z</time></trkpt><trkpt lat="38.92444538603012" lon="8.908380546798394"><ele>35.5</ele><time>2026-04-01T09:29:18Z</time></trkpt><trkpt lat="38.92458835051619" lon="8.908608213727469"><ele>31.0</ele><time>2026-04-01T09:29:19Z</time></trkpt><trkpt lat="38.92472776373993" lon="8.908841466187667"><ele>31.0</ele><time>2026-04-01T09:29:20Z</time></trkpt><trkpt lat="38.92486347684573" lon="8.909074871728329"><ele>31.0</ele><time>2026-04-01T09:29:21Z</time></trkpt><trkpt lat="38.92500329897554" lon="8.909303540398444"><ele>30.0</ele><time>2026-04-01T09:29:22Z</time></trkpt><trkpt lat="38.92514314544779" lon="8.909537596662851"><ele>29.0</ele><time>2026-04-01T09:29:23Z</time></trkpt><trkpt lat="38.92528265183646" lon="8.909765207339367"><ele>29.0</ele><time>2026-04-01T09:29:24Z</time></trkpt><trkpt lat="38.92542042595315" lon="8.909996832984461"><ele>29.0</ele><time>2026-04-01T09:29:25Z</time></trkpt><trkpt lat="38.92555826945859" lon="8.910230247669155"><ele>27.5</ele><time>2026-04-01T09:29:26Z</time></trkpt><trkpt lat="38.92569832611946" lon="8.910464298296029"><ele>26.0</ele><time>2026-04-01T09:29:27Z</time></trkpt><trkpt lat="38.925835208796435" lon="8.910694141559254"><ele>23.0</ele><time>2026-04-01T09:29:28Z</time></trkpt><trkpt lat="38.92597300436533" lon="8.910925609972319"><ele>20.0</ele><time>2026-04-01T09:29:29Z</time></trkpt><trkpt lat="38.926111508393404" lon="8.911153582228726"><ele>20.0</ele><time>2026-04-01T09:29:30Z</time></trkpt><trkpt lat="38.92624935529361" lon="8.911381973072672"><ele>20.0</ele><time>2026-04-01T09:29:31Z</time></trkpt><trkpt lat="38.92638437184124" lon="8.911612591951839"><ele>20.0</ele><time>2026-04-01T09:29:32Z</time></trkpt><trkpt lat="38.92652240159819" lon="8.911840513762531"><ele>20.666666666666668</ele><time>2026-04-01T09:29:33Z</time></trkpt><trkpt lat="38.92665845540372" lon="8.912066586639583"><ele>21.333333333333332</ele><time>2026-04-01T09:29:34Z</time></trkpt><trkpt lat="38.926789330226214" lon="8.912292917162706"><ele>22.0</ele><time>2026-04-01T09:29:35Z</time></trkpt><trkpt lat="38.926921191665755" lon="8.91252277391179"><ele>21.0</ele><time>2026-04-01T09:29:36Z</time></trkpt><trkpt lat="38.92705472682645" lon="8.912748795854002"><ele>20.0</ele><time>2026-04-01T09:29:37Z</time></trkpt><trkpt lat="38.92718759874728" lon="8.912981832868564"><ele>19.0</ele><time>2026-04-01T09:29:38Z</time></trkpt><trkpt lat="38.927313205745705" lon="8.91322506400435"><ele>19.333333333333332</ele><time>2026-04-01T09:29:39Z</time></trkpt><trkpt lat="38.92742770608466" lon="8.913469941065213"><ele>19.666666666666668</ele><time>2026-04-01T09:29:40Z</time></trkpt><trkpt lat="38.9275359325321" lon="8.913719471153167"><ele>20.0</ele><time>2026-04-01T09:29:41Z</time></trkpt><trkpt lat="38.92764354893626" lon="8.913967677374208"><ele>21.0</ele><time>2026-04-01T09:29:42Z</time></trkpt><trkpt lat="38.927752814990384" lon="8.91421767730697"><ele>22.0</ele><time>2026-04-01T09:29:43Z</time></trkpt><trkpt lat="38.92786517454521" lon="8.914467792432324"><ele>23.0</ele><time>2026-04-01T09:29:44Z</time></trkpt><trkpt lat="38.92797235770488" lon="8.914712118640805"><ele>23.0</ele><time>2026-04-01T09:29:45Z</time></trkpt><trkpt lat="38.928080972830706" lon="8.914957182509362"><ele>23.0</ele><time>2026-04-01T09:29:46Z</time></trkpt><trkpt lat="38.92818691413513" lon="8.915204502870525"><ele>23.0</ele><time>2026-04-01T09:29:47Z</time></trkpt><trkpt lat="38.92829141405625" lon="8.915449853424823"><ele>22.666666666666668</ele><time>2026-04-01T09:29:48Z</time></trkpt><trkpt lat="38.928392763546505" lon="8.91570222557394"><ele>22.333333333333332</ele><time>2026-04-01T09:29:49Z</time></trkpt><trkpt lat="38.92849316494016" lon="8.91594990420638"><ele>22.0</ele><time>2026-04-01T09:29:50Z</time></trkpt><trkpt lat="38.92859770223274" lon="8.916194880709059"><ele>22.333333333333332</ele><time>2026-04-01T09:29:51Z</time></trkpt><trkpt lat="38.92870828093856" lon="8.916440128975955"><ele>22.666666666666668</ele><time>2026-04-01T09:29:52Z</time></trkpt><trkpt lat="38.92881477066728" lon="8.916685876232018"><ele>23.0</ele><time>2026-04-01T09:29:53Z</time></trkpt><trkpt lat="38.928918820143814" lon="8.916929022707462"><ele>23.0</ele><time>2026-04-01T09:29:54Z</time></trkpt><trkpt lat="38.92902161916735" lon="8.917177143653435"><ele>23.0</ele><time>2026-04-01T09:29:55Z</time></trkpt><trkpt lat="38.9291192440044" lon="8.917429794743379"><ele>23.0</ele><time>2026-04-01T09:29:56Z</time></trkpt><trkpt lat="38.92922298909107" lon="8.917681971418583"><ele>21.666666666666668</ele><time>2026-04-01T09:29:57Z</time></trkpt><trkpt lat="38.92932919757764" lon="8.917934726472732"><ele>20.333333333333332</ele><time>2026-04-01T09:29:57.999Z</time></trkpt><trkpt lat="38.92943323411684" lon="8.918187232243607"><ele>19.0</ele><time>2026-04-01T09:29:58.999Z</time></trkpt><trkpt lat="38.929536581279486" lon="8.918437923960767"><ele>18.333333333333332</ele><time>2026-04-01T09:29:59.999Z</time></trkpt><trkpt lat="38.92964337497392" lon="8.91868455736005"><ele>17.666666666666668</ele><time>2026-04-01T09:30:00.999Z</time></trkpt><trkpt lat="38.92975860969065" lon="8.918921413222073"><ele>17.0</ele><time>2026-04-01T09:30:01.999Z</time></trkpt><trkpt lat="38.92988559692459" lon="8.919146049528724"><ele>17.333333333333336</ele><time>2026-04-01T09:30:02.999Z</time></trkpt><trkpt lat="38.93002444224526" lon="8.919350349235039"><ele>17.666666666666668</ele><time>2026-04-01T09:30:03.999Z</time></trkpt><trkpt lat="38.93018356539837" lon="8.91954213684599"><ele>18.0</ele><time>2026-04-01T09:30:04.999Z</time></trkpt><trkpt lat="38.93034509818426" lon="8.919723055717968"><ele>18.666666666666668</ele><time>2026-04-01T09:30:05.999Z</time></trkpt><trkpt lat="38.93050789662161" lon="8.91989555495566"><ele>19.333333333333336</ele><time>2026-04-01T09:30:06.999Z</time></trkpt><trkpt lat="38.93067047427373" lon="8.920069934486422"><ele>20.0</ele><time>2026-04-01T09:30:07.999Z</time></trkpt><trkpt lat="38.93083588255284" lon="8.920241527717955"><ele>21.666666666666668</ele><time>2026-04-01T09:30:08.999Z</time></trkpt><trkpt lat="38.930996273566244" lon="8.920418433069393"><ele>23.333333333333336</ele><time>2026-04-01T09:30:09.999Z</time></trkpt><trkpt lat="38.93114836985301" lon="8.920601433558563"><ele>25.0</ele><time>2026-04-01T09:30:11Z</time></trkpt><trkpt lat="38.93130153180638" lon="8.920784910737678"><ele>25.333333333333336</ele><time>2026-04-01T09:30:12Z</time></trkpt><trkpt lat="38.93145364075146" lon="8.92096959955427"><ele>25.666666666666664</ele><time>2026-04-01T09:30:13Z</time></trkpt><trkpt lat="38.931595599157134" lon="8.921162757025161"><ele>26.0</ele><time>2026-04-01T09:30:14Z</time></trkpt><trkpt lat="38.931730833952386" lon="8.921365410212495"><ele>26.0</ele><time>2026-04-01T09:30:15Z</time></trkpt><trkpt lat="38.93185709739714" lon="8.921581178880293"><ele>26.0</ele><time>2026-04-01T09:30:16Z</time></trkpt><trkpt lat="38.93197245131151" lon="8.921806159748526"><ele>26.0</ele><time>2026-04-01T09:30:17Z</time></trkpt><trkpt lat="38.9320812396884" lon="8.92202985831416"><ele>26.0</ele><time>2026-04-01T09:30:18Z</time></trkpt><trkpt lat="38.93218983256163" lon="8.922258437661997"><ele>26.0</ele><time>2026-04-01T09:30:19Z</time></trkpt><trkpt lat="38.932296869409775" lon="8.92248762791899"><ele>26.0</ele><time>2026-04-01T09:30:20Z</time></trkpt><trkpt lat="38.93240717406934" lon="8.922717561459557"><ele>26.0</ele><time>2026-04-01T09:30:21Z</time></trkpt><trkpt lat="38.93251678216042" lon="8.922950631704285"><ele>26.0</ele><time>2026-04-01T09:30:22Z</time></trkpt><trkpt lat="38.932625778609804" lon="8.923185032713326"><ele>26.0</ele><time>2026-04-01T09:30:23Z</time></trkpt><trkpt lat="38.93273478028647" lon="8.92342567272571"><ele>27.333333333333332</ele><time>2026-04-01T09:30:24Z</time></trkpt><trkpt lat="38.93284237618845" lon="8.923662338902876"><ele>28.666666666666664</ele><time>2026-04-01T09:30:25Z</time></trkpt><trkpt lat="38.93294018696894" lon="8.923904942356911"><ele>30.0</ele><time>2026-04-01T09:30:26Z</time></trkpt><trkpt lat="38.93305086002804" lon="8.924132286014343"><ele>30.333333333333336</ele><time>2026-04-01T09:30:27Z</time></trkpt><trkpt lat="38.93316141252609" lon="8.924362057963782"><ele>30.666666666666668</ele><time>2026-04-01T09:30:28Z</time></trkpt><trkpt lat="38.93327002944647" lon="8.924589377849815"><ele>31.0</ele><time>2026-04-01T09:30:29Z</time></trkpt><trkpt lat="38.93337865503009" lon="8.924813393067282"><ele>30.666666666666668</ele><time>2026-04-01T09:30:30Z</time></trkpt><trkpt lat="38.93349577850565" lon="8.92502623168716"><ele>30.333333333333336</ele><time>2026-04-01T09:30:31Z</time></trkpt><trkpt lat="38.9336257773731" lon="8.925228691823806"><ele>30.0</ele><time>2026-04-01T09:30:32Z</time></trkpt><trkpt lat="38.933767601290924" lon="8.925423689996618"><ele>29.333333333333336</ele><time>2026-04-01T09:30:33Z</time></trkpt><trkpt lat="38.93391222184476" lon="8.925619756592013"><ele>28.666666666666668</ele><time>2026-04-01T09:30:34Z</time></trkpt><trkpt lat="38.934059962984534" lon="8.925813299573253"><ele>28.0</ele><time>2026-04-01T09:30:35Z</time></trkpt><trkpt lat="38.93420882175846" lon="8.926023014563945"><ele>27.0</ele><time>2026-04-01T09:30:36Z</time></trkpt><trkpt lat="38.93436079194611" lon="8.926231068766423"><ele>26.0</ele><time>2026-04-01T09:30:37Z</time></trkpt><trkpt lat="38.93451368482087" lon="8.92643986843477"><ele>25.0</ele><time>2026-04-01T09:30:38Z</time></trkpt><trkpt lat="38.93467199269342" lon="8.926646829254128"><ele>24.5</ele><time>2026-04-01T09:30:39Z</time></trkpt><trkpt lat="38.93483123464087" lon="8.926853571472238"><ele>24.0</ele><time>2026-04-01T09:30:40Z</time></trkpt><trkpt lat="38.93498805936548" lon="8.927060456127787"><ele>23.666666666666668</ele><time>2026-04-01T09:30:41Z</time></trkpt><trkpt lat="38.935131669097025" lon="8.92728396308759"><ele>23.333333333333336</ele><time>2026-04-01T09:30:42Z</time></trkpt><trkpt lat="38.935286258393994" lon="8.927491309259992"><ele>23.0</ele><time>2026-04-01T09:30:43Z</time></trkpt><trkpt lat="38.93543876819101" lon="8.927696151031164"><ele>23.666666666666668</ele><time>2026-04-01T09:30:44Z</time></trkpt><trkpt lat="38.93558592870427" lon="8.92789493277559"><ele>24.333333333333336</ele><time>2026-04-01T09:30:45Z</time></trkpt><trkpt lat="38.93574300232056" lon="8.928077594809013"><ele>25.0</ele><time>2026-04-01T09:30:46Z</time></trkpt><trkpt lat="38.93588117860633" lon="8.928282595457613"><ele>24.0</ele><time>2026-04-01T09:30:47Z</time></trkpt><trkpt lat="38.93602354983002" lon="8.928478980956282"><ele>23.0</ele><time>2026-04-01T09:30:48Z</time></trkpt><trkpt lat="38.936167624264684" lon="8.928670585181733"><ele>22.0</ele><time>2026-04-01T09:30:49Z</time></trkpt><trkpt lat="38.9363150280544" lon="8.92886365993275"><ele>22.0</ele><time>2026-04-01T09:30:50Z</time></trkpt><trkpt lat="38.93646218435943" lon="8.929050349990302"><ele>22.0</ele><time>2026-04-01T09:30:51Z</time></trkpt><trkpt lat="38.936602050229894" lon="8.929236032124717"><ele>22.0</ele><time>2026-04-01T09:30:52Z</time></trkpt><trkpt lat="38.93672662258802" lon="8.92943420139112"><ele>21.5</ele><time>2026-04-01T09:30:53Z</time></trkpt><trkpt lat="38.93699313423344" lon="8.929794150430373"><ele>21.0</ele><time>2026-04-01T09:30:55Z</time></trkpt><trkpt lat="38.93712303982735" lon="8.929969754038169"><ele>20.666666666666668</ele><time>2026-04-01T09:30:56Z</time></trkpt><trkpt lat="38.93726395415104" lon="8.930128773964215"><ele>20.333333333333336</ele><time>2026-04-01T09:30:57Z</time></trkpt><trkpt lat="38.93738977198915" lon="8.930300638871726"><ele>20.0</ele><time>2026-04-01T09:30:58Z</time></trkpt><trkpt lat="38.93751098483055" lon="8.93047049536669"><ele>22.0</ele><time>2026-04-01T09:30:59Z</time></trkpt><trkpt lat="38.937629324566394" lon="8.930638099680378"><ele>24.0</ele><time>2026-04-01T09:31:00Z</time></trkpt><trkpt lat="38.93774768711927" lon="8.930803948663065"><ele>26.0</ele><time>2026-04-01T09:31:01Z</time></trkpt><trkpt lat="38.937869107683255" lon="8.930964756287812"><ele>26.666666666666664</ele><time>2026-04-01T09:31:02Z</time></trkpt><trkpt lat="38.93799276996027" lon="8.931124576322977"><ele>27.333333333333336</ele><time>2026-04-01T09:31:03Z</time></trkpt><trkpt lat="38.938120166121415" lon="8.931286633874535"><ele>28.0</ele><time>2026-04-01T09:31:04Z</time></trkpt><trkpt lat="38.93824954619436" lon="8.931450965784107"><ele>28.0</ele><time>2026-04-01T09:31:05Z</time></trkpt><trkpt lat="38.93837868699844" lon="8.93161920221293"><ele>28.0</ele><time>2026-04-01T09:31:06Z</time></trkpt><trkpt lat="38.93851402561831" lon="8.931785551594883"><ele>28.0</ele><time>2026-04-01T09:31:07Z</time></trkpt><trkpt lat="38.9386615368235" lon="8.931941527193365"><ele>28.0</ele><time>2026-04-01T09:31:08Z</time></trkpt><trkpt lat="38.93881464440145" lon="8.932094067022696"><ele>28.0</ele><time>2026-04-01T09:31:09Z</time></trkpt><trkpt lat="38.93897574625512" lon="8.93224398643925"><ele>28.0</ele><time>2026-04-01T09:31:10Z</time></trkpt><trkpt lat="38.93914374619385" lon="8.93239408413799"><ele>26.333333333333336</ele><time>2026-04-01T09:31:11Z</time></trkpt><trkpt lat="38.93930957211616" lon="8.932559577305492"><ele>24.666666666666668</ele><time>2026-04-01T09:31:12Z</time></trkpt><trkpt lat="38.939482897436335" lon="8.932707713661033"><ele>23.0</ele><time>2026-04-01T09:31:13Z</time></trkpt><trkpt lat="38.93965359411486" lon="8.93285268932034"><ele>23.0</ele><time>2026-04-01T09:31:14Z</time></trkpt><trkpt lat="38.93982404853708" lon="8.932999015776392"><ele>23.0</ele><time>2026-04-01T09:31:15Z</time></trkpt><trkpt lat="38.94000475597704" lon="8.933130315024547"><ele>23.0</ele><time>2026-04-01T09:31:16Z</time></trkpt><trkpt lat="38.94017675833644" lon="8.93328147700812"><ele>23.666666666666668</ele><time>2026-04-01T09:31:17Z</time></trkpt><trkpt lat="38.94034606179786" lon="8.933440264399765"><ele>24.333333333333336</ele><time>2026-04-01T09:31:18Z</time></trkpt><trkpt lat="38.94050809060424" lon="8.93360418981947"><ele>25.0</ele><time>2026-04-01T09:31:19Z</time></trkpt><trkpt lat="38.94066370448362" lon="8.933786064293361"><ele>25.0</ele><time>2026-04-01T09:31:20Z</time></trkpt><trkpt lat="38.94080562690994" lon="8.933973426944728"><ele>25.0</ele><time>2026-04-01T09:31:21Z</time></trkpt><trkpt lat="38.94094857353336" lon="8.934159426730664"><ele>25.0</ele><time>2026-04-01T09:31:22Z</time></trkpt><trkpt lat="38.94109185125879" lon="8.934343528723963"><ele>26.666666666666668</ele><time>2026-04-01T09:31:23Z</time></trkpt><trkpt lat="38.9412361015617" lon="8.934526357410519"><ele>28.333333333333336</ele><time>2026-04-01T09:31:24Z</time></trkpt><trkpt lat="38.94138677677223" lon="8.9346987931565"><ele>30.0</ele><time>2026-04-01T09:31:25Z</time></trkpt><trkpt lat="38.94153974991268" lon="8.934870527516752"><ele>30.0</ele><time>2026-04-01T09:31:26Z</time></trkpt><trkpt lat="38.94169129704263" lon="8.935042950122845"><ele>30.0</ele><time>2026-04-01T09:31:27Z</time></trkpt><trkpt lat="38.94184160432733" lon="8.935220236285474"><ele>30.0</ele><time>2026-04-01T09:31:28Z</time></trkpt><trkpt lat="38.94199387698939" lon="8.935400320848967"><ele>30.0</ele><time>2026-04-01T09:31:29Z</time></trkpt><trkpt lat="38.94213077695015" lon="8.935594868939615"><ele>30.0</ele><time>2026-04-01T09:31:30Z</time></trkpt><trkpt lat="38.94229247041204" lon="8.935772089247779"><ele>30.0</ele><time>2026-04-01T09:31:31Z</time></trkpt><trkpt lat="38.94244304906686" lon="8.935960828995459"><ele>30.333333333333336</ele><time>2026-04-01T09:31:32Z</time></trkpt><trkpt lat="38.94259064129988" lon="8.936151498544389"><ele>30.666666666666668</ele><time>2026-04-01T09:31:33Z</time></trkpt><trkpt lat="38.94274018473434" lon="8.936338204179842"><ele>31.0</ele><time>2026-04-01T09:31:34Z</time></trkpt><trkpt lat="38.94288526259141" lon="8.936539514942332"><ele>31.666666666666668</ele><time>2026-04-01T09:31:35Z</time></trkpt><trkpt lat="38.94303525517015" lon="8.936727827565432"><ele>32.333333333333336</ele><time>2026-04-01T09:31:36Z</time></trkpt><trkpt lat="38.94318792250148" lon="8.93691692844792"><ele>33.0</ele><time>2026-04-01T09:31:37Z</time></trkpt><trkpt lat="38.94333765758258" lon="8.937102388468334"><ele>33.0</ele><time>2026-04-01T09:31:38Z</time></trkpt><trkpt lat="38.943486097468245" lon="8.937290152949753"><ele>33.0</ele><time>2026-04-01T09:31:39Z</time></trkpt><trkpt lat="38.9436360452473" lon="8.937479824761693"><ele>33.0</ele><time>2026-04-01T09:31:40Z</time></trkpt><trkpt lat="38.94378628340116" lon="8.937669863222172"><ele>33.0</ele><time>2026-04-01T09:31:41Z</time></trkpt><trkpt lat="38.943936964723505" lon="8.937859427442966"><ele>33.0</ele><time>2026-04-01T09:31:42Z</time></trkpt><trkpt lat="38.94408849130386" lon="8.93804867007449"><ele>33.0</ele><time>2026-04-01T09:31:43.001Z</time></trkpt><trkpt lat="38.94424114006741" lon="8.93823708889506"><ele>32.666666666666664</ele><time>2026-04-01T09:31:44.001Z</time></trkpt><trkpt lat="38.944393513649004" lon="8.938428031169927"><ele>32.33333333333333</ele><time>2026-04-01T09:31:45.001Z</time></trkpt><trkpt lat="38.94454709260066" lon="8.938620483638752"><ele>32.0</ele><time>2026-04-01T09:31:46.001Z</time></trkpt><trkpt lat="38.94470425393748" lon="8.93881716115746"><ele>32.0</ele><time>2026-04-01T09:31:47.001Z</time></trkpt><trkpt lat="38.94486960511984" lon="8.939004356320853"><ele>32.0</ele><time>2026-04-01T09:31:48.001Z</time></trkpt><trkpt lat="38.94502470642346" lon="8.939202119833096"><ele>32.0</ele><time>2026-04-01T09:31:49.001Z</time></trkpt><trkpt lat="38.945185377038094" lon="8.93939507526076"><ele>31.333333333333332</ele><time>2026-04-01T09:31:50.001Z</time></trkpt><trkpt lat="38.94534226327309" lon="8.939593064218595"><ele>30.666666666666664</ele><time>2026-04-01T09:31:51.001Z</time></trkpt><trkpt lat="38.945502521186164" lon="8.939787927773432"><ele>30.0</ele><time>2026-04-01T09:31:52.001Z</time></trkpt><trkpt lat="38.94565154562656" lon="8.940001841388368"><ele>30.0</ele><time>2026-04-01T09:31:53.001Z</time></trkpt><trkpt lat="38.94581192779954" lon="8.940198274509083"><ele>30.0</ele><time>2026-04-01T09:31:54.001Z</time></trkpt><trkpt lat="38.94598463013681" lon="8.940376187803617"><ele>30.0</ele><time>2026-04-01T09:31:55.001Z</time></trkpt><trkpt lat="38.94614761389309" lon="8.940565412716186"><ele>30.666666666666664</ele><time>2026-04-01T09:31:56.001Z</time></trkpt><trkpt lat="38.946316730046085" lon="8.940751598405887"><ele>31.333333333333332</ele><time>2026-04-01T09:31:57.001Z</time></trkpt><trkpt lat="38.94648708550932" lon="8.94093866052586"><ele>32.0</ele><time>2026-04-01T09:31:58.001Z</time></trkpt><trkpt lat="38.9466571249669" lon="8.941127584978409"><ele>32.0</ele><time>2026-04-01T09:31:59.001Z</time></trkpt><trkpt lat="38.94682674191502" lon="8.941319081045018"><ele>32.0</ele><time>2026-04-01T09:32:00.001Z</time></trkpt><trkpt lat="38.947163278170464" lon="8.941690509479834"><ele>32.0</ele><time>2026-04-01T09:32:02.001Z</time></trkpt><trkpt lat="38.94733492643162" lon="8.941877527115569"><ele>32.0</ele><time>2026-04-01T09:32:03.001Z</time></trkpt><trkpt lat="38.947502049219274" lon="8.942067272316653"><ele>32.0</ele><time>2026-04-01T09:32:04Z</time></trkpt><trkpt lat="38.94767252564572" lon="8.942252799897295"><ele>31.333333333333332</ele><time>2026-04-01T09:32:05Z</time></trkpt><trkpt lat="38.947840601326305" lon="8.942434631402334"><ele>30.666666666666664</ele><time>2026-04-01T09:32:06Z</time></trkpt><trkpt lat="38.94800933754187" lon="8.94261851716728"><ele>30.0</ele><time>2026-04-01T09:32:07Z</time></trkpt><trkpt lat="38.94817632063551" lon="8.942801257543213"><ele>30.0</ele><time>2026-04-01T09:32:08Z</time></trkpt><trkpt lat="38.94833987900753" lon="8.942985524554471"><ele>30.0</ele><time>2026-04-01T09:32:09Z</time></trkpt><trkpt lat="38.94849888766327" lon="8.943163683223743"><ele>30.0</ele><time>2026-04-01T09:32:10Z</time></trkpt><trkpt lat="38.94865621896156" lon="8.943337329111815"><ele>29.333333333333336</ele><time>2026-04-01T09:32:11Z</time></trkpt><trkpt lat="38.94882019965798" lon="8.943506969926492"><ele>28.666666666666668</ele><time>2026-04-01T09:32:12Z</time></trkpt><trkpt lat="38.94898190753473" lon="8.943680965152458"><ele>28.0</ele><time>2026-04-01T09:32:13Z</time></trkpt><trkpt lat="38.94913959173789" lon="8.94386230948553"><ele>28.0</ele><time>2026-04-01T09:32:14Z</time></trkpt><trkpt lat="38.94929945070636" lon="8.944043012557218"><ele>28.0</ele><time>2026-04-01T09:32:15Z</time></trkpt><trkpt lat="38.94945591596387" lon="8.944222583956982"><ele>28.0</ele><time>2026-04-01T09:32:16Z</time></trkpt><trkpt lat="38.949616741655134" lon="8.944401360156148"><ele>28.0</ele><time>2026-04-01T09:32:17Z</time></trkpt><trkpt lat="38.94977330876822" lon="8.944591435516674"><ele>28.0</ele><time>2026-04-01T09:32:18Z</time></trkpt><trkpt lat="38.94993270317335" lon="8.944782029004879"><ele>28.0</ele><time>2026-04-01T09:32:19Z</time></trkpt><trkpt lat="38.95008025292808" lon="8.944976123363602"><ele>28.333333333333336</ele><time>2026-04-01T09:32:20Z</time></trkpt><trkpt lat="38.95022768198147" lon="8.945174141967758"><ele>28.666666666666664</ele><time>2026-04-01T09:32:21Z</time></trkpt><trkpt lat="38.950376753315346" lon="8.945371348375179"><ele>29.0</ele><time>2026-04-01T09:32:22Z</time></trkpt><trkpt lat="38.950525268774" lon="8.945573604422762"><ele>29.0</ele><time>2026-04-01T09:32:23Z</time></trkpt><trkpt lat="38.9506718220937" lon="8.945778649592455"><ele>29.0</ele><time>2026-04-01T09:32:24Z</time></trkpt><trkpt lat="38.95082059777649" lon="8.945981437560352"><ele>29.0</ele><time>2026-04-01T09:32:25Z</time></trkpt><trkpt lat="38.95096878697209" lon="8.946184957233866"><ele>29.0</ele><time>2026-04-01T09:32:26Z</time></trkpt><trkpt lat="38.951117696820546" lon="8.946385153436927"><ele>29.0</ele><time>2026-04-01T09:32:27Z</time></trkpt><trkpt lat="38.951275377378195" lon="8.946591822083372"><ele>29.0</ele><time>2026-04-01T09:32:28Z</time></trkpt><trkpt lat="38.951423189323066" lon="8.9467950091499"><ele>29.0</ele><time>2026-04-01T09:32:29Z</time></trkpt><trkpt lat="38.95157687172713" lon="8.946997624202622"><ele>29.0</ele><time>2026-04-01T09:32:30Z</time></trkpt><trkpt lat="38.951729317103336" lon="8.947202981415177"><ele>29.0</ele><time>2026-04-01T09:32:31Z</time></trkpt><trkpt lat="38.951881468238405" lon="8.947408437609624"><ele>28.333333333333332</ele><time>2026-04-01T09:32:32Z</time></trkpt><trkpt lat="38.9520370511658" lon="8.947612190001255"><ele>27.666666666666664</ele><time>2026-04-01T09:32:33Z</time></trkpt><trkpt lat="38.95218926984051" lon="8.947822221493576"><ele>27.0</ele><time>2026-04-01T09:32:34Z</time></trkpt><trkpt lat="38.952338140509674" lon="8.948034060215042"><ele>27.0</ele><time>2026-04-01T09:32:35Z</time></trkpt><trkpt lat="38.95248530172384" lon="8.94824067551309"><ele>27.0</ele><time>2026-04-01T09:32:36Z</time></trkpt><trkpt lat="38.952639171438484" lon="8.948444864900488"><ele>27.0</ele><time>2026-04-01T09:32:37Z</time></trkpt><trkpt lat="38.952791867547816" lon="8.948649550797468"><ele>27.333333333333336</ele><time>2026-04-01T09:32:38Z</time></trkpt><trkpt lat="38.95294415264843" lon="8.94885692823211"><ele>27.666666666666668</ele><time>2026-04-01T09:32:39Z</time></trkpt><trkpt lat="38.95309891914664" lon="8.949062832691753"><ele>28.0</ele><time>2026-04-01T09:32:40Z</time></trkpt><trkpt lat="38.95325225907677" lon="8.949271704140319"><ele>27.0</ele><time>2026-04-01T09:32:41Z</time></trkpt><trkpt lat="38.95340232616125" lon="8.949480483021752"><ele>26.0</ele><time>2026-04-01T09:32:42Z</time></trkpt><trkpt lat="38.953554957553955" lon="8.949689985327263"><ele>25.0</ele><time>2026-04-01T09:32:43Z</time></trkpt><trkpt lat="38.95370827268488" lon="8.949897713596709"><ele>25.0</ele><time>2026-04-01T09:32:44Z</time></trkpt><trkpt lat="38.9538610924924" lon="8.950104484227534"><ele>25.0</ele><time>2026-04-01T09:32:45Z</time></trkpt><trkpt lat="38.95401422562517" lon="8.950314577171515"><ele>25.0</ele><time>2026-04-01T09:32:46Z</time></trkpt><trkpt lat="38.95416710802279" lon="8.95052640664694"><ele>25.5</ele><time>2026-04-01T09:32:47Z</time></trkpt><trkpt lat="38.954325276407644" lon="8.950740204693181"><ele>26.0</ele><time>2026-04-01T09:32:48Z</time></trkpt><trkpt lat="38.95447974383078" lon="8.950952741060254"><ele>26.0</ele><time>2026-04-01T09:32:49Z</time></trkpt><trkpt lat="38.95463734085941" lon="8.95116668482935"><ele>26.0</ele><time>2026-04-01T09:32:50Z</time></trkpt><trkpt lat="38.954795862877354" lon="8.951383123799252"><ele>26.0</ele><time>2026-04-01T09:32:51Z</time></trkpt><trkpt lat="38.95495750632936" lon="8.951598612453244"><ele>26.0</ele><time>2026-04-01T09:32:52Z</time></trkpt><trkpt lat="38.95511764723264" lon="8.95181671153327"><ele>26.0</ele><time>2026-04-01T09:32:53Z</time></trkpt><trkpt lat="38.95527957450022" lon="8.952033961868302"><ele>26.0</ele><time>2026-04-01T09:32:54Z</time></trkpt><trkpt lat="38.95544131448458" lon="8.952250279284819"><ele>26.0</ele><time>2026-04-01T09:32:55Z</time></trkpt><trkpt lat="38.95560186314166" lon="8.952469216526831"><ele>26.0</ele><time>2026-04-01T09:32:56Z</time></trkpt><trkpt lat="38.95576246030716" lon="8.952687820160087"><ele>25.5</ele><time>2026-04-01T09:32:57Z</time></trkpt><trkpt lat="38.955922124778354" lon="8.952909438584186"><ele>25.0</ele><time>2026-04-01T09:32:58Z</time></trkpt><trkpt lat="38.95608520732319" lon="8.953127753787529"><ele>25.0</ele><time>2026-04-01T09:32:59Z</time></trkpt><trkpt lat="38.95625392235491" lon="8.95334516762241"><ele>25.0</ele><time>2026-04-01T09:33:00Z</time></trkpt><trkpt lat="38.95641947208612" lon="8.953564232195319"><ele>25.0</ele><time>2026-04-01T09:33:01Z</time></trkpt><trkpt lat="38.956582823807864" lon="8.953786643725053"><ele>25.0</ele><time>2026-04-01T09:33:02Z</time></trkpt><trkpt lat="38.95674742960351" lon="8.954008996080573"><ele>23.5</ele><time>2026-04-01T09:33:03Z</time></trkpt><trkpt lat="38.95691417015949" lon="8.954228203983995"><ele>22.0</ele><time>2026-04-01T09:33:04Z</time></trkpt><trkpt lat="38.9570770170294" lon="8.95444867202004"><ele>22.0</ele><time>2026-04-01T09:33:05Z</time></trkpt><trkpt lat="38.957237973423624" lon="8.954670796182427"><ele>22.0</ele><time>2026-04-01T09:33:06Z</time></trkpt><trkpt lat="38.95739836632692" lon="8.954894350920139"><ele>20.5</ele><time>2026-04-01T09:33:07Z</time></trkpt><trkpt lat="38.957560013546704" lon="8.955117722547074"><ele>19.0</ele><time>2026-04-01T09:33:08Z</time></trkpt><trkpt lat="38.957724339714936" lon="8.95533922856026"><ele>19.0</ele><time>2026-04-01T09:33:09Z</time></trkpt><trkpt lat="38.95788991756382" lon="8.955564233745585"><ele>19.0</ele><time>2026-04-01T09:33:10Z</time></trkpt><trkpt lat="38.95805411276128" lon="8.955789407405614"><ele>19.0</ele><time>2026-04-01T09:33:11Z</time></trkpt><trkpt lat="38.95821816017139" lon="8.956011801163523"><ele>19.0</ele><time>2026-04-01T09:33:12Z</time></trkpt><trkpt lat="38.95838485556007" lon="8.956233603452027"><ele>19.5</ele><time>2026-04-01T09:33:13Z</time></trkpt><trkpt lat="38.9585495231263" lon="8.956457843924145"><ele>20.0</ele><time>2026-04-01T09:33:14Z</time></trkpt><trkpt lat="38.95871458866758" lon="8.956682596621414"><ele>20.0</ele><time>2026-04-01T09:33:15Z</time></trkpt><trkpt lat="38.958880017687854" lon="8.956906557531038"><ele>20.0</ele><time>2026-04-01T09:33:16Z</time></trkpt><trkpt lat="38.95904462221472" lon="8.957131508978973"><ele>21.5</ele><time>2026-04-01T09:33:17Z</time></trkpt><trkpt lat="38.95920733370884" lon="8.95735800965306"><ele>23.0</ele><time>2026-04-01T09:33:18Z</time></trkpt><trkpt lat="38.959369198262884" lon="8.95757830489153"><ele>24.0</ele><time>2026-04-01T09:33:19Z</time></trkpt><trkpt lat="38.95953016283101" lon="8.957795854712677"><ele>25.0</ele><time>2026-04-01T09:33:20Z</time></trkpt><trkpt lat="38.95969011600786" lon="8.958014477251323"><ele>25.0</ele><time>2026-04-01T09:33:21Z</time></trkpt><trkpt lat="38.959846251635476" lon="8.958232099065404"><ele>25.0</ele><time>2026-04-01T09:33:22Z</time></trkpt><trkpt lat="38.95999923852382" lon="8.95844539228306"><ele>25.333333333333336</ele><time>2026-04-01T09:33:23Z</time></trkpt><trkpt lat="38.96015515968801" lon="8.958656355460121"><ele>25.666666666666664</ele><time>2026-04-01T09:33:24Z</time></trkpt><trkpt lat="38.96030863502377" lon="8.958864709804969"><ele>26.0</ele><time>2026-04-01T09:33:25Z</time></trkpt><trkpt lat="38.960464016666435" lon="8.95907227582797"><ele>26.0</ele><time>2026-04-01T09:33:26Z</time></trkpt><trkpt lat="38.960619271574934" lon="8.959281900011844"><ele>26.0</ele><time>2026-04-01T09:33:27Z</time></trkpt><trkpt lat="38.96077353039303" lon="8.959490427018105"><ele>26.0</ele><time>2026-04-01T09:33:28Z</time></trkpt><trkpt lat="38.96093002513041" lon="8.959703078513144"><ele>25.0</ele><time>2026-04-01T09:33:29Z</time></trkpt><trkpt lat="38.96108541042334" lon="8.959914154564952"><ele>24.0</ele><time>2026-04-01T09:33:30Z</time></trkpt><trkpt lat="38.9612424356454" lon="8.960126353171352"><ele>23.333333333333332</ele><time>2026-04-01T09:33:31Z</time></trkpt><trkpt lat="38.96139859226781" lon="8.960334020303693"><ele>22.666666666666664</ele><time>2026-04-01T09:33:32Z</time></trkpt><trkpt lat="38.961550247461915" lon="8.960536625363861"><ele>22.0</ele><time>2026-04-01T09:33:33Z</time></trkpt><trkpt lat="38.961695738488885" lon="8.960729873117362"><ele>22.0</ele><time>2026-04-01T09:33:34Z</time></trkpt><trkpt lat="38.96183396806169" lon="8.960915449606555"><ele>22.0</ele><time>2026-04-01T09:33:35Z</time></trkpt><trkpt lat="38.961966974569094" lon="8.961097107920663"><ele>22.0</ele><time>2026-04-01T09:33:36Z</time></trkpt><trkpt lat="38.96209184081131" lon="8.96125976325903"><ele>22.0</ele><time>2026-04-01T09:33:37Z</time></trkpt><trkpt lat="38.96219603947344" lon="8.96142229192697"><ele>22.0</ele><time>2026-04-01T09:33:38Z</time></trkpt><trkpt lat="38.96227612965025" lon="8.961595678939794"><ele>22.0</ele><time>2026-04-01T09:33:39Z</time></trkpt><trkpt lat="38.96237580123549" lon="8.961740225146423"><ele>21.666666666666664</ele><time>2026-04-01T09:33:40Z</time></trkpt><trkpt lat="38.962508941778864" lon="8.96186195909469"><ele>21.333333333333332</ele><time>2026-04-01T09:33:41Z</time></trkpt><trkpt lat="38.96263506428927" lon="8.961995815861272"><ele>21.0</ele><time>2026-04-01T09:33:42Z</time></trkpt><trkpt lat="38.96273914358778" lon="8.962158768023881"><ele>21.0</ele><time>2026-04-01T09:33:43Z</time></trkpt><trkpt lat="38.96283628435475" lon="8.962331797722921"><ele>21.0</ele><time>2026-04-01T09:33:44Z</time></trkpt><trkpt lat="38.96293384093912" lon="8.962498261919341"><ele>21.0</ele><time>2026-04-01T09:33:45Z</time></trkpt><trkpt lat="38.963041986602526" lon="8.962655352794432"><ele>21.0</ele><time>2026-04-01T09:33:46Z</time></trkpt><trkpt lat="38.9631827994503" lon="8.962789190501034"><ele>21.0</ele><time>2026-04-01T09:33:47Z</time></trkpt><trkpt lat="38.96332263227573" lon="8.962935696491849"><ele>21.0</ele><time>2026-04-01T09:33:48Z</time></trkpt><trkpt lat="38.963448918248105" lon="8.963108680283632"><ele>21.333333333333332</ele><time>2026-04-01T09:33:49Z</time></trkpt><trkpt lat="38.96356816389458" lon="8.963282979065724"><ele>21.666666666666664</ele><time>2026-04-01T09:33:50.001Z</time></trkpt><trkpt lat="38.96369880413519" lon="8.963464105504357"><ele>22.0</ele><time>2026-04-01T09:33:51.001Z</time></trkpt><trkpt lat="38.963835275635624" lon="8.963647877575596"><ele>22.0</ele><time>2026-04-01T09:33:52.001Z</time></trkpt><trkpt lat="38.963974823491874" lon="8.963839218972076"><ele>22.0</ele><time>2026-04-01T09:33:53.001Z</time></trkpt><trkpt lat="38.9641150064921" lon="8.964034353651265"><ele>22.0</ele><time>2026-04-01T09:33:54.001Z</time></trkpt><trkpt lat="38.96425546844612" lon="8.964232077691653"><ele>21.333333333333332</ele><time>2026-04-01T09:33:55.001Z</time></trkpt><trkpt lat="38.96440302290835" lon="8.96442685665776"><ele>20.666666666666668</ele><time>2026-04-01T09:33:56.001Z</time></trkpt><trkpt lat="38.96454847575869" lon="8.96462541653274"><ele>20.0</ele><time>2026-04-01T09:33:57.001Z</time></trkpt><trkpt lat="38.964693357169544" lon="8.964824450490884"><ele>20.0</ele><time>2026-04-01T09:33:58.001Z</time></trkpt><trkpt lat="38.964837237464266" lon="8.965023098575049"><ele>20.0</ele><time>2026-04-01T09:33:59.001Z</time></trkpt><trkpt lat="38.964986113524446" lon="8.965219276231041"><ele>20.0</ele><time>2026-04-01T09:34:00.001Z</time></trkpt><trkpt lat="38.96513636177257" lon="8.965411611769126"><ele>18.666666666666668</ele><time>2026-04-01T09:34:01.001Z</time></trkpt><trkpt lat="38.96528938125904" lon="8.965601691892243"><ele>17.333333333333332</ele><time>2026-04-01T09:34:02.001Z</time></trkpt><trkpt lat="38.9654423519228" lon="8.965792910340621"><ele>16.0</ele><time>2026-04-01T09:34:03.001Z</time></trkpt><trkpt lat="38.965606518481806" lon="8.965986161686413"><ele>15.5</ele><time>2026-04-01T09:34:04.001Z</time></trkpt><trkpt lat="38.965790788012754" lon="8.966190298823282"><ele>15.0</ele><time>2026-04-01T09:34:05.001Z</time></trkpt><trkpt lat="38.96598204392908" lon="8.96640937787397"><ele>15.0</ele><time>2026-04-01T09:34:06.001Z</time></trkpt><trkpt lat="38.9661786518323" lon="8.966639482770788"><ele>15.0</ele><time>2026-04-01T09:34:07.001Z</time></trkpt><trkpt lat="38.966376058995124" lon="8.96687345678651"><ele>15.0</ele><time>2026-04-01T09:34:08.001Z</time></trkpt><trkpt lat="38.966571522660246" lon="8.967103708137548"><ele>15.0</ele><time>2026-04-01T09:34:09.001Z</time></trkpt><trkpt lat="38.9667697361803" lon="8.967332552337972"><ele>13.5</ele><time>2026-04-01T09:34:10Z</time></trkpt><trkpt lat="38.96696721917804" lon="8.967561657599832"><ele>12.0</ele><time>2026-04-01T09:34:11Z</time></trkpt><trkpt lat="38.967167239048344" lon="8.96779112165208"><ele>12.0</ele><time>2026-04-01T09:34:12Z</time></trkpt><trkpt lat="38.96736866789799" lon="8.968019215635719"><ele>12.0</ele><time>2026-04-01T09:34:13Z</time></trkpt><trkpt lat="38.967567494045014" lon="8.968249299774099"><ele>12.0</ele><time>2026-04-01T09:34:14Z</time></trkpt><trkpt lat="38.967768407164726" lon="8.96848164884981"><ele>12.0</ele><time>2026-04-01T09:34:15Z</time></trkpt><trkpt lat="38.9679718451147" lon="8.968712467040042"><ele>12.0</ele><time>2026-04-01T09:34:16Z</time></trkpt><trkpt lat="38.968171457574044" lon="8.968946906026117"><ele>12.0</ele><time>2026-04-01T09:34:17Z</time></trkpt><trkpt lat="38.96837112698629" lon="8.969181585549725"><ele>12.0</ele><time>2026-04-01T09:34:18Z</time></trkpt><trkpt lat="38.968569442950745" lon="8.96941849647845"><ele>12.0</ele><time>2026-04-01T09:34:19Z</time></trkpt><trkpt lat="38.96876893882853" lon="8.96965470828862"><ele>12.0</ele><time>2026-04-01T09:34:20Z</time></trkpt><trkpt lat="38.96896634424084" lon="8.969888769598137"><ele>12.0</ele><time>2026-04-01T09:34:21Z</time></trkpt><trkpt lat="38.96916851051867" lon="8.970120928408992"><ele>12.0</ele><time>2026-04-01T09:34:22Z</time></trkpt><trkpt lat="38.969369098762535" lon="8.970356623572732"><ele>12.0</ele><time>2026-04-01T09:34:23Z</time></trkpt><trkpt lat="38.969571448154035" lon="8.97058740422792"><ele>12.0</ele><time>2026-04-01T09:34:24Z</time></trkpt><trkpt lat="38.96977278148908" lon="8.970817835775895"><ele>12.0</ele><time>2026-04-01T09:34:25Z</time></trkpt><trkpt lat="38.96997457205128" lon="8.971049748128129"><ele>12.0</ele><time>2026-04-01T09:34:26Z</time></trkpt><trkpt lat="38.97016904186806" lon="8.971279349757362"><ele>12.0</ele><time>2026-04-01T09:34:27Z</time></trkpt><trkpt lat="38.97035634529871" lon="8.97150396243868"><ele>11.0</ele><time>2026-04-01T09:34:28Z</time></trkpt><trkpt lat="38.97053513158136" lon="8.971718343537212"><ele>10.0</ele><time>2026-04-01T09:34:29Z</time></trkpt><trkpt lat="38.970712961465864" lon="8.971929191252782"><ele>10.5</ele><time>2026-04-01T09:34:30Z</time></trkpt><trkpt lat="38.970893285736864" lon="8.97213641989487"><ele>11.0</ele><time>2026-04-01T09:34:31Z</time></trkpt><trkpt lat="38.97107077987981" lon="8.97233767210925"><ele>11.0</ele><time>2026-04-01T09:34:32Z</time></trkpt><trkpt lat="38.97124503322129" lon="8.972521274082586"><ele>11.0</ele><time>2026-04-01T09:34:33Z</time></trkpt><trkpt lat="38.97141525382185" lon="8.972682910753862"><ele>11.0</ele><time>2026-04-01T09:34:34Z</time></trkpt><trkpt lat="38.97158816522833" lon="8.972823633878475"><ele>10.666666666666666</ele><time>2026-04-01T09:34:35Z</time></trkpt><trkpt lat="38.971752815996986" lon="8.972944079300438"><ele>10.333333333333334</ele><time>2026-04-01T09:34:36Z</time></trkpt><trkpt lat="38.97190752258273" lon="8.973057168027328"><ele>10.0</ele><time>2026-04-01T09:34:37Z</time></trkpt><trkpt lat="38.97205389205355" lon="8.973167654504662"><ele>10.0</ele><time>2026-04-01T09:34:38Z</time></trkpt><trkpt lat="38.97218311216605" lon="8.973274690129998"><ele>10.0</ele><time>2026-04-01T09:34:39Z</time></trkpt><trkpt lat="38.97227666225585" lon="8.973380576789657"><ele>10.0</ele><time>2026-04-01T09:34:40Z</time></trkpt><trkpt lat="38.97235639822069" lon="8.97348807647876"><ele>10.0</ele><time>2026-04-01T09:34:41Z</time></trkpt><trkpt lat="38.97246718422672" lon="8.973560160840455"><ele>11.0</ele><time>2026-04-01T09:34:42Z</time></trkpt><trkpt lat="38.97260330595099" lon="8.973611504873764"><ele>12.0</ele><time>2026-04-01T09:34:43Z</time></trkpt><trkpt lat="38.97274392393632" lon="8.97368164474359"><ele>13.0</ele><time>2026-04-01T09:34:44Z</time></trkpt><trkpt lat="38.97288926448352" lon="8.973788982330465"><ele>13.0</ele><time>2026-04-01T09:34:45Z</time></trkpt><trkpt lat="38.97304213869218" lon="8.973917602056657"><ele>13.0</ele><time>2026-04-01T09:34:46Z</time></trkpt><trkpt lat="38.973200689302985" lon="8.974034832683348"><ele>13.0</ele><time>2026-04-01T09:34:47Z</time></trkpt><trkpt lat="38.97337422317642" lon="8.974159644761603"><ele>12.333333333333332</ele><time>2026-04-01T09:34:48Z</time></trkpt><trkpt lat="38.973561052611366" lon="8.974294332241172"><ele>11.666666666666666</ele><time>2026-04-01T09:34:49Z</time></trkpt><trkpt lat="38.97374835598865" lon="8.974431635351722"><ele>11.0</ele><time>2026-04-01T09:34:50Z</time></trkpt><trkpt lat="38.973943997265636" lon="8.974571748773512"><ele>11.0</ele><time>2026-04-01T09:34:51Z</time></trkpt><trkpt lat="38.97414280534608" lon="8.974715267062619"><ele>11.0</ele><time>2026-04-01T09:34:52Z</time></trkpt><trkpt lat="38.97433663466184" lon="8.974863143069125"><ele>12.0</ele><time>2026-04-01T09:34:53Z</time></trkpt><trkpt lat="38.974522366948946" lon="8.975005198926633"><ele>13.0</ele><time>2026-04-01T09:34:54Z</time></trkpt><trkpt lat="38.97469748232521" lon="8.975134064350039"><ele>14.0</ele><time>2026-04-01T09:34:55Z</time></trkpt><trkpt lat="38.97488186079809" lon="8.975267759622492"><ele>15.333333333333334</ele><time>2026-04-01T09:34:56Z</time></trkpt><trkpt lat="38.975070105651255" lon="8.97539769552132"><ele>16.666666666666668</ele><time>2026-04-01T09:34:57Z</time></trkpt><trkpt lat="38.975254189302696" lon="8.97553469634291"><ele>18.0</ele><time>2026-04-01T09:34:58Z</time></trkpt><trkpt lat="38.97543228107189" lon="8.975670893781526"><ele>18.0</ele><time>2026-04-01T09:34:59Z</time></trkpt><trkpt lat="38.97561063625516" lon="8.975801229423112"><ele>18.0</ele><time>2026-04-01T09:35:00Z</time></trkpt><trkpt lat="38.975784189062125" lon="8.975930118663396"><ele>18.0</ele><time>2026-04-01T09:35:01Z</time></trkpt><trkpt lat="38.97595621251366" lon="8.976065382732957"><ele>17.666666666666668</ele><time>2026-04-01T09:35:02Z</time></trkpt><trkpt lat="38.976127641999824" lon="8.97620640917837"><ele>17.333333333333336</ele><time>2026-04-01T09:35:03Z</time></trkpt><trkpt lat="38.976298529400545" lon="8.976356602161548"><ele>17.0</ele><time>2026-04-01T09:35:04Z</time></trkpt><trkpt lat="38.97646490784961" lon="8.976514736233106"><ele>17.0</ele><time>2026-04-01T09:35:05Z</time></trkpt><trkpt lat="38.97662716044521" lon="8.976686658771785"><ele>17.0</ele><time>2026-04-01T09:35:06Z</time></trkpt><trkpt lat="38.976794554715475" lon="8.976860373158395"><ele>17.0</ele><time>2026-04-01T09:35:07Z</time></trkpt><trkpt lat="38.97696285143047" lon="8.977029659896179"><ele>16.666666666666668</ele><time>2026-04-01T09:35:08Z</time></trkpt><trkpt lat="38.97713329313041" lon="8.977187739290706"><ele>16.333333333333332</ele><time>2026-04-01T09:35:09Z</time></trkpt><trkpt lat="38.977308471235645" lon="8.977356174346195"><ele>16.0</ele><time>2026-04-01T09:35:10Z</time></trkpt><trkpt lat="38.9774878516808" lon="8.977532885598169"><ele>15.0</ele><time>2026-04-01T09:35:11Z</time></trkpt><trkpt lat="38.97766329441784" lon="8.977719718768007"><ele>14.0</ele><time>2026-04-01T09:35:12Z</time></trkpt><trkpt lat="38.977841304725146" lon="8.97791677474594"><ele>14.0</ele><time>2026-04-01T09:35:13Z</time></trkpt><trkpt lat="38.97802250537603" lon="8.978097853727673"><ele>14.0</ele><time>2026-04-01T09:35:14Z</time></trkpt><trkpt lat="38.978201692176086" lon="8.978278244468674"><ele>14.333333333333334</ele><time>2026-04-01T09:35:15Z</time></trkpt><trkpt lat="38.97837817584341" lon="8.978457610935896"><ele>14.666666666666668</ele><time>2026-04-01T09:35:16Z</time></trkpt><trkpt lat="38.97855181830071" lon="8.978637892551651"><ele>15.0</ele><time>2026-04-01T09:35:17Z</time></trkpt><trkpt lat="38.97872392896305" lon="8.978817849523532"><ele>15.0</ele><time>2026-04-01T09:35:18Z</time></trkpt><trkpt lat="38.9788943081202" lon="8.97899631120148"><ele>15.0</ele><time>2026-04-01T09:35:19Z</time></trkpt><trkpt lat="38.97906718438457" lon="8.979172428567722"><ele>15.0</ele><time>2026-04-01T09:35:20Z</time></trkpt><trkpt lat="38.97924022511407" lon="8.979346057404593"><ele>13.0</ele><time>2026-04-01T09:35:21Z</time></trkpt><trkpt lat="38.9794127877586" lon="8.979519346196001"><ele>11.0</ele><time>2026-04-01T09:35:22Z</time></trkpt><trkpt lat="38.979582651988096" lon="8.979692254811493"><ele>9.0</ele><time>2026-04-01T09:35:23Z</time></trkpt><trkpt lat="38.97975264396946" lon="8.97986523131613"><ele>9.0</ele><time>2026-04-01T09:35:24Z</time></trkpt><trkpt lat="38.979921863861364" lon="8.980038793641702"><ele>9.0</ele><time>2026-04-01T09:35:25Z</time></trkpt><trkpt lat="38.98009032991351" lon="8.980212720589307"><ele>9.0</ele><time>2026-04-01T09:35:26.001Z</time></trkpt><trkpt lat="38.980257635191" lon="8.980386168196977"><ele>9.0</ele><time>2026-04-01T09:35:27.001Z</time></trkpt><trkpt lat="38.9804275290573" lon="8.98056216960633"><ele>9.0</ele><time>2026-04-01T09:35:28.001Z</time></trkpt><trkpt lat="38.980594146371374" lon="8.980738865423556"><ele>9.0</ele><time>2026-04-01T09:35:29.001Z</time></trkpt><trkpt lat="38.98076719718275" lon="8.980912287585024"><ele>8.666666666666666</ele><time>2026-04-01T09:35:30.001Z</time></trkpt><trkpt lat="38.980942623613906" lon="8.981083155813687"><ele>8.333333333333332</ele><time>2026-04-01T09:35:31.001Z</time></trkpt><trkpt lat="38.98111790053052" lon="8.981256398226728"><ele>8.0</ele><time>2026-04-01T09:35:32.001Z</time></trkpt><trkpt lat="38.98129208476035" lon="8.981431640235323"><ele>8.0</ele><time>2026-04-01T09:35:33.001Z</time></trkpt><trkpt lat="38.98146454470842" lon="8.98161272001059"><ele>8.0</ele><time>2026-04-01T09:35:34.001Z</time></trkpt><trkpt lat="38.98163915670867" lon="8.981792624697643"><ele>8.0</ele><time>2026-04-01T09:35:35.001Z</time></trkpt><trkpt lat="38.981813747009475" lon="8.981971125175777"><ele>7.666666666666666</ele><time>2026-04-01T09:35:36.001Z</time></trkpt><trkpt lat="38.98199037747308" lon="8.982149100736917"><ele>7.333333333333334</ele><time>2026-04-01T09:35:37.001Z</time></trkpt><trkpt lat="38.98216490082014" lon="8.98232496258554"><ele>7.0</ele><time>2026-04-01T09:35:38.001Z</time></trkpt><trkpt lat="38.98233786583976" lon="8.982502479444852"><ele>6.666666666666667</ele><time>2026-04-01T09:35:39.001Z</time></trkpt><trkpt lat="38.98251277607146" lon="8.982679970522957"><ele>6.333333333333334</ele><time>2026-04-01T09:35:40.001Z</time></trkpt><trkpt lat="38.98268845468578" lon="8.982852880092542"><ele>6.0</ele><time>2026-04-01T09:35:41.001Z</time></trkpt><trkpt lat="38.98286101625044" lon="8.983022852103812"><ele>6.0</ele><time>2026-04-01T09:35:42.001Z</time></trkpt><trkpt lat="38.98303244484072" lon="8.983197293735161"><ele>6.0</ele><time>2026-04-01T09:35:43.001Z</time></trkpt><trkpt lat="38.983205092649335" lon="8.983370897500617"><ele>6.0</ele><time>2026-04-01T09:35:44.001Z</time></trkpt><trkpt lat="38.98337727501122" lon="8.983546073107108"><ele>5.333333333333333</ele><time>2026-04-01T09:35:45.001Z</time></trkpt><trkpt lat="38.98355076602269" lon="8.983720395784106"><ele>4.666666666666666</ele><time>2026-04-01T09:35:46.001Z</time></trkpt><trkpt lat="38.98372502606483" lon="8.98389537677132"><ele>4.0</ele><time>2026-04-01T09:35:47.001Z</time></trkpt><trkpt lat="38.983900409302464" lon="8.984069711562867"><ele>3.6666666666666665</ele><time>2026-04-01T09:35:48.001Z</time></trkpt><trkpt lat="38.98407282882872" lon="8.984244525333633"><ele>3.333333333333333</ele><time>2026-04-01T09:35:49.001Z</time></trkpt><trkpt lat="38.984241047255765" lon="8.98441711246215"><ele>3.0</ele><time>2026-04-01T09:35:50.001Z</time></trkpt><trkpt lat="38.984412296438606" lon="8.984588109224823"><ele>3.666666666666667</ele><time>2026-04-01T09:35:51.001Z</time></trkpt><trkpt lat="38.9845806785558" lon="8.984759536921207"><ele>4.333333333333334</ele><time>2026-04-01T09:35:52.001Z</time></trkpt><trkpt lat="38.98475146638726" lon="8.984934479783547"><ele>5.0</ele><time>2026-04-01T09:35:53.001Z</time></trkpt><trkpt lat="38.9849214966727" lon="8.985108286350075"><ele>6.0</ele><time>2026-04-01T09:35:54.001Z</time></trkpt><trkpt lat="38.98509214888661" lon="8.985281445929166"><ele>7.0</ele><time>2026-04-01T09:35:55.001Z</time></trkpt><trkpt lat="38.985262927921625" lon="8.985453915291982"><ele>8.0</ele><time>2026-04-01T09:35:56.001Z</time></trkpt><trkpt lat="38.985433170837524" lon="8.985628690355195"><ele>8.0</ele><time>2026-04-01T09:35:57.001Z</time></trkpt><trkpt lat="38.985603856168474" lon="8.985802595714567"><ele>8.0</ele><time>2026-04-01T09:35:58.001Z</time></trkpt><trkpt lat="38.9857776377675" lon="8.985972135004872"><ele>8.0</ele><time>2026-04-01T09:35:59.001Z</time></trkpt><trkpt lat="38.985948972789664" lon="8.986146864336037"><ele>7.666666666666666</ele><time>2026-04-01T09:36:00.001Z</time></trkpt><trkpt lat="38.986122315008586" lon="8.986317904586857"><ele>7.333333333333334</ele><time>2026-04-01T09:36:01.001Z</time></trkpt><trkpt lat="38.986294134442176" lon="8.986490759094941"><ele>7.0</ele><time>2026-04-01T09:36:02.001Z</time></trkpt><trkpt lat="38.98646526329578" lon="8.986662233111138"><ele>6.666666666666667</ele><time>2026-04-01T09:36:03.001Z</time></trkpt><trkpt lat="38.98663909385501" lon="8.98683357140241"><ele>6.333333333333334</ele><time>2026-04-01T09:36:04.001Z</time></trkpt><trkpt lat="38.9868112959559" lon="8.987009351437983"><ele>6.0</ele><time>2026-04-01T09:36:05.001Z</time></trkpt><trkpt lat="38.98698324886718" lon="8.987184285008517"><ele>6.0</ele><time>2026-04-01T09:36:06.001Z</time></trkpt><trkpt lat="38.98715581376298" lon="8.987359108875841"><ele>6.0</ele><time>2026-04-01T09:36:07.001Z</time></trkpt><trkpt lat="38.98732808837687" lon="8.987532969554737"><ele>6.0</ele><time>2026-04-01T09:36:08.001Z</time></trkpt><trkpt lat="38.987499102531" lon="8.987711157611919"><ele>6.0</ele><time>2026-04-01T09:36:09.001Z</time></trkpt><trkpt lat="38.987673753227256" lon="8.987885035052408"><ele>6.0</ele><time>2026-04-01T09:36:10.001Z</time></trkpt><trkpt lat="38.987849412564564" lon="8.98805712452194"><ele>6.0</ele><time>2026-04-01T09:36:11.001Z</time></trkpt><trkpt lat="38.98802017773157" lon="8.98822890373699"><ele>6.333333333333334</ele><time>2026-04-01T09:36:12.001Z</time></trkpt><trkpt lat="38.98819068416652" lon="8.988396257556367"><ele>6.666666666666667</ele><time>2026-04-01T09:36:13.001Z</time></trkpt><trkpt lat="38.98835201533162" lon="8.988563769254357"><ele>7.0</ele><time>2026-04-01T09:36:14.001Z</time></trkpt><trkpt lat="38.98851702847644" lon="8.98873503732262"><ele>7.0</ele><time>2026-04-01T09:36:15.001Z</time></trkpt><trkpt lat="38.98868038583603" lon="8.988904084046075"><ele>7.0</ele><time>2026-04-01T09:36:16.001Z</time></trkpt><trkpt lat="38.98884780589941" lon="8.989069400896971"><ele>7.0</ele><time>2026-04-01T09:36:17.001Z</time></trkpt><trkpt lat="38.989016289703514" lon="8.989230558629565"><ele>7.0</ele><time>2026-04-01T09:36:18.001Z</time></trkpt><trkpt lat="38.98917660514257" lon="8.989400734899192"><ele>7.0</ele><time>2026-04-01T09:36:19.001Z</time></trkpt><trkpt lat="38.989337188830696" lon="8.989569921620902"><ele>7.0</ele><time>2026-04-01T09:36:20.001Z</time></trkpt><trkpt lat="38.989500272418354" lon="8.989734079767654"><ele>7.0</ele><time>2026-04-01T09:36:21.001Z</time></trkpt><trkpt lat="38.98966233606756" lon="8.98989902498917"><ele>7.0</ele><time>2026-04-01T09:36:22.001Z</time></trkpt><trkpt lat="38.98982849042777" lon="8.9900623232905"><ele>7.0</ele><time>2026-04-01T09:36:23.001Z</time></trkpt><trkpt lat="38.98999425493237" lon="8.990228895388082"><ele>8.333333333333334</ele><time>2026-04-01T09:36:24.001Z</time></trkpt><trkpt lat="38.99016157777782" lon="8.990391151226659"><ele>9.666666666666666</ele><time>2026-04-01T09:36:25.001Z</time></trkpt><trkpt lat="38.99032513938833" lon="8.990553348394004"><ele>11.0</ele><time>2026-04-01T09:36:26.001Z</time></trkpt><trkpt lat="38.99049952934537" lon="8.990712446490601"><ele>9.666666666666666</ele><time>2026-04-01T09:36:27.001Z</time></trkpt><trkpt lat="38.990673982875016" lon="8.99086916171752"><ele>8.333333333333334</ele><time>2026-04-01T09:36:28.001Z</time></trkpt><trkpt lat="38.990848314923824" lon="8.991027881467625"><ele>7.0</ele><time>2026-04-01T09:36:29.001Z</time></trkpt><trkpt lat="38.991028423524476" lon="8.991166222705262"><ele>6.333333333333334</ele><time>2026-04-01T09:36:30.001Z</time></trkpt><trkpt lat="38.991211914333036" lon="8.99130279795014"><ele>5.666666666666667</ele><time>2026-04-01T09:36:31.001Z</time></trkpt><trkpt lat="38.99140477591499" lon="8.991435369824998"><ele>5.0</ele><time>2026-04-01T09:36:32.001Z</time></trkpt><trkpt lat="38.991595500130174" lon="8.991562121813768"><ele>5.5</ele><time>2026-04-01T09:36:33Z</time></trkpt><trkpt lat="38.99179901098778" lon="8.991682149657837"><ele>6.0</ele><time>2026-04-01T09:36:34Z</time></trkpt><trkpt lat="38.99201667922469" lon="8.991779553513611"><ele>6.0</ele><time>2026-04-01T09:36:35Z</time></trkpt><trkpt lat="38.99224421801038" lon="8.99186602690487"><ele>6.0</ele><time>2026-04-01T09:36:36Z</time></trkpt><trkpt lat="38.99248439250045" lon="8.991949098266383"><ele>6.5</ele><time>2026-04-01T09:36:37Z</time></trkpt><trkpt lat="38.99271925130979" lon="8.992017271129349"><ele>7.0</ele><time>2026-04-01T09:36:38Z</time></trkpt><trkpt lat="38.99296201100762" lon="8.992095271452616"><ele>7.0</ele><time>2026-04-01T09:36:39Z</time></trkpt><trkpt lat="38.99319821678576" lon="8.99217020155327"><ele>7.0</ele><time>2026-04-01T09:36:40Z</time></trkpt><trkpt lat="38.99342717759314" lon="8.992253727763584"><ele>8.0</ele><time>2026-04-01T09:36:41Z</time></trkpt><trkpt lat="38.993651240690205" lon="8.992326181544506"><ele>9.0</ele><time>2026-04-01T09:36:42Z</time></trkpt><trkpt lat="38.99386530593299" lon="8.99242266170396"><ele>9.0</ele><time>2026-04-01T09:36:43Z</time></trkpt><trkpt lat="38.99406466817048" lon="8.992522846772957"><ele>9.0</ele><time>2026-04-01T09:36:44Z</time></trkpt><trkpt lat="38.9942693157004" lon="8.992613711347795"><ele>9.0</ele><time>2026-04-01T09:36:45Z</time></trkpt><trkpt lat="38.99443725970337" lon="8.992743998922156"><ele>9.0</ele><time>2026-04-01T09:36:46Z</time></trkpt><trkpt lat="38.99454920466668" lon="8.992911796197058"><ele>9.0</ele><time>2026-04-01T09:36:47Z</time></trkpt><trkpt lat="38.994587241097875" lon="8.993087566239717"><ele>9.0</ele><time>2026-04-01T09:36:48Z</time></trkpt><trkpt lat="38.9946103002566" lon="8.99332038807848"><ele>9.25</ele><time>2026-04-01T09:36:49Z</time></trkpt><trkpt lat="38.994702299872415" lon="8.99342597168459"><ele>9.5</ele><time>2026-04-01T09:36:50Z</time></trkpt><trkpt lat="38.9947824022702" lon="8.99352292247909"><ele>9.75</ele><time>2026-04-01T09:36:51Z</time></trkpt><trkpt lat="38.99485397825218" lon="8.993596719922463"><ele>10.0</ele><time>2026-04-01T09:36:52Z</time></trkpt><trkpt lat="38.99486661370247" lon="8.993769346622809"><ele>10.0</ele><time>2026-04-01T09:36:53Z</time></trkpt><trkpt lat="38.99494086225543" lon="8.993819512226347"><ele>10.0</ele><time>2026-04-01T09:36:54Z</time></trkpt><trkpt lat="38.99500868494088" lon="8.993865336231543"><ele>10.0</ele><time>2026-04-01T09:36:55Z</time></trkpt><trkpt lat="38.995072175824006" lon="8.993908233481873"><ele>10.0</ele><time>2026-04-01T09:36:56Z</time></trkpt><trkpt lat="38.99513009032648" lon="8.993947174100038"><ele>10.0</ele><time>2026-04-01T09:36:57Z</time></trkpt><trkpt lat="38.995189866016965" lon="8.993987283248783"><ele>10.0</ele><time>2026-04-01T09:36:58Z</time></trkpt><trkpt lat="38.995249250525546" lon="8.99402712991645"><ele>10.0</ele><time>2026-04-01T09:36:59Z</time></trkpt><trkpt lat="38.9953151156868" lon="8.994071325063251"><ele>9.8</ele><time>2026-04-01T09:37:00Z</time></trkpt><trkpt lat="38.995393083700215" lon="8.994100124260063"><ele>9.6</ele><time>2026-04-01T09:37:01Z</time></trkpt><trkpt lat="38.995459116328384" lon="8.994167214897686"><ele>9.4</ele><time>2026-04-01T09:37:02Z</time></trkpt><trkpt lat="38.995543457531426" lon="8.994222656707315"><ele>9.2</ele><time>2026-04-01T09:37:03Z</time></trkpt><trkpt lat="38.99563759497702" lon="8.994261095788527"><ele>9.0</ele><time>2026-04-01T09:37:04Z</time></trkpt><trkpt lat="38.99572657389413" lon="8.994327327281479"><ele>8.666666666666666</ele><time>2026-04-01T09:37:05Z</time></trkpt><trkpt lat="38.9958133836201" lon="8.994385426473194"><ele>8.333333333333334</ele><time>2026-04-01T09:37:06Z</time></trkpt><trkpt lat="38.995895658772376" lon="8.994440327042069"><ele>8.0</ele><time>2026-04-01T09:37:07Z</time></trkpt><trkpt lat="38.99597798467227" lon="8.994494171791755"><ele>7.666666666666667</ele><time>2026-04-01T09:37:08Z</time></trkpt><trkpt lat="38.996045840485955" lon="8.994556130091954"><ele>7.333333333333334</ele><time>2026-04-01T09:37:09Z</time></trkpt><trkpt lat="38.99609502568283" lon="8.994634962403586"><ele>7.0</ele><time>2026-04-01T09:37:10Z</time></trkpt><trkpt lat="38.99611907114243" lon="8.994721105857309"><ele>7.0</ele><time>2026-04-01T09:37:11Z</time></trkpt><trkpt lat="38.9961202031896" lon="8.994807170451057"><ele>6.999999999999999</ele><time>2026-04-01T09:37:12Z</time></trkpt><trkpt lat="38.996042689668315" lon="8.994962983836057"><ele>6.999999999999999</ele><time>2026-04-01T09:37:14Z</time></trkpt><trkpt lat="38.99596794137998" lon="8.995034236679896"><ele>7.0</ele><time>2026-04-01T09:37:15Z</time></trkpt><trkpt lat="38.99588909083993" lon="8.995117610377841"><ele>7.0</ele><time>2026-04-01T09:37:16Z</time></trkpt><trkpt lat="38.9958412542638" lon="8.995234272848025"><ele>7.0</ele><time>2026-04-01T09:37:17Z</time></trkpt><trkpt lat="38.99578835136508" lon="8.995359836141107"><ele>7.0</ele><time>2026-04-01T09:37:18Z</time></trkpt><trkpt lat="38.99573899680729" lon="8.995501490759002"><ele>7.0</ele><time>2026-04-01T09:37:19Z</time></trkpt><trkpt lat="38.9957041915143" lon="8.995651182671677"><ele>7.0</ele><time>2026-04-01T09:37:20Z</time></trkpt><trkpt lat="38.99563716704648" lon="8.995795282186618"><ele>6.6</ele><time>2026-04-01T09:37:21Z</time></trkpt><trkpt lat="38.995593540558644" lon="8.99594233375239"><ele>6.199999999999999</ele><time>2026-04-01T09:37:22Z</time></trkpt><trkpt lat="38.9955764755488" lon="8.9960843577658"><ele>5.8</ele><time>2026-04-01T09:37:23Z</time></trkpt><trkpt lat="38.99553191705416" lon="8.996211198915827"><ele>5.4</ele><time>2026-04-01T09:37:24Z</time></trkpt><trkpt lat="38.99550758766639" lon="8.996337587249394"><ele>5.0</ele><time>2026-04-01T09:37:25Z</time></trkpt><trkpt lat="38.995452914666906" lon="8.996458548057307"><ele>5.0</ele><time>2026-04-01T09:37:26.001Z</time></trkpt><trkpt lat="38.99539199485808" lon="8.996588497559811"><ele>5.0</ele><time>2026-04-01T09:37:27.001Z</time></trkpt><trkpt lat="38.99531964756163" lon="8.996713224275997"><ele>5.0</ele><time>2026-04-01T09:37:28.001Z</time></trkpt><trkpt lat="38.99524655656111" lon="8.996846220135048"><ele>5.0</ele><time>2026-04-01T09:37:29.001Z</time></trkpt><trkpt lat="38.99516943821214" lon="8.996985535754176"><ele>4.75</ele><time>2026-04-01T09:37:30.001Z</time></trkpt><trkpt lat="38.99508844477781" lon="8.997125209551712"><ele>4.5</ele><time>2026-04-01T09:37:31.001Z</time></trkpt><trkpt lat="38.9950025672102" lon="8.997263532894817"><ele>4.25</ele><time>2026-04-01T09:37:32.001Z</time></trkpt><trkpt lat="38.99491129838211" lon="8.997410551075895"><ele>4.0</ele><time>2026-04-01T09:37:33.001Z</time></trkpt><trkpt lat="38.99481664854389" lon="8.99754869352226"><ele>4.0</ele><time>2026-04-01T09:37:34.001Z</time></trkpt><trkpt lat="38.9947128847861" lon="8.997672933203624"><ele>4.0</ele><time>2026-04-01T09:37:35.001Z</time></trkpt><trkpt lat="38.99461330934945" lon="8.997788946743388"><ele>4.0</ele><time>2026-04-01T09:37:36.001Z</time></trkpt><trkpt lat="38.994507952031306" lon="8.997885629890892"><ele>4.0</ele><time>2026-04-01T09:37:37.001Z</time></trkpt><trkpt lat="38.99441229404697" lon="8.997981319738633"><ele>4.0</ele><time>2026-04-01T09:37:38.001Z</time></trkpt><trkpt lat="38.99431151012437" lon="8.99805686566649"><ele>4.0</ele><time>2026-04-01T09:37:39.001Z</time></trkpt><trkpt lat="38.994212016364855" lon="8.998127218866705"><ele>4.0</ele><time>2026-04-01T09:37:40.001Z</time></trkpt><trkpt lat="38.99412527665158" lon="8.998201733568912"><ele>4.0</ele><time>2026-04-01T09:37:41.001Z</time></trkpt><trkpt lat="38.99404501964644" lon="8.998277868318624"><ele>4.0</ele><time>2026-04-01T09:37:42.001Z</time></trkpt><trkpt lat="38.993960428210734" lon="8.998359772369684"><ele>4.5</ele><time>2026-04-01T09:37:43.001Z</time></trkpt><trkpt lat="38.99387264321615" lon="8.998449245481982"><ele>5.0</ele><time>2026-04-01T09:37:44.001Z</time></trkpt><trkpt lat="38.993778907235786" lon="8.998539775732107"><ele>5.5</ele><time>2026-04-01T09:37:45.001Z</time></trkpt><trkpt lat="38.993680464334766" lon="8.998622050103599"><ele>6.0</ele><time>2026-04-01T09:37:46.001Z</time></trkpt><trkpt lat="38.99358905485363" lon="8.998721125321417"><ele>6.0</ele><time>2026-04-01T09:37:47.001Z</time></trkpt><trkpt lat="38.993494545631826" lon="8.998822210944214"><ele>6.0</ele><time>2026-04-01T09:37:48.001Z</time></trkpt><trkpt lat="38.99340948422732" lon="8.998922329630263"><ele>6.0</ele><time>2026-04-01T09:37:49.001Z</time></trkpt><trkpt lat="38.993328727724446" lon="8.999017972549302"><ele>6.0</ele><time>2026-04-01T09:37:50.001Z</time></trkpt><trkpt lat="38.993252004942654" lon="8.999107751631698"><ele>5.3999999999999995</ele><time>2026-04-01T09:37:51.001Z</time></trkpt><trkpt lat="38.99318363444788" lon="8.999203556666483"><ele>4.8</ele><time>2026-04-01T09:37:52.001Z</time></trkpt><trkpt lat="38.993140083578346" lon="8.999316113276558"><ele>4.199999999999999</ele><time>2026-04-01T09:37:53.001Z</time></trkpt><trkpt lat="38.993123201447446" lon="8.999447294035733"><ele>3.5999999999999996</ele><time>2026-04-01T09:37:54.001Z</time></trkpt><trkpt lat="38.99313026649405" lon="8.999581811899475"><ele>3.0</ele><time>2026-04-01T09:37:55.001Z</time></trkpt><trkpt lat="38.99317711587146" lon="8.999702477137559"><ele>3.0</ele><time>2026-04-01T09:37:56.001Z</time></trkpt><trkpt lat="38.993248750160085" lon="8.999784767917435"><ele>3.0</ele><time>2026-04-01T09:37:57.001Z</time></trkpt><trkpt lat="38.99334481325896" lon="8.999843036313576"><ele>3.0</ele><time>2026-04-01T09:37:58.001Z</time></trkpt><trkpt lat="38.993438172032974" lon="8.999899207725376"><ele>3.0</ele><time>2026-04-01T09:37:59.001Z</time></trkpt><trkpt lat="38.99353577053755" lon="8.999960124174015"><ele>3.0</ele><time>2026-04-01T09:38:00.001Z</time></trkpt><trkpt lat="38.99365241783031" lon="9.000035120192592"><ele>3.25</ele><time>2026-04-01T09:38:01.001Z</time></trkpt><trkpt lat="38.99378926374936" lon="9.000095180506042"><ele>3.5</ele><time>2026-04-01T09:38:02.001Z</time></trkpt><trkpt lat="38.993922895381964" lon="9.000162013035032"><ele>3.75</ele><time>2026-04-01T09:38:03.001Z</time></trkpt><trkpt lat="38.99404953104938" lon="9.000209497046688"><ele>4.0</ele><time>2026-04-01T09:38:04.001Z</time></trkpt><trkpt lat="38.99416578735737" lon="9.000249091691115"><ele>3.6</ele><time>2026-04-01T09:38:05.001Z</time></trkpt><trkpt lat="38.99427206593839" lon="9.000285352247406"><ele>3.2</ele><time>2026-04-01T09:38:06.001Z</time></trkpt><trkpt lat="38.99435991633348" lon="9.00034564536186"><ele>2.8000000000000003</ele><time>2026-04-01T09:38:07.001Z</time></trkpt><trkpt lat="38.994415568610755" lon="9.000432613130807"><ele>2.4000000000000004</ele><time>2026-04-01T09:38:08.001Z</time></trkpt><trkpt lat="38.994452706968225" lon="9.000517734271485"><ele>2.0</ele><time>2026-04-01T09:38:09.001Z</time></trkpt><trkpt lat="38.994399179607974" lon="9.000716375504252"><ele>2.0</ele><time>2026-04-01T09:38:11.001Z</time></trkpt><trkpt lat="38.99438808897088" lon="9.000810283782108"><ele>1.9999999999999998</ele><time>2026-04-01T09:38:12.001Z</time></trkpt><trkpt lat="38.99438535697928" lon="9.000901947156475"><ele>2.0</ele><time>2026-04-01T09:38:13.001Z</time></trkpt><trkpt lat="38.99439579107932" lon="9.001002591598937"><ele>2.0</ele><time>2026-04-01T09:38:14.001Z</time></trkpt><trkpt lat="38.99440752927436" lon="9.001090488501575"><ele>1.9999999999999998</ele><time>2026-04-01T09:38:15.001Z</time></trkpt><trkpt lat="38.99443038647539" lon="9.001173051995428"><ele>2.0</ele><time>2026-04-01T09:38:16.001Z</time></trkpt><trkpt lat="38.9944602832765" lon="9.00125634646531"><ele>2.0</ele><time>2026-04-01T09:38:17.001Z</time></trkpt><trkpt lat="38.994492885579064" lon="9.001338532345658"><ele>2.333333333333333</ele><time>2026-04-01T09:38:18.001Z</time></trkpt><trkpt lat="38.99451147163046" lon="9.001416053814486"><ele>2.6666666666666665</ele><time>2026-04-01T09:38:19.001Z</time></trkpt><trkpt lat="38.99454215118115" lon="9.00149479835966"><ele>3.0</ele><time>2026-04-01T09:38:20.001Z</time></trkpt><trkpt lat="38.9945727453123" lon="9.001573177182479"><ele>3.333333333333333</ele><time>2026-04-01T09:38:21.001Z</time></trkpt><trkpt lat="38.99459926205474" lon="9.001648449016766"><ele>3.6666666666666665</ele><time>2026-04-01T09:38:22Z</time></trkpt><trkpt lat="38.99466214078117" lon="9.001774630043489"><ele>4.0</ele><time>2026-04-01T09:38:24Z</time></trkpt><trkpt lat="38.994707679513965" lon="9.001871364005334"><ele>4.0</ele><time>2026-04-01T09:38:26Z</time></trkpt><trkpt lat="38.99472648806007" lon="9.001976453246412"><ele>4.0</ele><time>2026-04-01T09:38:28Z</time></trkpt><trkpt lat="38.99477163893986" lon="9.002085050983336"><ele>4.0</ele><time>2026-04-01T09:38:30Z</time></trkpt><trkpt lat="38.99480491696156" lon="9.00221207328174"><ele>4.0</ele><time>2026-04-01T09:38:32Z</time></trkpt><trkpt lat="38.99483498152114" lon="9.002346974793799"><ele>4.0</ele><time>2026-04-01T09:38:34Z</time></trkpt><trkpt lat="38.994858469740166" lon="9.002477582614699"><ele>4.5</ele><time>2026-04-01T09:38:36Z</time></trkpt><trkpt lat="38.9948726707582" lon="9.002615588770016"><ele>5.0</ele><time>2026-04-01T09:38:38Z</time></trkpt><trkpt lat="38.994885203040894" lon="9.00275903633537"><ele>5.5</ele><time>2026-04-01T09:38:40Z</time></trkpt><trkpt lat="38.994893491808426" lon="9.002909004368588"><ele>6.0</ele><time>2026-04-01T09:38:42Z</time></trkpt><trkpt lat="38.9948834814192" lon="9.00305670661457"><ele>6.0</ele><time>2026-04-01T09:38:44Z</time></trkpt><trkpt lat="38.99487750263453" lon="9.003229395144778"><ele>6.0</ele><time>2026-04-01T09:38:46Z</time></trkpt><trkpt lat="38.99487181425827" lon="9.003330195455737"><ele>6.0</ele><time>2026-04-01T09:38:47Z</time></trkpt><trkpt lat="38.99489876508038" lon="9.003423122842332"><ele>6.0</ele><time>2026-04-01T09:38:48Z</time></trkpt><trkpt lat="38.994903342740955" lon="9.003513899519362"><ele>6.0</ele><time>2026-04-01T09:38:49Z</time></trkpt><trkpt lat="38.994917996384636" lon="9.003612261764543"><ele>6.0</ele><time>2026-04-01T09:38:50Z</time></trkpt><trkpt lat="38.99494042618254" lon="9.003716926781186"><ele>6.333333333333333</ele><time>2026-04-01T09:38:51Z</time></trkpt><trkpt lat="38.99495680658803" lon="9.003815030058208"><ele>6.666666666666666</ele><time>2026-04-01T09:38:52Z</time></trkpt><trkpt lat="38.99495719805329" lon="9.00390834491786"><ele>7.0</ele><time>2026-04-01T09:38:53Z</time></trkpt><trkpt lat="38.994940464106655" lon="9.00400484742779"><ele>7.333333333333333</ele><time>2026-04-01T09:38:54Z</time></trkpt><trkpt lat="38.994915869861416" lon="9.00411120690092"><ele>7.666666666666666</ele><time>2026-04-01T09:38:55Z</time></trkpt><trkpt lat="38.99489488660031" lon="9.00424667765575"><ele>8.0</ele><time>2026-04-01T09:38:56Z</time></trkpt><trkpt lat="38.9948665205758" lon="9.004400690185278"><ele>8.0</ele><time>2026-04-01T09:38:57Z</time></trkpt><trkpt lat="38.99483886606824" lon="9.004556659152009"><ele>8.0</ele><time>2026-04-01T09:38:58Z</time></trkpt><trkpt lat="38.99482249386673" lon="9.004713499187906"><ele>8.0</ele><time>2026-04-01T09:38:59Z</time></trkpt><trkpt lat="38.99480327103903" lon="9.004872222985087"><ele>8.0</ele><time>2026-04-01T09:39:00Z</time></trkpt><trkpt lat="38.9947749728993" lon="9.00503253621214"><ele>7.75</ele><time>2026-04-01T09:39:01Z</time></trkpt><trkpt lat="38.99474002155007" lon="9.005199110646215"><ele>7.5</ele><time>2026-04-01T09:39:02Z</time></trkpt><trkpt lat="38.99470134261994" lon="9.00536751412398"><ele>7.25</ele><time>2026-04-01T09:39:03Z</time></trkpt><trkpt lat="38.994663877829" lon="9.005541069612937"><ele>7.0</ele><time>2026-04-01T09:39:04Z</time></trkpt><trkpt lat="38.99461580968169" lon="9.005712920609973"><ele>6.75</ele><time>2026-04-01T09:39:05Z</time></trkpt><trkpt lat="38.99455622580202" lon="9.005883720048764"><ele>6.5</ele><time>2026-04-01T09:39:06Z</time></trkpt><trkpt lat="38.99450323784982" lon="9.006061933739037"><ele>6.25</ele><time>2026-04-01T09:39:07Z</time></trkpt><trkpt lat="38.994468163937505" lon="9.006242022107127"><ele>6.0</ele><time>2026-04-01T09:39:08Z</time></trkpt><trkpt lat="38.994434501808826" lon="9.006438940007618"><ele>6.0</ele><time>2026-04-01T09:39:09Z</time></trkpt><trkpt lat="38.99444058556614" lon="9.00662618194615"><ele>6.0</ele><time>2026-04-01T09:39:10Z</time></trkpt><trkpt lat="38.99444346011835" lon="9.006799600830051"><ele>6.0</ele><time>2026-04-01T09:39:11Z</time></trkpt><trkpt lat="38.99444032980244" lon="9.006963399584667"><ele>6.0</ele><time>2026-04-01T09:39:12Z</time></trkpt><trkpt lat="38.99439956554212" lon="9.007108584175331"><ele>5.75</ele><time>2026-04-01T09:39:13Z</time></trkpt><trkpt lat="38.99434027711705" lon="9.007233942713949"><ele>5.5</ele><time>2026-04-01T09:39:14Z</time></trkpt><trkpt lat="38.994266117797494" lon="9.007356789012197"><ele>5.25</ele><time>2026-04-01T09:39:15Z</time></trkpt><trkpt lat="38.99418987489681" lon="9.00748774068245"><ele>5.0</ele><time>2026-04-01T09:39:16Z</time></trkpt><trkpt lat="38.99411017460053" lon="9.007624261342517"><ele>5.0</ele><time>2026-04-01T09:39:17Z</time></trkpt><trkpt lat="38.99405526194637" lon="9.007786076629"><ele>5.0</ele><time>2026-04-01T09:39:18Z</time></trkpt><trkpt lat="38.99402914406663" lon="9.00796618961022"><ele>5.0</ele><time>2026-04-01T09:39:19Z</time></trkpt><trkpt lat="38.99401012315996" lon="9.008158383702249"><ele>5.0</ele><time>2026-04-01T09:39:20Z</time></trkpt><trkpt lat="38.99397503202497" lon="9.008358652111477"><ele>5.333333333333334</ele><time>2026-04-01T09:39:21Z</time></trkpt><trkpt lat="38.993904991134805" lon="9.008557405690887"><ele>5.666666666666667</ele><time>2026-04-01T09:39:22Z</time></trkpt><trkpt lat="38.993826015368306" lon="9.008768235985297"><ele>6.0</ele><time>2026-04-01T09:39:23Z</time></trkpt><trkpt lat="38.993791333684776" lon="9.00895988394339"><ele>6.0</ele><time>2026-04-01T09:39:24Z</time></trkpt><trkpt lat="38.99376800436248" lon="9.009139768836805"><ele>6.0</ele><time>2026-04-01T09:39:25Z</time></trkpt><trkpt lat="38.99375444370737" lon="9.00931244167829"><ele>6.0</ele><time>2026-04-01T09:39:26Z</time></trkpt><trkpt lat="38.99372230522575" lon="9.009481368006837"><ele>6.0</ele><time>2026-04-01T09:39:27Z</time></trkpt><trkpt lat="38.99370024072891" lon="9.009632155963205"><ele>5.5</ele><time>2026-04-01T09:39:28Z</time></trkpt><trkpt lat="38.99364527330909" lon="9.009780725904244"><ele>5.0</ele><time>2026-04-01T09:39:29Z</time></trkpt><trkpt lat="38.99359684081804" lon="9.009920904814065"><ele>4.5</ele><time>2026-04-01T09:39:30Z</time></trkpt><trkpt lat="38.99353015686609" lon="9.010063957347676"><ele>4.0</ele><time>2026-04-01T09:39:31Z</time></trkpt><trkpt lat="38.99346298744459" lon="9.010211756511668"><ele>3.75</ele><time>2026-04-01T09:39:32Z</time></trkpt><trkpt lat="38.993410206510205" lon="9.010359755666954"><ele>3.5</ele><time>2026-04-01T09:39:33Z</time></trkpt><trkpt lat="38.99335752916148" lon="9.01049794885982"><ele>3.25</ele><time>2026-04-01T09:39:34Z</time></trkpt><trkpt lat="38.99331294647565" lon="9.010627286464981"><ele>3.0</ele><time>2026-04-01T09:39:35Z</time></trkpt><trkpt lat="38.993270643794354" lon="9.01075110748542"><ele>3.0</ele><time>2026-04-01T09:39:36Z</time></trkpt><trkpt lat="38.99323127936097" lon="9.010871089626509"><ele>3.0</ele><time>2026-04-01T09:39:37Z</time></trkpt><trkpt lat="38.993202861061775" lon="9.010978080946598"><ele>3.0</ele><time>2026-04-01T09:39:38Z</time></trkpt><trkpt lat="38.99317936334902" lon="9.011081839938658"><ele>3.0</ele><time>2026-04-01T09:39:39Z</time></trkpt><trkpt lat="38.99315508758845" lon="9.011191278515453"><ele>3.0</ele><time>2026-04-01T09:39:40Z</time></trkpt><trkpt lat="38.99312319142894" lon="9.011301313554998"><ele>3.0</ele><time>2026-04-01T09:39:41Z</time></trkpt><trkpt lat="38.99307573931843" lon="9.011390973324987"><ele>3.0</ele><time>2026-04-01T09:39:42Z</time></trkpt><trkpt lat="38.99300497504723" lon="9.0114859569911"><ele>3.0</ele><time>2026-04-01T09:39:43Z</time></trkpt><trkpt lat="38.992919121974495" lon="9.011570917744184"><ele>3.0</ele><time>2026-04-01T09:39:44Z</time></trkpt><trkpt lat="38.992822656738376" lon="9.01165603443051"><ele>3.0</ele><time>2026-04-01T09:39:45Z</time></trkpt><trkpt lat="38.992716199783125" lon="9.011748537849865"><ele>2.75</ele><time>2026-04-01T09:39:46Z</time></trkpt><trkpt lat="38.99260582542888" lon="9.011842352114758"><ele>2.5</ele><time>2026-04-01T09:39:47Z</time></trkpt><trkpt lat="38.99249428984579" lon="9.01194304411062"><ele>2.25</ele><time>2026-04-01T09:39:48Z</time></trkpt><trkpt lat="38.99237896042019" lon="9.012046664451383"><ele>2.0</ele><time>2026-04-01T09:39:49Z</time></trkpt><trkpt lat="38.99225312789621" lon="9.01215271668985"><ele>1.75</ele><time>2026-04-01T09:39:50Z</time></trkpt><trkpt lat="38.99213857842356" lon="9.012260366830784"><ele>1.5</ele><time>2026-04-01T09:39:51Z</time></trkpt><trkpt lat="38.99202362980567" lon="9.012356043704381"><ele>1.25</ele><time>2026-04-01T09:39:52Z</time></trkpt><trkpt lat="38.99191268066997" lon="9.012451777763092"><ele>1.0</ele><time>2026-04-01T09:39:53Z</time></trkpt><trkpt lat="38.9918014651506" lon="9.012523693748893"><ele>0.8</ele><time>2026-04-01T09:39:54Z</time></trkpt><trkpt lat="38.99168539124196" lon="9.012528388025258"><ele>0.6000000000000001</ele><time>2026-04-01T09:39:55Z</time></trkpt><trkpt lat="38.99157858309375" lon="9.012516711829607"><ele>0.4</ele><time>2026-04-01T09:39:56Z</time></trkpt><trkpt lat="38.99148013121856" lon="9.012476134122698"><ele>0.2</ele><time>2026-04-01T09:39:57Z</time></trkpt><trkpt lat="38.99139601461308" lon="9.0124167885348"><ele>0.0</ele><time>2026-04-01T09:39:58Z</time></trkpt><trkpt lat="38.99131618654619" lon="9.012337936445237"><ele>0.0</ele><time>2026-04-01T09:39:59Z</time></trkpt><trkpt lat="38.99124697476986" lon="9.012251258224802"><ele>0.0</ele><time>2026-04-01T09:40:00Z</time></trkpt><trkpt lat="38.99120073949838" lon="9.012169528830517"><ele>0.0</ele><time>2026-04-01T09:40:01Z</time></trkpt><trkpt lat="38.99114964182114" lon="9.012100073904854"><ele>0.0</ele><time>2026-04-01T09:40:02Z</time></trkpt><trkpt lat="38.991086581447014" lon="9.012040246216166"><ele>0.0</ele><time>2026-04-01T09:40:03Z</time></trkpt><trkpt lat="38.991032873728265" lon="9.011967615635356"><ele>0.0</ele><time>2026-04-01T09:40:04Z</time></trkpt><trkpt lat="38.99097826403559" lon="9.011886413794116"><ele>0.0</ele><time>2026-04-01T09:40:05Z</time></trkpt><trkpt lat="38.99091511195075" lon="9.011825054975986"><ele>0.0</ele><time>2026-04-01T09:40:06Z</time></trkpt><trkpt lat="38.990852720731475" lon="9.011769094669217"><ele>0.0</ele><time>2026-04-01T09:40:07Z</time></trkpt><trkpt lat="38.99077243157735" lon="9.011742379178756"><ele>0.0</ele><time>2026-04-01T09:40:08Z</time></trkpt><trkpt lat="38.990703701116544" lon="9.011680746191026"><ele>0.0</ele><time>2026-04-01T09:40:09Z</time></trkpt><trkpt lat="38.990622838089436" lon="9.011640554156573"><ele>0.0</ele><time>2026-04-01T09:40:10Z</time></trkpt><trkpt lat="38.99053297317128" lon="9.01161298212252"><ele>-0.4</ele><time>2026-04-01T09:40:11Z</time></trkpt><trkpt lat="38.9904345727515" lon="9.011609501041123"><ele>-0.8</ele><time>2026-04-01T09:40:12Z</time></trkpt><trkpt lat="38.9903352229158" lon="9.01159295407822"><ele>-1.2000000000000002</ele><time>2026-04-01T09:40:13Z</time></trkpt><trkpt lat="38.990232421570035" lon="9.011568615791951"><ele>-1.6</ele><time>2026-04-01T09:40:14Z</time></trkpt><trkpt lat="38.990128029247415" lon="9.011555953917034"><ele>-2.0</ele><time>2026-04-01T09:40:15Z</time></trkpt><trkpt lat="38.99002258243093" lon="9.011562824819277"><ele>-1.6666666666666665</ele><time>2026-04-01T09:40:16Z</time></trkpt><trkpt lat="38.98992656592783" lon="9.011552977291672"><ele>-1.3333333333333333</ele><time>2026-04-01T09:40:17Z</time></trkpt><trkpt lat="38.9898360026111" lon="9.01152804699353"><ele>-1.0</ele><time>2026-04-01T09:40:18Z</time></trkpt><trkpt lat="38.98975143355642" lon="9.011552434981244"><ele>-0.6666666666666666</ele><time>2026-04-01T09:40:19Z</time></trkpt><trkpt lat="38.98967370384215" lon="9.011554863282608"><ele>-0.3333333333333333</ele><time>2026-04-01T09:40:20Z</time></trkpt><trkpt lat="38.9895949208917" lon="9.011575597223063"><ele>0.0</ele><time>2026-04-01T09:40:21Z</time></trkpt><trkpt lat="38.98951667964508" lon="9.011622181859517"><ele>0.16666666666666666</ele><time>2026-04-01T09:40:22Z</time></trkpt><trkpt lat="38.98944594145012" lon="9.011683536859506"><ele>0.3333333333333333</ele><time>2026-04-01T09:40:23Z</time></trkpt><trkpt lat="38.98938376747718" lon="9.011726711909397"><ele>0.5</ele><time>2026-04-01T09:40:24.001Z</time></trkpt><trkpt lat="38.98933765184307" lon="9.011798127103383"><ele>0.6666666666666666</ele><time>2026-04-01T09:40:25.001Z</time></trkpt><trkpt lat="38.989278877988134" lon="9.011844959352556"><ele>0.8333333333333333</ele><time>2026-04-01T09:40:26.001Z</time></trkpt><trkpt lat="38.9892281985715" lon="9.011898080406594"><ele>1.0</ele><time>2026-04-01T09:40:27.001Z</time></trkpt><trkpt lat="38.98913838894924" lon="9.011993556211985"><ele>1.0</ele><time>2026-04-01T09:40:29Z</time></trkpt><trkpt lat="38.98905297727654" lon="9.012088520194922"><ele>1.0</ele><time>2026-04-01T09:40:31Z</time></trkpt><trkpt lat="38.988963611513654" lon="9.012174243609321"><ele>1.0</ele><time>2026-04-01T09:40:33Z</time></trkpt><trkpt lat="38.98888275110679" lon="9.012258422418524"><ele>1.0</ele><time>2026-04-01T09:40:35Z</time></trkpt><trkpt lat="38.98881490590854" lon="9.012317037752364"><ele>1.0</ele><time>2026-04-01T09:40:37Z</time></trkpt><trkpt lat="38.98876572098814" lon="9.012370878101056"><ele>0.9999999999999999</ele><time>2026-04-01T09:40:40Z</time></trkpt><trkpt lat="38.988740402764435" lon="9.012446318156838"><ele>1.0</ele><time>2026-04-01T09:40:45Z</time></trkpt><trkpt lat="38.988723810102535" lon="9.012560033374347"><ele>1.0</ele><time>2026-04-01T09:41:17Z</time></trkpt><trkpt lat="38.98865858435861" lon="9.012470852288924"><ele>1.0</ele><time>2026-04-01T09:41:27Z</time></trkpt><trkpt lat="38.98869802156354" lon="9.01260338097391"><ele>0.9999999999999999</ele><time>2026-04-01T09:43:04.001Z</time></trkpt><trkpt lat="38.98865339851705" lon="9.012670038210194"><ele>1.0</ele><time>2026-04-01T10:08:16Z</time></trkpt><trkpt lat="38.98868476128606" lon="9.012592700566529"><ele>1.0</ele><time>2026-04-01T10:11:39Z</time></trkpt><trkpt lat="38.98870689003376" lon="9.012674915911507"><ele>1.0</ele><time>2026-04-01T10:15:10.999Z</time></trkpt></trkseg><trkseg><trkpt lat="39.09364094523236" lon="8.717565533633538"><ele>141.0</ele><time>2026-04-01T12:52:16Z</time></trkpt><trkpt lat="39.09367187851753" lon="8.71724331896534"><ele>141.0</ele><time>2026-04-01T12:52:18Z</time></trkpt><trkpt lat="39.09375891770146" lon="8.717456548266641"><ele>141.0</ele><time>2026-04-01T12:52:25Z</time></trkpt><trkpt lat="39.09377821917842" lon="8.717634057409887"><ele>141.0</ele><time>2026-04-01T12:55:26.571Z</time></trkpt><trkpt lat="39.09379103181015" lon="8.717530641639422"><ele>141.0</ele><time>2026-04-01T12:57:31Z</time></trkpt><trkpt lat="39.09382511007542" lon="8.71760316980343"><ele>141.0</ele><time>2026-04-01T12:58:04Z</time></trkpt><trkpt lat="39.0937461507714" lon="8.717580019398016"><ele>141.0</ele><time>2026-04-01T13:02:42Z</time></trkpt><trkpt lat="39.0937437619488" lon="8.71767614140886"><ele>141.0</ele><time>2026-04-01T13:03:00Z</time></trkpt><trkpt lat="39.0937627572932" lon="8.71776921675421"><ele>141.0</ele><time>2026-04-01T13:03:11Z</time></trkpt><trkpt lat="39.093742281210595" lon="8.717687120599347"><ele>141.0</ele><time>2026-04-01T13:04:10Z</time></trkpt><trkpt lat="39.09377058988274" lon="8.717600945367293"><ele>141.0</ele><time>2026-04-01T13:04:27Z</time></trkpt><trkpt lat="39.0938459009005" lon="8.717610481993693"><ele>141.0</ele><time>2026-04-01T13:04:37Z</time></trkpt><trkpt lat="39.09387389811697" lon="8.717531031180359"><ele>141.0</ele><time>2026-04-01T13:04:46Z</time></trkpt><trkpt lat="39.09386030961507" lon="8.717440706948194"><ele>141.0</ele><time>2026-04-01T13:04:59Z</time></trkpt><trkpt lat="39.09383547342761" lon="8.717359701069823"><ele>141.0</ele><time>2026-04-01T13:05:05Z</time></trkpt><trkpt lat="39.09381338044809" lon="8.717268677349827"><ele>141.0</ele><time>2026-04-01T13:11:21Z</time></trkpt><trkpt lat="39.093737027092466" lon="8.717235444282105"><ele>141.0</ele><time>2026-04-01T13:11:29Z</time></trkpt><trkpt lat="39.09366746234588" lon="8.717251849166006"><ele>141.0</ele><time>2026-04-01T13:11:31Z</time></trkpt><trkpt lat="39.093591358364414" lon="8.717302706612807"><ele>141.0</ele><time>2026-04-01T13:11:34Z</time></trkpt><trkpt lat="39.093533027960234" lon="8.717334120873968"><ele>141.0</ele><time>2026-04-01T13:11:36Z</time></trkpt><trkpt lat="39.093459022918914" lon="8.7173237192958"><ele>141.0</ele><time>2026-04-01T13:15:34.999Z</time></trkpt><trkpt lat="39.09338176273055" lon="8.717343952659208"><ele>141.0</ele><time>2026-04-01T13:15:44.999Z</time></trkpt><trkpt lat="39.093323514649384" lon="8.717267932872952"><ele>141.0</ele><time>2026-04-01T13:15:47.999Z</time></trkpt><trkpt lat="39.093321323200065" lon="8.717172418222576"><ele>141.0</ele><time>2026-04-01T13:15:49.999Z</time></trkpt><trkpt lat="39.09331207646265" lon="8.717068381900702"><ele>141.0</ele><time>2026-04-01T13:15:51.999Z</time></trkpt><trkpt lat="39.09329952840138" lon="8.716964772124795"><ele>141.0</ele><time>2026-04-01T13:15:53.999Z</time></trkpt><trkpt lat="39.09328471014649" lon="8.716877404134369"><ele>141.0</ele><time>2026-04-01T13:15:55.999Z</time></trkpt><trkpt lat="39.093271225471895" lon="8.71678230775795"><ele>141.0</ele><time>2026-04-01T13:15:57.999Z</time></trkpt><trkpt lat="39.093262938542225" lon="8.716696526565352"><ele>141.0</ele><time>2026-04-01T13:15:59.999Z</time></trkpt><trkpt lat="39.09332178257642" lon="8.716594875870426"><ele>139.66666666666666</ele><time>2026-04-01T13:16:02.999Z</time></trkpt><trkpt lat="39.09338855928481" lon="8.716576623559488"><ele>138.33333333333334</ele><time>2026-04-01T13:16:04.999Z</time></trkpt><trkpt lat="39.09346332961446" lon="8.71656222985546"><ele>137.0</ele><time>2026-04-01T13:16:08.999Z</time></trkpt><trkpt lat="39.09353794585646" lon="8.716535722445888"><ele>135.66666666666669</ele><time>2026-04-01T13:16:11.999Z</time></trkpt><trkpt lat="39.093610880928104" lon="8.716501720166992"><ele>134.33333333333334</ele><time>2026-04-01T13:16:14.999Z</time></trkpt><trkpt lat="39.09369586412507" lon="8.716466615293593"><ele>133.0</ele><time>2026-04-01T13:16:17.999Z</time></trkpt><trkpt lat="39.093749560285296" lon="8.716422648066214"><ele>133.0</ele><time>2026-04-01T13:16:19.999Z</time></trkpt><trkpt lat="39.09381950210868" lon="8.71640153114892"><ele>133.0</ele><time>2026-04-01T13:16:21.999Z</time></trkpt><trkpt lat="39.09389543388819" lon="8.716386262273367"><ele>133.0</ele><time>2026-04-01T13:16:23.999Z</time></trkpt><trkpt lat="39.093975822460266" lon="8.716378196566605"><ele>133.0</ele><time>2026-04-01T13:16:25.999Z</time></trkpt><trkpt lat="39.09407590717195" lon="8.716353566771986"><ele>133.0</ele><time>2026-04-01T13:16:27.999Z</time></trkpt><trkpt lat="39.09415076270375" lon="8.716344040527277"><ele>133.0</ele><time>2026-04-01T13:16:29.999Z</time></trkpt><trkpt lat="39.09421779943498" lon="8.71633788823261"><ele>133.6</ele><time>2026-04-01T13:16:31.999Z</time></trkpt><trkpt lat="39.094313977775336" lon="8.716318110751395"><ele>134.20000000000002</ele><time>2026-04-01T13:16:34Z</time></trkpt><trkpt lat="39.09440022534473" lon="8.716251476068098"><ele>134.8</ele><time>2026-04-01T13:16:36Z</time></trkpt><trkpt lat="39.09450050823732" lon="8.716203573052441"><ele>135.4</ele><time>2026-04-01T13:16:38Z</time></trkpt><trkpt lat="39.094611189467145" lon="8.716181415455415"><ele>136.0</ele><time>2026-04-01T13:16:40Z</time></trkpt><trkpt lat="39.09472067420415" lon="8.716194319062804"><ele>136.0</ele><time>2026-04-01T13:16:42Z</time></trkpt><trkpt lat="39.094844305232144" lon="8.716227573843238"><ele>136.0</ele><time>2026-04-01T13:16:44Z</time></trkpt><trkpt lat="39.0949150716768" lon="8.716269547054068"><ele>136.0</ele><time>2026-04-01T13:16:45Z</time></trkpt><trkpt lat="39.09498216245957" lon="8.716320840098703"><ele>136.0</ele><time>2026-04-01T13:16:46Z</time></trkpt><trkpt lat="39.0950453495897" lon="8.716380559099886"><ele>136.0</ele><time>2026-04-01T13:16:47Z</time></trkpt><trkpt lat="39.09510741875416" lon="8.716442072392969"><ele>136.0</ele><time>2026-04-01T13:16:48Z</time></trkpt><trkpt lat="39.095164264461665" lon="8.716500436112291"><ele>134.99999999999997</ele><time>2026-04-01T13:16:49Z</time></trkpt><trkpt lat="39.09522048912589" lon="8.716554390917908"><ele>134.0</ele><time>2026-04-01T13:16:50Z</time></trkpt><trkpt lat="39.09528351922482" lon="8.716604167330946"><ele>133.0</ele><time>2026-04-01T13:16:51Z</time></trkpt><trkpt lat="39.09533947271233" lon="8.716659077428373"><ele>132.0</ele><time>2026-04-01T13:16:52Z</time></trkpt><trkpt lat="39.09539337715352" lon="8.716720799366765"><ele>131.0</ele><time>2026-04-01T13:16:53Z</time></trkpt><trkpt lat="39.095447363941204" lon="8.71678186533412"><ele>129.99999999999997</ele><time>2026-04-01T13:16:54Z</time></trkpt><trkpt lat="39.09550548716079" lon="8.716840679405442"><ele>129.0</ele><time>2026-04-01T13:16:55Z</time></trkpt><trkpt lat="39.09555865979091" lon="8.716895709572015"><ele>129.6</ele><time>2026-04-01T13:16:55.998Z</time></trkpt><trkpt lat="39.09562436811852" lon="8.716968203987165"><ele>130.2</ele><time>2026-04-01T13:16:57.998Z</time></trkpt><trkpt lat="39.09568642114099" lon="8.717044781938238"><ele>130.79999999999998</ele><time>2026-04-01T13:16:59.998Z</time></trkpt><trkpt lat="39.095747985494825" lon="8.717128741551276"><ele>131.4</ele><time>2026-04-01T13:17:01.999Z</time></trkpt><trkpt lat="39.09583873648282" lon="8.717231013059447"><ele>132.0</ele><time>2026-04-01T13:17:03.999Z</time></trkpt><trkpt lat="39.09590477118829" lon="8.717293638078594"><ele>131.25</ele><time>2026-04-01T13:17:04.999Z</time></trkpt><trkpt lat="39.09598590127499" lon="8.717379444205765"><ele>130.5</ele><time>2026-04-01T13:17:05.999Z</time></trkpt><trkpt lat="39.09609204624123" lon="8.71749769761163"><ele>129.75</ele><time>2026-04-01T13:17:06.999Z</time></trkpt><trkpt lat="39.096212878698005" lon="8.71765433991279"><ele>129.0</ele><time>2026-04-01T13:17:07.999Z</time></trkpt><trkpt lat="39.096345712531345" lon="8.717836956058841"><ele>129.0</ele><time>2026-04-01T13:17:08.999Z</time></trkpt><trkpt lat="39.09648224013528" lon="8.718037247634644"><ele>129.0</ele><time>2026-04-01T13:17:09.999Z</time></trkpt><trkpt lat="39.09662426256417" lon="8.718258767259904"><ele>129.0</ele><time>2026-04-01T13:17:10.999Z</time></trkpt><trkpt lat="39.09674829858359" lon="8.718456268336851"><ele>128.5</ele><time>2026-04-01T13:17:11.999Z</time></trkpt><trkpt lat="39.09685804829469" lon="8.718628571728795"><ele>128.0</ele><time>2026-04-01T13:17:12.999Z</time></trkpt><trkpt lat="39.096964186473336" lon="8.718783192166907"><ele>127.5</ele><time>2026-04-01T13:17:13.999Z</time></trkpt><trkpt lat="39.097037360172585" lon="8.71888394490378"><ele>127.0</ele><time>2026-04-01T13:17:14.999Z</time></trkpt><trkpt lat="39.09708702339781" lon="8.71893596380615"><ele>127.0</ele><time>2026-04-01T13:17:16.999Z</time></trkpt><trkpt lat="39.09714722444025" lon="8.718989840085145"><ele>126.99999999999999</ele><time>2026-04-01T13:17:19.999Z</time></trkpt><trkpt lat="39.09720679520284" lon="8.719097729383218"><ele>126.99999999999999</ele><time>2026-04-01T13:18:03Z</time></trkpt><trkpt lat="39.09728352850419" lon="8.719186558085854"><ele>127.0</ele><time>2026-04-01T13:18:05Z</time></trkpt><trkpt lat="39.097375505258256" lon="8.719311977314238"><ele>127.0</ele><time>2026-04-01T13:18:07Z</time></trkpt><trkpt lat="39.09741771242014" lon="8.719399479356548"><ele>125.39999999999999</ele><time>2026-04-01T13:18:08Z</time></trkpt><trkpt lat="39.097443107350436" lon="8.719510388613118"><ele>123.79999999999998</ele><time>2026-04-01T13:18:09Z</time></trkpt><trkpt lat="39.09745336057166" lon="8.719648868528001"><ele>122.2</ele><time>2026-04-01T13:18:10Z</time></trkpt><trkpt lat="39.09745857278067" lon="8.719795742012009"><ele>120.6</ele><time>2026-04-01T13:18:11Z</time></trkpt><trkpt lat="39.097470969851805" lon="8.719927377961644"><ele>119.0</ele><time>2026-04-01T13:18:12Z</time></trkpt><trkpt lat="39.09750550466644" lon="8.720049794680762"><ele>119.0</ele><time>2026-04-01T13:18:13Z</time></trkpt><trkpt lat="39.09755997597833" lon="8.720173162090797"><ele>119.0</ele><time>2026-04-01T13:18:14Z</time></trkpt><trkpt lat="39.097633195257266" lon="8.720309067164054"><ele>119.0</ele><time>2026-04-01T13:18:15Z</time></trkpt><trkpt lat="39.09772691899112" lon="8.720458576509845"><ele>119.0</ele><time>2026-04-01T13:18:16Z</time></trkpt><trkpt lat="39.09783000167012" lon="8.720591572299623"><ele>120.0</ele><time>2026-04-01T13:18:17Z</time></trkpt><trkpt lat="39.09793047927222" lon="8.72069891350086"><ele>121.0</ele><time>2026-04-01T13:18:18Z</time></trkpt><trkpt lat="39.09801632270754" lon="8.720799558933098"><ele>122.0</ele><time>2026-04-01T13:18:19Z</time></trkpt><trkpt lat="39.09804015835806" lon="8.720931683764734"><ele>123.0</ele><time>2026-04-01T13:18:20Z</time></trkpt><trkpt lat="39.09805654368091" lon="8.721051823873616"><ele>124.0</ele><time>2026-04-01T13:18:21Z</time></trkpt><trkpt lat="39.098067746722904" lon="8.721201666687097"><ele>124.75</ele><time>2026-04-01T13:18:22Z</time></trkpt><trkpt lat="39.098102347726524" lon="8.72135898315457"><ele>125.5</ele><time>2026-04-01T13:18:23Z</time></trkpt><trkpt lat="39.09814219678985" lon="8.721531894156064"><ele>126.25</ele><time>2026-04-01T13:18:24Z</time></trkpt><trkpt lat="39.098178502001716" lon="8.72172149981416"><ele>127.0</ele><time>2026-04-01T13:18:25Z</time></trkpt><trkpt lat="39.09821909726164" lon="8.721919361233788"><ele>126.75</ele><time>2026-04-01T13:18:26Z</time></trkpt><trkpt lat="39.09826570253182" lon="8.722115749867333"><ele>126.5</ele><time>2026-04-01T13:18:27Z</time></trkpt><trkpt lat="39.09831806385514" lon="8.722297676606486"><ele>126.25</ele><time>2026-04-01T13:18:28Z</time></trkpt><trkpt lat="39.09839155471743" lon="8.722440671575567"><ele>126.0</ele><time>2026-04-01T13:18:29Z</time></trkpt><trkpt lat="39.098481165066374" lon="8.722574414146901"><ele>126.0</ele><time>2026-04-01T13:18:30Z</time></trkpt><trkpt lat="39.09858538690058" lon="8.722705909822484"><ele>126.0</ele><time>2026-04-01T13:18:31.001Z</time></trkpt><trkpt lat="39.09869588920236" lon="8.722832075174589"><ele>126.0</ele><time>2026-04-01T13:18:32.001Z</time></trkpt><trkpt lat="39.09882784754091" lon="8.722891151745104"><ele>126.0</ele><time>2026-04-01T13:18:33.001Z</time></trkpt><trkpt lat="39.09881729151997" lon="8.72317377273482"><ele>126.0</ele><time>2026-04-01T13:18:34.001Z</time></trkpt><trkpt lat="39.098874111881265" lon="8.723342047373526"><ele>126.0</ele><time>2026-04-01T13:18:35.001Z</time></trkpt><trkpt lat="39.098924046964214" lon="8.723528965978876"><ele>126.0</ele><time>2026-04-01T13:18:36.001Z</time></trkpt><trkpt lat="39.09897833871614" lon="8.723709979509723"><ele>126.0</ele><time>2026-04-01T13:18:37.001Z</time></trkpt><trkpt lat="39.09904299593919" lon="8.723888609627874"><ele>126.25</ele><time>2026-04-01T13:18:38.001Z</time></trkpt><trkpt lat="39.09911219851978" lon="8.72405659897741"><ele>126.5</ele><time>2026-04-01T13:18:39.001Z</time></trkpt><trkpt lat="39.099175740442156" lon="8.724216751894442"><ele>126.75</ele><time>2026-04-01T13:18:40.001Z</time></trkpt><trkpt lat="39.099231770237225" lon="8.724367631817152"><ele>127.0</ele><time>2026-04-01T13:18:41.001Z</time></trkpt><trkpt lat="39.09929288293813" lon="8.724521105493926"><ele>127.0</ele><time>2026-04-01T13:18:42.001Z</time></trkpt><trkpt lat="39.09935250090563" lon="8.724675252142873"><ele>127.0</ele><time>2026-04-01T13:18:43.001Z</time></trkpt><trkpt lat="39.09941407751872" lon="8.724834027081993"><ele>127.0</ele><time>2026-04-01T13:18:44.001Z</time></trkpt><trkpt lat="39.09947114636736" lon="8.724994328900852"><ele>127.0</ele><time>2026-04-01T13:18:45.001Z</time></trkpt><trkpt lat="39.099528361319734" lon="8.725153388922925"><ele>127.75</ele><time>2026-04-01T13:18:46.001Z</time></trkpt><trkpt lat="39.09958899331803" lon="8.725311750098264"><ele>128.5</ele><time>2026-04-01T13:18:47.001Z</time></trkpt><trkpt lat="39.09965334300757" lon="8.72547484203943"><ele>129.25</ele><time>2026-04-01T13:18:48.001Z</time></trkpt><trkpt lat="39.099732844807136" lon="8.725652938194566"><ele>130.0</ele><time>2026-04-01T13:18:49.001Z</time></trkpt><trkpt lat="39.09981398566203" lon="8.72581800807154"><ele>130.0</ele><time>2026-04-01T13:18:50.001Z</time></trkpt><trkpt lat="39.09988672091027" lon="8.72596613442087"><ele>130.0</ele><time>2026-04-01T13:18:51.001Z</time></trkpt><trkpt lat="39.09995288121109" lon="8.726114113296717"><ele>130.0</ele><time>2026-04-01T13:18:52.001Z</time></trkpt><trkpt lat="39.10001370346582" lon="8.726263072541434"><ele>130.0</ele><time>2026-04-01T13:18:53.001Z</time></trkpt><trkpt lat="39.10006918289423" lon="8.726430140360678"><ele>130.25</ele><time>2026-04-01T13:18:54.001Z</time></trkpt><trkpt lat="39.100105458399064" lon="8.726608343089739"><ele>130.5</ele><time>2026-04-01T13:18:55.001Z</time></trkpt><trkpt lat="39.100112385783504" lon="8.726795519963192"><ele>130.75</ele><time>2026-04-01T13:18:56.001Z</time></trkpt><trkpt lat="39.100097823385624" lon="8.726969235626884"><ele>131.0</ele><time>2026-04-01T13:18:57.001Z</time></trkpt><trkpt lat="39.100085094864546" lon="8.72711280737567"><ele>131.25</ele><time>2026-04-01T13:18:58.001Z</time></trkpt><trkpt lat="39.09995254978401" lon="8.72725450562882"><ele>131.5</ele><time>2026-04-01T13:18:59.001Z</time></trkpt><trkpt lat="39.099887620454425" lon="8.727412896341637"><ele>131.75</ele><time>2026-04-01T13:19:00.001Z</time></trkpt><trkpt lat="39.09980238388282" lon="8.72753365515363"><ele>132.0</ele><time>2026-04-01T13:19:01.001Z</time></trkpt><trkpt lat="39.09973175260953" lon="8.7276499754202"><ele>132.4</ele><time>2026-04-01T13:19:01.999Z</time></trkpt><trkpt lat="39.09966383027213" lon="8.72775775843725"><ele>132.79999999999998</ele><time>2026-04-01T13:19:02.999Z</time></trkpt><trkpt lat="39.09958950703755" lon="8.727843068914694"><ele>133.2</ele><time>2026-04-01T13:19:03.999Z</time></trkpt><trkpt lat="39.09950805586534" lon="8.727919907223567"><ele>133.6</ele><time>2026-04-01T13:19:04.999Z</time></trkpt><trkpt lat="39.099416035865204" lon="8.727993220426166"><ele>134.0</ele><time>2026-04-01T13:19:05.999Z</time></trkpt><trkpt lat="39.09931619551596" lon="8.728069381758761"><ele>134.0</ele><time>2026-04-01T13:19:06.999Z</time></trkpt><trkpt lat="39.09920892173156" lon="8.728143070905883"><ele>134.0</ele><time>2026-04-01T13:19:07.999Z</time></trkpt><trkpt lat="39.09909518144803" lon="8.728216895779859"><ele>134.0</ele><time>2026-04-01T13:19:08.999Z</time></trkpt><trkpt lat="39.098980273557" lon="8.728301656900898"><ele>134.0</ele><time>2026-04-01T13:19:09.999Z</time></trkpt><trkpt lat="39.09886138031152" lon="8.728388343680539"><ele>134.75</ele><time>2026-04-01T13:19:10.999Z</time></trkpt><trkpt lat="39.098780856464984" lon="8.728530779750184"><ele>135.5</ele><time>2026-04-01T13:19:11.999Z</time></trkpt><trkpt lat="39.09869760363733" lon="8.728653274198624"><ele>136.25</ele><time>2026-04-01T13:19:12.999Z</time></trkpt><trkpt lat="39.098623484191585" lon="8.728756754387696"><ele>137.0</ele><time>2026-04-01T13:19:13.999Z</time></trkpt><trkpt lat="39.098524314054266" lon="8.728740955788346"><ele>137.0</ele><time>2026-04-01T13:19:14.999Z</time></trkpt><trkpt lat="39.098415562513296" lon="8.728740564314059"><ele>137.0</ele><time>2026-04-01T13:19:15.999Z</time></trkpt><trkpt lat="39.09829238333468" lon="8.728735872459653"><ele>137.0</ele><time>2026-04-01T13:19:16.999Z</time></trkpt><trkpt lat="39.098171481533726" lon="8.72872951370465"><ele>137.0</ele><time>2026-04-01T13:19:17.999Z</time></trkpt><trkpt lat="39.09804198758724" lon="8.728728463427132"><ele>138.25</ele><time>2026-04-01T13:19:18.999Z</time></trkpt><trkpt lat="39.097909284238405" lon="8.728709471751758"><ele>139.5</ele><time>2026-04-01T13:19:19.999Z</time></trkpt><trkpt lat="39.097782473033945" lon="8.728662857532711"><ele>140.75</ele><time>2026-04-01T13:19:20.999Z</time></trkpt><trkpt lat="39.09765246706023" lon="8.728655444520706"><ele>142.0</ele><time>2026-04-01T13:19:21.999Z</time></trkpt><trkpt lat="39.09752386873317" lon="8.728648602895769"><ele>142.75</ele><time>2026-04-01T13:19:22.999Z</time></trkpt><trkpt lat="39.09739514841784" lon="8.728661073797632"><ele>143.5</ele><time>2026-04-01T13:19:23.999Z</time></trkpt><trkpt lat="39.09726703596544" lon="8.728690451691989"><ele>144.25</ele><time>2026-04-01T13:19:24.999Z</time></trkpt><trkpt lat="39.09714063830702" lon="8.728727602004808"><ele>145.0</ele><time>2026-04-01T13:19:25.999Z</time></trkpt><trkpt lat="39.09702864797495" lon="8.728763855539933"><ele>145.0</ele><time>2026-04-01T13:19:26.999Z</time></trkpt><trkpt lat="39.09692414348728" lon="8.728803030879858"><ele>145.0</ele><time>2026-04-01T13:19:27.999Z</time></trkpt><trkpt lat="39.096821565175794" lon="8.728852286768154"><ele>145.0</ele><time>2026-04-01T13:19:29Z</time></trkpt><trkpt lat="39.0967203728771" lon="8.728919303354724"><ele>145.0</ele><time>2026-04-01T13:19:30Z</time></trkpt><trkpt lat="39.09662266100816" lon="8.728997364349498"><ele>145.0</ele><time>2026-04-01T13:19:31Z</time></trkpt><trkpt lat="39.096520612682625" lon="8.729070280170541"><ele>147.0</ele><time>2026-04-01T13:19:32Z</time></trkpt><trkpt lat="39.09641497994447" lon="8.729132886236847"><ele>149.0</ele><time>2026-04-01T13:19:33Z</time></trkpt><trkpt lat="39.09630530048158" lon="8.729190879411789"><ele>151.0</ele><time>2026-04-01T13:19:34Z</time></trkpt><trkpt lat="39.09619412764956" lon="8.729249298475526"><ele>153.0</ele><time>2026-04-01T13:19:35Z</time></trkpt><trkpt lat="39.09608007618158" lon="8.72930202605306"><ele>153.0</ele><time>2026-04-01T13:19:36Z</time></trkpt><trkpt lat="39.09596646058261" lon="8.729358919290592"><ele>153.0</ele><time>2026-04-01T13:19:37Z</time></trkpt><trkpt lat="39.09585414104355" lon="8.729429144210359"><ele>153.0</ele><time>2026-04-01T13:19:38Z</time></trkpt><trkpt lat="39.09573723048933" lon="8.72949452249067"><ele>153.0</ele><time>2026-04-01T13:19:39Z</time></trkpt><trkpt lat="39.095620483977484" lon="8.729560637969444"><ele>155.0</ele><time>2026-04-01T13:19:40Z</time></trkpt><trkpt lat="39.09549303168099" lon="8.729612106210869"><ele>157.0</ele><time>2026-04-01T13:19:41Z</time></trkpt><trkpt lat="39.09535676262074" lon="8.729663365820874"><ele>159.0</ele><time>2026-04-01T13:19:42Z</time></trkpt><trkpt lat="39.0952249312106" lon="8.729704549246417"><ele>161.0</ele><time>2026-04-01T13:19:43Z</time></trkpt><trkpt lat="39.09510142608919" lon="8.729735094405967"><ele>161.0</ele><time>2026-04-01T13:19:44Z</time></trkpt><trkpt lat="39.094987018229936" lon="8.729795388450999"><ele>161.0</ele><time>2026-04-01T13:19:45Z</time></trkpt><trkpt lat="39.09487981753149" lon="8.729862297762194"><ele>161.0</ele><time>2026-04-01T13:19:46Z</time></trkpt><trkpt lat="39.09478331042697" lon="8.729928964819594"><ele>161.0</ele><time>2026-04-01T13:19:47Z</time></trkpt><trkpt lat="39.09469099789534" lon="8.729972162924486"><ele>161.8</ele><time>2026-04-01T13:19:48Z</time></trkpt><trkpt lat="39.09459647855404" lon="8.729998412226669"><ele>162.60000000000002</ele><time>2026-04-01T13:19:49Z</time></trkpt><trkpt lat="39.09449132234994" lon="8.730023878576967"><ele>163.4</ele><time>2026-04-01T13:19:50Z</time></trkpt><trkpt lat="39.094391881421295" lon="8.73006110564049"><ele>164.2</ele><time>2026-04-01T13:19:51Z</time></trkpt><trkpt lat="39.094328988041866" lon="8.73013541661712"><ele>165.0</ele><time>2026-04-01T13:19:52Z</time></trkpt><trkpt lat="39.09429703387612" lon="8.73023853247539"><ele>165.2</ele><time>2026-04-01T13:19:53Z</time></trkpt><trkpt lat="39.09428839193751" lon="8.730361194811268"><ele>165.4</ele><time>2026-04-01T13:19:54Z</time></trkpt><trkpt lat="39.09429106059959" lon="8.730499966549264"><ele>165.60000000000002</ele><time>2026-04-01T13:19:55Z</time></trkpt><trkpt lat="39.0942997969894" lon="8.730640058123742"><ele>165.8</ele><time>2026-04-01T13:19:56Z</time></trkpt><trkpt lat="39.09432936082554" lon="8.730777656093045"><ele>166.0</ele><time>2026-04-01T13:19:57Z</time></trkpt><trkpt lat="39.09437446710003" lon="8.73092325626673"><ele>164.75</ele><time>2026-04-01T13:19:58Z</time></trkpt><trkpt lat="39.09441567053795" lon="8.731079963280711"><ele>163.5</ele><time>2026-04-01T13:19:59Z</time></trkpt><trkpt lat="39.09443483005565" lon="8.731237649700407"><ele>162.25</ele><time>2026-04-01T13:20:00Z</time></trkpt><trkpt lat="39.09441944786916" lon="8.731394886015945"><ele>161.0</ele><time>2026-04-01T13:20:01Z</time></trkpt><trkpt lat="39.09438264412679" lon="8.731565910565532"><ele>161.0</ele><time>2026-04-01T13:20:02Z</time></trkpt><trkpt lat="39.09434642291852" lon="8.731756974500295"><ele>161.0</ele><time>2026-04-01T13:20:03Z</time></trkpt><trkpt lat="39.09432246596975" lon="8.731976373882002"><ele>161.0</ele><time>2026-04-01T13:20:04Z</time></trkpt><trkpt lat="39.094307764186425" lon="8.732190126480567"><ele>160.25</ele><time>2026-04-01T13:20:05Z</time></trkpt><trkpt lat="39.09429495170499" lon="8.732393542284072"><ele>159.5</ele><time>2026-04-01T13:20:06Z</time></trkpt><trkpt lat="39.0942776502241" lon="8.732582855362061"><ele>158.75</ele><time>2026-04-01T13:20:07Z</time></trkpt><trkpt lat="39.09425458390043" lon="8.732764539254818"><ele>158.0</ele><time>2026-04-01T13:20:08Z</time></trkpt><trkpt lat="39.09422023825359" lon="8.732939504185968"><ele>158.5</ele><time>2026-04-01T13:20:09Z</time></trkpt><trkpt lat="39.09417826970796" lon="8.73310817716917"><ele>159.0</ele><time>2026-04-01T13:20:10Z</time></trkpt><trkpt lat="39.09413549913088" lon="8.733271504047059"><ele>159.5</ele><time>2026-04-01T13:20:11Z</time></trkpt><trkpt lat="39.09409423827311" lon="8.733435438469362"><ele>160.0</ele><time>2026-04-01T13:20:12Z</time></trkpt><trkpt lat="39.094051751216256" lon="8.733604875331805"><ele>160.0</ele><time>2026-04-01T13:20:13Z</time></trkpt><trkpt lat="39.0940066009627" lon="8.733780945377188"><ele>160.0</ele><time>2026-04-01T13:20:14.001Z</time></trkpt><trkpt lat="39.09396426024366" lon="8.733967095124553"><ele>160.0</ele><time>2026-04-01T13:20:15.001Z</time></trkpt><trkpt lat="39.0939111143879" lon="8.73414684015808"><ele>160.0</ele><time>2026-04-01T13:20:16.001Z</time></trkpt><trkpt lat="39.093851843203474" lon="8.734335151015832"><ele>156.66666666666669</ele><time>2026-04-01T13:20:17.001Z</time></trkpt><trkpt lat="39.09378362379611" lon="8.734520035887474"><ele>153.33333333333334</ele><time>2026-04-01T13:20:18.001Z</time></trkpt><trkpt lat="39.09369987858919" lon="8.734700895982185"><ele>150.0</ele><time>2026-04-01T13:20:19.001Z</time></trkpt><trkpt lat="39.0936046460192" lon="8.734876929839196"><ele>150.0</ele><time>2026-04-01T13:20:20.001Z</time></trkpt><trkpt lat="39.09349785578777" lon="8.735046856020666"><ele>150.0</ele><time>2026-04-01T13:20:21.001Z</time></trkpt><trkpt lat="39.09338554978246" lon="8.735211437423096"><ele>150.0</ele><time>2026-04-01T13:20:22.001Z</time></trkpt><trkpt lat="39.093273333880056" lon="8.735359401912016"><ele>148.0</ele><time>2026-04-01T13:20:23.001Z</time></trkpt><trkpt lat="39.09316545082036" lon="8.735487626489498"><ele>146.0</ele><time>2026-04-01T13:20:24.001Z</time></trkpt><trkpt lat="39.093055327471724" lon="8.735592799958086"><ele>144.0</ele><time>2026-04-01T13:20:25.001Z</time></trkpt><trkpt lat="39.092962623083324" lon="8.735688870277617"><ele>142.0</ele><time>2026-04-01T13:20:26.001Z</time></trkpt><trkpt lat="39.09286847851015" lon="8.735774150213857"><ele>142.0</ele><time>2026-04-01T13:20:27.001Z</time></trkpt><trkpt lat="39.092788040575186" lon="8.735864782549257"><ele>142.0</ele><time>2026-04-01T13:20:28.001Z</time></trkpt><trkpt lat="39.09269599683252" lon="8.735956782121052"><ele>142.0</ele><time>2026-04-01T13:20:29.001Z</time></trkpt><trkpt lat="39.092593236588705" lon="8.73605229305237"><ele>142.0</ele><time>2026-04-01T13:20:30.001Z</time></trkpt><trkpt lat="39.09248113600479" lon="8.736143563098944"><ele>139.33333333333334</ele><time>2026-04-01T13:20:31.001Z</time></trkpt><trkpt lat="39.09235120917154" lon="8.736223242285577"><ele>136.66666666666666</ele><time>2026-04-01T13:20:32.001Z</time></trkpt><trkpt lat="39.09220017202304" lon="8.73625579046563"><ele>134.0</ele><time>2026-04-01T13:20:33.001Z</time></trkpt><trkpt lat="39.092045989743504" lon="8.736294451356963"><ele>134.0</ele><time>2026-04-01T13:20:34.001Z</time></trkpt><trkpt lat="39.09189776390185" lon="8.736313436261495"><ele>134.0</ele><time>2026-04-01T13:20:35.001Z</time></trkpt><trkpt lat="39.091751810723025" lon="8.736323821899699"><ele>134.0</ele><time>2026-04-01T13:20:36.001Z</time></trkpt><trkpt lat="39.091610423608905" lon="8.736343661890311"><ele>134.0</ele><time>2026-04-01T13:20:37.001Z</time></trkpt><trkpt lat="39.09147548887207" lon="8.736382817988211"><ele>133.0</ele><time>2026-04-01T13:20:38.001Z</time></trkpt><trkpt lat="39.09135378704234" lon="8.736439945276315"><ele>132.0</ele><time>2026-04-01T13:20:39.001Z</time></trkpt><trkpt lat="39.09123408494851" lon="8.736482167871964"><ele>131.0</ele><time>2026-04-01T13:20:40.001Z</time></trkpt><trkpt lat="39.09111711251621" lon="8.736494793910044"><ele>130.0</ele><time>2026-04-01T13:20:41.001Z</time></trkpt><trkpt lat="39.09101424348669" lon="8.736514929975382"><ele>130.0</ele><time>2026-04-01T13:20:42.001Z</time></trkpt><trkpt lat="39.09092819716759" lon="8.73653839460513"><ele>130.0</ele><time>2026-04-01T13:20:43.001Z</time></trkpt><trkpt lat="39.090853812731744" lon="8.73655021556486"><ele>130.0</ele><time>2026-04-01T13:20:44.001Z</time></trkpt><trkpt lat="39.09076579616412" lon="8.736589002001706"><ele>130.0</ele><time>2026-04-01T13:20:46.001Z</time></trkpt><trkpt lat="39.0907546124428" lon="8.736776856751417"><ele>130.0</ele><time>2026-04-01T13:20:49.001Z</time></trkpt><trkpt lat="39.090762907236126" lon="8.736874686081514"><ele>130.2</ele><time>2026-04-01T13:20:50.001Z</time></trkpt><trkpt lat="39.0907668919799" lon="8.736988635802481"><ele>130.4</ele><time>2026-04-01T13:20:51.001Z</time></trkpt><trkpt lat="39.0907787483976" lon="8.737120759417675"><ele>130.6</ele><time>2026-04-01T13:20:52.001Z</time></trkpt><trkpt lat="39.090790806680886" lon="8.73725775834865"><ele>130.8</ele><time>2026-04-01T13:20:53.001Z</time></trkpt><trkpt lat="39.09080081411645" lon="8.737404567140102"><ele>131.0</ele><time>2026-04-01T13:20:54.001Z</time></trkpt><trkpt lat="39.090813445208035" lon="8.737589621104082"><ele>131.0</ele><time>2026-04-01T13:20:55.001Z</time></trkpt><trkpt lat="39.0908316587838" lon="8.737728882313714"><ele>131.0</ele><time>2026-04-01T13:20:56.001Z</time></trkpt><trkpt lat="39.09084678331865" lon="8.737900920491773"><ele>131.0</ele><time>2026-04-01T13:20:57.001Z</time></trkpt><trkpt lat="39.090862230110886" lon="8.73806734970251"><ele>131.0</ele><time>2026-04-01T13:20:58.001Z</time></trkpt><trkpt lat="39.09087548576115" lon="8.738231681843548"><ele>131.0</ele><time>2026-04-01T13:20:59.001Z</time></trkpt><trkpt lat="39.09089297598539" lon="8.738399751633418"><ele>131.0</ele><time>2026-04-01T13:21:00.001Z</time></trkpt><trkpt lat="39.090906995032476" lon="8.738569042099485"><ele>131.0</ele><time>2026-04-01T13:21:01.001Z</time></trkpt><trkpt lat="39.090904805079234" lon="8.738737103393566"><ele>131.0</ele><time>2026-04-01T13:21:02.001Z</time></trkpt><trkpt lat="39.09088381037342" lon="8.738887799923079"><ele>131.25</ele><time>2026-04-01T13:21:03.001Z</time></trkpt><trkpt lat="39.09082518315803" lon="8.739025753826345"><ele>131.5</ele><time>2026-04-01T13:21:04.001Z</time></trkpt><trkpt lat="39.09076345042746" lon="8.739169413537823"><ele>131.75</ele><time>2026-04-01T13:21:05.001Z</time></trkpt><trkpt lat="39.09071565821646" lon="8.739329301110901"><ele>132.0</ele><time>2026-04-01T13:21:06.001Z</time></trkpt><trkpt lat="39.090674263158846" lon="8.739494971956564"><ele>131.25</ele><time>2026-04-01T13:21:07Z</time></trkpt><trkpt lat="39.09063879903849" lon="8.73966280044496"><ele>130.5</ele><time>2026-04-01T13:21:08Z</time></trkpt><trkpt lat="39.09058395223573" lon="8.739836580192797"><ele>129.75</ele><time>2026-04-01T13:21:09Z</time></trkpt><trkpt lat="39.09055584682755" lon="8.740013852332632"><ele>129.0</ele><time>2026-04-01T13:21:10Z</time></trkpt><trkpt lat="39.09051938296823" lon="8.740194464115797"><ele>129.25</ele><time>2026-04-01T13:21:11Z</time></trkpt><trkpt lat="39.09050016332047" lon="8.740380225008309"><ele>129.5</ele><time>2026-04-01T13:21:12Z</time></trkpt><trkpt lat="39.090483566427" lon="8.740571092360282"><ele>129.75</ele><time>2026-04-01T13:21:13Z</time></trkpt><trkpt lat="39.09047296922552" lon="8.74076201800535"><ele>130.0</ele><time>2026-04-01T13:21:14Z</time></trkpt><trkpt lat="39.09045633398889" lon="8.740957877500774"><ele>130.33333333333334</ele><time>2026-04-01T13:21:15Z</time></trkpt><trkpt lat="39.090434162639795" lon="8.741147071114671"><ele>130.66666666666666</ele><time>2026-04-01T13:21:16Z</time></trkpt><trkpt lat="39.09041470247354" lon="8.74134166659439"><ele>131.0</ele><time>2026-04-01T13:21:17Z</time></trkpt><trkpt lat="39.090397125424055" lon="8.741538260525717"><ele>131.0</ele><time>2026-04-01T13:21:18Z</time></trkpt><trkpt lat="39.090390116046066" lon="8.741733467429162"><ele>131.0</ele><time>2026-04-01T13:21:19Z</time></trkpt><trkpt lat="39.090396533412516" lon="8.741933956553163"><ele>131.0</ele><time>2026-04-01T13:21:20Z</time></trkpt><trkpt lat="39.09042430983692" lon="8.742125466443314"><ele>131.25</ele><time>2026-04-01T13:21:21Z</time></trkpt><trkpt lat="39.0904504701026" lon="8.742299230554906"><ele>131.5</ele><time>2026-04-01T13:21:22Z</time></trkpt><trkpt lat="39.090467572925924" lon="8.74246011066634"><ele>131.75</ele><time>2026-04-01T13:21:23Z</time></trkpt><trkpt lat="39.09047828153425" lon="8.742614126705915"><ele>132.0</ele><time>2026-04-01T13:21:24Z</time></trkpt><trkpt lat="39.09049127763635" lon="8.742767570215518"><ele>132.25</ele><time>2026-04-01T13:21:25Z</time></trkpt><trkpt lat="39.09048635809828" lon="8.742930685206735"><ele>132.5</ele><time>2026-04-01T13:21:26Z</time></trkpt><trkpt lat="39.09047188794841" lon="8.743102029835324"><ele>132.75</ele><time>2026-04-01T13:21:27Z</time></trkpt><trkpt lat="39.0904521779981" lon="8.743268525472871"><ele>133.0</ele><time>2026-04-01T13:21:28Z</time></trkpt><trkpt lat="39.09042943712836" lon="8.743422915752134"><ele>132.75</ele><time>2026-04-01T13:21:29Z</time></trkpt><trkpt lat="39.090415736040725" lon="8.74358528340671"><ele>132.5</ele><time>2026-04-01T13:21:30Z</time></trkpt><trkpt lat="39.09040392662153" lon="8.743755131196584"><ele>132.25</ele><time>2026-04-01T13:21:31Z</time></trkpt><trkpt lat="39.090391408911806" lon="8.743925643616882"><ele>132.0</ele><time>2026-04-01T13:21:32Z</time></trkpt><trkpt lat="39.090398273737776" lon="8.744101595166851"><ele>132.0</ele><time>2026-04-01T13:21:33Z</time></trkpt><trkpt lat="39.09045616408105" lon="8.744258250965393"><ele>132.0</ele><time>2026-04-01T13:21:34Z</time></trkpt><trkpt lat="39.090519328292906" lon="8.744423780982116"><ele>132.0</ele><time>2026-04-01T13:21:35Z</time></trkpt><trkpt lat="39.09061275940426" lon="8.74456394025791"><ele>132.0</ele><time>2026-04-01T13:21:36Z</time></trkpt><trkpt lat="39.0907189622782" lon="8.7446902585418"><ele>132.5</ele><time>2026-04-01T13:21:37Z</time></trkpt><trkpt lat="39.09081668867834" lon="8.744826523534902"><ele>133.0</ele><time>2026-04-01T13:21:38Z</time></trkpt><trkpt lat="39.09090800161009" lon="8.744974938412618"><ele>133.5</ele><time>2026-04-01T13:21:39Z</time></trkpt><trkpt lat="39.09100221741718" lon="8.745118575310794"><ele>134.0</ele><time>2026-04-01T13:21:40Z</time></trkpt><trkpt lat="39.09109329972503" lon="8.745261132943515"><ele>134.25</ele><time>2026-04-01T13:21:41Z</time></trkpt><trkpt lat="39.09118210809042" lon="8.745403238981728"><ele>134.5</ele><time>2026-04-01T13:21:42Z</time></trkpt><trkpt lat="39.09126628189288" lon="8.745544352229256"><ele>134.75</ele><time>2026-04-01T13:21:43Z</time></trkpt><trkpt lat="39.09134141965555" lon="8.745698417210365"><ele>135.0</ele><time>2026-04-01T13:21:44Z</time></trkpt><trkpt lat="39.091415648960044" lon="8.745852837664021"><ele>135.0</ele><time>2026-04-01T13:21:45Z</time></trkpt><trkpt lat="39.091486530577654" lon="8.746018862084073"><ele>135.0</ele><time>2026-04-01T13:21:46Z</time></trkpt><trkpt lat="39.09154809440109" lon="8.746190368419438"><ele>135.0</ele><time>2026-04-01T13:21:47Z</time></trkpt><trkpt lat="39.09160562514069" lon="8.746363392008044"><ele>135.0</ele><time>2026-04-01T13:21:48Z</time></trkpt><trkpt lat="39.09166443917394" lon="8.746544070542692"><ele>136.0</ele><time>2026-04-01T13:21:49Z</time></trkpt><trkpt lat="39.09172273868694" lon="8.74672194677122"><ele>137.0</ele><time>2026-04-01T13:21:50.001Z</time></trkpt><trkpt lat="39.09178234102357" lon="8.74690417549282"><ele>138.0</ele><time>2026-04-01T13:21:51.001Z</time></trkpt><trkpt lat="39.09183985098185" lon="8.747088449190494"><ele>138.0</ele><time>2026-04-01T13:21:52.001Z</time></trkpt><trkpt lat="39.09191528119305" lon="8.747263058668446"><ele>138.0</ele><time>2026-04-01T13:21:53.001Z</time></trkpt><trkpt lat="39.09196990380461" lon="8.747448620747777"><ele>138.0</ele><time>2026-04-01T13:21:54.001Z</time></trkpt><trkpt lat="39.0920349572986" lon="8.74763329445146"><ele>137.66666666666666</ele><time>2026-04-01T13:21:55.001Z</time></trkpt><trkpt lat="39.09210076772291" lon="8.747810964423673"><ele>137.33333333333331</ele><time>2026-04-01T13:21:56.001Z</time></trkpt><trkpt lat="39.09216451865364" lon="8.74799202179731"><ele>137.0</ele><time>2026-04-01T13:21:57.001Z</time></trkpt><trkpt lat="39.09222532189019" lon="8.748170441298837"><ele>137.0</ele><time>2026-04-01T13:21:58.001Z</time></trkpt><trkpt lat="39.092276500468046" lon="8.74832606161044"><ele>137.0</ele><time>2026-04-01T13:21:59.001Z</time></trkpt><trkpt lat="39.09231856639023" lon="8.748480679360402"><ele>137.0</ele><time>2026-04-01T13:22:00.001Z</time></trkpt><trkpt lat="39.09235879754129" lon="8.748645266100597"><ele>137.0</ele><time>2026-04-01T13:22:01.001Z</time></trkpt><trkpt lat="39.092408236757834" lon="8.748810378374186"><ele>139.0</ele><time>2026-04-01T13:22:02.001Z</time></trkpt><trkpt lat="39.09245923270513" lon="8.748987879481096"><ele>141.0</ele><time>2026-04-01T13:22:03.001Z</time></trkpt><trkpt lat="39.092504093514854" lon="8.7491724425698"><ele>143.0</ele><time>2026-04-01T13:22:04.001Z</time></trkpt><trkpt lat="39.092546135024136" lon="8.749362224753856"><ele>142.66666666666666</ele><time>2026-04-01T13:22:05.001Z</time></trkpt><trkpt lat="39.092580558019804" lon="8.749559646782838"><ele>142.33333333333334</ele><time>2026-04-01T13:22:06.001Z</time></trkpt><trkpt lat="39.09260414455892" lon="8.74976292300716"><ele>142.0</ele><time>2026-04-01T13:22:07.001Z</time></trkpt><trkpt lat="39.09261538991571" lon="8.749968867463222"><ele>142.0</ele><time>2026-04-01T13:22:08.001Z</time></trkpt><trkpt lat="39.09261934515378" lon="8.750177811998629"><ele>142.0</ele><time>2026-04-01T13:22:09.001Z</time></trkpt><trkpt lat="39.09261616536862" lon="8.750388689066485"><ele>142.0</ele><time>2026-04-01T13:22:10.001Z</time></trkpt><trkpt lat="39.09261573412261" lon="8.750600811654742"><ele>142.0</ele><time>2026-04-01T13:22:11.001Z</time></trkpt><trkpt lat="39.09261381410025" lon="8.750811118731283"><ele>142.0</ele><time>2026-04-01T13:22:12.001Z</time></trkpt><trkpt lat="39.09260619138758" lon="8.751022293133161"><ele>142.0</ele><time>2026-04-01T13:22:13.001Z</time></trkpt><trkpt lat="39.0925996087563" lon="8.751233320843868"><ele>142.0</ele><time>2026-04-01T13:22:14.001Z</time></trkpt><trkpt lat="39.09259492037847" lon="8.751444710721872"><ele>142.0</ele><time>2026-04-01T13:22:15.001Z</time></trkpt><trkpt lat="39.09259096324134" lon="8.751659509168997"><ele>142.0</ele><time>2026-04-01T13:22:16.001Z</time></trkpt><trkpt lat="39.09258792425201" lon="8.751875682466014"><ele>142.33333333333334</ele><time>2026-04-01T13:22:17.001Z</time></trkpt><trkpt lat="39.09258227223709" lon="8.75209148098175"><ele>142.66666666666666</ele><time>2026-04-01T13:22:18.001Z</time></trkpt><trkpt lat="39.09257305388259" lon="8.75230952807384"><ele>143.0</ele><time>2026-04-01T13:22:19.001Z</time></trkpt><trkpt lat="39.09256629864994" lon="8.752527748013229"><ele>143.33333333333331</ele><time>2026-04-01T13:22:20.001Z</time></trkpt><trkpt lat="39.0925559147515" lon="8.75274402571088"><ele>143.66666666666666</ele><time>2026-04-01T13:22:21.001Z</time></trkpt><trkpt lat="39.092541164529244" lon="8.75296185952226"><ele>144.0</ele><time>2026-04-01T13:22:22.001Z</time></trkpt><trkpt lat="39.092526672399025" lon="8.75317726697915"><ele>144.0</ele><time>2026-04-01T13:22:23.001Z</time></trkpt><trkpt lat="39.09251213511022" lon="8.753383790558642"><ele>144.0</ele><time>2026-04-01T13:22:24.001Z</time></trkpt><trkpt lat="39.09249999771875" lon="8.753583050005343"><ele>144.0</ele><time>2026-04-01T13:22:25.001Z</time></trkpt><trkpt lat="39.09249226826378" lon="8.753785029667668"><ele>144.33333333333334</ele><time>2026-04-01T13:22:26.001Z</time></trkpt><trkpt lat="39.0924866692119" lon="8.75399186104925"><ele>144.66666666666669</ele><time>2026-04-01T13:22:27.001Z</time></trkpt><trkpt lat="39.09248574406173" lon="8.754199569494496"><ele>145.0</ele><time>2026-04-01T13:22:28.001Z</time></trkpt><trkpt lat="39.09248559963873" lon="8.754407963681583"><ele>145.66666666666669</ele><time>2026-04-01T13:22:29.001Z</time></trkpt><trkpt lat="39.0924846400291" lon="8.754615960098784"><ele>146.33333333333334</ele><time>2026-04-01T13:22:30.001Z</time></trkpt><trkpt lat="39.09248575366571" lon="8.754822044006454"><ele>147.0</ele><time>2026-04-01T13:22:31.001Z</time></trkpt><trkpt lat="39.092487809746046" lon="8.755024534271854"><ele>147.0</ele><time>2026-04-01T13:22:32.001Z</time></trkpt><trkpt lat="39.09249010577684" lon="8.75521511597956"><ele>147.0</ele><time>2026-04-01T13:22:33.001Z</time></trkpt><trkpt lat="39.0924910274726" lon="8.755386753506356"><ele>147.0</ele><time>2026-04-01T13:22:34.001Z</time></trkpt><trkpt lat="39.09249307636808" lon="8.75553242652404"><ele>147.0</ele><time>2026-04-01T13:22:35.001Z</time></trkpt><trkpt lat="39.09249570004299" lon="8.755668051368223"><ele>147.0</ele><time>2026-04-01T13:22:36.001Z</time></trkpt><trkpt lat="39.092494961662815" lon="8.755795490340336"><ele>147.0</ele><time>2026-04-01T13:22:37.001Z</time></trkpt><trkpt lat="39.09249318129614" lon="8.755917601908811"><ele>147.0</ele><time>2026-04-01T13:22:38.001Z</time></trkpt><trkpt lat="39.092487829049475" lon="8.756038071915821"><ele>147.0</ele><time>2026-04-01T13:22:39.001Z</time></trkpt><trkpt lat="39.09248329482233" lon="8.756156425710119"><ele>147.0</ele><time>2026-04-01T13:22:40.001Z</time></trkpt><trkpt lat="39.092480201346845" lon="8.756280638445103"><ele>147.2</ele><time>2026-04-01T13:22:41.001Z</time></trkpt><trkpt lat="39.092479449886675" lon="8.756412019928158"><ele>147.39999999999998</ele><time>2026-04-01T13:22:42.001Z</time></trkpt><trkpt lat="39.09248322753279" lon="8.75654872857522"><ele>147.60000000000002</ele><time>2026-04-01T13:22:43.001Z</time></trkpt><trkpt lat="39.09249016092547" lon="8.756677152511127"><ele>147.8</ele><time>2026-04-01T13:22:44.001Z</time></trkpt><trkpt lat="39.09249418419023" lon="8.756791441206072"><ele>148.0</ele><time>2026-04-01T13:22:45.001Z</time></trkpt><trkpt lat="39.092496259374066" lon="8.756907714416462"><ele>148.0</ele><time>2026-04-01T13:22:46.001Z</time></trkpt><trkpt lat="39.09249708174766" lon="8.757035736276313"><ele>148.0</ele><time>2026-04-01T13:22:47.001Z</time></trkpt><trkpt lat="39.092495293120066" lon="8.757171940044064"><ele>148.0</ele><time>2026-04-01T13:22:48.002Z</time></trkpt><trkpt lat="39.09249167203413" lon="8.757314900319182"><ele>148.0</ele><time>2026-04-01T13:22:49.002Z</time></trkpt><trkpt lat="39.09248074621547" lon="8.757461598843745"><ele>148.0</ele><time>2026-04-01T13:22:50.002Z</time></trkpt><trkpt lat="39.09243551434831" lon="8.757588816112145"><ele>148.6</ele><time>2026-04-01T13:22:51.002Z</time></trkpt><trkpt lat="39.09238048693762" lon="8.757693318604288"><ele>149.20000000000002</ele><time>2026-04-01T13:22:52.002Z</time></trkpt><trkpt lat="39.0923288342998" lon="8.7577967193131"><ele>149.8</ele><time>2026-04-01T13:22:53.002Z</time></trkpt><trkpt lat="39.092252080024615" lon="8.757860495814072"><ele>150.4</ele><time>2026-04-01T13:22:54.002Z</time></trkpt><trkpt lat="39.092164273378344" lon="8.757905098707809"><ele>151.0</ele><time>2026-04-01T13:22:55.002Z</time></trkpt><trkpt lat="39.092066277683834" lon="8.757936140637598"><ele>151.2</ele><time>2026-04-01T13:22:56.002Z</time></trkpt><trkpt lat="39.09196508987405" lon="8.757972189572891"><ele>151.39999999999998</ele><time>2026-04-01T13:22:57.002Z</time></trkpt><trkpt lat="39.091865846887174" lon="8.758019969917045"><ele>151.6</ele><time>2026-04-01T13:22:58.002Z</time></trkpt><trkpt lat="39.09176231286151" lon="8.758072335338046"><ele>151.79999999999998</ele><time>2026-04-01T13:22:59.002Z</time></trkpt><trkpt lat="39.09165928959308" lon="8.75813543642363"><ele>152.0</ele><time>2026-04-01T13:23:00.002Z</time></trkpt><trkpt lat="39.09155733131595" lon="8.758212931543703"><ele>152.75</ele><time>2026-04-01T13:23:01.002Z</time></trkpt><trkpt lat="39.09146901071757" lon="8.758316865028213"><ele>153.5</ele><time>2026-04-01T13:23:02.002Z</time></trkpt><trkpt lat="39.09139325837173" lon="8.758439196153715"><ele>154.25</ele><time>2026-04-01T13:23:03.002Z</time></trkpt><trkpt lat="39.091328663503376" lon="8.758581190894938"><ele>155.0</ele><time>2026-04-01T13:23:04.002Z</time></trkpt><trkpt lat="39.09126693474601" lon="8.758733185181628"><ele>155.0</ele><time>2026-04-01T13:23:05.002Z</time></trkpt><trkpt lat="39.09124449597106" lon="8.758915943246722"><ele>155.0</ele><time>2026-04-01T13:23:06.002Z</time></trkpt><trkpt lat="39.091226427866744" lon="8.759101371816854"><ele>155.0</ele><time>2026-04-01T13:23:07.002Z</time></trkpt><trkpt lat="39.091192364056745" lon="8.75930296763822"><ele>155.0</ele><time>2026-04-01T13:23:08.002Z</time></trkpt><trkpt lat="39.09117963919068" lon="8.759506092960004"><ele>156.0</ele><time>2026-04-01T13:23:09.002Z</time></trkpt><trkpt lat="39.091163440938615" lon="8.759722674093357"><ele>157.0</ele><time>2026-04-01T13:23:10.002Z</time></trkpt><trkpt lat="39.09114093732136" lon="8.759944170021514"><ele>158.0</ele><time>2026-04-01T13:23:11.002Z</time></trkpt><trkpt lat="39.09111756675027" lon="8.760176150746968"><ele>158.33333333333331</ele><time>2026-04-01T13:23:12.002Z</time></trkpt><trkpt lat="39.09109384511182" lon="8.760412874148512"><ele>158.66666666666666</ele><time>2026-04-01T13:23:13.001Z</time></trkpt><trkpt lat="39.09106923787923" lon="8.760650964222425"><ele>159.0</ele><time>2026-04-01T13:23:14.001Z</time></trkpt><trkpt lat="39.091045936992806" lon="8.76089989400586"><ele>159.33333333333334</ele><time>2026-04-01T13:23:15.001Z</time></trkpt><trkpt lat="39.091020216640096" lon="8.761156150728825"><ele>159.66666666666669</ele><time>2026-04-01T13:23:16.001Z</time></trkpt><trkpt lat="39.09099211356658" lon="8.761407226947796"><ele>160.0</ele><time>2026-04-01T13:23:17.001Z</time></trkpt><trkpt lat="39.09097218066359" lon="8.76164869786826"><ele>160.0</ele><time>2026-04-01T13:23:18.001Z</time></trkpt><trkpt lat="39.090967386852476" lon="8.76186177164646"><ele>160.0</ele><time>2026-04-01T13:23:19.001Z</time></trkpt><trkpt lat="39.09097679376925" lon="8.762034634696873"><ele>160.0</ele><time>2026-04-01T13:23:20.001Z</time></trkpt><trkpt lat="39.090985141707094" lon="8.762187551979705"><ele>160.0</ele><time>2026-04-01T13:23:21.001Z</time></trkpt><trkpt lat="39.090998453762474" lon="8.762334321705625"><ele>160.6</ele><time>2026-04-01T13:23:22.001Z</time></trkpt><trkpt lat="39.09101741480918" lon="8.762462012536803"><ele>161.2</ele><time>2026-04-01T13:23:23.001Z</time></trkpt><trkpt lat="39.09103310381242" lon="8.762580536848418"><ele>161.8</ele><time>2026-04-01T13:23:24.001Z</time></trkpt><trkpt lat="39.09105291321235" lon="8.762693035457051"><ele>162.4</ele><time>2026-04-01T13:23:25.001Z</time></trkpt><trkpt lat="39.09107001432595" lon="8.762804532624843"><ele>163.0</ele><time>2026-04-01T13:23:26.001Z</time></trkpt><trkpt lat="39.09108811159153" lon="8.762910710290743"><ele>163.60000000000002</ele><time>2026-04-01T13:23:27.001Z</time></trkpt><trkpt lat="39.09110471593852" lon="8.763029692328733"><ele>164.20000000000002</ele><time>2026-04-01T13:23:29.001Z</time></trkpt><trkpt lat="39.09113327970376" lon="8.763200581738818"><ele>164.8</ele><time>2026-04-01T13:23:31.001Z</time></trkpt><trkpt lat="39.091150404604846" lon="8.763315944622445"><ele>165.4</ele><time>2026-04-01T13:23:32.001Z</time></trkpt><trkpt lat="39.091166726892936" lon="8.76345504161867"><ele>166.0</ele><time>2026-04-01T13:23:33.001Z</time></trkpt><trkpt lat="39.091202025748196" lon="8.763595396184947"><ele>166.75</ele><time>2026-04-01T13:23:34.001Z</time></trkpt><trkpt lat="39.09123805936166" lon="8.763754118568967"><ele>167.5</ele><time>2026-04-01T13:23:35.001Z</time></trkpt><trkpt lat="39.09129928916515" lon="8.763928188241294"><ele>168.25</ele><time>2026-04-01T13:23:36.001Z</time></trkpt><trkpt lat="39.09135707263659" lon="8.764108122658888"><ele>169.0</ele><time>2026-04-01T13:23:37.001Z</time></trkpt><trkpt lat="39.09143506111879" lon="8.76427890405617"><ele>170.33333333333334</ele><time>2026-04-01T13:23:38.001Z</time></trkpt><trkpt lat="39.09152075994994" lon="8.764467136051714"><ele>171.66666666666666</ele><time>2026-04-01T13:23:39.001Z</time></trkpt><trkpt lat="39.09160744712592" lon="8.764673934698278"><ele>173.0</ele><time>2026-04-01T13:23:40.001Z</time></trkpt><trkpt lat="39.09169340713798" lon="8.764884536114867"><ele>171.66666666666666</ele><time>2026-04-01T13:23:41.001Z</time></trkpt><trkpt lat="39.09177851056285" lon="8.765091638471024"><ele>170.33333333333334</ele><time>2026-04-01T13:23:42.001Z</time></trkpt><trkpt lat="39.091864130336425" lon="8.765306211980176"><ele>169.0</ele><time>2026-04-01T13:23:43.001Z</time></trkpt><trkpt lat="39.09195454142866" lon="8.765525276181489"><ele>169.0</ele><time>2026-04-01T13:23:44.001Z</time></trkpt><trkpt lat="39.09204491061866" lon="8.765744494892765"><ele>169.0</ele><time>2026-04-01T13:23:45.001Z</time></trkpt><trkpt lat="39.09213642814734" lon="8.765966479913606"><ele>169.0</ele><time>2026-04-01T13:23:46.001Z</time></trkpt><trkpt lat="39.09222996721279" lon="8.766188960813265"><ele>168.0</ele><time>2026-04-01T13:23:47.001Z</time></trkpt><trkpt lat="39.092318981489846" lon="8.766410847034487"><ele>167.0</ele><time>2026-04-01T13:23:48.001Z</time></trkpt><trkpt lat="39.09240961897847" lon="8.766635557654611"><ele>166.0</ele><time>2026-04-01T13:23:49.001Z</time></trkpt><trkpt lat="39.09250331061585" lon="8.766858477045597"><ele>167.33333333333334</ele><time>2026-04-01T13:23:50.001Z</time></trkpt><trkpt lat="39.09259056158442" lon="8.767073272470427"><ele>168.66666666666666</ele><time>2026-04-01T13:23:51.001Z</time></trkpt><trkpt lat="39.09267333552762" lon="8.767273909883285"><ele>170.0</ele><time>2026-04-01T13:23:52.001Z</time></trkpt><trkpt lat="39.09274874610188" lon="8.767465707288448"><ele>170.0</ele><time>2026-04-01T13:23:53.001Z</time></trkpt><trkpt lat="39.092817399088226" lon="8.76764873933547"><ele>170.0</ele><time>2026-04-01T13:23:54.001Z</time></trkpt><trkpt lat="39.092855747850045" lon="8.767830845253188"><ele>170.0</ele><time>2026-04-01T13:23:55.001Z</time></trkpt><trkpt lat="39.092865130795204" lon="8.768016418483596"><ele>170.0</ele><time>2026-04-01T13:23:56.001Z</time></trkpt><trkpt lat="39.09286040494329" lon="8.76821609675723"><ele>169.66666666666666</ele><time>2026-04-01T13:23:57.001Z</time></trkpt><trkpt lat="39.092835256305726" lon="8.768419785286234"><ele>169.33333333333334</ele><time>2026-04-01T13:23:58.001Z</time></trkpt><trkpt lat="39.09278985364174" lon="8.7686177415764"><ele>169.0</ele><time>2026-04-01T13:23:59.001Z</time></trkpt><trkpt lat="39.09272051620193" lon="8.768805402285412"><ele>169.0</ele><time>2026-04-01T13:24:00.001Z</time></trkpt><trkpt lat="39.092635112455554" lon="8.768992700077007"><ele>169.0</ele><time>2026-04-01T13:24:01.001Z</time></trkpt><trkpt lat="39.092538103669234" lon="8.769180993124637"><ele>169.0</ele><time>2026-04-01T13:24:02.001Z</time></trkpt><trkpt lat="39.0924556003802" lon="8.769387451224402"><ele>172.33333333333334</ele><time>2026-04-01T13:24:03.001Z</time></trkpt><trkpt lat="39.0923612357912" lon="8.769594286987413"><ele>175.66666666666666</ele><time>2026-04-01T13:24:04.001Z</time></trkpt><trkpt lat="39.09226055539665" lon="8.769815049710921"><ele>179.0</ele><time>2026-04-01T13:24:05.001Z</time></trkpt><trkpt lat="39.0921568979021" lon="8.770042340388015"><ele>178.0</ele><time>2026-04-01T13:24:06.001Z</time></trkpt><trkpt lat="39.09207890021466" lon="8.770213366622283"><ele>177.0</ele><time>2026-04-01T13:24:07.001Z</time></trkpt><trkpt lat="39.09197127474296" lon="8.770409063413073"><ele>176.0</ele><time>2026-04-01T13:24:08.001Z</time></trkpt><trkpt lat="39.091890121669415" lon="8.77061799221933"><ele>176.0</ele><time>2026-04-01T13:24:09.001Z</time></trkpt><trkpt lat="39.091796187178865" lon="8.770826275839557"><ele>176.0</ele><time>2026-04-01T13:24:10.001Z</time></trkpt><trkpt lat="39.09170009923063" lon="8.771038441918718"><ele>176.0</ele><time>2026-04-01T13:24:11.001Z</time></trkpt><trkpt lat="39.09160225145314" lon="8.771250267863522"><ele>181.66666666666666</ele><time>2026-04-01T13:24:12.001Z</time></trkpt><trkpt lat="39.09150626841501" lon="8.771461218041162"><ele>187.33333333333331</ele><time>2026-04-01T13:24:13.001Z</time></trkpt><trkpt lat="39.09141700714709" lon="8.771658665074563"><ele>193.0</ele><time>2026-04-01T13:24:14.001Z</time></trkpt><trkpt lat="39.091333940690696" lon="8.771843842935564"><ele>189.0</ele><time>2026-04-01T13:24:15.001Z</time></trkpt><trkpt lat="39.09125418292265" lon="8.772021000002834"><ele>185.0</ele><time>2026-04-01T13:24:16.001Z</time></trkpt><trkpt lat="39.09117306976894" lon="8.772199754934304"><ele>181.0</ele><time>2026-04-01T13:24:17.001Z</time></trkpt><trkpt lat="39.09109498693319" lon="8.772377741636527"><ele>181.0</ele><time>2026-04-01T13:24:18.001Z</time></trkpt><trkpt lat="39.09101659076904" lon="8.772548037195907"><ele>181.0</ele><time>2026-04-01T13:24:19.001Z</time></trkpt><trkpt lat="39.090944886649275" lon="8.772710762461804"><ele>181.0</ele><time>2026-04-01T13:24:20.001Z</time></trkpt><trkpt lat="39.090878936079086" lon="8.772874115514293"><ele>181.0</ele><time>2026-04-01T13:24:21.001Z</time></trkpt><trkpt lat="39.09081196700286" lon="8.773037316845494"><ele>181.25</ele><time>2026-04-01T13:24:22.001Z</time></trkpt><trkpt lat="39.090739881419786" lon="8.773200764489077"><ele>181.5</ele><time>2026-04-01T13:24:23.001Z</time></trkpt><trkpt lat="39.090679915207886" lon="8.77337263390887"><ele>181.75</ele><time>2026-04-01T13:24:24.001Z</time></trkpt><trkpt lat="39.09064074782896" lon="8.773554661697036"><ele>182.0</ele><time>2026-04-01T13:24:25.001Z</time></trkpt><trkpt lat="39.090618785247536" lon="8.773742973695228"><ele>182.0</ele><time>2026-04-01T13:24:26.001Z</time></trkpt><trkpt lat="39.090606142979695" lon="8.773931300464106"><ele>182.0</ele><time>2026-04-01T13:24:27.001Z</time></trkpt><trkpt lat="39.090597771548175" lon="8.77412322946703"><ele>182.0</ele><time>2026-04-01T13:24:28.001Z</time></trkpt><trkpt lat="39.09058453468775" lon="8.774316216878658"><ele>182.0</ele><time>2026-04-01T13:24:29.001Z</time></trkpt><trkpt lat="39.09057017589755" lon="8.774509763616914"><ele>182.66666666666666</ele><time>2026-04-01T13:24:30.001Z</time></trkpt><trkpt lat="39.09055643080903" lon="8.774705787748363"><ele>183.33333333333334</ele><time>2026-04-01T13:24:31.001Z</time></trkpt><trkpt lat="39.09054168297809" lon="8.774904284816996"><ele>184.0</ele><time>2026-04-01T13:24:32.001Z</time></trkpt><trkpt lat="39.090522507956706" lon="8.77510493477952"><ele>186.33333333333334</ele><time>2026-04-01T13:24:33.001Z</time></trkpt><trkpt lat="39.09050102310842" lon="8.775307184345513"><ele>188.66666666666666</ele><time>2026-04-01T13:24:34.001Z</time></trkpt><trkpt lat="39.090485841638355" lon="8.775512654250038"><ele>191.0</ele><time>2026-04-01T13:24:35.001Z</time></trkpt><trkpt lat="39.09047241372713" lon="8.775718757403277"><ele>191.0</ele><time>2026-04-01T13:24:36.001Z</time></trkpt><trkpt lat="39.09045901071393" lon="8.775927541301453"><ele>191.0</ele><time>2026-04-01T13:24:37.001Z</time></trkpt><trkpt lat="39.0904441673618" lon="8.776137556103436"><ele>191.0</ele><time>2026-04-01T13:24:38.001Z</time></trkpt><trkpt lat="39.09042488069424" lon="8.776347808073442"><ele>190.33333333333331</ele><time>2026-04-01T13:24:39.001Z</time></trkpt><trkpt lat="39.09040586054967" lon="8.77656088217111"><ele>189.66666666666666</ele><time>2026-04-01T13:24:40.001Z</time></trkpt><trkpt lat="39.0903880139545" lon="8.776774498237385"><ele>189.0</ele><time>2026-04-01T13:24:41.001Z</time></trkpt><trkpt lat="39.090370956561166" lon="8.776988583072216"><ele>188.66666666666666</ele><time>2026-04-01T13:24:42.001Z</time></trkpt><trkpt lat="39.09035363095477" lon="8.77720439282065"><ele>188.33333333333331</ele><time>2026-04-01T13:24:43.001Z</time></trkpt><trkpt lat="39.09033899436609" lon="8.777419691843491"><ele>188.0</ele><time>2026-04-01T13:24:44.001Z</time></trkpt><trkpt lat="39.0903219991202" lon="8.777634777039"><ele>187.66666666666666</ele><time>2026-04-01T13:24:45.001Z</time></trkpt><trkpt lat="39.090305771695085" lon="8.777847781880787"><ele>187.33333333333334</ele><time>2026-04-01T13:24:46.001Z</time></trkpt><trkpt lat="39.09029029979286" lon="8.778062057959337"><ele>187.0</ele><time>2026-04-01T13:24:47.001Z</time></trkpt><trkpt lat="39.0902705161214" lon="8.77827763050908"><ele>187.0</ele><time>2026-04-01T13:24:48.001Z</time></trkpt><trkpt lat="39.09025208046947" lon="8.778493597871282"><ele>187.0</ele><time>2026-04-01T13:24:49.002Z</time></trkpt><trkpt lat="39.09023402567042" lon="8.778710848323446"><ele>187.0</ele><time>2026-04-01T13:24:50.002Z</time></trkpt><trkpt lat="39.090219432865894" lon="8.778929111464237"><ele>187.0</ele><time>2026-04-01T13:24:51.002Z</time></trkpt><trkpt lat="39.09020260965114" lon="8.77914657718041"><ele>187.0</ele><time>2026-04-01T13:24:52.002Z</time></trkpt><trkpt lat="39.090185699826016" lon="8.779365550788203"><ele>187.0</ele><time>2026-04-01T13:24:53.002Z</time></trkpt><trkpt lat="39.090169298967055" lon="8.779584942442137"><ele>188.0</ele><time>2026-04-01T13:24:54.002Z</time></trkpt><trkpt lat="39.090153887434866" lon="8.779806877448355"><ele>189.0</ele><time>2026-04-01T13:24:55.002Z</time></trkpt><trkpt lat="39.090136467933654" lon="8.780027799328002"><ele>190.0</ele><time>2026-04-01T13:24:56.002Z</time></trkpt><trkpt lat="39.090120173978775" lon="8.780249470295425"><ele>191.33333333333334</ele><time>2026-04-01T13:24:57.002Z</time></trkpt><trkpt lat="39.09010677928548" lon="8.780472525602777"><ele>192.66666666666669</ele><time>2026-04-01T13:24:58.002Z</time></trkpt><trkpt lat="39.090106257889516" lon="8.780694262099201"><ele>194.0</ele><time>2026-04-01T13:24:59.002Z</time></trkpt><trkpt lat="39.09012308401361" lon="8.78091765334695"><ele>194.0</ele><time>2026-04-01T13:25:00.002Z</time></trkpt><trkpt lat="39.09015775019702" lon="8.781134601719497"><ele>194.0</ele><time>2026-04-01T13:25:01.002Z</time></trkpt><trkpt lat="39.09020864635624" lon="8.781348561043508"><ele>194.0</ele><time>2026-04-01T13:25:02.002Z</time></trkpt><trkpt lat="39.09026739289881" lon="8.781554166489927"><ele>194.0</ele><time>2026-04-01T13:25:03.002Z</time></trkpt><trkpt lat="39.090339366223915" lon="8.781756408034216"><ele>194.0</ele><time>2026-04-01T13:25:04.002Z</time></trkpt><trkpt lat="39.09042725307906" lon="8.781950677500014"><ele>194.0</ele><time>2026-04-01T13:25:05.002Z</time></trkpt><trkpt lat="39.09053134580334" lon="8.782130971129094"><ele>195.0</ele><time>2026-04-01T13:25:06.002Z</time></trkpt><trkpt lat="39.09064625980959" lon="8.782298545381892"><ele>196.0</ele><time>2026-04-01T13:25:07.002Z</time></trkpt><trkpt lat="39.09076892212485" lon="8.782455759061529"><ele>197.0</ele><time>2026-04-01T13:25:08.002Z</time></trkpt><trkpt lat="39.090894965137934" lon="8.782609255932723"><ele>199.66666666666669</ele><time>2026-04-01T13:25:09.002Z</time></trkpt><trkpt lat="39.091018219929005" lon="8.78276206313106"><ele>202.33333333333331</ele><time>2026-04-01T13:25:10.002Z</time></trkpt><trkpt lat="39.09112334949706" lon="8.782921246062172"><ele>205.0</ele><time>2026-04-01T13:25:11.002Z</time></trkpt><trkpt lat="39.09118764060755" lon="8.783108464176715"><ele>205.0</ele><time>2026-04-01T13:25:12.002Z</time></trkpt><trkpt lat="39.09127235737967" lon="8.78328676073518"><ele>205.0</ele><time>2026-04-01T13:25:13.002Z</time></trkpt><trkpt lat="39.09133984683903" lon="8.783476791951248"><ele>205.0</ele><time>2026-04-01T13:25:14.002Z</time></trkpt><trkpt lat="39.091408725450684" lon="8.783667054826273"><ele>208.0</ele><time>2026-04-01T13:25:15.002Z</time></trkpt><trkpt lat="39.091479637516244" lon="8.783860100668381"><ele>211.0</ele><time>2026-04-01T13:25:16.002Z</time></trkpt><trkpt lat="39.09153808298241" lon="8.784057235875629"><ele>214.0</ele><time>2026-04-01T13:25:17.002Z</time></trkpt><trkpt lat="39.09155672590621" lon="8.784264224691137"><ele>212.33333333333331</ele><time>2026-04-01T13:25:18.002Z</time></trkpt><trkpt lat="39.09158104589558" lon="8.784468046463333"><ele>210.66666666666669</ele><time>2026-04-01T13:25:19.001Z</time></trkpt><trkpt lat="39.09164298525267" lon="8.784659005031555"><ele>209.0</ele><time>2026-04-01T13:25:20.001Z</time></trkpt><trkpt lat="39.09171462198954" lon="8.784840198822845"><ele>209.0</ele><time>2026-04-01T13:25:21.001Z</time></trkpt><trkpt lat="39.091816854097395" lon="8.78499732156616"><ele>209.0</ele><time>2026-04-01T13:25:22.001Z</time></trkpt><trkpt lat="39.09193201770037" lon="8.785136065447565"><ele>209.0</ele><time>2026-04-01T13:25:23.001Z</time></trkpt><trkpt lat="39.0920452659142" lon="8.78528127696581"><ele>212.33333333333334</ele><time>2026-04-01T13:25:24.001Z</time></trkpt><trkpt lat="39.09214277049721" lon="8.785448220100239"><ele>215.66666666666669</ele><time>2026-04-01T13:25:25.001Z</time></trkpt><trkpt lat="39.09221422404734" lon="8.785634068385315"><ele>219.0</ele><time>2026-04-01T13:25:26.001Z</time></trkpt><trkpt lat="39.09226168122088" lon="8.785830232690005"><ele>222.66666666666669</ele><time>2026-04-01T13:25:27.001Z</time></trkpt><trkpt lat="39.092293428148636" lon="8.786033172654315"><ele>226.33333333333334</ele><time>2026-04-01T13:25:28.001Z</time></trkpt><trkpt lat="39.09231153044854" lon="8.786242895255727"><ele>230.0</ele><time>2026-04-01T13:25:29.001Z</time></trkpt><trkpt lat="39.092318994279275" lon="8.7864521312149"><ele>230.0</ele><time>2026-04-01T13:25:30.001Z</time></trkpt><trkpt lat="39.09231576557185" lon="8.786665084744529"><ele>230.0</ele><time>2026-04-01T13:25:31.001Z</time></trkpt><trkpt lat="39.0923107094924" lon="8.786882206412983"><ele>230.0</ele><time>2026-04-01T13:25:32.001Z</time></trkpt><trkpt lat="39.092303172667016" lon="8.78710489368928"><ele>230.66666666666669</ele><time>2026-04-01T13:25:33.001Z</time></trkpt><trkpt lat="39.09229502396263" lon="8.787329160077666"><ele>231.33333333333331</ele><time>2026-04-01T13:25:34.001Z</time></trkpt><trkpt lat="39.092290343920965" lon="8.787553468873483"><ele>232.0</ele><time>2026-04-01T13:25:35.001Z</time></trkpt><trkpt lat="39.09229558932685" lon="8.787780583387516"><ele>230.33333333333331</ele><time>2026-04-01T13:25:36.001Z</time></trkpt><trkpt lat="39.092326825972364" lon="8.788000461277317"><ele>228.66666666666669</ele><time>2026-04-01T13:25:37.001Z</time></trkpt><trkpt lat="39.09238540965871" lon="8.7882105984786"><ele>227.0</ele><time>2026-04-01T13:25:38.001Z</time></trkpt><trkpt lat="39.09245872671553" lon="8.788411944794296"><ele>221.66666666666669</ele><time>2026-04-01T13:25:39.001Z</time></trkpt><trkpt lat="39.09253974508483" lon="8.788607968299658"><ele>216.33333333333331</ele><time>2026-04-01T13:25:40.001Z</time></trkpt><trkpt lat="39.09261455016208" lon="8.78880714239329"><ele>211.0</ele><time>2026-04-01T13:25:41.001Z</time></trkpt><trkpt lat="39.09268752796666" lon="8.789006772764534"><ele>211.0</ele><time>2026-04-01T13:25:42.001Z</time></trkpt><trkpt lat="39.0927634127058" lon="8.789206683894411"><ele>211.0</ele><time>2026-04-01T13:25:43.001Z</time></trkpt><trkpt lat="39.09283645280059" lon="8.789407032682583"><ele>211.0</ele><time>2026-04-01T13:25:44.001Z</time></trkpt><trkpt lat="39.092915070438096" lon="8.789606762057822"><ele>212.33333333333331</ele><time>2026-04-01T13:25:45.001Z</time></trkpt><trkpt lat="39.09298479463088" lon="8.789806843731167"><ele>213.66666666666669</ele><time>2026-04-01T13:25:46.001Z</time></trkpt><trkpt lat="39.093037755102905" lon="8.789999826369812"><ele>215.0</ele><time>2026-04-01T13:25:47.001Z</time></trkpt><trkpt lat="39.09306138924442" lon="8.790183294836902"><ele>215.0</ele><time>2026-04-01T13:25:48.001Z</time></trkpt><trkpt lat="39.09304217381954" lon="8.790356855260212"><ele>215.0</ele><time>2026-04-01T13:25:49.001Z</time></trkpt><trkpt lat="39.09299909110353" lon="8.790525675218301"><ele>215.0</ele><time>2026-04-01T13:25:50.001Z</time></trkpt><trkpt lat="39.09293350676429" lon="8.790691119899055"><ele>215.0</ele><time>2026-04-01T13:25:51.001Z</time></trkpt><trkpt lat="39.0928385257969" lon="8.790821501328493"><ele>215.0</ele><time>2026-04-01T13:25:52.001Z</time></trkpt><trkpt lat="39.09274600077866" lon="8.790912555651344"><ele>215.0</ele><time>2026-04-01T13:25:53.001Z</time></trkpt><trkpt lat="39.09263563380145" lon="8.790989323985032"><ele>215.0</ele><time>2026-04-01T13:25:54.001Z</time></trkpt><trkpt lat="39.09251677866161" lon="8.791012195882676"><ele>215.0</ele><time>2026-04-01T13:25:55.001Z</time></trkpt><trkpt lat="39.09238015173399" lon="8.79103269476168"><ele>215.5</ele><time>2026-04-01T13:25:56.001Z</time></trkpt><trkpt lat="39.09224146586317" lon="8.791065092809053"><ele>216.0</ele><time>2026-04-01T13:25:57.001Z</time></trkpt><trkpt lat="39.09209240652336" lon="8.791079012350753"><ele>216.5</ele><time>2026-04-01T13:25:58.001Z</time></trkpt><trkpt lat="39.091944714723105" lon="8.791103817032786"><ele>217.0</ele><time>2026-04-01T13:25:59.001Z</time></trkpt><trkpt lat="39.09179870285555" lon="8.791134604446052"><ele>217.0</ele><time>2026-04-01T13:26:00.001Z</time></trkpt><trkpt lat="39.09165802032668" lon="8.79118689462125"><ele>217.0</ele><time>2026-04-01T13:26:01.001Z</time></trkpt><trkpt lat="39.091523641763175" lon="8.791272608856447"><ele>217.0</ele><time>2026-04-01T13:26:02.001Z</time></trkpt><trkpt lat="39.09140169973474" lon="8.791387140958573"><ele>217.0</ele><time>2026-04-01T13:26:03.001Z</time></trkpt><trkpt lat="39.09130004538526" lon="8.791528523800567"><ele>219.25</ele><time>2026-04-01T13:26:04.001Z</time></trkpt><trkpt lat="39.09122350081805" lon="8.7916920490604"><ele>221.5</ele><time>2026-04-01T13:26:05.001Z</time></trkpt><trkpt lat="39.091176053451086" lon="8.79186649310404"><ele>223.75</ele><time>2026-04-01T13:26:06.001Z</time></trkpt><trkpt lat="39.0911522498365" lon="8.792036186398862"><ele>226.0</ele><time>2026-04-01T13:26:07.001Z</time></trkpt><trkpt lat="39.09112678625644" lon="8.792212516181145"><ele>226.0</ele><time>2026-04-01T13:26:08.001Z</time></trkpt><trkpt lat="39.09108450646186" lon="8.792369988072794"><ele>226.0</ele><time>2026-04-01T13:26:09.001Z</time></trkpt><trkpt lat="39.091006948756835" lon="8.792504446847618"><ele>226.0</ele><time>2026-04-01T13:26:10.001Z</time></trkpt><trkpt lat="39.09090709572404" lon="8.792621434021816"><ele>226.0</ele><time>2026-04-01T13:26:11.001Z</time></trkpt><trkpt lat="39.090792407641516" lon="8.79271402876927"><ele>226.0</ele><time>2026-04-01T13:26:12.001Z</time></trkpt><trkpt lat="39.09067616612071" lon="8.792797194288442"><ele>226.0</ele><time>2026-04-01T13:26:13.001Z</time></trkpt><trkpt lat="39.09055659139785" lon="8.792886583594694"><ele>226.0</ele><time>2026-04-01T13:26:14.001Z</time></trkpt><trkpt lat="39.09045963556276" lon="8.793009489074556"><ele>226.0</ele><time>2026-04-01T13:26:15.001Z</time></trkpt><trkpt lat="39.0903796449578" lon="8.793156114002437"><ele>226.0</ele><time>2026-04-01T13:26:16.001Z</time></trkpt><trkpt lat="39.09031463555185" lon="8.793317937396107"><ele>226.0</ele><time>2026-04-01T13:26:17.001Z</time></trkpt><trkpt lat="39.090268126580504" lon="8.793486533212228"><ele>226.0</ele><time>2026-04-01T13:26:18.001Z</time></trkpt><trkpt lat="39.09023141926527" lon="8.793658634302957"><ele>226.0</ele><time>2026-04-01T13:26:19.001Z</time></trkpt><trkpt lat="39.09020955903671" lon="8.793836468664868"><ele>226.0</ele><time>2026-04-01T13:26:20.001Z</time></trkpt><trkpt lat="39.09022248529315" lon="8.794028628217095"><ele>226.0</ele><time>2026-04-01T13:26:21.001Z</time></trkpt><trkpt lat="39.09023528501053" lon="8.794211945120011"><ele>226.0</ele><time>2026-04-01T13:26:22.001Z</time></trkpt><trkpt lat="39.09027151227456" lon="8.794395411677081"><ele>226.0</ele><time>2026-04-01T13:26:23.001Z</time></trkpt><trkpt lat="39.09029385083194" lon="8.794587493989804"><ele>226.0</ele><time>2026-04-01T13:26:24.001Z</time></trkpt><trkpt lat="39.09031167041484" lon="8.794798411454899"><ele>226.0</ele><time>2026-04-01T13:26:25.001Z</time></trkpt><trkpt lat="39.090330060153164" lon="8.795002230846336"><ele>226.0</ele><time>2026-04-01T13:26:26.001Z</time></trkpt><trkpt lat="39.09035171645062" lon="8.795204594123316"><ele>226.0</ele><time>2026-04-01T13:26:27.001Z</time></trkpt><trkpt lat="39.09037014300809" lon="8.795405040553536"><ele>226.0</ele><time>2026-04-01T13:26:28.001Z</time></trkpt><trkpt lat="39.090387281078115" lon="8.795606329759874"><ele>226.0</ele><time>2026-04-01T13:26:29.001Z</time></trkpt><trkpt lat="39.09040725731322" lon="8.795806481424629"><ele>226.33333333333331</ele><time>2026-04-01T13:26:30.001Z</time></trkpt><trkpt lat="39.090430514068885" lon="8.796006114763873"><ele>226.66666666666669</ele><time>2026-04-01T13:26:31.001Z</time></trkpt><trkpt lat="39.09044787821421" lon="8.796201649326836"><ele>227.0</ele><time>2026-04-01T13:26:32.001Z</time></trkpt><trkpt lat="39.09045191604307" lon="8.79639482998975"><ele>227.0</ele><time>2026-04-01T13:26:33.001Z</time></trkpt><trkpt lat="39.09044687427845" lon="8.796591310709792"><ele>227.0</ele><time>2026-04-01T13:26:34.001Z</time></trkpt><trkpt lat="39.09043090030656" lon="8.796791381371246"><ele>227.0</ele><time>2026-04-01T13:26:35.001Z</time></trkpt><trkpt lat="39.09040963214033" lon="8.79699080788896"><ele>228.66666666666669</ele><time>2026-04-01T13:26:36.001Z</time></trkpt><trkpt lat="39.09038366734186" lon="8.797189404368629"><ele>230.33333333333331</ele><time>2026-04-01T13:26:37.001Z</time></trkpt><trkpt lat="39.09035323491136" lon="8.797387656271253"><ele>232.0</ele><time>2026-04-01T13:26:38.001Z</time></trkpt><trkpt lat="39.09031573567424" lon="8.797585002106338"><ele>232.66666666666666</ele><time>2026-04-01T13:26:39.001Z</time></trkpt><trkpt lat="39.090278496340154" lon="8.797780180568692"><ele>233.33333333333331</ele><time>2026-04-01T13:26:40.001Z</time></trkpt><trkpt lat="39.090247969982734" lon="8.797976452486175"><ele>234.0</ele><time>2026-04-01T13:26:41.001Z</time></trkpt><trkpt lat="39.09022227606341" lon="8.798172549589864"><ele>234.0</ele><time>2026-04-01T13:26:42.001Z</time></trkpt><trkpt lat="39.09020384715884" lon="8.798371396992128"><ele>234.0</ele><time>2026-04-01T13:26:43.001Z</time></trkpt><trkpt lat="39.09049631994744" lon="8.798602303672954"><ele>235.0</ele><time>2026-04-01T13:26:44.001Z</time></trkpt><trkpt lat="39.09046790500104" lon="8.798804918083151"><ele>236.0</ele><time>2026-04-01T13:26:45.001Z</time></trkpt><trkpt lat="39.0901770402465" lon="8.798974992351473"><ele>236.0</ele><time>2026-04-01T13:26:46.001Z</time></trkpt><trkpt lat="39.09016784697284" lon="8.799173512681481"><ele>236.0</ele><time>2026-04-01T13:26:47.001Z</time></trkpt><trkpt lat="39.09015661139841" lon="8.799368632055796"><ele>236.0</ele><time>2026-04-01T13:26:48.001Z</time></trkpt><trkpt lat="39.09014799529177" lon="8.799561541743092"><ele>236.75</ele><time>2026-04-01T13:26:49.001Z</time></trkpt><trkpt lat="39.090147130623905" lon="8.79975340056023"><ele>237.5</ele><time>2026-04-01T13:26:50.001Z</time></trkpt><trkpt lat="39.09016442879042" lon="8.79994066801894"><ele>238.25</ele><time>2026-04-01T13:26:51.001Z</time></trkpt><trkpt lat="39.09020240240343" lon="8.800124020328104"><ele>239.0</ele><time>2026-04-01T13:26:52.001Z</time></trkpt><trkpt lat="39.090260371108215" lon="8.800298367052001"><ele>240.75</ele><time>2026-04-01T13:26:53.001Z</time></trkpt><trkpt lat="39.09033026996367" lon="8.800465938909394"><ele>242.5</ele><time>2026-04-01T13:26:54.001Z</time></trkpt><trkpt lat="39.0904113122597" lon="8.800627606976743"><ele>244.25</ele><time>2026-04-01T13:26:55.001Z</time></trkpt><trkpt lat="39.090492841406736" lon="8.800790700526935"><ele>246.0</ele><time>2026-04-01T13:26:56.001Z</time></trkpt><trkpt lat="39.09056735425129" lon="8.800958195296504"><ele>249.33333333333331</ele><time>2026-04-01T13:26:57.001Z</time></trkpt><trkpt lat="39.090633361326624" lon="8.801132571086704"><ele>252.66666666666666</ele><time>2026-04-01T13:26:58.002Z</time></trkpt><trkpt lat="39.090688452877394" lon="8.801315630937815"><ele>256.0</ele><time>2026-04-01T13:26:59.002Z</time></trkpt><trkpt lat="39.0907273186324" lon="8.801505751613952"><ele>256.0</ele><time>2026-04-01T13:27:00.002Z</time></trkpt><trkpt lat="39.09075198408751" lon="8.801698560559464"><ele>256.0</ele><time>2026-04-01T13:27:01.002Z</time></trkpt><trkpt lat="39.090764798723185" lon="8.801891005829706"><ele>256.0</ele><time>2026-04-01T13:27:02.002Z</time></trkpt><trkpt lat="39.09077358391828" lon="8.8020838530376"><ele>252.33333333333331</ele><time>2026-04-01T13:27:03.002Z</time></trkpt><trkpt lat="39.09078270843078" lon="8.802278474188027"><ele>248.66666666666669</ele><time>2026-04-01T13:27:04.002Z</time></trkpt><trkpt lat="39.09079049350282" lon="8.802475359967294"><ele>245.0</ele><time>2026-04-01T13:27:05.002Z</time></trkpt><trkpt lat="39.09080469821064" lon="8.802674665995527"><ele>245.0</ele><time>2026-04-01T13:27:06.002Z</time></trkpt><trkpt lat="39.09082140946735" lon="8.802879890896863"><ele>245.0</ele><time>2026-04-01T13:27:07.002Z</time></trkpt><trkpt lat="39.09084167033332" lon="8.803091129427996"><ele>245.0</ele><time>2026-04-01T13:27:08.002Z</time></trkpt><trkpt lat="39.090860332411836" lon="8.803304277367276"><ele>246.0</ele><time>2026-04-01T13:27:09.002Z</time></trkpt><trkpt lat="39.09087906775136" lon="8.803522589224904"><ele>247.0</ele><time>2026-04-01T13:27:10.002Z</time></trkpt><trkpt lat="39.090897363688605" lon="8.803746389700553"><ele>248.0</ele><time>2026-04-01T13:27:11.002Z</time></trkpt><trkpt lat="39.09091649769158" lon="8.803973630943771"><ele>248.0</ele><time>2026-04-01T13:27:12.002Z</time></trkpt><trkpt lat="39.09093364685729" lon="8.804205118693016"><ele>248.0</ele><time>2026-04-01T13:27:13.002Z</time></trkpt><trkpt lat="39.090950096617696" lon="8.804438126483426"><ele>248.0</ele><time>2026-04-01T13:27:14.002Z</time></trkpt><trkpt lat="39.09096779745949" lon="8.804673467862386"><ele>248.33333333333334</ele><time>2026-04-01T13:27:15.002Z</time></trkpt><trkpt lat="39.0909830473493" lon="8.804909022572252"><ele>248.66666666666669</ele><time>2026-04-01T13:27:16.002Z</time></trkpt><trkpt lat="39.09100745735382" lon="8.805141865982922"><ele>249.0</ele><time>2026-04-01T13:27:17.002Z</time></trkpt><trkpt lat="39.09104815547551" lon="8.805369743564007"><ele>251.0</ele><time>2026-04-01T13:27:18.002Z</time></trkpt><trkpt lat="39.091092162352986" lon="8.805589901270869"><ele>253.0</ele><time>2026-04-01T13:27:19.002Z</time></trkpt><trkpt lat="39.091138935939355" lon="8.805803158416271"><ele>255.0</ele><time>2026-04-01T13:27:20.002Z</time></trkpt><trkpt lat="39.0911850820021" lon="8.806013912431986"><ele>258.0</ele><time>2026-04-01T13:27:21.002Z</time></trkpt><trkpt lat="39.09123120396906" lon="8.806220771102234"><ele>261.0</ele><time>2026-04-01T13:27:22.002Z</time></trkpt><trkpt lat="39.09127848340339" lon="8.806425804874543"><ele>264.0</ele><time>2026-04-01T13:27:23.002Z</time></trkpt><trkpt lat="39.091326506071724" lon="8.806628080364172"><ele>267.0</ele><time>2026-04-01T13:27:24.002Z</time></trkpt><trkpt lat="39.091369834544516" lon="8.80683227856981"><ele>270.0</ele><time>2026-04-01T13:27:25.002Z</time></trkpt><trkpt lat="39.09141723801994" lon="8.807037081894574"><ele>273.0</ele><time>2026-04-01T13:27:26.002Z</time></trkpt><trkpt lat="39.09146534893835" lon="8.807245283398716"><ele>273.0</ele><time>2026-04-01T13:27:27.002Z</time></trkpt><trkpt lat="39.09151212605576" lon="8.807454118441942"><ele>273.0</ele><time>2026-04-01T13:27:28.002Z</time></trkpt><trkpt lat="39.09155361625682" lon="8.807661797508047"><ele>273.0</ele><time>2026-04-01T13:27:29.002Z</time></trkpt><trkpt lat="39.0915988302173" lon="8.807867598315644"><ele>269.6666666666667</ele><time>2026-04-01T13:27:30.002Z</time></trkpt><trkpt lat="39.09164010065722" lon="8.808067583281941"><ele>266.33333333333337</ele><time>2026-04-01T13:27:31.001Z</time></trkpt><trkpt lat="39.09168077487897" lon="8.808265785568354"><ele>263.0</ele><time>2026-04-01T13:27:32.001Z</time></trkpt><trkpt lat="39.09171857040759" lon="8.808461265837058"><ele>265.0</ele><time>2026-04-01T13:27:33.001Z</time></trkpt><trkpt lat="39.09175891450152" lon="8.808659056326505"><ele>267.0</ele><time>2026-04-01T13:27:34.001Z</time></trkpt><trkpt lat="39.09180392800312" lon="8.80883698922884"><ele>269.0</ele><time>2026-04-01T13:27:35.001Z</time></trkpt><trkpt lat="39.09185730221332" lon="8.809002063524135"><ele>271.0</ele><time>2026-04-01T13:27:36.001Z</time></trkpt><trkpt lat="39.0919319117774" lon="8.80913932168733"><ele>271.0</ele><time>2026-04-01T13:27:37.001Z</time></trkpt><trkpt lat="39.092009771274505" lon="8.809264090651046"><ele>271.0</ele><time>2026-04-01T13:27:38.001Z</time></trkpt><trkpt lat="39.092093070652325" lon="8.809377799741522"><ele>271.0</ele><time>2026-04-01T13:27:39.001Z</time></trkpt><trkpt lat="39.09218764029674" lon="8.809495750355202"><ele>271.0</ele><time>2026-04-01T13:27:40.001Z</time></trkpt><trkpt lat="39.09228595256775" lon="8.809621137377482"><ele>271.5</ele><time>2026-04-01T13:27:41.001Z</time></trkpt><trkpt lat="39.09238643129976" lon="8.809746398910677"><ele>272.0</ele><time>2026-04-01T13:27:42.001Z</time></trkpt><trkpt lat="39.092491362748035" lon="8.809877683746063"><ele>272.5</ele><time>2026-04-01T13:27:43.001Z</time></trkpt><trkpt lat="39.09260087710358" lon="8.810010954482319"><ele>273.0</ele><time>2026-04-01T13:27:44.001Z</time></trkpt><trkpt lat="39.09271234866669" lon="8.810146725287218"><ele>274.3333333333333</ele><time>2026-04-01T13:27:45.001Z</time></trkpt><trkpt lat="39.09282807006229" lon="8.81028629568241"><ele>275.66666666666663</ele><time>2026-04-01T13:27:46.001Z</time></trkpt><trkpt lat="39.09294325714788" lon="8.810430912576733"><ele>277.0</ele><time>2026-04-01T13:27:47.001Z</time></trkpt><trkpt lat="39.093053377164296" lon="8.810587282202523"><ele>277.0</ele><time>2026-04-01T13:27:48.001Z</time></trkpt><trkpt lat="39.09314997172154" lon="8.81075639705448"><ele>277.0</ele><time>2026-04-01T13:27:49.001Z</time></trkpt><trkpt lat="39.09323292753475" lon="8.810937002913684"><ele>277.0</ele><time>2026-04-01T13:27:50.001Z</time></trkpt><trkpt lat="39.09330551825442" lon="8.811126286841175"><ele>276.66666666666663</ele><time>2026-04-01T13:27:51.001Z</time></trkpt><trkpt lat="39.0933717545172" lon="8.811318552486375"><ele>276.3333333333333</ele><time>2026-04-01T13:27:52.001Z</time></trkpt><trkpt lat="39.0934262064813" lon="8.811516328966615"><ele>276.0</ele><time>2026-04-01T13:27:53.001Z</time></trkpt><trkpt lat="39.093475679977026" lon="8.811718209936842"><ele>278.6666666666667</ele><time>2026-04-01T13:27:54.001Z</time></trkpt><trkpt lat="39.093531435731265" lon="8.811918097040271"><ele>281.33333333333337</ele><time>2026-04-01T13:27:55.001Z</time></trkpt><trkpt lat="39.0935877693956" lon="8.812116618342557"><ele>284.0</ele><time>2026-04-01T13:27:56.001Z</time></trkpt><trkpt lat="39.09364306911818" lon="8.812313639625463"><ele>284.0</ele><time>2026-04-01T13:27:57.001Z</time></trkpt><trkpt lat="39.09369260682518" lon="8.812507863158201"><ele>284.0</ele><time>2026-04-01T13:27:58.001Z</time></trkpt><trkpt lat="39.093732433943764" lon="8.812682911151505"><ele>284.0</ele><time>2026-04-01T13:27:59.001Z</time></trkpt><trkpt lat="39.09375840742359" lon="8.812834429635375"><ele>284.0</ele><time>2026-04-01T13:28:00.001Z</time></trkpt><trkpt lat="39.09376000504018" lon="8.812961520058337"><ele>284.0</ele><time>2026-04-01T13:28:01.001Z</time></trkpt><trkpt lat="39.09374741579526" lon="8.813074214344374"><ele>284.0</ele><time>2026-04-01T13:28:02.001Z</time></trkpt><trkpt lat="39.09371295836738" lon="8.813193694483138"><ele>284.0</ele><time>2026-04-01T13:28:03.001Z</time></trkpt><trkpt lat="39.093664029568075" lon="8.813320029939499"><ele>284.0</ele><time>2026-04-01T13:28:04.001Z</time></trkpt><trkpt lat="39.09360783788082" lon="8.81346761402405"><ele>284.0</ele><time>2026-04-01T13:28:05.001Z</time></trkpt><trkpt lat="39.09354513185645" lon="8.813618831404971"><ele>284.0</ele><time>2026-04-01T13:28:06.001Z</time></trkpt><trkpt lat="39.09348682348835" lon="8.813780162347328"><ele>284.0</ele><time>2026-04-01T13:28:07.001Z</time></trkpt><trkpt lat="39.093420238094645" lon="8.8139468277981"><ele>284.0</ele><time>2026-04-01T13:28:08.001Z</time></trkpt><trkpt lat="39.09334393723289" lon="8.81411762855377"><ele>284.0</ele><time>2026-04-01T13:28:09.001Z</time></trkpt><trkpt lat="39.093258624971995" lon="8.814293862791581"><ele>289.33333333333337</ele><time>2026-04-01T13:28:10.001Z</time></trkpt><trkpt lat="39.093168370083106" lon="8.814478403316405"><ele>294.6666666666667</ele><time>2026-04-01T13:28:11.001Z</time></trkpt><trkpt lat="39.093155632461986" lon="8.814677006642725"><ele>300.0</ele><time>2026-04-01T13:28:12.001Z</time></trkpt><trkpt lat="39.09307434314115" lon="8.814895232496243"><ele>300.0</ele><time>2026-04-01T13:28:13.001Z</time></trkpt><trkpt lat="39.09299467304732" lon="8.81510003467274"><ele>300.0</ele><time>2026-04-01T13:28:14.001Z</time></trkpt><trkpt lat="39.09291551113454" lon="8.815309479915515"><ele>300.0</ele><time>2026-04-01T13:28:15.001Z</time></trkpt><trkpt lat="39.092830839564236" lon="8.81552576374116"><ele>298.6666666666667</ele><time>2026-04-01T13:28:16.001Z</time></trkpt><trkpt lat="39.092743697478205" lon="8.815743035122823"><ele>297.33333333333337</ele><time>2026-04-01T13:28:17.001Z</time></trkpt><trkpt lat="39.09265771306546" lon="8.815965057373207"><ele>296.0</ele><time>2026-04-01T13:28:18.001Z</time></trkpt><trkpt lat="39.09257627285108" lon="8.81616729878047"><ele>294.75</ele><time>2026-04-01T13:28:19.001Z</time></trkpt><trkpt lat="39.09250860570669" lon="8.816353971780224"><ele>293.5</ele><time>2026-04-01T13:28:20.001Z</time></trkpt><trkpt lat="39.09245806426411" lon="8.816527939519748"><ele>292.25</ele><time>2026-04-01T13:28:21.001Z</time></trkpt><trkpt lat="39.09242366648364" lon="8.816707913161995"><ele>291.0</ele><time>2026-04-01T13:28:22.001Z</time></trkpt><trkpt lat="39.092406602468785" lon="8.816893179774398"><ele>291.0</ele><time>2026-04-01T13:28:23.001Z</time></trkpt><trkpt lat="39.0924094011021" lon="8.817080358970136"><ele>291.0</ele><time>2026-04-01T13:28:24.001Z</time></trkpt><trkpt lat="39.09242234104416" lon="8.817243482839334"><ele>291.0</ele><time>2026-04-01T13:28:25.001Z</time></trkpt><trkpt lat="39.092444778309115" lon="8.817379970858214"><ele>291.0</ele><time>2026-04-01T13:28:26.001Z</time></trkpt><trkpt lat="39.092463156517184" lon="8.817506332643399"><ele>291.0</ele><time>2026-04-01T13:28:27.001Z</time></trkpt><trkpt lat="39.09247957695584" lon="8.817615807020685"><ele>291.0</ele><time>2026-04-01T13:28:28.001Z</time></trkpt><trkpt lat="39.09249403282592" lon="8.817714977316127"><ele>291.0</ele><time>2026-04-01T13:28:29.001Z</time></trkpt><trkpt lat="39.092504003593184" lon="8.817803571811515"><ele>291.0</ele><time>2026-04-01T13:28:30.001Z</time></trkpt><trkpt lat="39.092526962687685" lon="8.817926043149136"><ele>291.0</ele><time>2026-04-01T13:28:32.001Z</time></trkpt><trkpt lat="39.09254704848082" lon="8.818017440004818"><ele>291.0</ele><time>2026-04-01T13:28:34.001Z</time></trkpt><trkpt lat="39.09249645500191" lon="8.817924369316744"><ele>291.42857142857144</ele><time>2026-04-01T13:36:01.001Z</time></trkpt><trkpt lat="39.092494514916865" lon="8.817824814264512"><ele>291.85714285714283</ele><time>2026-04-01T13:36:03.001Z</time></trkpt><trkpt lat="39.092522948898505" lon="8.817739788765289"><ele>292.2857142857143</ele><time>2026-04-01T13:36:05.001Z</time></trkpt><trkpt lat="39.092457994087084" lon="8.817749813467506"><ele>292.7142857142857</ele><time>2026-04-01T13:36:08.001Z</time></trkpt><trkpt lat="39.09250114817434" lon="8.817856612850782"><ele>293.1428571428571</ele><time>2026-04-01T13:36:11Z</time></trkpt><trkpt lat="39.09253444594817" lon="8.817931377574272"><ele>293.57142857142856</ele><time>2026-04-01T13:36:14Z</time></trkpt><trkpt lat="39.09254154731398" lon="8.818020306829666"><ele>294.0</ele><time>2026-04-01T13:36:19Z</time></trkpt><trkpt lat="39.09254723358685" lon="8.818140996250369"><ele>294.0</ele><time>2026-04-01T13:36:23Z</time></trkpt><trkpt lat="39.09255579062229" lon="8.818250858155551"><ele>294.0</ele><time>2026-04-01T13:36:25Z</time></trkpt><trkpt lat="39.092578871003866" lon="8.81842079912964"><ele>294.0</ele><time>2026-04-01T13:36:27Z</time></trkpt><trkpt lat="39.09259020403349" lon="8.818539045807832"><ele>294.0</ele><time>2026-04-01T13:36:28Z</time></trkpt><trkpt lat="39.0926173462426" lon="8.818694405928724"><ele>294.0</ele><time>2026-04-01T13:36:30Z</time></trkpt><trkpt lat="39.09262556817016" lon="8.818866607733138"><ele>294.59999999999997</ele><time>2026-04-01T13:36:32Z</time></trkpt><trkpt lat="39.09263785058627" lon="8.818964819147896"><ele>295.2</ele><time>2026-04-01T13:36:33Z</time></trkpt><trkpt lat="39.09264978577965" lon="8.819072949712256"><ele>295.79999999999995</ele><time>2026-04-01T13:36:34Z</time></trkpt><trkpt lat="39.09266058525989" lon="8.819186755078258"><ele>296.4</ele><time>2026-04-01T13:36:35Z</time></trkpt><trkpt lat="39.09267768231313" lon="8.819312663563633"><ele>297.0</ele><time>2026-04-01T13:36:36Z</time></trkpt><trkpt lat="39.09268664892471" lon="8.819442329671144"><ele>297.0</ele><time>2026-04-01T13:36:37Z</time></trkpt><trkpt lat="39.09268915656893" lon="8.819550876847273"><ele>297.0</ele><time>2026-04-01T13:36:38Z</time></trkpt><trkpt lat="39.09269447938459" lon="8.819657926137593"><ele>297.0</ele><time>2026-04-01T13:36:39Z</time></trkpt><trkpt lat="39.09270074548564" lon="8.819770330160571"><ele>297.0</ele><time>2026-04-01T13:36:40Z</time></trkpt><trkpt lat="39.09271159211667" lon="8.819883332090166"><ele>297.0</ele><time>2026-04-01T13:36:41Z</time></trkpt><trkpt lat="39.09272547034867" lon="8.819987805770099"><ele>297.0</ele><time>2026-04-01T13:36:42Z</time></trkpt><trkpt lat="39.092738148059105" lon="8.820077507440695"><ele>296.8571428571429</ele><time>2026-04-01T13:36:43Z</time></trkpt><trkpt lat="39.092752867030754" lon="8.82016658194784"><ele>296.7142857142857</ele><time>2026-04-01T13:36:44Z</time></trkpt><trkpt lat="39.092777957545074" lon="8.820245151399849"><ele>296.57142857142856</ele><time>2026-04-01T13:36:45Z</time></trkpt><trkpt lat="39.09282197482915" lon="8.82030462605558"><ele>296.42857142857144</ele><time>2026-04-01T13:36:46Z</time></trkpt><trkpt lat="39.09288375356626" lon="8.820347262724919"><ele>296.2857142857143</ele><time>2026-04-01T13:36:47Z</time></trkpt><trkpt lat="39.092949331747135" lon="8.820353755608286"><ele>296.14285714285717</ele><time>2026-04-01T13:36:48Z</time></trkpt><trkpt lat="39.09304013318353" lon="8.820336424388342"><ele>296.0</ele><time>2026-04-01T13:36:49Z</time></trkpt><trkpt lat="39.093155582330034" lon="8.820272194761937"><ele>296.0</ele><time>2026-04-01T13:36:50Z</time></trkpt><trkpt lat="39.093244613974406" lon="8.820221318542483"><ele>296.0</ele><time>2026-04-01T13:36:51Z</time></trkpt><trkpt lat="39.093328581043046" lon="8.82016347117095"><ele>296.0</ele><time>2026-04-01T13:36:52Z</time></trkpt><trkpt lat="39.09341243310431" lon="8.820095720643266"><ele>296.0</ele><time>2026-04-01T13:36:53Z</time></trkpt><trkpt lat="39.09349403888082" lon="8.820032025146041"><ele>296.0</ele><time>2026-04-01T13:36:54Z</time></trkpt><trkpt lat="39.09358056651425" lon="8.81997421903318"><ele>294.7142857142857</ele><time>2026-04-01T13:36:55Z</time></trkpt><trkpt lat="39.093657559146415" lon="8.819930683143669"><ele>293.42857142857144</ele><time>2026-04-01T13:36:56Z</time></trkpt><trkpt lat="39.09372334985632" lon="8.819895189246232"><ele>292.1428571428571</ele><time>2026-04-01T13:36:57Z</time></trkpt><trkpt lat="39.09378309952885" lon="8.819865019969276"><ele>290.8571428571429</ele><time>2026-04-01T13:36:58Z</time></trkpt><trkpt lat="39.09384435062296" lon="8.819823239802648"><ele>289.57142857142856</ele><time>2026-04-01T13:36:59Z</time></trkpt><trkpt lat="39.09390989715874" lon="8.81977294432971"><ele>288.2857142857143</ele><time>2026-04-01T13:37:00Z</time></trkpt><trkpt lat="39.09396991207122" lon="8.819722308041273"><ele>287.0</ele><time>2026-04-01T13:37:01Z</time></trkpt><trkpt lat="39.09406976285046" lon="8.81962760856443"><ele>287.83333333333337</ele><time>2026-04-01T13:37:03Z</time></trkpt><trkpt lat="39.09411529307239" lon="8.819564768928428"><ele>288.6666666666667</ele><time>2026-04-01T13:37:04Z</time></trkpt><trkpt lat="39.09415099404336" lon="8.819492342196776"><ele>289.5</ele><time>2026-04-01T13:37:05Z</time></trkpt><trkpt lat="39.09417663320693" lon="8.819409146662748"><ele>290.3333333333333</ele><time>2026-04-01T13:37:06Z</time></trkpt><trkpt lat="39.09418626081628" lon="8.819314333253738"><ele>291.16666666666663</ele><time>2026-04-01T13:37:07Z</time></trkpt><trkpt lat="39.0941806909474" lon="8.819208884314202"><ele>292.0</ele><time>2026-04-01T13:37:08Z</time></trkpt><trkpt lat="39.094172060570585" lon="8.819085699230115"><ele>292.0</ele><time>2026-04-01T13:37:09Z</time></trkpt><trkpt lat="39.09414630662212" lon="8.818915150793075"><ele>292.0</ele><time>2026-04-01T13:37:10Z</time></trkpt><trkpt lat="39.09411533675477" lon="8.81870421983543"><ele>292.0</ele><time>2026-04-01T13:37:11Z</time></trkpt><trkpt lat="39.094081179185636" lon="8.818525964010425"><ele>292.0</ele><time>2026-04-01T13:37:12Z</time></trkpt><trkpt lat="39.09406892737898" lon="8.818379313995536"><ele>292.0</ele><time>2026-04-01T13:37:13Z</time></trkpt><trkpt lat="39.094090820998716" lon="8.8182492809471"><ele>292.0</ele><time>2026-04-01T13:37:14Z</time></trkpt><trkpt lat="39.0941040964571" lon="8.818134192540407"><ele>292.0</ele><time>2026-04-01T13:37:15Z</time></trkpt><trkpt lat="39.09405749450969" lon="8.817992540340063"><ele>292.0</ele><time>2026-04-01T13:37:16Z</time></trkpt><trkpt lat="39.09405638310637" lon="8.817869952086216"><ele>292.0</ele><time>2026-04-01T13:37:17Z</time></trkpt><trkpt lat="39.09405079439008" lon="8.81774333798704"><ele>289.6</ele><time>2026-04-01T13:37:18Z</time></trkpt><trkpt lat="39.09404221830284" lon="8.817623440017826"><ele>287.2</ele><time>2026-04-01T13:37:19Z</time></trkpt><trkpt lat="39.09403140460891" lon="8.81749929119483"><ele>284.8</ele><time>2026-04-01T13:37:20Z</time></trkpt><trkpt lat="39.0940190541645" lon="8.817376558674145"><ele>282.4</ele><time>2026-04-01T13:37:21Z</time></trkpt><trkpt lat="39.094004453531824" lon="8.8172546805997"><ele>280.0</ele><time>2026-04-01T13:37:22Z</time></trkpt><trkpt lat="39.093976821725605" lon="8.817137088673931"><ele>280.0</ele><time>2026-04-01T13:37:23Z</time></trkpt><trkpt lat="39.093966763383406" lon="8.81701729613988"><ele>280.0</ele><time>2026-04-01T13:37:24Z</time></trkpt><trkpt lat="39.09396084134984" lon="8.81689730068623"><ele>280.0</ele><time>2026-04-01T13:37:25Z</time></trkpt><trkpt lat="39.093958575965395" lon="8.816788709893915"><ele>280.0</ele><time>2026-04-01T13:37:26Z</time></trkpt><trkpt lat="39.093974235605984" lon="8.816687692246093"><ele>280.0</ele><time>2026-04-01T13:37:27Z</time></trkpt><trkpt lat="39.09401403017124" lon="8.81660640313558"><ele>280.0</ele><time>2026-04-01T13:37:28Z</time></trkpt><trkpt lat="39.094064367436985" lon="8.81654467483468"><ele>280.8333333333333</ele><time>2026-04-01T13:37:29Z</time></trkpt><trkpt lat="39.09413149801737" lon="8.816511657991787"><ele>281.66666666666663</ele><time>2026-04-01T13:37:30Z</time></trkpt><trkpt lat="39.09420345011266" lon="8.816515148010147"><ele>282.5</ele><time>2026-04-01T13:37:31Z</time></trkpt><trkpt lat="39.09427540003576" lon="8.81655984087513"><ele>283.3333333333333</ele><time>2026-04-01T13:37:32Z</time></trkpt><trkpt lat="39.09433821436847" lon="8.816639241904005"><ele>284.1666666666667</ele><time>2026-04-01T13:37:33Z</time></trkpt><trkpt lat="39.094409803457445" lon="8.816755158147162"><ele>285.0</ele><time>2026-04-01T13:37:34Z</time></trkpt><trkpt lat="39.09448986202507" lon="8.816900585856017"><ele>286.2</ele><time>2026-04-01T13:37:35Z</time></trkpt><trkpt lat="39.094542642197545" lon="8.817011895160556"><ele>287.4</ele><time>2026-04-01T13:37:36Z</time></trkpt><trkpt lat="39.094592805205735" lon="8.817115590386818"><ele>288.6</ele><time>2026-04-01T13:37:37Z</time></trkpt><trkpt lat="39.094650307215545" lon="8.817207857453141"><ele>289.8</ele><time>2026-04-01T13:37:38Z</time></trkpt><trkpt lat="39.09471548255664" lon="8.81730950662246"><ele>291.0</ele><time>2026-04-01T13:37:39Z</time></trkpt><trkpt lat="39.09477477569013" lon="8.817411058834105"><ele>291.0</ele><time>2026-04-01T13:37:40Z</time></trkpt><trkpt lat="39.094828539075976" lon="8.817514032956117"><ele>291.0</ele><time>2026-04-01T13:37:41Z</time></trkpt><trkpt lat="39.09487287334108" lon="8.817617497070056"><ele>291.0</ele><time>2026-04-01T13:37:42Z</time></trkpt><trkpt lat="39.094914474596955" lon="8.817720971473651"><ele>291.0</ele><time>2026-04-01T13:37:43Z</time></trkpt><trkpt lat="39.094960402644205" lon="8.817819367586702"><ele>291.0</ele><time>2026-04-01T13:37:44Z</time></trkpt><trkpt lat="39.09500871178566" lon="8.817918161130125"><ele>292.0</ele><time>2026-04-01T13:37:45Z</time></trkpt><trkpt lat="39.09505269444922" lon="8.818016918566446"><ele>293.0</ele><time>2026-04-01T13:37:46Z</time></trkpt><trkpt lat="39.095090299468666" lon="8.818117697110724"><ele>294.0</ele><time>2026-04-01T13:37:47Z</time></trkpt><trkpt lat="39.09512533710706" lon="8.818218743855148"><ele>295.0</ele><time>2026-04-01T13:37:48Z</time></trkpt><trkpt lat="39.09515345601872" lon="8.818325685134312"><ele>296.0</ele><time>2026-04-01T13:37:49Z</time></trkpt><trkpt lat="39.095166021716196" lon="8.81844418126348"><ele>297.0</ele><time>2026-04-01T13:37:49.999Z</time></trkpt><trkpt lat="39.09518562217918" lon="8.818562116931355"><ele>299.0</ele><time>2026-04-01T13:37:50.999Z</time></trkpt><trkpt lat="39.09520414757633" lon="8.818678672755846"><ele>301.0</ele><time>2026-04-01T13:37:51.999Z</time></trkpt><trkpt lat="39.09522555935893" lon="8.818795538815541"><ele>303.0</ele><time>2026-04-01T13:37:52.999Z</time></trkpt><trkpt lat="39.095251156011344" lon="8.818912325579046"><ele>305.0</ele><time>2026-04-01T13:37:53.999Z</time></trkpt><trkpt lat="39.09529558121867" lon="8.819052948420186"><ele>307.0</ele><time>2026-04-01T13:37:55Z</time></trkpt><trkpt lat="39.095358281251066" lon="8.819247655319412"><ele>309.2</ele><time>2026-04-01T13:37:56Z</time></trkpt><trkpt lat="39.09542902923937" lon="8.819437200900945"><ele>311.4</ele><time>2026-04-01T13:37:57Z</time></trkpt><trkpt lat="39.095486394161405" lon="8.81958663843635"><ele>313.6</ele><time>2026-04-01T13:37:58Z</time></trkpt><trkpt lat="39.09553192973608" lon="8.819673673973618"><ele>315.8</ele><time>2026-04-01T13:37:59Z</time></trkpt><trkpt lat="39.09556852857913" lon="8.819755245953864"><ele>318.0</ele><time>2026-04-01T13:38:00Z</time></trkpt><trkpt lat="39.09560037297145" lon="8.819831946392767"><ele>318.0</ele><time>2026-04-01T13:38:01Z</time></trkpt><trkpt lat="39.0956371922514" lon="8.819904678323514"><ele>318.0</ele><time>2026-04-01T13:38:02Z</time></trkpt><trkpt lat="39.09567214576507" lon="8.820052118913734"><ele>318.0</ele><time>2026-04-01T13:38:04Z</time></trkpt><trkpt lat="39.095684975476864" lon="8.82013464422178"><ele>318.0</ele><time>2026-04-01T13:38:05Z</time></trkpt><trkpt lat="39.09570524133341" lon="8.820214489588329"><ele>318.0</ele><time>2026-04-01T13:38:06Z</time></trkpt><trkpt lat="39.09573451247629" lon="8.820290946024079"><ele>318.0</ele><time>2026-04-01T13:38:07Z</time></trkpt><trkpt lat="39.09576399697956" lon="8.82036624059313"><ele>318.0</ele><time>2026-04-01T13:38:08Z</time></trkpt><trkpt lat="39.095797672007706" lon="8.820435873503717"><ele>315.3333333333333</ele><time>2026-04-01T13:38:09Z</time></trkpt><trkpt lat="39.09584981446197" lon="8.820575383988281"><ele>312.6666666666667</ele><time>2026-04-01T13:38:11Z</time></trkpt><trkpt lat="39.09587611203157" lon="8.820654312286022"><ele>310.0</ele><time>2026-04-01T13:38:12Z</time></trkpt><trkpt lat="39.095914583143006" lon="8.82073393504903"><ele>307.33333333333337</ele><time>2026-04-01T13:38:13Z</time></trkpt><trkpt lat="39.09595561087424" lon="8.820815773269807"><ele>304.6666666666667</ele><time>2026-04-01T13:38:14Z</time></trkpt><trkpt lat="39.0960033109376" lon="8.820895038682805"><ele>302.0</ele><time>2026-04-01T13:38:15Z</time></trkpt><trkpt lat="39.09604943023832" lon="8.820968399895976"><ele>305.33333333333337</ele><time>2026-04-01T13:38:16Z</time></trkpt><trkpt lat="39.09609412559223" lon="8.821041876461779"><ele>308.6666666666667</ele><time>2026-04-01T13:38:17Z</time></trkpt><trkpt lat="39.09613294005298" lon="8.821120375790231"><ele>312.0</ele><time>2026-04-01T13:38:18Z</time></trkpt><trkpt lat="39.09618158801334" lon="8.821197678427028"><ele>315.3333333333333</ele><time>2026-04-01T13:38:19Z</time></trkpt><trkpt lat="39.09622771677786" lon="8.821277348410261"><ele>318.66666666666663</ele><time>2026-04-01T13:38:20Z</time></trkpt><trkpt lat="39.096268576044736" lon="8.821362035266542"><ele>322.0</ele><time>2026-04-01T13:38:21Z</time></trkpt><trkpt lat="39.09630838894313" lon="8.821455135010448"><ele>322.0</ele><time>2026-04-01T13:38:22Z</time></trkpt><trkpt lat="39.09633847642266" lon="8.821548819940748"><ele>322.0</ele><time>2026-04-01T13:38:23Z</time></trkpt><trkpt lat="39.09636176801151" lon="8.821659298880094"><ele>322.0</ele><time>2026-04-01T13:38:24Z</time></trkpt><trkpt lat="39.0963733606826" lon="8.821771113898093"><ele>322.0</ele><time>2026-04-01T13:38:25Z</time></trkpt><trkpt lat="39.09638157805601" lon="8.821886833921408"><ele>322.0</ele><time>2026-04-01T13:38:26Z</time></trkpt><trkpt lat="39.09638256416418" lon="8.82200131877317"><ele>322.0</ele><time>2026-04-01T13:38:27Z</time></trkpt><trkpt lat="39.09639219986894" lon="8.822119589007388"><ele>324.8</ele><time>2026-04-01T13:38:28Z</time></trkpt><trkpt lat="39.096400121721615" lon="8.82224046304838"><ele>327.6</ele><time>2026-04-01T13:38:29Z</time></trkpt><trkpt lat="39.096412266250255" lon="8.822375782710326"><ele>330.40000000000003</ele><time>2026-04-01T13:38:30Z</time></trkpt><trkpt lat="39.09641947846398" lon="8.822517130613605"><ele>333.20000000000005</ele><time>2026-04-01T13:38:31Z</time></trkpt><trkpt lat="39.09642821330122" lon="8.822666981452802"><ele>336.0</ele><time>2026-04-01T13:38:32Z</time></trkpt><trkpt lat="39.096438897121395" lon="8.822822226586153"><ele>337.5</ele><time>2026-04-01T13:38:33Z</time></trkpt><trkpt lat="39.09644903763065" lon="8.822975316474382"><ele>339.0</ele><time>2026-04-01T13:38:34Z</time></trkpt><trkpt lat="39.09645994138878" lon="8.823129862235426"><ele>340.5</ele><time>2026-04-01T13:38:35Z</time></trkpt><trkpt lat="39.096475311112265" lon="8.82328352595075"><ele>342.0</ele><time>2026-04-01T13:38:36Z</time></trkpt><trkpt lat="39.096502112865224" lon="8.823436058339441"><ele>344.5</ele><time>2026-04-01T13:38:37Z</time></trkpt><trkpt lat="39.096536978834465" lon="8.823610200919548"><ele>347.0</ele><time>2026-04-01T13:38:38Z</time></trkpt><trkpt lat="39.096569847204904" lon="8.823736982179101"><ele>349.5</ele><time>2026-04-01T13:38:39Z</time></trkpt><trkpt lat="39.096602511324214" lon="8.82387674085332"><ele>352.0</ele><time>2026-04-01T13:38:40Z</time></trkpt><trkpt lat="39.096628700032454" lon="8.824022171420655"><ele>348.0</ele><time>2026-04-01T13:38:41Z</time></trkpt><trkpt lat="39.096657005784465" lon="8.824158929864902"><ele>344.0</ele><time>2026-04-01T13:38:42Z</time></trkpt><trkpt lat="39.096680910595175" lon="8.824291205576424"><ele>340.0</ele><time>2026-04-01T13:38:43Z</time></trkpt><trkpt lat="39.09670597763489" lon="8.824426947510885"><ele>336.0</ele><time>2026-04-01T13:38:44Z</time></trkpt><trkpt lat="39.09673468952641" lon="8.824560387322927"><ele>332.0</ele><time>2026-04-01T13:38:45Z</time></trkpt><trkpt lat="39.09676745658486" lon="8.824689687638628"><ele>332.0</ele><time>2026-04-01T13:38:46Z</time></trkpt><trkpt lat="39.096794492188856" lon="8.824822574272247"><ele>332.0</ele><time>2026-04-01T13:38:47Z</time></trkpt><trkpt lat="39.09682550517754" lon="8.824954453379972"><ele>332.0</ele><time>2026-04-01T13:38:48Z</time></trkpt><trkpt lat="39.09686582474819" lon="8.825086807576934"><ele>332.0</ele><time>2026-04-01T13:38:49Z</time></trkpt><trkpt lat="39.09691361653162" lon="8.825212773232126"><ele>332.0</ele><time>2026-04-01T13:38:50Z</time></trkpt><trkpt lat="39.096966679101634" lon="8.825333838059874"><ele>335.5</ele><time>2026-04-01T13:38:51Z</time></trkpt><trkpt lat="39.0970240106243" lon="8.825453898793796"><ele>339.0</ele><time>2026-04-01T13:38:52Z</time></trkpt><trkpt lat="39.097082683451276" lon="8.825580906487852"><ele>342.5</ele><time>2026-04-01T13:38:53Z</time></trkpt><trkpt lat="39.097131862368386" lon="8.825714349482498"><ele>346.0</ele><time>2026-04-01T13:38:54Z</time></trkpt><trkpt lat="39.09717319960708" lon="8.825852312631337"><ele>347.20000000000005</ele><time>2026-04-01T13:38:55Z</time></trkpt><trkpt lat="39.09720295578519" lon="8.825994747242696"><ele>348.40000000000003</ele><time>2026-04-01T13:38:56Z</time></trkpt><trkpt lat="39.097223811323744" lon="8.826131165356212"><ele>349.6</ele><time>2026-04-01T13:38:57Z</time></trkpt><trkpt lat="39.097231306098394" lon="8.826267788527012"><ele>350.8</ele><time>2026-04-01T13:38:58Z</time></trkpt><trkpt lat="39.097224901208435" lon="8.826408422142881"><ele>352.0</ele><time>2026-04-01T13:38:59Z</time></trkpt><trkpt lat="39.09720282168509" lon="8.826544350094384"><ele>352.0</ele><time>2026-04-01T13:39:00Z</time></trkpt><trkpt lat="39.09717190295355" lon="8.826663123661021"><ele>352.0</ele><time>2026-04-01T13:39:01Z</time></trkpt><trkpt lat="39.09715569806936" lon="8.82675699258707"><ele>352.0</ele><time>2026-04-01T13:39:02Z</time></trkpt><trkpt lat="39.09717650257458" lon="8.826913756176069"><ele>352.0</ele><time>2026-04-01T13:39:04Z</time></trkpt><trkpt lat="39.09724538938733" lon="8.826987381011046"><ele>352.0</ele><time>2026-04-01T13:39:05Z</time></trkpt><trkpt lat="39.097298191776865" lon="8.827031955498558"><ele>352.0</ele><time>2026-04-01T13:39:06Z</time></trkpt><trkpt lat="39.09737841647364" lon="8.827046446674068"><ele>349.0</ele><time>2026-04-01T13:39:07Z</time></trkpt><trkpt lat="39.09746581783083" lon="8.82702647400532"><ele>346.0</ele><time>2026-04-01T13:39:07.999Z</time></trkpt><trkpt lat="39.09758364971416" lon="8.826986835250427"><ele>343.0</ele><time>2026-04-01T13:39:08.999Z</time></trkpt><trkpt lat="39.09769466542138" lon="8.82692598596663"><ele>340.0</ele><time>2026-04-01T13:39:09.999Z</time></trkpt><trkpt lat="39.09779863269239" lon="8.82688584399807"><ele>337.0</ele><time>2026-04-01T13:39:10.999Z</time></trkpt><trkpt lat="39.0978820992959" lon="8.8268695521814"><ele>337.0</ele><time>2026-04-01T13:39:11.999Z</time></trkpt><trkpt lat="39.09795074766014" lon="8.82688058787373"><ele>337.0</ele><time>2026-04-01T13:39:12.999Z</time></trkpt><trkpt lat="39.098018026512484" lon="8.826921111927021"><ele>337.0</ele><time>2026-04-01T13:39:13.999Z</time></trkpt><trkpt lat="39.09809176864752" lon="8.826989895530899"><ele>337.0</ele><time>2026-04-01T13:39:14.999Z</time></trkpt><trkpt lat="39.09818339096944" lon="8.82711813038073"><ele>337.0</ele><time>2026-04-01T13:39:15.999Z</time></trkpt><trkpt lat="39.09828138889087" lon="8.827231975013632"><ele>336.20000000000005</ele><time>2026-04-01T13:39:16.999Z</time></trkpt><trkpt lat="39.0983770308453" lon="8.827323961249391"><ele>335.4</ele><time>2026-04-01T13:39:17.999Z</time></trkpt><trkpt lat="39.09845983752053" lon="8.827407155771247"><ele>334.6</ele><time>2026-04-01T13:39:18.999Z</time></trkpt><trkpt lat="39.09854054828012" lon="8.827475582932697"><ele>333.79999999999995</ele><time>2026-04-01T13:39:19.999Z</time></trkpt><trkpt lat="39.098608290636406" lon="8.827527684891987"><ele>333.0</ele><time>2026-04-01T13:39:20.999Z</time></trkpt><trkpt lat="39.098670021339395" lon="8.82757736200101"><ele>336.5</ele><time>2026-04-01T13:39:21.999Z</time></trkpt><trkpt lat="39.09872555458836" lon="8.827651881803526"><ele>340.0</ele><time>2026-04-01T13:39:22.999Z</time></trkpt><trkpt lat="39.09876573809521" lon="8.827746256679646"><ele>343.5</ele><time>2026-04-01T13:39:23.999Z</time></trkpt><trkpt lat="39.09879283878914" lon="8.827841883472582"><ele>347.0</ele><time>2026-04-01T13:39:24.999Z</time></trkpt><trkpt lat="39.09881014345604" lon="8.827944119853726"><ele>350.5</ele><time>2026-04-01T13:39:25.999Z</time></trkpt><trkpt lat="39.09881862687602" lon="8.828045366183819"><ele>354.0</ele><time>2026-04-01T13:39:26.999Z</time></trkpt><trkpt lat="39.09882872796769" lon="8.828150348117136"><ele>354.0</ele><time>2026-04-01T13:39:27.999Z</time></trkpt><trkpt lat="39.09885134413469" lon="8.828248511649141"><ele>354.0</ele><time>2026-04-01T13:39:28.999Z</time></trkpt><trkpt lat="39.098864159814475" lon="8.828345929843438"><ele>354.0</ele><time>2026-04-01T13:39:29.999Z</time></trkpt><trkpt lat="39.09886325682245" lon="8.828444232024358"><ele>354.0</ele><time>2026-04-01T13:39:30.999Z</time></trkpt><trkpt lat="39.09884177378852" lon="8.828541890265738"><ele>354.0</ele><time>2026-04-01T13:39:31.999Z</time></trkpt><trkpt lat="39.098808349671614" lon="8.828632777171938"><ele>354.0</ele><time>2026-04-01T13:39:32.999Z</time></trkpt><trkpt lat="39.09876358337044" lon="8.828720833010037"><ele>355.2</ele><time>2026-04-01T13:39:33.999Z</time></trkpt><trkpt lat="39.09871385267259" lon="8.828814611320535"><ele>356.4</ele><time>2026-04-01T13:39:34.999Z</time></trkpt><trkpt lat="39.09866946695619" lon="8.82891673835365"><ele>357.6</ele><time>2026-04-01T13:39:35.999Z</time></trkpt><trkpt lat="39.09863300770742" lon="8.82902367225532"><ele>358.8</ele><time>2026-04-01T13:39:36.999Z</time></trkpt><trkpt lat="39.09861123841764" lon="8.829141813781323"><ele>360.0</ele><time>2026-04-01T13:39:37.999Z</time></trkpt><trkpt lat="39.09859445629918" lon="8.829251407980998"><ele>360.1666666666667</ele><time>2026-04-01T13:39:38.999Z</time></trkpt><trkpt lat="39.09858717866313" lon="8.829367386704408"><ele>360.3333333333333</ele><time>2026-04-01T13:39:39.999Z</time></trkpt><trkpt lat="39.09858398069569" lon="8.82948245098269"><ele>360.5</ele><time>2026-04-01T13:39:40.999Z</time></trkpt><trkpt lat="39.098577365062226" lon="8.829592650235984"><ele>360.66666666666663</ele><time>2026-04-01T13:39:41.999Z</time></trkpt><trkpt lat="39.09857672986451" lon="8.829698019730273"><ele>360.8333333333333</ele><time>2026-04-01T13:39:42.999Z</time></trkpt><trkpt lat="39.09857858527967" lon="8.829790188770906"><ele>361.0</ele><time>2026-04-01T13:39:43.999Z</time></trkpt><trkpt lat="39.098589050169224" lon="8.829882428980701"><ele>361.0</ele><time>2026-04-01T13:39:44.999Z</time></trkpt><trkpt lat="39.09860096657178" lon="8.829966390800475"><ele>361.0</ele><time>2026-04-01T13:39:45.999Z</time></trkpt><trkpt lat="39.09862055509915" lon="8.830061299088559"><ele>361.0</ele><time>2026-04-01T13:39:46.999Z</time></trkpt><trkpt lat="39.09865846063738" lon="8.830172356426289"><ele>361.0</ele><time>2026-04-01T13:39:47.999Z</time></trkpt><trkpt lat="39.09870586589434" lon="8.830292262181626"><ele>361.0</ele><time>2026-04-01T13:39:48.999Z</time></trkpt><trkpt lat="39.098753019613" lon="8.83041021292134"><ele>361.0</ele><time>2026-04-01T13:39:49.999Z</time></trkpt><trkpt lat="39.09879569482301" lon="8.8305284495866"><ele>364.20000000000005</ele><time>2026-04-01T13:39:50.999Z</time></trkpt><trkpt lat="39.09884246935571" lon="8.830648564512236"><ele>367.40000000000003</ele><time>2026-04-01T13:39:51.999Z</time></trkpt><trkpt lat="39.09888629510676" lon="8.830774144256754"><ele>370.6</ele><time>2026-04-01T13:39:52.999Z</time></trkpt><trkpt lat="39.0989335120544" lon="8.830900526567666"><ele>373.8</ele><time>2026-04-01T13:39:53.999Z</time></trkpt><trkpt lat="39.09897556330768" lon="8.831024213025835"><ele>377.0</ele><time>2026-04-01T13:39:54.999Z</time></trkpt><trkpt lat="39.099008309014025" lon="8.831150880914391"><ele>379.6666666666667</ele><time>2026-04-01T13:39:55.999Z</time></trkpt><trkpt lat="39.0990241306551" lon="8.831277805891947"><ele>382.33333333333337</ele><time>2026-04-01T13:39:56.999Z</time></trkpt><trkpt lat="39.09904503319931" lon="8.831402582642228"><ele>385.0</ele><time>2026-04-01T13:39:57.999Z</time></trkpt><trkpt lat="39.09907188228131" lon="8.831498872108572"><ele>387.6666666666667</ele><time>2026-04-01T13:39:58.999Z</time></trkpt><trkpt lat="39.09909748054931" lon="8.831589967142625"><ele>390.3333333333333</ele><time>2026-04-01T13:39:59.999Z</time></trkpt><trkpt lat="39.099112019991566" lon="8.831681421314054"><ele>393.0</ele><time>2026-04-01T13:40:01Z</time></trkpt><trkpt lat="39.0991153517827" lon="8.831773141026334"><ele>394.7142857142857</ele><time>2026-04-01T13:40:02Z</time></trkpt><trkpt lat="39.099106661922086" lon="8.831858452966236"><ele>396.42857142857144</ele><time>2026-04-01T13:40:03Z</time></trkpt><trkpt lat="39.09907739586099" lon="8.83193923379109"><ele>398.1428571428571</ele><time>2026-04-01T13:40:04Z</time></trkpt><trkpt lat="39.09906420715095" lon="8.832029097106705"><ele>399.8571428571429</ele><time>2026-04-01T13:40:05Z</time></trkpt><trkpt lat="39.09906330558375" lon="8.832118311999627"><ele>401.57142857142856</ele><time>2026-04-01T13:40:06Z</time></trkpt><trkpt lat="39.09908108181116" lon="8.832202523041353"><ele>403.2857142857143</ele><time>2026-04-01T13:40:07Z</time></trkpt><trkpt lat="39.099118164801936" lon="8.83228451676509"><ele>405.0</ele><time>2026-04-01T13:40:08Z</time></trkpt><trkpt lat="39.09918730408721" lon="8.832357732518034"><ele>401.0</ele><time>2026-04-01T13:40:09Z</time></trkpt><trkpt lat="39.09927602601294" lon="8.832452797977957"><ele>397.0</ele><time>2026-04-01T13:40:10Z</time></trkpt><trkpt lat="39.099339691421015" lon="8.832556807126577"><ele>393.0</ele><time>2026-04-01T13:40:11Z</time></trkpt><trkpt lat="39.099388830247214" lon="8.832661897728581"><ele>389.0</ele><time>2026-04-01T13:40:12Z</time></trkpt><trkpt lat="39.0994273346835" lon="8.832765945231268"><ele>385.0</ele><time>2026-04-01T13:40:13Z</time></trkpt><trkpt lat="39.09945161158121" lon="8.832873735054225"><ele>385.00000000000006</ele><time>2026-04-01T13:40:14Z</time></trkpt><trkpt lat="39.09947289692044" lon="8.832967999263703"><ele>385.0</ele><time>2026-04-01T13:40:15Z</time></trkpt><trkpt lat="39.09950813270022" lon="8.833077570745036"><ele>385.0</ele><time>2026-04-01T13:40:16Z</time></trkpt><trkpt lat="39.09955140379577" lon="8.833169113376767"><ele>385.0</ele><time>2026-04-01T13:40:17Z</time></trkpt><trkpt lat="39.09958208994576" lon="8.833271868097674"><ele>385.00000000000006</ele><time>2026-04-01T13:40:18Z</time></trkpt><trkpt lat="39.09961446925077" lon="8.833376776169358"><ele>385.0</ele><time>2026-04-01T13:40:19Z</time></trkpt><trkpt lat="39.09965239634653" lon="8.83347160400185"><ele>387.1666666666667</ele><time>2026-04-01T13:40:20Z</time></trkpt><trkpt lat="39.099680913629456" lon="8.833572605748"><ele>389.33333333333337</ele><time>2026-04-01T13:40:21Z</time></trkpt><trkpt lat="39.099704388942115" lon="8.833673309845409"><ele>391.5</ele><time>2026-04-01T13:40:22Z</time></trkpt><trkpt lat="39.09970869192914" lon="8.833777228857713"><ele>393.66666666666663</ele><time>2026-04-01T13:40:23Z</time></trkpt><trkpt lat="39.099701347812356" lon="8.83387434552702"><ele>395.8333333333333</ele><time>2026-04-01T13:40:24Z</time></trkpt><trkpt lat="39.09968468903848" lon="8.83397549409564"><ele>398.0</ele><time>2026-04-01T13:40:25Z</time></trkpt><trkpt lat="39.09965089199365" lon="8.834074424539379"><ele>397.99999999999994</ele><time>2026-04-01T13:40:26Z</time></trkpt><trkpt lat="39.09962017899117" lon="8.834166966064569"><ele>398.0</ele><time>2026-04-01T13:40:27Z</time></trkpt><trkpt lat="39.09960673164607" lon="8.834268938217377"><ele>398.0</ele><time>2026-04-01T13:40:28Z</time></trkpt><trkpt lat="39.09961774701329" lon="8.834371768650362"><ele>398.0</ele><time>2026-04-01T13:40:29Z</time></trkpt><trkpt lat="39.09964897334337" lon="8.834468118227369"><ele>397.99999999999994</ele><time>2026-04-01T13:40:30Z</time></trkpt><trkpt lat="39.09967503513318" lon="8.834557550710224"><ele>398.0</ele><time>2026-04-01T13:40:31Z</time></trkpt><trkpt lat="39.09969925135492" lon="8.834655331225242"><ele>399.99999999999994</ele><time>2026-04-01T13:40:32Z</time></trkpt><trkpt lat="39.09970849076643" lon="8.83475670760879"><ele>402.0</ele><time>2026-04-01T13:40:33Z</time></trkpt><trkpt lat="39.09971256423998" lon="8.834865857045553"><ele>404.0</ele><time>2026-04-01T13:40:34Z</time></trkpt><trkpt lat="39.09970669132354" lon="8.834974685613604"><ele>406.0</ele><time>2026-04-01T13:40:35Z</time></trkpt><trkpt lat="39.09969287139098" lon="8.83508398590494"><ele>407.99999999999994</ele><time>2026-04-01T13:40:36Z</time></trkpt><trkpt lat="39.09969325062604" lon="8.835191067512056"><ele>410.0</ele><time>2026-04-01T13:40:37Z</time></trkpt><trkpt lat="39.09970955791377" lon="8.835305528148096"><ele>413.4</ele><time>2026-04-01T13:40:38Z</time></trkpt><trkpt lat="39.09973837855064" lon="8.835415282012223"><ele>416.8</ele><time>2026-04-01T13:40:39Z</time></trkpt><trkpt lat="39.09978294767242" lon="8.835517945350109"><ele>420.20000000000005</ele><time>2026-04-01T13:40:40Z</time></trkpt><trkpt lat="39.09984781574418" lon="8.835599831078529"><ele>423.6</ele><time>2026-04-01T13:40:41Z</time></trkpt><trkpt lat="39.0999206439101" lon="8.835677064627083"><ele>427.0</ele><time>2026-04-01T13:40:42Z</time></trkpt><trkpt lat="39.099994325591425" lon="8.83574916945711"><ele>422.83333333333337</ele><time>2026-04-01T13:40:43Z</time></trkpt><trkpt lat="39.10005329212103" lon="8.835813282285178"><ele>418.6666666666667</ele><time>2026-04-01T13:40:44Z</time></trkpt><trkpt lat="39.10010718836763" lon="8.83589673888516"><ele>414.5</ele><time>2026-04-01T13:40:45Z</time></trkpt><trkpt lat="39.1001320275402" lon="8.835976688038624"><ele>410.33333333333337</ele><time>2026-04-01T13:40:46Z</time></trkpt><trkpt lat="39.10014893225278" lon="8.836069713111177"><ele>406.1666666666667</ele><time>2026-04-01T13:40:47Z</time></trkpt><trkpt lat="39.10016937026693" lon="8.836162090215524"><ele>402.0</ele><time>2026-04-01T13:40:48Z</time></trkpt><trkpt lat="39.100196027337404" lon="8.836262080415652"><ele>402.0</ele><time>2026-04-01T13:40:49Z</time></trkpt><trkpt lat="39.10021253121881" lon="8.83636727651328"><ele>402.0</ele><time>2026-04-01T13:40:50Z</time></trkpt><trkpt lat="39.10023072635441" lon="8.83648026485835"><ele>402.0</ele><time>2026-04-01T13:40:51Z</time></trkpt><trkpt lat="39.10025660978224" lon="8.83658674324389"><ele>402.0</ele><time>2026-04-01T13:40:52Z</time></trkpt><trkpt lat="39.10028583034134" lon="8.836687095434911"><ele>402.0</ele><time>2026-04-01T13:40:53Z</time></trkpt><trkpt lat="39.10030622332261" lon="8.836793832280046"><ele>402.0</ele><time>2026-04-01T13:40:54Z</time></trkpt><trkpt lat="39.100311982617185" lon="8.836898426787302"><ele>403.6666666666667</ele><time>2026-04-01T13:40:55Z</time></trkpt><trkpt lat="39.10032248623052" lon="8.837005711545252"><ele>405.33333333333337</ele><time>2026-04-01T13:40:56Z</time></trkpt><trkpt lat="39.10034374050285" lon="8.83711732773067"><ele>407.0</ele><time>2026-04-01T13:40:57Z</time></trkpt><trkpt lat="39.100358837772966" lon="8.837225442905925"><ele>408.6666666666667</ele><time>2026-04-01T13:40:58Z</time></trkpt><trkpt lat="39.10038391363485" lon="8.83732913159637"><ele>410.33333333333337</ele><time>2026-04-01T13:40:59Z</time></trkpt><trkpt lat="39.10040925283712" lon="8.837429897573143"><ele>412.0</ele><time>2026-04-01T13:41:00Z</time></trkpt><trkpt lat="39.10043262061405" lon="8.83752692691061"><ele>412.00000000000006</ele><time>2026-04-01T13:41:01Z</time></trkpt><trkpt lat="39.10043137228047" lon="8.837609907834338"><ele>412.0</ele><time>2026-04-01T13:41:02Z</time></trkpt><trkpt lat="39.100368258065615" lon="8.837710544790756"><ele>412.0</ele><time>2026-04-01T13:41:04Z</time></trkpt><trkpt lat="39.10026717249796" lon="8.8377872230022"><ele>412.0</ele><time>2026-04-01T13:41:06Z</time></trkpt><trkpt lat="39.10020845984788" lon="8.837826096774236"><ele>412.00000000000006</ele><time>2026-04-01T13:41:07Z</time></trkpt><trkpt lat="39.10015233571997" lon="8.837892456790524"><ele>412.0</ele><time>2026-04-01T13:41:08Z</time></trkpt><trkpt lat="39.10011634632352" lon="8.837972564381475"><ele>412.8</ele><time>2026-04-01T13:41:09Z</time></trkpt><trkpt lat="39.100091591277454" lon="8.838064655265496"><ele>413.6</ele><time>2026-04-01T13:41:10Z</time></trkpt><trkpt lat="39.1000890435872" lon="8.838149262486798"><ele>414.40000000000003</ele><time>2026-04-01T13:41:11Z</time></trkpt><trkpt lat="39.10013786661676" lon="8.838297108878185"><ele>415.20000000000005</ele><time>2026-04-01T13:41:13Z</time></trkpt><trkpt lat="39.10017679435499" lon="8.8383609784781"><ele>416.0</ele><time>2026-04-01T13:41:14Z</time></trkpt><trkpt lat="39.100258914178774" lon="8.838477929688922"><ele>419.2857142857143</ele><time>2026-04-01T13:41:15.999Z</time></trkpt><trkpt lat="39.10029801987419" lon="8.838548318816867"><ele>422.5714285714286</ele><time>2026-04-01T13:41:16.999Z</time></trkpt><trkpt lat="39.10033035347121" lon="8.83862292324235"><ele>425.8571428571429</ele><time>2026-04-01T13:41:17.999Z</time></trkpt><trkpt lat="39.10036613140948" lon="8.83870149104805"><ele>429.1428571428571</ele><time>2026-04-01T13:41:18.999Z</time></trkpt><trkpt lat="39.10040422924258" lon="8.83878528266661"><ele>432.42857142857144</ele><time>2026-04-01T13:41:19.999Z</time></trkpt><trkpt lat="39.100436817556904" lon="8.838871048107329"><ele>435.7142857142857</ele><time>2026-04-01T13:41:20.999Z</time></trkpt><trkpt lat="39.10045981927934" lon="8.83896719503316"><ele>439.0</ele><time>2026-04-01T13:41:21.999Z</time></trkpt><trkpt lat="39.10048056466164" lon="8.8390691594745"><ele>439.0</ele><time>2026-04-01T13:41:22.999Z</time></trkpt><trkpt lat="39.1004974526634" lon="8.839168425594945"><ele>439.0</ele><time>2026-04-01T13:41:23.999Z</time></trkpt><trkpt lat="39.100519284163816" lon="8.839269727874203"><ele>439.0</ele><time>2026-04-01T13:41:24.999Z</time></trkpt><trkpt lat="39.10054299379856" lon="8.839346151607337"><ele>439.0</ele><time>2026-04-01T13:41:25.999Z</time></trkpt><trkpt lat="39.100571409917876" lon="8.839430873318914"><ele>439.0</ele><time>2026-04-01T13:41:26.999Z</time></trkpt><trkpt lat="39.10058751538503" lon="8.839517954669974"><ele>439.0</ele><time>2026-04-01T13:41:27.999Z</time></trkpt><trkpt lat="39.10059069271825" lon="8.839600446688612"><ele>439.0</ele><time>2026-04-01T13:41:28.999Z</time></trkpt><trkpt lat="39.10061401542848" lon="8.839755007438434"><ele>436.85714285714283</ele><time>2026-04-01T13:41:30.999Z</time></trkpt><trkpt lat="39.100647590179285" lon="8.839824060615475"><ele>434.71428571428567</ele><time>2026-04-01T13:41:31.999Z</time></trkpt><trkpt lat="39.100699998393395" lon="8.83987449239634"><ele>432.57142857142856</ele><time>2026-04-01T13:41:32.999Z</time></trkpt><trkpt lat="39.1007627568178" lon="8.839910937229558"><ele>430.42857142857144</ele><time>2026-04-01T13:41:33.999Z</time></trkpt><trkpt lat="39.1008307223806" lon="8.83992630610476"><ele>428.2857142857143</ele><time>2026-04-01T13:41:34.999Z</time></trkpt><trkpt lat="39.100906239250534" lon="8.839930405948477"><ele>426.14285714285717</ele><time>2026-04-01T13:41:35.999Z</time></trkpt><trkpt lat="39.10097568992428" lon="8.839936684208114"><ele>424.0</ele><time>2026-04-01T13:41:36.999Z</time></trkpt><trkpt lat="39.10110535048379" lon="8.83996059364113"><ele>424.00000000000006</ele><time>2026-04-01T13:41:38.999Z</time></trkpt><trkpt lat="39.1011754885081" lon="8.839985969682875"><ele>424.0</ele><time>2026-04-01T13:41:39.999Z</time></trkpt><trkpt lat="39.10124796428044" lon="8.840026638268167"><ele>424.0</ele><time>2026-04-01T13:41:40.999Z</time></trkpt><trkpt lat="39.101324326782716" lon="8.84007333843967"><ele>424.0</ele><time>2026-04-01T13:41:41.999Z</time></trkpt><trkpt lat="39.1013911842646" lon="8.840118797650963"><ele>424.00000000000006</ele><time>2026-04-01T13:41:42.999Z</time></trkpt><trkpt lat="39.101457665215975" lon="8.840162611956737"><ele>424.0</ele><time>2026-04-01T13:41:43.999Z</time></trkpt><trkpt lat="39.10151622778916" lon="8.840208065791574"><ele>423.0</ele><time>2026-04-01T13:41:44.999Z</time></trkpt><trkpt lat="39.101584787096954" lon="8.840300425756574"><ele>422.0</ele><time>2026-04-01T13:41:46.999Z</time></trkpt><trkpt lat="39.10162110907517" lon="8.840429282224596"><ele>421.0</ele><time>2026-04-01T13:41:48.999Z</time></trkpt><trkpt lat="39.101619280770535" lon="8.84057803794617"><ele>420.0</ele><time>2026-04-01T13:41:50.999Z</time></trkpt><trkpt lat="39.101576476007224" lon="8.8407230407954"><ele>419.0</ele><time>2026-04-01T13:41:52.999Z</time></trkpt><trkpt lat="39.101503241049805" lon="8.840856209063595"><ele>422.8333333333333</ele><time>2026-04-01T13:41:54.999Z</time></trkpt><trkpt lat="39.10145400658217" lon="8.840917244545519"><ele>426.66666666666663</ele><time>2026-04-01T13:41:55.999Z</time></trkpt><trkpt lat="39.10139914202216" lon="8.840972417163584"><ele>430.5</ele><time>2026-04-01T13:41:56.999Z</time></trkpt><trkpt lat="39.10133968798901" lon="8.841030162732691"><ele>434.33333333333337</ele><time>2026-04-01T13:41:57.999Z</time></trkpt><trkpt lat="39.10128204117507" lon="8.841102037091776"><ele>438.1666666666667</ele><time>2026-04-01T13:41:58.999Z</time></trkpt><trkpt lat="39.10122265992866" lon="8.841173122375833"><ele>442.0</ele><time>2026-04-01T13:41:59.999Z</time></trkpt><trkpt lat="39.101166091138026" lon="8.84124304174308"><ele>442.14285714285717</ele><time>2026-04-01T13:42:00.999Z</time></trkpt><trkpt lat="39.10110917047255" lon="8.841315793468924"><ele>442.2857142857143</ele><time>2026-04-01T13:42:01.999Z</time></trkpt><trkpt lat="39.10105555546353" lon="8.841379187597362"><ele>442.42857142857144</ele><time>2026-04-01T13:42:02.999Z</time></trkpt><trkpt lat="39.101002440555106" lon="8.841443378199363"><ele>442.57142857142856</ele><time>2026-04-01T13:42:03.999Z</time></trkpt><trkpt lat="39.10096256355374" lon="8.841526017031335"><ele>442.7142857142857</ele><time>2026-04-01T13:42:04.999Z</time></trkpt><trkpt lat="39.10092666949375" lon="8.84160872930088"><ele>442.8571428571429</ele><time>2026-04-01T13:42:05.999Z</time></trkpt><trkpt lat="39.100894711610344" lon="8.841694673354633"><ele>443.0</ele><time>2026-04-01T13:42:07Z</time></trkpt><trkpt lat="39.100866646977295" lon="8.8417710822456"><ele>445.0</ele><time>2026-04-01T13:42:08Z</time></trkpt><trkpt lat="39.10084330517269" lon="8.84184897735565"><ele>446.99999999999994</ele><time>2026-04-01T13:42:09Z</time></trkpt><trkpt lat="39.10084391301939" lon="8.841979221182758"><ele>448.99999999999994</ele><time>2026-04-01T13:42:11Z</time></trkpt><trkpt lat="39.10089593629149" lon="8.842102725053534"><ele>451.0</ele><time>2026-04-01T13:42:13Z</time></trkpt><trkpt lat="39.101012464349566" lon="8.842163871596885"><ele>453.0</ele><time>2026-04-01T13:42:15Z</time></trkpt><trkpt lat="39.10107854593454" lon="8.84216219572947"><ele>453.0</ele><time>2026-04-01T13:42:16Z</time></trkpt><trkpt lat="39.10121559658596" lon="8.842107357674973"><ele>453.0</ele><time>2026-04-01T13:42:18Z</time></trkpt><trkpt lat="39.10128278070976" lon="8.842087301375955"><ele>453.0</ele><time>2026-04-01T13:42:19Z</time></trkpt><trkpt lat="39.101363841776646" lon="8.842079174253985"><ele>453.0</ele><time>2026-04-01T13:42:20Z</time></trkpt><trkpt lat="39.10143836942628" lon="8.842053859379892"><ele>453.0</ele><time>2026-04-01T13:42:21Z</time></trkpt><trkpt lat="39.101509605781125" lon="8.842028359230966"><ele>453.0</ele><time>2026-04-01T13:42:22Z</time></trkpt><trkpt lat="39.10158465389512" lon="8.841988042330959"><ele>455.4</ele><time>2026-04-01T13:42:23Z</time></trkpt><trkpt lat="39.10166548045977" lon="8.841940098934145"><ele>457.79999999999995</ele><time>2026-04-01T13:42:24Z</time></trkpt><trkpt lat="39.10174742014866" lon="8.841889906093437"><ele>460.2</ele><time>2026-04-01T13:42:25Z</time></trkpt><trkpt lat="39.10182320384972" lon="8.841832346371568"><ele>462.6</ele><time>2026-04-01T13:42:26Z</time></trkpt><trkpt lat="39.1019070990035" lon="8.841775412938297"><ele>465.0</ele><time>2026-04-01T13:42:27Z</time></trkpt><trkpt lat="39.10199089825365" lon="8.84171975160908"><ele>462.6</ele><time>2026-04-01T13:42:28Z</time></trkpt><trkpt lat="39.10207483674447" lon="8.841666219345425"><ele>460.2</ele><time>2026-04-01T13:42:29Z</time></trkpt><trkpt lat="39.10216174678509" lon="8.8416229682233"><ele>457.79999999999995</ele><time>2026-04-01T13:42:30Z</time></trkpt><trkpt lat="39.10225145969477" lon="8.84158242253951"><ele>455.4</ele><time>2026-04-01T13:42:31Z</time></trkpt><trkpt lat="39.10234492058773" lon="8.841554798117546"><ele>453.0</ele><time>2026-04-01T13:42:32Z</time></trkpt><trkpt lat="39.10243650818702" lon="8.841520949022382"><ele>453.0</ele><time>2026-04-01T13:42:33Z</time></trkpt><trkpt lat="39.10252461772142" lon="8.841479633149785"><ele>452.99999999999994</ele><time>2026-04-01T13:42:34Z</time></trkpt><trkpt lat="39.10261601688079" lon="8.841443228360706"><ele>452.99999999999994</ele><time>2026-04-01T13:42:35Z</time></trkpt><trkpt lat="39.10271022631005" lon="8.84139769017907"><ele>453.0</ele><time>2026-04-01T13:42:36Z</time></trkpt><trkpt lat="39.10280748875044" lon="8.841356233016624"><ele>453.0</ele><time>2026-04-01T13:42:37Z</time></trkpt><trkpt lat="39.102900780377865" lon="8.841330868054316"><ele>453.0</ele><time>2026-04-01T13:42:38Z</time></trkpt><trkpt lat="39.10299793568319" lon="8.841326469238307"><ele>452.99999999999994</ele><time>2026-04-01T13:42:39Z</time></trkpt><trkpt lat="39.103099223600495" lon="8.841347748494936"><ele>452.99999999999994</ele><time>2026-04-01T13:42:40Z</time></trkpt><trkpt lat="39.103192958060156" lon="8.841380192098196"><ele>453.0</ele><time>2026-04-01T13:42:41Z</time></trkpt><trkpt lat="39.10328569708965" lon="8.841400023342809"><ele>453.0</ele><time>2026-04-01T13:42:42Z</time></trkpt><trkpt lat="39.10338822832639" lon="8.841404708277695"><ele>455.5</ele><time>2026-04-01T13:42:43Z</time></trkpt><trkpt lat="39.1034733502503" lon="8.841401975852966"><ele>458.0</ele><time>2026-04-01T13:42:44Z</time></trkpt><trkpt lat="39.10354522376895" lon="8.841359330775884"><ele>460.5</ele><time>2026-04-01T13:42:45Z</time></trkpt><trkpt lat="39.10361046210084" lon="8.841279483784904"><ele>463.0</ele><time>2026-04-01T13:42:46Z</time></trkpt><trkpt lat="39.10366019391537" lon="8.841185794216173"><ele>465.5</ele><time>2026-04-01T13:42:47Z</time></trkpt><trkpt lat="39.10370595329128" lon="8.841080581927322"><ele>468.0</ele><time>2026-04-01T13:42:48Z</time></trkpt><trkpt lat="39.10373960863501" lon="8.840972432535478"><ele>462.4</ele><time>2026-04-01T13:42:49Z</time></trkpt><trkpt lat="39.10376860648618" lon="8.840856595284706"><ele>456.79999999999995</ele><time>2026-04-01T13:42:50Z</time></trkpt><trkpt lat="39.103800544305884" lon="8.840745617012503"><ele>451.2</ele><time>2026-04-01T13:42:51Z</time></trkpt><trkpt lat="39.10383815601645" lon="8.840642819818864"><ele>445.6</ele><time>2026-04-01T13:42:52Z</time></trkpt><trkpt lat="39.1038817620736" lon="8.840540795940171"><ele>440.0</ele><time>2026-04-01T13:42:53Z</time></trkpt><trkpt lat="39.103941397151885" lon="8.840461676476993"><ele>439.99999999999994</ele><time>2026-04-01T13:42:54Z</time></trkpt><trkpt lat="39.10400504579967" lon="8.84039145240347"><ele>440.0</ele><time>2026-04-01T13:42:55Z</time></trkpt><trkpt lat="39.10407703325559" lon="8.840337684506405"><ele>440.0</ele><time>2026-04-01T13:42:56Z</time></trkpt><trkpt lat="39.10415803091882" lon="8.840302629141746"><ele>440.0</ele><time>2026-04-01T13:42:57Z</time></trkpt><trkpt lat="39.104247244001904" lon="8.840282532051964"><ele>439.99999999999994</ele><time>2026-04-01T13:42:58Z</time></trkpt><trkpt lat="39.10433894443984" lon="8.840276331946699"><ele>440.0</ele><time>2026-04-01T13:42:59Z</time></trkpt><trkpt lat="39.10443067030941" lon="8.840275975920813"><ele>445.6</ele><time>2026-04-01T13:43:00Z</time></trkpt><trkpt lat="39.10452642305261" lon="8.840282065559158"><ele>451.2</ele><time>2026-04-01T13:43:01Z</time></trkpt><trkpt lat="39.104620202737365" lon="8.84029182661949"><ele>456.79999999999995</ele><time>2026-04-01T13:43:02Z</time></trkpt><trkpt lat="39.10472376345846" lon="8.840297649507916"><ele>462.4</ele><time>2026-04-01T13:43:03Z</time></trkpt><trkpt lat="39.10482110687073" lon="8.84031410327325"><ele>468.0</ele><time>2026-04-01T13:43:04Z</time></trkpt><trkpt lat="39.10492145298331" lon="8.840334596537453"><ele>469.79999999999995</ele><time>2026-04-01T13:43:05Z</time></trkpt><trkpt lat="39.10502011959616" lon="8.840348844399117"><ele>471.59999999999997</ele><time>2026-04-01T13:43:06Z</time></trkpt><trkpt lat="39.10511290178125" lon="8.840366023794054"><ele>473.40000000000003</ele><time>2026-04-01T13:43:07Z</time></trkpt><trkpt lat="39.105204046114785" lon="8.840382566918374"><ele>475.20000000000005</ele><time>2026-04-01T13:43:08Z</time></trkpt><trkpt lat="39.10529773175757" lon="8.840406045419737"><ele>477.0</ele><time>2026-04-01T13:43:09Z</time></trkpt><trkpt lat="39.10537910374348" lon="8.84043899315452"><ele>477.0</ele><time>2026-04-01T13:43:10Z</time></trkpt><trkpt lat="39.105464782126795" lon="8.84049289527178"><ele>477.0</ele><time>2026-04-01T13:43:11Z</time></trkpt><trkpt lat="39.105544331484694" lon="8.840547341270913"><ele>477.0</ele><time>2026-04-01T13:43:12Z</time></trkpt><trkpt lat="39.10562452813956" lon="8.840614458036976"><ele>477.0</ele><time>2026-04-01T13:43:13Z</time></trkpt><trkpt lat="39.10569162507078" lon="8.840684691441707"><ele>477.0</ele><time>2026-04-01T13:43:14Z</time></trkpt><trkpt lat="39.10574949961951" lon="8.840740770410505"><ele>477.0</ele><time>2026-04-01T13:43:15Z</time></trkpt><trkpt lat="39.10584493576311" lon="8.840812968996682"><ele>476.1666666666667</ele><time>2026-04-01T13:43:16.999Z</time></trkpt><trkpt lat="39.1059262543498" lon="8.840877299339466"><ele>475.33333333333337</ele><time>2026-04-01T13:43:18.999Z</time></trkpt><trkpt lat="39.10598376211015" lon="8.840927147090346"><ele>474.5</ele><time>2026-04-01T13:43:20.999Z</time></trkpt><trkpt lat="39.1060407610965" lon="8.840968763115264"><ele>473.6666666666667</ele><time>2026-04-01T13:43:23.999Z</time></trkpt><trkpt lat="39.10611819909697" lon="8.841039127346388"><ele>472.83333333333337</ele><time>2026-04-01T13:43:49.999Z</time></trkpt><trkpt lat="39.10620637072536" lon="8.841101760796317"><ele>472.0</ele><time>2026-04-01T13:43:51.999Z</time></trkpt><trkpt lat="39.106264131726796" lon="8.841139731816591"><ele>473.1666666666667</ele><time>2026-04-01T13:43:52.999Z</time></trkpt><trkpt lat="39.10632502180363" lon="8.841177930752465"><ele>474.33333333333337</ele><time>2026-04-01T13:43:53.999Z</time></trkpt><trkpt lat="39.10639369543877" lon="8.841216749262772"><ele>475.5</ele><time>2026-04-01T13:43:54.999Z</time></trkpt><trkpt lat="39.106471869558206" lon="8.841252383287815"><ele>476.66666666666663</ele><time>2026-04-01T13:43:55.999Z</time></trkpt><trkpt lat="39.10654596572627" lon="8.841301088993676"><ele>477.8333333333333</ele><time>2026-04-01T13:43:56.999Z</time></trkpt><trkpt lat="39.10662216016723" lon="8.841359244620197"><ele>479.0</ele><time>2026-04-01T13:43:57.999Z</time></trkpt><trkpt lat="39.10669822244412" lon="8.841425047836537"><ele>479.0</ele><time>2026-04-01T13:43:58.999Z</time></trkpt><trkpt lat="39.10677432587455" lon="8.841501309197412"><ele>479.0</ele><time>2026-04-01T13:43:59.999Z</time></trkpt><trkpt lat="39.10685175424219" lon="8.841573301430541"><ele>479.0</ele><time>2026-04-01T13:44:00.999Z</time></trkpt><trkpt lat="39.1069188265056" lon="8.841655622285037"><ele>479.0</ele><time>2026-04-01T13:44:01.999Z</time></trkpt><trkpt lat="39.106973675672855" lon="8.841745628427216"><ele>479.0</ele><time>2026-04-01T13:44:02.999Z</time></trkpt><trkpt lat="39.107029744068086" lon="8.841818484326701"><ele>479.8333333333333</ele><time>2026-04-01T13:44:03.999Z</time></trkpt><trkpt lat="39.10710060954877" lon="8.841853594157136"><ele>480.66666666666663</ele><time>2026-04-01T13:44:04.999Z</time></trkpt><trkpt lat="39.107185470988505" lon="8.841867371602405"><ele>481.5</ele><time>2026-04-01T13:44:05.999Z</time></trkpt><trkpt lat="39.10726809311558" lon="8.841882062225443"><ele>482.33333333333337</ele><time>2026-04-01T13:44:06.999Z</time></trkpt><trkpt lat="39.10735226304094" lon="8.84187971427388"><ele>483.1666666666667</ele><time>2026-04-01T13:44:07.999Z</time></trkpt><trkpt lat="39.107449536768016" lon="8.841856062467267"><ele>484.0</ele><time>2026-04-01T13:44:08.999Z</time></trkpt><trkpt lat="39.10757333138775" lon="8.84181810594905"><ele>484.00000000000006</ele><time>2026-04-01T13:44:09.999Z</time></trkpt><trkpt lat="39.107680907539965" lon="8.841789893342895"><ele>484.0</ele><time>2026-04-01T13:44:10.999Z</time></trkpt><trkpt lat="39.10776127812544" lon="8.841765078682384"><ele>484.0</ele><time>2026-04-01T13:44:11.999Z</time></trkpt><trkpt lat="39.107839220673945" lon="8.841746784866864"><ele>484.0</ele><time>2026-04-01T13:44:13Z</time></trkpt><trkpt lat="39.107907386485046" lon="8.841740133168187"><ele>484.00000000000006</ele><time>2026-04-01T13:44:14Z</time></trkpt><trkpt lat="39.10796897618255" lon="8.841757463830655"><ele>484.0</ele><time>2026-04-01T13:44:15Z</time></trkpt><trkpt lat="39.10802680950413" lon="8.841807385217384"><ele>484.0</ele><time>2026-04-01T13:44:16Z</time></trkpt><trkpt lat="39.10807537954568" lon="8.841865736424467"><ele>483.99999999999994</ele><time>2026-04-01T13:44:17Z</time></trkpt><trkpt lat="39.10810721512321" lon="8.841940939479677"><ele>484.0</ele><time>2026-04-01T13:44:18Z</time></trkpt><trkpt lat="39.108122607571644" lon="8.842021722781467"><ele>484.0</ele><time>2026-04-01T13:44:19Z</time></trkpt><trkpt lat="39.1081066253857" lon="8.84210179999944"><ele>483.99999999999994</ele><time>2026-04-01T13:44:20Z</time></trkpt><trkpt lat="39.10807117889751" lon="8.842182656522006"><ele>484.0</ele><time>2026-04-01T13:44:21Z</time></trkpt><trkpt lat="39.108015462517436" lon="8.842239572287866"><ele>484.0</ele><time>2026-04-01T13:44:22Z</time></trkpt><trkpt lat="39.107944028328724" lon="8.84230175345159"><ele>484.0</ele><time>2026-04-01T13:44:23Z</time></trkpt><trkpt lat="39.10785327936937" lon="8.842370581252323"><ele>484.0</ele><time>2026-04-01T13:44:24Z</time></trkpt><trkpt lat="39.10776827432615" lon="8.842449375486611"><ele>484.0</ele><time>2026-04-01T13:44:25Z</time></trkpt><trkpt lat="39.107682109254974" lon="8.842539444602608"><ele>484.0</ele><time>2026-04-01T13:44:26Z</time></trkpt><trkpt lat="39.107619656599894" lon="8.842626177358538"><ele>484.0</ele><time>2026-04-01T13:44:27Z</time></trkpt><trkpt lat="39.10755016510234" lon="8.842702511303777"><ele>480.1666666666667</ele><time>2026-04-01T13:44:28Z</time></trkpt><trkpt lat="39.10749542510864" lon="8.842776262594525"><ele>476.33333333333337</ele><time>2026-04-01T13:44:29Z</time></trkpt><trkpt lat="39.10743967865469" lon="8.842828962273288"><ele>472.5</ele><time>2026-04-01T13:44:30Z</time></trkpt><trkpt lat="39.10732573796816" lon="8.842882580534708"><ele>468.66666666666663</ele><time>2026-04-01T13:44:32Z</time></trkpt><trkpt lat="39.1072461647354" lon="8.842886882760848"><ele>464.8333333333333</ele><time>2026-04-01T13:44:33Z</time></trkpt><trkpt lat="39.1071533098357" lon="8.842873267236323"><ele>461.0</ele><time>2026-04-01T13:44:34Z</time></trkpt><trkpt lat="39.107055789834874" lon="8.842841136376485"><ele>460.75</ele><time>2026-04-01T13:44:35Z</time></trkpt><trkpt lat="39.10695070168878" lon="8.842801119441944"><ele>460.5</ele><time>2026-04-01T13:44:36Z</time></trkpt><trkpt lat="39.10683744827058" lon="8.842788586611299"><ele>460.25</ele><time>2026-04-01T13:44:37Z</time></trkpt><trkpt lat="39.10671268513179" lon="8.842790085373148"><ele>460.0</ele><time>2026-04-01T13:44:38Z</time></trkpt><trkpt lat="39.10657840933916" lon="8.84281178402881"><ele>462.8</ele><time>2026-04-01T13:44:39Z</time></trkpt><trkpt lat="39.106451794380696" lon="8.842839476196197"><ele>465.6</ele><time>2026-04-01T13:44:40Z</time></trkpt><trkpt lat="39.10634136739228" lon="8.842855542317633"><ele>468.4</ele><time>2026-04-01T13:44:41Z</time></trkpt><trkpt lat="39.10625367981423" lon="8.842858965215374"><ele>471.2</ele><time>2026-04-01T13:44:42Z</time></trkpt><trkpt lat="39.106175725799545" lon="8.842862191179373"><ele>474.0</ele><time>2026-04-01T13:44:43Z</time></trkpt><trkpt lat="39.10611004451973" lon="8.842885487141258"><ele>474.0</ele><time>2026-04-01T13:44:44Z</time></trkpt><trkpt lat="39.10601766167221" lon="8.843011076444096"><ele>474.0</ele><time>2026-04-01T13:44:46Z</time></trkpt><trkpt lat="39.10597713228534" lon="8.843136902969022"><ele>474.0</ele><time>2026-04-01T13:44:47Z</time></trkpt><trkpt lat="39.10590437729014" lon="8.843196901800264"><ele>474.0</ele><time>2026-04-01T13:44:48Z</time></trkpt><trkpt lat="39.10586530351945" lon="8.843294823416214"><ele>474.0</ele><time>2026-04-01T13:44:49Z</time></trkpt><trkpt lat="39.1058159132715" lon="8.843366458335325"><ele>474.0</ele><time>2026-04-01T13:44:50Z</time></trkpt><trkpt lat="39.10575379571056" lon="8.843411160759937"><ele>474.0</ele><time>2026-04-01T13:44:51Z</time></trkpt><trkpt lat="39.10570477762236" lon="8.843474573171132"><ele>474.0</ele><time>2026-04-01T13:44:52Z</time></trkpt><trkpt lat="39.10559656922169" lon="8.843492599389384"><ele>474.0</ele><time>2026-04-01T13:44:53Z</time></trkpt><trkpt lat="39.10550169105892" lon="8.843502935639076"><ele>474.0</ele><time>2026-04-01T13:44:54Z</time></trkpt><trkpt lat="39.105426009827916" lon="8.843516392799533"><ele>474.0</ele><time>2026-04-01T13:44:55Z</time></trkpt><trkpt lat="39.10535979244249" lon="8.843548473541707"><ele>476.3333333333333</ele><time>2026-04-01T13:44:56Z</time></trkpt><trkpt lat="39.105317228533934" lon="8.843610027728726"><ele>478.66666666666663</ele><time>2026-04-01T13:44:57Z</time></trkpt><trkpt lat="39.10528384253331" lon="8.843772140836206"><ele>481.0</ele><time>2026-04-01T13:44:59Z</time></trkpt><trkpt lat="39.1052880388874" lon="8.843873333393207"><ele>483.3333333333333</ele><time>2026-04-01T13:45:00Z</time></trkpt><trkpt lat="39.10531624157902" lon="8.84396116148967"><ele>485.66666666666663</ele><time>2026-04-01T13:45:01Z</time></trkpt><trkpt lat="39.10536832066947" lon="8.844041816073151"><ele>488.0</ele><time>2026-04-01T13:45:02Z</time></trkpt><trkpt lat="39.10542996687048" lon="8.844095938027635"><ele>488.0</ele><time>2026-04-01T13:45:03Z</time></trkpt><trkpt lat="39.105507137611795" lon="8.84413520695609"><ele>487.99999999999994</ele><time>2026-04-01T13:45:04Z</time></trkpt><trkpt lat="39.10559961060523" lon="8.844159567404176"><ele>487.99999999999994</ele><time>2026-04-01T13:45:05Z</time></trkpt><trkpt lat="39.10570647183649" lon="8.844175358404229"><ele>488.0</ele><time>2026-04-01T13:45:06Z</time></trkpt><trkpt lat="39.105821894219595" lon="8.844188161123215"><ele>488.0</ele><time>2026-04-01T13:45:07Z</time></trkpt><trkpt lat="39.10595765034316" lon="8.844210515016975"><ele>484.25</ele><time>2026-04-01T13:45:08Z</time></trkpt><trkpt lat="39.10608370385079" lon="8.844236057963931"><ele>480.5</ele><time>2026-04-01T13:45:09Z</time></trkpt><trkpt lat="39.10618892410925" lon="8.844247040382795"><ele>476.75</ele><time>2026-04-01T13:45:10Z</time></trkpt><trkpt lat="39.106318347465155" lon="8.84427065080514"><ele>473.0</ele><time>2026-04-01T13:45:11Z</time></trkpt><trkpt lat="39.10642056131479" lon="8.844296262552499"><ele>474.4</ele><time>2026-04-01T13:45:12Z</time></trkpt><trkpt lat="39.106508408412246" lon="8.844328042500196"><ele>475.79999999999995</ele><time>2026-04-01T13:45:13Z</time></trkpt><trkpt lat="39.10659026403601" lon="8.844376434376406"><ele>477.2</ele><time>2026-04-01T13:45:14Z</time></trkpt><trkpt lat="39.106662469080604" lon="8.844439864357845"><ele>478.6</ele><time>2026-04-01T13:45:15Z</time></trkpt><trkpt lat="39.10672754609276" lon="8.844518113489963"><ele>480.0</ele><time>2026-04-01T13:45:16Z</time></trkpt><trkpt lat="39.10679496679162" lon="8.84461011029223"><ele>480.0</ele><time>2026-04-01T13:45:17Z</time></trkpt><trkpt lat="39.10686794720772" lon="8.844721629569555"><ele>480.0</ele><time>2026-04-01T13:45:17.999Z</time></trkpt><trkpt lat="39.106943396204365" lon="8.844840282712072"><ele>480.0</ele><time>2026-04-01T13:45:18.999Z</time></trkpt><trkpt lat="39.10702521509374" lon="8.844976347657449"><ele>480.0</ele><time>2026-04-01T13:45:19.999Z</time></trkpt><trkpt lat="39.107108721609656" lon="8.84509408742209"><ele>478.25</ele><time>2026-04-01T13:45:20.999Z</time></trkpt><trkpt lat="39.107202777042495" lon="8.845222487513233"><ele>476.5</ele><time>2026-04-01T13:45:21.999Z</time></trkpt><trkpt lat="39.107282274472986" lon="8.845354633939143"><ele>474.75</ele><time>2026-04-01T13:45:22.999Z</time></trkpt><trkpt lat="39.10740306547441" lon="8.84543568375631"><ele>473.0</ele><time>2026-04-01T13:45:23.999Z</time></trkpt><trkpt lat="39.10751637535521" lon="8.845519462579052"><ele>473.0</ele><time>2026-04-01T13:45:24.999Z</time></trkpt><trkpt lat="39.107639722381506" lon="8.845589226143002"><ele>473.0</ele><time>2026-04-01T13:45:25.999Z</time></trkpt><trkpt lat="39.107748566764464" lon="8.845664770029003"><ele>473.0</ele><time>2026-04-01T13:45:26.999Z</time></trkpt><trkpt lat="39.10784012018913" lon="8.845739944416149"><ele>473.0</ele><time>2026-04-01T13:45:27.999Z</time></trkpt><trkpt lat="39.10792953772578" lon="8.845812187317721"><ele>473.0</ele><time>2026-04-01T13:45:28.999Z</time></trkpt><trkpt lat="39.1080128369852" lon="8.845883463880343"><ele>472.99999999999994</ele><time>2026-04-01T13:45:29.999Z</time></trkpt><trkpt lat="39.10809600784098" lon="8.845964222593242"><ele>472.99999999999994</ele><time>2026-04-01T13:45:30.999Z</time></trkpt><trkpt lat="39.10817357317718" lon="8.846056126858032"><ele>473.0</ele><time>2026-04-01T13:45:31.999Z</time></trkpt><trkpt lat="39.10824442652642" lon="8.84615873746881"><ele>473.0</ele><time>2026-04-01T13:45:32.999Z</time></trkpt><trkpt lat="39.10831577738219" lon="8.846279797535827"><ele>469.66666666666663</ele><time>2026-04-01T13:45:33.999Z</time></trkpt><trkpt lat="39.10838852366432" lon="8.846414251328042"><ele>466.33333333333337</ele><time>2026-04-01T13:45:34.999Z</time></trkpt><trkpt lat="39.108475009779234" lon="8.846582796781101"><ele>463.0</ele><time>2026-04-01T13:45:35.999Z</time></trkpt><trkpt lat="39.10856792776158" lon="8.846763391449015"><ele>464.4</ele><time>2026-04-01T13:45:36.999Z</time></trkpt><trkpt lat="39.108633014777574" lon="8.846905045226599"><ele>465.79999999999995</ele><time>2026-04-01T13:45:37.999Z</time></trkpt><trkpt lat="39.108681693647256" lon="8.847005297850933"><ele>467.2</ele><time>2026-04-01T13:45:38.999Z</time></trkpt><trkpt lat="39.10872347504831" lon="8.847095011386715"><ele>468.6</ele><time>2026-04-01T13:45:39.999Z</time></trkpt><trkpt lat="39.10875692804128" lon="8.84719450757158"><ele>470.0</ele><time>2026-04-01T13:45:40.999Z</time></trkpt><trkpt lat="39.108791537495684" lon="8.847300605701822"><ele>470.0</ele><time>2026-04-01T13:45:41.999Z</time></trkpt><trkpt lat="39.108816545048924" lon="8.84742638255061"><ele>470.0</ele><time>2026-04-01T13:45:42.999Z</time></trkpt><trkpt lat="39.10883339682365" lon="8.847563259093803"><ele>470.0</ele><time>2026-04-01T13:45:43.999Z</time></trkpt><trkpt lat="39.108850986306145" lon="8.847711274292731"><ele>470.0</ele><time>2026-04-01T13:45:44.999Z</time></trkpt><trkpt lat="39.1088595801818" lon="8.847865578857546"><ele>470.0</ele><time>2026-04-01T13:45:45.999Z</time></trkpt><trkpt lat="39.10886347421694" lon="8.848018155885923"><ele>469.0</ele><time>2026-04-01T13:45:46.999Z</time></trkpt><trkpt lat="39.10886326762216" lon="8.84818874310871"><ele>468.0</ele><time>2026-04-01T13:45:47.999Z</time></trkpt><trkpt lat="39.10886194687924" lon="8.848356423831708"><ele>467.0</ele><time>2026-04-01T13:45:48.999Z</time></trkpt><trkpt lat="39.108855790485904" lon="8.848501939788516"><ele>466.0</ele><time>2026-04-01T13:45:49.999Z</time></trkpt><trkpt lat="39.10884311340235" lon="8.848638598531986"><ele>463.8</ele><time>2026-04-01T13:45:50.999Z</time></trkpt><trkpt lat="39.108829759283786" lon="8.84877035968056"><ele>461.6</ele><time>2026-04-01T13:45:51.999Z</time></trkpt><trkpt lat="39.10881550020396" lon="8.848889891961418"><ele>459.4</ele><time>2026-04-01T13:45:52.999Z</time></trkpt><trkpt lat="39.10880281016522" lon="8.849003389043581"><ele>457.2</ele><time>2026-04-01T13:45:53.999Z</time></trkpt><trkpt lat="39.10878232718207" lon="8.849110127598006"><ele>455.0</ele><time>2026-04-01T13:45:54.999Z</time></trkpt><trkpt lat="39.108773103028504" lon="8.849217615064187"><ele>452.6</ele><time>2026-04-01T13:45:55.999Z</time></trkpt><trkpt lat="39.10873685075527" lon="8.849308849895476"><ele>450.2</ele><time>2026-04-01T13:45:56.999Z</time></trkpt><trkpt lat="39.10866236971483" lon="8.84941421004989"><ele>447.79999999999995</ele><time>2026-04-01T13:45:58.999Z</time></trkpt><trkpt lat="39.10855309015963" lon="8.849453609516605"><ele>445.4</ele><time>2026-04-01T13:46:00.999Z</time></trkpt><trkpt lat="39.108487070231504" lon="8.84944600335187"><ele>443.0</ele><time>2026-04-01T13:46:01.999Z</time></trkpt><trkpt lat="39.10837718832658" lon="8.849412827125326"><ele>443.0</ele><time>2026-04-01T13:46:02.999Z</time></trkpt><trkpt lat="39.10827811780879" lon="8.849343710175885"><ele>442.99999999999994</ele><time>2026-04-01T13:46:03.999Z</time></trkpt><trkpt lat="39.10819756277322" lon="8.849287538619677"><ele>442.99999999999994</ele><time>2026-04-01T13:46:04.999Z</time></trkpt><trkpt lat="39.10812174214228" lon="8.84927180685395"><ele>443.0</ele><time>2026-04-01T13:46:05.999Z</time></trkpt><trkpt lat="39.1080271333607" lon="8.849288886781457"><ele>443.0</ele><time>2026-04-01T13:46:07.999Z</time></trkpt><trkpt lat="39.10796006856335" lon="8.849432599137383"><ele>447.16666666666663</ele><time>2026-04-01T13:46:09.999Z</time></trkpt><trkpt lat="39.10795116669563" lon="8.849522169269301"><ele>451.3333333333333</ele><time>2026-04-01T13:46:10.999Z</time></trkpt><trkpt lat="39.10796468114072" lon="8.849613973859272"><ele>455.5</ele><time>2026-04-01T13:46:11.999Z</time></trkpt><trkpt lat="39.1079953526296" lon="8.8497070556591"><ele>459.66666666666663</ele><time>2026-04-01T13:46:12.999Z</time></trkpt><trkpt lat="39.10803412456973" lon="8.849835556876867"><ele>463.8333333333333</ele><time>2026-04-01T13:46:13.999Z</time></trkpt><trkpt lat="39.10808964336609" lon="8.849972018639333"><ele>468.0</ele><time>2026-04-01T13:46:14.999Z</time></trkpt><trkpt lat="39.10814041057056" lon="8.85012348953604"><ele>466.2</ele><time>2026-04-01T13:46:15.999Z</time></trkpt><trkpt lat="39.108168778498055" lon="8.85026630078916"><ele>464.4</ele><time>2026-04-01T13:46:16.999Z</time></trkpt><trkpt lat="39.10817885578989" lon="8.85039785605964"><ele>462.59999999999997</ele><time>2026-04-01T13:46:17.999Z</time></trkpt><trkpt lat="39.10818360513226" lon="8.850517747080236"><ele>460.79999999999995</ele><time>2026-04-01T13:46:19Z</time></trkpt><trkpt lat="39.1081868988051" lon="8.850626482926677"><ele>459.0</ele><time>2026-04-01T13:46:20Z</time></trkpt><trkpt lat="39.1081857562129" lon="8.85072809028064"><ele>459.0</ele><time>2026-04-01T13:46:21Z</time></trkpt><trkpt lat="39.10817825520924" lon="8.850816861492074"><ele>459.0</ele><time>2026-04-01T13:46:22Z</time></trkpt><trkpt lat="39.10813631205161" lon="8.85094997362671"><ele>459.0</ele><time>2026-04-01T13:46:24Z</time></trkpt><trkpt lat="39.108035915604695" lon="8.851064152552853"><ele>459.0</ele><time>2026-04-01T13:46:26Z</time></trkpt><trkpt lat="39.107959605873276" lon="8.851120237517572"><ele>459.0</ele><time>2026-04-01T13:46:27Z</time></trkpt><trkpt lat="39.10788410470205" lon="8.851174827708864"><ele>457.3333333333333</ele><time>2026-04-01T13:46:28Z</time></trkpt><trkpt lat="39.107808527222865" lon="8.851208633515135"><ele>455.66666666666663</ele><time>2026-04-01T13:46:29Z</time></trkpt><trkpt lat="39.107750978821954" lon="8.851251583557103"><ele>454.0</ele><time>2026-04-01T13:46:30Z</time></trkpt><trkpt lat="39.10768937700864" lon="8.851331773442466"><ele>452.3333333333333</ele><time>2026-04-01T13:46:32Z</time></trkpt><trkpt lat="39.107702349018744" lon="8.851485069483854"><ele>450.66666666666663</ele><time>2026-04-01T13:46:34Z</time></trkpt><trkpt lat="39.10772644153867" lon="8.851564985460891"><ele>449.0</ele><time>2026-04-01T13:46:35Z</time></trkpt><trkpt lat="39.107772457585405" lon="8.85164540490903"><ele>449.0</ele><time>2026-04-01T13:46:36Z</time></trkpt><trkpt lat="39.10783458263031" lon="8.851715769164194"><ele>449.0</ele><time>2026-04-01T13:46:37Z</time></trkpt><trkpt lat="39.107911109810885" lon="8.851792508929908"><ele>449.0</ele><time>2026-04-01T13:46:38Z</time></trkpt><trkpt lat="39.10799152171752" lon="8.851869281003857"><ele>449.0</ele><time>2026-04-01T13:46:39Z</time></trkpt><trkpt lat="39.10807592941694" lon="8.851971125219773"><ele>449.0</ele><time>2026-04-01T13:46:40Z</time></trkpt><trkpt lat="39.10815451818201" lon="8.852083252392916"><ele>447.5</ele><time>2026-04-01T13:46:41Z</time></trkpt><trkpt lat="39.10823723102882" lon="8.852192821873201"><ele>446.0</ele><time>2026-04-01T13:46:42Z</time></trkpt><trkpt lat="39.10833308507988" lon="8.852305809285262"><ele>444.5</ele><time>2026-04-01T13:46:43Z</time></trkpt><trkpt lat="39.10842931830801" lon="8.85241895748449"><ele>443.0</ele><time>2026-04-01T13:46:44Z</time></trkpt><trkpt lat="39.10852630424922" lon="8.852507878307776"><ele>443.0</ele><time>2026-04-01T13:46:45Z</time></trkpt><trkpt lat="39.10862605017631" lon="8.852573691018964"><ele>443.0</ele><time>2026-04-01T13:46:46Z</time></trkpt><trkpt lat="39.10874707223878" lon="8.852637337022292"><ele>443.0</ele><time>2026-04-01T13:46:47Z</time></trkpt><trkpt lat="39.10887309591434" lon="8.852699362144575"><ele>443.0</ele><time>2026-04-01T13:46:48Z</time></trkpt><trkpt lat="39.10899491850878" lon="8.852768514980722"><ele>443.5</ele><time>2026-04-01T13:46:49Z</time></trkpt><trkpt lat="39.10912608626544" lon="8.852820924914031"><ele>444.0</ele><time>2026-04-01T13:46:50Z</time></trkpt><trkpt lat="39.10924687504627" lon="8.852868801496067"><ele>444.5</ele><time>2026-04-01T13:46:51Z</time></trkpt><trkpt lat="39.10935108403725" lon="8.852919332015675"><ele>445.0</ele><time>2026-04-01T13:46:52Z</time></trkpt><trkpt lat="39.10944420488311" lon="8.85297630662661"><ele>445.00000000000006</ele><time>2026-04-01T13:46:53Z</time></trkpt><trkpt lat="39.109531540233746" lon="8.853033385441394"><ele>445.0</ele><time>2026-04-01T13:46:54Z</time></trkpt><trkpt lat="39.109612218073096" lon="8.853096570758279"><ele>445.0</ele><time>2026-04-01T13:46:55Z</time></trkpt><trkpt lat="39.109686538708516" lon="8.853165002763093"><ele>445.0</ele><time>2026-04-01T13:46:56Z</time></trkpt><trkpt lat="39.10975717949687" lon="8.853228077481178"><ele>445.00000000000006</ele><time>2026-04-01T13:46:57Z</time></trkpt><trkpt lat="39.10981921553905" lon="8.853281667287135"><ele>445.0</ele><time>2026-04-01T13:46:58Z</time></trkpt><trkpt lat="39.10986709929781" lon="8.853339409502778"><ele>441.0</ele><time>2026-04-01T13:46:59Z</time></trkpt><trkpt lat="39.109935414725264" lon="8.853495490720245"><ele>437.0</ele><time>2026-04-01T13:47:01Z</time></trkpt><trkpt lat="39.10995482602064" lon="8.8535964426814"><ele>433.0</ele><time>2026-04-01T13:47:02Z</time></trkpt><trkpt lat="39.10996522294389" lon="8.853707412110733"><ele>429.0</ele><time>2026-04-01T13:47:03Z</time></trkpt><trkpt lat="39.10997583436667" lon="8.853830535171983"><ele>425.0</ele><time>2026-04-01T13:47:04Z</time></trkpt><trkpt lat="39.10997954953799" lon="8.853941067409014"><ele>425.0</ele><time>2026-04-01T13:47:05Z</time></trkpt><trkpt lat="39.10998448020474" lon="8.854037206181935"><ele>425.0</ele><time>2026-04-01T13:47:06Z</time></trkpt><trkpt lat="39.110004626486806" lon="8.85412079901449"><ele>425.0</ele><time>2026-04-01T13:47:07Z</time></trkpt><trkpt lat="39.11004230563649" lon="8.854186322828683"><ele>425.0</ele><time>2026-04-01T13:47:08Z</time></trkpt><trkpt lat="39.11009571267234" lon="8.854242742288427"><ele>425.0</ele><time>2026-04-01T13:47:09Z</time></trkpt><trkpt lat="39.110167386721535" lon="8.854279271807115"><ele>425.0</ele><time>2026-04-01T13:47:10Z</time></trkpt><trkpt lat="39.11025320392947" lon="8.854305867426678"><ele>425.0</ele><time>2026-04-01T13:47:11Z</time></trkpt><trkpt lat="39.110343322128415" lon="8.85434175857988"><ele>426.49999999999994</ele><time>2026-04-01T13:47:12Z</time></trkpt><trkpt lat="39.11043304484432" lon="8.85438913988383"><ele>428.0</ele><time>2026-04-01T13:47:13Z</time></trkpt><trkpt lat="39.11048923702197" lon="8.854450698644497"><ele>429.5</ele><time>2026-04-01T13:47:14Z</time></trkpt><trkpt lat="39.11054003876505" lon="8.854511142737794"><ele>431.0</ele><time>2026-04-01T13:47:15Z</time></trkpt><trkpt lat="39.110588225045284" lon="8.854580625988675"><ele>432.49999999999994</ele><time>2026-04-01T13:47:16Z</time></trkpt><trkpt lat="39.11064092566813" lon="8.854657133126748"><ele>434.0</ele><time>2026-04-01T13:47:17Z</time></trkpt><trkpt lat="39.11067293665595" lon="8.854733594252421"><ele>433.99999999999994</ele><time>2026-04-01T13:47:18Z</time></trkpt><trkpt lat="39.11069590059905" lon="8.854825346061538"><ele>434.0</ele><time>2026-04-01T13:47:18.999Z</time></trkpt><trkpt lat="39.11070815275104" lon="8.854923685604936"><ele>434.0</ele><time>2026-04-01T13:47:19.999Z</time></trkpt><trkpt lat="39.110704655286966" lon="8.855030438147237"><ele>434.0</ele><time>2026-04-01T13:47:20.999Z</time></trkpt><trkpt lat="39.11068584133015" lon="8.855143702679438"><ele>433.99999999999994</ele><time>2026-04-01T13:47:21.999Z</time></trkpt><trkpt lat="39.1106477057713" lon="8.855259663744272"><ele>434.0</ele><time>2026-04-01T13:47:22.999Z</time></trkpt><trkpt lat="39.11060226049274" lon="8.855368361655874"><ele>434.8333333333333</ele><time>2026-04-01T13:47:23.999Z</time></trkpt><trkpt lat="39.11055605562615" lon="8.855480189158953"><ele>435.66666666666663</ele><time>2026-04-01T13:47:24.999Z</time></trkpt><trkpt lat="39.110538157186234" lon="8.855559365385101"><ele>436.5</ele><time>2026-04-01T13:47:25.999Z</time></trkpt><trkpt lat="39.11055234335911" lon="8.855720333770577"><ele>437.33333333333337</ele><time>2026-04-01T13:47:27.999Z</time></trkpt><trkpt lat="39.11059120719626" lon="8.855796050436846"><ele>438.1666666666667</ele><time>2026-04-01T13:47:28.999Z</time></trkpt><trkpt lat="39.11064816992814" lon="8.855879682089153"><ele>439.0</ele><time>2026-04-01T13:47:29.999Z</time></trkpt><trkpt lat="39.11073681022631" lon="8.855957018638664"><ele>435.6</ele><time>2026-04-01T13:47:30.999Z</time></trkpt><trkpt lat="39.11083960002822" lon="8.85604056056567"><ele>432.2</ele><time>2026-04-01T13:47:31.999Z</time></trkpt><trkpt lat="39.110925897673695" lon="8.856112129425682"><ele>428.8</ele><time>2026-04-01T13:47:32.999Z</time></trkpt><trkpt lat="39.11098204368234" lon="8.856165409281601"><ele>425.40000000000003</ele><time>2026-04-01T13:47:33.999Z</time></trkpt><trkpt lat="39.11104101327787" lon="8.85625671062621"><ele>422.0</ele><time>2026-04-01T13:47:35.999Z</time></trkpt><trkpt lat="39.11109170236352" lon="8.85630801617751"><ele>421.99999999999994</ele><time>2026-04-01T13:47:36.999Z</time></trkpt><trkpt lat="39.11113762025609" lon="8.856375201354142"><ele>422.0</ele><time>2026-04-01T13:47:37.999Z</time></trkpt><trkpt lat="39.11118230030494" lon="8.856456252163479"><ele>422.0</ele><time>2026-04-01T13:47:38.999Z</time></trkpt><trkpt lat="39.11123516721831" lon="8.856548541750492"><ele>422.0</ele><time>2026-04-01T13:47:39.999Z</time></trkpt><trkpt lat="39.111291408042554" lon="8.856653865561528"><ele>421.99999999999994</ele><time>2026-04-01T13:47:40.999Z</time></trkpt><trkpt lat="39.111346014165605" lon="8.856767247866259"><ele>422.0</ele><time>2026-04-01T13:47:41.999Z</time></trkpt><trkpt lat="39.111414220928445" lon="8.856897131892662"><ele>418.25</ele><time>2026-04-01T13:47:42.999Z</time></trkpt><trkpt lat="39.111492130362706" lon="8.857030043862148"><ele>414.5</ele><time>2026-04-01T13:47:43.999Z</time></trkpt><trkpt lat="39.111574773529775" lon="8.857174635332427"><ele>410.75</ele><time>2026-04-01T13:47:44.999Z</time></trkpt><trkpt lat="39.11164432746163" lon="8.857320249674325"><ele>407.0</ele><time>2026-04-01T13:47:45.999Z</time></trkpt><trkpt lat="39.11172634190498" lon="8.857442843326506"><ele>407.0</ele><time>2026-04-01T13:47:46.999Z</time></trkpt><trkpt lat="39.11179625376857" lon="8.857562279193987"><ele>407.0</ele><time>2026-04-01T13:47:47.999Z</time></trkpt><trkpt lat="39.111875172774305" lon="8.857658022530487"><ele>407.0</ele><time>2026-04-01T13:47:48.999Z</time></trkpt><trkpt lat="39.11194227536703" lon="8.857741932812763"><ele>407.0</ele><time>2026-04-01T13:47:49.999Z</time></trkpt><trkpt lat="39.11201812245598" lon="8.857798412216498"><ele>407.0</ele><time>2026-04-01T13:47:50.999Z</time></trkpt><trkpt lat="39.112086693446514" lon="8.857825013789844"><ele>409.5</ele><time>2026-04-01T13:47:51.999Z</time></trkpt><trkpt lat="39.11220888174501" lon="8.857813534033713"><ele>412.0</ele><time>2026-04-01T13:47:53.999Z</time></trkpt><trkpt lat="39.11207166729616" lon="8.858005737077937"><ele>414.5</ele><time>2026-04-01T13:47:54.999Z</time></trkpt><trkpt lat="39.11214419144277" lon="8.857985485060553"><ele>417.0</ele><time>2026-04-01T13:47:55.999Z</time></trkpt><trkpt lat="39.11222018338772" lon="8.857938128766824"><ele>417.0</ele><time>2026-04-01T13:47:56.999Z</time></trkpt><trkpt lat="39.11229476832776" lon="8.857864847232715"><ele>417.0</ele><time>2026-04-01T13:47:57.999Z</time></trkpt><trkpt lat="39.11236257735327" lon="8.857773227897512"><ele>417.0</ele><time>2026-04-01T13:47:58.999Z</time></trkpt><trkpt lat="39.112436086988005" lon="8.857674001144112"><ele>417.0</ele><time>2026-04-01T13:47:59.999Z</time></trkpt><trkpt lat="39.11252643099852" lon="8.857590441426378"><ele>417.0</ele><time>2026-04-01T13:48:00.999Z</time></trkpt><trkpt lat="39.11261816496517" lon="8.857499018885433"><ele>413.6</ele><time>2026-04-01T13:48:01.999Z</time></trkpt><trkpt lat="39.112710465453645" lon="8.857396548458603"><ele>410.20000000000005</ele><time>2026-04-01T13:48:02.999Z</time></trkpt><trkpt lat="39.112796999321304" lon="8.857310463969196"><ele>406.8</ele><time>2026-04-01T13:48:03.999Z</time></trkpt><trkpt lat="39.112887169326335" lon="8.857241816762697"><ele>403.4</ele><time>2026-04-01T13:48:04.999Z</time></trkpt><trkpt lat="39.112956441145855" lon="8.857181631390782"><ele>400.0</ele><time>2026-04-01T13:48:05.999Z</time></trkpt><trkpt lat="39.11302932762183" lon="8.857144822983768"><ele>400.0</ele><time>2026-04-01T13:48:06.999Z</time></trkpt><trkpt lat="39.11313426272349" lon="8.857151249335466"><ele>400.0</ele><time>2026-04-01T13:48:08.999Z</time></trkpt><trkpt lat="39.113203926660056" lon="8.857189000904683"><ele>400.0</ele><time>2026-04-01T13:48:09.999Z</time></trkpt><trkpt lat="39.113267895722" lon="8.857254534015311"><ele>400.0</ele><time>2026-04-01T13:48:10.999Z</time></trkpt><trkpt lat="39.113341689849115" lon="8.857353137229458"><ele>400.0</ele><time>2026-04-01T13:48:11.999Z</time></trkpt><trkpt lat="39.1134218801008" lon="8.857470157322043"><ele>398.5</ele><time>2026-04-01T13:48:12.999Z</time></trkpt><trkpt lat="39.11349607617994" lon="8.857605250251282"><ele>397.0</ele><time>2026-04-01T13:48:13.999Z</time></trkpt><trkpt lat="39.113579101642785" lon="8.857757695827408"><ele>395.5</ele><time>2026-04-01T13:48:14.999Z</time></trkpt><trkpt lat="39.11366743684779" lon="8.857929284597413"><ele>394.0</ele><time>2026-04-01T13:48:15.999Z</time></trkpt><trkpt lat="39.113753520219404" lon="8.85811496099222"><ele>398.0</ele><time>2026-04-01T13:48:16.999Z</time></trkpt><trkpt lat="39.113852880281215" lon="8.858312753780186"><ele>402.0</ele><time>2026-04-01T13:48:17.999Z</time></trkpt><trkpt lat="39.11395767324249" lon="8.858550457013493"><ele>406.0</ele><time>2026-04-01T13:48:18.999Z</time></trkpt><trkpt lat="39.11405946267904" lon="8.858738189849298"><ele>400.33333333333337</ele><time>2026-04-01T13:48:19.999Z</time></trkpt><trkpt lat="39.11415396095618" lon="8.858914123450809"><ele>394.66666666666663</ele><time>2026-04-01T13:48:20.999Z</time></trkpt><trkpt lat="39.11424208546542" lon="8.859081414669374"><ele>389.0</ele><time>2026-04-01T13:48:21.999Z</time></trkpt><trkpt lat="39.11432894533471" lon="8.859242903139641"><ele>391.0</ele><time>2026-04-01T13:48:22.999Z</time></trkpt><trkpt lat="39.114412584334744" lon="8.85940505828654"><ele>393.0</ele><time>2026-04-01T13:48:23.999Z</time></trkpt><trkpt lat="39.11449842072385" lon="8.859563801720856"><ele>395.0</ele><time>2026-04-01T13:48:25Z</time></trkpt><trkpt lat="39.114573955329845" lon="8.859705287153083"><ele>397.0</ele><time>2026-04-01T13:48:26Z</time></trkpt><trkpt lat="39.114647674433705" lon="8.859832932938975"><ele>397.00000000000006</ele><time>2026-04-01T13:48:27Z</time></trkpt><trkpt lat="39.11470813652592" lon="8.859956974054128"><ele>397.0</ele><time>2026-04-01T13:48:28Z</time></trkpt><trkpt lat="39.11476959551531" lon="8.860068035381508"><ele>397.0</ele><time>2026-04-01T13:48:29Z</time></trkpt><trkpt lat="39.11481543289858" lon="8.860156106075449"><ele>397.0</ele><time>2026-04-01T13:48:30Z</time></trkpt><trkpt lat="39.11485535506438" lon="8.860232882992609"><ele>397.00000000000006</ele><time>2026-04-01T13:48:31Z</time></trkpt><trkpt lat="39.11486150330776" lon="8.860321199922947"><ele>397.0</ele><time>2026-04-01T13:48:32Z</time></trkpt><trkpt lat="39.11485372738965" lon="8.860428517523195"><ele>398.40000000000003</ele><time>2026-04-01T13:48:33Z</time></trkpt><trkpt lat="39.11482919080647" lon="8.860540924393705"><ele>399.8</ele><time>2026-04-01T13:48:34Z</time></trkpt><trkpt lat="39.11479323843559" lon="8.860662950506992"><ele>401.2</ele><time>2026-04-01T13:48:35Z</time></trkpt><trkpt lat="39.11476071806981" lon="8.860786675780515"><ele>402.6</ele><time>2026-04-01T13:48:36Z</time></trkpt><trkpt lat="39.11473194389299" lon="8.860885853710958"><ele>404.0</ele><time>2026-04-01T13:48:37Z</time></trkpt><trkpt lat="39.114740033909506" lon="8.860994571095787"><ele>404.0</ele><time>2026-04-01T13:48:38Z</time></trkpt><trkpt lat="39.11475782999705" lon="8.861115042511965"><ele>404.0</ele><time>2026-04-01T13:48:39Z</time></trkpt><trkpt lat="39.11480685331149" lon="8.861245924726036"><ele>404.0</ele><time>2026-04-01T13:48:40Z</time></trkpt><trkpt lat="39.114876719981595" lon="8.861385236825605"><ele>404.0</ele><time>2026-04-01T13:48:41Z</time></trkpt><trkpt lat="39.11495684351" lon="8.86153042638798"><ele>400.5</ele><time>2026-04-01T13:48:42Z</time></trkpt><trkpt lat="39.11503824375016" lon="8.861675705469017"><ele>397.0</ele><time>2026-04-01T13:48:43Z</time></trkpt><trkpt lat="39.11512360255197" lon="8.861818410303892"><ele>393.5</ele><time>2026-04-01T13:48:44Z</time></trkpt><trkpt lat="39.11519683134156" lon="8.861936733215673"><ele>390.0</ele><time>2026-04-01T13:48:45Z</time></trkpt><trkpt lat="39.1152711741107" lon="8.862038718002054"><ele>390.0</ele><time>2026-04-01T13:48:46Z</time></trkpt><trkpt lat="39.11535527242566" lon="8.862138398857102"><ele>390.0</ele><time>2026-04-01T13:48:47Z</time></trkpt><trkpt lat="39.115429766977364" lon="8.862247143132745"><ele>390.0</ele><time>2026-04-01T13:48:48Z</time></trkpt><trkpt lat="39.115502266169166" lon="8.862368026324333"><ele>390.0</ele><time>2026-04-01T13:48:49Z</time></trkpt><trkpt lat="39.1155703529833" lon="8.862491986138995"><ele>390.0</ele><time>2026-04-01T13:48:50Z</time></trkpt><trkpt lat="39.11563810767977" lon="8.862595727718308"><ele>390.0</ele><time>2026-04-01T13:48:51Z</time></trkpt><trkpt lat="39.11569787047524" lon="8.862687854269831"><ele>390.0</ele><time>2026-04-01T13:48:52Z</time></trkpt><trkpt lat="39.115762471426315" lon="8.862766421251356"><ele>390.0</ele><time>2026-04-01T13:48:53Z</time></trkpt><trkpt lat="39.11582293179495" lon="8.862837430576047"><ele>390.0</ele><time>2026-04-01T13:48:54Z</time></trkpt><trkpt lat="39.11586757426023" lon="8.862901322601022"><ele>390.0</ele><time>2026-04-01T13:48:55Z</time></trkpt><trkpt lat="39.11590287238589" lon="8.862972846334946"><ele>388.4</ele><time>2026-04-01T13:48:56Z</time></trkpt><trkpt lat="39.115918527507105" lon="8.863118353365193"><ele>386.8</ele><time>2026-04-01T13:48:58Z</time></trkpt><trkpt lat="39.115871936562826" lon="8.86326152747751"><ele>385.20000000000005</ele><time>2026-04-01T13:49:00Z</time></trkpt><trkpt lat="39.11581309168806" lon="8.863330845812225"><ele>383.6</ele><time>2026-04-01T13:49:01Z</time></trkpt><trkpt lat="39.1157381719472" lon="8.86339215940738"><ele>382.0</ele><time>2026-04-01T13:49:02Z</time></trkpt><trkpt lat="39.11565048569532" lon="8.863461592949427"><ele>382.0</ele><time>2026-04-01T13:49:03Z</time></trkpt><trkpt lat="39.11557353803439" lon="8.863533510555184"><ele>382.0</ele><time>2026-04-01T13:49:04Z</time></trkpt><trkpt lat="39.11552191649462" lon="8.863612638988453"><ele>382.0</ele><time>2026-04-01T13:49:05Z</time></trkpt><trkpt lat="39.11550282595502" lon="8.863710284329333"><ele>382.0</ele><time>2026-04-01T13:49:06Z</time></trkpt><trkpt lat="39.11549688172003" lon="8.86381107524779"><ele>382.0</ele><time>2026-04-01T13:49:07Z</time></trkpt><trkpt lat="39.11552008076951" lon="8.863936203053862"><ele>382.0</ele><time>2026-04-01T13:49:08Z</time></trkpt><trkpt lat="39.115540578839884" lon="8.86405465835754"><ele>382.0</ele><time>2026-04-01T13:49:09Z</time></trkpt><trkpt lat="39.11556361311471" lon="8.864164305176516"><ele>382.0</ele><time>2026-04-01T13:49:10Z</time></trkpt><trkpt lat="39.11559319407591" lon="8.864250876296822"><ele>382.0</ele><time>2026-04-01T13:49:11Z</time></trkpt><trkpt lat="39.11564184906123" lon="8.86431325738464"><ele>382.0</ele><time>2026-04-01T13:49:12Z</time></trkpt><trkpt lat="39.11570785830653" lon="8.864348702006758"><ele>382.0</ele><time>2026-04-01T13:49:13Z</time></trkpt><trkpt lat="39.11582161695932" lon="8.864360147722007"><ele>382.0</ele><time>2026-04-01T13:49:14Z</time></trkpt><trkpt lat="39.11596562947978" lon="8.864380371628954"><ele>377.75</ele><time>2026-04-01T13:49:15Z</time></trkpt><trkpt lat="39.11610403111506" lon="8.864400313827044"><ele>373.5</ele><time>2026-04-01T13:49:16Z</time></trkpt><trkpt lat="39.11622182937262" lon="8.864418091152084"><ele>369.25</ele><time>2026-04-01T13:49:17Z</time></trkpt><trkpt lat="39.11634634741754" lon="8.864419994692767"><ele>365.0</ele><time>2026-04-01T13:49:18Z</time></trkpt><trkpt lat="39.116487173203296" lon="8.86440449353062"><ele>367.75</ele><time>2026-04-01T13:49:19Z</time></trkpt><trkpt lat="39.116612711096195" lon="8.86438597432277"><ele>370.5</ele><time>2026-04-01T13:49:20Z</time></trkpt><trkpt lat="39.11672429629581" lon="8.864362098720509"><ele>373.25</ele><time>2026-04-01T13:49:21Z</time></trkpt><trkpt lat="39.1168330720727" lon="8.864327120893387"><ele>376.0</ele><time>2026-04-01T13:49:22Z</time></trkpt><trkpt lat="39.11694978676751" lon="8.864300129246127"><ele>376.0</ele><time>2026-04-01T13:49:23Z</time></trkpt><trkpt lat="39.11705004651956" lon="8.864290500372796"><ele>376.0</ele><time>2026-04-01T13:49:24Z</time></trkpt><trkpt lat="39.11713974983536" lon="8.864292797103444"><ele>376.0</ele><time>2026-04-01T13:49:25Z</time></trkpt><trkpt lat="39.11722098728462" lon="8.864302506358143"><ele>376.0</ele><time>2026-04-01T13:49:26Z</time></trkpt><trkpt lat="39.11730329701971" lon="8.864334335200038"><ele>376.0</ele><time>2026-04-01T13:49:27Z</time></trkpt><trkpt lat="39.11737780560221" lon="8.86438345267384"><ele>376.0</ele><time>2026-04-01T13:49:28Z</time></trkpt><trkpt lat="39.11744803736045" lon="8.864452151294383"><ele>374.20000000000005</ele><time>2026-04-01T13:49:29Z</time></trkpt><trkpt lat="39.117515937841475" lon="8.86453497633787"><ele>372.40000000000003</ele><time>2026-04-01T13:49:30Z</time></trkpt><trkpt lat="39.117572389511345" lon="8.864633208369812"><ele>370.6</ele><time>2026-04-01T13:49:31Z</time></trkpt><trkpt lat="39.117630748409724" lon="8.864734304756231"><ele>368.8</ele><time>2026-04-01T13:49:32Z</time></trkpt><trkpt lat="39.11767192188813" lon="8.864839110484617"><ele>367.0</ele><time>2026-04-01T13:49:33Z</time></trkpt><trkpt lat="39.11769580843674" lon="8.864947726059906"><ele>367.0</ele><time>2026-04-01T13:49:34Z</time></trkpt><trkpt lat="39.11770417267233" lon="8.86504069678923"><ele>367.0</ele><time>2026-04-01T13:49:35Z</time></trkpt><trkpt lat="39.117699353703024" lon="8.865142937074966"><ele>367.0</ele><time>2026-04-01T13:49:36Z</time></trkpt><trkpt lat="39.11768469757532" lon="8.8652445025923"><ele>367.0</ele><time>2026-04-01T13:49:37Z</time></trkpt><trkpt lat="39.11766208091844" lon="8.865349127831909"><ele>367.0</ele><time>2026-04-01T13:49:38Z</time></trkpt><trkpt lat="39.117651956743714" lon="8.865463976494798"><ele>367.0</ele><time>2026-04-01T13:49:39Z</time></trkpt><trkpt lat="39.117665662575966" lon="8.865601939789979"><ele>366.75</ele><time>2026-04-01T13:49:40Z</time></trkpt><trkpt lat="39.11770115094567" lon="8.865737030181062"><ele>366.5</ele><time>2026-04-01T13:49:41Z</time></trkpt><trkpt lat="39.117752594068264" lon="8.865890479278729"><ele>366.25</ele><time>2026-04-01T13:49:42Z</time></trkpt><trkpt lat="39.11779849510097" lon="8.866041824936858"><ele>366.0</ele><time>2026-04-01T13:49:42.999Z</time></trkpt><trkpt lat="39.11783251276378" lon="8.866197937475857"><ele>366.0</ele><time>2026-04-01T13:49:43.999Z</time></trkpt><trkpt lat="39.11786324316898" lon="8.866352120134227"><ele>366.0</ele><time>2026-04-01T13:49:44.999Z</time></trkpt><trkpt lat="39.117888045348415" lon="8.866489238662995"><ele>366.0</ele><time>2026-04-01T13:49:45.999Z</time></trkpt><trkpt lat="39.11790461854456" lon="8.866626018259723"><ele>366.0</ele><time>2026-04-01T13:49:46.999Z</time></trkpt><trkpt lat="39.11790476401649" lon="8.86678011102784"><ele>363.5</ele><time>2026-04-01T13:49:47.999Z</time></trkpt><trkpt lat="39.11789248645893" lon="8.86695728663162"><ele>361.0</ele><time>2026-04-01T13:49:48.999Z</time></trkpt><trkpt lat="39.117870909115204" lon="8.867123412686349"><ele>358.5</ele><time>2026-04-01T13:49:49.999Z</time></trkpt><trkpt lat="39.117853947778976" lon="8.867269039829491"><ele>356.0</ele><time>2026-04-01T13:49:50.999Z</time></trkpt><trkpt lat="39.117842956563926" lon="8.867407627714707"><ele>356.0</ele><time>2026-04-01T13:49:51.999Z</time></trkpt><trkpt lat="39.11783486771306" lon="8.867534595766985"><ele>356.0</ele><time>2026-04-01T13:49:52.999Z</time></trkpt><trkpt lat="39.11782236595208" lon="8.867643341981335"><ele>356.0</ele><time>2026-04-01T13:49:53.999Z</time></trkpt><trkpt lat="39.11781200096144" lon="8.867738982757176"><ele>356.0</ele><time>2026-04-01T13:49:54.999Z</time></trkpt><trkpt lat="39.117824513741844" lon="8.867822341041856"><ele>356.0</ele><time>2026-04-01T13:49:55.999Z</time></trkpt><trkpt lat="39.117901223766296" lon="8.867958460360382"><ele>356.8</ele><time>2026-04-01T13:49:57.999Z</time></trkpt><trkpt lat="39.11797775052269" lon="8.868013737110033"><ele>357.6</ele><time>2026-04-01T13:49:58.999Z</time></trkpt><trkpt lat="39.11807410602116" lon="8.868060806520813"><ele>358.4</ele><time>2026-04-01T13:49:59.999Z</time></trkpt><trkpt lat="39.118176226589455" lon="8.868093067733334"><ele>359.2</ele><time>2026-04-01T13:50:00.999Z</time></trkpt><trkpt lat="39.11826121621669" lon="8.868124342329697"><ele>360.0</ele><time>2026-04-01T13:50:01.999Z</time></trkpt><trkpt lat="39.11832518672022" lon="8.868171731257316"><ele>357.6</ele><time>2026-04-01T13:50:02.999Z</time></trkpt><trkpt lat="39.11839290877825" lon="8.868240192838199"><ele>355.2</ele><time>2026-04-01T13:50:03.999Z</time></trkpt><trkpt lat="39.118466174711216" lon="8.86834963051343"><ele>352.79999999999995</ele><time>2026-04-01T13:50:04.999Z</time></trkpt><trkpt lat="39.118527599932705" lon="8.868482972037206"><ele>350.4</ele><time>2026-04-01T13:50:05.999Z</time></trkpt><trkpt lat="39.118578363808766" lon="8.86862357558666"><ele>348.0</ele><time>2026-04-01T13:50:06.999Z</time></trkpt><trkpt lat="39.11861700555859" lon="8.8687452100598"><ele>348.0</ele><time>2026-04-01T13:50:07.999Z</time></trkpt><trkpt lat="39.11865997628455" lon="8.868855905400203"><ele>348.0</ele><time>2026-04-01T13:50:08.999Z</time></trkpt><trkpt lat="39.11869920745563" lon="8.868959451532465"><ele>348.0</ele><time>2026-04-01T13:50:09.999Z</time></trkpt><trkpt lat="39.118737563393815" lon="8.869048919418262"><ele>348.0</ele><time>2026-04-01T13:50:10.999Z</time></trkpt><trkpt lat="39.11880096471841" lon="8.869120641595684"><ele>348.0</ele><time>2026-04-01T13:50:11.999Z</time></trkpt><trkpt lat="39.11888140138597" lon="8.869180237079137"><ele>348.0</ele><time>2026-04-01T13:50:12.999Z</time></trkpt><trkpt lat="39.11897315111248" lon="8.869233604290468"><ele>351.0</ele><time>2026-04-01T13:50:13.999Z</time></trkpt><trkpt lat="39.119061213637444" lon="8.869309679281928"><ele>354.0</ele><time>2026-04-01T13:50:14.999Z</time></trkpt><trkpt lat="39.1191283393774" lon="8.869402714710123"><ele>357.0</ele><time>2026-04-01T13:50:15.999Z</time></trkpt><trkpt lat="39.119190440111915" lon="8.869520551636715"><ele>360.0</ele><time>2026-04-01T13:50:16.999Z</time></trkpt><trkpt lat="39.1192646732048" lon="8.869658677795908"><ele>363.0</ele><time>2026-04-01T13:50:17.999Z</time></trkpt><trkpt lat="39.119335318422884" lon="8.869807932702338"><ele>358.25</ele><time>2026-04-01T13:50:18.999Z</time></trkpt><trkpt lat="39.11940655062638" lon="8.869959123459271"><ele>353.5</ele><time>2026-04-01T13:50:19.999Z</time></trkpt><trkpt lat="39.11947590212808" lon="8.870111790614038"><ele>348.75</ele><time>2026-04-01T13:50:20.999Z</time></trkpt><trkpt lat="39.11954707465953" lon="8.870271979378906"><ele>344.0</ele><time>2026-04-01T13:50:21.999Z</time></trkpt><trkpt lat="39.11961251895535" lon="8.870439812914826"><ele>344.0</ele><time>2026-04-01T13:50:22.999Z</time></trkpt><trkpt lat="39.1196914720605" lon="8.87060864788928"><ele>344.0</ele><time>2026-04-01T13:50:23.999Z</time></trkpt><trkpt lat="39.119788463377084" lon="8.87077694871996"><ele>344.0</ele><time>2026-04-01T13:50:24.999Z</time></trkpt><trkpt lat="39.11987925605122" lon="8.870942918059127"><ele>338.5</ele><time>2026-04-01T13:50:25.999Z</time></trkpt><trkpt lat="39.11995936474024" lon="8.871092477370503"><ele>333.0</ele><time>2026-04-01T13:50:26.999Z</time></trkpt><trkpt lat="39.12003447366911" lon="8.871233575180938"><ele>327.5</ele><time>2026-04-01T13:50:27.999Z</time></trkpt><trkpt lat="39.12010472687332" lon="8.871363647790803"><ele>322.0</ele><time>2026-04-01T13:50:28.999Z</time></trkpt><trkpt lat="39.1201684408613" lon="8.871484760275175"><ele>322.0</ele><time>2026-04-01T13:50:30Z</time></trkpt><trkpt lat="39.120240201337566" lon="8.871595943270032"><ele>322.0</ele><time>2026-04-01T13:50:31Z</time></trkpt><trkpt lat="39.12027168772827" lon="8.871722961912523"><ele>322.0</ele><time>2026-04-01T13:50:32Z</time></trkpt><trkpt lat="39.120307376168874" lon="8.871859001932885"><ele>322.0</ele><time>2026-04-01T13:50:33Z</time></trkpt><trkpt lat="39.12033598538405" lon="8.872009212291697"><ele>322.0</ele><time>2026-04-01T13:50:34Z</time></trkpt><trkpt lat="39.120360572200724" lon="8.872150356830764"><ele>322.8</ele><time>2026-04-01T13:50:35Z</time></trkpt><trkpt lat="39.12037659412821" lon="8.872282653263394"><ele>323.6</ele><time>2026-04-01T13:50:36Z</time></trkpt><trkpt lat="39.12039926036898" lon="8.872405015094158"><ele>324.40000000000003</ele><time>2026-04-01T13:50:37Z</time></trkpt><trkpt lat="39.12044094261485" lon="8.872522657115255"><ele>325.20000000000005</ele><time>2026-04-01T13:50:38Z</time></trkpt><trkpt lat="39.120499921525514" lon="8.872638021914812"><ele>326.0</ele><time>2026-04-01T13:50:39Z</time></trkpt><trkpt lat="39.12057605045923" lon="8.872757448638481"><ele>323.75</ele><time>2026-04-01T13:50:40Z</time></trkpt><trkpt lat="39.12066986351331" lon="8.87288252337951"><ele>321.5</ele><time>2026-04-01T13:50:41Z</time></trkpt><trkpt lat="39.120769120062405" lon="8.873017393525926"><ele>319.25</ele><time>2026-04-01T13:50:42Z</time></trkpt><trkpt lat="39.12087378654162" lon="8.87315937924398"><ele>317.0</ele><time>2026-04-01T13:50:43Z</time></trkpt><trkpt lat="39.120981133849774" lon="8.873315528244948"><ele>314.0</ele><time>2026-04-01T13:50:44Z</time></trkpt><trkpt lat="39.12108253470605" lon="8.873469328026868"><ele>311.0</ele><time>2026-04-01T13:50:45Z</time></trkpt><trkpt lat="39.121169901512154" lon="8.873603884628048"><ele>308.0</ele><time>2026-04-01T13:50:46Z</time></trkpt><trkpt lat="39.12124083357608" lon="8.873718731292403"><ele>305.0</ele><time>2026-04-01T13:50:47Z</time></trkpt><trkpt lat="39.12129305449878" lon="8.873809359717402"><ele>305.0</ele><time>2026-04-01T13:50:48Z</time></trkpt><trkpt lat="39.12134907197989" lon="8.873867533640622"><ele>305.0</ele><time>2026-04-01T13:50:49Z</time></trkpt><trkpt lat="39.121418612059394" lon="8.87388846637312"><ele>305.0</ele><time>2026-04-01T13:50:50Z</time></trkpt><trkpt lat="39.12149488229453" lon="8.87387966099761"><ele>305.0</ele><time>2026-04-01T13:50:51Z</time></trkpt><trkpt lat="39.121574197557344" lon="8.873861563028923"><ele>305.0</ele><time>2026-04-01T13:50:52Z</time></trkpt><trkpt lat="39.12165368985828" lon="8.873823821448845"><ele>305.0</ele><time>2026-04-01T13:50:53Z</time></trkpt><trkpt lat="39.12173165679437" lon="8.87376444839249"><ele>305.4</ele><time>2026-04-01T13:50:54Z</time></trkpt><trkpt lat="39.12179889953809" lon="8.873684359280109"><ele>305.8</ele><time>2026-04-01T13:50:55Z</time></trkpt><trkpt lat="39.12186477011084" lon="8.873591132630496"><ele>306.2</ele><time>2026-04-01T13:50:56Z</time></trkpt><trkpt lat="39.121915343114566" lon="8.873452791916979"><ele>306.6</ele><time>2026-04-01T13:50:57Z</time></trkpt><trkpt lat="39.12196148880715" lon="8.873319294213033"><ele>307.0</ele><time>2026-04-01T13:50:58Z</time></trkpt><trkpt lat="39.12200662747267" lon="8.873195968134628"><ele>308.0</ele><time>2026-04-01T13:50:59Z</time></trkpt><trkpt lat="39.122045952382884" lon="8.873051346497094"><ele>309.0</ele><time>2026-04-01T13:51:00Z</time></trkpt><trkpt lat="39.1220848558554" lon="8.872925704669491"><ele>310.0</ele><time>2026-04-01T13:51:01Z</time></trkpt><trkpt lat="39.12212160330472" lon="8.872844401074497"><ele>311.0</ele><time>2026-04-01T13:51:02Z</time></trkpt><trkpt lat="39.12222280471606" lon="8.872754186097142"><ele>312.0</ele><time>2026-04-01T13:51:04Z</time></trkpt><trkpt lat="39.12230628533286" lon="8.872749231723914"><ele>308.5</ele><time>2026-04-01T13:51:05Z</time></trkpt><trkpt lat="39.1224484020486" lon="8.872754870078824"><ele>305.0</ele><time>2026-04-01T13:51:06Z</time></trkpt><trkpt lat="39.12256109040746" lon="8.872771318761439"><ele>301.5</ele><time>2026-04-01T13:51:07Z</time></trkpt><trkpt lat="39.122650496242954" lon="8.872783092451037"><ele>298.0</ele><time>2026-04-01T13:51:08Z</time></trkpt><trkpt lat="39.122757996421136" lon="8.872829020417882"><ele>298.0</ele><time>2026-04-01T13:51:09Z</time></trkpt><trkpt lat="39.12285517982783" lon="8.8728942873388"><ele>298.0</ele><time>2026-04-01T13:51:10Z</time></trkpt><trkpt lat="39.12294448971914" lon="8.872970358191846"><ele>298.0</ele><time>2026-04-01T13:51:11Z</time></trkpt><trkpt lat="39.12304114196635" lon="8.872984832874073"><ele>298.0</ele><time>2026-04-01T13:51:12Z</time></trkpt><trkpt lat="39.12311519186598" lon="8.873012121205162"><ele>298.0</ele><time>2026-04-01T13:51:13Z</time></trkpt><trkpt lat="39.12317814737359" lon="8.873010296134877"><ele>297.8</ele><time>2026-04-01T13:51:14Z</time></trkpt><trkpt lat="39.12327521792167" lon="8.872926811983554"><ele>297.6</ele><time>2026-04-01T13:51:16Z</time></trkpt><trkpt lat="39.123311453628325" lon="8.872843737114014"><ele>297.4</ele><time>2026-04-01T13:51:17Z</time></trkpt><trkpt lat="39.12332475549015" lon="8.872735925332993"><ele>297.2</ele><time>2026-04-01T13:51:18Z</time></trkpt><trkpt lat="39.12331085426428" lon="8.872620283341593"><ele>297.0</ele><time>2026-04-01T13:51:19Z</time></trkpt><trkpt lat="39.123287478226246" lon="8.872498001912984"><ele>298.2</ele><time>2026-04-01T13:51:20Z</time></trkpt><trkpt lat="39.12324307352847" lon="8.872372929495091"><ele>299.4</ele><time>2026-04-01T13:51:21Z</time></trkpt><trkpt lat="39.123202609959534" lon="8.872251369443651"><ele>300.6</ele><time>2026-04-01T13:51:22Z</time></trkpt><trkpt lat="39.12319841204471" lon="8.872073956835582"><ele>301.8</ele><time>2026-04-01T13:51:24Z</time></trkpt><trkpt lat="39.12319218363246" lon="8.871962128789521"><ele>303.0</ele><time>2026-04-01T13:51:25Z</time></trkpt><trkpt lat="39.12325200770897" lon="8.871848615605979"><ele>304.6</ele><time>2026-04-01T13:51:26Z</time></trkpt><trkpt lat="39.123331017762254" lon="8.871739139093544"><ele>306.20000000000005</ele><time>2026-04-01T13:51:27Z</time></trkpt><trkpt lat="39.12342421513468" lon="8.871640844794923"><ele>307.8</ele><time>2026-04-01T13:51:28Z</time></trkpt><trkpt lat="39.12350914092196" lon="8.871550743747765"><ele>309.40000000000003</ele><time>2026-04-01T13:51:29Z</time></trkpt><trkpt lat="39.12357382644188" lon="8.871476509415617"><ele>311.0</ele><time>2026-04-01T13:51:30Z</time></trkpt><trkpt lat="39.1236186375783" lon="8.871418900118131"><ele>311.0</ele><time>2026-04-01T13:51:31Z</time></trkpt><trkpt lat="39.12374048764256" lon="8.871401674750523"><ele>311.0</ele><time>2026-04-01T13:51:33Z</time></trkpt><trkpt lat="39.123816150885695" lon="8.871446460809537"><ele>311.0</ele><time>2026-04-01T13:51:34Z</time></trkpt><trkpt lat="39.12388381322994" lon="8.871506589047032"><ele>311.0</ele><time>2026-04-01T13:51:35Z</time></trkpt><trkpt lat="39.12395751681414" lon="8.871576543617612"><ele>311.0</ele><time>2026-04-01T13:51:36Z</time></trkpt><trkpt lat="39.12402778427715" lon="8.87168364466666"><ele>305.5</ele><time>2026-04-01T13:51:37Z</time></trkpt><trkpt lat="39.124114908288" lon="8.871814407022288"><ele>300.0</ele><time>2026-04-01T13:51:38Z</time></trkpt><trkpt lat="39.12419696677902" lon="8.871947258441145"><ele>294.5</ele><time>2026-04-01T13:51:39Z</time></trkpt><trkpt lat="39.12428156332184" lon="8.872088253639529"><ele>289.0</ele><time>2026-04-01T13:51:40Z</time></trkpt><trkpt lat="39.124379648267706" lon="8.872251159569238"><ele>289.0</ele><time>2026-04-01T13:51:41Z</time></trkpt><trkpt lat="39.12447742273734" lon="8.872398277573284"><ele>289.0</ele><time>2026-04-01T13:51:42Z</time></trkpt><trkpt lat="39.124581632769775" lon="8.872561135249244"><ele>289.0</ele><time>2026-04-01T13:51:43Z</time></trkpt><trkpt lat="39.124679289913594" lon="8.872718491025015"><ele>288.25</ele><time>2026-04-01T13:51:44Z</time></trkpt><trkpt lat="39.124769627434716" lon="8.872863855816295"><ele>287.5</ele><time>2026-04-01T13:51:45Z</time></trkpt><trkpt lat="39.12485593849231" lon="8.87299818561983"><ele>286.75</ele><time>2026-04-01T13:51:46Z</time></trkpt><trkpt lat="39.124941986223156" lon="8.873131991978934"><ele>286.0</ele><time>2026-04-01T13:51:47Z</time></trkpt><trkpt lat="39.12502226088678" lon="8.873263134919634"><ele>286.0</ele><time>2026-04-01T13:51:48Z</time></trkpt><trkpt lat="39.12508851450775" lon="8.87337985148611"><ele>286.0</ele><time>2026-04-01T13:51:49Z</time></trkpt><trkpt lat="39.125140543546756" lon="8.87346655167686"><ele>286.0</ele><time>2026-04-01T13:51:50Z</time></trkpt><trkpt lat="39.12519836696076" lon="8.87354802052011"><ele>286.0</ele><time>2026-04-01T13:51:51Z</time></trkpt><trkpt lat="39.12526456698243" lon="8.87360216351591"><ele>286.0</ele><time>2026-04-01T13:51:52Z</time></trkpt><trkpt lat="39.125330201654705" lon="8.873640510233875"><ele>286.0</ele><time>2026-04-01T13:51:53Z</time></trkpt><trkpt lat="39.12540665153754" lon="8.873647416138354"><ele>283.40000000000003</ele><time>2026-04-01T13:51:54Z</time></trkpt><trkpt lat="39.12549005698602" lon="8.873638808538379"><ele>280.8</ele><time>2026-04-01T13:51:55Z</time></trkpt><trkpt lat="39.12555883475037" lon="8.873601644690188"><ele>278.20000000000005</ele><time>2026-04-01T13:51:56Z</time></trkpt><trkpt lat="39.125646388054655" lon="8.873544752643088"><ele>275.6</ele><time>2026-04-01T13:51:57Z</time></trkpt><trkpt lat="39.1257359223267" lon="8.873486251759603"><ele>273.0</ele><time>2026-04-01T13:51:58Z</time></trkpt><trkpt lat="39.125823421153775" lon="8.873442736234873"><ele>273.0</ele><time>2026-04-01T13:51:59Z</time></trkpt><trkpt lat="39.12589600003414" lon="8.873426043077062"><ele>273.0</ele><time>2026-04-01T13:52:00Z</time></trkpt><trkpt lat="39.1259673267441" lon="8.873438930335643"><ele>273.0</ele><time>2026-04-01T13:52:01Z</time></trkpt><trkpt lat="39.12602902785518" lon="8.873495030457535"><ele>273.0</ele><time>2026-04-01T13:52:02Z</time></trkpt><trkpt lat="39.12611482723974" lon="8.87357190423474"><ele>273.0</ele><time>2026-04-01T13:52:03Z</time></trkpt><trkpt lat="39.12620024978334" lon="8.873676261341021"><ele>273.0</ele><time>2026-04-01T13:52:04Z</time></trkpt><trkpt lat="39.12628540265065" lon="8.873783258264629"><ele>273.0</ele><time>2026-04-01T13:52:05Z</time></trkpt><trkpt lat="39.126360824156976" lon="8.873892934740379"><ele>273.0</ele><time>2026-04-01T13:52:06Z</time></trkpt><trkpt lat="39.12641837462487" lon="8.873989671255071"><ele>273.0</ele><time>2026-04-01T13:52:06.999Z</time></trkpt><trkpt lat="39.12647261716265" lon="8.874078856726141"><ele>273.0</ele><time>2026-04-01T13:52:07.999Z</time></trkpt><trkpt lat="39.12650520470631" lon="8.874199359083352"><ele>273.0</ele><time>2026-04-01T13:52:08.999Z</time></trkpt><trkpt lat="39.12653012292011" lon="8.874308635391486"><ele>272.6</ele><time>2026-04-01T13:52:09.999Z</time></trkpt><trkpt lat="39.126542982055035" lon="8.87442785268459"><ele>272.20000000000005</ele><time>2026-04-01T13:52:10.999Z</time></trkpt><trkpt lat="39.1265611315774" lon="8.874559192664508"><ele>271.8</ele><time>2026-04-01T13:52:11.999Z</time></trkpt><trkpt lat="39.12658394216324" lon="8.874699983706323"><ele>271.40000000000003</ele><time>2026-04-01T13:52:12.999Z</time></trkpt><trkpt lat="39.12660192734333" lon="8.874862597714753"><ele>271.0</ele><time>2026-04-01T13:52:13.999Z</time></trkpt><trkpt lat="39.126622548890815" lon="8.875041336363573"><ele>269.75</ele><time>2026-04-01T13:52:14.999Z</time></trkpt><trkpt lat="39.12664081733652" lon="8.875212579513647"><ele>268.5</ele><time>2026-04-01T13:52:15.999Z</time></trkpt><trkpt lat="39.126653146381315" lon="8.875363954120143"><ele>267.25</ele><time>2026-04-01T13:52:16.999Z</time></trkpt><trkpt lat="39.12666862610028" lon="8.875512868002184"><ele>266.0</ele><time>2026-04-01T13:52:17.999Z</time></trkpt><trkpt lat="39.12668387152749" lon="8.875653592994913"><ele>266.0</ele><time>2026-04-01T13:52:18.999Z</time></trkpt><trkpt lat="39.12670785797536" lon="8.875780891275676"><ele>266.0</ele><time>2026-04-01T13:52:19.999Z</time></trkpt><trkpt lat="39.12673515709589" lon="8.87590454475186"><ele>266.0</ele><time>2026-04-01T13:52:20.999Z</time></trkpt><trkpt lat="39.12677745820573" lon="8.876034179787352"><ele>266.0</ele><time>2026-04-01T13:52:21.999Z</time></trkpt><trkpt lat="39.12684561849862" lon="8.876160786342055"><ele>266.0</ele><time>2026-04-01T13:52:22.999Z</time></trkpt><trkpt lat="39.12692708201357" lon="8.876295926558905"><ele>263.75</ele><time>2026-04-01T13:52:23.999Z</time></trkpt><trkpt lat="39.127008913682545" lon="8.876437715874975"><ele>261.5</ele><time>2026-04-01T13:52:24.999Z</time></trkpt><trkpt lat="39.12709170009861" lon="8.87658446244961"><ele>259.25</ele><time>2026-04-01T13:52:25.999Z</time></trkpt><trkpt lat="39.12716858062177" lon="8.876718397168743"><ele>257.0</ele><time>2026-04-01T13:52:26.999Z</time></trkpt><trkpt lat="39.12723852935702" lon="8.876851130806886"><ele>255.5</ele><time>2026-04-01T13:52:27.999Z</time></trkpt><trkpt lat="39.12730410022002" lon="8.876972082290749"><ele>254.0</ele><time>2026-04-01T13:52:28.999Z</time></trkpt><trkpt lat="39.12737746173225" lon="8.877082097992714"><ele>252.5</ele><time>2026-04-01T13:52:29.999Z</time></trkpt><trkpt lat="39.12745677113639" lon="8.877187915288877"><ele>251.0</ele><time>2026-04-01T13:52:30.999Z</time></trkpt><trkpt lat="39.12754862147168" lon="8.877286897803426"><ele>250.75</ele><time>2026-04-01T13:52:31.999Z</time></trkpt><trkpt lat="39.12764527654377" lon="8.877387521578433"><ele>250.5</ele><time>2026-04-01T13:52:32.999Z</time></trkpt><trkpt lat="39.12773923507463" lon="8.877487926869946"><ele>250.25</ele><time>2026-04-01T13:52:33.999Z</time></trkpt><trkpt lat="39.127825661975564" lon="8.877581705900988"><ele>250.0</ele><time>2026-04-01T13:52:34.999Z</time></trkpt><trkpt lat="39.12789528220091" lon="8.877673953731655"><ele>248.49999999999997</ele><time>2026-04-01T13:52:36Z</time></trkpt><trkpt lat="39.12795998868613" lon="8.877755178811789"><ele>247.0</ele><time>2026-04-01T13:52:37Z</time></trkpt><trkpt lat="39.12802687190971" lon="8.877835460950102"><ele>245.5</ele><time>2026-04-01T13:52:38Z</time></trkpt><trkpt lat="39.12809252060257" lon="8.877886842691877"><ele>244.0</ele><time>2026-04-01T13:52:39Z</time></trkpt><trkpt lat="39.12816879574239" lon="8.877915701625724"><ele>242.49999999999997</ele><time>2026-04-01T13:52:40Z</time></trkpt><trkpt lat="39.12825609478408" lon="8.87792577271279"><ele>241.0</ele><time>2026-04-01T13:52:41Z</time></trkpt><trkpt lat="39.12836055435624" lon="8.877918857401697"><ele>240.60000000000002</ele><time>2026-04-01T13:52:42Z</time></trkpt><trkpt lat="39.12846917899434" lon="8.877897977038614"><ele>240.20000000000002</ele><time>2026-04-01T13:52:43Z</time></trkpt><trkpt lat="39.12857415082978" lon="8.877870391856307"><ele>239.79999999999998</ele><time>2026-04-01T13:52:44Z</time></trkpt><trkpt lat="39.1286663998711" lon="8.877851828165975"><ele>239.39999999999998</ele><time>2026-04-01T13:52:45Z</time></trkpt><trkpt lat="39.12875704879904" lon="8.877853495647805"><ele>239.0</ele><time>2026-04-01T13:52:46Z</time></trkpt><trkpt lat="39.12884256581271" lon="8.877887317006266"><ele>239.0</ele><time>2026-04-01T13:52:47Z</time></trkpt><trkpt lat="39.12892802400368" lon="8.877948705210398"><ele>238.99999999999997</ele><time>2026-04-01T13:52:48Z</time></trkpt><trkpt lat="39.128999651646495" lon="8.878055601899902"><ele>238.99999999999997</ele><time>2026-04-01T13:52:49Z</time></trkpt><trkpt lat="39.129063092102434" lon="8.878162786722916"><ele>239.0</ele><time>2026-04-01T13:52:50Z</time></trkpt><trkpt lat="39.12912979734389" lon="8.87827978020478"><ele>239.0</ele><time>2026-04-01T13:52:51Z</time></trkpt><trkpt lat="39.12918883888761" lon="8.878412268055698"><ele>240.2</ele><time>2026-04-01T13:52:52Z</time></trkpt><trkpt lat="39.129249951267745" lon="8.878542409908563"><ele>241.39999999999998</ele><time>2026-04-01T13:52:53Z</time></trkpt><trkpt lat="39.1293155256566" lon="8.87866907605412"><ele>242.6</ele><time>2026-04-01T13:52:54Z</time></trkpt><trkpt lat="39.12938257014152" lon="8.878770440845654"><ele>243.8</ele><time>2026-04-01T13:52:55Z</time></trkpt><trkpt lat="39.12944922924011" lon="8.878839168265126"><ele>245.0</ele><time>2026-04-01T13:52:56Z</time></trkpt><trkpt lat="39.129517221557506" lon="8.878877914493945"><ele>245.00000000000003</ele><time>2026-04-01T13:52:57Z</time></trkpt><trkpt lat="39.12958962941713" lon="8.878880642361558"><ele>245.0</ele><time>2026-04-01T13:52:58Z</time></trkpt><trkpt lat="39.12964996409625" lon="8.878846935288582"><ele>245.0</ele><time>2026-04-01T13:52:59Z</time></trkpt><trkpt lat="39.129721799124624" lon="8.878798326875618"><ele>245.0</ele><time>2026-04-01T13:53:00Z</time></trkpt><trkpt lat="39.129791376685546" lon="8.878727405562403"><ele>245.00000000000003</ele><time>2026-04-01T13:53:01Z</time></trkpt><trkpt lat="39.12986964727752" lon="8.87866809067726"><ele>245.0</ele><time>2026-04-01T13:53:02Z</time></trkpt><trkpt lat="39.129950362449016" lon="8.878633115513134"><ele>246.16666666666669</ele><time>2026-04-01T13:53:03Z</time></trkpt><trkpt lat="39.13003363910242" lon="8.878632922395331"><ele>247.33333333333334</ele><time>2026-04-01T13:53:04Z</time></trkpt><trkpt lat="39.13011585740861" lon="8.878665349916112"><ele>248.5</ele><time>2026-04-01T13:53:05Z</time></trkpt><trkpt lat="39.130193596756094" lon="8.878713220484505"><ele>249.66666666666669</ele><time>2026-04-01T13:53:06Z</time></trkpt><trkpt lat="39.13026964686378" lon="8.878779663478525"><ele>250.83333333333334</ele><time>2026-04-01T13:53:07Z</time></trkpt><trkpt lat="39.13035359218082" lon="8.878851032808248"><ele>252.0</ele><time>2026-04-01T13:53:08Z</time></trkpt><trkpt lat="39.130429511536136" lon="8.878932445451696"><ele>252.0</ele><time>2026-04-01T13:53:09Z</time></trkpt><trkpt lat="39.13050398508531" lon="8.879020887085167"><ele>252.0</ele><time>2026-04-01T13:53:10Z</time></trkpt><trkpt lat="39.130578932178366" lon="8.879115169975806"><ele>252.0</ele><time>2026-04-01T13:53:11Z</time></trkpt><trkpt lat="39.130661738876924" lon="8.879200029464318"><ele>252.0</ele><time>2026-04-01T13:53:12Z</time></trkpt><trkpt lat="39.13073949384342" lon="8.879271086761465"><ele>252.0</ele><time>2026-04-01T13:53:13Z</time></trkpt><trkpt lat="39.130822827058246" lon="8.879347358394606"><ele>253.6</ele><time>2026-04-01T13:53:14Z</time></trkpt><trkpt lat="39.1308920306047" lon="8.879445496413183"><ele>255.2</ele><time>2026-04-01T13:53:15Z</time></trkpt><trkpt lat="39.130947655985736" lon="8.87955107748633"><ele>256.8</ele><time>2026-04-01T13:53:16Z</time></trkpt><trkpt lat="39.13099558604661" lon="8.87965691917358"><ele>258.4</ele><time>2026-04-01T13:53:17Z</time></trkpt><trkpt lat="39.131027872860784" lon="8.87976901163912"><ele>260.0</ele><time>2026-04-01T13:53:18Z</time></trkpt><trkpt lat="39.131048311932325" lon="8.879891982552625"><ele>260.0</ele><time>2026-04-01T13:53:19Z</time></trkpt><trkpt lat="39.13106229786074" lon="8.880006050007081"><ele>260.0</ele><time>2026-04-01T13:53:20Z</time></trkpt><trkpt lat="39.131078152971355" lon="8.880112713537843"><ele>260.0</ele><time>2026-04-01T13:53:21Z</time></trkpt><trkpt lat="39.131082510564916" lon="8.88020745268564"><ele>260.0</ele><time>2026-04-01T13:53:22Z</time></trkpt><trkpt lat="39.13107327151201" lon="8.880288192146446"><ele>260.0</ele><time>2026-04-01T13:53:23Z</time></trkpt><trkpt lat="39.131041205545905" lon="8.88036355439862"><ele>260.0</ele><time>2026-04-01T13:53:24Z</time></trkpt><trkpt lat="39.130985498749105" lon="8.880436071355042"><ele>260.1666666666667</ele><time>2026-04-01T13:53:25Z</time></trkpt><trkpt lat="39.13090964215051" lon="8.880499154883495"><ele>260.33333333333337</ele><time>2026-04-01T13:53:26Z</time></trkpt><trkpt lat="39.13083083883621" lon="8.880530687638991"><ele>260.5</ele><time>2026-04-01T13:53:27Z</time></trkpt><trkpt lat="39.130770271060165" lon="8.880609858873129"><ele>260.6666666666667</ele><time>2026-04-01T13:53:28Z</time></trkpt><trkpt lat="39.130722559003424" lon="8.88071443186121"><ele>260.8333333333333</ele><time>2026-04-01T13:53:30Z</time></trkpt><trkpt lat="39.13072851519232" lon="8.88079688655845"><ele>261.0</ele><time>2026-04-01T13:53:31Z</time></trkpt><trkpt lat="39.13078747947482" lon="8.880947851480403"><ele>261.0</ele><time>2026-04-01T13:53:33Z</time></trkpt><trkpt lat="39.13084216619826" lon="8.880989806829845"><ele>261.0</ele><time>2026-04-01T13:53:34Z</time></trkpt><trkpt lat="39.13097380600062" lon="8.881035499264561"><ele>261.0</ele><time>2026-04-01T13:53:36Z</time></trkpt><trkpt lat="39.13104664066502" lon="8.881057550257323"><ele>261.0</ele><time>2026-04-01T13:53:37Z</time></trkpt><trkpt lat="39.13111836401143" lon="8.881101066211519"><ele>261.0</ele><time>2026-04-01T13:53:38Z</time></trkpt><trkpt lat="39.13120467617199" lon="8.881148079372831"><ele>261.0</ele><time>2026-04-01T13:53:39Z</time></trkpt><trkpt lat="39.13129190208221" lon="8.881183636500444"><ele>261.0</ele><time>2026-04-01T13:53:40Z</time></trkpt><trkpt lat="39.131383094635126" lon="8.88121364991425"><ele>261.0</ele><time>2026-04-01T13:53:41Z</time></trkpt><trkpt lat="39.13148123125917" lon="8.881231865829765"><ele>261.0</ele><time>2026-04-01T13:53:42Z</time></trkpt><trkpt lat="39.131578206364644" lon="8.881224982092453"><ele>261.0</ele><time>2026-04-01T13:53:43Z</time></trkpt><trkpt lat="39.131672864826065" lon="8.881187882495606"><ele>261.0</ele><time>2026-04-01T13:53:44Z</time></trkpt><trkpt lat="39.13176090901248" lon="8.881125519349233"><ele>258.75</ele><time>2026-04-01T13:53:45Z</time></trkpt><trkpt lat="39.13185166272408" lon="8.881045365992673"><ele>256.5</ele><time>2026-04-01T13:53:46Z</time></trkpt><trkpt lat="39.131945274519914" lon="8.880945351663307"><ele>254.25</ele><time>2026-04-01T13:53:47Z</time></trkpt><trkpt lat="39.13204006309738" lon="8.880833038782127"><ele>252.0</ele><time>2026-04-01T13:53:48Z</time></trkpt><trkpt lat="39.13214341370834" lon="8.880734078002732"><ele>252.0</ele><time>2026-04-01T13:53:49Z</time></trkpt><trkpt lat="39.13225309580406" lon="8.880651102262792"><ele>252.0</ele><time>2026-04-01T13:53:50Z</time></trkpt><trkpt lat="39.132369717562" lon="8.880586585147007"><ele>252.0</ele><time>2026-04-01T13:53:51Z</time></trkpt><trkpt lat="39.132490127691824" lon="8.88053465536199"><ele>252.0</ele><time>2026-04-01T13:53:52Z</time></trkpt><trkpt lat="39.13261159022115" lon="8.880488397970577"><ele>255.0</ele><time>2026-04-01T13:53:53Z</time></trkpt><trkpt lat="39.13272319131096" lon="8.880468483771802"><ele>258.0</ele><time>2026-04-01T13:53:54Z</time></trkpt><trkpt lat="39.132814811403996" lon="8.880462314269419"><ele>261.0</ele><time>2026-04-01T13:53:55Z</time></trkpt><trkpt lat="39.13289746893261" lon="8.880486690633603"><ele>264.0</ele><time>2026-04-01T13:53:56Z</time></trkpt><trkpt lat="39.13297611749657" lon="8.880534490048444"><ele>267.0</ele><time>2026-04-01T13:53:57Z</time></trkpt><trkpt lat="39.13305557277517" lon="8.880618903491785"><ele>267.0</ele><time>2026-04-01T13:53:58Z</time></trkpt><trkpt lat="39.13313849565553" lon="8.880717990365945"><ele>267.0</ele><time>2026-04-01T13:53:59Z</time></trkpt><trkpt lat="39.13322412146481" lon="8.880797625903732"><ele>267.0</ele><time>2026-04-01T13:54:00Z</time></trkpt><trkpt lat="39.133335882333824" lon="8.880878810625564"><ele>267.0</ele><time>2026-04-01T13:54:01Z</time></trkpt><trkpt lat="39.13345249342108" lon="8.880974764077752"><ele>273.25</ele><time>2026-04-01T13:54:02Z</time></trkpt><trkpt lat="39.13356422931862" lon="8.88107759602582"><ele>279.5</ele><time>2026-04-01T13:54:03Z</time></trkpt><trkpt lat="39.133679825594825" lon="8.881182020270236"><ele>285.75</ele><time>2026-04-01T13:54:04Z</time></trkpt><trkpt lat="39.13379348072331" lon="8.88128695244841"><ele>292.0</ele><time>2026-04-01T13:54:05Z</time></trkpt><trkpt lat="39.133907882502506" lon="8.88139903363878"><ele>292.0</ele><time>2026-04-01T13:54:06Z</time></trkpt><trkpt lat="39.1340168762449" lon="8.881530099728343"><ele>292.0</ele><time>2026-04-01T13:54:07Z</time></trkpt><trkpt lat="39.13412087056846" lon="8.881651530480664"><ele>292.0</ele><time>2026-04-01T13:54:08Z</time></trkpt><trkpt lat="39.134223706013046" lon="8.881775565781423"><ele>292.0</ele><time>2026-04-01T13:54:08.999Z</time></trkpt><trkpt lat="39.134352601894086" lon="8.881888177967515"><ele>291.5</ele><time>2026-04-01T13:54:09.999Z</time></trkpt><trkpt lat="39.13448557776194" lon="8.881970876399372"><ele>291.0</ele><time>2026-04-01T13:54:10.999Z</time></trkpt><trkpt lat="39.134610788819494" lon="8.882043567669996"><ele>290.5</ele><time>2026-04-01T13:54:11.999Z</time></trkpt><trkpt lat="39.134724440917964" lon="8.882109740119535"><ele>290.0</ele><time>2026-04-01T13:54:12.999Z</time></trkpt><trkpt lat="39.13481934815001" lon="8.882195164893272"><ele>282.2</ele><time>2026-04-01T13:54:13.999Z</time></trkpt><trkpt lat="39.134894753940316" lon="8.8823060538973"><ele>274.4</ele><time>2026-04-01T13:54:14.999Z</time></trkpt><trkpt lat="39.13495079301996" lon="8.882428243636557"><ele>266.6</ele><time>2026-04-01T13:54:15.999Z</time></trkpt><trkpt lat="39.13499559732177" lon="8.88254209648497"><ele>258.8</ele><time>2026-04-01T13:54:16.999Z</time></trkpt><trkpt lat="39.135024169006535" lon="8.882655117509978"><ele>251.0</ele><time>2026-04-01T13:54:17.999Z</time></trkpt><trkpt lat="39.13503388077492" lon="8.882760604140906"><ele>251.0</ele><time>2026-04-01T13:54:18.999Z</time></trkpt><trkpt lat="39.135016311653416" lon="8.882873747066355"><ele>251.00000000000003</ele><time>2026-04-01T13:54:19.999Z</time></trkpt><trkpt lat="39.134981880812255" lon="8.883008288920966"><ele>251.00000000000003</ele><time>2026-04-01T13:54:20.999Z</time></trkpt><trkpt lat="39.13493421533604" lon="8.883148995707243"><ele>251.0</ele><time>2026-04-01T13:54:21.999Z</time></trkpt><trkpt lat="39.1348891440257" lon="8.883280959175181"><ele>251.0</ele><time>2026-04-01T13:54:22.999Z</time></trkpt><trkpt lat="39.134859758305815" lon="8.883411483204014"><ele>249.50000000000003</ele><time>2026-04-01T13:54:23.999Z</time></trkpt><trkpt lat="39.13485475962505" lon="8.883534114899707"><ele>248.0</ele><time>2026-04-01T13:54:24.999Z</time></trkpt><trkpt lat="39.134869184853414" lon="8.883653373706492"><ele>246.5</ele><time>2026-04-01T13:54:25.999Z</time></trkpt><trkpt lat="39.13488812666627" lon="8.883747406056173"><ele>245.0</ele><time>2026-04-01T13:54:26.999Z</time></trkpt><trkpt lat="39.134891148556356" lon="8.883837716024573"><ele>243.50000000000003</ele><time>2026-04-01T13:54:27.999Z</time></trkpt><trkpt lat="39.13487367898404" lon="8.883919724178705"><ele>242.0</ele><time>2026-04-01T13:54:28.999Z</time></trkpt><trkpt lat="39.134833696379324" lon="8.883998693387698"><ele>246.6</ele><time>2026-04-01T13:54:29.999Z</time></trkpt><trkpt lat="39.13478520948123" lon="8.884080592594811"><ele>251.2</ele><time>2026-04-01T13:54:30.999Z</time></trkpt><trkpt lat="39.13472516637409" lon="8.884164987666056"><ele>255.8</ele><time>2026-04-01T13:54:31.999Z</time></trkpt><trkpt lat="39.13464970300397" lon="8.884261298156284"><ele>260.4</ele><time>2026-04-01T13:54:32.999Z</time></trkpt><trkpt lat="39.134577141083064" lon="8.88437506111759"><ele>265.0</ele><time>2026-04-01T13:54:33.999Z</time></trkpt><trkpt lat="39.134501384512134" lon="8.88448796225349"><ele>265.0</ele><time>2026-04-01T13:54:34.999Z</time></trkpt><trkpt lat="39.134422891873704" lon="8.884590320102083"><ele>265.0</ele><time>2026-04-01T13:54:35.999Z</time></trkpt><trkpt lat="39.13435816953599" lon="8.884685505074499"><ele>265.0</ele><time>2026-04-01T13:54:36.999Z</time></trkpt><trkpt lat="39.13431111185478" lon="8.884770510174885"><ele>265.0</ele><time>2026-04-01T13:54:37.999Z</time></trkpt><trkpt lat="39.134282226127205" lon="8.884851681742346"><ele>265.0</ele><time>2026-04-01T13:54:38.999Z</time></trkpt><trkpt lat="39.13428027059085" lon="8.884937272479279"><ele>265.0</ele><time>2026-04-01T13:54:39.999Z</time></trkpt><trkpt lat="39.13429962003435" lon="8.885019895652652"><ele>264.99999999999994</ele><time>2026-04-01T13:54:40.999Z</time></trkpt><trkpt lat="39.134348573156394" lon="8.885076224673517"><ele>265.0</ele><time>2026-04-01T13:54:42Z</time></trkpt><trkpt lat="39.13440539079045" lon="8.885118679704437"><ele>265.0</ele><time>2026-04-01T13:54:43Z</time></trkpt><trkpt lat="39.134478683658514" lon="8.885130802162589"><ele>265.0</ele><time>2026-04-01T13:54:44Z</time></trkpt><trkpt lat="39.13454487124226" lon="8.885117941049018"><ele>265.0</ele><time>2026-04-01T13:54:45Z</time></trkpt><trkpt lat="39.13462542359562" lon="8.885136986111739"><ele>264.99999999999994</ele><time>2026-04-01T13:54:46Z</time></trkpt><trkpt lat="39.13471356771512" lon="8.88509836891043"><ele>265.0</ele><time>2026-04-01T13:54:47Z</time></trkpt><trkpt lat="39.13479129807615" lon="8.885064611446987"><ele>264.99999999999994</ele><time>2026-04-01T13:54:48Z</time></trkpt><trkpt lat="39.13486766261417" lon="8.885042796982317"><ele>265.0</ele><time>2026-04-01T13:54:49Z</time></trkpt><trkpt lat="39.134941986184934" lon="8.885024125609158"><ele>265.0</ele><time>2026-04-01T13:54:50Z</time></trkpt><trkpt lat="39.13501199846581" lon="8.885004760673459"><ele>265.0</ele><time>2026-04-01T13:54:51Z</time></trkpt><trkpt lat="39.13508613205983" lon="8.885002704418712"><ele>265.0</ele><time>2026-04-01T13:54:52Z</time></trkpt><trkpt lat="39.13515754281449" lon="8.885014462963046"><ele>264.99999999999994</ele><time>2026-04-01T13:54:53Z</time></trkpt><trkpt lat="39.135227284466914" lon="8.885042100783764"><ele>265.0</ele><time>2026-04-01T13:54:54Z</time></trkpt><trkpt lat="39.135293655786214" lon="8.885092174314522"><ele>268.2</ele><time>2026-04-01T13:54:55Z</time></trkpt><trkpt lat="39.1353493712078" lon="8.885164239527107"><ele>271.4</ele><time>2026-04-01T13:54:56Z</time></trkpt><trkpt lat="39.13540548727097" lon="8.885250034497329"><ele>274.6</ele><time>2026-04-01T13:54:57Z</time></trkpt><trkpt lat="39.13543407795185" lon="8.885374001710439"><ele>277.8</ele><time>2026-04-01T13:54:58Z</time></trkpt><trkpt lat="39.135461664434594" lon="8.885503870720731"><ele>281.0</ele><time>2026-04-01T13:54:59Z</time></trkpt><trkpt lat="39.13550023392755" lon="8.885628115156493"><ele>281.0</ele><time>2026-04-01T13:55:00Z</time></trkpt><trkpt lat="39.13554490923532" lon="8.885730798018177"><ele>281.0</ele><time>2026-04-01T13:55:01Z</time></trkpt><trkpt lat="39.13559353897413" lon="8.885812380391245"><ele>281.0</ele><time>2026-04-01T13:55:02Z</time></trkpt><trkpt lat="39.135671562231394" lon="8.88587569223396"><ele>281.0</ele><time>2026-04-01T13:55:03Z</time></trkpt><trkpt lat="39.13575515781145" lon="8.885937318052468"><ele>281.0</ele><time>2026-04-01T13:55:04Z</time></trkpt><trkpt lat="39.135847325212" lon="8.885989665546662"><ele>283.0</ele><time>2026-04-01T13:55:05Z</time></trkpt><trkpt lat="39.13594499158417" lon="8.88605119449462"><ele>285.0</ele><time>2026-04-01T13:55:06Z</time></trkpt><trkpt lat="39.13604922721558" lon="8.886109723562889"><ele>287.0</ele><time>2026-04-01T13:55:07Z</time></trkpt><trkpt lat="39.13615077468406" lon="8.886178099518505"><ele>289.0</ele><time>2026-04-01T13:55:08Z</time></trkpt><trkpt lat="39.1362491714811" lon="8.886249077245974"><ele>289.0</ele><time>2026-04-01T13:55:09Z</time></trkpt><trkpt lat="39.13638585452569" lon="8.88631629892494"><ele>289.0</ele><time>2026-04-01T13:55:10Z</time></trkpt><trkpt lat="39.13649117472331" lon="8.886415273803719"><ele>289.0</ele><time>2026-04-01T13:55:11Z</time></trkpt><trkpt lat="39.136575574025755" lon="8.8865134101371"><ele>289.0</ele><time>2026-04-01T13:55:12Z</time></trkpt><trkpt lat="39.13666591712733" lon="8.886539899302857"><ele>282.0</ele><time>2026-04-01T13:55:13Z</time></trkpt><trkpt lat="39.13674877426791" lon="8.886540987392117"><ele>275.0</ele><time>2026-04-01T13:55:14Z</time></trkpt><trkpt lat="39.13683789027042" lon="8.886500234724206"><ele>268.0</ele><time>2026-04-01T13:55:15Z</time></trkpt><trkpt lat="39.13693855916986" lon="8.886425218187128"><ele>261.0</ele><time>2026-04-01T13:55:16Z</time></trkpt><trkpt lat="39.13707056354777" lon="8.886307114218639"><ele>261.0</ele><time>2026-04-01T13:55:17Z</time></trkpt><trkpt lat="39.13722811103586" lon="8.886170126526947"><ele>261.0</ele><time>2026-04-01T13:55:18Z</time></trkpt><trkpt lat="39.13739811797635" lon="8.886046767984675"><ele>261.0</ele><time>2026-04-01T13:55:19Z</time></trkpt><trkpt lat="39.137474407465604" lon="8.885889236686317"><ele>256.5</ele><time>2026-04-01T13:55:21Z</time></trkpt><trkpt lat="39.13753343982253" lon="8.885790188446089"><ele>252.0</ele><time>2026-04-01T13:55:22Z</time></trkpt><trkpt lat="39.13758214683889" lon="8.885705552772992"><ele>247.5</ele><time>2026-04-01T13:55:23Z</time></trkpt><trkpt lat="39.137636702080265" lon="8.885641957819763"><ele>243.0</ele><time>2026-04-01T13:55:24Z</time></trkpt><trkpt lat="39.13770352587839" lon="8.885597817856837"><ele>238.5</ele><time>2026-04-01T13:55:25Z</time></trkpt><trkpt lat="39.13777839348305" lon="8.885588776166081"><ele>234.0</ele><time>2026-04-01T13:55:26Z</time></trkpt><trkpt lat="39.137847608628135" lon="8.885594011649431"><ele>234.0</ele><time>2026-04-01T13:55:27Z</time></trkpt><trkpt lat="39.13792597689716" lon="8.885648578867578"><ele>233.99999999999997</ele><time>2026-04-01T13:55:28Z</time></trkpt><trkpt lat="39.13799641616341" lon="8.885723335573893"><ele>233.99999999999997</ele><time>2026-04-01T13:55:29Z</time></trkpt><trkpt lat="39.13806188437222" lon="8.88582098266461"><ele>234.0</ele><time>2026-04-01T13:55:30Z</time></trkpt><trkpt lat="39.13812717931846" lon="8.885944910032533"><ele>234.0</ele><time>2026-04-01T13:55:31Z</time></trkpt><trkpt lat="39.13818765090276" lon="8.886084830832678"><ele>235.25</ele><time>2026-04-01T13:55:32Z</time></trkpt><trkpt lat="39.13823749300979" lon="8.886238049718719"><ele>236.5</ele><time>2026-04-01T13:55:33Z</time></trkpt><trkpt lat="39.1382801901554" lon="8.886401797281927"><ele>237.75</ele><time>2026-04-01T13:55:34Z</time></trkpt><trkpt lat="39.13832474320965" lon="8.886554373436994"><ele>239.0</ele><time>2026-04-01T13:55:35Z</time></trkpt><trkpt lat="39.13835851110951" lon="8.886703335374952"><ele>238.0</ele><time>2026-04-01T13:55:36Z</time></trkpt><trkpt lat="39.13836882341856" lon="8.886835631590392"><ele>236.99999999999997</ele><time>2026-04-01T13:55:37Z</time></trkpt><trkpt lat="39.13835807550904" lon="8.88696694095433"><ele>235.99999999999997</ele><time>2026-04-01T13:55:38Z</time></trkpt><trkpt lat="39.13833259532282" lon="8.887095770924319"><ele>235.0</ele><time>2026-04-01T13:55:39Z</time></trkpt><trkpt lat="39.13828784239166" lon="8.887232466737979"><ele>234.0</ele><time>2026-04-01T13:55:40Z</time></trkpt><trkpt lat="39.138237193740906" lon="8.887380012859364"><ele>238.0</ele><time>2026-04-01T13:55:41Z</time></trkpt><trkpt lat="39.138178614611405" lon="8.887538298717951"><ele>242.0</ele><time>2026-04-01T13:55:42Z</time></trkpt><trkpt lat="39.13811367281111" lon="8.88770274212538"><ele>246.0</ele><time>2026-04-01T13:55:43Z</time></trkpt><trkpt lat="39.13803851211546" lon="8.887863720795092"><ele>250.0</ele><time>2026-04-01T13:55:44Z</time></trkpt><trkpt lat="39.13795461447337" lon="8.888028323429417"><ele>250.0</ele><time>2026-04-01T13:55:45Z</time></trkpt><trkpt lat="39.13786739342113" lon="8.888196913448855"><ele>250.0</ele><time>2026-04-01T13:55:46Z</time></trkpt><trkpt lat="39.13778365123296" lon="8.888366354615277"><ele>250.0</ele><time>2026-04-01T13:55:47Z</time></trkpt><trkpt lat="39.137701510487396" lon="8.8885269872756"><ele>247.25</ele><time>2026-04-01T13:55:48Z</time></trkpt><trkpt lat="39.13761795099589" lon="8.888692291751662"><ele>244.5</ele><time>2026-04-01T13:55:49Z</time></trkpt><trkpt lat="39.137554448572" lon="8.888835407666358"><ele>241.75</ele><time>2026-04-01T13:55:50Z</time></trkpt><trkpt lat="39.13751692250132" lon="8.888944319456975"><ele>239.0</ele><time>2026-04-01T13:55:51Z</time></trkpt><trkpt lat="39.137494502637445" lon="8.889039250831381"><ele>239.0</ele><time>2026-04-01T13:55:52Z</time></trkpt><trkpt lat="39.137498020082724" lon="8.889149975058285"><ele>238.99999999999997</ele><time>2026-04-01T13:55:53Z</time></trkpt><trkpt lat="39.137525475111076" lon="8.889271297476226"><ele>238.99999999999997</ele><time>2026-04-01T13:55:54Z</time></trkpt><trkpt lat="39.13756779135864" lon="8.8893888823675"><ele>239.0</ele><time>2026-04-01T13:55:55Z</time></trkpt><trkpt lat="39.137633702707795" lon="8.889517832187657"><ele>239.0</ele><time>2026-04-01T13:55:56Z</time></trkpt><trkpt lat="39.13770878731732" lon="8.889657429383782"><ele>238.6</ele><time>2026-04-01T13:55:57Z</time></trkpt><trkpt lat="39.137774994550284" lon="8.889783509883154"><ele>238.2</ele><time>2026-04-01T13:55:58Z</time></trkpt><trkpt lat="39.13782790754681" lon="8.889897409088809"><ele>237.79999999999998</ele><time>2026-04-01T13:55:59Z</time></trkpt><trkpt lat="39.13788325293494" lon="8.88997964371435"><ele>237.39999999999998</ele><time>2026-04-01T13:56:00Z</time></trkpt><trkpt lat="39.13799201978745" lon="8.890085416190695"><ele>237.0</ele><time>2026-04-01T13:56:02Z</time></trkpt><trkpt lat="39.138075871792466" lon="8.89008675224185"><ele>237.0</ele><time>2026-04-01T13:56:03Z</time></trkpt><trkpt lat="39.1381623841779" lon="8.890052751401093"><ele>237.0</ele><time>2026-04-01T13:56:04Z</time></trkpt><trkpt lat="39.1382318426008" lon="8.889998772607935"><ele>237.0</ele><time>2026-04-01T13:56:05Z</time></trkpt><trkpt lat="39.13829602799208" lon="8.889914173296564"><ele>237.0</ele><time>2026-04-01T13:56:06Z</time></trkpt><trkpt lat="39.138355067569755" lon="8.88981023814349"><ele>237.0</ele><time>2026-04-01T13:56:07Z</time></trkpt><trkpt lat="39.13841233969482" lon="8.889682961245347"><ele>236.5</ele><time>2026-04-01T13:56:08Z</time></trkpt><trkpt lat="39.13846304344782" lon="8.889557092980608"><ele>236.0</ele><time>2026-04-01T13:56:08.999Z</time></trkpt><trkpt lat="39.13850598935367" lon="8.889414784385137"><ele>235.5</ele><time>2026-04-01T13:56:09.999Z</time></trkpt><trkpt lat="39.13854118909675" lon="8.889260517770184"><ele>235.0</ele><time>2026-04-01T13:56:10.999Z</time></trkpt><trkpt lat="39.13857696979918" lon="8.889112908704764"><ele>233.75</ele><time>2026-04-01T13:56:11.999Z</time></trkpt><trkpt lat="39.138613027639096" lon="8.888985684954644"><ele>232.5</ele><time>2026-04-01T13:56:12.999Z</time></trkpt><trkpt lat="39.13866093509159" lon="8.888866936089187"><ele>231.25</ele><time>2026-04-01T13:56:13.999Z</time></trkpt><trkpt lat="39.138726424406954" lon="8.888742154236533"><ele>230.0</ele><time>2026-04-01T13:56:14.999Z</time></trkpt><trkpt lat="39.13881023327459" lon="8.888616967932293"><ele>230.0</ele><time>2026-04-01T13:56:15.999Z</time></trkpt><trkpt lat="39.13890209198964" lon="8.888487816057934"><ele>230.0</ele><time>2026-04-01T13:56:16.999Z</time></trkpt><trkpt lat="39.1390025634658" lon="8.888349475991653"><ele>230.0</ele><time>2026-04-01T13:56:17.999Z</time></trkpt><trkpt lat="39.13912066712046" lon="8.888204887531758"><ele>230.0</ele><time>2026-04-01T13:56:18.999Z</time></trkpt><trkpt lat="39.139233451881736" lon="8.888074965802083"><ele>229.2</ele><time>2026-04-01T13:56:19.999Z</time></trkpt><trkpt lat="39.13933527737431" lon="8.88795537441412"><ele>228.4</ele><time>2026-04-01T13:56:20.999Z</time></trkpt><trkpt lat="39.139413661203015" lon="8.88785074322458"><ele>227.60000000000002</ele><time>2026-04-01T13:56:21.999Z</time></trkpt><trkpt lat="39.13948188470905" lon="8.887753748890455"><ele>226.8</ele><time>2026-04-01T13:56:22.999Z</time></trkpt><trkpt lat="39.13954383040517" lon="8.887674755016132"><ele>226.0</ele><time>2026-04-01T13:56:23.999Z</time></trkpt><trkpt lat="39.13961066855994" lon="8.887611513790825"><ele>225.99999999999997</ele><time>2026-04-01T13:56:24.999Z</time></trkpt><trkpt lat="39.139681682098875" lon="8.88758175807544"><ele>226.0</ele><time>2026-04-01T13:56:25.999Z</time></trkpt><trkpt lat="39.13975634880255" lon="8.887583089943618"><ele>226.0</ele><time>2026-04-01T13:56:26.999Z</time></trkpt><trkpt lat="39.13982853448143" lon="8.887617693558916"><ele>226.0</ele><time>2026-04-01T13:56:27.999Z</time></trkpt><trkpt lat="39.139895700352604" lon="8.887679998744709"><ele>225.99999999999997</ele><time>2026-04-01T13:56:28.999Z</time></trkpt><trkpt lat="39.13994989764173" lon="8.887769856861478"><ele>226.0</ele><time>2026-04-01T13:56:29.999Z</time></trkpt><trkpt lat="39.139970103820716" lon="8.887894938950536"><ele>226.5</ele><time>2026-04-01T13:56:30.999Z</time></trkpt><trkpt lat="39.139983829051296" lon="8.888055028018103"><ele>227.0</ele><time>2026-04-01T13:56:31.999Z</time></trkpt><trkpt lat="39.1399833366014" lon="8.888229280931995"><ele>227.5</ele><time>2026-04-01T13:56:32.999Z</time></trkpt><trkpt lat="39.13998465109594" lon="8.888392097836249"><ele>228.0</ele><time>2026-04-01T13:56:33.999Z</time></trkpt><trkpt lat="39.13999112134056" lon="8.888529636470695"><ele>228.0</ele><time>2026-04-01T13:56:34.999Z</time></trkpt><trkpt lat="39.140032272120884" lon="8.888666911448574"><ele>228.0</ele><time>2026-04-01T13:56:35.999Z</time></trkpt><trkpt lat="39.14010121651532" lon="8.88878647784917"><ele>228.0</ele><time>2026-04-01T13:56:36.999Z</time></trkpt><trkpt lat="39.14020256248872" lon="8.888922279170938"><ele>228.0</ele><time>2026-04-01T13:56:37.999Z</time></trkpt><trkpt lat="39.14030824530909" lon="8.889068676647337"><ele>228.0</ele><time>2026-04-01T13:56:38.999Z</time></trkpt><trkpt lat="39.14039078500111" lon="8.88917592012122"><ele>228.0</ele><time>2026-04-01T13:56:39.999Z</time></trkpt><trkpt lat="39.14044933724382" lon="8.889258148751386"><ele>228.0</ele><time>2026-04-01T13:56:40.999Z</time></trkpt><trkpt lat="39.140525254855284" lon="8.88931037738486"><ele>228.0</ele><time>2026-04-01T13:56:41.999Z</time></trkpt><trkpt lat="39.14061533379879" lon="8.889333679079892"><ele>228.0</ele><time>2026-04-01T13:56:42.999Z</time></trkpt><trkpt lat="39.14071045597429" lon="8.889340257786051"><ele>227.25</ele><time>2026-04-01T13:56:43.999Z</time></trkpt><trkpt lat="39.140806411298904" lon="8.88930520123766"><ele>226.5</ele><time>2026-04-01T13:56:44.999Z</time></trkpt><trkpt lat="39.14093237895406" lon="8.889239526951002"><ele>225.75</ele><time>2026-04-01T13:56:45.999Z</time></trkpt><trkpt lat="39.14106116067961" lon="8.889173836079781"><ele>225.0</ele><time>2026-04-01T13:56:46.999Z</time></trkpt><trkpt lat="39.14117893847205" lon="8.889139379003126"><ele>222.5</ele><time>2026-04-01T13:56:48Z</time></trkpt><trkpt lat="39.141289482121984" lon="8.889125181041678"><ele>220.0</ele><time>2026-04-01T13:56:49Z</time></trkpt><trkpt lat="39.14139397397814" lon="8.889139452727779"><ele>217.5</ele><time>2026-04-01T13:56:50Z</time></trkpt><trkpt lat="39.141509831107086" lon="8.889173072923626"><ele>215.0</ele><time>2026-04-01T13:56:51Z</time></trkpt><trkpt lat="39.14163869824987" lon="8.88922396431874"><ele>217.33333333333334</ele><time>2026-04-01T13:56:52Z</time></trkpt><trkpt lat="39.141772915953595" lon="8.889298966341716"><ele>219.66666666666669</ele><time>2026-04-01T13:56:53Z</time></trkpt><trkpt lat="39.141941505604784" lon="8.889373987802335"><ele>222.0</ele><time>2026-04-01T13:56:54Z</time></trkpt><trkpt lat="39.142120512755234" lon="8.889441563687845"><ele>222.0</ele><time>2026-04-01T13:56:55Z</time></trkpt><trkpt lat="39.14227524577577" lon="8.889517290261804"><ele>222.0</ele><time>2026-04-01T13:56:56Z</time></trkpt><trkpt lat="39.14243516546924" lon="8.889606569138332"><ele>222.0</ele><time>2026-04-01T13:56:57Z</time></trkpt><trkpt lat="39.14259471373721" lon="8.889687950870643"><ele>219.0</ele><time>2026-04-01T13:56:58Z</time></trkpt><trkpt lat="39.142751150376334" lon="8.889757922902072"><ele>216.0</ele><time>2026-04-01T13:56:59Z</time></trkpt><trkpt lat="39.142897695651655" lon="8.889831547369647"><ele>213.0</ele><time>2026-04-01T13:57:00Z</time></trkpt><trkpt lat="39.14304111755051" lon="8.889910383429344"><ele>213.0</ele><time>2026-04-01T13:57:01Z</time></trkpt><trkpt lat="39.143178299058505" lon="8.889989173105656"><ele>213.0</ele><time>2026-04-01T13:57:02Z</time></trkpt><trkpt lat="39.143304309481394" lon="8.890059659611449"><ele>213.0</ele><time>2026-04-01T13:57:03Z</time></trkpt><trkpt lat="39.14341142651672" lon="8.890118921664644"><ele>213.0</ele><time>2026-04-01T13:57:04Z</time></trkpt><trkpt lat="39.1435111979593" lon="8.890163838784645"><ele>211.0</ele><time>2026-04-01T13:57:05Z</time></trkpt><trkpt lat="39.143608659185006" lon="8.890192015345633"><ele>209.0</ele><time>2026-04-01T13:57:06Z</time></trkpt><trkpt lat="39.143725860114024" lon="8.890180304701756"><ele>207.0</ele><time>2026-04-01T13:57:07Z</time></trkpt><trkpt lat="39.14384144001995" lon="8.890147248656103"><ele>205.0</ele><time>2026-04-01T13:57:08Z</time></trkpt><trkpt lat="39.14396146574307" lon="8.890089047853362"><ele>204.0</ele><time>2026-04-01T13:57:09Z</time></trkpt><trkpt lat="39.144078053409366" lon="8.890026169363908"><ele>203.0</ele><time>2026-04-01T13:57:10Z</time></trkpt><trkpt lat="39.14420380872444" lon="8.889981848725213"><ele>202.0</ele><time>2026-04-01T13:57:11Z</time></trkpt><trkpt lat="39.14433343643877" lon="8.88996877436526"><ele>201.0</ele><time>2026-04-01T13:57:12Z</time></trkpt><trkpt lat="39.144452339508355" lon="8.889962779957726"><ele>201.0</ele><time>2026-04-01T13:57:13Z</time></trkpt><trkpt lat="39.14455862054488" lon="8.889984853758023"><ele>201.0</ele><time>2026-04-01T13:57:14Z</time></trkpt><trkpt lat="39.14466308118704" lon="8.890035509042294"><ele>201.0</ele><time>2026-04-01T13:57:15Z</time></trkpt><trkpt lat="39.144762547848984" lon="8.890106392555886"><ele>201.0</ele><time>2026-04-01T13:57:16Z</time></trkpt><trkpt lat="39.14485798375236" lon="8.890203440665108"><ele>202.75</ele><time>2026-04-01T13:57:17Z</time></trkpt><trkpt lat="39.1449399814655" lon="8.890323569029679"><ele>204.5</ele><time>2026-04-01T13:57:18Z</time></trkpt><trkpt lat="39.14502104119062" lon="8.890460737915026"><ele>206.25</ele><time>2026-04-01T13:57:19Z</time></trkpt><trkpt lat="39.14511558246527" lon="8.890601040606679"><ele>208.0</ele><time>2026-04-01T13:57:20Z</time></trkpt><trkpt lat="39.14520306192951" lon="8.890758154294625"><ele>213.33333333333331</ele><time>2026-04-01T13:57:21Z</time></trkpt><trkpt lat="39.14529038092295" lon="8.890925815769842"><ele>218.66666666666669</ele><time>2026-04-01T13:57:22Z</time></trkpt><trkpt lat="39.145377975180374" lon="8.891099455703312"><ele>224.0</ele><time>2026-04-01T13:57:23Z</time></trkpt><trkpt lat="39.14546476179604" lon="8.891275606673439"><ele>224.0</ele><time>2026-04-01T13:57:24Z</time></trkpt><trkpt lat="39.14556329445121" lon="8.89145284647418"><ele>224.0</ele><time>2026-04-01T13:57:25Z</time></trkpt><trkpt lat="39.145656058095184" lon="8.891633928014047"><ele>224.0</ele><time>2026-04-01T13:57:26Z</time></trkpt><trkpt lat="39.14574510050268" lon="8.891829098599377"><ele>219.0</ele><time>2026-04-01T13:57:27Z</time></trkpt><trkpt lat="39.14583830281983" lon="8.892010397062425"><ele>214.0</ele><time>2026-04-01T13:57:28Z</time></trkpt><trkpt lat="39.14594686363857" lon="8.89219785848858"><ele>209.0</ele><time>2026-04-01T13:57:29Z</time></trkpt><trkpt lat="39.14605580466588" lon="8.892347013578787"><ele>209.0</ele><time>2026-04-01T13:57:30Z</time></trkpt><trkpt lat="39.14617131613789" lon="8.892491637494542"><ele>209.0</ele><time>2026-04-01T13:57:31Z</time></trkpt><trkpt lat="39.146293320775435" lon="8.892630055450002"><ele>209.0</ele><time>2026-04-01T13:57:32Z</time></trkpt><trkpt lat="39.14643701322302" lon="8.892758162034212"><ele>209.0</ele><time>2026-04-01T13:57:33Z</time></trkpt><trkpt lat="39.146576190663474" lon="8.892871157419524"><ele>209.0</ele><time>2026-04-01T13:57:34Z</time></trkpt><trkpt lat="39.146713505905375" lon="8.892985848744184"><ele>209.0</ele><time>2026-04-01T13:57:35Z</time></trkpt><trkpt lat="39.146846895698005" lon="8.893091485898378"><ele>209.0</ele><time>2026-04-01T13:57:36Z</time></trkpt><trkpt lat="39.14698061253308" lon="8.893179175583668"><ele>209.0</ele><time>2026-04-01T13:57:37Z</time></trkpt><trkpt lat="39.147122704882754" lon="8.89325512595091"><ele>209.0</ele><time>2026-04-01T13:57:38Z</time></trkpt><trkpt lat="39.14727485314067" lon="8.893321227501964"><ele>211.66666666666669</ele><time>2026-04-01T13:57:39Z</time></trkpt><trkpt lat="39.14742750847526" lon="8.89338449596355"><ele>214.33333333333331</ele><time>2026-04-01T13:57:40Z</time></trkpt><trkpt lat="39.14757191570703" lon="8.89345333222839"><ele>217.0</ele><time>2026-04-01T13:57:41Z</time></trkpt><trkpt lat="39.14771014664541" lon="8.893525491504612"><ele>217.0</ele><time>2026-04-01T13:57:42Z</time></trkpt><trkpt lat="39.14784353085592" lon="8.893613871085684"><ele>217.0</ele><time>2026-04-01T13:57:43Z</time></trkpt><trkpt lat="39.14797299466799" lon="8.89370922823306"><ele>217.0</ele><time>2026-04-01T13:57:44Z</time></trkpt><trkpt lat="39.14808572826841" lon="8.893822808138593"><ele>217.0</ele><time>2026-04-01T13:57:45Z</time></trkpt><trkpt lat="39.148199677194555" lon="8.893941438958263"><ele>217.75</ele><time>2026-04-01T13:57:46Z</time></trkpt><trkpt lat="39.14830997888811" lon="8.894066351929979"><ele>218.5</ele><time>2026-04-01T13:57:47Z</time></trkpt><trkpt lat="39.14841023334566" lon="8.894180243591709"><ele>219.25</ele><time>2026-04-01T13:57:48Z</time></trkpt><trkpt lat="39.14853040707804" lon="8.89428736332558"><ele>220.0</ele><time>2026-04-01T13:57:49Z</time></trkpt><trkpt lat="39.148646145587364" lon="8.894394431643693"><ele>220.0</ele><time>2026-04-01T13:57:50Z</time></trkpt><trkpt lat="39.148752342626196" lon="8.894502684600827"><ele>220.0</ele><time>2026-04-01T13:57:51Z</time></trkpt><trkpt lat="39.14884941118009" lon="8.894603952507746"><ele>220.0</ele><time>2026-04-01T13:57:52Z</time></trkpt><trkpt lat="39.1489469172687" lon="8.894701341482296"><ele>220.0</ele><time>2026-04-01T13:57:53Z</time></trkpt><trkpt lat="39.1490503318513" lon="8.8948007475966"><ele>218.0</ele><time>2026-04-01T13:57:54Z</time></trkpt><trkpt lat="39.149144013824646" lon="8.894893221516996"><ele>216.0</ele><time>2026-04-01T13:57:55Z</time></trkpt><trkpt lat="39.14923414952717" lon="8.8949677860258"><ele>214.0</ele><time>2026-04-01T13:57:56Z</time></trkpt><trkpt lat="39.14932048170602" lon="8.895027037676398"><ele>212.0</ele><time>2026-04-01T13:57:57Z</time></trkpt><trkpt lat="39.14940032873911" lon="8.895107495267352"><ele>210.0</ele><time>2026-04-01T13:57:58Z</time></trkpt><trkpt lat="39.149463621021745" lon="8.895212075439785"><ele>210.0</ele><time>2026-04-01T13:57:59Z</time></trkpt><trkpt lat="39.14950985459614" lon="8.895329345633181"><ele>210.0</ele><time>2026-04-01T13:58:00Z</time></trkpt><trkpt lat="39.14954267116755" lon="8.895457010702383"><ele>210.0</ele><time>2026-04-01T13:58:01Z</time></trkpt><trkpt lat="39.14955926419111" lon="8.895590968010445"><ele>210.0</ele><time>2026-04-01T13:58:02Z</time></trkpt><trkpt lat="39.14957064204368" lon="8.895723914211645"><ele>210.0</ele><time>2026-04-01T13:58:03Z</time></trkpt><trkpt lat="39.14959545660043" lon="8.895865895653882"><ele>209.6</ele><time>2026-04-01T13:58:04Z</time></trkpt><trkpt lat="39.14961627432115" lon="8.89599793599604"><ele>209.2</ele><time>2026-04-01T13:58:05Z</time></trkpt><trkpt lat="39.149617296649495" lon="8.896135892408926"><ele>208.8</ele><time>2026-04-01T13:58:06Z</time></trkpt><trkpt lat="39.14960693929549" lon="8.896274255730747"><ele>208.4</ele><time>2026-04-01T13:58:07Z</time></trkpt><trkpt lat="39.14958905415926" lon="8.896420790537876"><ele>208.0</ele><time>2026-04-01T13:58:08Z</time></trkpt><trkpt lat="39.14955787823434" lon="8.89655952383435"><ele>208.0</ele><time>2026-04-01T13:58:09Z</time></trkpt><trkpt lat="39.14951667710231" lon="8.896687979149261"><ele>208.0</ele><time>2026-04-01T13:58:10Z</time></trkpt><trkpt lat="39.14947734056132" lon="8.896815228448741"><ele>208.0</ele><time>2026-04-01T13:58:11Z</time></trkpt><trkpt lat="39.149442288177056" lon="8.896950920926809"><ele>208.0</ele><time>2026-04-01T13:58:11.999Z</time></trkpt><trkpt lat="39.14941233030937" lon="8.897093088656264"><ele>208.0</ele><time>2026-04-01T13:58:12.999Z</time></trkpt><trkpt lat="39.14936360327245" lon="8.897235744784124"><ele>205.75</ele><time>2026-04-01T13:58:13.999Z</time></trkpt><trkpt lat="39.1492911334405" lon="8.897371309658787"><ele>203.5</ele><time>2026-04-01T13:58:14.999Z</time></trkpt><trkpt lat="39.14921687658838" lon="8.897508632679921"><ele>201.25</ele><time>2026-04-01T13:58:15.999Z</time></trkpt><trkpt lat="39.14913994945219" lon="8.897646594215654"><ele>199.0</ele><time>2026-04-01T13:58:16.999Z</time></trkpt><trkpt lat="39.14906534896728" lon="8.897787145680836"><ele>203.75</ele><time>2026-04-01T13:58:17.999Z</time></trkpt><trkpt lat="39.14898865029333" lon="8.897918674873267"><ele>208.5</ele><time>2026-04-01T13:58:18.999Z</time></trkpt><trkpt lat="39.14891495961717" lon="8.898044833595655"><ele>213.25</ele><time>2026-04-01T13:58:19.999Z</time></trkpt><trkpt lat="39.14884786315821" lon="8.89815044146383"><ele>218.0</ele><time>2026-04-01T13:58:20.999Z</time></trkpt><trkpt lat="39.148781073220434" lon="8.898258738544431"><ele>218.0</ele><time>2026-04-01T13:58:21.999Z</time></trkpt><trkpt lat="39.148725729811055" lon="8.89837099488786"><ele>218.0</ele><time>2026-04-01T13:58:22.999Z</time></trkpt><trkpt lat="39.148690895993006" lon="8.89848281837921"><ele>218.0</ele><time>2026-04-01T13:58:23.999Z</time></trkpt><trkpt lat="39.14866706971374" lon="8.898568864274022"><ele>218.0</ele><time>2026-04-01T13:58:24.999Z</time></trkpt><trkpt lat="39.14868662785325" lon="8.898703753460389"><ele>218.0</ele><time>2026-04-01T13:58:26.999Z</time></trkpt><trkpt lat="39.14873886216502" lon="8.898812355203674"><ele>216.0</ele><time>2026-04-01T13:58:28.999Z</time></trkpt><trkpt lat="39.14878651892586" lon="8.89888787278547"><ele>214.0</ele><time>2026-04-01T13:58:30.999Z</time></trkpt><trkpt lat="39.14884026825631" lon="8.898966430970813"><ele>212.0</ele><time>2026-04-01T13:58:33.999Z</time></trkpt><trkpt lat="39.14889843776357" lon="8.899066317019845"><ele>210.0</ele><time>2026-04-01T13:58:36.999Z</time></trkpt><trkpt lat="39.1489492505495" lon="8.899155069396679"><ele>208.0</ele><time>2026-04-01T13:58:38.999Z</time></trkpt><trkpt lat="39.14902893073189" lon="8.899256022546796"><ele>209.66666666666666</ele><time>2026-04-01T13:58:40.999Z</time></trkpt><trkpt lat="39.149085796302394" lon="8.89929162875195"><ele>211.33333333333331</ele><time>2026-04-01T13:58:41.999Z</time></trkpt><trkpt lat="39.14915701769263" lon="8.899307206413887"><ele>213.0</ele><time>2026-04-01T13:58:42.999Z</time></trkpt><trkpt lat="39.149231232167836" lon="8.899294795229034"><ele>214.66666666666669</ele><time>2026-04-01T13:58:43.999Z</time></trkpt><trkpt lat="39.14929790155984" lon="8.899268753282639"><ele>216.33333333333334</ele><time>2026-04-01T13:58:44.999Z</time></trkpt><trkpt lat="39.149397946151836" lon="8.899209289597731"><ele>218.0</ele><time>2026-04-01T13:58:45.999Z</time></trkpt><trkpt lat="39.14947659287153" lon="8.899150175064324"><ele>213.4</ele><time>2026-04-01T13:58:46.999Z</time></trkpt><trkpt lat="39.14956043410389" lon="8.899102917335039"><ele>208.8</ele><time>2026-04-01T13:58:47.999Z</time></trkpt><trkpt lat="39.14966090837382" lon="8.899076417867468"><ele>204.2</ele><time>2026-04-01T13:58:48.999Z</time></trkpt><trkpt lat="39.149761592690716" lon="8.89907497957679"><ele>199.6</ele><time>2026-04-01T13:58:49.999Z</time></trkpt><trkpt lat="39.1498633050321" lon="8.899101895212741"><ele>195.0</ele><time>2026-04-01T13:58:50.999Z</time></trkpt><trkpt lat="39.14996301069332" lon="8.89914952852422"><ele>195.0</ele><time>2026-04-01T13:58:51.999Z</time></trkpt><trkpt lat="39.15005968565809" lon="8.899213599798225"><ele>195.0</ele><time>2026-04-01T13:58:52.999Z</time></trkpt><trkpt lat="39.15015636440418" lon="8.899290713782197"><ele>195.0</ele><time>2026-04-01T13:58:54Z</time></trkpt><trkpt lat="39.15026982150898" lon="8.899362238949992"><ele>195.0</ele><time>2026-04-01T13:58:55Z</time></trkpt><trkpt lat="39.15038031500465" lon="8.89943037885"><ele>196.0</ele><time>2026-04-01T13:58:56Z</time></trkpt><trkpt lat="39.1504939920857" lon="8.899510584086688"><ele>197.0</ele><time>2026-04-01T13:58:57Z</time></trkpt><trkpt lat="39.1506035157049" lon="8.899594853641796"><ele>198.0</ele><time>2026-04-01T13:58:58Z</time></trkpt><trkpt lat="39.15071529848906" lon="8.899686329440241"><ele>199.0</ele><time>2026-04-01T13:58:59Z</time></trkpt><trkpt lat="39.150816623633176" lon="8.899787578163378"><ele>199.0</ele><time>2026-04-01T13:59:00Z</time></trkpt><trkpt lat="39.15091667591566" lon="8.899892275886547"><ele>199.0</ele><time>2026-04-01T13:59:01Z</time></trkpt><trkpt lat="39.151015662666914" lon="8.900009046239614"><ele>199.0</ele><time>2026-04-01T13:59:02Z</time></trkpt><trkpt lat="39.15110919595183" lon="8.900135463351898"><ele>199.0</ele><time>2026-04-01T13:59:03Z</time></trkpt><trkpt lat="39.15121009458325" lon="8.900254671911581"><ele>196.75</ele><time>2026-04-01T13:59:04Z</time></trkpt><trkpt lat="39.15131504457149" lon="8.900373600014008"><ele>194.5</ele><time>2026-04-01T13:59:05Z</time></trkpt><trkpt lat="39.15141923370771" lon="8.90049405219668"><ele>192.25</ele><time>2026-04-01T13:59:06Z</time></trkpt><trkpt lat="39.15151993744017" lon="8.90061749040858"><ele>190.0</ele><time>2026-04-01T13:59:07Z</time></trkpt><trkpt lat="39.15162359100549" lon="8.900739981842351"><ele>190.0</ele><time>2026-04-01T13:59:08Z</time></trkpt><trkpt lat="39.15172301751534" lon="8.900858517220898"><ele>190.0</ele><time>2026-04-01T13:59:09Z</time></trkpt><trkpt lat="39.15182031213304" lon="8.900975935512452"><ele>190.0</ele><time>2026-04-01T13:59:10Z</time></trkpt><trkpt lat="39.15192505764455" lon="8.901074197385913"><ele>190.0</ele><time>2026-04-01T13:59:11Z</time></trkpt><trkpt lat="39.15203919758683" lon="8.901160991040777"><ele>191.0</ele><time>2026-04-01T13:59:12Z</time></trkpt><trkpt lat="39.15215116129745" lon="8.901235109886343"><ele>192.0</ele><time>2026-04-01T13:59:13Z</time></trkpt><trkpt lat="39.15228278129185" lon="8.901290336067717"><ele>193.0</ele><time>2026-04-01T13:59:14Z</time></trkpt><trkpt lat="39.15242383207349" lon="8.901317602445218"><ele>194.0</ele><time>2026-04-01T13:59:15Z</time></trkpt><trkpt lat="39.15257481313219" lon="8.901327711273385"><ele>194.0</ele><time>2026-04-01T13:59:16Z</time></trkpt><trkpt lat="39.152722893437925" lon="8.901335237120811"><ele>194.0</ele><time>2026-04-01T13:59:17Z</time></trkpt><trkpt lat="39.152875913631746" lon="8.901353778752153"><ele>194.0</ele><time>2026-04-01T13:59:18Z</time></trkpt><trkpt lat="39.1530277217802" lon="8.901372472012225"><ele>194.0</ele><time>2026-04-01T13:59:19Z</time></trkpt><trkpt lat="39.153179592800676" lon="8.901405961878508"><ele>194.0</ele><time>2026-04-01T13:59:20Z</time></trkpt><trkpt lat="39.15333090389042" lon="8.901435470639733"><ele>194.0</ele><time>2026-04-01T13:59:21Z</time></trkpt><trkpt lat="39.15348047193129" lon="8.901477436810312"><ele>190.0</ele><time>2026-04-01T13:59:22Z</time></trkpt><trkpt lat="39.153625814285896" lon="8.901522782890963"><ele>186.0</ele><time>2026-04-01T13:59:23Z</time></trkpt><trkpt lat="39.15375952947875" lon="8.901575192806794"><ele>182.0</ele><time>2026-04-01T13:59:24Z</time></trkpt><trkpt lat="39.153893091456325" lon="8.901633584493196"><ele>178.0</ele><time>2026-04-01T13:59:25Z</time></trkpt><trkpt lat="39.15403270356256" lon="8.901693580392879"><ele>175.75</ele><time>2026-04-01T13:59:26Z</time></trkpt><trkpt lat="39.154166714211506" lon="8.901756458159987"><ele>173.5</ele><time>2026-04-01T13:59:27Z</time></trkpt><trkpt lat="39.154278427327164" lon="8.901852611564816"><ele>171.25</ele><time>2026-04-01T13:59:28Z</time></trkpt><trkpt lat="39.154392165723216" lon="8.90197555359673"><ele>169.0</ele><time>2026-04-01T13:59:29Z</time></trkpt><trkpt lat="39.15450850661374" lon="8.902091393173158"><ele>169.0</ele><time>2026-04-01T13:59:30Z</time></trkpt><trkpt lat="39.154632099727195" lon="8.902198411027795"><ele>169.0</ele><time>2026-04-01T13:59:31Z</time></trkpt><trkpt lat="39.154756382886056" lon="8.902327021276472"><ele>169.0</ele><time>2026-04-01T13:59:32Z</time></trkpt><trkpt lat="39.15488775755598" lon="8.902453424860783"><ele>168.0</ele><time>2026-04-01T13:59:33Z</time></trkpt><trkpt lat="39.15501751088854" lon="8.902578550110967"><ele>167.0</ele><time>2026-04-01T13:59:34Z</time></trkpt><trkpt lat="39.15513752271923" lon="8.902689603443832"><ele>166.0</ele><time>2026-04-01T13:59:35Z</time></trkpt><trkpt lat="39.155239225292725" lon="8.902802618701326"><ele>165.0</ele><time>2026-04-01T13:59:36Z</time></trkpt><trkpt lat="39.15534316640852" lon="8.902916350748203"><ele>165.0</ele><time>2026-04-01T13:59:37Z</time></trkpt><trkpt lat="39.155448860028805" lon="8.903021616910056"><ele>165.0</ele><time>2026-04-01T13:59:38Z</time></trkpt><trkpt lat="39.15556360947417" lon="8.903125930552044"><ele>165.0</ele><time>2026-04-01T13:59:39Z</time></trkpt><trkpt lat="39.15568341584845" lon="8.903237777578008"><ele>165.0</ele><time>2026-04-01T13:59:40Z</time></trkpt><trkpt lat="39.15579491934048" lon="8.903354943300137"><ele>169.66666666666666</ele><time>2026-04-01T13:59:41Z</time></trkpt><trkpt lat="39.15591287963694" lon="8.90349115394046"><ele>174.33333333333331</ele><time>2026-04-01T13:59:42Z</time></trkpt><trkpt lat="39.15601766534181" lon="8.903632928829483"><ele>179.0</ele><time>2026-04-01T13:59:43Z</time></trkpt><trkpt lat="39.15612270186374" lon="8.903783013237753"><ele>179.0</ele><time>2026-04-01T13:59:44Z</time></trkpt><trkpt lat="39.15622257092357" lon="8.903923124655343"><ele>179.0</ele><time>2026-04-01T13:59:45Z</time></trkpt><trkpt lat="39.15631518057163" lon="8.904045918586448"><ele>179.0</ele><time>2026-04-01T13:59:46Z</time></trkpt><trkpt lat="39.15639457033357" lon="8.904156583934236"><ele>179.0</ele><time>2026-04-01T13:59:47Z</time></trkpt><trkpt lat="39.156466710018265" lon="8.904273111264219"><ele>175.5</ele><time>2026-04-01T13:59:48Z</time></trkpt><trkpt lat="39.156502023688816" lon="8.904404047593463"><ele>172.0</ele><time>2026-04-01T13:59:49Z</time></trkpt><trkpt lat="39.15652207678316" lon="8.904564680645828"><ele>168.5</ele><time>2026-04-01T13:59:50Z</time></trkpt><trkpt lat="39.15653216999939" lon="8.90476237911757"><ele>165.0</ele><time>2026-04-01T13:59:51Z</time></trkpt><trkpt lat="39.15655315385077" lon="8.904956166873166"><ele>169.0</ele><time>2026-04-01T13:59:52Z</time></trkpt><trkpt lat="39.156603822066586" lon="8.905156532086394"><ele>173.0</ele><time>2026-04-01T13:59:53Z</time></trkpt><trkpt lat="39.156671027199835" lon="8.905383849613168"><ele>177.0</ele><time>2026-04-01T13:59:54Z</time></trkpt><trkpt lat="39.1567399596132" lon="8.905580800289714"><ele>177.0</ele><time>2026-04-01T13:59:55Z</time></trkpt><trkpt lat="39.15680130844686" lon="8.905761004194737"><ele>177.0</ele><time>2026-04-01T13:59:56Z</time></trkpt><trkpt lat="39.156849731095726" lon="8.905926810022171"><ele>177.0</ele><time>2026-04-01T13:59:57Z</time></trkpt><trkpt lat="39.156884224166134" lon="8.906091813040927"><ele>177.0</ele><time>2026-04-01T13:59:58Z</time></trkpt><trkpt lat="39.15692071655584" lon="8.906241043632768"><ele>182.75</ele><time>2026-04-01T13:59:59Z</time></trkpt><trkpt lat="39.15696033840987" lon="8.90638608145609"><ele>188.5</ele><time>2026-04-01T14:00:00Z</time></trkpt><trkpt lat="39.157013437477005" lon="8.90652416832471"><ele>194.25</ele><time>2026-04-01T14:00:01Z</time></trkpt><trkpt lat="39.15708369861097" lon="8.90665504725905"><ele>200.0</ele><time>2026-04-01T14:00:02Z</time></trkpt><trkpt lat="39.15717129680711" lon="8.906765784838337"><ele>194.0</ele><time>2026-04-01T14:00:03Z</time></trkpt><trkpt lat="39.15726560771185" lon="8.906867455275682"><ele>188.0</ele><time>2026-04-01T14:00:04Z</time></trkpt><trkpt lat="39.15736166642377" lon="8.90696174246944"><ele>182.0</ele><time>2026-04-01T14:00:05Z</time></trkpt><trkpt lat="39.15745329273841" lon="8.90705797669922"><ele>176.0</ele><time>2026-04-01T14:00:06Z</time></trkpt><trkpt lat="39.15754270262929" lon="8.907163219964715"><ele>176.0</ele><time>2026-04-01T14:00:07Z</time></trkpt><trkpt lat="39.1576300910855" lon="8.90726472766969"><ele>176.0</ele><time>2026-04-01T14:00:08Z</time></trkpt><trkpt lat="39.157728126249324" lon="8.907367545979197"><ele>176.0</ele><time>2026-04-01T14:00:09Z</time></trkpt><trkpt lat="39.15779515193556" lon="8.907473802296598"><ele>176.0</ele><time>2026-04-01T14:00:10Z</time></trkpt><trkpt lat="39.1578858972212" lon="8.907571188932335"><ele>173.0</ele><time>2026-04-01T14:00:11Z</time></trkpt><trkpt lat="39.15796411178875" lon="8.907678039528081"><ele>170.0</ele><time>2026-04-01T14:00:12Z</time></trkpt><trkpt lat="39.15804548440552" lon="8.90778553403112"><ele>167.0</ele><time>2026-04-01T14:00:13Z</time></trkpt><trkpt lat="39.158129248754705" lon="8.907892501053498"><ele>164.0</ele><time>2026-04-01T14:00:14Z</time></trkpt><trkpt lat="39.15820560000383" lon="8.908000111933946"><ele>164.0</ele><time>2026-04-01T14:00:15Z</time></trkpt><trkpt lat="39.15828436364854" lon="8.908110484047352"><ele>164.0</ele><time>2026-04-01T14:00:15.999Z</time></trkpt><trkpt lat="39.15836758873652" lon="8.908228241519554"><ele>164.0</ele><time>2026-04-01T14:00:16.999Z</time></trkpt><trkpt lat="39.158456612432985" lon="8.908344814810624"><ele>164.0</ele><time>2026-04-01T14:00:17.999Z</time></trkpt><trkpt lat="39.158551198545794" lon="8.908461361740853"><ele>169.5</ele><time>2026-04-01T14:00:18.999Z</time></trkpt><trkpt lat="39.158653528553174" lon="8.908574565419558"><ele>175.0</ele><time>2026-04-01T14:00:19.999Z</time></trkpt><trkpt lat="39.15876595650799" lon="8.908680448235925"><ele>180.5</ele><time>2026-04-01T14:00:20.999Z</time></trkpt><trkpt lat="39.1588765827026" lon="8.908789348725033"><ele>186.0</ele><time>2026-04-01T14:00:21.999Z</time></trkpt><trkpt lat="39.15898640800349" lon="8.908904696634789"><ele>187.25</ele><time>2026-04-01T14:00:22.999Z</time></trkpt><trkpt lat="39.15909892693163" lon="8.909022453298181"><ele>188.5</ele><time>2026-04-01T14:00:23.999Z</time></trkpt><trkpt lat="39.159215104174194" lon="8.909121707361708"><ele>189.75</ele><time>2026-04-01T14:00:24.999Z</time></trkpt><trkpt lat="39.15933429615786" lon="8.909202456798125"><ele>191.0</ele><time>2026-04-01T14:00:25.999Z</time></trkpt><trkpt lat="39.15946705899889" lon="8.909254904789206"><ele>191.0</ele><time>2026-04-01T14:00:26.999Z</time></trkpt><trkpt lat="39.15964737889267" lon="8.909298111990767"><ele>191.0</ele><time>2026-04-01T14:00:27.999Z</time></trkpt><trkpt lat="39.1598192141622" lon="8.909333356026075"><ele>191.0</ele><time>2026-04-01T14:00:28.999Z</time></trkpt><trkpt lat="39.15996422065542" lon="8.909357571227742"><ele>187.75</ele><time>2026-04-01T14:00:29.999Z</time></trkpt><trkpt lat="39.1601140125536" lon="8.909375505925661"><ele>184.5</ele><time>2026-04-01T14:00:30.999Z</time></trkpt><trkpt lat="39.16025611300126" lon="8.909419418102242"><ele>181.25</ele><time>2026-04-01T14:00:31.999Z</time></trkpt><trkpt lat="39.16039081705138" lon="8.909458910938067"><ele>178.0</ele><time>2026-04-01T14:00:32.999Z</time></trkpt><trkpt lat="39.160511058856905" lon="8.909490245020844"><ele>178.0</ele><time>2026-04-01T14:00:33.999Z</time></trkpt><trkpt lat="39.16061703156999" lon="8.909498924481195"><ele>178.0</ele><time>2026-04-01T14:00:34.999Z</time></trkpt><trkpt lat="39.16073139164188" lon="8.909474834927357"><ele>178.0</ele><time>2026-04-01T14:00:35.999Z</time></trkpt><trkpt lat="39.160842656998256" lon="8.90942311073699"><ele>178.0</ele><time>2026-04-01T14:00:36.999Z</time></trkpt><trkpt lat="39.16095627317145" lon="8.909355559049782"><ele>177.60000000000002</ele><time>2026-04-01T14:00:37.999Z</time></trkpt><trkpt lat="39.16105466802003" lon="8.909287802666848"><ele>177.20000000000002</ele><time>2026-04-01T14:00:38.999Z</time></trkpt><trkpt lat="39.16114724743728" lon="8.909235191489957"><ele>176.8</ele><time>2026-04-01T14:00:39.999Z</time></trkpt><trkpt lat="39.16123795043469" lon="8.909220395486955"><ele>176.4</ele><time>2026-04-01T14:00:40.999Z</time></trkpt><trkpt lat="39.16131890695529" lon="8.909204715626363"><ele>176.0</ele><time>2026-04-01T14:00:41.999Z</time></trkpt><trkpt lat="39.1614092427776" lon="8.909264049023987"><ele>176.0</ele><time>2026-04-01T14:00:42.999Z</time></trkpt><trkpt lat="39.16148236743406" lon="8.909323975015429"><ele>176.0</ele><time>2026-04-01T14:00:43.999Z</time></trkpt><trkpt lat="39.16155862921465" lon="8.909390784556852"><ele>176.0</ele><time>2026-04-01T14:00:44.999Z</time></trkpt><trkpt lat="39.16162781015472" lon="8.909481386057319"><ele>176.0</ele><time>2026-04-01T14:00:45.999Z</time></trkpt><trkpt lat="39.161694078120384" lon="8.909578194886544"><ele>176.0</ele><time>2026-04-01T14:00:46.999Z</time></trkpt><trkpt lat="39.16174646563072" lon="8.909685869493599"><ele>175.0</ele><time>2026-04-01T14:00:47.999Z</time></trkpt><trkpt lat="39.16179509587111" lon="8.909794107831306"><ele>174.0</ele><time>2026-04-01T14:00:48.999Z</time></trkpt><trkpt lat="39.16183794416129" lon="8.909909450496057"><ele>173.0</ele><time>2026-04-01T14:00:49.999Z</time></trkpt><trkpt lat="39.16187429644101" lon="8.910016109482338"><ele>172.0</ele><time>2026-04-01T14:00:50.999Z</time></trkpt><trkpt lat="39.161909566834794" lon="8.9101119871129"><ele>171.0</ele><time>2026-04-01T14:00:51.999Z</time></trkpt><trkpt lat="39.16194881037978" lon="8.910202973579263"><ele>170.0</ele><time>2026-04-01T14:00:52.999Z</time></trkpt><trkpt lat="39.16199105474968" lon="8.910289293652982"><ele>173.16666666666666</ele><time>2026-04-01T14:00:53.999Z</time></trkpt><trkpt lat="39.162028655827044" lon="8.91037394886177"><ele>176.33333333333331</ele><time>2026-04-01T14:00:54.999Z</time></trkpt><trkpt lat="39.16208357946507" lon="8.910456711907457"><ele>179.5</ele><time>2026-04-01T14:00:55.999Z</time></trkpt><trkpt lat="39.162132570599354" lon="8.910543807757865"><ele>182.66666666666666</ele><time>2026-04-01T14:00:56.999Z</time></trkpt><trkpt lat="39.162180264518" lon="8.910627913677827"><ele>185.83333333333334</ele><time>2026-04-01T14:00:57.999Z</time></trkpt><trkpt lat="39.16223194287253" lon="8.910718604742891"><ele>189.0</ele><time>2026-04-01T14:00:58.999Z</time></trkpt><trkpt lat="39.16229216253263" lon="8.910806098864123"><ele>189.0</ele><time>2026-04-01T14:01:00Z</time></trkpt><trkpt lat="39.16236046606653" lon="8.91087858549628"><ele>189.0</ele><time>2026-04-01T14:01:01Z</time></trkpt><trkpt lat="39.16241899225945" lon="8.910957144881332"><ele>189.0</ele><time>2026-04-01T14:01:02Z</time></trkpt><trkpt lat="39.16247611833167" lon="8.91104013834164"><ele>189.0</ele><time>2026-04-01T14:01:03Z</time></trkpt><trkpt lat="39.162535294936" lon="8.911128279101359"><ele>189.0</ele><time>2026-04-01T14:01:04Z</time></trkpt><trkpt lat="39.162601891149066" lon="8.911203398311097"><ele>189.0</ele><time>2026-04-01T14:01:05Z</time></trkpt><trkpt lat="39.16267745878186" lon="8.9112486462167"><ele>187.14285714285714</ele><time>2026-04-01T14:01:06Z</time></trkpt><trkpt lat="39.16275331934546" lon="8.91127539202001"><ele>185.28571428571428</ele><time>2026-04-01T14:01:07Z</time></trkpt><trkpt lat="39.1628244496885" lon="8.911292496278206"><ele>183.42857142857144</ele><time>2026-04-01T14:01:08Z</time></trkpt><trkpt lat="39.16289532896023" lon="8.911302331518245"><ele>181.57142857142856</ele><time>2026-04-01T14:01:09Z</time></trkpt><trkpt lat="39.16296247847391" lon="8.911323179379083"><ele>179.71428571428572</ele><time>2026-04-01T14:01:10Z</time></trkpt><trkpt lat="39.163034281452056" lon="8.911344115681425"><ele>177.85714285714286</ele><time>2026-04-01T14:01:11Z</time></trkpt><trkpt lat="39.16309781385049" lon="8.911364080138176"><ele>176.0</ele><time>2026-04-01T14:01:12Z</time></trkpt><trkpt lat="39.16322399601015" lon="8.911389768667917"><ele>173.60000000000002</ele><time>2026-04-01T14:01:14Z</time></trkpt><trkpt lat="39.16333883859147" lon="8.911423477025187"><ele>171.2</ele><time>2026-04-01T14:01:16Z</time></trkpt><trkpt lat="39.16340476102421" lon="8.91144500518143"><ele>168.8</ele><time>2026-04-01T14:01:17Z</time></trkpt><trkpt lat="39.1635237725308" lon="8.911468668052963"><ele>166.39999999999998</ele><time>2026-04-01T14:01:19Z</time></trkpt><trkpt lat="39.163598161786915" lon="8.911480937945235"><ele>164.0</ele><time>2026-04-01T14:01:20Z</time></trkpt><trkpt lat="39.16368086835447" lon="8.911469022897787"><ele>164.0</ele><time>2026-04-01T14:01:21Z</time></trkpt><trkpt lat="39.16376029630963" lon="8.91141572848709"><ele>164.0</ele><time>2026-04-01T14:01:22Z</time></trkpt><trkpt lat="39.16384262777473" lon="8.91137386370669"><ele>164.0</ele><time>2026-04-01T14:01:23Z</time></trkpt><trkpt lat="39.16392188914214" lon="8.911314881968162"><ele>164.0</ele><time>2026-04-01T14:01:24Z</time></trkpt><trkpt lat="39.1639952957796" lon="8.911250434671544"><ele>164.0</ele><time>2026-04-01T14:01:25Z</time></trkpt><trkpt lat="39.16405667407258" lon="8.91116205500314"><ele>165.79999999999998</ele><time>2026-04-01T14:01:26Z</time></trkpt><trkpt lat="39.16411673017125" lon="8.911060390097392"><ele>167.6</ele><time>2026-04-01T14:01:27Z</time></trkpt><trkpt lat="39.16417015248662" lon="8.910937327633464"><ele>169.4</ele><time>2026-04-01T14:01:28Z</time></trkpt><trkpt lat="39.164231660613964" lon="8.910811987531957"><ele>171.2</ele><time>2026-04-01T14:01:29Z</time></trkpt><trkpt lat="39.16430686347021" lon="8.910703045999366"><ele>173.0</ele><time>2026-04-01T14:01:30Z</time></trkpt><trkpt lat="39.16439498823894" lon="8.910603002695881"><ele>167.4</ele><time>2026-04-01T14:01:31Z</time></trkpt><trkpt lat="39.16449117713916" lon="8.910509725076656"><ele>161.8</ele><time>2026-04-01T14:01:32Z</time></trkpt><trkpt lat="39.16458391878062" lon="8.910418026925898"><ele>156.2</ele><time>2026-04-01T14:01:33Z</time></trkpt><trkpt lat="39.16467153296339" lon="8.910335260569171"><ele>150.6</ele><time>2026-04-01T14:01:34Z</time></trkpt><trkpt lat="39.164749090275805" lon="8.910256064837544"><ele>145.0</ele><time>2026-04-01T14:01:35Z</time></trkpt><trkpt lat="39.16483476436506" lon="8.910196972029299"><ele>146.4</ele><time>2026-04-01T14:01:36Z</time></trkpt><trkpt lat="39.164933786097954" lon="8.910158779564906"><ele>147.8</ele><time>2026-04-01T14:01:37Z</time></trkpt><trkpt lat="39.16503790748096" lon="8.910149645887797"><ele>149.2</ele><time>2026-04-01T14:01:38Z</time></trkpt><trkpt lat="39.16514827155924" lon="8.910159090604138"><ele>150.6</ele><time>2026-04-01T14:01:39Z</time></trkpt><trkpt lat="39.16526487142901" lon="8.910181353759091"><ele>152.0</ele><time>2026-04-01T14:01:40Z</time></trkpt><trkpt lat="39.16539297864666" lon="8.910192080815001"><ele>152.0</ele><time>2026-04-01T14:01:41Z</time></trkpt><trkpt lat="39.165525360103565" lon="8.910199969796237"><ele>152.0</ele><time>2026-04-01T14:01:42Z</time></trkpt><trkpt lat="39.165660757454155" lon="8.910205494251944"><ele>152.0</ele><time>2026-04-01T14:01:43Z</time></trkpt><trkpt lat="39.165801911536946" lon="8.910225589973287"><ele>152.0</ele><time>2026-04-01T14:01:44Z</time></trkpt><trkpt lat="39.165940004266055" lon="8.910237787865785"><ele>153.5</ele><time>2026-04-01T14:01:45Z</time></trkpt><trkpt lat="39.166077471012336" lon="8.910229152609421"><ele>155.0</ele><time>2026-04-01T14:01:46Z</time></trkpt><trkpt lat="39.16622133104787" lon="8.91020894761706"><ele>156.5</ele><time>2026-04-01T14:01:47Z</time></trkpt><trkpt lat="39.16635664098318" lon="8.910198124687668"><ele>158.0</ele><time>2026-04-01T14:01:48Z</time></trkpt><trkpt lat="39.166478262036215" lon="8.910190778381887"><ele>158.5</ele><time>2026-04-01T14:01:49Z</time></trkpt><trkpt lat="39.166597773953455" lon="8.91017886329072"><ele>159.0</ele><time>2026-04-01T14:01:50Z</time></trkpt><trkpt lat="39.16672286411198" lon="8.910143465913416"><ele>159.5</ele><time>2026-04-01T14:01:51Z</time></trkpt><trkpt lat="39.166839703461946" lon="8.910119250162602"><ele>160.0</ele><time>2026-04-01T14:01:52Z</time></trkpt><trkpt lat="39.16694767856982" lon="8.910111718198621"><ele>160.0</ele><time>2026-04-01T14:01:53Z</time></trkpt><trkpt lat="39.16704638561647" lon="8.910096360502333"><ele>160.0</ele><time>2026-04-01T14:01:54Z</time></trkpt><trkpt lat="39.167144953379314" lon="8.910078760675008"><ele>160.0</ele><time>2026-04-01T14:01:55Z</time></trkpt><trkpt lat="39.167246264045325" lon="8.910094218629592"><ele>160.0</ele><time>2026-04-01T14:01:56Z</time></trkpt><trkpt lat="39.16734371982615" lon="8.910131000464116"><ele>160.0</ele><time>2026-04-01T14:01:57Z</time></trkpt><trkpt lat="39.16742738975553" lon="8.910181417659233"><ele>155.75</ele><time>2026-04-01T14:01:58Z</time></trkpt><trkpt lat="39.16750287321822" lon="8.910259912556066"><ele>151.5</ele><time>2026-04-01T14:01:59Z</time></trkpt><trkpt lat="39.167582836165366" lon="8.910359281621805"><ele>147.25</ele><time>2026-04-01T14:02:00Z</time></trkpt><trkpt lat="39.16763030413121" lon="8.910480595742637"><ele>143.0</ele><time>2026-04-01T14:02:01Z</time></trkpt><trkpt lat="39.16770171690748" lon="8.910632211470064"><ele>143.0</ele><time>2026-04-01T14:02:02Z</time></trkpt><trkpt lat="39.16771835128506" lon="8.91073663523345"><ele>143.0</ele><time>2026-04-01T14:02:03Z</time></trkpt><trkpt lat="39.16774242523442" lon="8.910853506246815"><ele>143.0</ele><time>2026-04-01T14:02:04Z</time></trkpt><trkpt lat="39.1677442336718" lon="8.910973284307453"><ele>143.0</ele><time>2026-04-01T14:02:05Z</time></trkpt><trkpt lat="39.1677531825002" lon="8.911103490936883"><ele>143.0</ele><time>2026-04-01T14:02:06Z</time></trkpt><trkpt lat="39.16774481627085" lon="8.911240846623171"><ele>141.0</ele><time>2026-04-01T14:02:07Z</time></trkpt><trkpt lat="39.1677329660999" lon="8.9113854638097"><ele>139.0</ele><time>2026-04-01T14:02:08Z</time></trkpt><trkpt lat="39.16772112716581" lon="8.911538964399185"><ele>137.0</ele><time>2026-04-01T14:02:09Z</time></trkpt><trkpt lat="39.16771005984838" lon="8.911702757821443"><ele>135.0</ele><time>2026-04-01T14:02:10Z</time></trkpt><trkpt lat="39.167701414258296" lon="8.911869529215714"><ele>134.0</ele><time>2026-04-01T14:02:11Z</time></trkpt><trkpt lat="39.16768938109663" lon="8.912030715601388"><ele>133.0</ele><time>2026-04-01T14:02:12Z</time></trkpt><trkpt lat="39.16768637500513" lon="8.912187531595372"><ele>132.0</ele><time>2026-04-01T14:02:13Z</time></trkpt><trkpt lat="39.16768631730261" lon="8.91233453390198"><ele>131.0</ele><time>2026-04-01T14:02:14Z</time></trkpt><trkpt lat="39.16769222542026" lon="8.912481412194985"><ele>133.25</ele><time>2026-04-01T14:02:14.999Z</time></trkpt><trkpt lat="39.16770459113417" lon="8.912634193353945"><ele>135.5</ele><time>2026-04-01T14:02:15.999Z</time></trkpt><trkpt lat="39.167716549276754" lon="8.912793030812008"><ele>137.75</ele><time>2026-04-01T14:02:16.999Z</time></trkpt><trkpt lat="39.16772279738778" lon="8.912953459217439"><ele>140.0</ele><time>2026-04-01T14:02:17.999Z</time></trkpt><trkpt lat="39.16773166471322" lon="8.913124583078238"><ele>140.0</ele><time>2026-04-01T14:02:18.999Z</time></trkpt><trkpt lat="39.16773828012064" lon="8.913284384753334"><ele>140.0</ele><time>2026-04-01T14:02:19.999Z</time></trkpt><trkpt lat="39.16775571942756" lon="8.913425582502024"><ele>140.0</ele><time>2026-04-01T14:02:20.999Z</time></trkpt><trkpt lat="39.16778879598853" lon="8.913570530540866"><ele>140.0</ele><time>2026-04-01T14:02:21.999Z</time></trkpt><trkpt lat="39.16783271014445" lon="8.913714385451637"><ele>144.75</ele><time>2026-04-01T14:02:22.999Z</time></trkpt><trkpt lat="39.16788955320027" lon="8.913857208448654"><ele>149.5</ele><time>2026-04-01T14:02:23.999Z</time></trkpt><trkpt lat="39.16795125089252" lon="8.913999806814942"><ele>154.25</ele><time>2026-04-01T14:02:24.999Z</time></trkpt><trkpt lat="39.16800603004538" lon="8.914128739319796"><ele>159.0</ele><time>2026-04-01T14:02:25.999Z</time></trkpt><trkpt lat="39.16806206099876" lon="8.914239865641324"><ele>156.8</ele><time>2026-04-01T14:02:26.999Z</time></trkpt><trkpt lat="39.168130837299636" lon="8.914328176391436"><ele>154.60000000000002</ele><time>2026-04-01T14:02:27.999Z</time></trkpt><trkpt lat="39.16820881468767" lon="8.91439842202494"><ele>152.4</ele><time>2026-04-01T14:02:28.999Z</time></trkpt><trkpt lat="39.168302600381566" lon="8.914460087554742"><ele>150.20000000000002</ele><time>2026-04-01T14:02:29.999Z</time></trkpt><trkpt lat="39.1683956657112" lon="8.91450081560895"><ele>148.0</ele><time>2026-04-01T14:02:30.999Z</time></trkpt><trkpt lat="39.168484912388244" lon="8.914535330923314"><ele>148.0</ele><time>2026-04-01T14:02:31.999Z</time></trkpt><trkpt lat="39.16856774447257" lon="8.914567691076368"><ele>148.0</ele><time>2026-04-01T14:02:32.999Z</time></trkpt><trkpt lat="39.168655362878596" lon="8.914602401065519"><ele>148.0</ele><time>2026-04-01T14:02:33.999Z</time></trkpt><trkpt lat="39.16873592560755" lon="8.914635151973549"><ele>148.0</ele><time>2026-04-01T14:02:34.999Z</time></trkpt><trkpt lat="39.16880914872757" lon="8.91466785116278"><ele>148.0</ele><time>2026-04-01T14:02:35.999Z</time></trkpt><trkpt lat="39.16887618851002" lon="8.914697872014687"><ele>148.0</ele><time>2026-04-01T14:02:36.999Z</time></trkpt><trkpt lat="39.168944018228345" lon="8.914730919609077"><ele>148.0</ele><time>2026-04-01T14:02:37.999Z</time></trkpt><trkpt lat="39.16901928146838" lon="8.914758569886414"><ele>148.0</ele><time>2026-04-01T14:02:38.999Z</time></trkpt><trkpt lat="39.169084280382805" lon="8.914783549328536"><ele>148.0</ele><time>2026-04-01T14:02:39.999Z</time></trkpt><trkpt lat="39.16919103986073" lon="8.914855427961651"><ele>148.0</ele><time>2026-04-01T14:02:41.999Z</time></trkpt><trkpt lat="39.16926852779851" lon="8.91493164456989"><ele>148.0</ele><time>2026-04-01T14:02:43.999Z</time></trkpt><trkpt lat="39.16933506476831" lon="8.914999898937154"><ele>148.0</ele><time>2026-04-01T14:02:45.999Z</time></trkpt><trkpt lat="39.16940220944161" lon="8.915034249846364"><ele>145.5</ele><time>2026-04-01T14:02:47.999Z</time></trkpt><trkpt lat="39.16947546904323" lon="8.91508454496184"><ele>143.0</ele><time>2026-04-01T14:02:50.999Z</time></trkpt><trkpt lat="39.169533435284954" lon="8.915188550196675"><ele>140.5</ele><time>2026-04-01T14:19:14.999Z</time></trkpt><trkpt lat="39.169578964408934" lon="8.91528411183368"><ele>138.0</ele><time>2026-04-01T14:19:16.999Z</time></trkpt><trkpt lat="39.16962067275274" lon="8.915374884581883"><ele>135.5</ele><time>2026-04-01T14:19:18.999Z</time></trkpt><trkpt lat="39.16967740409203" lon="8.915464295136768"><ele>133.0</ele><time>2026-04-01T14:19:20.999Z</time></trkpt><trkpt lat="39.16972962777365" lon="8.915660634600481"><ele>133.0</ele><time>2026-04-01T14:19:22.999Z</time></trkpt><trkpt lat="39.16975161751228" lon="8.915834562905209"><ele>133.0</ele><time>2026-04-01T14:19:23.999Z</time></trkpt><trkpt lat="39.169757829572376" lon="8.916010371847287"><ele>133.0</ele><time>2026-04-01T14:19:24.999Z</time></trkpt><trkpt lat="39.16975442044384" lon="8.916132723473316"><ele>133.0</ele><time>2026-04-01T14:19:25.999Z</time></trkpt><trkpt lat="39.16973734500462" lon="8.916277301623275"><ele>132.83333333333334</ele><time>2026-04-01T14:19:27.999Z</time></trkpt><trkpt lat="39.169723821462746" lon="8.916388175255294"><ele>132.66666666666669</ele><time>2026-04-01T14:19:29.999Z</time></trkpt><trkpt lat="39.16970369030967" lon="8.916487386998396"><ele>132.5</ele><time>2026-04-01T14:19:31.999Z</time></trkpt><trkpt lat="39.169675242531" lon="8.91665173310479"><ele>132.33333333333334</ele><time>2026-04-01T14:19:33.999Z</time></trkpt><trkpt lat="39.16967546430243" lon="8.916734521385465"><ele>132.16666666666666</ele><time>2026-04-01T14:19:34.999Z</time></trkpt><trkpt lat="39.16967753270128" lon="8.916830101680345"><ele>132.0</ele><time>2026-04-01T14:19:35.999Z</time></trkpt><trkpt lat="39.1696855855514" lon="8.916921509012502"><ele>132.79999999999998</ele><time>2026-04-01T14:19:36.999Z</time></trkpt><trkpt lat="39.169703569437836" lon="8.91701993737673"><ele>133.6</ele><time>2026-04-01T14:19:37.999Z</time></trkpt><trkpt lat="39.16974695511361" lon="8.917167324418942"><ele>134.39999999999998</ele><time>2026-04-01T14:19:38.999Z</time></trkpt><trkpt lat="39.16979851532233" lon="8.917305208082482"><ele>135.2</ele><time>2026-04-01T14:19:39.999Z</time></trkpt><trkpt lat="39.169847566070786" lon="8.917414523653147"><ele>136.0</ele><time>2026-04-01T14:19:40.999Z</time></trkpt><trkpt lat="39.169893664121176" lon="8.917495175219507"><ele>134.5</ele><time>2026-04-01T14:19:41.999Z</time></trkpt><trkpt lat="39.16994616395082" lon="8.917560751249523"><ele>133.0</ele><time>2026-04-01T14:19:42.999Z</time></trkpt><trkpt lat="39.17000495456842" lon="8.91762672966274"><ele>131.5</ele><time>2026-04-01T14:19:43.999Z</time></trkpt><trkpt lat="39.170069798435016" lon="8.917674907055844"><ele>130.0</ele><time>2026-04-01T14:19:44.999Z</time></trkpt><trkpt lat="39.17013991760949" lon="8.917718715054232"><ele>128.5</ele><time>2026-04-01T14:19:45.999Z</time></trkpt><trkpt lat="39.17021343972873" lon="8.917750172104512"><ele>127.0</ele><time>2026-04-01T14:19:46.999Z</time></trkpt><trkpt lat="39.17028378889063" lon="8.917773332486423"><ele>127.00000000000001</ele><time>2026-04-01T14:19:47.999Z</time></trkpt><trkpt lat="39.17036402316831" lon="8.917787095570391"><ele>127.0</ele><time>2026-04-01T14:19:48.999Z</time></trkpt><trkpt lat="39.17043850760323" lon="8.917797877131902"><ele>127.0</ele><time>2026-04-01T14:19:49.999Z</time></trkpt><trkpt lat="39.170516234434366" lon="8.91780876321111"><ele>127.0</ele><time>2026-04-01T14:19:50.999Z</time></trkpt><trkpt lat="39.17059355654074" lon="8.917805932206766"><ele>127.00000000000001</ele><time>2026-04-01T14:19:51.999Z</time></trkpt><trkpt lat="39.170671778449474" lon="8.917794182339797"><ele>127.0</ele><time>2026-04-01T14:19:52.999Z</time></trkpt><trkpt lat="39.170751755176994" lon="8.917784501609296"><ele>126.66666666666667</ele><time>2026-04-01T14:19:54Z</time></trkpt><trkpt lat="39.1708299903897" lon="8.91776695923401"><ele>126.33333333333334</ele><time>2026-04-01T14:19:55Z</time></trkpt><trkpt lat="39.17090008449921" lon="8.917714802946252"><ele>126.0</ele><time>2026-04-01T14:19:56Z</time></trkpt><trkpt lat="39.170958494903296" lon="8.917639988941053"><ele>125.66666666666666</ele><time>2026-04-01T14:19:57Z</time></trkpt><trkpt lat="39.171009827627664" lon="8.917555200623303"><ele>125.33333333333333</ele><time>2026-04-01T14:19:58Z</time></trkpt><trkpt lat="39.17105212745983" lon="8.917471680944262"><ele>125.0</ele><time>2026-04-01T14:19:59Z</time></trkpt><trkpt lat="39.17108963219337" lon="8.917380528807303"><ele>124.99999999999999</ele><time>2026-04-01T14:20:00Z</time></trkpt><trkpt lat="39.171120951256384" lon="8.917294814921581"><ele>125.0</ele><time>2026-04-01T14:20:01Z</time></trkpt><trkpt lat="39.17115411437415" lon="8.917200165515988"><ele>125.0</ele><time>2026-04-01T14:20:02Z</time></trkpt><trkpt lat="39.17119175139355" lon="8.917100474745638"><ele>125.0</ele><time>2026-04-01T14:20:03Z</time></trkpt><trkpt lat="39.17123489789938" lon="8.916998737259313"><ele>124.99999999999999</ele><time>2026-04-01T14:20:04Z</time></trkpt><trkpt lat="39.17127457934862" lon="8.916883849624819"><ele>125.0</ele><time>2026-04-01T14:20:05Z</time></trkpt><trkpt lat="39.17132338569716" lon="8.916770109160893"><ele>125.8</ele><time>2026-04-01T14:20:06Z</time></trkpt><trkpt lat="39.171387028426004" lon="8.91665904769489"><ele>126.6</ele><time>2026-04-01T14:20:07Z</time></trkpt><trkpt lat="39.171450482732496" lon="8.916536925123975"><ele>127.4</ele><time>2026-04-01T14:20:08Z</time></trkpt><trkpt lat="39.171501765947355" lon="8.916413379289468"><ele>128.2</ele><time>2026-04-01T14:20:09Z</time></trkpt><trkpt lat="39.17154505769837" lon="8.916287669329042"><ele>129.0</ele><time>2026-04-01T14:20:10Z</time></trkpt><trkpt lat="39.171590956121285" lon="8.916165838308741"><ele>129.0</ele><time>2026-04-01T14:20:11Z</time></trkpt><trkpt lat="39.17163704365378" lon="8.916043170487534"><ele>129.0</ele><time>2026-04-01T14:20:12Z</time></trkpt><trkpt lat="39.171687675610684" lon="8.915922478945571"><ele>129.0</ele><time>2026-04-01T14:20:13Z</time></trkpt><trkpt lat="39.17173804741257" lon="8.915808892142605"><ele>129.0</ele><time>2026-04-01T14:20:14Z</time></trkpt><trkpt lat="39.171788842352285" lon="8.915694058889848"><ele>129.0</ele><time>2026-04-01T14:20:15Z</time></trkpt><trkpt lat="39.17184313201843" lon="8.91558739943841"><ele>127.4</ele><time>2026-04-01T14:20:16Z</time></trkpt><trkpt lat="39.17189664519701" lon="8.91548123573078"><ele>125.80000000000001</ele><time>2026-04-01T14:20:17Z</time></trkpt><trkpt lat="39.17195080397006" lon="8.915379435375131"><ele>124.19999999999999</ele><time>2026-04-01T14:20:18Z</time></trkpt><trkpt lat="39.17201297850059" lon="8.915295339785523"><ele>122.6</ele><time>2026-04-01T14:20:19Z</time></trkpt><trkpt lat="39.172072763294246" lon="8.915204301359305"><ele>121.0</ele><time>2026-04-01T14:20:20Z</time></trkpt><trkpt lat="39.17213748472691" lon="8.915127017226855"><ele>121.00000000000001</ele><time>2026-04-01T14:20:21Z</time></trkpt><trkpt lat="39.172198962251315" lon="8.915045662166873"><ele>121.0</ele><time>2026-04-01T14:20:22Z</time></trkpt><trkpt lat="39.17226929810027" lon="8.914998746618872"><ele>121.0</ele><time>2026-04-01T14:20:23Z</time></trkpt><trkpt lat="39.17234724833823" lon="8.914953109720994"><ele>121.0</ele><time>2026-04-01T14:20:24Z</time></trkpt><trkpt lat="39.17243863527789" lon="8.91492931141594"><ele>121.00000000000001</ele><time>2026-04-01T14:20:25Z</time></trkpt><trkpt lat="39.17253455413431" lon="8.914910715538252"><ele>121.0</ele><time>2026-04-01T14:20:26Z</time></trkpt><trkpt lat="39.17262902233424" lon="8.914923237058638"><ele>121.4</ele><time>2026-04-01T14:20:27Z</time></trkpt><trkpt lat="39.172715826740394" lon="8.914963012820579"><ele>121.8</ele><time>2026-04-01T14:20:28Z</time></trkpt><trkpt lat="39.17280070479543" lon="8.91503349405768"><ele>122.20000000000002</ele><time>2026-04-01T14:20:29Z</time></trkpt><trkpt lat="39.17286980165539" lon="8.915108146338387"><ele>122.60000000000001</ele><time>2026-04-01T14:20:30Z</time></trkpt><trkpt lat="39.17293502416151" lon="8.915206414837272"><ele>123.0</ele><time>2026-04-01T14:20:31Z</time></trkpt><trkpt lat="39.1729774545203" lon="8.915328249009013"><ele>123.0</ele><time>2026-04-01T14:20:32Z</time></trkpt><trkpt lat="39.173007615905995" lon="8.915452044817428"><ele>123.00000000000001</ele><time>2026-04-01T14:20:33Z</time></trkpt><trkpt lat="39.17301829322864" lon="8.91558269910611"><ele>123.00000000000001</ele><time>2026-04-01T14:20:34Z</time></trkpt><trkpt lat="39.173011835212414" lon="8.91571547825579"><ele>123.0</ele><time>2026-04-01T14:20:35Z</time></trkpt><trkpt lat="39.172992301957905" lon="8.915847335025013"><ele>123.0</ele><time>2026-04-01T14:20:36Z</time></trkpt><trkpt lat="39.17295406805375" lon="8.915975575918427"><ele>122.25</ele><time>2026-04-01T14:20:37Z</time></trkpt><trkpt lat="39.17291541164699" lon="8.91610089495526"><ele>121.5</ele><time>2026-04-01T14:20:38Z</time></trkpt><trkpt lat="39.17287365956229" lon="8.916248390725162"><ele>120.75</ele><time>2026-04-01T14:20:39Z</time></trkpt><trkpt lat="39.17282949877885" lon="8.916417457722154"><ele>120.0</ele><time>2026-04-01T14:20:40Z</time></trkpt><trkpt lat="39.172780649186514" lon="8.916614686739553"><ele>118.66666666666666</ele><time>2026-04-01T14:20:41Z</time></trkpt><trkpt lat="39.172723225007665" lon="8.916820883019106"><ele>117.33333333333333</ele><time>2026-04-01T14:20:42Z</time></trkpt><trkpt lat="39.1726721580735" lon="8.91701757741171"><ele>116.0</ele><time>2026-04-01T14:20:43Z</time></trkpt><trkpt lat="39.17261793657041" lon="8.917203361253724"><ele>116.0</ele><time>2026-04-01T14:20:44Z</time></trkpt><trkpt lat="39.17256718126682" lon="8.917375858936245"><ele>116.0</ele><time>2026-04-01T14:20:45Z</time></trkpt><trkpt lat="39.17252373254902" lon="8.917534394939878"><ele>116.0</ele><time>2026-04-01T14:20:46Z</time></trkpt><trkpt lat="39.17249809813016" lon="8.917672363031697"><ele>116.0</ele><time>2026-04-01T14:20:47Z</time></trkpt><trkpt lat="39.17247997341733" lon="8.917794426744155"><ele>115.99999999999999</ele><time>2026-04-01T14:20:48Z</time></trkpt><trkpt lat="39.17246679091468" lon="8.917906893721032"><ele>116.0</ele><time>2026-04-01T14:20:49Z</time></trkpt><trkpt lat="39.17245894969524" lon="8.918012167474428"><ele>116.0</ele><time>2026-04-01T14:20:50Z</time></trkpt><trkpt lat="39.172462371948185" lon="8.918120520832877"><ele>116.0</ele><time>2026-04-01T14:20:51Z</time></trkpt><trkpt lat="39.17246495081147" lon="8.918235524778401"><ele>115.99999999999999</ele><time>2026-04-01T14:20:52Z</time></trkpt><trkpt lat="39.172475974856894" lon="8.918350809756182"><ele>116.0</ele><time>2026-04-01T14:20:52.999Z</time></trkpt><trkpt lat="39.17248650044594" lon="8.918473074950882"><ele>118.0</ele><time>2026-04-01T14:20:53.999Z</time></trkpt><trkpt lat="39.1724976491026" lon="8.918595594730855"><ele>120.0</ele><time>2026-04-01T14:20:54.999Z</time></trkpt><trkpt lat="39.17251509631853" lon="8.918718611476448"><ele>122.0</ele><time>2026-04-01T14:20:55.999Z</time></trkpt><trkpt lat="39.17255064931758" lon="8.918843595632445"><ele>124.0</ele><time>2026-04-01T14:20:56.999Z</time></trkpt><trkpt lat="39.172594205376676" lon="8.918967747124567"><ele>126.0</ele><time>2026-04-01T14:20:57.999Z</time></trkpt><trkpt lat="39.17264528220632" lon="8.919089732746285"><ele>126.0</ele><time>2026-04-01T14:20:58.999Z</time></trkpt><trkpt lat="39.172709330083336" lon="8.919201091589104"><ele>126.0</ele><time>2026-04-01T14:20:59.999Z</time></trkpt><trkpt lat="39.17277362578196" lon="8.919291278058331"><ele>126.0</ele><time>2026-04-01T14:21:00.999Z</time></trkpt><trkpt lat="39.17284803161218" lon="8.919371183602802"><ele>126.0</ele><time>2026-04-01T14:21:01.999Z</time></trkpt><trkpt lat="39.17292949160214" lon="8.919439362556078"><ele>126.0</ele><time>2026-04-01T14:21:02.999Z</time></trkpt><trkpt lat="39.17301751058818" lon="8.919493554055805"><ele>126.6</ele><time>2026-04-01T14:21:03.999Z</time></trkpt><trkpt lat="39.173111643790584" lon="8.919543825406056"><ele>127.19999999999999</ele><time>2026-04-01T14:21:04.999Z</time></trkpt><trkpt lat="39.17320402358168" lon="8.919575286728481"><ele>127.80000000000001</ele><time>2026-04-01T14:21:05.999Z</time></trkpt><trkpt lat="39.17328970049534" lon="8.919590835382975"><ele>128.4</ele><time>2026-04-01T14:21:06.999Z</time></trkpt><trkpt lat="39.17337085806122" lon="8.919590250822294"><ele>129.0</ele><time>2026-04-01T14:21:07.999Z</time></trkpt><trkpt lat="39.173455712989764" lon="8.919581458078913"><ele>129.0</ele><time>2026-04-01T14:21:08.999Z</time></trkpt><trkpt lat="39.17354712048757" lon="8.919556377201253"><ele>129.0</ele><time>2026-04-01T14:21:09.999Z</time></trkpt><trkpt lat="39.17364160837718" lon="8.91952186319846"><ele>129.0</ele><time>2026-04-01T14:21:10.999Z</time></trkpt><trkpt lat="39.17373784340278" lon="8.91948351542654"><ele>129.0</ele><time>2026-04-01T14:21:11.999Z</time></trkpt><trkpt lat="39.17383104708328" lon="8.91944714059875"><ele>129.0</ele><time>2026-04-01T14:21:12.999Z</time></trkpt><trkpt lat="39.17392897578069" lon="8.91942682151737"><ele>129.0</ele><time>2026-04-01T14:21:13.999Z</time></trkpt><trkpt lat="39.17401947133301" lon="8.919409327530127"><ele>129.0</ele><time>2026-04-01T14:21:14.999Z</time></trkpt><trkpt lat="39.174113567298996" lon="8.919379679412257"><ele>129.0</ele><time>2026-04-01T14:21:15.999Z</time></trkpt><trkpt lat="39.17421309617564" lon="8.919354962354754"><ele>129.0</ele><time>2026-04-01T14:21:16.999Z</time></trkpt><trkpt lat="39.17431239223207" lon="8.91933839562723"><ele>129.0</ele><time>2026-04-01T14:21:17.999Z</time></trkpt><trkpt lat="39.17440994265635" lon="8.919321919818845"><ele>128.0</ele><time>2026-04-01T14:21:18.999Z</time></trkpt><trkpt lat="39.17450691078571" lon="8.91931273004347"><ele>127.0</ele><time>2026-04-01T14:21:19.999Z</time></trkpt><trkpt lat="39.17460808976404" lon="8.919306922591222"><ele>126.0</ele><time>2026-04-01T14:21:20.999Z</time></trkpt><trkpt lat="39.17469838041778" lon="8.9193100041699"><ele>125.0</ele><time>2026-04-01T14:21:21.999Z</time></trkpt><trkpt lat="39.174787894103254" lon="8.91931783587178"><ele>124.0</ele><time>2026-04-01T14:21:22.999Z</time></trkpt><trkpt lat="39.17487451329049" lon="8.919322624545421"><ele>121.83333333333334</ele><time>2026-04-01T14:21:23.999Z</time></trkpt><trkpt lat="39.174957000790016" lon="8.919330814676169"><ele>119.66666666666667</ele><time>2026-04-01T14:21:24.999Z</time></trkpt><trkpt lat="39.175034733412595" lon="8.919353643046886"><ele>117.5</ele><time>2026-04-01T14:21:25.999Z</time></trkpt><trkpt lat="39.175116173108414" lon="8.919384676318234"><ele>115.33333333333334</ele><time>2026-04-01T14:21:26.999Z</time></trkpt><trkpt lat="39.175194533990314" lon="8.91941786657402"><ele>113.16666666666667</ele><time>2026-04-01T14:21:27.999Z</time></trkpt><trkpt lat="39.17527434815142" lon="8.919461565043019"><ele>111.0</ele><time>2026-04-01T14:21:28.999Z</time></trkpt><trkpt lat="39.17533970661683" lon="8.919525559302066"><ele>111.0</ele><time>2026-04-01T14:21:29.999Z</time></trkpt><trkpt lat="39.17539037457589" lon="8.9196015684074"><ele>111.0</ele><time>2026-04-01T14:21:30.999Z</time></trkpt><trkpt lat="39.175423931582635" lon="8.919680546955323"><ele>111.0</ele><time>2026-04-01T14:21:31.999Z</time></trkpt><trkpt lat="39.17544124472689" lon="8.919768300910196"><ele>111.0</ele><time>2026-04-01T14:21:32.999Z</time></trkpt><trkpt lat="39.1754458426901" lon="8.919862789365705"><ele>111.0</ele><time>2026-04-01T14:21:33.999Z</time></trkpt><trkpt lat="39.17543212216849" lon="8.919964633211428"><ele>111.0</ele><time>2026-04-01T14:21:34.999Z</time></trkpt><trkpt lat="39.17540571019283" lon="8.920067653471362"><ele>110.83333333333333</ele><time>2026-04-01T14:21:35.999Z</time></trkpt><trkpt lat="39.17538101389253" lon="8.92017437070059"><ele>110.66666666666666</ele><time>2026-04-01T14:21:36.999Z</time></trkpt><trkpt lat="39.17536836759772" lon="8.920279732761104"><ele>110.5</ele><time>2026-04-01T14:21:37.999Z</time></trkpt><trkpt lat="39.175357993702015" lon="8.920392287092639"><ele>110.33333333333333</ele><time>2026-04-01T14:21:38.999Z</time></trkpt><trkpt lat="39.1753493850867" lon="8.92050291670201"><ele>110.16666666666666</ele><time>2026-04-01T14:21:39.999Z</time></trkpt><trkpt lat="39.175348810394084" lon="8.92061952143067"><ele>110.0</ele><time>2026-04-01T14:21:40.999Z</time></trkpt><trkpt lat="39.175351297245996" lon="8.9207308368429"><ele>109.99999999999999</ele><time>2026-04-01T14:21:41.999Z</time></trkpt><trkpt lat="39.1753500421566" lon="8.920845473453817"><ele>110.0</ele><time>2026-04-01T14:21:42.999Z</time></trkpt><trkpt lat="39.17535056660595" lon="8.920959075296249"><ele>110.0</ele><time>2026-04-01T14:21:43.999Z</time></trkpt><trkpt lat="39.175354583218265" lon="8.921050748851341"><ele>110.0</ele><time>2026-04-01T14:21:44.999Z</time></trkpt><trkpt lat="39.17535249109931" lon="8.921182787826426"><ele>109.99999999999999</ele><time>2026-04-01T14:21:45.999Z</time></trkpt><trkpt lat="39.17534986893744" lon="8.921289816116458"><ele>110.0</ele><time>2026-04-01T14:21:46.999Z</time></trkpt><trkpt lat="39.17535207779476" lon="8.921408928067528"><ele>110.16666666666666</ele><time>2026-04-01T14:21:47.999Z</time></trkpt><trkpt lat="39.175349200208395" lon="8.921527834150899"><ele>110.33333333333333</ele><time>2026-04-01T14:21:48.999Z</time></trkpt><trkpt lat="39.17535269635986" lon="8.92164035408446"><ele>110.5</ele><time>2026-04-01T14:21:49.999Z</time></trkpt><trkpt lat="39.17535857077489" lon="8.921757657771902"><ele>110.66666666666666</ele><time>2026-04-01T14:21:50.999Z</time></trkpt><trkpt lat="39.175362370661496" lon="8.921872915688066"><ele>110.83333333333333</ele><time>2026-04-01T14:21:51.999Z</time></trkpt><trkpt lat="39.175362637352976" lon="8.921986976652262"><ele>111.0</ele><time>2026-04-01T14:21:52.999Z</time></trkpt><trkpt lat="39.17536699822777" lon="8.922097660046695"><ele>112.5</ele><time>2026-04-01T14:21:53.999Z</time></trkpt><trkpt lat="39.17537514706768" lon="8.922213968978895"><ele>114.0</ele><time>2026-04-01T14:21:54.999Z</time></trkpt><trkpt lat="39.17538646852231" lon="8.92232985985516"><ele>115.5</ele><time>2026-04-01T14:21:55.999Z</time></trkpt><trkpt lat="39.175405012442496" lon="8.922441745051621"><ele>117.0</ele><time>2026-04-01T14:21:56.999Z</time></trkpt><trkpt lat="39.17542773995055" lon="8.922551757280266"><ele>118.5</ele><time>2026-04-01T14:21:57.999Z</time></trkpt><trkpt lat="39.17545031531352" lon="8.922665392001312"><ele>120.0</ele><time>2026-04-01T14:21:58.999Z</time></trkpt><trkpt lat="39.17546920611084" lon="8.922776088030522"><ele>118.33333333333333</ele><time>2026-04-01T14:22:00Z</time></trkpt><trkpt lat="39.17549271381105" lon="8.922887891075462"><ele>116.66666666666666</ele><time>2026-04-01T14:22:01Z</time></trkpt><trkpt lat="39.17553193315053" lon="8.922985403136295"><ele>115.0</ele><time>2026-04-01T14:22:02Z</time></trkpt><trkpt lat="39.17557807223056" lon="8.923076075587861"><ele>113.33333333333333</ele><time>2026-04-01T14:22:03Z</time></trkpt><trkpt lat="39.17563874861737" lon="8.923154608659603"><ele>111.66666666666666</ele><time>2026-04-01T14:22:04Z</time></trkpt><trkpt lat="39.17570717117893" lon="8.92322770788371"><ele>110.0</ele><time>2026-04-01T14:22:05Z</time></trkpt><trkpt lat="39.17578795663013" lon="8.923287269658864"><ele>110.0</ele><time>2026-04-01T14:22:06Z</time></trkpt><trkpt lat="39.17587435632648" lon="8.92333155312999"><ele>110.0</ele><time>2026-04-01T14:22:07Z</time></trkpt><trkpt lat="39.17596776333218" lon="8.923363391493965"><ele>110.0</ele><time>2026-04-01T14:22:08Z</time></trkpt><trkpt lat="39.17606311174011" lon="8.923385136671689"><ele>110.0</ele><time>2026-04-01T14:22:09Z</time></trkpt><trkpt lat="39.17616062599298" lon="8.923400657766027"><ele>110.0</ele><time>2026-04-01T14:22:10Z</time></trkpt><trkpt lat="39.176258060012394" lon="8.923412885008938"><ele>108.8</ele><time>2026-04-01T14:22:11Z</time></trkpt><trkpt lat="39.176359178128216" lon="8.923419089406538"><ele>107.6</ele><time>2026-04-01T14:22:12Z</time></trkpt><trkpt lat="39.17645954020158" lon="8.92341142286609"><ele>106.4</ele><time>2026-04-01T14:22:13Z</time></trkpt><trkpt lat="39.17656295932215" lon="8.923398284664813"><ele>105.2</ele><time>2026-04-01T14:22:14Z</time></trkpt><trkpt lat="39.17665991371955" lon="8.923387392851328"><ele>104.0</ele><time>2026-04-01T14:22:15Z</time></trkpt><trkpt lat="39.17676111336573" lon="8.923377853225672"><ele>104.0</ele><time>2026-04-01T14:22:16Z</time></trkpt><trkpt lat="39.1768652466139" lon="8.923370420681106"><ele>104.0</ele><time>2026-04-01T14:22:17Z</time></trkpt><trkpt lat="39.17696784867218" lon="8.92336050616058"><ele>104.0</ele><time>2026-04-01T14:22:18Z</time></trkpt><trkpt lat="39.17707356961801" lon="8.923351947491469"><ele>104.0</ele><time>2026-04-01T14:22:19Z</time></trkpt><trkpt lat="39.17718036333696" lon="8.923343308135353"><ele>104.0</ele><time>2026-04-01T14:22:20Z</time></trkpt><trkpt lat="39.17728665118083" lon="8.92332909766101"><ele>103.4</ele><time>2026-04-01T14:22:21Z</time></trkpt><trkpt lat="39.17739102313793" lon="8.923315802803167"><ele>102.80000000000001</ele><time>2026-04-01T14:22:22Z</time></trkpt><trkpt lat="39.177494607102" lon="8.923314657238622"><ele>102.19999999999999</ele><time>2026-04-01T14:22:23Z</time></trkpt><trkpt lat="39.17759473145144" lon="8.923323757114876"><ele>101.6</ele><time>2026-04-01T14:22:24Z</time></trkpt><trkpt lat="39.17769612687866" lon="8.923349863957704"><ele>101.0</ele><time>2026-04-01T14:22:25Z</time></trkpt><trkpt lat="39.17779457779928" lon="8.923393992779822"><ele>100.6</ele><time>2026-04-01T14:22:26Z</time></trkpt><trkpt lat="39.17788530605782" lon="8.923456390198316"><ele>100.19999999999999</ele><time>2026-04-01T14:22:27Z</time></trkpt><trkpt lat="39.1779718273881" lon="8.923530730187156"><ele>99.80000000000001</ele><time>2026-04-01T14:22:28Z</time></trkpt><trkpt lat="39.178051861836174" lon="8.92361806753216"><ele>99.4</ele><time>2026-04-01T14:22:29Z</time></trkpt><trkpt lat="39.17812684107931" lon="8.923709771234588"><ele>99.0</ele><time>2026-04-01T14:22:30Z</time></trkpt><trkpt lat="39.178201831882745" lon="8.923809721222009"><ele>99.0</ele><time>2026-04-01T14:22:31Z</time></trkpt><trkpt lat="39.178280801567745" lon="8.923913016695096"><ele>99.0</ele><time>2026-04-01T14:22:32Z</time></trkpt><trkpt lat="39.17835359760519" lon="8.924015843069903"><ele>99.0</ele><time>2026-04-01T14:22:33Z</time></trkpt><trkpt lat="39.1784249139051" lon="8.924121125971222"><ele>99.0</ele><time>2026-04-01T14:22:34Z</time></trkpt><trkpt lat="39.17847878881663" lon="8.92424126001443"><ele>99.0</ele><time>2026-04-01T14:22:35Z</time></trkpt><trkpt lat="39.1785331139412" lon="8.92435907275753"><ele>99.6</ele><time>2026-04-01T14:22:36Z</time></trkpt><trkpt lat="39.17858601723915" lon="8.924480684934059"><ele>100.2</ele><time>2026-04-01T14:22:37Z</time></trkpt><trkpt lat="39.17863738442711" lon="8.924601813487913"><ele>100.8</ele><time>2026-04-01T14:22:38Z</time></trkpt><trkpt lat="39.17868514866612" lon="8.924727999798305"><ele>101.39999999999999</ele><time>2026-04-01T14:22:39Z</time></trkpt><trkpt lat="39.17872181973651" lon="8.924857224999277"><ele>102.0</ele><time>2026-04-01T14:22:40Z</time></trkpt><trkpt lat="39.1787476969725" lon="8.924993784464935"><ele>104.6</ele><time>2026-04-01T14:22:41Z</time></trkpt><trkpt lat="39.17875736580518" lon="8.925134778356377"><ele>107.19999999999999</ele><time>2026-04-01T14:22:42Z</time></trkpt><trkpt lat="39.17877621022207" lon="8.925271148562947"><ele>109.8</ele><time>2026-04-01T14:22:43Z</time></trkpt><trkpt lat="39.17879136520554" lon="8.925406506274669"><ele>112.4</ele><time>2026-04-01T14:22:44Z</time></trkpt><trkpt lat="39.178803583302276" lon="8.92554093616239"><ele>115.0</ele><time>2026-04-01T14:22:45Z</time></trkpt><trkpt lat="39.17881889047147" lon="8.92566895374627"><ele>115.0</ele><time>2026-04-01T14:22:46Z</time></trkpt><trkpt lat="39.17883695781804" lon="8.925800317169978"><ele>115.0</ele><time>2026-04-01T14:22:46.999Z</time></trkpt><trkpt lat="39.17886132436572" lon="8.925927889833416"><ele>115.0</ele><time>2026-04-01T14:22:47.999Z</time></trkpt><trkpt lat="39.178892272648234" lon="8.926049750047472"><ele>115.0</ele><time>2026-04-01T14:22:48.999Z</time></trkpt><trkpt lat="39.17893232244558" lon="8.926166030942948"><ele>115.0</ele><time>2026-04-01T14:22:49.999Z</time></trkpt><trkpt lat="39.17898092067473" lon="8.92627717125724"><ele>113.4</ele><time>2026-04-01T14:22:50.999Z</time></trkpt><trkpt lat="39.179033309227236" lon="8.92638386044287"><ele>111.8</ele><time>2026-04-01T14:22:51.999Z</time></trkpt><trkpt lat="39.17909499905596" lon="8.92648196831471"><ele>110.19999999999999</ele><time>2026-04-01T14:22:52.999Z</time></trkpt><trkpt lat="39.17915728907997" lon="8.926580829316737"><ele>108.6</ele><time>2026-04-01T14:22:53.999Z</time></trkpt><trkpt lat="39.17923455594817" lon="8.926649460189875"><ele>107.0</ele><time>2026-04-01T14:22:54.999Z</time></trkpt><trkpt lat="39.17931955145858" lon="8.926714251829994"><ele>113.0</ele><time>2026-04-01T14:22:55.999Z</time></trkpt><trkpt lat="39.17940878268658" lon="8.926767325113833"><ele>118.99999999999999</ele><time>2026-04-01T14:22:56.999Z</time></trkpt><trkpt lat="39.179505461160275" lon="8.926807197436304"><ele>124.99999999999999</ele><time>2026-04-01T14:22:57.999Z</time></trkpt><trkpt lat="39.17960237432576" lon="8.926834010653987"><ele>131.0</ele><time>2026-04-01T14:22:58.999Z</time></trkpt><trkpt lat="39.17970014911566" lon="8.926846828343495"><ele>137.0</ele><time>2026-04-01T14:22:59.999Z</time></trkpt><trkpt lat="39.17979781033815" lon="8.926856805684865"><ele>134.66666666666666</ele><time>2026-04-01T14:23:00.999Z</time></trkpt><trkpt lat="39.17989360279835" lon="8.926867397411295"><ele>132.33333333333331</ele><time>2026-04-01T14:23:01.999Z</time></trkpt><trkpt lat="39.17997968908895" lon="8.926871241390293"><ele>130.0</ele><time>2026-04-01T14:23:02.999Z</time></trkpt><trkpt lat="39.18006446477353" lon="8.92685542544447"><ele>127.66666666666666</ele><time>2026-04-01T14:23:03.999Z</time></trkpt><trkpt lat="39.180141608362334" lon="8.926816171829396"><ele>125.33333333333333</ele><time>2026-04-01T14:23:04.999Z</time></trkpt><trkpt lat="39.180210735817724" lon="8.926800932914542"><ele>123.0</ele><time>2026-04-01T14:23:05.999Z</time></trkpt><trkpt lat="39.18027378076563" lon="8.92676531017776"><ele>118.83333333333333</ele><time>2026-04-01T14:23:06.999Z</time></trkpt><trkpt lat="39.18032631010511" lon="8.92669932707668"><ele>114.66666666666666</ele><time>2026-04-01T14:23:07.999Z</time></trkpt><trkpt lat="39.18036925937803" lon="8.926622296633708"><ele>110.5</ele><time>2026-04-01T14:23:08.999Z</time></trkpt><trkpt lat="39.180420424767426" lon="8.92654723137214"><ele>106.33333333333333</ele><time>2026-04-01T14:23:09.999Z</time></trkpt><trkpt lat="39.180466638152154" lon="8.926483646989094"><ele>102.16666666666666</ele><time>2026-04-01T14:23:10.999Z</time></trkpt><trkpt lat="39.180519058829425" lon="8.926421849112133"><ele>98.0</ele><time>2026-04-01T14:23:11.999Z</time></trkpt><trkpt lat="39.18061447013332" lon="8.926314570523369"><ele>97.83333333333333</ele><time>2026-04-01T14:23:13.999Z</time></trkpt><trkpt lat="39.18072654299334" lon="8.926250323075816"><ele>97.66666666666666</ele><time>2026-04-01T14:23:15.999Z</time></trkpt><trkpt lat="39.180804687304125" lon="8.926242700351022"><ele>97.5</ele><time>2026-04-01T14:23:16.999Z</time></trkpt><trkpt lat="39.18087788491176" lon="8.92623404121625"><ele>97.33333333333334</ele><time>2026-04-01T14:23:17.999Z</time></trkpt><trkpt lat="39.180943152250784" lon="8.926212461392803"><ele>97.16666666666667</ele><time>2026-04-01T14:23:18.999Z</time></trkpt><trkpt lat="39.181007595554036" lon="8.926196514071869"><ele>97.0</ele><time>2026-04-01T14:23:19.999Z</time></trkpt><trkpt lat="39.18107265262076" lon="8.926200623927954"><ele>97.0</ele><time>2026-04-01T14:23:20.999Z</time></trkpt><trkpt lat="39.18114113114391" lon="8.926206000577395"><ele>97.0</ele><time>2026-04-01T14:23:21.999Z</time></trkpt><trkpt lat="39.18120868578866" lon="8.926204245976422"><ele>97.0</ele><time>2026-04-01T14:23:22.999Z</time></trkpt><trkpt lat="39.18128146386228" lon="8.926203734892512"><ele>97.0</ele><time>2026-04-01T14:23:23.999Z</time></trkpt><trkpt lat="39.18135454223962" lon="8.926201051305233"><ele>97.0</ele><time>2026-04-01T14:23:24.999Z</time></trkpt><trkpt lat="39.18142322053229" lon="8.926198849713325"><ele>97.0</ele><time>2026-04-01T14:23:25.999Z</time></trkpt><trkpt lat="39.181490529821616" lon="8.926202587454828"><ele>97.0</ele><time>2026-04-01T14:23:26.999Z</time></trkpt><trkpt lat="39.181557995457126" lon="8.926211947231943"><ele>96.57142857142857</ele><time>2026-04-01T14:23:27.999Z</time></trkpt><trkpt lat="39.18163027682138" lon="8.926217738721428"><ele>96.14285714285715</ele><time>2026-04-01T14:23:28.999Z</time></trkpt><trkpt lat="39.18170503025249" lon="8.926233353199464"><ele>95.71428571428572</ele><time>2026-04-01T14:23:29.999Z</time></trkpt><trkpt lat="39.18177646777664" lon="8.926269752732736"><ele>95.28571428571428</ele><time>2026-04-01T14:23:30.999Z</time></trkpt><trkpt lat="39.18184714882899" lon="8.926305910659341"><ele>94.85714285714286</ele><time>2026-04-01T14:23:31.999Z</time></trkpt><trkpt lat="39.18191089602488" lon="8.92634380276148"><ele>94.42857142857143</ele><time>2026-04-01T14:23:32.999Z</time></trkpt><trkpt lat="39.18196578574017" lon="8.926393870931571"><ele>94.0</ele><time>2026-04-01T14:23:33.999Z</time></trkpt><trkpt lat="39.18201403992161" lon="8.926455189524845"><ele>94.0</ele><time>2026-04-01T14:23:34.999Z</time></trkpt><trkpt lat="39.18206264935078" lon="8.926517862462221"><ele>94.0</ele><time>2026-04-01T14:23:35.999Z</time></trkpt><trkpt lat="39.182111993077484" lon="8.92657649245677"><ele>94.0</ele><time>2026-04-01T14:23:36.999Z</time></trkpt><trkpt lat="39.18215942242415" lon="8.926637862793834"><ele>94.0</ele><time>2026-04-01T14:23:37.999Z</time></trkpt><trkpt lat="39.18221132652089" lon="8.926708519473786"><ele>94.0</ele><time>2026-04-01T14:23:38.999Z</time></trkpt><trkpt lat="39.182256192327834" lon="8.926774458394553"><ele>94.0</ele><time>2026-04-01T14:23:39.999Z</time></trkpt><trkpt lat="39.18229750103632" lon="8.926843314899461"><ele>94.0</ele><time>2026-04-01T14:23:40.999Z</time></trkpt><trkpt lat="39.18233627257865" lon="8.926911430411868"><ele>93.57142857142857</ele><time>2026-04-01T14:23:41.999Z</time></trkpt><trkpt lat="39.182380983430434" lon="8.92697909685871"><ele>93.14285714285714</ele><time>2026-04-01T14:23:42.999Z</time></trkpt><trkpt lat="39.18242677250107" lon="8.927050553939793"><ele>92.71428571428572</ele><time>2026-04-01T14:23:43.999Z</time></trkpt><trkpt lat="39.18245260127454" lon="8.92712851130106"><ele>92.28571428571428</ele><time>2026-04-01T14:23:44.999Z</time></trkpt><trkpt lat="39.18247736508964" lon="8.927215407150022"><ele>91.85714285714286</ele><time>2026-04-01T14:23:45.999Z</time></trkpt><trkpt lat="39.182492397834366" lon="8.927306147321957"><ele>91.42857142857143</ele><time>2026-04-01T14:23:46.999Z</time></trkpt><trkpt lat="39.18250979874818" lon="8.927396717153124"><ele>91.0</ele><time>2026-04-01T14:23:47.999Z</time></trkpt><trkpt lat="39.18252213180491" lon="8.927484614242386"><ele>91.0</ele><time>2026-04-01T14:23:48.999Z</time></trkpt><trkpt lat="39.18252219704681" lon="8.927567938127778"><ele>91.0</ele><time>2026-04-01T14:23:49.999Z</time></trkpt><trkpt lat="39.18251802382829" lon="8.927661324657821"><ele>91.0</ele><time>2026-04-01T14:23:50.999Z</time></trkpt><trkpt lat="39.182511675899825" lon="8.927751585928654"><ele>91.0</ele><time>2026-04-01T14:23:51.999Z</time></trkpt><trkpt lat="39.18250247289765" lon="8.927838719114193"><ele>91.0</ele><time>2026-04-01T14:23:52.999Z</time></trkpt><trkpt lat="39.182493405480855" lon="8.927930454645786"><ele>91.0</ele><time>2026-04-01T14:23:53.999Z</time></trkpt><trkpt lat="39.1824900012692" lon="8.92802071005437"><ele>91.0</ele><time>2026-04-01T14:23:54.999Z</time></trkpt><trkpt lat="39.18248057008793" lon="8.928110991964287"><ele>91.0</ele><time>2026-04-01T14:23:55.999Z</time></trkpt><trkpt lat="39.182469359675196" lon="8.928202995669189"><ele>91.0</ele><time>2026-04-01T14:23:56.999Z</time></trkpt><trkpt lat="39.182459973194405" lon="8.928297974393097"><ele>91.0</ele><time>2026-04-01T14:23:57.999Z</time></trkpt><trkpt lat="39.182446390899145" lon="8.928401559140273"><ele>91.0</ele><time>2026-04-01T14:23:58.999Z</time></trkpt><trkpt lat="39.182443551102345" lon="8.928488911407749"><ele>91.0</ele><time>2026-04-01T14:23:59.999Z</time></trkpt><trkpt lat="39.18242331264959" lon="8.928581441895599"><ele>91.0</ele><time>2026-04-01T14:24:00.999Z</time></trkpt><trkpt lat="39.18240550116621" lon="8.928668242742841"><ele>91.0</ele><time>2026-04-01T14:24:01.999Z</time></trkpt><trkpt lat="39.182384429641445" lon="8.928802107025396"><ele>90.66666666666666</ele><time>2026-04-01T14:24:03.999Z</time></trkpt><trkpt lat="39.182409135898226" lon="8.928900802978797"><ele>90.33333333333333</ele><time>2026-04-01T14:24:06Z</time></trkpt><trkpt lat="39.182486065612046" lon="8.92895414328219"><ele>90.0</ele><time>2026-04-01T14:24:09Z</time></trkpt><trkpt lat="39.18255672719019" lon="8.928924289783874"><ele>89.66666666666667</ele><time>2026-04-01T14:24:11Z</time></trkpt><trkpt lat="39.18264281288383" lon="8.928883671832118"><ele>89.33333333333334</ele><time>2026-04-01T14:24:13Z</time></trkpt><trkpt lat="39.1827224612397" lon="8.928831755521617"><ele>89.0</ele><time>2026-04-01T14:24:15Z</time></trkpt><trkpt lat="39.18280404286761" lon="8.928778856954755"><ele>89.0</ele><time>2026-04-01T14:24:17Z</time></trkpt><trkpt lat="39.182885900573424" lon="8.92871943967623"><ele>89.0</ele><time>2026-04-01T14:24:19Z</time></trkpt><trkpt lat="39.18297193751908" lon="8.928658590217353"><ele>89.0</ele><time>2026-04-01T14:24:21Z</time></trkpt><trkpt lat="39.18305861000231" lon="8.928600704970437"><ele>89.0</ele><time>2026-04-01T14:24:23Z</time></trkpt><trkpt lat="39.183149393311496" lon="8.928557934481038"><ele>89.0</ele><time>2026-04-01T14:24:25Z</time></trkpt><trkpt lat="39.18325696546649" lon="8.928531317894421"><ele>88.80000000000001</ele><time>2026-04-01T14:24:27Z</time></trkpt><trkpt lat="39.18336750980841" lon="8.928505037977237"><ele>88.60000000000001</ele><time>2026-04-01T14:24:29Z</time></trkpt><trkpt lat="39.183478007187404" lon="8.928484311064683"><ele>88.4</ele><time>2026-04-01T14:24:31Z</time></trkpt><trkpt lat="39.18357723500647" lon="8.928446631454982"><ele>88.2</ele><time>2026-04-01T14:24:33Z</time></trkpt><trkpt lat="39.183657520615235" lon="8.928424196253063"><ele>88.0</ele><time>2026-04-01T14:24:35Z</time></trkpt><trkpt lat="39.1837217740364" lon="8.928412579127928"><ele>88.0</ele><time>2026-04-01T14:24:37Z</time></trkpt><trkpt lat="39.18379124685967" lon="8.928397834254778"><ele>88.0</ele><time>2026-04-01T14:24:39Z</time></trkpt><trkpt lat="39.1838698871863" lon="8.928371213684306"><ele>88.0</ele><time>2026-04-01T14:24:41Z</time></trkpt><trkpt lat="39.183964141780905" lon="8.928379163185838"><ele>88.0</ele><time>2026-04-01T14:24:43Z</time></trkpt><trkpt lat="39.18405093562307" lon="8.928480282495313"><ele>88.0</ele><time>2026-04-01T14:24:45Z</time></trkpt><trkpt lat="39.18411171954716" lon="8.928580797605859"><ele>87.4</ele><time>2026-04-01T14:24:47Z</time></trkpt><trkpt lat="39.18419599031163" lon="8.928669063892835"><ele>86.80000000000001</ele><time>2026-04-01T14:24:49Z</time></trkpt><trkpt lat="39.18428528523711" lon="8.928754485572734"><ele>86.2</ele><time>2026-04-01T14:24:51Z</time></trkpt><trkpt lat="39.18438977793675" lon="8.928809582459312"><ele>85.6</ele><time>2026-04-01T14:24:53Z</time></trkpt><trkpt lat="39.184495742379205" lon="8.928849065234518"><ele>85.0</ele><time>2026-04-01T14:24:55Z</time></trkpt><trkpt lat="39.18460757546867" lon="8.928865349246365"><ele>85.0</ele><time>2026-04-01T14:24:57Z</time></trkpt><trkpt lat="39.18472593816685" lon="8.928830373634469"><ele>85.0</ele><time>2026-04-01T14:24:59Z</time></trkpt><trkpt lat="39.184834539549904" lon="8.928760833986688"><ele>85.0</ele><time>2026-04-01T14:25:01Z</time></trkpt><trkpt lat="39.18494170657258" lon="8.928678131779332"><ele>85.0</ele><time>2026-04-01T14:25:03Z</time></trkpt><trkpt lat="39.1850491189023" lon="8.928600751957172"><ele>84.75</ele><time>2026-04-01T14:25:05Z</time></trkpt><trkpt lat="39.185165887393865" lon="8.928543973099963"><ele>84.5</ele><time>2026-04-01T14:25:07Z</time></trkpt><trkpt lat="39.185278106622626" lon="8.928495935089966"><ele>84.25</ele><time>2026-04-01T14:25:09Z</time></trkpt><trkpt lat="39.185386796992574" lon="8.928427985360862"><ele>84.0</ele><time>2026-04-01T14:25:11Z</time></trkpt><trkpt lat="39.18549467632638" lon="8.928357907170318"><ele>84.5</ele><time>2026-04-01T14:25:13Z</time></trkpt><trkpt lat="39.185600423167834" lon="8.928294607392537"><ele>85.0</ele><time>2026-04-01T14:25:14.999Z</time></trkpt><trkpt lat="39.18570658041654" lon="8.928237538643819"><ele>85.5</ele><time>2026-04-01T14:25:16.999Z</time></trkpt><trkpt lat="39.1858118052655" lon="8.928167612829206"><ele>86.0</ele><time>2026-04-01T14:25:18.999Z</time></trkpt><trkpt lat="39.185913807314854" lon="8.92808664686567"><ele>86.0</ele><time>2026-04-01T14:25:20.999Z</time></trkpt><trkpt lat="39.18600906689211" lon="8.928002312455682"><ele>86.0</ele><time>2026-04-01T14:25:22.999Z</time></trkpt><trkpt lat="39.18609871506955" lon="8.92790926581357"><ele>86.0</ele><time>2026-04-01T14:25:24.999Z</time></trkpt><trkpt lat="39.186178451153815" lon="8.927816168312841"><ele>86.0</ele><time>2026-04-01T14:25:26.999Z</time></trkpt><trkpt lat="39.186261660921076" lon="8.927705232499717"><ele>86.0</ele><time>2026-04-01T14:25:28.999Z</time></trkpt><trkpt lat="39.18630742118203" lon="8.927645644804327"><ele>86.0</ele><time>2026-04-01T14:25:29.999Z</time></trkpt><trkpt lat="39.186354924798124" lon="8.927586575318248"><ele>86.0</ele><time>2026-04-01T14:25:30.999Z</time></trkpt><trkpt lat="39.1864021621064" lon="8.927529963106023"><ele>86.0</ele><time>2026-04-01T14:25:31.999Z</time></trkpt><trkpt lat="39.186452026897314" lon="8.927478125503722"><ele>86.0</ele><time>2026-04-01T14:25:32.999Z</time></trkpt><trkpt lat="39.1865385213639" lon="8.927366486391039"><ele>86.0</ele><time>2026-04-01T14:25:34.999Z</time></trkpt><trkpt lat="39.186637407985046" lon="8.927273215524698"><ele>86.25</ele><time>2026-04-01T14:25:36.999Z</time></trkpt><trkpt lat="39.18674106532947" lon="8.927192926053932"><ele>86.5</ele><time>2026-04-01T14:25:38.999Z</time></trkpt><trkpt lat="39.18684462911227" lon="8.927111501337345"><ele>86.75</ele><time>2026-04-01T14:25:40.999Z</time></trkpt><trkpt lat="39.186947367966184" lon="8.92703455662977"><ele>87.0</ele><time>2026-04-01T14:25:42.999Z</time></trkpt><trkpt lat="39.18704665548825" lon="8.92696082393967"><ele>87.0</ele><time>2026-04-01T14:25:44.999Z</time></trkpt><trkpt lat="39.187146454796434" lon="8.92688566356294"><ele>87.0</ele><time>2026-04-01T14:25:46.999Z</time></trkpt><trkpt lat="39.18725571478162" lon="8.92682166114041"><ele>87.0</ele><time>2026-04-01T14:25:48.999Z</time></trkpt><trkpt lat="39.18736903572375" lon="8.92676682474458"><ele>87.0</ele><time>2026-04-01T14:25:50.999Z</time></trkpt><trkpt lat="39.18748149556966" lon="8.92671625835586"><ele>88.75</ele><time>2026-04-01T14:25:52.999Z</time></trkpt><trkpt lat="39.187593740940116" lon="8.926682766553817"><ele>90.5</ele><time>2026-04-01T14:25:54.999Z</time></trkpt><trkpt lat="39.18771539668335" lon="8.926672758393831"><ele>92.25</ele><time>2026-04-01T14:25:56.999Z</time></trkpt><trkpt lat="39.187838329219964" lon="8.926676643203676"><ele>94.0</ele><time>2026-04-01T14:25:58.999Z</time></trkpt><trkpt lat="39.18796028882624" lon="8.926696390995719"><ele>92.6</ele><time>2026-04-01T14:26:00.999Z</time></trkpt><trkpt lat="39.18807991358231" lon="8.926735115492756"><ele>91.2</ele><time>2026-04-01T14:26:02.999Z</time></trkpt><trkpt lat="39.188186134513245" lon="8.926788779160164"><ele>89.8</ele><time>2026-04-01T14:26:04.999Z</time></trkpt><trkpt lat="39.18824460010036" lon="8.92681939930117"><ele>88.39999999999999</ele><time>2026-04-01T14:26:05.999Z</time></trkpt><trkpt lat="39.188346575917784" lon="8.926903333423954"><ele>87.0</ele><time>2026-04-01T14:26:07.999Z</time></trkpt><trkpt lat="39.18842387699743" lon="8.927014453218005"><ele>87.0</ele><time>2026-04-01T14:26:09.999Z</time></trkpt><trkpt lat="39.18847176389391" lon="8.927155909978714"><ele>87.0</ele><time>2026-04-01T14:26:12Z</time></trkpt><trkpt lat="39.1885046956242" lon="8.927302385416704"><ele>87.0</ele><time>2026-04-01T14:26:14Z</time></trkpt><trkpt lat="39.1885445304838" lon="8.927436318342648"><ele>87.0</ele><time>2026-04-01T14:26:16Z</time></trkpt><trkpt lat="39.18859296061519" lon="8.927560777099574"><ele>86.19999999999999</ele><time>2026-04-01T14:26:18Z</time></trkpt><trkpt lat="39.188649152114365" lon="8.927690386059737"><ele>85.4</ele><time>2026-04-01T14:26:20Z</time></trkpt><trkpt lat="39.18872080385219" lon="8.927804691729055"><ele>84.6</ele><time>2026-04-01T14:26:22Z</time></trkpt><trkpt lat="39.188789764782555" lon="8.927918779245552"><ele>83.80000000000001</ele><time>2026-04-01T14:26:24Z</time></trkpt><trkpt lat="39.18884583587211" lon="8.92803494766574"><ele>83.0</ele><time>2026-04-01T14:26:26Z</time></trkpt><trkpt lat="39.18887718063451" lon="8.928169390838484"><ele>83.0</ele><time>2026-04-01T14:26:28Z</time></trkpt><trkpt lat="39.18889157584425" lon="8.928308305230907"><ele>83.0</ele><time>2026-04-01T14:26:30Z</time></trkpt><trkpt lat="39.18891367359372" lon="8.928471237729248"><ele>83.0</ele><time>2026-04-01T14:26:32Z</time></trkpt><trkpt lat="39.18892757787485" lon="8.928634505910521"><ele>83.0</ele><time>2026-04-01T14:26:34Z</time></trkpt><trkpt lat="39.188936420677884" lon="8.928718784181635"><ele>83.0</ele><time>2026-04-01T14:26:35Z</time></trkpt><trkpt lat="39.18894688895323" lon="8.928800863320399"><ele>83.16666666666667</ele><time>2026-04-01T14:26:36Z</time></trkpt><trkpt lat="39.188962896706265" lon="8.928881852075436"><ele>83.33333333333334</ele><time>2026-04-01T14:26:37Z</time></trkpt><trkpt lat="39.1889731781063" lon="8.928963245210092"><ele>83.5</ele><time>2026-04-01T14:26:38Z</time></trkpt><trkpt lat="39.18898087051825" lon="8.92904870640954"><ele>83.66666666666667</ele><time>2026-04-01T14:26:39Z</time></trkpt><trkpt lat="39.188960805192124" lon="8.92920557460583"><ele>83.83333333333333</ele><time>2026-04-01T14:26:41Z</time></trkpt><trkpt lat="39.18895782154256" lon="8.929359834260476"><ele>84.0</ele><time>2026-04-01T14:26:43Z</time></trkpt><trkpt lat="39.18895736735077" lon="8.929516775322657"><ele>83.6</ele><time>2026-04-01T14:26:45Z</time></trkpt><trkpt lat="39.18894847560043" lon="8.929668220119444"><ele>83.2</ele><time>2026-04-01T14:26:47Z</time></trkpt><trkpt lat="39.18893348155208" lon="8.929822887973598"><ele>82.8</ele><time>2026-04-01T14:26:49Z</time></trkpt><trkpt lat="39.18891781271419" lon="8.92997979864408"><ele>82.39999999999999</ele><time>2026-04-01T14:26:51Z</time></trkpt><trkpt lat="39.188905744365094" lon="8.93006444269652"><ele>82.0</ele><time>2026-04-01T14:26:52Z</time></trkpt><trkpt lat="39.18888536298112" lon="8.9302159829592"><ele>81.75</ele><time>2026-04-01T14:26:54Z</time></trkpt><trkpt lat="39.18885183800445" lon="8.93037207024448"><ele>81.5</ele><time>2026-04-01T14:26:56Z</time></trkpt><trkpt lat="39.18880277544799" lon="8.930516202932159"><ele>81.25</ele><time>2026-04-01T14:26:58Z</time></trkpt><trkpt lat="39.18878872146615" lon="8.930676702853264"><ele>81.0</ele><time>2026-04-01T14:27:00Z</time></trkpt><trkpt lat="39.188756108291145" lon="8.930827655333754"><ele>80.39999999999999</ele><time>2026-04-01T14:27:02Z</time></trkpt><trkpt lat="39.18872707754423" lon="8.930981921502461"><ele>79.8</ele><time>2026-04-01T14:27:04Z</time></trkpt><trkpt lat="39.18871306061446" lon="8.931062470166784"><ele>79.19999999999999</ele><time>2026-04-01T14:27:05Z</time></trkpt><trkpt lat="39.18869814892247" lon="8.9312092835919"><ele>78.6</ele><time>2026-04-01T14:27:07Z</time></trkpt><trkpt lat="39.188712933404254" lon="8.931354151858114"><ele>78.0</ele><time>2026-04-01T14:27:09Z</time></trkpt><trkpt lat="39.18872892247905" lon="8.931500164993112"><ele>78.0</ele><time>2026-04-01T14:27:11Z</time></trkpt><trkpt lat="39.18876407464576" lon="8.93163382125747"><ele>78.0</ele><time>2026-04-01T14:27:13Z</time></trkpt><trkpt lat="39.18881939731662" lon="8.93176235271707"><ele>78.0</ele><time>2026-04-01T14:27:15Z</time></trkpt><trkpt lat="39.18889009826453" lon="8.93188701858039"><ele>78.0</ele><time>2026-04-01T14:27:17Z</time></trkpt><trkpt lat="39.188963689254" lon="8.932005600255232"><ele>77.25</ele><time>2026-04-01T14:27:19Z</time></trkpt><trkpt lat="39.1890430306958" lon="8.932120120437538"><ele>76.5</ele><time>2026-04-01T14:27:21Z</time></trkpt><trkpt lat="39.18913240262249" lon="8.93222278361719"><ele>75.75</ele><time>2026-04-01T14:27:23Z</time></trkpt><trkpt lat="39.189229736495335" lon="8.932318909461152"><ele>75.0</ele><time>2026-04-01T14:27:25Z</time></trkpt><trkpt lat="39.18933258293944" lon="8.932406906701265"><ele>75.0</ele><time>2026-04-01T14:27:27Z</time></trkpt><trkpt lat="39.18943394664617" lon="8.932471284917385"><ele>75.0</ele><time>2026-04-01T14:27:28.999Z</time></trkpt><trkpt lat="39.189540495589185" lon="8.93250577257592"><ele>75.0</ele><time>2026-04-01T14:27:30.999Z</time></trkpt><trkpt lat="39.189645248110864" lon="8.932522887138955"><ele>75.0</ele><time>2026-04-01T14:27:32.999Z</time></trkpt><trkpt lat="39.189764862058006" lon="8.932528870245413"><ele>75.0</ele><time>2026-04-01T14:27:34.999Z</time></trkpt><trkpt lat="39.18988525166652" lon="8.932538733145677"><ele>74.75</ele><time>2026-04-01T14:27:36.999Z</time></trkpt><trkpt lat="39.190003311611754" lon="8.932548704029267"><ele>74.5</ele><time>2026-04-01T14:27:38.999Z</time></trkpt><trkpt lat="39.19010975496794" lon="8.932567421257799"><ele>74.25</ele><time>2026-04-01T14:27:40.999Z</time></trkpt><trkpt lat="39.190224912451754" lon="8.932572665963288"><ele>74.0</ele><time>2026-04-01T14:27:42.999Z</time></trkpt><trkpt lat="39.190330869247354" lon="8.932606608170804"><ele>73.8</ele><time>2026-04-01T14:27:44.999Z</time></trkpt><trkpt lat="39.1904390874484" lon="8.932637336553913"><ele>73.60000000000001</ele><time>2026-04-01T14:27:46.999Z</time></trkpt><trkpt lat="39.190538140333004" lon="8.932678708904465"><ele>73.4</ele><time>2026-04-01T14:27:48.999Z</time></trkpt><trkpt lat="39.19062626950136" lon="8.932731481985309"><ele>73.2</ele><time>2026-04-01T14:27:50.999Z</time></trkpt><trkpt lat="39.19069196046698" lon="8.932780702709604"><ele>73.0</ele><time>2026-04-01T14:27:53.999Z</time></trkpt><trkpt lat="39.19073507065282" lon="8.932844036290598"><ele>73.0</ele><time>2026-04-01T14:28:52Z</time></trkpt><trkpt lat="39.19080206431204" lon="8.93294936114873"><ele>73.0</ele><time>2026-04-01T14:28:54Z</time></trkpt><trkpt lat="39.19084341041498" lon="8.933022830939043"><ele>73.0</ele><time>2026-04-01T14:28:55Z</time></trkpt><trkpt lat="39.19090160573255" lon="8.933094180296926"><ele>73.0</ele><time>2026-04-01T14:28:56Z</time></trkpt><trkpt lat="39.19096527323971" lon="8.933178553546332"><ele>73.0</ele><time>2026-04-01T14:28:57Z</time></trkpt><trkpt lat="39.19103060581807" lon="8.93328088281026"><ele>73.0</ele><time>2026-04-01T14:28:58Z</time></trkpt><trkpt lat="39.19110610407745" lon="8.933373785183777"><ele>73.0</ele><time>2026-04-01T14:28:59Z</time></trkpt><trkpt lat="39.19119328942898" lon="8.93345783553961"><ele>73.0</ele><time>2026-04-01T14:29:00Z</time></trkpt><trkpt lat="39.19128620989684" lon="8.93354070054834"><ele>73.0</ele><time>2026-04-01T14:29:01Z</time></trkpt><trkpt lat="39.191384509916624" lon="8.933617840366711"><ele>73.0</ele><time>2026-04-01T14:29:02Z</time></trkpt><trkpt lat="39.19148971611207" lon="8.93367883924391"><ele>72.33333333333333</ele><time>2026-04-01T14:29:03Z</time></trkpt><trkpt lat="39.19159644235791" lon="8.933724521972197"><ele>71.66666666666666</ele><time>2026-04-01T14:29:04Z</time></trkpt><trkpt lat="39.19168815136578" lon="8.933758154208252"><ele>71.0</ele><time>2026-04-01T14:29:05Z</time></trkpt><trkpt lat="39.19176238634364" lon="8.93378380434406"><ele>70.33333333333333</ele><time>2026-04-01T14:29:06Z</time></trkpt><trkpt lat="39.19184248966726" lon="8.93380493714948"><ele>69.66666666666667</ele><time>2026-04-01T14:29:07Z</time></trkpt><trkpt lat="39.19192396674929" lon="8.933823601459006"><ele>69.0</ele><time>2026-04-01T14:29:08Z</time></trkpt><trkpt lat="39.19200195488901" lon="8.933825180012592"><ele>69.0</ele><time>2026-04-01T14:29:09Z</time></trkpt><trkpt lat="39.19209440953667" lon="8.933811594072598"><ele>69.0</ele><time>2026-04-01T14:29:10Z</time></trkpt><trkpt lat="39.19218950563527" lon="8.933780999654665"><ele>69.0</ele><time>2026-04-01T14:29:11Z</time></trkpt><trkpt lat="39.19227930492961" lon="8.93373892381763"><ele>69.0</ele><time>2026-04-01T14:29:12Z</time></trkpt><trkpt lat="39.19235978062644" lon="8.933685762862465"><ele>69.0</ele><time>2026-04-01T14:29:13Z</time></trkpt><trkpt lat="39.192438109182596" lon="8.933616464011893"><ele>68.8</ele><time>2026-04-01T14:29:14Z</time></trkpt><trkpt lat="39.192504988672695" lon="8.933536582853185"><ele>68.60000000000001</ele><time>2026-04-01T14:29:15Z</time></trkpt><trkpt lat="39.19257482400765" lon="8.933436524577466"><ele>68.4</ele><time>2026-04-01T14:29:16Z</time></trkpt><trkpt lat="39.192640576177986" lon="8.933320559559096"><ele>68.2</ele><time>2026-04-01T14:29:17Z</time></trkpt><trkpt lat="39.19270524898893" lon="8.933201866726705"><ele>68.0</ele><time>2026-04-01T14:29:18Z</time></trkpt><trkpt lat="39.192782032434756" lon="8.933086794283215"><ele>68.5</ele><time>2026-04-01T14:29:19Z</time></trkpt><trkpt lat="39.192867748289984" lon="8.932973057631502"><ele>69.0</ele><time>2026-04-01T14:29:20Z</time></trkpt><trkpt lat="39.19295382251987" lon="8.932859947248593"><ele>69.5</ele><time>2026-04-01T14:29:21Z</time></trkpt><trkpt lat="39.19304286098745" lon="8.93274306366636"><ele>70.0</ele><time>2026-04-01T14:29:22Z</time></trkpt><trkpt lat="39.19313266026838" lon="8.93261509626908"><ele>69.25</ele><time>2026-04-01T14:29:23Z</time></trkpt><trkpt lat="39.193226383355544" lon="8.93248162591521"><ele>68.5</ele><time>2026-04-01T14:29:24Z</time></trkpt><trkpt lat="39.19331248507351" lon="8.932359269723229"><ele>67.75</ele><time>2026-04-01T14:29:25Z</time></trkpt><trkpt lat="39.193392669782035" lon="8.932246881131647"><ele>67.0</ele><time>2026-04-01T14:29:26Z</time></trkpt><trkpt lat="39.193468816752365" lon="8.932149196956207"><ele>67.0</ele><time>2026-04-01T14:29:27Z</time></trkpt><trkpt lat="39.193532819120584" lon="8.932070770625398"><ele>67.0</ele><time>2026-04-01T14:29:28Z</time></trkpt><trkpt lat="39.193596370562915" lon="8.931998764021364"><ele>67.0</ele><time>2026-04-01T14:29:29Z</time></trkpt><trkpt lat="39.193670553812915" lon="8.931936481977585"><ele>67.0</ele><time>2026-04-01T14:29:30Z</time></trkpt><trkpt lat="39.193760003584565" lon="8.931895030153534"><ele>67.0</ele><time>2026-04-01T14:29:31Z</time></trkpt><trkpt lat="39.1938565995703" lon="8.931890701048408"><ele>67.0</ele><time>2026-04-01T14:29:32Z</time></trkpt><trkpt lat="39.19396603119473" lon="8.93191857792642"><ele>67.0</ele><time>2026-04-01T14:29:33Z</time></trkpt><trkpt lat="39.194076448115055" lon="8.931972985824562"><ele>67.0</ele><time>2026-04-01T14:29:34Z</time></trkpt><trkpt lat="39.19419639221457" lon="8.932037783451415"><ele>67.0</ele><time>2026-04-01T14:29:35Z</time></trkpt><trkpt lat="39.19431236131122" lon="8.932095108164225"><ele>66.75</ele><time>2026-04-01T14:29:36Z</time></trkpt><trkpt lat="39.19442779903907" lon="8.932140177139534"><ele>66.5</ele><time>2026-04-01T14:29:37Z</time></trkpt><trkpt lat="39.19454592745989" lon="8.93218820825908"><ele>66.25</ele><time>2026-04-01T14:29:38Z</time></trkpt><trkpt lat="39.194675520985705" lon="8.932235196644205"><ele>66.0</ele><time>2026-04-01T14:29:39Z</time></trkpt><trkpt lat="39.19482650438094" lon="8.932269698210813"><ele>66.75</ele><time>2026-04-01T14:29:40Z</time></trkpt><trkpt lat="39.194968272588376" lon="8.93231781770349"><ele>67.5</ele><time>2026-04-01T14:29:41Z</time></trkpt><trkpt lat="39.195105527495606" lon="8.932374904653983"><ele>68.25</ele><time>2026-04-01T14:29:42Z</time></trkpt><trkpt lat="39.19522913679177" lon="8.93244136369676"><ele>69.0</ele><time>2026-04-01T14:29:43Z</time></trkpt><trkpt lat="39.19534703413056" lon="8.932503551610234"><ele>69.0</ele><time>2026-04-01T14:29:44Z</time></trkpt><trkpt lat="39.19544258406297" lon="8.932548807644832"><ele>69.0</ele><time>2026-04-01T14:29:45Z</time></trkpt><trkpt lat="39.19553263044962" lon="8.932588911308779"><ele>69.0</ele><time>2026-04-01T14:29:46Z</time></trkpt><trkpt lat="39.19561897648438" lon="8.932646566557644"><ele>69.0</ele><time>2026-04-01T14:29:47Z</time></trkpt><trkpt lat="39.195710440849105" lon="8.932714237597784"><ele>69.0</ele><time>2026-04-01T14:29:48Z</time></trkpt><trkpt lat="39.19580671490013" lon="8.93278901897779"><ele>69.0</ele><time>2026-04-01T14:29:49Z</time></trkpt><trkpt lat="39.195904570939085" lon="8.932879310803319"><ele>69.0</ele><time>2026-04-01T14:29:50Z</time></trkpt><trkpt lat="39.196015112564865" lon="8.932972830700853"><ele>69.0</ele><time>2026-04-01T14:29:51Z</time></trkpt><trkpt lat="39.19613370011998" lon="8.933068342305972"><ele>69.0</ele><time>2026-04-01T14:29:52Z</time></trkpt><trkpt lat="39.19625135089418" lon="8.933168470053154"><ele>69.0</ele><time>2026-04-01T14:29:53Z</time></trkpt><trkpt lat="39.19637201534945" lon="8.933277008017575"><ele>69.0</ele><time>2026-04-01T14:29:54Z</time></trkpt><trkpt lat="39.19650274368233" lon="8.933388295050642"><ele>69.0</ele><time>2026-04-01T14:29:55Z</time></trkpt><trkpt lat="39.19664320554575" lon="8.933505992392892"><ele>67.66666666666667</ele><time>2026-04-01T14:29:56Z</time></trkpt><trkpt lat="39.19678179181183" lon="8.933627114835236"><ele>66.33333333333334</ele><time>2026-04-01T14:29:56.999Z</time></trkpt><trkpt lat="39.19692907663982" lon="8.93375203728208"><ele>65.0</ele><time>2026-04-01T14:29:57.999Z</time></trkpt><trkpt lat="39.1970721459662" lon="8.933876386993155"><ele>65.0</ele><time>2026-04-01T14:29:58.999Z</time></trkpt><trkpt lat="39.19721838456917" lon="8.93400328486658"><ele>65.0</ele><time>2026-04-01T14:29:59.999Z</time></trkpt><trkpt lat="39.19736946011" lon="8.934125642600117"><ele>65.0</ele><time>2026-04-01T14:30:00.999Z</time></trkpt><trkpt lat="39.197511923028515" lon="8.93425159563342"><ele>63.66666666666667</ele><time>2026-04-01T14:30:01.999Z</time></trkpt><trkpt lat="39.19765478772446" lon="8.934375344696038"><ele>62.33333333333333</ele><time>2026-04-01T14:30:02.999Z</time></trkpt><trkpt lat="39.19780553523564" lon="8.934494581550501"><ele>61.0</ele><time>2026-04-01T14:30:03.999Z</time></trkpt><trkpt lat="39.19794726538246" lon="8.934622584257008"><ele>61.0</ele><time>2026-04-01T14:30:04.999Z</time></trkpt><trkpt lat="39.19809015314746" lon="8.934744593006991"><ele>61.0</ele><time>2026-04-01T14:30:05.999Z</time></trkpt><trkpt lat="39.19823817108046" lon="8.93485533848398"><ele>61.0</ele><time>2026-04-01T14:30:06.999Z</time></trkpt><trkpt lat="39.198395160266166" lon="8.934945171613228"><ele>60.33333333333333</ele><time>2026-04-01T14:30:07.999Z</time></trkpt><trkpt lat="39.198552428605105" lon="8.935034139571972"><ele>59.66666666666667</ele><time>2026-04-01T14:30:08.999Z</time></trkpt><trkpt lat="39.19870565120441" lon="8.935126591379158"><ele>59.0</ele><time>2026-04-01T14:30:09.999Z</time></trkpt><trkpt lat="39.19885539327689" lon="8.935219839720176"><ele>59.333333333333336</ele><time>2026-04-01T14:30:10.999Z</time></trkpt><trkpt lat="39.199001861504044" lon="8.935316835375565"><ele>59.66666666666667</ele><time>2026-04-01T14:30:11.999Z</time></trkpt><trkpt lat="39.1991395606531" lon="8.935429671061028"><ele>60.0</ele><time>2026-04-01T14:30:12.999Z</time></trkpt><trkpt lat="39.199265899405304" lon="8.935570194636892"><ele>60.0</ele><time>2026-04-01T14:30:13.999Z</time></trkpt><trkpt lat="39.19939066938512" lon="8.935725895994684"><ele>60.0</ele><time>2026-04-01T14:30:14.999Z</time></trkpt><trkpt lat="39.19952557233652" lon="8.935896838431564"><ele>60.0</ele><time>2026-04-01T14:30:15.999Z</time></trkpt><trkpt lat="39.19967199370066" lon="8.936070521384098"><ele>60.0</ele><time>2026-04-01T14:30:16.999Z</time></trkpt><trkpt lat="39.19980575987903" lon="8.9362263818995"><ele>60.0</ele><time>2026-04-01T14:30:17.999Z</time></trkpt><trkpt lat="39.1999185879282" lon="8.936384386543693"><ele>60.0</ele><time>2026-04-01T14:30:18.999Z</time></trkpt><trkpt lat="39.20000139968792" lon="8.936557660458424"><ele>60.66666666666667</ele><time>2026-04-01T14:30:19.999Z</time></trkpt><trkpt lat="39.20005696808776" lon="8.936753876283008"><ele>61.333333333333336</ele><time>2026-04-01T14:30:20.999Z</time></trkpt><trkpt lat="39.20008061626336" lon="8.936966431366304"><ele>62.0</ele><time>2026-04-01T14:30:21.999Z</time></trkpt><trkpt lat="39.20009851900888" lon="8.937175525116086"><ele>62.0</ele><time>2026-04-01T14:30:22.999Z</time></trkpt><trkpt lat="39.20013307578832" lon="8.937381147178552"><ele>62.0</ele><time>2026-04-01T14:30:23.999Z</time></trkpt><trkpt lat="39.200190966411675" lon="8.937593792230734"><ele>62.0</ele><time>2026-04-01T14:30:24.999Z</time></trkpt><trkpt lat="39.200256127034294" lon="8.937808146496554"><ele>61.0</ele><time>2026-04-01T14:30:25.999Z</time></trkpt><trkpt lat="39.20032294988578" lon="8.938027236901645"><ele>60.0</ele><time>2026-04-01T14:30:26.999Z</time></trkpt><trkpt lat="39.20038672699986" lon="8.938256020889382"><ele>59.0</ele><time>2026-04-01T14:30:27.999Z</time></trkpt><trkpt lat="39.200453180918934" lon="8.938489169073298"><ele>58.66666666666667</ele><time>2026-04-01T14:30:28.999Z</time></trkpt><trkpt lat="39.200528566005005" lon="8.938722859738037"><ele>58.33333333333333</ele><time>2026-04-01T14:30:29.999Z</time></trkpt><trkpt lat="39.20061422222106" lon="8.938955140579916"><ele>58.0</ele><time>2026-04-01T14:30:30.999Z</time></trkpt><trkpt lat="39.20070987151795" lon="8.939184837705314"><ele>57.33333333333333</ele><time>2026-04-01T14:30:31.999Z</time></trkpt><trkpt lat="39.200812651012555" lon="8.939410346299422"><ele>56.66666666666667</ele><time>2026-04-01T14:30:32.999Z</time></trkpt><trkpt lat="39.20091385408192" lon="8.93963765954737"><ele>56.0</ele><time>2026-04-01T14:30:33.999Z</time></trkpt><trkpt lat="39.20101156320498" lon="8.939866645749406"><ele>55.333333333333336</ele><time>2026-04-01T14:30:34.999Z</time></trkpt><trkpt lat="39.20110447809512" lon="8.940097607604459"><ele>54.66666666666667</ele><time>2026-04-01T14:30:35.999Z</time></trkpt><trkpt lat="39.20119876535824" lon="8.940327790662211"><ele>54.0</ele><time>2026-04-01T14:30:36.999Z</time></trkpt><trkpt lat="39.20130270834639" lon="8.940550120188936"><ele>54.0</ele><time>2026-04-01T14:30:37.999Z</time></trkpt><trkpt lat="39.2014312005052" lon="8.940750596148707"><ele>54.0</ele><time>2026-04-01T14:30:38.999Z</time></trkpt><trkpt lat="39.201573829330094" lon="8.940936012866027"><ele>54.0</ele><time>2026-04-01T14:30:39.999Z</time></trkpt><trkpt lat="39.20172939201597" lon="8.941104571962725"><ele>52.33333333333333</ele><time>2026-04-01T14:30:40.999Z</time></trkpt><trkpt lat="39.20189680105948" lon="8.941246823791976"><ele>50.666666666666664</ele><time>2026-04-01T14:30:41.999Z</time></trkpt><trkpt lat="39.20207651183679" lon="8.941366308307213"><ele>49.0</ele><time>2026-04-01T14:30:42.999Z</time></trkpt><trkpt lat="39.20226621029683" lon="8.941450363896408"><ele>49.0</ele><time>2026-04-01T14:30:43.999Z</time></trkpt><trkpt lat="39.20245821263582" lon="8.941511429036217"><ele>49.0</ele><time>2026-04-01T14:30:44.999Z</time></trkpt><trkpt lat="39.20265174153858" lon="8.94154271549966"><ele>49.0</ele><time>2026-04-01T14:30:45.999Z</time></trkpt><trkpt lat="39.20284683829356" lon="8.941554675965346"><ele>49.0</ele><time>2026-04-01T14:30:46.999Z</time></trkpt><trkpt lat="39.203047499267356" lon="8.941561279201608"><ele>49.0</ele><time>2026-04-01T14:30:47.999Z</time></trkpt><trkpt lat="39.20325421337099" lon="8.941568921340357"><ele>49.0</ele><time>2026-04-01T14:30:48.999Z</time></trkpt><trkpt lat="39.20346890739178" lon="8.941575408782349"><ele>50.33333333333333</ele><time>2026-04-01T14:30:49.999Z</time></trkpt><trkpt lat="39.20366960708052" lon="8.941579005848217"><ele>51.66666666666667</ele><time>2026-04-01T14:30:50.999Z</time></trkpt><trkpt lat="39.20385582161394" lon="8.941591297631367"><ele>53.0</ele><time>2026-04-01T14:30:51.999Z</time></trkpt><trkpt lat="39.20402907560463" lon="8.941632614551683"><ele>53.333333333333336</ele><time>2026-04-01T14:30:52.999Z</time></trkpt><trkpt lat="39.20418583723787" lon="8.941701355039465"><ele>53.66666666666667</ele><time>2026-04-01T14:30:53.999Z</time></trkpt><trkpt lat="39.20432985091508" lon="8.941804599441587"><ele>54.0</ele><time>2026-04-01T14:30:54.999Z</time></trkpt><trkpt lat="39.204456565855466" lon="8.941944497323849"><ele>52.33333333333333</ele><time>2026-04-01T14:30:55.999Z</time></trkpt><trkpt lat="39.204566581129775" lon="8.942110816124258"><ele>50.666666666666664</ele><time>2026-04-01T14:30:56.999Z</time></trkpt><trkpt lat="39.20467214620593" lon="8.942297395363752"><ele>49.0</ele><time>2026-04-01T14:30:57.999Z</time></trkpt><trkpt lat="39.2047888266082" lon="8.942494945699009"><ele>50.33333333333333</ele><time>2026-04-01T14:30:58.999Z</time></trkpt><trkpt lat="39.20491761492572" lon="8.942696823638705"><ele>51.66666666666667</ele><time>2026-04-01T14:30:59.999Z</time></trkpt><trkpt lat="39.205062816439316" lon="8.942902211149951"><ele>53.0</ele><time>2026-04-01T14:31:00.999Z</time></trkpt><trkpt lat="39.20521239559412" lon="8.94309452641441"><ele>53.0</ele><time>2026-04-01T14:31:01.999Z</time></trkpt><trkpt lat="39.20536799263987" lon="8.943277355140744"><ele>53.0</ele><time>2026-04-01T14:31:02.999Z</time></trkpt><trkpt lat="39.205521764676774" lon="8.943462000109145"><ele>53.0</ele><time>2026-04-01T14:31:03.999Z</time></trkpt><trkpt lat="39.20567420721083" lon="8.943650182827877"><ele>53.333333333333336</ele><time>2026-04-01T14:31:04.999Z</time></trkpt><trkpt lat="39.20582624507627" lon="8.943838767725065"><ele>53.66666666666667</ele><time>2026-04-01T14:31:05.999Z</time></trkpt><trkpt lat="39.20597968343253" lon="8.944031839901541"><ele>54.0</ele><time>2026-04-01T14:31:06.999Z</time></trkpt><trkpt lat="39.20613779613695" lon="8.944227046866917"><ele>52.0</ele><time>2026-04-01T14:31:07.999Z</time></trkpt><trkpt lat="39.206304164717096" lon="8.944426500081295"><ele>50.0</ele><time>2026-04-01T14:31:08.999Z</time></trkpt><trkpt lat="39.20648174599553" lon="8.944635891677466"><ele>51.0</ele><time>2026-04-01T14:31:09.999Z</time></trkpt><trkpt lat="39.20666398166804" lon="8.944832902398316"><ele>52.0</ele><time>2026-04-01T14:31:10.999Z</time></trkpt><trkpt lat="39.206846220737894" lon="8.945004259391563"><ele>52.0</ele><time>2026-04-01T14:31:11.999Z</time></trkpt><trkpt lat="39.2070289116976" lon="8.945140663952053"><ele>52.0</ele><time>2026-04-01T14:31:12.999Z</time></trkpt><trkpt lat="39.20721828669747" lon="8.945244396196104"><ele>52.0</ele><time>2026-04-01T14:31:13.999Z</time></trkpt><trkpt lat="39.20742037679954" lon="8.945315452055537"><ele>51.666666666666664</ele><time>2026-04-01T14:31:14.999Z</time></trkpt><trkpt lat="39.20763176812012" lon="8.94534527280267"><ele>51.33333333333333</ele><time>2026-04-01T14:31:15.999Z</time></trkpt><trkpt lat="39.207846929654025" lon="8.945356786842032"><ele>51.0</ele><time>2026-04-01T14:31:16.999Z</time></trkpt><trkpt lat="39.208057138703985" lon="8.945363816788266"><ele>51.0</ele><time>2026-04-01T14:31:17.999Z</time></trkpt><trkpt lat="39.208262450986595" lon="8.945373328989781"><ele>51.0</ele><time>2026-04-01T14:31:18.999Z</time></trkpt><trkpt lat="39.20846552470407" lon="8.945390029398231"><ele>51.0</ele><time>2026-04-01T14:31:19.999Z</time></trkpt><trkpt lat="39.20866723022126" lon="8.945411643476668"><ele>51.0</ele><time>2026-04-01T14:31:20.999Z</time></trkpt><trkpt lat="39.208867066886555" lon="8.945434716011588"><ele>51.0</ele><time>2026-04-01T14:31:21.999Z</time></trkpt><trkpt lat="39.20906389901582" lon="8.945475963708825"><ele>51.0</ele><time>2026-04-01T14:31:22.999Z</time></trkpt><trkpt lat="39.20926288660664" lon="8.945513821279908"><ele>50.33333333333333</ele><time>2026-04-01T14:31:23.999Z</time></trkpt><trkpt lat="39.20945524782799" lon="8.94558528148915"><ele>49.666666666666664</ele><time>2026-04-01T14:31:24.999Z</time></trkpt><trkpt lat="39.209643023519796" lon="8.945689637605554"><ele>49.0</ele><time>2026-04-01T14:31:25.999Z</time></trkpt><trkpt lat="39.209824662656395" lon="8.945809938897685"><ele>49.33333333333333</ele><time>2026-04-01T14:31:26.999Z</time></trkpt><trkpt lat="39.210007771835045" lon="8.945933659270036"><ele>49.66666666666667</ele><time>2026-04-01T14:31:27.999Z</time></trkpt><trkpt lat="39.210185959244555" lon="8.94605525257013"><ele>50.0</ele><time>2026-04-01T14:31:28.999Z</time></trkpt><trkpt lat="39.2103715505451" lon="8.946168745540866"><ele>50.0</ele><time>2026-04-01T14:31:29.999Z</time></trkpt><trkpt lat="39.210557012339436" lon="8.946273188918457"><ele>50.0</ele><time>2026-04-01T14:31:30.999Z</time></trkpt><trkpt lat="39.21073375526869" lon="8.946383057672072"><ele>50.0</ele><time>2026-04-01T14:31:31.999Z</time></trkpt><trkpt lat="39.21091302963178" lon="8.946489381517713"><ele>49.333333333333336</ele><time>2026-04-01T14:31:32.999Z</time></trkpt><trkpt lat="39.21109023804315" lon="8.946595364383747"><ele>48.66666666666667</ele><time>2026-04-01T14:31:33.999Z</time></trkpt><trkpt lat="39.21126640878965" lon="8.946700050297041"><ele>48.0</ele><time>2026-04-01T14:31:34.999Z</time></trkpt><trkpt lat="39.21143337050177" lon="8.946810987258237"><ele>48.66666666666667</ele><time>2026-04-01T14:31:35.999Z</time></trkpt><trkpt lat="39.21158722887292" lon="8.946908490678577"><ele>49.333333333333336</ele><time>2026-04-01T14:31:36.999Z</time></trkpt><trkpt lat="39.21174007922447" lon="8.946995287722514"><ele>50.0</ele><time>2026-04-01T14:31:37.999Z</time></trkpt><trkpt lat="39.21190425513221" lon="8.947068240186859"><ele>50.0</ele><time>2026-04-01T14:31:38.999Z</time></trkpt><trkpt lat="39.21206565121131" lon="8.947124189112442"><ele>50.0</ele><time>2026-04-01T14:31:39.999Z</time></trkpt><trkpt lat="39.21222513351305" lon="8.947164369288872"><ele>50.0</ele><time>2026-04-01T14:31:40.999Z</time></trkpt><trkpt lat="39.212393789423984" lon="8.94719373472465"><ele>48.333333333333336</ele><time>2026-04-01T14:31:41.999Z</time></trkpt><trkpt lat="39.21255891532585" lon="8.947235248563057"><ele>46.66666666666667</ele><time>2026-04-01T14:31:42.999Z</time></trkpt><trkpt lat="39.21271994479602" lon="8.947273114367789"><ele>45.0</ele><time>2026-04-01T14:31:43.999Z</time></trkpt><trkpt lat="39.21288565928953" lon="8.947308427519122"><ele>45.0</ele><time>2026-04-01T14:31:44.999Z</time></trkpt><trkpt lat="39.21304586058457" lon="8.947346096675364"><ele>45.0</ele><time>2026-04-01T14:31:45.999Z</time></trkpt><trkpt lat="39.21320096261441" lon="8.947389606099605"><ele>45.0</ele><time>2026-04-01T14:31:46.999Z</time></trkpt><trkpt lat="39.213346355604926" lon="8.947435594116952"><ele>45.0</ele><time>2026-04-01T14:31:47.999Z</time></trkpt><trkpt lat="39.213496300784676" lon="8.94749822031637"><ele>45.0</ele><time>2026-04-01T14:31:48.999Z</time></trkpt><trkpt lat="39.21364815591383" lon="8.947564730560803"><ele>45.0</ele><time>2026-04-01T14:31:49.999Z</time></trkpt><trkpt lat="39.213796019126384" lon="8.94764303269709"><ele>44.666666666666664</ele><time>2026-04-01T14:31:50.999Z</time></trkpt><trkpt lat="39.21394710052705" lon="8.94772851180184"><ele>44.33333333333333</ele><time>2026-04-01T14:31:51.999Z</time></trkpt><trkpt lat="39.214104492263" lon="8.94783617901012"><ele>44.0</ele><time>2026-04-01T14:31:52.999Z</time></trkpt><trkpt lat="39.21426213815712" lon="8.947947253341926"><ele>44.0</ele><time>2026-04-01T14:31:53.999Z</time></trkpt><trkpt lat="39.2144185945625" lon="8.948066431059514"><ele>44.0</ele><time>2026-04-01T14:31:54.999Z</time></trkpt><trkpt lat="39.21457678555838" lon="8.948195161164792"><ele>44.0</ele><time>2026-04-01T14:31:55.999Z</time></trkpt><trkpt lat="39.21472666120535" lon="8.948340606445463"><ele>43.33333333333333</ele><time>2026-04-01T14:31:56.999Z</time></trkpt><trkpt lat="39.21487736379951" lon="8.948498893709845"><ele>42.666666666666664</ele><time>2026-04-01T14:31:57.999Z</time></trkpt><trkpt lat="39.21502250643923" lon="8.948667345397103"><ele>42.0</ele><time>2026-04-01T14:31:58.999Z</time></trkpt><trkpt lat="39.215162074017876" lon="8.948846376354515"><ele>42.0</ele><time>2026-04-01T14:31:59.999Z</time></trkpt><trkpt lat="39.2152922956505" lon="8.949030383117156"><ele>42.0</ele><time>2026-04-01T14:32:00.999Z</time></trkpt><trkpt lat="39.21541610862284" lon="8.949223909073078"><ele>42.0</ele><time>2026-04-01T14:32:01.999Z</time></trkpt><trkpt lat="39.21553154827211" lon="8.94943025694924"><ele>42.0</ele><time>2026-04-01T14:32:02.999Z</time></trkpt><trkpt lat="39.21564040321748" lon="8.949637926209402"><ele>42.0</ele><time>2026-04-01T14:32:03.999Z</time></trkpt><trkpt lat="39.21573335259292" lon="8.949842141443385"><ele>42.0</ele><time>2026-04-01T14:32:04.999Z</time></trkpt><trkpt lat="39.21582112765747" lon="8.950038270705635"><ele>41.666666666666664</ele><time>2026-04-01T14:32:05.999Z</time></trkpt><trkpt lat="39.21588920048892" lon="8.950229242896532"><ele>41.33333333333333</ele><time>2026-04-01T14:32:06.999Z</time></trkpt><trkpt lat="39.21595008350958" lon="8.95041660750406"><ele>41.0</ele><time>2026-04-01T14:32:07.999Z</time></trkpt><trkpt lat="39.216009426702556" lon="8.95059203954213"><ele>41.0</ele><time>2026-04-01T14:32:08.999Z</time></trkpt><trkpt lat="39.21606968473748" lon="8.950755474752338"><ele>41.0</ele><time>2026-04-01T14:32:09.999Z</time></trkpt><trkpt lat="39.21612697907506" lon="8.950913746771052"><ele>41.0</ele><time>2026-04-01T14:32:10.999Z</time></trkpt><trkpt lat="39.21618027153318" lon="8.951067983975864"><ele>41.0</ele><time>2026-04-01T14:32:11.999Z</time></trkpt><trkpt lat="39.21623484697758" lon="8.951202447991578"><ele>41.0</ele><time>2026-04-01T14:32:12.999Z</time></trkpt><trkpt lat="39.2162796946643" lon="8.951349194616082"><ele>41.0</ele><time>2026-04-01T14:32:13.999Z</time></trkpt><trkpt lat="39.216325444300985" lon="8.951483695226317"><ele>41.0</ele><time>2026-04-01T14:32:14.999Z</time></trkpt><trkpt lat="39.21636881377878" lon="8.95162205498269"><ele>41.0</ele><time>2026-04-01T14:32:15.999Z</time></trkpt><trkpt lat="39.21640808897431" lon="8.951754759813491"><ele>40.83333333333333</ele><time>2026-04-01T14:32:16.999Z</time></trkpt><trkpt lat="39.21643002003186" lon="8.951869233075886"><ele>40.666666666666664</ele><time>2026-04-01T14:32:17.999Z</time></trkpt><trkpt lat="39.216413075466946" lon="8.951977504696966"><ele>40.5</ele><time>2026-04-01T14:32:18.999Z</time></trkpt><trkpt lat="39.21636801811472" lon="8.952074606981522"><ele>40.333333333333336</ele><time>2026-04-01T14:32:19.999Z</time></trkpt><trkpt lat="39.21630421800884" lon="8.952163481628839"><ele>40.16666666666667</ele><time>2026-04-01T14:32:20.999Z</time></trkpt><trkpt lat="39.216272454189685" lon="8.952257272470948"><ele>40.0</ele><time>2026-04-01T14:32:21.999Z</time></trkpt><trkpt lat="39.21629659241302" lon="8.952358727023642"><ele>40.0</ele><time>2026-04-01T14:32:22.999Z</time></trkpt><trkpt lat="39.21636095375382" lon="8.952432061307935"><ele>40.0</ele><time>2026-04-01T14:32:23.999Z</time></trkpt><trkpt lat="39.21644891838331" lon="8.952462645944264"><ele>40.0</ele><time>2026-04-01T14:32:24.999Z</time></trkpt><trkpt lat="39.216547442759094" lon="8.952448453953247"><ele>40.0</ele><time>2026-04-01T14:32:25.999Z</time></trkpt><trkpt lat="39.21664171254097" lon="8.952465087846557"><ele>40.0</ele><time>2026-04-01T14:32:26.999Z</time></trkpt><trkpt lat="39.21671084716901" lon="8.952572654141719"><ele>39.75</ele><time>2026-04-01T14:32:27.999Z</time></trkpt><trkpt lat="39.21675367828748" lon="8.952712195014405"><ele>39.5</ele><time>2026-04-01T14:32:28.999Z</time></trkpt><trkpt lat="39.216787887804855" lon="8.952886604831388"><ele>39.25</ele><time>2026-04-01T14:32:29.998Z</time></trkpt><trkpt lat="39.21684742946066" lon="8.953076314492796"><ele>39.0</ele><time>2026-04-01T14:32:30.998Z</time></trkpt><trkpt lat="39.216914208779386" lon="8.953271782661801"><ele>39.333333333333336</ele><time>2026-04-01T14:32:31.998Z</time></trkpt><trkpt lat="39.2169851810599" lon="8.953476789586247"><ele>39.66666666666667</ele><time>2026-04-01T14:32:32.998Z</time></trkpt><trkpt lat="39.21705669828101" lon="8.953694612706792"><ele>40.0</ele><time>2026-04-01T14:32:33.998Z</time></trkpt><trkpt lat="39.21712973150774" lon="8.953920950689122"><ele>40.0</ele><time>2026-04-01T14:32:34.998Z</time></trkpt><trkpt lat="39.217208000366064" lon="8.95414358777202"><ele>40.0</ele><time>2026-04-01T14:32:35.998Z</time></trkpt><trkpt lat="39.21729269018699" lon="8.954376013237061"><ele>40.0</ele><time>2026-04-01T14:32:36.998Z</time></trkpt><trkpt lat="39.21737638958851" lon="8.954614954049697"><ele>39.333333333333336</ele><time>2026-04-01T14:32:37.998Z</time></trkpt><trkpt lat="39.21745763095049" lon="8.954851886775549"><ele>38.666666666666664</ele><time>2026-04-01T14:32:38.998Z</time></trkpt><trkpt lat="39.21753701504135" lon="8.955082790103964"><ele>38.0</ele><time>2026-04-01T14:32:39.998Z</time></trkpt><trkpt lat="39.217614961472975" lon="8.955316671261077"><ele>38.0</ele><time>2026-04-01T14:32:40.998Z</time></trkpt><trkpt lat="39.21769204763272" lon="8.95554237487809"><ele>38.0</ele><time>2026-04-01T14:32:41.998Z</time></trkpt><trkpt lat="39.217766240200895" lon="8.955766747266917"><ele>38.0</ele><time>2026-04-01T14:32:42.998Z</time></trkpt><trkpt lat="39.217836305633796" lon="8.955990942753628"><ele>38.0</ele><time>2026-04-01T14:32:43.998Z</time></trkpt><trkpt lat="39.21790851811217" lon="8.956212040446761"><ele>38.0</ele><time>2026-04-01T14:32:44.998Z</time></trkpt><trkpt lat="39.217982171609286" lon="8.956432496717266"><ele>38.0</ele><time>2026-04-01T14:32:45.998Z</time></trkpt><trkpt lat="39.21805887433402" lon="8.956656691871865"><ele>38.0</ele><time>2026-04-01T14:32:46.998Z</time></trkpt><trkpt lat="39.218136839179" lon="8.956882080375385"><ele>38.0</ele><time>2026-04-01T14:32:47.998Z</time></trkpt><trkpt lat="39.21821447764351" lon="8.957111123065099"><ele>38.0</ele><time>2026-04-01T14:32:48.998Z</time></trkpt><trkpt lat="39.218295695619474" lon="8.957340990079956"><ele>37.33333333333333</ele><time>2026-04-01T14:32:49.998Z</time></trkpt><trkpt lat="39.218379106459864" lon="8.957571241848356"><ele>36.666666666666664</ele><time>2026-04-01T14:32:50.998Z</time></trkpt><trkpt lat="39.21845599894044" lon="8.957805781676168"><ele>36.0</ele><time>2026-04-01T14:32:51.998Z</time></trkpt><trkpt lat="39.21853525409511" lon="8.958039850489223"><ele>36.0</ele><time>2026-04-01T14:32:52.998Z</time></trkpt><trkpt lat="39.21861119320071" lon="8.95827214746084"><ele>36.0</ele><time>2026-04-01T14:32:53.998Z</time></trkpt><trkpt lat="39.21868940307556" lon="8.958505442878693"><ele>36.0</ele><time>2026-04-01T14:32:54.999Z</time></trkpt><trkpt lat="39.218770982616704" lon="8.958734899554504"><ele>36.0</ele><time>2026-04-01T14:32:55.999Z</time></trkpt><trkpt lat="39.21885470809332" lon="8.958966917291034"><ele>36.0</ele><time>2026-04-01T14:32:56.999Z</time></trkpt><trkpt lat="39.21893362957219" lon="8.959201534738307"><ele>36.0</ele><time>2026-04-01T14:32:57.999Z</time></trkpt><trkpt lat="39.21901145329538" lon="8.959435278910973"><ele>36.0</ele><time>2026-04-01T14:32:58.999Z</time></trkpt><trkpt lat="39.21908819944936" lon="8.95966930791155"><ele>36.0</ele><time>2026-04-01T14:32:59.999Z</time></trkpt><trkpt lat="39.219167288855466" lon="8.959906702269018"><ele>36.0</ele><time>2026-04-01T14:33:00.999Z</time></trkpt><trkpt lat="39.2192438602904" lon="8.96013995497466"><ele>36.0</ele><time>2026-04-01T14:33:01.999Z</time></trkpt><trkpt lat="39.219321152435" lon="8.960375315684438"><ele>36.0</ele><time>2026-04-01T14:33:02.999Z</time></trkpt><trkpt lat="39.21940296896383" lon="8.960609503623262"><ele>36.0</ele><time>2026-04-01T14:33:03.999Z</time></trkpt><trkpt lat="39.21948064987233" lon="8.96084149725654"><ele>35.0</ele><time>2026-04-01T14:33:04.999Z</time></trkpt><trkpt lat="39.21955878689286" lon="8.961073816022099"><ele>34.0</ele><time>2026-04-01T14:33:05.999Z</time></trkpt><trkpt lat="39.21963720985728" lon="8.961311337444721"><ele>33.0</ele><time>2026-04-01T14:33:06.999Z</time></trkpt><trkpt lat="39.21971475252599" lon="8.96154593324004"><ele>33.0</ele><time>2026-04-01T14:33:07.999Z</time></trkpt><trkpt lat="39.219791420074024" lon="8.961782173763591"><ele>33.0</ele><time>2026-04-01T14:33:08.999Z</time></trkpt><trkpt lat="39.219869569409575" lon="8.96201484831939"><ele>33.0</ele><time>2026-04-01T14:33:09.999Z</time></trkpt><trkpt lat="39.220029133158384" lon="8.962483155977152"><ele>32.666666666666664</ele><time>2026-04-01T14:33:11.999Z</time></trkpt><trkpt lat="39.22010466634858" lon="8.962719424622353"><ele>32.33333333333333</ele><time>2026-04-01T14:33:12.999Z</time></trkpt><trkpt lat="39.220180233145605" lon="8.962955092613502"><ele>32.0</ele><time>2026-04-01T14:33:13.999Z</time></trkpt><trkpt lat="39.22025661322613" lon="8.963188385154485"><ele>31.666666666666664</ele><time>2026-04-01T14:33:14.999Z</time></trkpt><trkpt lat="39.220338424644005" lon="8.963425480902742"><ele>31.333333333333336</ele><time>2026-04-01T14:33:15.999Z</time></trkpt><trkpt lat="39.22041920739942" lon="8.963664455153731"><ele>31.0</ele><time>2026-04-01T14:33:16.999Z</time></trkpt><trkpt lat="39.220499951946486" lon="8.963900994221575"><ele>31.0</ele><time>2026-04-01T14:33:17.999Z</time></trkpt><trkpt lat="39.22058179391363" lon="8.964140792011966"><ele>31.0</ele><time>2026-04-01T14:33:18.999Z</time></trkpt><trkpt lat="39.22066102889946" lon="8.964381471790334"><ele>31.0</ele><time>2026-04-01T14:33:19.999Z</time></trkpt><trkpt lat="39.22074103339465" lon="8.964620168748578"><ele>30.666666666666668</ele><time>2026-04-01T14:33:20.999Z</time></trkpt><trkpt lat="39.22081687551257" lon="8.964865010945202"><ele>30.333333333333336</ele><time>2026-04-01T14:33:21.999Z</time></trkpt><trkpt lat="39.22089036170238" lon="8.96510004497241"><ele>30.0</ele><time>2026-04-01T14:33:22.999Z</time></trkpt><trkpt lat="39.22097355399931" lon="8.965335852751037"><ele>30.0</ele><time>2026-04-01T14:33:23.999Z</time></trkpt><trkpt lat="39.22105045540421" lon="8.965570962569158"><ele>30.0</ele><time>2026-04-01T14:33:24.999Z</time></trkpt><trkpt lat="39.22112775813527" lon="8.965803114159502"><ele>30.0</ele><time>2026-04-01T14:33:25.999Z</time></trkpt><trkpt lat="39.22120401249419" lon="8.96602797247259"><ele>29.333333333333336</ele><time>2026-04-01T14:33:26.999Z</time></trkpt><trkpt lat="39.22127223232618" lon="8.966238049244318"><ele>28.666666666666668</ele><time>2026-04-01T14:33:27.999Z</time></trkpt><trkpt lat="39.221344652775414" lon="8.96643966770779"><ele>28.0</ele><time>2026-04-01T14:33:28.999Z</time></trkpt><trkpt lat="39.22140906183946" lon="8.9666299532926"><ele>28.0</ele><time>2026-04-01T14:33:29.999Z</time></trkpt><trkpt lat="39.221468850624056" lon="8.966808801767638"><ele>28.0</ele><time>2026-04-01T14:33:30.999Z</time></trkpt><trkpt lat="39.221525846340576" lon="8.966978391806801"><ele>28.0</ele><time>2026-04-01T14:33:31.999Z</time></trkpt><trkpt lat="39.22157984624006" lon="8.967142026526151"><ele>28.0</ele><time>2026-04-01T14:33:32.999Z</time></trkpt><trkpt lat="39.221636859236376" lon="8.96730155736862"><ele>28.0</ele><time>2026-04-01T14:33:33.999Z</time></trkpt><trkpt lat="39.22169058414916" lon="8.967466405275957"><ele>28.0</ele><time>2026-04-01T14:33:34.999Z</time></trkpt><trkpt lat="39.22173384690509" lon="8.967644336051144"><ele>28.0</ele><time>2026-04-01T14:33:35.999Z</time></trkpt><trkpt lat="39.22179503785317" lon="8.967827713589543"><ele>28.0</ele><time>2026-04-01T14:33:36.999Z</time></trkpt><trkpt lat="39.221859581595034" lon="8.968021138807844"><ele>28.333333333333336</ele><time>2026-04-01T14:33:37.999Z</time></trkpt><trkpt lat="39.22192780669642" lon="8.968225596353609"><ele>28.666666666666664</ele><time>2026-04-01T14:33:38.999Z</time></trkpt><trkpt lat="39.221999005906454" lon="8.96843896673658"><ele>29.0</ele><time>2026-04-01T14:33:39.999Z</time></trkpt><trkpt lat="39.2220725096237" lon="8.968658174056463"><ele>29.333333333333332</ele><time>2026-04-01T14:33:40.999Z</time></trkpt><trkpt lat="39.22214776543179" lon="8.968882219841253"><ele>29.666666666666664</ele><time>2026-04-01T14:33:41.999Z</time></trkpt><trkpt lat="39.22222755925544" lon="8.969119775857443"><ele>30.0</ele><time>2026-04-01T14:33:42.999Z</time></trkpt><trkpt lat="39.22231458297302" lon="8.969378856154778"><ele>29.333333333333336</ele><time>2026-04-01T14:33:43.999Z</time></trkpt><trkpt lat="39.222406039453865" lon="8.969651133338298"><ele>28.666666666666668</ele><time>2026-04-01T14:33:44.999Z</time></trkpt><trkpt lat="39.222491814327334" lon="8.969906495674365"><ele>28.0</ele><time>2026-04-01T14:33:45.999Z</time></trkpt><trkpt lat="39.22257457434878" lon="8.970149958637458"><ele>27.666666666666668</ele><time>2026-04-01T14:33:46.999Z</time></trkpt><trkpt lat="39.222653641259214" lon="8.97038210168696"><ele>27.333333333333336</ele><time>2026-04-01T14:33:47.999Z</time></trkpt><trkpt lat="39.222743671945835" lon="8.970603565991134"><ele>27.0</ele><time>2026-04-01T14:33:48.999Z</time></trkpt><trkpt lat="39.22282043101994" lon="8.970827449096845"><ele>27.0</ele><time>2026-04-01T14:33:49.999Z</time></trkpt><trkpt lat="39.222885745504556" lon="8.971063567392244"><ele>27.0</ele><time>2026-04-01T14:33:50.999Z</time></trkpt><trkpt lat="39.222960342253316" lon="8.971288199142297"><ele>27.0</ele><time>2026-04-01T14:33:51.999Z</time></trkpt><trkpt lat="39.223036382710625" lon="8.971515132018444"><ele>27.0</ele><time>2026-04-01T14:33:52.999Z</time></trkpt><trkpt lat="39.223115154843036" lon="8.97175021722684"><ele>27.0</ele><time>2026-04-01T14:33:53.999Z</time></trkpt><trkpt lat="39.22319623260788" lon="8.971991043778676"><ele>27.0</ele><time>2026-04-01T14:33:54.999Z</time></trkpt><trkpt lat="39.22329078896094" lon="8.972223159855414"><ele>26.333333333333336</ele><time>2026-04-01T14:33:55.999Z</time></trkpt><trkpt lat="39.22337431090528" lon="8.972464513457366"><ele>25.666666666666668</ele><time>2026-04-01T14:33:56.999Z</time></trkpt><trkpt lat="39.22345571742148" lon="8.972705007188287"><ele>25.0</ele><time>2026-04-01T14:33:57.999Z</time></trkpt><trkpt lat="39.223537441751674" lon="8.97295047365616"><ele>25.0</ele><time>2026-04-01T14:33:58.999Z</time></trkpt><trkpt lat="39.2236176644179" lon="8.973196071079556"><ele>25.0</ele><time>2026-04-01T14:33:59.999Z</time></trkpt><trkpt lat="39.22369804022994" lon="8.973441395963352"><ele>25.0</ele><time>2026-04-01T14:34:00.999Z</time></trkpt><trkpt lat="39.22377976172672" lon="8.973684045980207"><ele>25.333333333333336</ele><time>2026-04-01T14:34:01.999Z</time></trkpt><trkpt lat="39.223859813354444" lon="8.97392432649909"><ele>25.666666666666664</ele><time>2026-04-01T14:34:02.999Z</time></trkpt><trkpt lat="39.223941762601505" lon="8.974159114853027"><ele>26.0</ele><time>2026-04-01T14:34:03.999Z</time></trkpt><trkpt lat="39.22402106134454" lon="8.974391149967055"><ele>25.333333333333332</ele><time>2026-04-01T14:34:04.999Z</time></trkpt><trkpt lat="39.224099708233695" lon="8.97462381033389"><ele>24.666666666666664</ele><time>2026-04-01T14:34:05.999Z</time></trkpt><trkpt lat="39.22417814743666" lon="8.974859462084536"><ele>24.0</ele><time>2026-04-01T14:34:06.999Z</time></trkpt><trkpt lat="39.22425775181765" lon="8.975097041222593"><ele>24.0</ele><time>2026-04-01T14:34:07.999Z</time></trkpt><trkpt lat="39.22433467587016" lon="8.975335883921433"><ele>24.0</ele><time>2026-04-01T14:34:08.999Z</time></trkpt><trkpt lat="39.2244116488117" lon="8.975571874326338"><ele>24.0</ele><time>2026-04-01T14:34:09.999Z</time></trkpt><trkpt lat="39.22449038249544" lon="8.975809052899798"><ele>23.333333333333332</ele><time>2026-04-01T14:34:10.999Z</time></trkpt><trkpt lat="39.22456594223119" lon="8.976046400379229"><ele>22.666666666666664</ele><time>2026-04-01T14:34:11.999Z</time></trkpt><trkpt lat="39.22464368159449" lon="8.976283121917124"><ele>22.0</ele><time>2026-04-01T14:34:12.999Z</time></trkpt><trkpt lat="39.22472541535092" lon="8.976516428311646"><ele>21.666666666666664</ele><time>2026-04-01T14:34:13.999Z</time></trkpt><trkpt lat="39.2248087005069" lon="8.976748741660549"><ele>21.333333333333332</ele><time>2026-04-01T14:34:14.999Z</time></trkpt><trkpt lat="39.2248883354548" lon="8.976984526411663"><ele>21.0</ele><time>2026-04-01T14:34:15.999Z</time></trkpt><trkpt lat="39.224963281149485" lon="8.977224958792174"><ele>21.0</ele><time>2026-04-01T14:34:16.999Z</time></trkpt><trkpt lat="39.22504019205292" lon="8.977462925212048"><ele>21.0</ele><time>2026-04-01T14:34:17.999Z</time></trkpt><trkpt lat="39.22511936741571" lon="8.977701298320792"><ele>21.0</ele><time>2026-04-01T14:34:18.999Z</time></trkpt><trkpt lat="39.225202945521225" lon="8.97794249543678"><ele>21.666666666666668</ele><time>2026-04-01T14:34:19.999Z</time></trkpt><trkpt lat="39.2252860746406" lon="8.978187987138384"><ele>22.333333333333336</ele><time>2026-04-01T14:34:20.999Z</time></trkpt><trkpt lat="39.22537233998989" lon="8.978433279754462"><ele>23.0</ele><time>2026-04-01T14:34:21.999Z</time></trkpt><trkpt lat="39.22545794852149" lon="8.978679406085101"><ele>23.0</ele><time>2026-04-01T14:34:22.999Z</time></trkpt><trkpt lat="39.22554680237677" lon="8.978926144448758"><ele>23.0</ele><time>2026-04-01T14:34:23.999Z</time></trkpt><trkpt lat="39.225633690852014" lon="8.979175575041658"><ele>23.0</ele><time>2026-04-01T14:34:24.999Z</time></trkpt><trkpt lat="39.22571489624435" lon="8.979422821044164"><ele>22.333333333333336</ele><time>2026-04-01T14:34:25.999Z</time></trkpt><trkpt lat="39.22579261303095" lon="8.979654477156659"><ele>21.666666666666668</ele><time>2026-04-01T14:34:26.999Z</time></trkpt><trkpt lat="39.22586839714081" lon="8.979873051590943"><ele>21.0</ele><time>2026-04-01T14:34:27.999Z</time></trkpt><trkpt lat="39.22594167426216" lon="8.980082776094605"><ele>21.0</ele><time>2026-04-01T14:34:28.999Z</time></trkpt><trkpt lat="39.22600871064465" lon="8.980285374024135"><ele>21.0</ele><time>2026-04-01T14:34:29.999Z</time></trkpt><trkpt lat="39.22607090015736" lon="8.980474793429035"><ele>21.0</ele><time>2026-04-01T14:34:30.999Z</time></trkpt><trkpt lat="39.22612602871786" lon="8.980669399114797"><ele>20.666666666666668</ele><time>2026-04-01T14:34:31.999Z</time></trkpt><trkpt lat="39.2261922777233" lon="8.980864409217812"><ele>20.333333333333336</ele><time>2026-04-01T14:34:32.999Z</time></trkpt><trkpt lat="39.22626059227795" lon="8.981061067123768"><ele>20.0</ele><time>2026-04-01T14:34:33.999Z</time></trkpt><trkpt lat="39.22632814198385" lon="8.981223825803173"><ele>20.0</ele><time>2026-04-01T14:34:34.999Z</time></trkpt><trkpt lat="39.226389926099415" lon="8.981397931397677"><ele>20.0</ele><time>2026-04-01T14:34:35.998Z</time></trkpt><trkpt lat="39.22645024296776" lon="8.981558732621899"><ele>20.0</ele><time>2026-04-01T14:34:36.998Z</time></trkpt><trkpt lat="39.226509414879686" lon="8.981711049388174"><ele>20.0</ele><time>2026-04-01T14:34:37.998Z</time></trkpt><trkpt lat="39.22657353479489" lon="8.98185045400104"><ele>20.0</ele><time>2026-04-01T14:34:38.998Z</time></trkpt><trkpt lat="39.22662927099777" lon="8.981975626626655"><ele>20.0</ele><time>2026-04-01T14:34:39.998Z</time></trkpt><trkpt lat="39.22668330758531" lon="8.982097470804849"><ele>20.0</ele><time>2026-04-01T14:34:40.998Z</time></trkpt><trkpt lat="39.22673213123116" lon="8.98221337399719"><ele>20.0</ele><time>2026-04-01T14:34:41.998Z</time></trkpt><trkpt lat="39.226779251152955" lon="8.982325889005084"><ele>20.0</ele><time>2026-04-01T14:34:42.998Z</time></trkpt><trkpt lat="39.2268288299092" lon="8.982450165646112"><ele>19.5</ele><time>2026-04-01T14:34:43.998Z</time></trkpt><trkpt lat="39.22688048486215" lon="8.982586943878133"><ele>19.0</ele><time>2026-04-01T14:34:44.998Z</time></trkpt><trkpt lat="39.2269400091793" lon="8.982725049299773"><ele>18.5</ele><time>2026-04-01T14:34:45.998Z</time></trkpt><trkpt lat="39.22700146461584" lon="8.982865346039633"><ele>18.0</ele><time>2026-04-01T14:34:46.998Z</time></trkpt><trkpt lat="39.22705570263112" lon="8.983016859017107"><ele>18.0</ele><time>2026-04-01T14:34:47.998Z</time></trkpt><trkpt lat="39.22713278158987" lon="8.983164617810747"><ele>18.0</ele><time>2026-04-01T14:34:48.998Z</time></trkpt><trkpt lat="39.2272034457175" lon="8.983318890913967"><ele>18.0</ele><time>2026-04-01T14:34:49.998Z</time></trkpt><trkpt lat="39.22727686407503" lon="8.983473862908609"><ele>18.0</ele><time>2026-04-01T14:34:50.998Z</time></trkpt><trkpt lat="39.227352905932804" lon="8.98363285845861"><ele>18.25</ele><time>2026-04-01T14:34:51.998Z</time></trkpt><trkpt lat="39.22743162769745" lon="8.98379007672264"><ele>18.5</ele><time>2026-04-01T14:34:52.998Z</time></trkpt><trkpt lat="39.22750911011889" lon="8.983947869247606"><ele>18.75</ele><time>2026-04-01T14:34:53.999Z</time></trkpt><trkpt lat="39.227582596126254" lon="8.984109589112691"><ele>19.0</ele><time>2026-04-01T14:34:54.999Z</time></trkpt><trkpt lat="39.22765245027156" lon="8.984262389424432"><ele>18.4</ele><time>2026-04-01T14:34:55.999Z</time></trkpt><trkpt lat="39.2277018062542" lon="8.984409102643847"><ele>17.799999999999997</ele><time>2026-04-01T14:34:56.999Z</time></trkpt><trkpt lat="39.22775836233423" lon="8.984515857584473"><ele>17.200000000000003</ele><time>2026-04-01T14:34:57.999Z</time></trkpt><trkpt lat="39.227807681928574" lon="8.984619716173537"><ele>16.6</ele><time>2026-04-01T14:34:58.999Z</time></trkpt><trkpt lat="39.227849547857" lon="8.984718968878793"><ele>16.0</ele><time>2026-04-01T14:34:59.999Z</time></trkpt><trkpt lat="39.22788998450594" lon="8.984811286923334"><ele>15.999999999999998</ele><time>2026-04-01T14:35:00.999Z</time></trkpt><trkpt lat="39.22792904712242" lon="8.984897197809632"><ele>16.0</ele><time>2026-04-01T14:35:01.999Z</time></trkpt><trkpt lat="39.22796402872457" lon="8.984980707521244"><ele>16.0</ele><time>2026-04-01T14:35:02.999Z</time></trkpt><trkpt lat="39.22799756390091" lon="8.985057677045054"><ele>16.0</ele><time>2026-04-01T14:35:03.999Z</time></trkpt><trkpt lat="39.22804169182489" lon="8.985197071256847"><ele>15.999999999999998</ele><time>2026-04-01T14:35:05.999Z</time></trkpt><trkpt lat="39.22805542266213" lon="8.985281684918636"><ele>16.0</ele><time>2026-04-01T14:35:07.999Z</time></trkpt><trkpt lat="39.228026656779676" lon="8.985361502564569"><ele>16.0</ele><time>2026-04-01T14:35:09.999Z</time></trkpt><trkpt lat="39.228044179523756" lon="8.9854435290021"><ele>15.999999999999998</ele><time>2026-04-01T14:35:11.999Z</time></trkpt><trkpt lat="39.22802792278377" lon="8.985529407422844"><ele>16.0</ele><time>2026-04-01T14:35:13.999Z</time></trkpt><trkpt lat="39.22804779536413" lon="8.985656595600624"><ele>16.0</ele><time>2026-04-01T14:35:15.999Z</time></trkpt><trkpt lat="39.228094607368476" lon="8.985711244869105"><ele>15.999999999999998</ele><time>2026-04-01T14:35:16.999Z</time></trkpt><trkpt lat="39.228154147561625" lon="8.985746524871109"><ele>16.0</ele><time>2026-04-01T14:35:17.999Z</time></trkpt><trkpt lat="39.22821965202902" lon="8.985781456184135"><ele>16.0</ele><time>2026-04-01T14:35:18.999Z</time></trkpt><trkpt lat="39.228300011399334" lon="8.985782885750172"><ele>16.0</ele><time>2026-04-01T14:35:19.999Z</time></trkpt><trkpt lat="39.22837048562187" lon="8.985766199166909"><ele>16.0</ele><time>2026-04-01T14:35:20.999Z</time></trkpt><trkpt lat="39.22840034004015" lon="8.985987276453598"><ele>16.0</ele><time>2026-04-01T14:35:21.999Z</time></trkpt><trkpt lat="39.22844907143274" lon="8.98609716694315"><ele>16.0</ele><time>2026-04-01T14:35:22.999Z</time></trkpt><trkpt lat="39.22851353600347" lon="8.986200649417"><ele>16.0</ele><time>2026-04-01T14:35:23.999Z</time></trkpt><trkpt lat="39.22856305614287" lon="8.986326161762355"><ele>16.0</ele><time>2026-04-01T14:35:24.999Z</time></trkpt><trkpt lat="39.228621246155456" lon="8.986457888135142"><ele>16.0</ele><time>2026-04-01T14:35:25.999Z</time></trkpt><trkpt lat="39.22867211704762" lon="8.986600140446967"><ele>16.0</ele><time>2026-04-01T14:35:26.999Z</time></trkpt><trkpt lat="39.2287422826047" lon="8.98672239663764"><ele>16.0</ele><time>2026-04-01T14:35:27.999Z</time></trkpt><trkpt lat="39.22879910855321" lon="8.986851426174507"><ele>15.75</ele><time>2026-04-01T14:35:28.999Z</time></trkpt><trkpt lat="39.22885725583082" lon="8.98698841333632"><ele>15.5</ele><time>2026-04-01T14:35:29.999Z</time></trkpt><trkpt lat="39.22890891048839" lon="8.987120071594388"><ele>15.25</ele><time>2026-04-01T14:35:30.999Z</time></trkpt><trkpt lat="39.228971592074416" lon="8.987249753716158"><ele>15.0</ele><time>2026-04-01T14:35:32Z</time></trkpt><trkpt lat="39.22902965897148" lon="8.987370544947028"><ele>15.0</ele><time>2026-04-01T14:35:33Z</time></trkpt><trkpt lat="39.229079498270295" lon="8.987483634451502"><ele>15.0</ele><time>2026-04-01T14:35:34Z</time></trkpt><trkpt lat="39.229130575869796" lon="8.987603179286229"><ele>15.0</ele><time>2026-04-01T14:35:35Z</time></trkpt><trkpt lat="39.229184823093206" lon="8.987732597463282"><ele>15.0</ele><time>2026-04-01T14:35:36Z</time></trkpt><trkpt lat="39.22924127844826" lon="8.98787423604602"><ele>15.0</ele><time>2026-04-01T14:35:37Z</time></trkpt><trkpt lat="39.229307967851334" lon="8.988020672655153"><ele>15.0</ele><time>2026-04-01T14:35:38Z</time></trkpt><trkpt lat="39.229376863663695" lon="8.9881763672915"><ele>15.0</ele><time>2026-04-01T14:35:39Z</time></trkpt><trkpt lat="39.229450626189454" lon="8.988339279273713"><ele>15.0</ele><time>2026-04-01T14:35:40Z</time></trkpt><trkpt lat="39.22952645171919" lon="8.988510356539372"><ele>15.0</ele><time>2026-04-01T14:35:41Z</time></trkpt><trkpt lat="39.22960249706395" lon="8.988686374616863"><ele>15.0</ele><time>2026-04-01T14:35:42Z</time></trkpt><trkpt lat="39.22967931605424" lon="8.988871127971894"><ele>15.0</ele><time>2026-04-01T14:35:43Z</time></trkpt><trkpt lat="39.229760007410576" lon="8.989055119785496"><ele>15.0</ele><time>2026-04-01T14:35:44Z</time></trkpt><trkpt lat="39.229842488744154" lon="8.989239165223744"><ele>14.333333333333332</ele><time>2026-04-01T14:35:45Z</time></trkpt><trkpt lat="39.22992647478394" lon="8.989426952712336"><ele>13.666666666666666</ele><time>2026-04-01T14:35:46Z</time></trkpt><trkpt lat="39.23000979841181" lon="8.989618372421525"><ele>13.0</ele><time>2026-04-01T14:35:47Z</time></trkpt><trkpt lat="39.23009607891537" lon="8.989813864736835"><ele>12.666666666666666</ele><time>2026-04-01T14:35:48Z</time></trkpt><trkpt lat="39.230183547664666" lon="8.990012688735465"><ele>12.333333333333332</ele><time>2026-04-01T14:35:49Z</time></trkpt><trkpt lat="39.23026409967226" lon="8.99021785293943"><ele>12.0</ele><time>2026-04-01T14:35:50Z</time></trkpt><trkpt lat="39.23035999368671" lon="8.990408787196817"><ele>12.0</ele><time>2026-04-01T14:35:51Z</time></trkpt><trkpt lat="39.23044451938946" lon="8.990606576051006"><ele>12.0</ele><time>2026-04-01T14:35:52Z</time></trkpt><trkpt lat="39.2305285445672" lon="8.990800318591115"><ele>12.0</ele><time>2026-04-01T14:35:53Z</time></trkpt><trkpt lat="39.23061772965318" lon="8.990994635542586"><ele>12.333333333333332</ele><time>2026-04-01T14:35:54Z</time></trkpt><trkpt lat="39.23071180218444" lon="8.991187693927225"><ele>12.666666666666666</ele><time>2026-04-01T14:35:55Z</time></trkpt><trkpt lat="39.23080291974079" lon="8.991388895138625"><ele>13.0</ele><time>2026-04-01T14:35:56Z</time></trkpt><trkpt lat="39.23089067035723" lon="8.991590020682409"><ele>13.333333333333332</ele><time>2026-04-01T14:35:57Z</time></trkpt><trkpt lat="39.23098028742195" lon="8.991793222747715"><ele>13.666666666666668</ele><time>2026-04-01T14:35:58Z</time></trkpt><trkpt lat="39.231069319520216" lon="8.992004015748956"><ele>14.0</ele><time>2026-04-01T14:35:59Z</time></trkpt><trkpt lat="39.231159561890294" lon="8.992217563266173"><ele>14.0</ele><time>2026-04-01T14:36:00Z</time></trkpt><trkpt lat="39.23125729639535" lon="8.992428778433457"><ele>14.0</ele><time>2026-04-01T14:36:01Z</time></trkpt><trkpt lat="39.231356804593304" lon="8.99264334871432"><ele>14.0</ele><time>2026-04-01T14:36:02Z</time></trkpt><trkpt lat="39.23145436350184" lon="8.992861289240315"><ele>13.333333333333334</ele><time>2026-04-01T14:36:03Z</time></trkpt><trkpt lat="39.23154724642875" lon="8.993071103304112"><ele>12.666666666666668</ele><time>2026-04-01T14:36:04Z</time></trkpt><trkpt lat="39.23163088563878" lon="8.993265421132874"><ele>12.0</ele><time>2026-04-01T14:36:05Z</time></trkpt><trkpt lat="39.2317088710609" lon="8.993445299748494"><ele>11.5</ele><time>2026-04-01T14:36:06Z</time></trkpt><trkpt lat="39.23178442902012" lon="8.993618077704394"><ele>11.0</ele><time>2026-04-01T14:36:07Z</time></trkpt><trkpt lat="39.23185412863249" lon="8.993774574192821"><ele>10.5</ele><time>2026-04-01T14:36:08Z</time></trkpt><trkpt lat="39.23191808815983" lon="8.99391658835401"><ele>10.0</ele><time>2026-04-01T14:36:09Z</time></trkpt><trkpt lat="39.23198146547616" lon="8.994049676549848"><ele>9.833333333333334</ele><time>2026-04-01T14:36:10Z</time></trkpt><trkpt lat="39.2320393742673" lon="8.994174351743201"><ele>9.666666666666668</ele><time>2026-04-01T14:36:11Z</time></trkpt><trkpt lat="39.232089411303036" lon="8.994287176634925"><ele>9.5</ele><time>2026-04-01T14:36:12Z</time></trkpt><trkpt lat="39.23213609278293" lon="8.994379095038944"><ele>9.333333333333334</ele><time>2026-04-01T14:36:13Z</time></trkpt><trkpt lat="39.23215725935116" lon="8.994465237509498"><ele>9.166666666666666</ele><time>2026-04-01T14:36:14Z</time></trkpt><trkpt lat="39.23219364967313" lon="8.994547760491752"><ele>9.0</ele><time>2026-04-01T14:36:16Z</time></trkpt><trkpt lat="39.23223113164142" lon="8.994632663142097"><ele>9.0</ele><time>2026-04-01T14:36:44.999Z</time></trkpt><trkpt lat="39.23227405081988" lon="8.994730637787814"><ele>9.0</ele><time>2026-04-01T14:36:47.999Z</time></trkpt><trkpt lat="39.23233937668114" lon="8.994878201766086"><ele>9.0</ele><time>2026-04-01T14:36:49.999Z</time></trkpt><trkpt lat="39.23238778750332" lon="8.994987556575932"><ele>9.0</ele><time>2026-04-01T14:36:50.999Z</time></trkpt><trkpt lat="39.232460241340405" lon="8.995110764920176"><ele>9.0</ele><time>2026-04-01T14:36:51.999Z</time></trkpt><trkpt lat="39.232527793136214" lon="8.995270915246062"><ele>9.333333333333334</ele><time>2026-04-01T14:36:52.999Z</time></trkpt><trkpt lat="39.232605366691686" lon="8.99543996750732"><ele>9.666666666666668</ele><time>2026-04-01T14:36:53.999Z</time></trkpt><trkpt lat="39.232671101814354" lon="8.995628425944865"><ele>10.0</ele><time>2026-04-01T14:36:55Z</time></trkpt><trkpt lat="39.2327494242495" lon="8.995805637686912"><ele>9.75</ele><time>2026-04-01T14:36:56Z</time></trkpt><trkpt lat="39.23282650769039" lon="8.995980046138277"><ele>9.5</ele><time>2026-04-01T14:36:57Z</time></trkpt><trkpt lat="39.232897618472194" lon="8.996140940869253"><ele>9.25</ele><time>2026-04-01T14:36:58Z</time></trkpt><trkpt lat="39.23296343139167" lon="8.996289848147322"><ele>9.0</ele><time>2026-04-01T14:36:59Z</time></trkpt><trkpt lat="39.233019962424876" lon="8.996418100435816"><ele>9.0</ele><time>2026-04-01T14:37:00Z</time></trkpt><trkpt lat="39.23306768587752" lon="8.996526290392355"><ele>9.0</ele><time>2026-04-01T14:37:01Z</time></trkpt><trkpt lat="39.23310641642799" lon="8.996614093292534"><ele>9.0</ele><time>2026-04-01T14:37:02Z</time></trkpt><trkpt lat="39.23315127076195" lon="8.996715193458016"><ele>9.0</ele><time>2026-04-01T14:37:04Z</time></trkpt><trkpt lat="39.23324372323563" lon="8.996581704339446"><ele>9.0</ele><time>2026-04-01T14:37:05Z</time></trkpt><trkpt lat="39.2333493074186" lon="8.99649186135001"><ele>8.6</ele><time>2026-04-01T14:37:07Z</time></trkpt><trkpt lat="39.23341981366567" lon="8.996438117867424"><ele>8.2</ele><time>2026-04-01T14:37:08Z</time></trkpt><trkpt lat="39.233509439180445" lon="8.996380368571046"><ele>7.799999999999999</ele><time>2026-04-01T14:37:09Z</time></trkpt><trkpt lat="39.233609105616594" lon="8.996310956305953"><ele>7.3999999999999995</ele><time>2026-04-01T14:37:10Z</time></trkpt><trkpt lat="39.233725600499795" lon="8.996216546720248"><ele>7.0</ele><time>2026-04-01T14:37:11Z</time></trkpt><trkpt lat="39.23384033938646" lon="8.996124572586973"><ele>7.333333333333334</ele><time>2026-04-01T14:37:12Z</time></trkpt><trkpt lat="39.233973842656" lon="8.99602336377867"><ele>7.666666666666666</ele><time>2026-04-01T14:37:13Z</time></trkpt><trkpt lat="39.23411412052053" lon="8.99591684481146"><ele>8.0</ele><time>2026-04-01T14:37:14Z</time></trkpt><trkpt lat="39.23426418179371" lon="8.995823093932149"><ele>8.333333333333332</ele><time>2026-04-01T14:37:15Z</time></trkpt><trkpt lat="39.23441634016386" lon="8.995720278386802"><ele>8.666666666666666</ele><time>2026-04-01T14:37:16Z</time></trkpt><trkpt lat="39.234570547900546" lon="8.995603128680761"><ele>9.0</ele><time>2026-04-01T14:37:17Z</time></trkpt><trkpt lat="39.23473095618828" lon="8.99548144430841"><ele>8.666666666666666</ele><time>2026-04-01T14:37:18Z</time></trkpt><trkpt lat="39.23489559012554" lon="8.995355993946852"><ele>8.333333333333332</ele><time>2026-04-01T14:37:19Z</time></trkpt><trkpt lat="39.23505566057344" lon="8.995237625226995"><ele>8.0</ele><time>2026-04-01T14:37:20Z</time></trkpt><trkpt lat="39.23521924085845" lon="8.995116546438176"><ele>8.0</ele><time>2026-04-01T14:37:21Z</time></trkpt><trkpt lat="39.2353850814044" lon="8.994995944898763"><ele>8.0</ele><time>2026-04-01T14:37:22Z</time></trkpt><trkpt lat="39.23555295769057" lon="8.994877489501864"><ele>8.0</ele><time>2026-04-01T14:37:23Z</time></trkpt><trkpt lat="39.23572256594982" lon="8.99475691105844"><ele>8.0</ele><time>2026-04-01T14:37:24Z</time></trkpt><trkpt lat="39.2358928389572" lon="8.994630948706119"><ele>8.0</ele><time>2026-04-01T14:37:25Z</time></trkpt><trkpt lat="39.236065034785604" lon="8.994507010658323"><ele>8.0</ele><time>2026-04-01T14:37:26Z</time></trkpt><trkpt lat="39.236239189602976" lon="8.994383981852593"><ele>8.0</ele><time>2026-04-01T14:37:27Z</time></trkpt><trkpt lat="39.23641706824902" lon="8.99426270171177"><ele>8.0</ele><time>2026-04-01T14:37:28Z</time></trkpt><trkpt lat="39.23659180026137" lon="8.994137507047624"><ele>8.0</ele><time>2026-04-01T14:37:29Z</time></trkpt><trkpt lat="39.23677154636103" lon="8.994023269636319"><ele>8.333333333333332</ele><time>2026-04-01T14:37:30Z</time></trkpt><trkpt lat="39.23696320643801" lon="8.993922292960864"><ele>8.666666666666666</ele><time>2026-04-01T14:37:31Z</time></trkpt><trkpt lat="39.23716332248538" lon="8.993846822155307"><ele>9.0</ele><time>2026-04-01T14:37:32Z</time></trkpt><trkpt lat="39.237377627498795" lon="8.993788734592348"><ele>9.0</ele><time>2026-04-01T14:37:33Z</time></trkpt><trkpt lat="39.23759671454688" lon="8.993750658111598"><ele>9.0</ele><time>2026-04-01T14:37:34Z</time></trkpt><trkpt lat="39.23781154537815" lon="8.993710518247621"><ele>9.0</ele><time>2026-04-01T14:37:35Z</time></trkpt><trkpt lat="39.23801943427884" lon="8.993664859965023"><ele>9.0</ele><time>2026-04-01T14:37:36Z</time></trkpt><trkpt lat="39.23823234967603" lon="8.993614218663417"><ele>9.0</ele><time>2026-04-01T14:37:37Z</time></trkpt><trkpt lat="39.23843949587766" lon="8.993570913063465"><ele>9.0</ele><time>2026-04-01T14:37:38Z</time></trkpt><trkpt lat="39.238635194580375" lon="8.993527237586314"><ele>9.0</ele><time>2026-04-01T14:37:39Z</time></trkpt><trkpt lat="39.23883773044786" lon="8.99348454875122"><ele>9.0</ele><time>2026-04-01T14:37:40Z</time></trkpt><trkpt lat="39.239037368216344" lon="8.99344574401348"><ele>9.0</ele><time>2026-04-01T14:37:41Z</time></trkpt><trkpt lat="39.239238566587154" lon="8.993399296929224"><ele>9.0</ele><time>2026-04-01T14:37:42Z</time></trkpt><trkpt lat="39.23944083865025" lon="8.99335529860884"><ele>9.0</ele><time>2026-04-01T14:37:43Z</time></trkpt><trkpt lat="39.23964922894784" lon="8.99331297951631"><ele>9.0</ele><time>2026-04-01T14:37:44Z</time></trkpt><trkpt lat="39.23985790764417" lon="8.993267868506596"><ele>8.333333333333334</ele><time>2026-04-01T14:37:45Z</time></trkpt><trkpt lat="39.240058231700104" lon="8.993226673571636"><ele>7.666666666666667</ele><time>2026-04-01T14:37:46Z</time></trkpt><trkpt lat="39.2402443527956" lon="8.993185842468781"><ele>7.0</ele><time>2026-04-01T14:37:47Z</time></trkpt><trkpt lat="39.24042444356429" lon="8.993149493701376"><ele>7.0</ele><time>2026-04-01T14:37:48Z</time></trkpt><trkpt lat="39.24060383949169" lon="8.993113250651742"><ele>7.0</ele><time>2026-04-01T14:37:49Z</time></trkpt><trkpt lat="39.24078214373478" lon="8.993074568237695"><ele>7.0</ele><time>2026-04-01T14:37:50Z</time></trkpt><trkpt lat="39.240953121633424" lon="8.993038714545863"><ele>6.666666666666667</ele><time>2026-04-01T14:37:51Z</time></trkpt><trkpt lat="39.24111270742806" lon="8.993008035972595"><ele>6.333333333333334</ele><time>2026-04-01T14:37:52Z</time></trkpt><trkpt lat="39.24126196673446" lon="8.992976124457705"><ele>6.0</ele><time>2026-04-01T14:37:53Z</time></trkpt><trkpt lat="39.24140031176663" lon="8.992955536408514"><ele>6.199999999999999</ele><time>2026-04-01T14:37:54Z</time></trkpt><trkpt lat="39.2415070017346" lon="8.992933501968098"><ele>6.3999999999999995</ele><time>2026-04-01T14:37:55Z</time></trkpt><trkpt lat="39.241583895982636" lon="8.992935808387507"><ele>6.6</ele><time>2026-04-01T14:37:56Z</time></trkpt><trkpt lat="39.24164431932392" lon="8.992906693664873"><ele>6.8</ele><time>2026-04-01T14:37:57.001Z</time></trkpt><trkpt lat="39.24174130078702" lon="8.993107246510808"><ele>7.0</ele><time>2026-04-01T14:37:59.001Z</time></trkpt><trkpt lat="39.2417654314722" lon="8.993205289818508"><ele>7.0</ele><time>2026-04-01T14:38:00.001Z</time></trkpt><trkpt lat="39.241754241408444" lon="8.993329285427336"><ele>7.0</ele><time>2026-04-01T14:38:01.001Z</time></trkpt><trkpt lat="39.24177192583525" lon="8.993468160209089"><ele>7.0</ele><time>2026-04-01T14:38:02.001Z</time></trkpt><trkpt lat="39.24182186645043" lon="8.993610123503005"><ele>7.0</ele><time>2026-04-01T14:38:03.001Z</time></trkpt><trkpt lat="39.24184405419166" lon="8.993770920896656"><ele>7.333333333333334</ele><time>2026-04-01T14:38:04.001Z</time></trkpt><trkpt lat="39.241867963365515" lon="8.993950662624647"><ele>7.666666666666666</ele><time>2026-04-01T14:38:05.001Z</time></trkpt><trkpt lat="39.24189569653173" lon="8.994150827207516"><ele>8.0</ele><time>2026-04-01T14:38:06.001Z</time></trkpt><trkpt lat="39.24188681074753" lon="8.994359104200111"><ele>8.0</ele><time>2026-04-01T14:38:07.001Z</time></trkpt><trkpt lat="39.24191002715097" lon="8.994539023429226"><ele>8.0</ele><time>2026-04-01T14:38:08.001Z</time></trkpt><trkpt lat="39.24193045276732" lon="8.994697312999524"><ele>8.0</ele><time>2026-04-01T14:38:09.001Z</time></trkpt><trkpt lat="39.24194802170664" lon="8.994834293966585"><ele>8.0</ele><time>2026-04-01T14:38:10.001Z</time></trkpt><trkpt lat="39.24196080390846" lon="8.994933756481213"><ele>8.0</ele><time>2026-04-01T14:38:11.001Z</time></trkpt><trkpt lat="39.24197460278559" lon="8.995041130365818"><ele>8.0</ele><time>2026-04-01T14:38:13.001Z</time></trkpt><trkpt lat="39.242142278006014" lon="8.995031215726458"><ele>8.0</ele><time>2026-04-01T14:38:16.001Z</time></trkpt><trkpt lat="39.242222762236686" lon="8.995023669835033"><ele>8.0</ele><time>2026-04-01T14:38:19.001Z</time></trkpt><trkpt lat="39.24228601881869" lon="8.995035925607787"><ele>8.0</ele><time>2026-04-01T14:42:09.001Z</time></trkpt><trkpt lat="39.24234311655455" lon="8.994989715954738"><ele>7.999999999999999</ele><time>2026-04-01T14:42:12.001Z</time></trkpt><trkpt lat="39.24228695029457" lon="8.994945719792375"><ele>8.0</ele><time>2026-04-01T14:42:15.001Z</time></trkpt><trkpt lat="39.242216629728844" lon="8.99491808475135"><ele>8.0</ele><time>2026-04-01T14:42:41.001Z</time></trkpt><trkpt lat="39.242117849119985" lon="8.994990918090977"><ele>8.0</ele><time>2026-04-01T14:42:43.001Z</time></trkpt><trkpt lat="39.24204224752524" lon="8.994997869625777"><ele>7.999999999999999</ele><time>2026-04-01T14:42:45.001Z</time></trkpt><trkpt lat="39.24197592387122" lon="8.994945184979045"><ele>8.0</ele><time>2026-04-01T14:42:48.001Z</time></trkpt><trkpt lat="39.24196688476545" lon="8.994769797892477"><ele>8.0</ele><time>2026-04-01T14:42:50.001Z</time></trkpt><trkpt lat="39.241959573554574" lon="8.994670107718836"><ele>8.0</ele><time>2026-04-01T14:42:51.001Z</time></trkpt><trkpt lat="39.24194076479528" lon="8.994546090174453"><ele>8.0</ele><time>2026-04-01T14:42:52.001Z</time></trkpt><trkpt lat="39.241931186069834" lon="8.994416012193435"><ele>8.0</ele><time>2026-04-01T14:42:53.001Z</time></trkpt><trkpt lat="39.24191473893642" lon="8.994275685692802"><ele>8.0</ele><time>2026-04-01T14:42:54.001Z</time></trkpt><trkpt lat="39.241895047568825" lon="8.994109009663644"><ele>8.0</ele><time>2026-04-01T14:42:55.001Z</time></trkpt><trkpt lat="39.24187659852886" lon="8.993933025743225"><ele>8.0</ele><time>2026-04-01T14:42:56.001Z</time></trkpt><trkpt lat="39.24186312772292" lon="8.993756381052256"><ele>8.0</ele><time>2026-04-01T14:42:57.001Z</time></trkpt><trkpt lat="39.24185083498235" lon="8.993581796777372"><ele>8.0</ele><time>2026-04-01T14:42:58.001Z</time></trkpt><trkpt lat="39.24183349334828" lon="8.993426944960309"><ele>7.833333333333333</ele><time>2026-04-01T14:42:59.001Z</time></trkpt><trkpt lat="39.24180195546558" lon="8.993289970396022"><ele>7.666666666666666</ele><time>2026-04-01T14:43:00.001Z</time></trkpt><trkpt lat="39.241784662105566" lon="8.993165032715643"><ele>7.5</ele><time>2026-04-01T14:43:01.001Z</time></trkpt><trkpt lat="39.24179874817563" lon="8.993053481301047"><ele>7.333333333333334</ele><time>2026-04-01T14:43:02.001Z</time></trkpt><trkpt lat="39.24183182597282" lon="8.992960232274248"><ele>7.166666666666667</ele><time>2026-04-01T14:43:03.001Z</time></trkpt><trkpt lat="39.24188124826591" lon="8.992897266250052"><ele>7.0</ele><time>2026-04-01T14:43:04.001Z</time></trkpt><trkpt lat="39.24195618308216" lon="8.992849591319574"><ele>7.0</ele><time>2026-04-01T14:43:05.001Z</time></trkpt><trkpt lat="39.242052607972596" lon="8.992812226583782"><ele>7.0</ele><time>2026-04-01T14:43:06.001Z</time></trkpt><trkpt lat="39.24216450617348" lon="8.992789680732356"><ele>7.0</ele><time>2026-04-01T14:43:07.001Z</time></trkpt><trkpt lat="39.2422904397287" lon="8.99276799219888"><ele>7.0</ele><time>2026-04-01T14:43:08.001Z</time></trkpt><trkpt lat="39.242429242066315" lon="8.992726631646708"><ele>6.666666666666667</ele><time>2026-04-01T14:43:09.001Z</time></trkpt><trkpt lat="39.24258315498737" lon="8.992694215768635"><ele>6.333333333333334</ele><time>2026-04-01T14:43:10.001Z</time></trkpt><trkpt lat="39.24274351888269" lon="8.992659075346882"><ele>6.0</ele><time>2026-04-01T14:43:11.001Z</time></trkpt><trkpt lat="39.24291810314534" lon="8.992623577372294"><ele>6.0</ele><time>2026-04-01T14:43:12.001Z</time></trkpt><trkpt lat="39.24308419412002" lon="8.992584018462782"><ele>6.0</ele><time>2026-04-01T14:43:13.001Z</time></trkpt><trkpt lat="39.24325326241846" lon="8.992554243962072"><ele>6.0</ele><time>2026-04-01T14:43:14.001Z</time></trkpt><trkpt lat="39.24342253625936" lon="8.992520801549789"><ele>6.333333333333334</ele><time>2026-04-01T14:43:15.001Z</time></trkpt><trkpt lat="39.24359030680196" lon="8.992485314221653"><ele>6.666666666666667</ele><time>2026-04-01T14:43:16.001Z</time></trkpt><trkpt lat="39.24376048356103" lon="8.99244613448893"><ele>7.0</ele><time>2026-04-01T14:43:17.001Z</time></trkpt><trkpt lat="39.243929958101575" lon="8.992413172396878"><ele>7.0</ele><time>2026-04-01T14:43:18.001Z</time></trkpt><trkpt lat="39.2441009724439" lon="8.992378800369606"><ele>7.0</ele><time>2026-04-01T14:43:19.001Z</time></trkpt><trkpt lat="39.24427618257178" lon="8.9923488096335"><ele>7.0</ele><time>2026-04-01T14:43:20.001Z</time></trkpt><trkpt lat="39.244456857365456" lon="8.992316828512708"><ele>7.0</ele><time>2026-04-01T14:43:21.001Z</time></trkpt><trkpt lat="39.24463766410139" lon="8.992280184643562"><ele>7.0</ele><time>2026-04-01T14:43:22.001Z</time></trkpt><trkpt lat="39.24482028691087" lon="8.992240327026627"><ele>7.0</ele><time>2026-04-01T14:43:23.001Z</time></trkpt><trkpt lat="39.24500383140554" lon="8.992206150688778"><ele>6.666666666666667</ele><time>2026-04-01T14:43:24.001Z</time></trkpt><trkpt lat="39.24518629900109" lon="8.992163380802266"><ele>6.333333333333334</ele><time>2026-04-01T14:43:25.001Z</time></trkpt><trkpt lat="39.2453688934874" lon="8.992116449794304"><ele>6.0</ele><time>2026-04-01T14:43:26.001Z</time></trkpt><trkpt lat="39.245553716342876" lon="8.992068558118905"><ele>6.0</ele><time>2026-04-01T14:43:27.001Z</time></trkpt><trkpt lat="39.24573960197975" lon="8.992023234474816"><ele>6.0</ele><time>2026-04-01T14:43:28.001Z</time></trkpt><trkpt lat="39.2459269337438" lon="8.991985376288065"><ele>6.0</ele><time>2026-04-01T14:43:29.001Z</time></trkpt><trkpt lat="39.246111781480145" lon="8.9919531127668"><ele>6.0</ele><time>2026-04-01T14:43:30.001Z</time></trkpt><trkpt lat="39.24629883164062" lon="8.991921152539714"><ele>6.0</ele><time>2026-04-01T14:43:31.001Z</time></trkpt><trkpt lat="39.2464874223299" lon="8.991880823987612"><ele>6.0</ele><time>2026-04-01T14:43:32.001Z</time></trkpt><trkpt lat="39.24667322503311" lon="8.991834147886385"><ele>6.333333333333334</ele><time>2026-04-01T14:43:33.001Z</time></trkpt><trkpt lat="39.24685441659563" lon="8.991792118035539"><ele>6.666666666666667</ele><time>2026-04-01T14:43:34.001Z</time></trkpt><trkpt lat="39.24703890617327" lon="8.991749317452008"><ele>7.0</ele><time>2026-04-01T14:43:35.001Z</time></trkpt><trkpt lat="39.24722106146352" lon="8.991709718811384"><ele>7.0</ele><time>2026-04-01T14:43:36.001Z</time></trkpt><trkpt lat="39.247403124835245" lon="8.991673123800402"><ele>7.0</ele><time>2026-04-01T14:43:37.001Z</time></trkpt><trkpt lat="39.24758393877935" lon="8.9916316943964"><ele>7.0</ele><time>2026-04-01T14:43:38.001Z</time></trkpt><trkpt lat="39.24776489051608" lon="8.991593144662016"><ele>7.0</ele><time>2026-04-01T14:43:39.001Z</time></trkpt><trkpt lat="39.24794026087104" lon="8.99155902524686"><ele>7.0</ele><time>2026-04-01T14:43:40.001Z</time></trkpt><trkpt lat="39.24810425538367" lon="8.99152576267603"><ele>7.0</ele><time>2026-04-01T14:43:41.001Z</time></trkpt><trkpt lat="39.24826638906066" lon="8.991497279291254"><ele>7.0</ele><time>2026-04-01T14:43:42.001Z</time></trkpt><trkpt lat="39.24842533590745" lon="8.99147571439402"><ele>7.0</ele><time>2026-04-01T14:43:43.001Z</time></trkpt><trkpt lat="39.2485646879776" lon="8.991442616329797"><ele>7.0</ele><time>2026-04-01T14:43:44.001Z</time></trkpt><trkpt lat="39.24869388275229" lon="8.991397025954397"><ele>7.0</ele><time>2026-04-01T14:43:45.001Z</time></trkpt><trkpt lat="39.248807843707105" lon="8.991388614816843"><ele>7.0</ele><time>2026-04-01T14:43:46.001Z</time></trkpt><trkpt lat="39.24889955808531" lon="8.991369147442958"><ele>7.0</ele><time>2026-04-01T14:43:47.001Z</time></trkpt><trkpt lat="39.24897099348319" lon="8.99135550207403"><ele>7.0</ele><time>2026-04-01T14:43:48.001Z</time></trkpt><trkpt lat="39.24904419734392" lon="8.991683888768634"><ele>7.0</ele><time>2026-04-01T14:43:50.001Z</time></trkpt><trkpt lat="39.249063786801365" lon="8.99183599341536"><ele>7.0</ele><time>2026-04-01T14:43:51.001Z</time></trkpt><trkpt lat="39.24908491820297" lon="8.992000068024485"><ele>7.0</ele><time>2026-04-01T14:43:52.001Z</time></trkpt><trkpt lat="39.249108930593785" lon="8.992186512504174"><ele>7.0</ele><time>2026-04-01T14:43:53.001Z</time></trkpt><trkpt lat="39.24913471199859" lon="8.992386692149536"><ele>7.0</ele><time>2026-04-01T14:43:54.001Z</time></trkpt><trkpt lat="39.24916188549674" lon="8.992597680633564"><ele>6.333333333333334</ele><time>2026-04-01T14:43:55.001Z</time></trkpt><trkpt lat="39.2491898117157" lon="8.992814513941202"><ele>5.666666666666667</ele><time>2026-04-01T14:43:56.001Z</time></trkpt><trkpt lat="39.24922027889948" lon="8.993051076237853"><ele>5.0</ele><time>2026-04-01T14:43:57.001Z</time></trkpt><trkpt lat="39.24926683824262" lon="8.993289423222711"><ele>4.666666666666667</ele><time>2026-04-01T14:43:58.001Z</time></trkpt><trkpt lat="39.24929762961088" lon="8.993540446023847"><ele>4.333333333333333</ele><time>2026-04-01T14:43:59.001Z</time></trkpt><trkpt lat="39.249318463345254" lon="8.993810121064286"><ele>4.0</ele><time>2026-04-01T14:44:00.001Z</time></trkpt><trkpt lat="39.24935615997085" lon="8.994100870990145"><ele>5.0</ele><time>2026-04-01T14:44:01.001Z</time></trkpt><trkpt lat="39.249396603088776" lon="8.99441327895785"><ele>6.0</ele><time>2026-04-01T14:44:02.001Z</time></trkpt><trkpt lat="39.24943735784415" lon="8.994728600437917"><ele>5.666666666666667</ele><time>2026-04-01T14:44:03.001Z</time></trkpt><trkpt lat="39.24948619765247" lon="8.995011523666772"><ele>5.333333333333334</ele><time>2026-04-01T14:44:04.001Z</time></trkpt><trkpt lat="39.24951954785476" lon="8.995285929197703"><ele>5.0</ele><time>2026-04-01T14:44:05.001Z</time></trkpt><trkpt lat="39.249558078796355" lon="8.995552144988237"><ele>5.0</ele><time>2026-04-01T14:44:06.001Z</time></trkpt><trkpt lat="39.24957769801611" lon="8.995814420357318"><ele>5.0</ele><time>2026-04-01T14:44:07.001Z</time></trkpt><trkpt lat="39.249609538878865" lon="8.99606077468343"><ele>5.0</ele><time>2026-04-01T14:44:08.001Z</time></trkpt><trkpt lat="39.24963917788917" lon="8.996294007096768"><ele>5.0</ele><time>2026-04-01T14:44:09.001Z</time></trkpt><trkpt lat="39.24966612938783" lon="8.99650955397942"><ele>5.0</ele><time>2026-04-01T14:44:10.001Z</time></trkpt><trkpt lat="39.24969061220829" lon="8.99670535723952"><ele>5.0</ele><time>2026-04-01T14:44:11.001Z</time></trkpt><trkpt lat="39.249712562558784" lon="8.996880906415177"><ele>5.2</ele><time>2026-04-01T14:44:12.001Z</time></trkpt><trkpt lat="39.2497324200259" lon="8.997039718089225"><ele>5.4</ele><time>2026-04-01T14:44:13.001Z</time></trkpt><trkpt lat="39.24975017038459" lon="8.997183254660694"><ele>5.6</ele><time>2026-04-01T14:44:14.001Z</time></trkpt><trkpt lat="39.24976549542641" lon="8.997315729827934"><ele>5.8</ele><time>2026-04-01T14:44:15.001Z</time></trkpt><trkpt lat="39.24978042017761" lon="8.997429042590946"><ele>6.0</ele><time>2026-04-01T14:44:16.001Z</time></trkpt><trkpt lat="39.24979798090199" lon="8.997519710014233"><ele>5.3999999999999995</ele><time>2026-04-01T14:44:17.001Z</time></trkpt><trkpt lat="39.24982469435491" lon="8.997626656155669"><ele>4.8</ele><time>2026-04-01T14:44:19.001Z</time></trkpt><trkpt lat="39.24985806674272" lon="8.997715861613546"><ele>4.199999999999999</ele><time>2026-04-01T14:44:31.001Z</time></trkpt><trkpt lat="39.25000114135036" lon="8.997663240907318"><ele>3.5999999999999996</ele><time>2026-04-01T14:44:32.001Z</time></trkpt><trkpt lat="39.250055481712465" lon="8.997605038091423"><ele>3.0</ele><time>2026-04-01T14:44:33.001Z</time></trkpt><trkpt lat="39.250110314549154" lon="8.997542899087268"><ele>3.25</ele><time>2026-04-01T14:44:34.001Z</time></trkpt><trkpt lat="39.25018575167615" lon="8.99748163992609"><ele>3.5</ele><time>2026-04-01T14:44:35.001Z</time></trkpt><trkpt lat="39.250275480392084" lon="8.997400413650293"><ele>3.75</ele><time>2026-04-01T14:44:36.001Z</time></trkpt><trkpt lat="39.250374703707905" lon="8.99730026989599"><ele>4.0</ele><time>2026-04-01T14:44:37.001Z</time></trkpt><trkpt lat="39.25048081832812" lon="8.997207175838488"><ele>4.0</ele><time>2026-04-01T14:44:38.001Z</time></trkpt><trkpt lat="39.25060583061288" lon="8.997111594808882"><ele>4.0</ele><time>2026-04-01T14:44:39.001Z</time></trkpt><trkpt lat="39.2507533010851" lon="8.996997972169664"><ele>4.0</ele><time>2026-04-01T14:44:40.001Z</time></trkpt><trkpt lat="39.25090846691339" lon="8.996859156631936"><ele>4.0</ele><time>2026-04-01T14:44:41.001Z</time></trkpt><trkpt lat="39.251052474695356" lon="8.996729507251555"><ele>4.0</ele><time>2026-04-01T14:44:42.001Z</time></trkpt><trkpt lat="39.251193671238" lon="8.996606903890237"><ele>4.0</ele><time>2026-04-01T14:44:43.001Z</time></trkpt><trkpt lat="39.25134004105389" lon="8.996480064190129"><ele>4.0</ele><time>2026-04-01T14:44:44.001Z</time></trkpt><trkpt lat="39.25148612419818" lon="8.996359722195074"><ele>4.0</ele><time>2026-04-01T14:44:45.001Z</time></trkpt><trkpt lat="39.251633081344174" lon="8.996241603716934"><ele>4.0</ele><time>2026-04-01T14:44:46.001Z</time></trkpt><trkpt lat="39.25179082591099" lon="8.99611697115364"><ele>4.0</ele><time>2026-04-01T14:44:47.001Z</time></trkpt><trkpt lat="39.251950723556064" lon="8.995984979571828"><ele>4.0</ele><time>2026-04-01T14:44:48.001Z</time></trkpt><trkpt lat="39.252114454770116" lon="8.995845833188422"><ele>4.0</ele><time>2026-04-01T14:44:49.001Z</time></trkpt><trkpt lat="39.25228458714205" lon="8.995703529343372"><ele>3.6666666666666665</ele><time>2026-04-01T14:44:50.001Z</time></trkpt><trkpt lat="39.252458649633176" lon="8.995553453296317"><ele>3.333333333333333</ele><time>2026-04-01T14:44:51.001Z</time></trkpt><trkpt lat="39.25263801576984" lon="8.995403375760516"><ele>3.0</ele><time>2026-04-01T14:44:52.001Z</time></trkpt><trkpt lat="39.25282185880614" lon="8.995246801096966"><ele>3.0</ele><time>2026-04-01T14:44:53.001Z</time></trkpt><trkpt lat="39.253004936452335" lon="8.99509026131384"><ele>3.0</ele><time>2026-04-01T14:44:54.001Z</time></trkpt><trkpt lat="39.25317250081234" lon="8.994941928367801"><ele>3.0</ele><time>2026-04-01T14:44:55.001Z</time></trkpt><trkpt lat="39.25333414806917" lon="8.994801748306132"><ele>3.666666666666667</ele><time>2026-04-01T14:44:56.001Z</time></trkpt><trkpt lat="39.253492927228706" lon="8.994664300287683"><ele>4.333333333333334</ele><time>2026-04-01T14:44:57.001Z</time></trkpt><trkpt lat="39.25365310311113" lon="8.994532613858386"><ele>5.0</ele><time>2026-04-01T14:44:58.001Z</time></trkpt><trkpt lat="39.253817337403994" lon="8.99440020679461"><ele>4.666666666666667</ele><time>2026-04-01T14:44:59.001Z</time></trkpt><trkpt lat="39.253980902858586" lon="8.994264403706934"><ele>4.333333333333333</ele><time>2026-04-01T14:45:00.001Z</time></trkpt><trkpt lat="39.25414591993656" lon="8.994121680341655"><ele>4.0</ele><time>2026-04-01T14:45:01.001Z</time></trkpt><trkpt lat="39.25431324618197" lon="8.99398030999556"><ele>4.0</ele><time>2026-04-01T14:45:02.001Z</time></trkpt><trkpt lat="39.25448411973692" lon="8.993837705044358"><ele>4.0</ele><time>2026-04-01T14:45:03.001Z</time></trkpt><trkpt lat="39.25465798332649" lon="8.993693282204585"><ele>4.0</ele><time>2026-04-01T14:45:04.001Z</time></trkpt><trkpt lat="39.25483489482928" lon="8.993542862187473"><ele>4.333333333333333</ele><time>2026-04-01T14:45:05.001Z</time></trkpt><trkpt lat="39.255012156260335" lon="8.993393666418239"><ele>4.666666666666667</ele><time>2026-04-01T14:45:06.001Z</time></trkpt><trkpt lat="39.25518784526381" lon="8.993242634025911"><ele>5.0</ele><time>2026-04-01T14:45:07.001Z</time></trkpt><trkpt lat="39.255361935162135" lon="8.993093047350376"><ele>5.0</ele><time>2026-04-01T14:45:08.001Z</time></trkpt><trkpt lat="39.25553634094471" lon="8.99294341091221"><ele>5.0</ele><time>2026-04-01T14:45:09.001Z</time></trkpt><trkpt lat="39.255714469646236" lon="8.992799758642581"><ele>5.0</ele><time>2026-04-01T14:45:10.001Z</time></trkpt><trkpt lat="39.25589469582337" lon="8.992655202007182"><ele>4.0</ele><time>2026-04-01T14:45:11.001Z</time></trkpt><trkpt lat="39.25607347632197" lon="8.992510049264393"><ele>3.0</ele><time>2026-04-01T14:45:12.001Z</time></trkpt><trkpt lat="39.256249280551955" lon="8.992362449066631"><ele>2.0</ele><time>2026-04-01T14:45:13.001Z</time></trkpt><trkpt lat="39.25642397522306" lon="8.992214462978122"><ele>1.6666666666666665</ele><time>2026-04-01T14:45:14.001Z</time></trkpt><trkpt lat="39.25659920996687" lon="8.992063896733592"><ele>1.3333333333333333</ele><time>2026-04-01T14:45:15.001Z</time></trkpt><trkpt lat="39.25677351170755" lon="8.991911235791333"><ele>1.0</ele><time>2026-04-01T14:45:16.001Z</time></trkpt><trkpt lat="39.256947770765834" lon="8.991761443425666"><ele>2.0</ele><time>2026-04-01T14:45:17.001Z</time></trkpt><trkpt lat="39.257122563033974" lon="8.991612117034567"><ele>3.0</ele><time>2026-04-01T14:45:18.001Z</time></trkpt><trkpt lat="39.25730851054336" lon="8.991454359451224"><ele>4.0</ele><time>2026-04-01T14:45:19.001Z</time></trkpt><trkpt lat="39.25748926207966" lon="8.99129928959964"><ele>4.0</ele><time>2026-04-01T14:45:20.001Z</time></trkpt><trkpt lat="39.25766636747767" lon="8.991155029263327"><ele>4.0</ele><time>2026-04-01T14:45:21.001Z</time></trkpt><trkpt lat="39.2578397503307" lon="8.991013252678693"><ele>4.0</ele><time>2026-04-01T14:45:22.001Z</time></trkpt><trkpt lat="39.25800258890296" lon="8.990877204333358"><ele>3.333333333333333</ele><time>2026-04-01T14:45:23.001Z</time></trkpt><trkpt lat="39.2581586487037" lon="8.990752067384088"><ele>2.6666666666666665</ele><time>2026-04-01T14:45:24.001Z</time></trkpt><trkpt lat="39.25831683539673" lon="8.990644752185732"><ele>2.0</ele><time>2026-04-01T14:45:25.001Z</time></trkpt><trkpt lat="39.25847119950058" lon="8.990585934604063"><ele>2.0</ele><time>2026-04-01T14:45:26.001Z</time></trkpt><trkpt lat="39.25862614589146" lon="8.990573545805509"><ele>2.0</ele><time>2026-04-01T14:45:27.001Z</time></trkpt><trkpt lat="39.2587719869387" lon="8.990631506344887"><ele>2.0</ele><time>2026-04-01T14:45:28.001Z</time></trkpt><trkpt lat="39.25891717169695" lon="8.990700652287961"><ele>2.0</ele><time>2026-04-01T14:45:29.001Z</time></trkpt><trkpt lat="39.259074752991246" lon="8.990774618272171"><ele>2.0</ele><time>2026-04-01T14:45:30.001Z</time></trkpt><trkpt lat="39.25923871869277" lon="8.99086597185638"><ele>2.0</ele><time>2026-04-01T14:45:31.001Z</time></trkpt><trkpt lat="39.25941473989907" lon="8.9909545565947"><ele>2.0</ele><time>2026-04-01T14:45:32.001Z</time></trkpt><trkpt lat="39.25958984536217" lon="8.991038532463135"><ele>2.0</ele><time>2026-04-01T14:45:33.001Z</time></trkpt><trkpt lat="39.25977165833556" lon="8.991126541822029"><ele>2.0</ele><time>2026-04-01T14:45:34.001Z</time></trkpt><trkpt lat="39.25993936980004" lon="8.991219995440437"><ele>2.0</ele><time>2026-04-01T14:45:35.001Z</time></trkpt><trkpt lat="39.260109646846175" lon="8.991301987472657"><ele>2.0</ele><time>2026-04-01T14:45:36Z</time></trkpt><trkpt lat="39.26026886287731" lon="8.99138473539438"><ele>2.0</ele><time>2026-04-01T14:45:37Z</time></trkpt><trkpt lat="39.260421736231535" lon="8.991463100101303"><ele>2.0</ele><time>2026-04-01T14:45:38Z</time></trkpt><trkpt lat="39.26056743933629" lon="8.991531898045467"><ele>2.0</ele><time>2026-04-01T14:45:39Z</time></trkpt><trkpt lat="39.26071325143257" lon="8.991561839308742"><ele>2.0</ele><time>2026-04-01T14:45:40Z</time></trkpt><trkpt lat="39.26086194310471" lon="8.99152736373626"><ele>1.0</ele><time>2026-04-01T14:45:41Z</time></trkpt><trkpt lat="39.261010769623326" lon="8.991450477873027"><ele>0.0</ele><time>2026-04-01T14:45:42Z</time></trkpt><trkpt lat="39.26116129691034" lon="8.991368952360583"><ele>-1.0</ele><time>2026-04-01T14:45:43Z</time></trkpt><trkpt lat="39.26132070998468" lon="8.991296640014525"><ele>-1.3333333333333333</ele><time>2026-04-01T14:45:44Z</time></trkpt><trkpt lat="39.26148255385802" lon="8.99122745237201"><ele>-1.6666666666666665</ele><time>2026-04-01T14:45:45Z</time></trkpt><trkpt lat="39.26165019926743" lon="8.991175665758576"><ele>-2.0</ele><time>2026-04-01T14:45:46Z</time></trkpt><trkpt lat="39.2618249851177" lon="8.991140336917562"><ele>-2.0</ele><time>2026-04-01T14:45:47Z</time></trkpt><trkpt lat="39.26200770050273" lon="8.9911192997369"><ele>-2.0</ele><time>2026-04-01T14:45:48Z</time></trkpt><trkpt lat="39.26219477615865" lon="8.991131816131642"><ele>-2.0</ele><time>2026-04-01T14:45:49Z</time></trkpt><trkpt lat="39.2623867347128" lon="8.991160056664594"><ele>-1.3333333333333333</ele><time>2026-04-01T14:45:50Z</time></trkpt><trkpt lat="39.26257827796155" lon="8.991180114930074"><ele>-0.6666666666666666</ele><time>2026-04-01T14:45:51Z</time></trkpt><trkpt lat="39.26276417696291" lon="8.991196031247586"><ele>0.0</ele><time>2026-04-01T14:45:52Z</time></trkpt><trkpt lat="39.26294913375768" lon="8.99121251690161"><ele>-0.3333333333333333</ele><time>2026-04-01T14:45:53Z</time></trkpt><trkpt lat="39.26313125621555" lon="8.991230422292464"><ele>-0.6666666666666666</ele><time>2026-04-01T14:45:54Z</time></trkpt><trkpt lat="39.2633130691708" lon="8.991244117727698"><ele>-1.0</ele><time>2026-04-01T14:45:55Z</time></trkpt><trkpt lat="39.26349189820505" lon="8.991257105166246"><ele>-1.0</ele><time>2026-04-01T14:45:56Z</time></trkpt><trkpt lat="39.26367265185565" lon="8.991275273063831"><ele>-1.0</ele><time>2026-04-01T14:45:57Z</time></trkpt><trkpt lat="39.263855016022845" lon="8.991294792534198"><ele>-1.0</ele><time>2026-04-01T14:45:58Z</time></trkpt><trkpt lat="39.26404175535814" lon="8.991316554925803"><ele>-0.6666666666666666</ele><time>2026-04-01T14:45:59Z</time></trkpt><trkpt lat="39.26422970435508" lon="8.99133145478183"><ele>-0.3333333333333333</ele><time>2026-04-01T14:46:00Z</time></trkpt><trkpt lat="39.264421293231706" lon="8.991347405045495"><ele>0.0</ele><time>2026-04-01T14:46:01Z</time></trkpt><trkpt lat="39.26461235826426" lon="8.991361857511345"><ele>0.6666666666666666</ele><time>2026-04-01T14:46:02Z</time></trkpt><trkpt lat="39.26480364129715" lon="8.991383752787842"><ele>1.3333333333333333</ele><time>2026-04-01T14:46:03Z</time></trkpt><trkpt lat="39.264993763926235" lon="8.991399834334217"><ele>2.0</ele><time>2026-04-01T14:46:04Z</time></trkpt><trkpt lat="39.26518177425816" lon="8.9914139324286"><ele>2.0</ele><time>2026-04-01T14:46:05Z</time></trkpt><trkpt lat="39.26537247673282" lon="8.99142784036256"><ele>2.0</ele><time>2026-04-01T14:46:06Z</time></trkpt><trkpt lat="39.26556109032803" lon="8.991444704243724"><ele>2.0</ele><time>2026-04-01T14:46:07Z</time></trkpt><trkpt lat="39.265752899196116" lon="8.991459879539066"><ele>2.0</ele><time>2026-04-01T14:46:08Z</time></trkpt><trkpt lat="39.265945355640675" lon="8.991479411219577"><ele>2.0</ele><time>2026-04-01T14:46:09Z</time></trkpt><trkpt lat="39.26613825317526" lon="8.991492577282735"><ele>2.0</ele><time>2026-04-01T14:46:10Z</time></trkpt><trkpt lat="39.26633331883681" lon="8.991513317587378"><ele>1.6666666666666665</ele><time>2026-04-01T14:46:11Z</time></trkpt><trkpt lat="39.26652789423352" lon="8.991527644394965"><ele>1.3333333333333333</ele><time>2026-04-01T14:46:12Z</time></trkpt><trkpt lat="39.266722621184755" lon="8.991542401233836"><ele>1.0</ele><time>2026-04-01T14:46:13Z</time></trkpt><trkpt lat="39.266916420977026" lon="8.991557113790337"><ele>1.0</ele><time>2026-04-01T14:46:14Z</time></trkpt><trkpt lat="39.267111541100626" lon="8.991575636518576"><ele>1.0</ele><time>2026-04-01T14:46:15Z</time></trkpt><trkpt lat="39.26730444430855" lon="8.991593985191825"><ele>1.0</ele><time>2026-04-01T14:46:16Z</time></trkpt><trkpt lat="39.26749751638508" lon="8.991608211990874"><ele>0.6666666666666666</ele><time>2026-04-01T14:46:17Z</time></trkpt><trkpt lat="39.26769053761963" lon="8.9916239999455"><ele>0.3333333333333333</ele><time>2026-04-01T14:46:18Z</time></trkpt><trkpt lat="39.267882095232466" lon="8.991645781961369"><ele>0.0</ele><time>2026-04-01T14:46:19Z</time></trkpt><trkpt lat="39.268072664526244" lon="8.991662077562728"><ele>-0.3333333333333333</ele><time>2026-04-01T14:46:20Z</time></trkpt><trkpt lat="39.268260688611626" lon="8.99167202747292"><ele>-0.6666666666666666</ele><time>2026-04-01T14:46:21Z</time></trkpt><trkpt lat="39.26844692914317" lon="8.99168474070849"><ele>-1.0</ele><time>2026-04-01T14:46:22Z</time></trkpt><trkpt lat="39.26863556092037" lon="8.991705785560798"><ele>-1.0</ele><time>2026-04-01T14:46:23Z</time></trkpt><trkpt lat="39.2688248153562" lon="8.99172328547544"><ele>-1.0</ele><time>2026-04-01T14:46:24Z</time></trkpt><trkpt lat="39.2690132217224" lon="8.991746523835971"><ele>-1.0</ele><time>2026-04-01T14:46:25Z</time></trkpt><trkpt lat="39.269199576606034" lon="8.991778818571776"><ele>-1.0</ele><time>2026-04-01T14:46:26Z</time></trkpt><trkpt lat="39.269379730290304" lon="8.991846980016241"><ele>-1.0</ele><time>2026-04-01T14:46:27Z</time></trkpt><trkpt lat="39.26956010286602" lon="8.991926049346874"><ele>-1.0</ele><time>2026-04-01T14:46:28Z</time></trkpt><trkpt lat="39.269741321287334" lon="8.992006701185563"><ele>-1.0</ele><time>2026-04-01T14:46:29Z</time></trkpt><trkpt lat="39.26992487910498" lon="8.99208875574679"><ele>-1.0</ele><time>2026-04-01T14:46:30Z</time></trkpt><trkpt lat="39.270106977479095" lon="8.992169390876015"><ele>-1.0</ele><time>2026-04-01T14:46:31Z</time></trkpt><trkpt lat="39.27028834287554" lon="8.992251850513323"><ele>-1.0</ele><time>2026-04-01T14:46:32Z</time></trkpt><trkpt lat="39.27046609285835" lon="8.992337498282678"><ele>-1.0</ele><time>2026-04-01T14:46:33Z</time></trkpt><trkpt lat="39.27063280941405" lon="8.992408803088454"><ele>-1.0</ele><time>2026-04-01T14:46:34Z</time></trkpt><trkpt lat="39.2707899810004" lon="8.992465638673185"><ele>-0.75</ele><time>2026-04-01T14:46:35Z</time></trkpt><trkpt lat="39.27094424168931" lon="8.992507753209532"><ele>-0.5</ele><time>2026-04-01T14:46:36Z</time></trkpt><trkpt lat="39.2710844752578" lon="8.992511164636278"><ele>-0.25</ele><time>2026-04-01T14:46:37Z</time></trkpt><trkpt lat="39.27121685215215" lon="8.992464559884645"><ele>0.0</ele><time>2026-04-01T14:46:38Z</time></trkpt><trkpt lat="39.27132710547672" lon="8.99237986987172"><ele>0.0</ele><time>2026-04-01T14:46:39Z</time></trkpt><trkpt lat="39.27140705366533" lon="8.992268084560552"><ele>0.0</ele><time>2026-04-01T14:46:40Z</time></trkpt><trkpt lat="39.27146572895688" lon="8.992166234292668"><ele>0.0</ele><time>2026-04-01T14:46:41Z</time></trkpt><trkpt lat="39.27152335789053" lon="8.99208955290629"><ele>0.0</ele><time>2026-04-01T14:46:42Z</time></trkpt><trkpt lat="39.27157699005335" lon="8.99202758779243"><ele>0.0</ele><time>2026-04-01T14:46:43Z</time></trkpt><trkpt lat="39.27164941265111" lon="8.991936090126044"><ele>0.0</ele><time>2026-04-01T14:46:45Z</time></trkpt><trkpt lat="39.271515724201564" lon="8.99169286410764"><ele>0.0</ele><time>2026-04-01T14:46:46Z</time></trkpt><trkpt lat="39.2715025620127" lon="8.99156142233532"><ele>0.0</ele><time>2026-04-01T14:46:47Z</time></trkpt><trkpt lat="39.27144882030659" lon="8.991430431674578"><ele>0.0</ele><time>2026-04-01T14:46:48Z</time></trkpt><trkpt lat="39.271368435533574" lon="8.99130668486784"><ele>-0.25</ele><time>2026-04-01T14:46:49Z</time></trkpt><trkpt lat="39.27126415398332" lon="8.99121125460182"><ele>-0.5</ele><time>2026-04-01T14:46:50Z</time></trkpt><trkpt lat="39.27114966588197" lon="8.991133944425934"><ele>-0.75</ele><time>2026-04-01T14:46:51Z</time></trkpt><trkpt lat="39.27101249734282" lon="8.99105650271582"><ele>-1.0</ele><time>2026-04-01T14:46:52Z</time></trkpt><trkpt lat="39.27087757381749" lon="8.990961877204324"><ele>-1.3333333333333333</ele><time>2026-04-01T14:46:53Z</time></trkpt><trkpt lat="39.27077067750829" lon="8.990814859470925"><ele>-1.6666666666666665</ele><time>2026-04-01T14:46:54Z</time></trkpt><trkpt lat="39.270691590416874" lon="8.990641661207764"><ele>-2.0</ele><time>2026-04-01T14:46:55Z</time></trkpt><trkpt lat="39.270645779438595" lon="8.990465483750405"><ele>-1.75</ele><time>2026-04-01T14:46:56Z</time></trkpt><trkpt lat="39.2705905531697" lon="8.990312395866088"><ele>-1.5</ele><time>2026-04-01T14:46:57Z</time></trkpt><trkpt lat="39.2706035943913" lon="8.990125801376525"><ele>-1.25</ele><time>2026-04-01T14:46:58Z</time></trkpt><trkpt lat="39.270647883045115" lon="8.989945406529623"><ele>-1.0</ele><time>2026-04-01T14:46:59Z</time></trkpt><trkpt lat="39.270731528731865" lon="8.989789865726229"><ele>-1.0</ele><time>2026-04-01T14:47:00Z</time></trkpt><trkpt lat="39.27082952267677" lon="8.989659402403065"><ele>-1.0</ele><time>2026-04-01T14:47:01Z</time></trkpt><trkpt lat="39.27093080043103" lon="8.989557962372192"><ele>-1.0</ele><time>2026-04-01T14:47:02Z</time></trkpt><trkpt lat="39.27104162489802" lon="8.98948785846352"><ele>-1.0</ele><time>2026-04-01T14:47:03Z</time></trkpt><trkpt lat="39.27115299239096" lon="8.989450935204772"><ele>-1.0</ele><time>2026-04-01T14:47:04Z</time></trkpt><trkpt lat="39.27127516494659" lon="8.989425388673117"><ele>-1.0</ele><time>2026-04-01T14:47:05Z</time></trkpt><trkpt lat="39.271398973589704" lon="8.989443808209266"><ele>-1.0</ele><time>2026-04-01T14:47:06Z</time></trkpt><trkpt lat="39.27151634204854" lon="8.989508130416722"><ele>-1.0</ele><time>2026-04-01T14:47:07Z</time></trkpt><trkpt lat="39.27163139697469" lon="8.989579467086086"><ele>-0.5</ele><time>2026-04-01T14:47:08Z</time></trkpt><trkpt lat="39.2717369919991" lon="8.989683415525663"><ele>0.0</ele><time>2026-04-01T14:47:09Z</time></trkpt><trkpt lat="39.27181999822227" lon="8.989813782740958"><ele>0.5</ele><time>2026-04-01T14:47:10Z</time></trkpt><trkpt lat="39.27189470062487" lon="8.989963866833405"><ele>1.0</ele><time>2026-04-01T14:47:11Z</time></trkpt><trkpt lat="39.27197582939183" lon="8.990118143667448"><ele>1.0</ele><time>2026-04-01T14:47:12.001Z</time></trkpt><trkpt lat="39.272020540215465" lon="8.99022791096262"><ele>1.0</ele><time>2026-04-01T14:47:13.001Z</time></trkpt><trkpt lat="39.27200851412535" lon="8.990375661620583"><ele>1.0</ele><time>2026-04-01T14:47:15.001Z</time></trkpt><trkpt lat="39.272020122095" lon="8.990467308621103"><ele>1.0</ele><time>2026-04-01T14:47:16.001Z</time></trkpt><trkpt lat="39.272035758859424" lon="8.99059078505521"><ele>1.0</ele><time>2026-04-01T14:47:17.001Z</time></trkpt><trkpt lat="39.27205407162374" lon="8.990736070349257"><ele>1.0</ele><time>2026-04-01T14:47:18.001Z</time></trkpt><trkpt lat="39.272073897204905" lon="8.990891783379958"><ele>1.0</ele><time>2026-04-01T14:47:19.001Z</time></trkpt><trkpt lat="39.27209666120995" lon="8.991068665881853"><ele>1.0</ele><time>2026-04-01T14:47:20.001Z</time></trkpt><trkpt lat="39.27211905224392" lon="8.99124265023967"><ele>1.0</ele><time>2026-04-01T14:47:21.001Z</time></trkpt><trkpt lat="39.27214409149591" lon="8.9914337887911"><ele>1.0</ele><time>2026-04-01T14:47:22.001Z</time></trkpt><trkpt lat="39.2721713953617" lon="8.991641415822066"><ele>1.0</ele><time>2026-04-01T14:47:23.001Z</time></trkpt><trkpt lat="39.272200139847804" lon="8.991859997743692"><ele>1.0</ele><time>2026-04-01T14:47:24.001Z</time></trkpt><trkpt lat="39.272245436815496" lon="8.992086075290349"><ele>0.6666666666666666</ele><time>2026-04-01T14:47:25.001Z</time></trkpt><trkpt lat="39.27227270110538" lon="8.992335786008026"><ele>0.3333333333333333</ele><time>2026-04-01T14:47:26.001Z</time></trkpt><trkpt lat="39.27231008717394" lon="8.992592304332446"><ele>0.0</ele><time>2026-04-01T14:47:27.001Z</time></trkpt><trkpt lat="39.272342389898185" lon="8.992858526798813"><ele>0.0</ele><time>2026-04-01T14:47:28.001Z</time></trkpt><trkpt lat="39.27237597858018" lon="8.993128922204063"><ele>0.0</ele><time>2026-04-01T14:47:29.001Z</time></trkpt><trkpt lat="39.27241308753585" lon="8.99340949863831"><ele>0.0</ele><time>2026-04-01T14:47:30.001Z</time></trkpt><trkpt lat="39.27245444182834" lon="8.993696823331865"><ele>0.0</ele><time>2026-04-01T14:47:31.001Z</time></trkpt><trkpt lat="39.27247771598129" lon="8.993993112576728"><ele>0.0</ele><time>2026-04-01T14:47:32.001Z</time></trkpt><trkpt lat="39.27251596713794" lon="8.994286468579203"><ele>0.0</ele><time>2026-04-01T14:47:33.001Z</time></trkpt><trkpt lat="39.27255453179383" lon="8.994582228851378"><ele>0.0</ele><time>2026-04-01T14:47:34.001Z</time></trkpt><trkpt lat="39.272593303692815" lon="8.99487929359385"><ele>1.0</ele><time>2026-04-01T14:47:35.001Z</time></trkpt><trkpt lat="39.27263278057376" lon="8.995181393555507"><ele>2.0</ele><time>2026-04-01T14:47:36.001Z</time></trkpt><trkpt lat="39.27267255511726" lon="8.995485771400999"><ele>2.0</ele><time>2026-04-01T14:47:37.001Z</time></trkpt><trkpt lat="39.272712854311195" lon="8.995794164171011"><ele>2.0</ele><time>2026-04-01T14:47:38Z</time></trkpt><trkpt lat="39.272753689343766" lon="8.99610714798918"><ele>1.0</ele><time>2026-04-01T14:47:39Z</time></trkpt><trkpt lat="39.272793960354434" lon="8.996416513352065"><ele>0.0</ele><time>2026-04-01T14:47:40Z</time></trkpt><trkpt lat="39.272834847106544" lon="8.996730608871289"><ele>-0.5</ele><time>2026-04-01T14:47:41Z</time></trkpt><trkpt lat="39.27287480522999" lon="8.997037570619407"><ele>-1.0</ele><time>2026-04-01T14:47:42Z</time></trkpt><trkpt lat="39.272916092393515" lon="8.997354742142795"><ele>-1.0</ele><time>2026-04-01T14:47:43Z</time></trkpt><trkpt lat="39.27295743028666" lon="8.997672303394"><ele>-1.0</ele><time>2026-04-01T14:47:44Z</time></trkpt><trkpt lat="39.27299901564719" lon="8.997989788905146"><ele>-1.0</ele><time>2026-04-01T14:47:45Z</time></trkpt><trkpt lat="39.27304121599872" lon="8.998310520999953"><ele>-1.0</ele><time>2026-04-01T14:47:46Z</time></trkpt><trkpt lat="39.27308312538838" lon="8.998628776087397"><ele>-1.5</ele><time>2026-04-01T14:47:47Z</time></trkpt><trkpt lat="39.273125208992546" lon="8.998948031001495"><ele>-2.0</ele><time>2026-04-01T14:47:48Z</time></trkpt><trkpt lat="39.273164415466375" lon="8.99924545945097"><ele>0.0</ele><time>2026-04-01T14:47:49Z</time></trkpt><trkpt lat="39.27320294077436" lon="8.999537720374612"><ele>2.0</ele><time>2026-04-01T14:47:50Z</time></trkpt><trkpt lat="39.27324111503082" lon="8.999827318199634"><ele>2.0</ele><time>2026-04-01T14:47:51Z</time></trkpt><trkpt lat="39.273279376844094" lon="9.000117580238888"><ele>2.0</ele><time>2026-04-01T14:47:52Z</time></trkpt><trkpt lat="39.27331727436032" lon="9.000406656349076"><ele>2.0</ele><time>2026-04-01T14:47:53Z</time></trkpt><trkpt lat="39.27335455301694" lon="9.000693302473367"><ele>2.0</ele><time>2026-04-01T14:47:54Z</time></trkpt><trkpt lat="39.2733919101938" lon="9.00098055234909"><ele>2.0</ele><time>2026-04-01T14:47:55Z</time></trkpt><trkpt lat="39.27344441671407" lon="9.001266411542693"><ele>2.0</ele><time>2026-04-01T14:47:56Z</time></trkpt><trkpt lat="39.273467744400826" lon="9.001554228843103"><ele>1.5</ele><time>2026-04-01T14:47:57Z</time></trkpt><trkpt lat="39.273505814942595" lon="9.001840882997561"><ele>1.0</ele><time>2026-04-01T14:47:58Z</time></trkpt><trkpt lat="39.273545734932725" lon="9.002136752691175"><ele>1.0</ele><time>2026-04-01T14:47:59Z</time></trkpt><trkpt lat="39.273586718035475" lon="9.002442275974587"><ele>1.0</ele><time>2026-04-01T14:48:00Z</time></trkpt><trkpt lat="39.27362901193371" lon="9.00275339071912"><ele>0.5</ele><time>2026-04-01T14:48:01Z</time></trkpt><trkpt lat="39.27367163314896" lon="9.003068475854567"><ele>0.0</ele><time>2026-04-01T14:48:02Z</time></trkpt><trkpt lat="39.27371188539674" lon="9.00336489729438"><ele>1.0</ele><time>2026-04-01T14:48:03Z</time></trkpt><trkpt lat="39.27375129971423" lon="9.00365387843621"><ele>2.0</ele><time>2026-04-01T14:48:04Z</time></trkpt><trkpt lat="39.27378932694123" lon="9.003937774830717"><ele>2.0</ele><time>2026-04-01T14:48:05Z</time></trkpt><trkpt lat="39.27382744256326" lon="9.00422265512918"><ele>2.0</ele><time>2026-04-01T14:48:06Z</time></trkpt><trkpt lat="39.27386453275532" lon="9.004509804133962"><ele>2.0</ele><time>2026-04-01T14:48:07Z</time></trkpt><trkpt lat="39.27390317880181" lon="9.004808998403083"><ele>1.0</ele><time>2026-04-01T14:48:08Z</time></trkpt><trkpt lat="39.273940945003844" lon="9.005101381012606"><ele>0.0</ele><time>2026-04-01T14:48:09Z</time></trkpt><trkpt lat="39.27397728763431" lon="9.005381798412422"><ele>0.0</ele><time>2026-04-01T14:48:10Z</time></trkpt><trkpt lat="39.274013864448" lon="9.005662674557335"><ele>0.0</ele><time>2026-04-01T14:48:11Z</time></trkpt><trkpt lat="39.274049475343354" lon="9.005936133289493"><ele>0.0</ele><time>2026-04-01T14:48:12Z</time></trkpt><trkpt lat="39.27408533494733" lon="9.00621150190757"><ele>-0.3333333333333333</ele><time>2026-04-01T14:48:13Z</time></trkpt><trkpt lat="39.27412223983753" lon="9.006496220708113"><ele>-0.6666666666666666</ele><time>2026-04-01T14:48:14Z</time></trkpt><trkpt lat="39.27415529827958" lon="9.00675657223672"><ele>-1.0</ele><time>2026-04-01T14:48:15Z</time></trkpt><trkpt lat="39.27419019019437" lon="9.007026590608922"><ele>-0.3333333333333333</ele><time>2026-04-01T14:48:16Z</time></trkpt><trkpt lat="39.2742245792117" lon="9.007292717255783"><ele>0.3333333333333333</ele><time>2026-04-01T14:48:17Z</time></trkpt><trkpt lat="39.27425928536943" lon="9.007561298130708"><ele>1.0</ele><time>2026-04-01T14:48:18Z</time></trkpt><trkpt lat="39.2742936204065" lon="9.007827007011832"><ele>1.0</ele><time>2026-04-01T14:48:19Z</time></trkpt><trkpt lat="39.27432869026981" lon="9.008098402514333"><ele>1.0</ele><time>2026-04-01T14:48:20Z</time></trkpt><trkpt lat="39.27436356609142" lon="9.00836852234078"><ele>1.0</ele><time>2026-04-01T14:48:21Z</time></trkpt><trkpt lat="39.274398368452076" lon="9.008639021281247"><ele>0.6666666666666666</ele><time>2026-04-01T14:48:22Z</time></trkpt><trkpt lat="39.274434096056865" lon="9.008916711773312"><ele>0.3333333333333333</ele><time>2026-04-01T14:48:23Z</time></trkpt><trkpt lat="39.27446931212437" lon="9.009190426363814"><ele>0.0</ele><time>2026-04-01T14:48:24Z</time></trkpt><trkpt lat="39.274506396283286" lon="9.009466002315241"><ele>-0.3333333333333333</ele><time>2026-04-01T14:48:25Z</time></trkpt><trkpt lat="39.27457734192899" lon="9.009729746267485"><ele>-0.6666666666666666</ele><time>2026-04-01T14:48:26Z</time></trkpt><trkpt lat="39.274610947060346" lon="9.010011132909018"><ele>-1.0</ele><time>2026-04-01T14:48:27Z</time></trkpt><trkpt lat="39.27464756177373" lon="9.010289138825968"><ele>-1.5</ele><time>2026-04-01T14:48:28Z</time></trkpt><trkpt lat="39.274686569568004" lon="9.010580654024938"><ele>-2.0</ele><time>2026-04-01T14:48:29Z</time></trkpt><trkpt lat="39.274732153970014" lon="9.010882232400313"><ele>-0.5</ele><time>2026-04-01T14:48:30Z</time></trkpt><trkpt lat="39.27478119889628" lon="9.011207356855488"><ele>1.0</ele><time>2026-04-01T14:48:31Z</time></trkpt><trkpt lat="39.274829612027375" lon="9.011544036745846"><ele>0.5</ele><time>2026-04-01T14:48:32Z</time></trkpt><trkpt lat="39.27487070208708" lon="9.011895089563232"><ele>0.0</ele><time>2026-04-01T14:48:33Z</time></trkpt><trkpt lat="39.27491724673358" lon="9.012255302359154"><ele>0.0</ele><time>2026-04-01T14:48:34Z</time></trkpt><trkpt lat="39.274960190956484" lon="9.01263087937499"><ele>0.0</ele><time>2026-04-01T14:48:35Z</time></trkpt><trkpt lat="39.27501252496627" lon="9.013030906827849"><ele>0.0</ele><time>2026-04-01T14:48:36Z</time></trkpt><trkpt lat="39.27506536295449" lon="9.013437970580451"><ele>0.0</ele><time>2026-04-01T14:48:37Z</time></trkpt><trkpt lat="39.27511454948119" lon="9.013840521794604"><ele>1.5</ele><time>2026-04-01T14:48:38Z</time></trkpt><trkpt lat="39.275161739322705" lon="9.01421871622574"><ele>3.0</ele><time>2026-04-01T14:48:39Z</time></trkpt><trkpt lat="39.27519839449739" lon="9.014568705264667"><ele>3.0</ele><time>2026-04-01T14:48:40Z</time></trkpt><trkpt lat="39.275251082784585" lon="9.014905951829615"><ele>3.0</ele><time>2026-04-01T14:48:41Z</time></trkpt><trkpt lat="39.27528276942577" lon="9.015232152960769"><ele>2.5</ele><time>2026-04-01T14:48:42Z</time></trkpt><trkpt lat="39.27532086433153" lon="9.015558232363107"><ele>2.0</ele><time>2026-04-01T14:48:43Z</time></trkpt><trkpt lat="39.275361825962506" lon="9.015875654905868"><ele>2.0</ele><time>2026-04-01T14:48:44Z</time></trkpt><trkpt lat="39.27541251709628" lon="9.016190841159645"><ele>2.0</ele><time>2026-04-01T14:48:45Z</time></trkpt><trkpt lat="39.275465088551854" lon="9.016500628499873"><ele>1.0</ele><time>2026-04-01T14:48:46Z</time></trkpt><trkpt lat="39.27551616567145" lon="9.016811588179051"><ele>0.0</ele><time>2026-04-01T14:48:47Z</time></trkpt><trkpt lat="39.27557232918445" lon="9.017120542197178"><ele>0.0</ele><time>2026-04-01T14:48:48Z</time></trkpt><trkpt lat="39.27563600407556" lon="9.017428536311192"><ele>0.0</ele><time>2026-04-01T14:48:49Z</time></trkpt><trkpt lat="39.27569788380569" lon="9.017742838462485"><ele>0.0</ele><time>2026-04-01T14:48:50Z</time></trkpt><trkpt lat="39.2757655343023" lon="9.01805123313297"><ele>0.0</ele><time>2026-04-01T14:48:51Z</time></trkpt><trkpt lat="39.27583677537076" lon="9.018343957536477"><ele>1.0</ele><time>2026-04-01T14:48:52Z</time></trkpt><trkpt lat="39.27590764911693" lon="9.01861347869176"><ele>2.0</ele><time>2026-04-01T14:48:53Z</time></trkpt><trkpt lat="39.27598345975575" lon="9.018875706481506"><ele>3.0</ele><time>2026-04-01T14:48:54Z</time></trkpt><trkpt lat="39.276062416016174" lon="9.019136891226673"><ele>3.333333333333333</ele><time>2026-04-01T14:48:55Z</time></trkpt><trkpt lat="39.27614507566403" lon="9.019395176250686"><ele>3.6666666666666665</ele><time>2026-04-01T14:48:56Z</time></trkpt><trkpt lat="39.2762322088389" lon="9.019648028253794"><ele>4.0</ele><time>2026-04-01T14:48:57Z</time></trkpt><trkpt lat="39.27632858913635" lon="9.019893319660037"><ele>4.0</ele><time>2026-04-01T14:48:58Z</time></trkpt><trkpt lat="39.2764313406607" lon="9.020134569469711"><ele>4.0</ele><time>2026-04-01T14:48:59Z</time></trkpt><trkpt lat="39.276537224394396" lon="9.020373599102621"><ele>4.0</ele><time>2026-04-01T14:49:00Z</time></trkpt><trkpt lat="39.27665539562052" lon="9.02060697539493"><ele>3.6666666666666665</ele><time>2026-04-01T14:49:01Z</time></trkpt><trkpt lat="39.276774279193674" lon="9.020835589370748"><ele>3.333333333333333</ele><time>2026-04-01T14:49:02Z</time></trkpt><trkpt lat="39.27689243305256" lon="9.021054213531832"><ele>3.0</ele><time>2026-04-01T14:49:03Z</time></trkpt><trkpt lat="39.27701523405673" lon="9.021262622693275"><ele>3.0</ele><time>2026-04-01T14:49:04Z</time></trkpt><trkpt lat="39.27714333763719" lon="9.021460218296259"><ele>3.0</ele><time>2026-04-01T14:49:05Z</time></trkpt><trkpt lat="39.277276783140266" lon="9.021645989267784"><ele>3.0</ele><time>2026-04-01T14:49:06Z</time></trkpt><trkpt lat="39.27741010909981" lon="9.021814997001906"><ele>3.666666666666667</ele><time>2026-04-01T14:49:07Z</time></trkpt><trkpt lat="39.277537341267866" lon="9.021975606951825"><ele>4.333333333333334</ele><time>2026-04-01T14:49:08Z</time></trkpt><trkpt lat="39.27766499237948" lon="9.022132761382679"><ele>5.0</ele><time>2026-04-01T14:49:09Z</time></trkpt><trkpt lat="39.277796983530116" lon="9.02229240848688"><ele>5.0</ele><time>2026-04-01T14:49:10Z</time></trkpt><trkpt lat="39.27793187300718" lon="9.022447703948995"><ele>5.0</ele><time>2026-04-01T14:49:11Z</time></trkpt><trkpt lat="39.278071280954066" lon="9.022601188390338"><ele>5.0</ele><time>2026-04-01T14:49:12Z</time></trkpt><trkpt lat="39.27821433971174" lon="9.02274836238932"><ele>6.666666666666667</ele><time>2026-04-01T14:49:13Z</time></trkpt><trkpt lat="39.27835957957449" lon="9.022895609990899"><ele>8.333333333333334</ele><time>2026-04-01T14:49:14Z</time></trkpt><trkpt lat="39.27850724656344" lon="9.023038599810402"><ele>10.0</ele><time>2026-04-01T14:49:15Z</time></trkpt><trkpt lat="39.27865892485127" lon="9.023177755750385"><ele>10.0</ele><time>2026-04-01T14:49:16Z</time></trkpt><trkpt lat="39.27880806659783" lon="9.023310410720798"><ele>10.0</ele><time>2026-04-01T14:49:17Z</time></trkpt><trkpt lat="39.27895680487982" lon="9.023440004081229"><ele>10.0</ele><time>2026-04-01T14:49:18.001Z</time></trkpt><trkpt lat="39.279113692657106" lon="9.023574492079986"><ele>9.0</ele><time>2026-04-01T14:49:19.001Z</time></trkpt><trkpt lat="39.27927057947674" lon="9.023708398326134"><ele>8.0</ele><time>2026-04-01T14:49:20.001Z</time></trkpt><trkpt lat="39.279427141474606" lon="9.023838579736411"><ele>7.0</ele><time>2026-04-01T14:49:21.001Z</time></trkpt><trkpt lat="39.27958573412199" lon="9.023977868107858"><ele>7.0</ele><time>2026-04-01T14:49:22.001Z</time></trkpt><trkpt lat="39.27975191076291" lon="9.024104046948647"><ele>7.0</ele><time>2026-04-01T14:49:23.001Z</time></trkpt><trkpt lat="39.27991782823004" lon="9.024225804046534"><ele>7.0</ele><time>2026-04-01T14:49:24.001Z</time></trkpt><trkpt lat="39.280085496686794" lon="9.02434463059754"><ele>6.333333333333334</ele><time>2026-04-01T14:49:25.001Z</time></trkpt><trkpt lat="39.28025289515773" lon="9.024467523374975"><ele>5.666666666666667</ele><time>2026-04-01T14:49:26.001Z</time></trkpt><trkpt lat="39.28042326197388" lon="9.024592524068733"><ele>5.0</ele><time>2026-04-01T14:49:27.001Z</time></trkpt><trkpt lat="39.28058993808913" lon="9.024718027606896"><ele>5.0</ele><time>2026-04-01T14:49:28.001Z</time></trkpt><trkpt lat="39.280766176455145" lon="9.02484460727997"><ele>5.0</ele><time>2026-04-01T14:49:29.001Z</time></trkpt><trkpt lat="39.28093945079931" lon="9.024972503652814"><ele>5.0</ele><time>2026-04-01T14:49:30.001Z</time></trkpt><trkpt lat="39.28111833912121" lon="9.025097806227793"><ele>5.0</ele><time>2026-04-01T14:49:31.001Z</time></trkpt><trkpt lat="39.281292966206294" lon="9.02522753099195"><ele>5.0</ele><time>2026-04-01T14:49:32.001Z</time></trkpt><trkpt lat="39.28147208901047" lon="9.025361808609677"><ele>5.0</ele><time>2026-04-01T14:49:33.001Z</time></trkpt><trkpt lat="39.28165214922678" lon="9.025494220016276"><ele>5.666666666666667</ele><time>2026-04-01T14:49:34.001Z</time></trkpt><trkpt lat="39.2818353511636" lon="9.025623646967972"><ele>6.333333333333334</ele><time>2026-04-01T14:49:35Z</time></trkpt><trkpt lat="39.282022887111005" lon="9.025780507356735"><ele>7.0</ele><time>2026-04-01T14:49:36Z</time></trkpt><trkpt lat="39.28221402539726" lon="9.025887525881906"><ele>6.666666666666667</ele><time>2026-04-01T14:49:37Z</time></trkpt><trkpt lat="39.28240522010104" lon="9.026025590171944"><ele>6.333333333333334</ele><time>2026-04-01T14:49:38Z</time></trkpt><trkpt lat="39.2826008973276" lon="9.026167456112043"><ele>6.0</ele><time>2026-04-01T14:49:39Z</time></trkpt><trkpt lat="39.282795363402855" lon="9.026312896382807"><ele>6.0</ele><time>2026-04-01T14:49:40Z</time></trkpt><trkpt lat="39.28298931460832" lon="9.0264691156844"><ele>6.0</ele><time>2026-04-01T14:49:41Z</time></trkpt><trkpt lat="39.28318526086447" lon="9.026616667560912"><ele>6.333333333333334</ele><time>2026-04-01T14:49:42Z</time></trkpt><trkpt lat="39.28338021528166" lon="9.026758852461182"><ele>6.666666666666667</ele><time>2026-04-01T14:49:43Z</time></trkpt><trkpt lat="39.28357542807109" lon="9.026896646141095"><ele>7.0</ele><time>2026-04-01T14:49:44Z</time></trkpt><trkpt lat="39.28376916452298" lon="9.027032028499189"><ele>7.0</ele><time>2026-04-01T14:49:45Z</time></trkpt><trkpt lat="39.28396465992932" lon="9.02717771965892"><ele>7.0</ele><time>2026-04-01T14:49:46Z</time></trkpt><trkpt lat="39.28415035515207" lon="9.027313361890325"><ele>7.0</ele><time>2026-04-01T14:49:47Z</time></trkpt><trkpt lat="39.284345849556885" lon="9.027451166061272"><ele>7.0</ele><time>2026-04-01T14:49:48Z</time></trkpt><trkpt lat="39.28454607926987" lon="9.027574132646063"><ele>7.0</ele><time>2026-04-01T14:49:49Z</time></trkpt><trkpt lat="39.28474268180478" lon="9.027713516641095"><ele>7.0</ele><time>2026-04-01T14:49:50Z</time></trkpt><trkpt lat="39.28493884349865" lon="9.027854675532877"><ele>7.0</ele><time>2026-04-01T14:49:51Z</time></trkpt><trkpt lat="39.285138731155484" lon="9.027999787293474"><ele>7.0</ele><time>2026-04-01T14:49:52Z</time></trkpt><trkpt lat="39.28533535140442" lon="9.028152533212564"><ele>7.0</ele><time>2026-04-01T14:49:53Z</time></trkpt><trkpt lat="39.28552654990311" lon="9.028298550327522"><ele>7.0</ele><time>2026-04-01T14:49:54Z</time></trkpt><trkpt lat="39.2857151167996" lon="9.028445497742858"><ele>7.0</ele><time>2026-04-01T14:49:55Z</time></trkpt><trkpt lat="39.2859114888462" lon="9.02858931792014"><ele>7.0</ele><time>2026-04-01T14:49:56Z</time></trkpt><trkpt lat="39.28610952234326" lon="9.028734942337381"><ele>7.0</ele><time>2026-04-01T14:49:57Z</time></trkpt><trkpt lat="39.28630707106551" lon="9.02887751242959"><ele>7.5</ele><time>2026-04-01T14:49:58Z</time></trkpt><trkpt lat="39.28650278242184" lon="9.029029171429814"><ele>8.0</ele><time>2026-04-01T14:49:59Z</time></trkpt><trkpt lat="39.2867032793333" lon="9.02917658013858"><ele>8.0</ele><time>2026-04-01T14:50:00Z</time></trkpt><trkpt lat="39.28690522760727" lon="9.029322652840438"><ele>8.0</ele><time>2026-04-01T14:50:01Z</time></trkpt><trkpt lat="39.28710949287334" lon="9.029465181539976"><ele>8.0</ele><time>2026-04-01T14:50:02Z</time></trkpt><trkpt lat="39.28731250921327" lon="9.02960761978192"><ele>8.0</ele><time>2026-04-01T14:50:03Z</time></trkpt><trkpt lat="39.28751417458572" lon="9.029755244629264"><ele>8.0</ele><time>2026-04-01T14:50:04Z</time></trkpt><trkpt lat="39.28771310233635" lon="9.02991408141637"><ele>8.0</ele><time>2026-04-01T14:50:05Z</time></trkpt><trkpt lat="39.28792761470787" lon="9.030049555108702"><ele>9.0</ele><time>2026-04-01T14:50:06Z</time></trkpt><trkpt lat="39.28813023648495" lon="9.030204764042754"><ele>10.0</ele><time>2026-04-01T14:50:07Z</time></trkpt><trkpt lat="39.28833589989418" lon="9.030357158610505"><ele>10.0</ele><time>2026-04-01T14:50:08Z</time></trkpt><trkpt lat="39.288538294769026" lon="9.030510734067098"><ele>10.0</ele><time>2026-04-01T14:50:09Z</time></trkpt><trkpt lat="39.28874195713097" lon="9.030659303268402"><ele>11.0</ele><time>2026-04-01T14:50:10Z</time></trkpt><trkpt lat="39.288941252291025" lon="9.030808027532128"><ele>12.0</ele><time>2026-04-01T14:50:11Z</time></trkpt><trkpt lat="39.28914332010718" lon="9.030948012886912"><ele>12.0</ele><time>2026-04-01T14:50:12Z</time></trkpt><trkpt lat="39.289343553772" lon="9.031089181688184"><ele>12.0</ele><time>2026-04-01T14:50:13Z</time></trkpt><trkpt lat="39.289541869548195" lon="9.031236185055018"><ele>12.0</ele><time>2026-04-01T14:50:14Z</time></trkpt><trkpt lat="39.28973958651343" lon="9.031383471633047"><ele>12.0</ele><time>2026-04-01T14:50:15Z</time></trkpt><trkpt lat="39.28994061014347" lon="9.031532801038255"><ele>12.0</ele><time>2026-04-01T14:50:16Z</time></trkpt><trkpt lat="39.29014024676295" lon="9.031672281586456"><ele>12.0</ele><time>2026-04-01T14:50:17Z</time></trkpt><trkpt lat="39.290338477465184" lon="9.03181865059885"><ele>12.0</ele><time>2026-04-01T14:50:18Z</time></trkpt><trkpt lat="39.29053487342685" lon="9.031960469637355"><ele>12.0</ele><time>2026-04-01T14:50:19Z</time></trkpt><trkpt lat="39.29072953984105" lon="9.032102209100511"><ele>12.0</ele><time>2026-04-01T14:50:20Z</time></trkpt><trkpt lat="39.29092072874365" lon="9.032248804230319"><ele>12.0</ele><time>2026-04-01T14:50:21Z</time></trkpt><trkpt lat="39.291114665482276" lon="9.032400201458975"><ele>12.0</ele><time>2026-04-01T14:50:22Z</time></trkpt><trkpt lat="39.29130784057538" lon="9.032529303462956"><ele>12.0</ele><time>2026-04-01T14:50:23Z</time></trkpt><trkpt lat="39.29151072445775" lon="9.032664354106815"><ele>12.0</ele><time>2026-04-01T14:50:24Z</time></trkpt><trkpt lat="39.29168997714323" lon="9.03280369858114"><ele>12.0</ele><time>2026-04-01T14:50:25Z</time></trkpt><trkpt lat="39.291881596253056" lon="9.03295600602131"><ele>12.0</ele><time>2026-04-01T14:50:26Z</time></trkpt><trkpt lat="39.29207137783771" lon="9.03308960784045"><ele>12.0</ele><time>2026-04-01T14:50:27Z</time></trkpt><trkpt lat="39.292252614015055" lon="9.033213664714355"><ele>12.0</ele><time>2026-04-01T14:50:28Z</time></trkpt><trkpt lat="39.29243130234319" lon="9.033342314124269"><ele>12.0</ele><time>2026-04-01T14:50:29Z</time></trkpt><trkpt lat="39.29260687571559" lon="9.033470299323774"><ele>11.333333333333334</ele><time>2026-04-01T14:50:30Z</time></trkpt><trkpt lat="39.29278348076814" lon="9.033597538175792"><ele>10.666666666666668</ele><time>2026-04-01T14:50:31Z</time></trkpt><trkpt lat="39.292952700996835" lon="9.033725505266599"><ele>10.0</ele><time>2026-04-01T14:50:32Z</time></trkpt><trkpt lat="39.293123569775176" lon="9.033852114677064"><ele>10.0</ele><time>2026-04-01T14:50:33Z</time></trkpt><trkpt lat="39.293296594192384" lon="9.03397806191848"><ele>10.0</ele><time>2026-04-01T14:50:34Z</time></trkpt><trkpt lat="39.29346972440891" lon="9.034102590103457"><ele>10.0</ele><time>2026-04-01T14:50:35Z</time></trkpt><trkpt lat="39.2936398992635" lon="9.034229864667918"><ele>11.0</ele><time>2026-04-01T14:50:36Z</time></trkpt><trkpt lat="39.29381013805314" lon="9.03435159437537"><ele>12.0</ele><time>2026-04-01T14:50:37Z</time></trkpt><trkpt lat="39.293980792600955" lon="9.0344737084775"><ele>13.0</ele><time>2026-04-01T14:50:38Z</time></trkpt><trkpt lat="39.29414943061817" lon="9.034599167615365"><ele>13.0</ele><time>2026-04-01T14:50:39Z</time></trkpt><trkpt lat="39.294319919889034" lon="9.034718363082659"><ele>13.0</ele><time>2026-04-01T14:50:40Z</time></trkpt><trkpt lat="39.294486007110116" lon="9.034840263631649"><ele>13.0</ele><time>2026-04-01T14:50:41Z</time></trkpt><trkpt lat="39.2946497698006" lon="9.034966171512883"><ele>14.0</ele><time>2026-04-01T14:50:42Z</time></trkpt><trkpt lat="39.29480127129403" lon="9.035070175589821"><ele>15.0</ele><time>2026-04-01T14:50:43Z</time></trkpt><trkpt lat="39.29494749356354" lon="9.035173549668597"><ele>16.0</ele><time>2026-04-01T14:50:44Z</time></trkpt><trkpt lat="39.295093285642935" lon="9.03528540706766"><ele>16.0</ele><time>2026-04-01T14:50:45Z</time></trkpt><trkpt lat="39.29523495228563" lon="9.0353932831315"><ele>16.0</ele><time>2026-04-01T14:50:46Z</time></trkpt><trkpt lat="39.295373611102306" lon="9.035495941174789"><ele>16.0</ele><time>2026-04-01T14:50:47Z</time></trkpt><trkpt lat="39.29551444241005" lon="9.035594815835225"><ele>15.666666666666666</ele><time>2026-04-01T14:50:48Z</time></trkpt><trkpt lat="39.295655630464736" lon="9.035697685094428"><ele>15.333333333333332</ele><time>2026-04-01T14:50:49Z</time></trkpt><trkpt lat="39.29579911574988" lon="9.035789712105142"><ele>15.0</ele><time>2026-04-01T14:50:50Z</time></trkpt><trkpt lat="39.29593950410499" lon="9.035886303104492"><ele>15.666666666666668</ele><time>2026-04-01T14:50:51Z</time></trkpt><trkpt lat="39.296076575257175" lon="9.03599186640609"><ele>16.333333333333336</ele><time>2026-04-01T14:50:52Z</time></trkpt><trkpt lat="39.29621084556841" lon="9.036099986327287"><ele>17.0</ele><time>2026-04-01T14:50:53Z</time></trkpt><trkpt lat="39.29634806820143" lon="9.036204066596506"><ele>17.0</ele><time>2026-04-01T14:50:54Z</time></trkpt><trkpt lat="39.296491628307535" lon="9.036293994557921"><ele>17.0</ele><time>2026-04-01T14:50:55Z</time></trkpt><trkpt lat="39.296616264748245" lon="9.036382626095948"><ele>17.0</ele><time>2026-04-01T14:50:56Z</time></trkpt><trkpt lat="39.296730899552564" lon="9.036468021436933"><ele>17.0</ele><time>2026-04-01T14:50:57Z</time></trkpt><trkpt lat="39.29684343665045" lon="9.036550564885271"><ele>17.0</ele><time>2026-04-01T14:50:58Z</time></trkpt><trkpt lat="39.296949599225634" lon="9.036627989792388"><ele>17.0</ele><time>2026-04-01T14:50:59Z</time></trkpt><trkpt lat="39.297040878847405" lon="9.036698165898105"><ele>17.0</ele><time>2026-04-01T14:51:00Z</time></trkpt><trkpt lat="39.29711976690865" lon="9.036758427313623"><ele>17.0</ele><time>2026-04-01T14:51:01Z</time></trkpt><trkpt lat="39.297200592550986" lon="9.036812572296926"><ele>17.0</ele><time>2026-04-01T14:51:02Z</time></trkpt><trkpt lat="39.297283962817076" lon="9.036870058650983"><ele>18.5</ele><time>2026-04-01T14:51:03Z</time></trkpt><trkpt lat="39.297372737094626" lon="9.036935639033281"><ele>20.0</ele><time>2026-04-01T14:51:04Z</time></trkpt><trkpt lat="39.29746701707441" lon="9.037005774241662"><ele>21.5</ele><time>2026-04-01T14:51:05Z</time></trkpt><trkpt lat="39.29756676956656" lon="9.037080717668662"><ele>23.0</ele><time>2026-04-01T14:51:06Z</time></trkpt><trkpt lat="39.297678712236895" lon="9.037157208748022"><ele>23.0</ele><time>2026-04-01T14:51:07Z</time></trkpt><trkpt lat="39.297803807742234" lon="9.037244905932694"><ele>23.0</ele><time>2026-04-01T14:51:08Z</time></trkpt><trkpt lat="39.29794025107795" lon="9.03735062758009"><ele>23.0</ele><time>2026-04-01T14:51:09Z</time></trkpt><trkpt lat="39.29809402798183" lon="9.037469344016445"><ele>23.0</ele><time>2026-04-01T14:51:10Z</time></trkpt><trkpt lat="39.29824791660427" lon="9.037586830175444"><ele>23.0</ele><time>2026-04-01T14:51:11Z</time></trkpt><trkpt lat="39.29840595831797" lon="9.037704925617653"><ele>23.0</ele><time>2026-04-01T14:51:12Z</time></trkpt><trkpt lat="39.29857503406846" lon="9.037829804626602"><ele>23.0</ele><time>2026-04-01T14:51:13Z</time></trkpt><trkpt lat="39.29874021801097" lon="9.037947938749387"><ele>23.0</ele><time>2026-04-01T14:51:14Z</time></trkpt><trkpt lat="39.29890630375755" lon="9.038070412481021"><ele>23.0</ele><time>2026-04-01T14:51:15Z</time></trkpt><trkpt lat="39.299078016604334" lon="9.038191480706423"><ele>23.333333333333336</ele><time>2026-04-01T14:51:16Z</time></trkpt><trkpt lat="39.299250524772376" lon="9.038314645673799"><ele>23.666666666666668</ele><time>2026-04-01T14:51:17Z</time></trkpt><trkpt lat="39.29942240956588" lon="9.038436780576646"><ele>24.0</ele><time>2026-04-01T14:51:18Z</time></trkpt><trkpt lat="39.2995958439447" lon="9.038561717281837"><ele>24.333333333333336</ele><time>2026-04-01T14:51:19Z</time></trkpt><trkpt lat="39.299768162955004" lon="9.038687472822279"><ele>24.666666666666668</ele><time>2026-04-01T14:51:20Z</time></trkpt><trkpt lat="39.29993922476865" lon="9.038813226188298"><ele>25.0</ele><time>2026-04-01T14:51:21Z</time></trkpt><trkpt lat="39.30011129287404" lon="9.038941827119338"><ele>25.0</ele><time>2026-04-01T14:51:22Z</time></trkpt><trkpt lat="39.30028737059311" lon="9.039070932263119"><ele>25.0</ele><time>2026-04-01T14:51:23Z</time></trkpt><trkpt lat="39.30047733638272" lon="9.039219334967438"><ele>25.0</ele><time>2026-04-01T14:51:24.001Z</time></trkpt><trkpt lat="39.30065085999392" lon="9.039339269236073"><ele>25.0</ele><time>2026-04-01T14:51:25.001Z</time></trkpt><trkpt lat="39.30083458108173" lon="9.0394734588362"><ele>25.0</ele><time>2026-04-01T14:51:26Z</time></trkpt><trkpt lat="39.301020718593" lon="9.039610004366672"><ele>25.0</ele><time>2026-04-01T14:51:27Z</time></trkpt><trkpt lat="39.301203523874165" lon="9.03975078315433"><ele>25.0</ele><time>2026-04-01T14:51:28Z</time></trkpt><trkpt lat="39.30139438840566" lon="9.039886553676803"><ele>25.0</ele><time>2026-04-01T14:51:29Z</time></trkpt><trkpt lat="39.3015848940461" lon="9.040024734246762"><ele>25.0</ele><time>2026-04-01T14:51:30Z</time></trkpt><trkpt lat="39.301778549160865" lon="9.04015776404406"><ele>25.0</ele><time>2026-04-01T14:51:31Z</time></trkpt><trkpt lat="39.30197383884873" lon="9.040294447548845"><ele>25.0</ele><time>2026-04-01T14:51:32Z</time></trkpt><trkpt lat="39.30216787099143" lon="9.040431651190305"><ele>25.0</ele><time>2026-04-01T14:51:33Z</time></trkpt><trkpt lat="39.30236033977763" lon="9.040577915610612"><ele>25.0</ele><time>2026-04-01T14:51:34Z</time></trkpt><trkpt lat="39.3025523368718" lon="9.040722244078236"><ele>25.0</ele><time>2026-04-01T14:51:35Z</time></trkpt><trkpt lat="39.302748585492445" lon="9.040866392576916"><ele>25.0</ele><time>2026-04-01T14:51:36Z</time></trkpt><trkpt lat="39.302948779643856" lon="9.041009103371868"><ele>25.0</ele><time>2026-04-01T14:51:37Z</time></trkpt><trkpt lat="39.30315565619211" lon="9.041159606657422"><ele>25.0</ele><time>2026-04-01T14:51:38Z</time></trkpt><trkpt lat="39.30337083802223" lon="9.041319324089265"><ele>25.0</ele><time>2026-04-01T14:51:39Z</time></trkpt><trkpt lat="39.3035622762198" lon="9.041480101998442"><ele>25.0</ele><time>2026-04-01T14:51:40Z</time></trkpt><trkpt lat="39.30375182009198" lon="9.041596210795696"><ele>25.0</ele><time>2026-04-01T14:51:41Z</time></trkpt><trkpt lat="39.303918651853785" lon="9.04172806648752"><ele>25.0</ele><time>2026-04-01T14:51:42Z</time></trkpt><trkpt lat="39.30408979393035" lon="9.041847671755987"><ele>25.0</ele><time>2026-04-01T14:51:43Z</time></trkpt><trkpt lat="39.304255087612106" lon="9.041971272317035"><ele>25.0</ele><time>2026-04-01T14:51:44Z</time></trkpt><trkpt lat="39.30442244343096" lon="9.042093957204933"><ele>25.0</ele><time>2026-04-01T14:51:45Z</time></trkpt><trkpt lat="39.304588807088415" lon="9.042213648112922"><ele>25.0</ele><time>2026-04-01T14:51:46Z</time></trkpt><trkpt lat="39.3047576656815" lon="9.042333322860857"><ele>25.0</ele><time>2026-04-01T14:51:47Z</time></trkpt><trkpt lat="39.30491991618708" lon="9.042461693134038"><ele>25.666666666666668</ele><time>2026-04-01T14:51:48Z</time></trkpt><trkpt lat="39.305089300210795" lon="9.042573309460519"><ele>26.333333333333336</ele><time>2026-04-01T14:51:49Z</time></trkpt><trkpt lat="39.30524348608115" lon="9.042685617567512"><ele>27.0</ele><time>2026-04-01T14:51:50Z</time></trkpt><trkpt lat="39.30539405215691" lon="9.04280214867842"><ele>27.0</ele><time>2026-04-01T14:51:51Z</time></trkpt><trkpt lat="39.305543756068715" lon="9.042926582524572"><ele>27.0</ele><time>2026-04-01T14:51:52Z</time></trkpt><trkpt lat="39.305693065691784" lon="9.043053637687093"><ele>27.0</ele><time>2026-04-01T14:51:53Z</time></trkpt><trkpt lat="39.30586569530506" lon="9.043185889457876"><ele>28.0</ele><time>2026-04-01T14:51:54Z</time></trkpt><trkpt lat="39.30600114986182" lon="9.043312112016407"><ele>29.0</ele><time>2026-04-01T14:51:55Z</time></trkpt><trkpt lat="39.30615678709772" lon="9.04344953963095"><ele>30.0</ele><time>2026-04-01T14:51:56Z</time></trkpt><trkpt lat="39.30631090584287" lon="9.043576467894658"><ele>30.0</ele><time>2026-04-01T14:51:57Z</time></trkpt><trkpt lat="39.30646772990737" lon="9.043712351448109"><ele>30.0</ele><time>2026-04-01T14:51:58Z</time></trkpt><trkpt lat="39.306619006026395" lon="9.043853318879673"><ele>30.0</ele><time>2026-04-01T14:51:59Z</time></trkpt><trkpt lat="39.30677175419376" lon="9.043998465606112"><ele>30.0</ele><time>2026-04-01T14:52:00Z</time></trkpt><trkpt lat="39.306925851103365" lon="9.044145139548752"><ele>30.0</ele><time>2026-04-01T14:52:01Z</time></trkpt><trkpt lat="39.30708344124811" lon="9.044292676636049"><ele>30.0</ele><time>2026-04-01T14:52:02Z</time></trkpt><trkpt lat="39.307238183437036" lon="9.04444442732688"><ele>30.333333333333336</ele><time>2026-04-01T14:52:03Z</time></trkpt><trkpt lat="39.307395425056434" lon="9.044603443976845"><ele>30.666666666666668</ele><time>2026-04-01T14:52:04Z</time></trkpt><trkpt lat="39.30754246313794" lon="9.044764174937454"><ele>31.0</ele><time>2026-04-01T14:52:05Z</time></trkpt><trkpt lat="39.307685988034116" lon="9.044917212068393"><ele>31.0</ele><time>2026-04-01T14:52:06Z</time></trkpt><trkpt lat="39.30782296547785" lon="9.045082597092144"><ele>31.0</ele><time>2026-04-01T14:52:07Z</time></trkpt><trkpt lat="39.30795973370573" lon="9.045240873659212"><ele>31.0</ele><time>2026-04-01T14:52:08Z</time></trkpt><trkpt lat="39.308090794638844" lon="9.045409042526705"><ele>31.0</ele><time>2026-04-01T14:52:09Z</time></trkpt><trkpt lat="39.30823550203561" lon="9.045570277672468"><ele>31.0</ele><time>2026-04-01T14:52:10Z</time></trkpt><trkpt lat="39.308372736995096" lon="9.045731219947344"><ele>31.0</ele><time>2026-04-01T14:52:11Z</time></trkpt><trkpt lat="39.308508820218506" lon="9.045892896089818"><ele>31.333333333333336</ele><time>2026-04-01T14:52:12Z</time></trkpt><trkpt lat="39.30864723886872" lon="9.046058364818562"><ele>31.666666666666664</ele><time>2026-04-01T14:52:13Z</time></trkpt><trkpt lat="39.30878104341396" lon="9.046222740349027"><ele>32.0</ele><time>2026-04-01T14:52:14Z</time></trkpt><trkpt lat="39.30889896437173" lon="9.046402142849171"><ele>32.33333333333333</ele><time>2026-04-01T14:52:15Z</time></trkpt><trkpt lat="39.309034257121326" lon="9.04655588957841"><ele>32.666666666666664</ele><time>2026-04-01T14:52:16Z</time></trkpt><trkpt lat="39.309162560323536" lon="9.046731905646281"><ele>33.0</ele><time>2026-04-01T14:52:17Z</time></trkpt><trkpt lat="39.30928811409823" lon="9.046904705847505"><ele>33.333333333333336</ele><time>2026-04-01T14:52:18Z</time></trkpt><trkpt lat="39.30941286655638" lon="9.047075468195295"><ele>33.66666666666667</ele><time>2026-04-01T14:52:19Z</time></trkpt><trkpt lat="39.30953799653916" lon="9.047258112598355"><ele>34.0</ele><time>2026-04-01T14:52:20Z</time></trkpt><trkpt lat="39.309661338296166" lon="9.047432859520608"><ele>35.333333333333336</ele><time>2026-04-01T14:52:21Z</time></trkpt><trkpt lat="39.30976486599427" lon="9.047625144946668"><ele>36.666666666666664</ele><time>2026-04-01T14:52:22Z</time></trkpt><trkpt lat="39.30989172183119" lon="9.047794134997929"><ele>38.0</ele><time>2026-04-01T14:52:23Z</time></trkpt><trkpt lat="39.31000779502909" lon="9.047979494059181"><ele>38.0</ele><time>2026-04-01T14:52:24Z</time></trkpt><trkpt lat="39.31012169730901" lon="9.048153811479539"><ele>38.0</ele><time>2026-04-01T14:52:25Z</time></trkpt><trkpt lat="39.3102358003159" lon="9.048335470666348"><ele>38.0</ele><time>2026-04-01T14:52:26Z</time></trkpt><trkpt lat="39.31034260434448" lon="9.048514856473338"><ele>38.33333333333333</ele><time>2026-04-01T14:52:27Z</time></trkpt><trkpt lat="39.3104537259518" lon="9.048702942004955"><ele>38.666666666666664</ele><time>2026-04-01T14:52:28Z</time></trkpt><trkpt lat="39.31055958208897" lon="9.048885475208266"><ele>39.0</ele><time>2026-04-01T14:52:29Z</time></trkpt><trkpt lat="39.31065225741334" lon="9.04908454883279"><ele>39.333333333333336</ele><time>2026-04-01T14:52:30Z</time></trkpt><trkpt lat="39.31074995467443" lon="9.04926214036828"><ele>39.66666666666667</ele><time>2026-04-01T14:52:31Z</time></trkpt><trkpt lat="39.310848342894474" lon="9.04944324454986"><ele>40.0</ele><time>2026-04-01T14:52:32Z</time></trkpt><trkpt lat="39.310943023090296" lon="9.049620875283603"><ele>40.0</ele><time>2026-04-01T14:52:33Z</time></trkpt><trkpt lat="39.31103557402709" lon="9.04979894662876"><ele>40.0</ele><time>2026-04-01T14:52:34Z</time></trkpt><trkpt lat="39.31112582082195" lon="9.049974540176889"><ele>40.0</ele><time>2026-04-01T14:52:35Z</time></trkpt><trkpt lat="39.31121605720886" lon="9.050153770568858"><ele>41.0</ele><time>2026-04-01T14:52:36Z</time></trkpt><trkpt lat="39.31130684081159" lon="9.050334087904364"><ele>42.0</ele><time>2026-04-01T14:52:37Z</time></trkpt><trkpt lat="39.311394163602" lon="9.050514427568524"><ele>43.0</ele><time>2026-04-01T14:52:38Z</time></trkpt><trkpt lat="39.31147740821085" lon="9.05069547327962"><ele>43.0</ele><time>2026-04-01T14:52:39Z</time></trkpt><trkpt lat="39.31155909862483" lon="9.050877308673662"><ele>43.0</ele><time>2026-04-01T14:52:40Z</time></trkpt><trkpt lat="39.31163765891974" lon="9.051057791385704"><ele>43.0</ele><time>2026-04-01T14:52:41Z</time></trkpt><trkpt lat="39.311716348503154" lon="9.051240123139966"><ele>43.0</ele><time>2026-04-01T14:52:42Z</time></trkpt><trkpt lat="39.31179324807285" lon="9.051419813079121"><ele>43.0</ele><time>2026-04-01T14:52:43Z</time></trkpt><trkpt lat="39.311877398444935" lon="9.051595146572021"><ele>43.0</ele><time>2026-04-01T14:52:44Z</time></trkpt><trkpt lat="39.311943839426604" lon="9.051784846486319"><ele>44.0</ele><time>2026-04-01T14:52:45Z</time></trkpt><trkpt lat="39.31201837578705" lon="9.051970116654848"><ele>45.0</ele><time>2026-04-01T14:52:46Z</time></trkpt><trkpt lat="39.31210374148352" lon="9.052185305876094"><ele>46.0</ele><time>2026-04-01T14:52:47Z</time></trkpt><trkpt lat="39.31218670924333" lon="9.052399300570436"><ele>47.5</ele><time>2026-04-01T14:52:48Z</time></trkpt><trkpt lat="39.312268291383276" lon="9.052612176758334"><ele>49.0</ele><time>2026-04-01T14:52:49Z</time></trkpt><trkpt lat="39.31234599523437" lon="9.052819614240146"><ele>50.5</ele><time>2026-04-01T14:52:50Z</time></trkpt><trkpt lat="39.31237473790549" lon="9.052897233994218"><ele>52.0</ele><time>2026-04-01T14:52:51Z</time></trkpt><trkpt lat="39.312442451650796" lon="9.0530884379332"><ele>52.0</ele><time>2026-04-01T14:52:52Z</time></trkpt><trkpt lat="39.31250906338821" lon="9.053284605374"><ele>52.0</ele><time>2026-04-01T14:52:53Z</time></trkpt><trkpt lat="39.31257712002942" lon="9.053490076311153"><ele>52.0</ele><time>2026-04-01T14:52:54Z</time></trkpt><trkpt lat="39.312645257401016" lon="9.053699445687194"><ele>52.666666666666664</ele><time>2026-04-01T14:52:55Z</time></trkpt><trkpt lat="39.31270954264896" lon="9.053904807838668"><ele>53.33333333333333</ele><time>2026-04-01T14:52:56Z</time></trkpt><trkpt lat="39.31276722010478" lon="9.054090998779541"><ele>54.0</ele><time>2026-04-01T14:52:57Z</time></trkpt><trkpt lat="39.312836586802" lon="9.054264138596384"><ele>54.0</ele><time>2026-04-01T14:52:58Z</time></trkpt><trkpt lat="39.312885054014714" lon="9.054442505590899"><ele>54.0</ele><time>2026-04-01T14:52:59Z</time></trkpt><trkpt lat="39.31294174107118" lon="9.054627081177129"><ele>54.0</ele><time>2026-04-01T14:53:00Z</time></trkpt><trkpt lat="39.3129943182717" lon="9.054813697092772"><ele>54.0</ele><time>2026-04-01T14:53:01Z</time></trkpt><trkpt lat="39.31303016146313" lon="9.054996219778111"><ele>54.0</ele><time>2026-04-01T14:53:02Z</time></trkpt><trkpt lat="39.31307211575239" lon="9.055159247809163"><ele>54.0</ele><time>2026-04-01T14:53:03Z</time></trkpt><trkpt lat="39.313109413858676" lon="9.055312037291642"><ele>54.0</ele><time>2026-04-01T14:53:04Z</time></trkpt><trkpt lat="39.31314628860758" lon="9.05546309246136"><ele>54.25</ele><time>2026-04-01T14:53:05Z</time></trkpt><trkpt lat="39.31318340783263" lon="9.055618110597528"><ele>54.5</ele><time>2026-04-01T14:53:06Z</time></trkpt><trkpt lat="39.31322137984071" lon="9.055777273996737"><ele>54.75</ele><time>2026-04-01T14:53:07Z</time></trkpt><trkpt lat="39.313258599526115" lon="9.055933570535343"><ele>55.0</ele><time>2026-04-01T14:53:08Z</time></trkpt><trkpt lat="39.31329428892008" lon="9.056084337155953"><ele>55.0</ele><time>2026-04-01T14:53:09Z</time></trkpt><trkpt lat="39.31333907509792" lon="9.056230765082379"><ele>55.0</ele><time>2026-04-01T14:53:10Z</time></trkpt><trkpt lat="39.31337488875201" lon="9.056385379515874"><ele>55.0</ele><time>2026-04-01T14:53:11Z</time></trkpt><trkpt lat="39.31341915432825" lon="9.056534257997034"><ele>55.0</ele><time>2026-04-01T14:53:12Z</time></trkpt><trkpt lat="39.31346230901988" lon="9.056670866964266"><ele>54.75</ele><time>2026-04-01T14:53:13Z</time></trkpt><trkpt lat="39.31351366950291" lon="9.05679445840851"><ele>54.5</ele><time>2026-04-01T14:53:14Z</time></trkpt><trkpt lat="39.3135681201912" lon="9.05691694063207"><ele>54.25</ele><time>2026-04-01T14:53:15Z</time></trkpt><trkpt lat="39.31363482548413" lon="9.057042911020325"><ele>54.0</ele><time>2026-04-01T14:53:16Z</time></trkpt><trkpt lat="39.31370830300767" lon="9.057165121284205"><ele>54.0</ele><time>2026-04-01T14:53:17Z</time></trkpt><trkpt lat="39.313770583655064" lon="9.057260306256692"><ele>54.0</ele><time>2026-04-01T14:53:18Z</time></trkpt><trkpt lat="39.31382095059419" lon="9.057343968016498"><ele>54.0</ele><time>2026-04-01T14:53:19Z</time></trkpt><trkpt lat="39.31388224485161" lon="9.05742394921738"><ele>54.0</ele><time>2026-04-01T14:53:20Z</time></trkpt><trkpt lat="39.313945666988694" lon="9.057498207873484"><ele>54.0</ele><time>2026-04-01T14:53:21Z</time></trkpt><trkpt lat="39.31401500298693" lon="9.057569786663157"><ele>54.0</ele><time>2026-04-01T14:53:22Z</time></trkpt><trkpt lat="39.31407982677241" lon="9.057633241390546"><ele>54.0</ele><time>2026-04-01T14:53:23Z</time></trkpt><trkpt lat="39.31413405212318" lon="9.05770614458253"><ele>54.0</ele><time>2026-04-01T14:53:24Z</time></trkpt><trkpt lat="39.31418680765058" lon="9.05778854573275"><ele>54.0</ele><time>2026-04-01T14:53:25Z</time></trkpt><trkpt lat="39.31422603246093" lon="9.057889919461068"><ele>54.0</ele><time>2026-04-01T14:53:26Z</time></trkpt><trkpt lat="39.314247549325" lon="9.058008723473675"><ele>54.0</ele><time>2026-04-01T14:53:27Z</time></trkpt><trkpt lat="39.31424934202785" lon="9.058140816576193"><ele>54.0</ele><time>2026-04-01T14:53:28Z</time></trkpt><trkpt lat="39.31423211473152" lon="9.058271228723205"><ele>54.0</ele><time>2026-04-01T14:53:29Z</time></trkpt><trkpt lat="39.314192398164636" lon="9.05840258979738"><ele>54.00000000000001</ele><time>2026-04-01T14:53:30Z</time></trkpt><trkpt lat="39.31414683556013" lon="9.058524040558016"><ele>54.00000000000001</ele><time>2026-04-01T14:53:31Z</time></trkpt><trkpt lat="39.314103246376085" lon="9.058653102670757"><ele>54.0</ele><time>2026-04-01T14:53:32Z</time></trkpt><trkpt lat="39.31407322266676" lon="9.058795081400765"><ele>54.0</ele><time>2026-04-01T14:53:33Z</time></trkpt><trkpt lat="39.314055857553505" lon="9.058943369452058"><ele>54.0</ele><time>2026-04-01T14:53:34Z</time></trkpt><trkpt lat="39.31405044663529" lon="9.05909729667049"><ele>54.0</ele><time>2026-04-01T14:53:35Z</time></trkpt><trkpt lat="39.31405602690103" lon="9.05925776342327"><ele>54.0</ele><time>2026-04-01T14:53:36Z</time></trkpt><trkpt lat="39.31406709750723" lon="9.059425117850658"><ele>54.0</ele><time>2026-04-01T14:53:37Z</time></trkpt><trkpt lat="39.314063882894644" lon="9.05960288007284"><ele>54.0</ele><time>2026-04-01T14:53:38Z</time></trkpt><trkpt lat="39.31407010400797" lon="9.059787934710643"><ele>54.0</ele><time>2026-04-01T14:53:39Z</time></trkpt><trkpt lat="39.31408369887929" lon="9.0599871463203"><ele>54.0</ele><time>2026-04-01T14:53:40Z</time></trkpt><trkpt lat="39.314087918728795" lon="9.060182589327548"><ele>54.0</ele><time>2026-04-01T14:53:41Z</time></trkpt><trkpt lat="39.31409202530568" lon="9.060386846515987"><ele>54.0</ele><time>2026-04-01T14:53:42Z</time></trkpt><trkpt lat="39.314102348299144" lon="9.060591208697826"><ele>54.0</ele><time>2026-04-01T14:53:43Z</time></trkpt><trkpt lat="39.314121891454946" lon="9.060773067216545"><ele>54.0</ele><time>2026-04-01T14:53:44Z</time></trkpt><trkpt lat="39.31414206981215" lon="9.060942692854173"><ele>54.0</ele><time>2026-04-01T14:53:45Z</time></trkpt><trkpt lat="39.31418917989769" lon="9.061111557626937"><ele>53.25</ele><time>2026-04-01T14:53:46Z</time></trkpt><trkpt lat="39.31424904356167" lon="9.061275664376438"><ele>52.5</ele><time>2026-04-01T14:53:47Z</time></trkpt><trkpt lat="39.314336048139424" lon="9.061428997779243"><ele>51.75</ele><time>2026-04-01T14:53:48Z</time></trkpt><trkpt lat="39.31443483927802" lon="9.061564172025006"><ele>51.0</ele><time>2026-04-01T14:53:49Z</time></trkpt><trkpt lat="39.314532606791765" lon="9.061679066479803"><ele>50.8</ele><time>2026-04-01T14:53:50Z</time></trkpt><trkpt lat="39.31463182088022" lon="9.061766837508902"><ele>50.599999999999994</ele><time>2026-04-01T14:53:51Z</time></trkpt><trkpt lat="39.31472487167369" lon="9.061839045722763"><ele>50.4</ele><time>2026-04-01T14:53:52Z</time></trkpt><trkpt lat="39.314814919595605" lon="9.061909421850034"><ele>50.2</ele><time>2026-04-01T14:53:53Z</time></trkpt><trkpt lat="39.314901471853176" lon="9.061986549721835"><ele>50.0</ele><time>2026-04-01T14:53:54Z</time></trkpt><trkpt lat="39.31494837146515" lon="9.06211208482046"><ele>50.333333333333336</ele><time>2026-04-01T14:53:55Z</time></trkpt><trkpt lat="39.314977839203415" lon="9.062241490732514"><ele>50.66666666666667</ele><time>2026-04-01T14:53:56Z</time></trkpt><trkpt lat="39.3149896163292" lon="9.062361259691924"><ele>51.0</ele><time>2026-04-01T14:53:57Z</time></trkpt><trkpt lat="39.31497268347815" lon="9.062464739859026"><ele>51.33333333333333</ele><time>2026-04-01T14:53:58Z</time></trkpt><trkpt lat="39.3149499635227" lon="9.062554707905289"><ele>51.666666666666664</ele><time>2026-04-01T14:53:59Z</time></trkpt><trkpt lat="39.31491389756226" lon="9.062639513397524"><ele>52.0</ele><time>2026-04-01T14:54:00Z</time></trkpt><trkpt lat="39.31486762258881" lon="9.062724140718261"><ele>52.0</ele><time>2026-04-01T14:54:01Z</time></trkpt><trkpt lat="39.31482855835922" lon="9.062815896287283"><ele>52.0</ele><time>2026-04-01T14:54:02Z</time></trkpt><trkpt lat="39.314726338407375" lon="9.062850495910892"><ele>52.0</ele><time>2026-04-01T14:54:03Z</time></trkpt><trkpt lat="39.31463237851834" lon="9.06294813959768"><ele>52.0</ele><time>2026-04-01T14:54:04Z</time></trkpt><trkpt lat="39.31451437311609" lon="9.063071034011266"><ele>51.0</ele><time>2026-04-01T14:54:05Z</time></trkpt><trkpt lat="39.3143772612975" lon="9.06321528357239"><ele>50.0</ele><time>2026-04-01T14:54:06Z</time></trkpt><trkpt lat="39.314216060098104" lon="9.063384601455814"><ele>49.0</ele><time>2026-04-01T14:54:07Z</time></trkpt><trkpt lat="39.31404512350458" lon="9.063563070487671"><ele>47.5</ele><time>2026-04-01T14:54:08Z</time></trkpt><trkpt lat="39.31386728687411" lon="9.063768483479729"><ele>46.0</ele><time>2026-04-01T14:54:09Z</time></trkpt><trkpt lat="39.313687546598615" lon="9.063976681704542"><ele>45.5</ele><time>2026-04-01T14:54:10Z</time></trkpt><trkpt lat="39.31349464404491" lon="9.064190924962757"><ele>45.0</ele><time>2026-04-01T14:54:11Z</time></trkpt><trkpt lat="39.31330219170212" lon="9.064380649469491"><ele>45.0</ele><time>2026-04-01T14:54:12Z</time></trkpt><trkpt lat="39.31312065771687" lon="9.064556847344715"><ele>45.0</ele><time>2026-04-01T14:54:13Z</time></trkpt><trkpt lat="39.31295458135316" lon="9.064728910804487"><ele>45.0</ele><time>2026-04-01T14:54:14Z</time></trkpt><trkpt lat="39.3127940079388" lon="9.064894704514384"><ele>45.0</ele><time>2026-04-01T14:54:15Z</time></trkpt><trkpt lat="39.31263985420913" lon="9.06503953576436"><ele>45.0</ele><time>2026-04-01T14:54:16Z</time></trkpt><trkpt lat="39.31247662662783" lon="9.065163616564911"><ele>45.0</ele><time>2026-04-01T14:54:17Z</time></trkpt><trkpt lat="39.312304256374325" lon="9.065272727235248"><ele>44.0</ele><time>2026-04-01T14:54:18Z</time></trkpt><trkpt lat="39.31212594584532" lon="9.06537547703647"><ele>43.0</ele><time>2026-04-01T14:54:19Z</time></trkpt><trkpt lat="39.3119470729607" lon="9.065475997627859"><ele>42.0</ele><time>2026-04-01T14:54:20Z</time></trkpt><trkpt lat="39.31177049384622" lon="9.065580512793115"><ele>42.0</ele><time>2026-04-01T14:54:21Z</time></trkpt><trkpt lat="39.31160719681471" lon="9.065688854880866"><ele>42.0</ele><time>2026-04-01T14:54:22Z</time></trkpt><trkpt lat="39.311450423806015" lon="9.065793840260573"><ele>42.0</ele><time>2026-04-01T14:54:23Z</time></trkpt><trkpt lat="39.31130894523392" lon="9.065897020677303"><ele>42.666666666666664</ele><time>2026-04-01T14:54:24Z</time></trkpt><trkpt lat="39.31117478817615" lon="9.066011229362028"><ele>43.33333333333333</ele><time>2026-04-01T14:54:25Z</time></trkpt><trkpt lat="39.3110642393774" lon="9.066149779271136"><ele>44.0</ele><time>2026-04-01T14:54:26Z</time></trkpt><trkpt lat="39.31097851340651" lon="9.066326375891194"><ele>44.0</ele><time>2026-04-01T14:54:27Z</time></trkpt><trkpt lat="39.31091559937485" lon="9.066523950908392"><ele>44.0</ele><time>2026-04-01T14:54:28Z</time></trkpt><trkpt lat="39.31087581465542" lon="9.06674945581309"><ele>44.0</ele><time>2026-04-01T14:54:29Z</time></trkpt><trkpt lat="39.31086080420427" lon="9.067000441813807"><ele>44.33333333333333</ele><time>2026-04-01T14:54:30Z</time></trkpt><trkpt lat="39.31084336957351" lon="9.067258794643719"><ele>44.666666666666664</ele><time>2026-04-01T14:54:31Z</time></trkpt><trkpt lat="39.31083786332967" lon="9.067528956899034"><ele>45.0</ele><time>2026-04-01T14:54:32Z</time></trkpt><trkpt lat="39.31083145207786" lon="9.06779272843227"><ele>45.0</ele><time>2026-04-01T14:54:33Z</time></trkpt><trkpt lat="39.310800430975796" lon="9.068033010552583"><ele>45.0</ele><time>2026-04-01T14:54:34Z</time></trkpt><trkpt lat="39.310752834875174" lon="9.068266254534336"><ele>45.0</ele><time>2026-04-01T14:54:35Z</time></trkpt><trkpt lat="39.31069140579901" lon="9.068501554770267"><ele>44.666666666666664</ele><time>2026-04-01T14:54:36Z</time></trkpt><trkpt lat="39.310622395382566" lon="9.068734413126357"><ele>44.33333333333333</ele><time>2026-04-01T14:54:37Z</time></trkpt><trkpt lat="39.31055182616436" lon="9.068971235025202"><ele>44.0</ele><time>2026-04-01T14:54:38Z</time></trkpt><trkpt lat="39.310482021448145" lon="9.06920429900782"><ele>44.0</ele><time>2026-04-01T14:54:39Z</time></trkpt><trkpt lat="39.31041121864723" lon="9.069440869605103"><ele>44.0</ele><time>2026-04-01T14:54:40Z</time></trkpt><trkpt lat="39.31033818283428" lon="9.069682496049131"><ele>44.0</ele><time>2026-04-01T14:54:41Z</time></trkpt><trkpt lat="39.31026559890703" lon="9.069921964706971"><ele>44.0</ele><time>2026-04-01T14:54:42Z</time></trkpt><trkpt lat="39.31019359201859" lon="9.070159529778817"><ele>44.0</ele><time>2026-04-01T14:54:43Z</time></trkpt><trkpt lat="39.31012224525145" lon="9.070395348829848"><ele>44.0</ele><time>2026-04-01T14:54:44Z</time></trkpt><trkpt lat="39.3100512752711" lon="9.070629907667207"><ele>44.0</ele><time>2026-04-01T14:54:45Z</time></trkpt><trkpt lat="39.309980412368176" lon="9.070864112612275"><ele>44.0</ele><time>2026-04-01T14:54:46Z</time></trkpt><trkpt lat="39.30990807271532" lon="9.071104200202008"><ele>44.0</ele><time>2026-04-01T14:54:47Z</time></trkpt><trkpt lat="39.3098372908822" lon="9.071343771323555"><ele>44.0</ele><time>2026-04-01T14:54:48Z</time></trkpt><trkpt lat="39.30976563908584" lon="9.071586138765271"><ele>44.0</ele><time>2026-04-01T14:54:49Z</time></trkpt><trkpt lat="39.30969303597067" lon="9.071826598253052"><ele>44.0</ele><time>2026-04-01T14:54:50Z</time></trkpt><trkpt lat="39.30961999063386" lon="9.072069206243222"><ele>44.666666666666664</ele><time>2026-04-01T14:54:51Z</time></trkpt><trkpt lat="39.30957149105539" lon="9.072323156133804"><ele>45.333333333333336</ele><time>2026-04-01T14:54:52Z</time></trkpt><trkpt lat="39.30951570734295" lon="9.072574034836947"><ele>46.0</ele><time>2026-04-01T14:54:53Z</time></trkpt><trkpt lat="39.30946038554468" lon="9.072825308415432"><ele>46.0</ele><time>2026-04-01T14:54:54Z</time></trkpt><trkpt lat="39.30943464528521" lon="9.07309431059732"><ele>46.0</ele><time>2026-04-01T14:54:55Z</time></trkpt><trkpt lat="39.30941397107274" lon="9.073385748483165"><ele>46.0</ele><time>2026-04-01T14:54:56Z</time></trkpt><trkpt lat="39.30939697286491" lon="9.073676865045844"><ele>46.0</ele><time>2026-04-01T14:54:57Z</time></trkpt><trkpt lat="39.30938107950363" lon="9.073955056814803"><ele>46.0</ele><time>2026-04-01T14:54:58Z</time></trkpt><trkpt lat="39.309363440868836" lon="9.074231034384109"><ele>46.0</ele><time>2026-04-01T14:54:59Z</time></trkpt><trkpt lat="39.30934540358779" lon="9.07450179133311"><ele>45.66666666666667</ele><time>2026-04-01T14:55:00Z</time></trkpt><trkpt lat="39.30932541230813" lon="9.07477200391645"><ele>45.333333333333336</ele><time>2026-04-01T14:55:01Z</time></trkpt><trkpt lat="39.30930367720336" lon="9.07503947577327"><ele>45.0</ele><time>2026-04-01T14:55:02Z</time></trkpt><trkpt lat="39.30927251251478" lon="9.075302916994032"><ele>44.0</ele><time>2026-04-01T14:55:03Z</time></trkpt><trkpt lat="39.309226328561955" lon="9.075558161575781"><ele>43.0</ele><time>2026-04-01T14:55:04Z</time></trkpt><trkpt lat="39.30916715311536" lon="9.07580867845342"><ele>42.0</ele><time>2026-04-01T14:55:05Z</time></trkpt><trkpt lat="39.30909888294321" lon="9.07605495031395"><ele>42.0</ele><time>2026-04-01T14:55:06Z</time></trkpt><trkpt lat="39.30902391263243" lon="9.076303158659265"><ele>42.0</ele><time>2026-04-01T14:55:07Z</time></trkpt><trkpt lat="39.30894585432497" lon="9.07655241264008"><ele>42.0</ele><time>2026-04-01T14:55:08Z</time></trkpt><trkpt lat="39.30886494981043" lon="9.076807091804456"><ele>42.333333333333336</ele><time>2026-04-01T14:55:09Z</time></trkpt><trkpt lat="39.308783937444495" lon="9.077062552289613"><ele>42.66666666666667</ele><time>2026-04-01T14:55:10Z</time></trkpt><trkpt lat="39.30870096083389" lon="9.077320555340515"><ele>43.0</ele><time>2026-04-01T14:55:11Z</time></trkpt><trkpt lat="39.30861643046126" lon="9.077580714179362"><ele>42.0</ele><time>2026-04-01T14:55:12Z</time></trkpt><trkpt lat="39.30853404099151" lon="9.077834333368628"><ele>41.0</ele><time>2026-04-01T14:55:13Z</time></trkpt><trkpt lat="39.30845099119159" lon="9.07808998527041"><ele>40.0</ele><time>2026-04-01T14:55:14Z</time></trkpt><trkpt lat="39.308368777716446" lon="9.078343062708383"><ele>39.0</ele><time>2026-04-01T14:55:15Z</time></trkpt><trkpt lat="39.30828708449489" lon="9.078594538666682"><ele>38.0</ele><time>2026-04-01T14:55:15.999Z</time></trkpt><trkpt lat="39.308206705969546" lon="9.078842165578056"><ele>37.0</ele><time>2026-04-01T14:55:16.999Z</time></trkpt><trkpt lat="39.3081266346006" lon="9.079090788132428"><ele>37.0</ele><time>2026-04-01T14:55:17.999Z</time></trkpt><trkpt lat="39.30804757408852" lon="9.079336271967122"><ele>37.0</ele><time>2026-04-01T14:55:18.999Z</time></trkpt><trkpt lat="39.30798285006083" lon="9.079589980998392"><ele>37.0</ele><time>2026-04-01T14:55:19.999Z</time></trkpt><trkpt lat="39.30788925934948" lon="9.079827841129893"><ele>37.333333333333336</ele><time>2026-04-01T14:55:20.999Z</time></trkpt><trkpt lat="39.3078103892287" lon="9.0800759868293"><ele>37.666666666666664</ele><time>2026-04-01T14:55:21.999Z</time></trkpt><trkpt lat="39.307733412289195" lon="9.080318656674727"><ele>38.0</ele><time>2026-04-01T14:55:22.999Z</time></trkpt><trkpt lat="39.30765614115983" lon="9.080562253977268"><ele>37.33333333333333</ele><time>2026-04-01T14:55:23.999Z</time></trkpt><trkpt lat="39.30757850646967" lon="9.080806997402593"><ele>36.666666666666664</ele><time>2026-04-01T14:55:24.999Z</time></trkpt><trkpt lat="39.3075023248122" lon="9.081048190467065"><ele>36.0</ele><time>2026-04-01T14:55:25.999Z</time></trkpt><trkpt lat="39.307429194569345" lon="9.081290117808226"><ele>36.0</ele><time>2026-04-01T14:55:26.999Z</time></trkpt><trkpt lat="39.307359379075905" lon="9.081536647745216"><ele>36.0</ele><time>2026-04-01T14:55:27.999Z</time></trkpt><trkpt lat="39.30729686034983" lon="9.08176808673543"><ele>36.0</ele><time>2026-04-01T14:55:28.999Z</time></trkpt><trkpt lat="39.307239708849906" lon="9.08198426911243"><ele>36.0</ele><time>2026-04-01T14:55:29.999Z</time></trkpt><trkpt lat="39.30718511590741" lon="9.082194718680594"><ele>36.0</ele><time>2026-04-01T14:55:30.999Z</time></trkpt><trkpt lat="39.3071333490587" lon="9.082395981655704"><ele>36.0</ele><time>2026-04-01T14:55:31.999Z</time></trkpt><trkpt lat="39.30708458486703" lon="9.082588274762818"><ele>36.0</ele><time>2026-04-01T14:55:32.999Z</time></trkpt><trkpt lat="39.307039517261735" lon="9.082770430288422"><ele>36.0</ele><time>2026-04-01T14:55:33.999Z</time></trkpt><trkpt lat="39.30699550442656" lon="9.082948322235632"><ele>36.0</ele><time>2026-04-01T14:55:34.999Z</time></trkpt><trkpt lat="39.30695053620195" lon="9.083130075613822"><ele>36.0</ele><time>2026-04-01T14:55:36Z</time></trkpt><trkpt lat="39.30690462032824" lon="9.08331565949949"><ele>36.0</ele><time>2026-04-01T14:55:37Z</time></trkpt><trkpt lat="39.30685922759167" lon="9.083499128823025"><ele>36.0</ele><time>2026-04-01T14:55:38Z</time></trkpt><trkpt lat="39.306814964255366" lon="9.08367803412907"><ele>36.0</ele><time>2026-04-01T14:55:39Z</time></trkpt><trkpt lat="39.30677257134502" lon="9.083849932790057"><ele>36.0</ele><time>2026-04-01T14:55:40Z</time></trkpt><trkpt lat="39.30673157165352" lon="9.084016014639392"><ele>36.75</ele><time>2026-04-01T14:55:41Z</time></trkpt><trkpt lat="39.30668890702779" lon="9.084188840792908"><ele>37.5</ele><time>2026-04-01T14:55:42Z</time></trkpt><trkpt lat="39.306650685216205" lon="9.08434366999851"><ele>38.25</ele><time>2026-04-01T14:55:43Z</time></trkpt><trkpt lat="39.30661587916803" lon="9.084484662895912"><ele>39.0</ele><time>2026-04-01T14:55:44Z</time></trkpt><trkpt lat="39.30657699781813" lon="9.084646703413966"><ele>39.0</ele><time>2026-04-01T14:55:45Z</time></trkpt><trkpt lat="39.306538392739164" lon="9.084808184425597"><ele>39.0</ele><time>2026-04-01T14:55:46Z</time></trkpt><trkpt lat="39.30650809879058" lon="9.084968361862483"><ele>39.0</ele><time>2026-04-01T14:55:47Z</time></trkpt><trkpt lat="39.306489928441" lon="9.085121183913747"><ele>39.0</ele><time>2026-04-01T14:55:48Z</time></trkpt><trkpt lat="39.306485778003555" lon="9.0852693395404"><ele>38.8</ele><time>2026-04-01T14:55:49Z</time></trkpt><trkpt lat="39.30649341110589" lon="9.085416485764679"><ele>38.599999999999994</ele><time>2026-04-01T14:55:50Z</time></trkpt><trkpt lat="39.306508123066486" lon="9.085564109092793"><ele>38.4</ele><time>2026-04-01T14:55:51Z</time></trkpt><trkpt lat="39.30653040422558" lon="9.085707451612368"><ele>38.199999999999996</ele><time>2026-04-01T14:55:52Z</time></trkpt><trkpt lat="39.30655870776163" lon="9.085839699819333"><ele>38.0</ele><time>2026-04-01T14:55:53Z</time></trkpt><trkpt lat="39.306607595583145" lon="9.085958525089184"><ele>38.0</ele><time>2026-04-01T14:55:54Z</time></trkpt><trkpt lat="39.3066516950292" lon="9.086084169884838"><ele>38.0</ele><time>2026-04-01T14:55:55Z</time></trkpt><trkpt lat="39.3067033505403" lon="9.08620792938425"><ele>38.0</ele><time>2026-04-01T14:55:56Z</time></trkpt><trkpt lat="39.30675894003971" lon="9.086323836176833"><ele>38.0</ele><time>2026-04-01T14:55:57Z</time></trkpt><trkpt lat="39.3068168658146" lon="9.086436847496854"><ele>38.0</ele><time>2026-04-01T14:55:58Z</time></trkpt><trkpt lat="39.30687397326717" lon="9.086546290596889"><ele>38.199999999999996</ele><time>2026-04-01T14:55:59Z</time></trkpt><trkpt lat="39.30692733080771" lon="9.086657449335469"><ele>38.4</ele><time>2026-04-01T14:56:00Z</time></trkpt><trkpt lat="39.30697974262436" lon="9.08676402299466"><ele>38.599999999999994</ele><time>2026-04-01T14:56:01Z</time></trkpt><trkpt lat="39.30702121625039" lon="9.086866267989588"><ele>38.8</ele><time>2026-04-01T14:56:02Z</time></trkpt><trkpt lat="39.307046405856696" lon="9.086978401407537"><ele>39.0</ele><time>2026-04-01T14:56:03Z</time></trkpt><trkpt lat="39.30708405401066" lon="9.087071198911385"><ele>39.0</ele><time>2026-04-01T14:56:04Z</time></trkpt><trkpt lat="39.30709308893863" lon="9.08717638796189"><ele>39.0</ele><time>2026-04-01T14:56:05Z</time></trkpt><trkpt lat="39.30708745885411" lon="9.087290265675213"><ele>39.0</ele><time>2026-04-01T14:56:06Z</time></trkpt><trkpt lat="39.30706434427726" lon="9.0874020262277"><ele>39.0</ele><time>2026-04-01T14:56:07Z</time></trkpt><trkpt lat="39.3070255586246" lon="9.087489612706008"><ele>39.0</ele><time>2026-04-01T14:56:08Z</time></trkpt><trkpt lat="39.306980474592706" lon="9.087561829123688"><ele>39.0</ele><time>2026-04-01T14:56:09Z</time></trkpt><trkpt lat="39.3069290580354" lon="9.08761795780553"><ele>39.2</ele><time>2026-04-01T14:56:10Z</time></trkpt><trkpt lat="39.3068353287842" lon="9.087715620175764"><ele>39.4</ele><time>2026-04-01T14:56:12Z</time></trkpt><trkpt lat="39.30672968790094" lon="9.0877772528351"><ele>39.6</ele><time>2026-04-01T14:56:14Z</time></trkpt><trkpt lat="39.306674873605914" lon="9.087824845814612"><ele>39.8</ele><time>2026-04-01T14:56:15Z</time></trkpt><trkpt lat="39.306614718962514" lon="9.087877075766482"><ele>40.0</ele><time>2026-04-01T14:56:16Z</time></trkpt><trkpt lat="39.30656400746051" lon="9.087955391612885"><ele>40.0</ele><time>2026-04-01T14:56:17Z</time></trkpt><trkpt lat="39.30649960122362" lon="9.088020822448101"><ele>40.0</ele><time>2026-04-01T14:56:18Z</time></trkpt><trkpt lat="39.30643308419567" lon="9.088083555767303"><ele>40.0</ele><time>2026-04-01T14:56:19Z</time></trkpt><trkpt lat="39.30636482363127" lon="9.08814370980284"><ele>40.0</ele><time>2026-04-01T14:56:20Z</time></trkpt><trkpt lat="39.30629341834979" lon="9.088200347309314"><ele>40.0</ele><time>2026-04-01T14:56:21Z</time></trkpt><trkpt lat="39.30622114278497" lon="9.088253261252168"><ele>40.0</ele><time>2026-04-01T14:56:22Z</time></trkpt><trkpt lat="39.3061538382728" lon="9.088312900853838"><ele>40.4</ele><time>2026-04-01T14:56:23Z</time></trkpt><trkpt lat="39.306080511187396" lon="9.088379293759141"><ele>40.8</ele><time>2026-04-01T14:56:24Z</time></trkpt><trkpt lat="39.30600030128563" lon="9.088446969796687"><ele>41.2</ele><time>2026-04-01T14:56:25Z</time></trkpt><trkpt lat="39.30591454964258" lon="9.088514289933077"><ele>41.6</ele><time>2026-04-01T14:56:26Z</time></trkpt><trkpt lat="39.305834986539494" lon="9.088583792093976"><ele>42.0</ele><time>2026-04-01T14:56:27Z</time></trkpt><trkpt lat="39.30576217120962" lon="9.08865590485064"><ele>42.0</ele><time>2026-04-01T14:56:28Z</time></trkpt><trkpt lat="39.30569920365688" lon="9.088737927133586"><ele>42.0</ele><time>2026-04-01T14:56:29Z</time></trkpt><trkpt lat="39.305620948252134" lon="9.0888140206891"><ele>42.0</ele><time>2026-04-01T14:56:30Z</time></trkpt><trkpt lat="39.30554315295033" lon="9.088899902864462"><ele>42.0</ele><time>2026-04-01T14:56:31Z</time></trkpt><trkpt lat="39.30545339854555" lon="9.088983172387564"><ele>42.0</ele><time>2026-04-01T14:56:32Z</time></trkpt><trkpt lat="39.30537351844056" lon="9.089079177387058"><ele>42.2</ele><time>2026-04-01T14:56:33Z</time></trkpt><trkpt lat="39.30525909637236" lon="9.089141839167711"><ele>42.400000000000006</ele><time>2026-04-01T14:56:34Z</time></trkpt><trkpt lat="39.30518368880081" lon="9.089247667674721"><ele>42.599999999999994</ele><time>2026-04-01T14:56:35Z</time></trkpt><trkpt lat="39.305103414243845" lon="9.089335756510765"><ele>42.8</ele><time>2026-04-01T14:56:36Z</time></trkpt><trkpt lat="39.305022886509015" lon="9.089423472681151"><ele>43.0</ele><time>2026-04-01T14:56:37Z</time></trkpt><trkpt lat="39.3049354276797" lon="9.089505524312596"><ele>43.0</ele><time>2026-04-01T14:56:38Z</time></trkpt><trkpt lat="39.3048459077313" lon="9.089583349618913"><ele>43.0</ele><time>2026-04-01T14:56:39Z</time></trkpt><trkpt lat="39.30476836541599" lon="9.089671047908304"><ele>43.0</ele><time>2026-04-01T14:56:40Z</time></trkpt><trkpt lat="39.304689530626234" lon="9.089748659199598"><ele>43.0</ele><time>2026-04-01T14:56:41Z</time></trkpt><trkpt lat="39.30462046717609" lon="9.089814733255432"><ele>43.0</ele><time>2026-04-01T14:56:42Z</time></trkpt><trkpt lat="39.30455888693137" lon="9.08988004536987"><ele>43.0</ele><time>2026-04-01T14:56:43Z</time></trkpt><trkpt lat="39.30449641567582" lon="9.08993168732145"><ele>43.0</ele><time>2026-04-01T14:56:44Z</time></trkpt><trkpt lat="39.30452099084972" lon="9.090148449533809"><ele>43.0</ele><time>2026-04-01T14:56:46Z</time></trkpt><trkpt lat="39.30453843739859" lon="9.090240845963775"><ele>43.0</ele><time>2026-04-01T14:56:47Z</time></trkpt><trkpt lat="39.30453295280738" lon="9.090354190669444"><ele>43.0</ele><time>2026-04-01T14:56:48Z</time></trkpt><trkpt lat="39.30452926678028" lon="9.090477018580001"><ele>43.0</ele><time>2026-04-01T14:56:49Z</time></trkpt><trkpt lat="39.3045260247948" lon="9.090585933081492"><ele>43.0</ele><time>2026-04-01T14:56:50Z</time></trkpt><trkpt lat="39.30450641450794" lon="9.090687548065944"><ele>43.0</ele><time>2026-04-01T14:56:51Z</time></trkpt><trkpt lat="39.304509065313376" lon="9.090772522407521"><ele>43.0</ele><time>2026-04-01T14:56:52Z</time></trkpt><trkpt lat="39.30451257663732" lon="9.090901059898354"><ele>43.0</ele><time>2026-04-01T14:56:53.999Z</time></trkpt><trkpt lat="39.3045263291083" lon="9.090994545850284"><ele>43.0</ele><time>2026-04-01T14:56:55.999Z</time></trkpt><trkpt lat="39.30450677430197" lon="9.091102113167455"><ele>43.25</ele><time>2026-04-01T14:56:59.999Z</time></trkpt><trkpt lat="39.30437351682672" lon="9.09108903960096"><ele>43.5</ele><time>2026-04-01T14:57:00.999Z</time></trkpt><trkpt lat="39.30423909895011" lon="9.091162984371733"><ele>43.75</ele><time>2026-04-01T14:57:02.999Z</time></trkpt><trkpt lat="39.30416365469295" lon="9.09119181537396"><ele>44.0</ele><time>2026-04-01T14:57:03.999Z</time></trkpt><trkpt lat="39.30408536369547" lon="9.091252250929434"><ele>44.0</ele><time>2026-04-01T14:57:04.999Z</time></trkpt><trkpt lat="39.30398267613724" lon="9.09126097476183"><ele>44.0</ele><time>2026-04-01T14:57:05.999Z</time></trkpt><trkpt lat="39.30387194910219" lon="9.091264455624664"><ele>44.0</ele><time>2026-04-01T14:57:06.999Z</time></trkpt><trkpt lat="39.30376896280772" lon="9.091271204591573"><ele>44.0</ele><time>2026-04-01T14:57:07.999Z</time></trkpt><trkpt lat="39.303665902319004" lon="9.09127751100262"><ele>44.0</ele><time>2026-04-01T14:57:08.999Z</time></trkpt><trkpt lat="39.30357267891109" lon="9.091263650763045"><ele>43.800000000000004</ele><time>2026-04-01T14:57:09.999Z</time></trkpt><trkpt lat="39.30346151866909" lon="9.09121573871237"><ele>43.6</ele><time>2026-04-01T14:57:11.999Z</time></trkpt><trkpt lat="39.30337606694156" lon="9.091160549571693"><ele>43.4</ele><time>2026-04-01T14:57:13.999Z</time></trkpt><trkpt lat="39.303287108201616" lon="9.091131450811277"><ele>43.2</ele><time>2026-04-01T14:57:15.999Z</time></trkpt><trkpt lat="39.30316219829857" lon="9.09113432368588"><ele>43.0</ele><time>2026-04-01T14:57:17.999Z</time></trkpt><trkpt lat="39.30303518097082" lon="9.091219467816533"><ele>43.0</ele><time>2026-04-01T14:57:19.999Z</time></trkpt><trkpt lat="39.302964282497115" lon="9.091241933207852"><ele>43.0</ele><time>2026-04-01T14:57:20.999Z</time></trkpt><trkpt lat="39.3028959615774" lon="9.091273837162925"><ele>43.0</ele><time>2026-04-01T14:57:21.999Z</time></trkpt><trkpt lat="39.302833112984864" lon="9.09131088258182"><ele>43.0</ele><time>2026-04-01T14:57:22.999Z</time></trkpt><trkpt lat="39.30277227432486" lon="9.091350081013266"><ele>43.0</ele><time>2026-04-01T14:57:23.999Z</time></trkpt><trkpt lat="39.30267741397203" lon="9.091433270858957"><ele>43.0</ele><time>2026-04-01T14:57:25.999Z</time></trkpt><trkpt lat="39.302618824933134" lon="9.091474408607041"><ele>43.0</ele><time>2026-04-01T14:57:27.999Z</time></trkpt><trkpt lat="39.302559111591044" lon="9.09151656958052"><ele>43.0</ele><time>2026-04-01T14:57:29.999Z</time></trkpt><trkpt lat="39.30246548097233" lon="9.091489964811522"><ele>43.0</ele><time>2026-04-01T14:57:31.999Z</time></trkpt><trkpt lat="39.30239093454203" lon="9.0914251844526"><ele>43.0</ele><time>2026-04-01T14:57:33.999Z</time></trkpt><trkpt lat="39.3023395236039" lon="9.091304386351375"><ele>43.0</ele><time>2026-04-01T14:57:35.999Z</time></trkpt><trkpt lat="39.302285098279256" lon="9.091166374857854"><ele>43.2</ele><time>2026-04-01T14:57:37.999Z</time></trkpt><trkpt lat="39.30222786097041" lon="9.091021784411105"><ele>43.4</ele><time>2026-04-01T14:57:39.999Z</time></trkpt><trkpt lat="39.3021967321451" lon="9.090945212913"><ele>43.6</ele><time>2026-04-01T14:57:40.999Z</time></trkpt><trkpt lat="39.30213602550281" lon="9.090838926408187"><ele>43.800000000000004</ele><time>2026-04-01T14:57:43Z</time></trkpt><trkpt lat="39.302086284137005" lon="9.090732822227677"><ele>44.0</ele><time>2026-04-01T14:57:45Z</time></trkpt><trkpt lat="39.30201279950706" lon="9.090615969606993"><ele>43.666666666666664</ele><time>2026-04-01T14:57:47Z</time></trkpt><trkpt lat="39.30195950019462" lon="9.090560231330231"><ele>43.33333333333333</ele><time>2026-04-01T14:57:48Z</time></trkpt><trkpt lat="39.30190750210652" lon="9.090511378117649"><ele>43.0</ele><time>2026-04-01T14:57:49Z</time></trkpt><trkpt lat="39.3018556250335" lon="9.090435681803974"><ele>42.666666666666664</ele><time>2026-04-01T14:57:50Z</time></trkpt><trkpt lat="39.30178667560026" lon="9.090384834932584"><ele>42.333333333333336</ele><time>2026-04-01T14:57:51Z</time></trkpt><trkpt lat="39.30170928721639" lon="9.090338236518129"><ele>42.0</ele><time>2026-04-01T14:57:52Z</time></trkpt><trkpt lat="39.30163232195979" lon="9.090283539488523"><ele>42.0</ele><time>2026-04-01T14:57:53Z</time></trkpt><trkpt lat="39.30155980928714" lon="9.090204399801792"><ele>42.0</ele><time>2026-04-01T14:57:54Z</time></trkpt><trkpt lat="39.30150186272995" lon="9.09015202122622"><ele>42.0</ele><time>2026-04-01T14:57:55Z</time></trkpt><trkpt lat="39.301445793173784" lon="9.090099928808472"><ele>42.0</ele><time>2026-04-01T14:57:56Z</time></trkpt><trkpt lat="39.301390668817604" lon="9.090059624511474"><ele>42.0</ele><time>2026-04-01T14:57:57Z</time></trkpt><trkpt lat="39.30129577683037" lon="9.0899720180552"><ele>42.0</ele><time>2026-04-01T14:57:59Z</time></trkpt><trkpt lat="39.30121102642501" lon="9.089855363590258"><ele>41.833333333333336</ele><time>2026-04-01T14:58:01Z</time></trkpt><trkpt lat="39.301141381903214" lon="9.089820913839143"><ele>41.666666666666664</ele><time>2026-04-01T14:58:02Z</time></trkpt><trkpt lat="39.30108327478183" lon="9.089780250111206"><ele>41.5</ele><time>2026-04-01T14:58:03Z</time></trkpt><trkpt lat="39.301003259023744" lon="9.089740662033138"><ele>41.33333333333333</ele><time>2026-04-01T14:58:05Z</time></trkpt><trkpt lat="39.30094862522119" lon="9.08982212317177"><ele>41.166666666666664</ele><time>2026-04-01T14:58:08Z</time></trkpt><trkpt lat="39.30093663632502" lon="9.08991910422148"><ele>41.0</ele><time>2026-04-01T14:58:10Z</time></trkpt><trkpt lat="39.30091863769051" lon="9.090015765097977"><ele>41.0</ele><time>2026-04-01T14:58:12Z</time></trkpt><trkpt lat="39.300917540128765" lon="9.090107521361107"><ele>41.0</ele><time>2026-04-01T14:58:14Z</time></trkpt><trkpt lat="39.30090814400407" lon="9.090214713525723"><ele>41.0</ele><time>2026-04-01T14:58:16Z</time></trkpt><trkpt lat="39.3008995519051" lon="9.09032689886344"><ele>41.0</ele><time>2026-04-01T14:58:18Z</time></trkpt><trkpt lat="39.300888909380646" lon="9.090448919848553"><ele>41.0</ele><time>2026-04-01T14:58:20Z</time></trkpt><trkpt lat="39.30087090707631" lon="9.090575652048907"><ele>41.0</ele><time>2026-04-01T14:58:22Z</time></trkpt><trkpt lat="39.30085635515799" lon="9.090708358746603"><ele>41.4</ele><time>2026-04-01T14:58:24Z</time></trkpt><trkpt lat="39.30083915852751" lon="9.090845213851303"><ele>41.8</ele><time>2026-04-01T14:58:26Z</time></trkpt><trkpt lat="39.30082690396656" lon="9.090939486334658"><ele>42.199999999999996</ele><time>2026-04-01T14:58:28Z</time></trkpt><trkpt lat="39.300824401243545" lon="9.091045962071991"><ele>42.599999999999994</ele><time>2026-04-01T14:58:30Z</time></trkpt><trkpt lat="39.30080867124567" lon="9.091180919728373"><ele>43.0</ele><time>2026-04-01T14:58:32Z</time></trkpt><trkpt lat="39.300784543590346" lon="9.091342385471911"><ele>43.00000000000001</ele><time>2026-04-01T14:58:34Z</time></trkpt><trkpt lat="39.30077091542334" lon="9.09143101349134"><ele>43.0</ele><time>2026-04-01T14:58:35Z</time></trkpt><trkpt lat="39.30075568280806" lon="9.091523798183767"><ele>43.0</ele><time>2026-04-01T14:58:36Z</time></trkpt><trkpt lat="39.30072569385731" lon="9.091613513242368"><ele>43.0</ele><time>2026-04-01T14:58:37Z</time></trkpt><trkpt lat="39.30069076698139" lon="9.091702387068965"><ele>43.0</ele><time>2026-04-01T14:58:38Z</time></trkpt><trkpt lat="39.30066042659805" lon="9.091795210754128"><ele>43.00000000000001</ele><time>2026-04-01T14:58:39Z</time></trkpt><trkpt lat="39.300629785451676" lon="9.091881647969906"><ele>43.0</ele><time>2026-04-01T14:58:40Z</time></trkpt><trkpt lat="39.30060114353518" lon="9.091962200430924"><ele>43.0</ele><time>2026-04-01T14:58:41Z</time></trkpt><trkpt lat="39.30056549419607" lon="9.092038650381742"><ele>43.0</ele><time>2026-04-01T14:58:42Z</time></trkpt><trkpt lat="39.30053814721432" lon="9.092116095217463"><ele>43.0</ele><time>2026-04-01T14:58:43Z</time></trkpt><trkpt lat="39.300486977215336" lon="9.092249947061536"><ele>43.0</ele><time>2026-04-01T14:58:45Z</time></trkpt><trkpt lat="39.300428204092334" lon="9.092351356398261"><ele>43.0</ele><time>2026-04-01T14:58:47Z</time></trkpt><trkpt lat="39.300394188127264" lon="9.092450168632295"><ele>43.0</ele><time>2026-04-01T14:58:49Z</time></trkpt><trkpt lat="39.30035720385982" lon="9.092546463365323"><ele>43.0</ele><time>2026-04-01T14:58:52Z</time></trkpt><trkpt lat="39.30032343171184" lon="9.09262892728229"><ele>43.0</ele><time>2026-04-01T14:58:55Z</time></trkpt><trkpt lat="39.30028819518425" lon="9.092713346842178"><ele>43.0</ele><time>2026-04-01T14:58:58Z</time></trkpt><trkpt lat="39.30025284255066" lon="9.092795672020436"><ele>43.0</ele><time>2026-04-01T14:59:01Z</time></trkpt><trkpt lat="39.30022746775605" lon="9.092876053386737"><ele>43.0</ele><time>2026-04-01T14:59:03Z</time></trkpt><trkpt lat="39.30017863083826" lon="9.09301099581511"><ele>43.0</ele><time>2026-04-01T14:59:05Z</time></trkpt><trkpt lat="39.300143891471066" lon="9.093087640884114"><ele>43.0</ele><time>2026-04-01T14:59:06Z</time></trkpt><trkpt lat="39.30011584437996" lon="9.093181790736775"><ele>43.0</ele><time>2026-04-01T14:59:07Z</time></trkpt><trkpt lat="39.3001093517756" lon="9.093284897548772"><ele>43.0</ele><time>2026-04-01T14:59:08Z</time></trkpt><trkpt lat="39.300091503436654" lon="9.093385705968053"><ele>43.0</ele><time>2026-04-01T14:59:09Z</time></trkpt><trkpt lat="39.30008601913037" lon="9.093496678967819"><ele>43.0</ele><time>2026-04-01T14:59:10Z</time></trkpt><trkpt lat="39.300071223744766" lon="9.09360553145529"><ele>43.0</ele><time>2026-04-01T14:59:11Z</time></trkpt><trkpt lat="39.300080357568326" lon="9.093714309021331"><ele>43.4</ele><time>2026-04-01T14:59:12Z</time></trkpt><trkpt lat="39.300093666795334" lon="9.093830309507323"><ele>43.8</ele><time>2026-04-01T14:59:13Z</time></trkpt><trkpt lat="39.30010783158376" lon="9.093949444262439"><ele>44.2</ele><time>2026-04-01T14:59:14Z</time></trkpt><trkpt lat="39.30013939378205" lon="9.094068698030746"><ele>44.6</ele><time>2026-04-01T14:59:15Z</time></trkpt><trkpt lat="39.30014090488067" lon="9.09419468732907"><ele>45.0</ele><time>2026-04-01T14:59:16Z</time></trkpt><trkpt lat="39.3001580975973" lon="9.094317647391852"><ele>45.0</ele><time>2026-04-01T14:59:17Z</time></trkpt><trkpt lat="39.300175772622374" lon="9.094441631373776"><ele>45.0</ele><time>2026-04-01T14:59:18Z</time></trkpt><trkpt lat="39.300192781154635" lon="9.094560940176681"><ele>45.0</ele><time>2026-04-01T14:59:19Z</time></trkpt><trkpt lat="39.30020805548995" lon="9.094675810440972"><ele>45.0</ele><time>2026-04-01T14:59:20Z</time></trkpt><trkpt lat="39.30022260696417" lon="9.094786233214862"><ele>45.0</ele><time>2026-04-01T14:59:21Z</time></trkpt><trkpt lat="39.300234014141715" lon="9.094896000559753"><ele>45.166666666666664</ele><time>2026-04-01T14:59:21.999Z</time></trkpt><trkpt lat="39.30024072963906" lon="9.095000231635161"><ele>45.333333333333336</ele><time>2026-04-01T14:59:22.999Z</time></trkpt><trkpt lat="39.30024615704784" lon="9.095104352217406"><ele>45.5</ele><time>2026-04-01T14:59:23.999Z</time></trkpt><trkpt lat="39.30025175661445" lon="9.095211775583333"><ele>45.66666666666667</ele><time>2026-04-01T14:59:24.999Z</time></trkpt><trkpt lat="39.30027582042115" lon="9.09532698710374"><ele>45.833333333333336</ele><time>2026-04-01T14:59:25.999Z</time></trkpt><trkpt lat="39.30032773556067" lon="9.0954228388127"><ele>46.0</ele><time>2026-04-01T14:59:26.999Z</time></trkpt><trkpt lat="39.30037494489846" lon="9.095526325516714"><ele>46.0</ele><time>2026-04-01T14:59:27.999Z</time></trkpt><trkpt lat="39.30043103523664" lon="9.095623836186933"><ele>46.0</ele><time>2026-04-01T14:59:28.999Z</time></trkpt><trkpt lat="39.300494330235445" lon="9.095716433011807"><ele>46.0</ele><time>2026-04-01T14:59:29.999Z</time></trkpt><trkpt lat="39.300565766662196" lon="9.095801458407706"><ele>46.0</ele><time>2026-04-01T14:59:30.999Z</time></trkpt><trkpt lat="39.30064529824852" lon="9.095876986435142"><ele>46.0</ele><time>2026-04-01T14:59:31.999Z</time></trkpt><trkpt lat="39.300732676499884" lon="9.09593789461403"><ele>46.0</ele><time>2026-04-01T14:59:32.999Z</time></trkpt><trkpt lat="39.300822311802975" lon="9.095993074233563"><ele>46.0</ele><time>2026-04-01T14:59:33.999Z</time></trkpt><trkpt lat="39.30091391760948" lon="9.096042286158504"><ele>46.0</ele><time>2026-04-01T14:59:34.999Z</time></trkpt><trkpt lat="39.30100820593701" lon="9.096088469194827"><ele>46.0</ele><time>2026-04-01T14:59:35.999Z</time></trkpt><trkpt lat="39.301102958004904" lon="9.096144300271087"><ele>46.0</ele><time>2026-04-01T14:59:36.999Z</time></trkpt><trkpt lat="39.3011977692624" lon="9.096197494641642"><ele>46.0</ele><time>2026-04-01T14:59:37.999Z</time></trkpt><trkpt lat="39.301292237224224" lon="9.09624103219889"><ele>46.0</ele><time>2026-04-01T14:59:38.999Z</time></trkpt><trkpt lat="39.30138283845388" lon="9.096288636622488"><ele>46.0</ele><time>2026-04-01T14:59:39.999Z</time></trkpt><trkpt lat="39.30147359124877" lon="9.096339101577504"><ele>46.0</ele><time>2026-04-01T14:59:40.999Z</time></trkpt><trkpt lat="39.30156752607993" lon="9.096389421115093"><ele>46.0</ele><time>2026-04-01T14:59:41.999Z</time></trkpt><trkpt lat="39.30166263700582" lon="9.096437190819824"><ele>46.0</ele><time>2026-04-01T14:59:42.999Z</time></trkpt><trkpt lat="39.30176022800698" lon="9.096483396369928"><ele>46.0</ele><time>2026-04-01T14:59:43.999Z</time></trkpt><trkpt lat="39.30185847929252" lon="9.096530664618577"><ele>46.0</ele><time>2026-04-01T14:59:44.999Z</time></trkpt><trkpt lat="39.301956543326085" lon="9.096582442544848"><ele>46.0</ele><time>2026-04-01T14:59:45.999Z</time></trkpt><trkpt lat="39.30205417625233" lon="9.096640116380035"><ele>46.0</ele><time>2026-04-01T14:59:46.999Z</time></trkpt><trkpt lat="39.30215485718777" lon="9.096691207161646"><ele>46.199999999999996</ele><time>2026-04-01T14:59:47.999Z</time></trkpt><trkpt lat="39.30225998185419" lon="9.096735713997942"><ele>46.4</ele><time>2026-04-01T14:59:49Z</time></trkpt><trkpt lat="39.30235738501009" lon="9.096779273577127"><ele>46.6</ele><time>2026-04-01T14:59:49.999Z</time></trkpt><trkpt lat="39.302444661915985" lon="9.096828105375131"><ele>46.8</ele><time>2026-04-01T14:59:51Z</time></trkpt><trkpt lat="39.30252684321909" lon="9.096872368297612"><ele>47.0</ele><time>2026-04-01T14:59:52Z</time></trkpt><trkpt lat="39.302599152140154" lon="9.096920776233928"><ele>47.0</ele><time>2026-04-01T14:59:53Z</time></trkpt><trkpt lat="39.302659779655386" lon="9.097042503651442"><ele>47.0</ele><time>2026-04-01T14:59:55Z</time></trkpt><trkpt lat="39.302649666960576" lon="9.097124555364081"><ele>47.0</ele><time>2026-04-01T14:59:56Z</time></trkpt><trkpt lat="39.30261753228341" lon="9.097213785720934"><ele>47.0</ele><time>2026-04-01T14:59:57Z</time></trkpt><trkpt lat="39.3025790822661" lon="9.097309729397677"><ele>47.0</ele><time>2026-04-01T14:59:58Z</time></trkpt><trkpt lat="39.30254491484982" lon="9.097404728636256"><ele>47.0</ele><time>2026-04-01T14:59:59Z</time></trkpt><trkpt lat="39.30251087247234" lon="9.09750736455495"><ele>47.0</ele><time>2026-04-01T15:00:00Z</time></trkpt><trkpt lat="39.30246950156555" lon="9.09761401189628"><ele>47.0</ele><time>2026-04-01T15:00:01Z</time></trkpt><trkpt lat="39.302430274701535" lon="9.097713607387702"><ele>47.0</ele><time>2026-04-01T15:00:02Z</time></trkpt><trkpt lat="39.302394365731274" lon="9.097816315900003"><ele>47.0</ele><time>2026-04-01T15:00:03Z</time></trkpt><trkpt lat="39.30235213620868" lon="9.097927911607151"><ele>47.0</ele><time>2026-04-01T15:00:04Z</time></trkpt><trkpt lat="39.302299475951905" lon="9.098039335902289"><ele>46.8</ele><time>2026-04-01T15:00:05Z</time></trkpt><trkpt lat="39.30224306886374" lon="9.09815562982077"><ele>46.6</ele><time>2026-04-01T15:00:06Z</time></trkpt><trkpt lat="39.30218169628552" lon="9.098275937677725"><ele>46.4</ele><time>2026-04-01T15:00:07Z</time></trkpt><trkpt lat="39.30211688179797" lon="9.09839709228433"><ele>46.199999999999996</ele><time>2026-04-01T15:00:08Z</time></trkpt><trkpt lat="39.30205565626344" lon="9.098507620628885"><ele>46.0</ele><time>2026-04-01T15:00:09Z</time></trkpt><trkpt lat="39.30199418828581" lon="9.098622329945542"><ele>46.8</ele><time>2026-04-01T15:00:10Z</time></trkpt><trkpt lat="39.30193272721101" lon="9.098738208285125"><ele>47.599999999999994</ele><time>2026-04-01T15:00:11Z</time></trkpt><trkpt lat="39.301873671262406" lon="9.098854809944203"><ele>48.4</ele><time>2026-04-01T15:00:12Z</time></trkpt><trkpt lat="39.30181523550668" lon="9.098971848887894"><ele>49.2</ele><time>2026-04-01T15:00:13Z</time></trkpt><trkpt lat="39.30175519070938" lon="9.099085628166257"><ele>50.0</ele><time>2026-04-01T15:00:14Z</time></trkpt><trkpt lat="39.30169446347268" lon="9.09920000654318"><ele>50.8</ele><time>2026-04-01T15:00:15Z</time></trkpt><trkpt lat="39.30163313318848" lon="9.099315398109729"><ele>51.6</ele><time>2026-04-01T15:00:16Z</time></trkpt><trkpt lat="39.30157398107532" lon="9.099426052477499"><ele>52.400000000000006</ele><time>2026-04-01T15:00:17Z</time></trkpt><trkpt lat="39.301510127237535" lon="9.099536597074954"><ele>53.2</ele><time>2026-04-01T15:00:18Z</time></trkpt><trkpt lat="39.301442970786844" lon="9.099650999694367"><ele>54.0</ele><time>2026-04-01T15:00:19Z</time></trkpt><trkpt lat="39.30137852577874" lon="9.099772207101427"><ele>54.0</ele><time>2026-04-01T15:00:20Z</time></trkpt><trkpt lat="39.30131799644808" lon="9.099866345305735"><ele>54.0</ele><time>2026-04-01T15:00:21Z</time></trkpt><trkpt lat="39.301256454881056" lon="9.099937584075153"><ele>54.0</ele><time>2026-04-01T15:00:22Z</time></trkpt><trkpt lat="39.30120048366025" lon="9.099985429115575"><ele>54.0</ele><time>2026-04-01T15:00:23Z</time></trkpt><trkpt lat="39.30111930465129" lon="9.099987186620973"><ele>54.0</ele><time>2026-04-01T15:00:25Z</time></trkpt><trkpt lat="39.301120891672426" lon="9.100110211302477"><ele>54.0</ele><time>2026-04-01T15:00:26Z</time></trkpt><trkpt lat="39.30116618495071" lon="9.10004319191453"><ele>54.0</ele><time>2026-04-01T15:00:36Z</time></trkpt><trkpt lat="39.3012679972522" lon="9.099983144644419"><ele>54.00000000000001</ele><time>2026-04-01T15:00:37Z</time></trkpt><trkpt lat="39.30143659177546" lon="9.100129598713297"><ele>54.00000000000001</ele><time>2026-04-01T15:01:28.999Z</time></trkpt><trkpt lat="39.30150034458463" lon="9.100120931153619"><ele>54.0</ele><time>2026-04-01T15:08:18Z</time></trkpt><trkpt lat="39.30156221946377" lon="9.100147964434848"><ele>54.0</ele><time>2026-04-01T15:08:22Z</time></trkpt><trkpt lat="39.30161258389669" lon="9.100205536683362"><ele>55.0</ele><time>2026-04-01T15:08:27Z</time></trkpt><trkpt lat="39.3016115043348" lon="9.100297163213853"><ele>55.0</ele><time>2026-04-01T15:08:35Z</time></trkpt></trkseg></trk></gpx>